<?xml version="1.0" encoding="UTF-8" standalone="no" ?>
<gpx xmlns="http://www.topografix.com/GPX/1/1" xmlns:xsi="http://www.w3.org/2001/XMLSchema-instance" xsi:schemaLocation="http://www.topografix.com/GPX/1/1 http://www.topografix.com/GPX/1/1/gpx.xsd" version="1.1" creator="VisuGPX - https://www.visugpx.com">
  <metadata>
    <name>VTT AM Cabrières  / Vailhan</name>
    <desc><![CDATA[Sortie typée AM depuis Cabrières. Sortie très roulante avec des petites descentes et les classiques du coin (Lauriol, Tiberet, le chateau).]]></desc>
  </metadata>
  <trk>
    <name><![CDATA[Sortie AM sur Cabrieres / Vailhan]]></name>
    <trkseg>
      <trkpt lat="43.57742" lon="3.36261">
        <ele>122.4</ele>
        <time>2017-12-09T12:00:05Z</time>
      </trkpt>
      <trkpt lat="43.57736" lon="3.36258">
        <ele>122.5</ele>
        <time>2017-12-09T12:00:14Z</time>
      </trkpt>
      <trkpt lat="43.57732" lon="3.36262">
        <ele>122.1</ele>
        <time>2017-12-09T12:01:19Z</time>
      </trkpt>
      <trkpt lat="43.57733" lon="3.36258">
        <ele>122.3</ele>
        <time>2017-12-09T12:01:23Z</time>
      </trkpt>
      <trkpt lat="43.57733" lon="3.36262">
        <ele>122.1</ele>
        <time>2017-12-09T12:02:18Z</time>
      </trkpt>
      <trkpt lat="43.57736" lon="3.36263">
        <ele>122.2</ele>
        <time>2017-12-09T12:04:09Z</time>
      </trkpt>
      <trkpt lat="43.57738" lon="3.3626">
        <ele>122.3</ele>
        <time>2017-12-09T12:04:49Z</time>
      </trkpt>
      <trkpt lat="43.57735" lon="3.36259">
        <ele>122.5</ele>
        <time>2017-12-09T12:05:06Z</time>
      </trkpt>
      <trkpt lat="43.57734" lon="3.36262">
        <ele>122.1</ele>
        <time>2017-12-09T12:05:17Z</time>
      </trkpt>
      <trkpt lat="43.57733" lon="3.36257">
        <ele>122.3</ele>
        <time>2017-12-09T12:05:26Z</time>
      </trkpt>
      <trkpt lat="43.57731" lon="3.36257">
        <ele>122.2</ele>
        <time>2017-12-09T12:05:33Z</time>
      </trkpt>
      <trkpt lat="43.57728" lon="3.36256">
        <ele>122.2</ele>
        <time>2017-12-09T12:05:46Z</time>
      </trkpt>
      <trkpt lat="43.57727" lon="3.3626">
        <ele>121.9</ele>
        <time>2017-12-09T12:05:57Z</time>
      </trkpt>
      <trkpt lat="43.5773" lon="3.36259">
        <ele>122</ele>
        <time>2017-12-09T12:06:04Z</time>
      </trkpt>
      <trkpt lat="43.57733" lon="3.36259">
        <ele>122.1</ele>
        <time>2017-12-09T12:06:11Z</time>
      </trkpt>
      <trkpt lat="43.57729" lon="3.36261">
        <ele>122</ele>
        <time>2017-12-09T12:06:35Z</time>
      </trkpt>
      <trkpt lat="43.57727" lon="3.36263">
        <ele>121.9</ele>
        <time>2017-12-09T12:06:43Z</time>
      </trkpt>
      <trkpt lat="43.57729" lon="3.36263">
        <ele>122</ele>
        <time>2017-12-09T12:07:03Z</time>
      </trkpt>
      <trkpt lat="43.57733" lon="3.36264">
        <ele>121.8</ele>
        <time>2017-12-09T12:07:09Z</time>
      </trkpt>
      <trkpt lat="43.57735" lon="3.36267">
        <ele>121.9</ele>
        <time>2017-12-09T12:07:14Z</time>
      </trkpt>
      <trkpt lat="43.57736" lon="3.36272">
        <ele>121.7</ele>
        <time>2017-12-09T12:07:48Z</time>
      </trkpt>
      <trkpt lat="43.57734" lon="3.36274">
        <ele>121.3</ele>
        <time>2017-12-09T12:08:27Z</time>
      </trkpt>
      <trkpt lat="43.57731" lon="3.36272">
        <ele>121.2</ele>
        <time>2017-12-09T12:09:28Z</time>
      </trkpt>
      <trkpt lat="43.57733" lon="3.3627">
        <ele>121.5</ele>
        <time>2017-12-09T12:09:58Z</time>
      </trkpt>
      <trkpt lat="43.57735" lon="3.36265">
        <ele>121.9</ele>
        <time>2017-12-09T12:10:02Z</time>
      </trkpt>
      <trkpt lat="43.57735" lon="3.36261">
        <ele>122.2</ele>
        <time>2017-12-09T12:10:05Z</time>
      </trkpt>
      <trkpt lat="43.57734" lon="3.36258">
        <ele>122.3</ele>
        <time>2017-12-09T12:10:12Z</time>
      </trkpt>
      <trkpt lat="43.57733" lon="3.36262">
        <ele>122.1</ele>
        <time>2017-12-09T12:10:42Z</time>
      </trkpt>
      <trkpt lat="43.57732" lon="3.36267">
        <ele>121.8</ele>
        <time>2017-12-09T12:10:45Z</time>
      </trkpt>
      <trkpt lat="43.57731" lon="3.36272">
        <ele>121.3</ele>
        <time>2017-12-09T12:10:48Z</time>
      </trkpt>
      <trkpt lat="43.57728" lon="3.36273">
        <ele>121.2</ele>
        <time>2017-12-09T12:10:51Z</time>
      </trkpt>
      <trkpt lat="43.57728" lon="3.36269">
        <ele>121.4</ele>
        <time>2017-12-09T12:10:53Z</time>
      </trkpt>
      <trkpt lat="43.57731" lon="3.36266">
        <ele>121.7</ele>
        <time>2017-12-09T12:10:56Z</time>
      </trkpt>
      <trkpt lat="43.57733" lon="3.36262">
        <ele>122.1</ele>
        <time>2017-12-09T12:10:59Z</time>
      </trkpt>
      <trkpt lat="43.57732" lon="3.36266">
        <ele>121.8</ele>
        <time>2017-12-09T12:11:05Z</time>
      </trkpt>
      <trkpt lat="43.5773" lon="3.36269">
        <ele>121.4</ele>
        <time>2017-12-09T12:11:08Z</time>
      </trkpt>
      <trkpt lat="43.57733" lon="3.36271">
        <ele>121.5</ele>
        <time>2017-12-09T12:11:34Z</time>
      </trkpt>
      <trkpt lat="43.57732" lon="3.36274">
        <ele>121.5</ele>
        <time>2017-12-09T12:12:03Z</time>
      </trkpt>
      <trkpt lat="43.57735" lon="3.36279">
        <ele>121.4</ele>
        <time>2017-12-09T12:12:05Z</time>
      </trkpt>
      <trkpt lat="43.57737" lon="3.36282">
        <ele>121.4</ele>
        <time>2017-12-09T12:12:06Z</time>
      </trkpt>
      <trkpt lat="43.5774" lon="3.36286">
        <ele>121.3</ele>
        <time>2017-12-09T12:12:07Z</time>
      </trkpt>
      <trkpt lat="43.57742" lon="3.36291">
        <ele>121.2</ele>
        <time>2017-12-09T12:12:08Z</time>
      </trkpt>
      <trkpt lat="43.57742" lon="3.36295">
        <ele>121.2</ele>
        <time>2017-12-09T12:12:09Z</time>
      </trkpt>
      <trkpt lat="43.57742" lon="3.363">
        <ele>121.1</ele>
        <time>2017-12-09T12:12:11Z</time>
      </trkpt>
      <trkpt lat="43.57739" lon="3.36302">
        <ele>121</ele>
        <time>2017-12-09T12:12:13Z</time>
      </trkpt>
      <trkpt lat="43.57732" lon="3.36296">
        <ele>121</ele>
        <time>2017-12-09T12:12:15Z</time>
      </trkpt>
      <trkpt lat="43.57727" lon="3.36292">
        <ele>121</ele>
        <time>2017-12-09T12:12:16Z</time>
      </trkpt>
      <trkpt lat="43.57723" lon="3.3629">
        <ele>121</ele>
        <time>2017-12-09T12:12:17Z</time>
      </trkpt>
      <trkpt lat="43.57719" lon="3.36289">
        <ele>121</ele>
        <time>2017-12-09T12:12:18Z</time>
      </trkpt>
      <trkpt lat="43.57713" lon="3.36287">
        <ele>121</ele>
        <time>2017-12-09T12:12:20Z</time>
      </trkpt>
      <trkpt lat="43.57709" lon="3.36285">
        <ele>121</ele>
        <time>2017-12-09T12:12:21Z</time>
      </trkpt>
      <trkpt lat="43.57707" lon="3.36283">
        <ele>121.1</ele>
        <time>2017-12-09T12:12:22Z</time>
      </trkpt>
      <trkpt lat="43.57704" lon="3.36282">
        <ele>121.4</ele>
        <time>2017-12-09T12:12:25Z</time>
      </trkpt>
      <trkpt lat="43.57702" lon="3.3628">
        <ele>121.7</ele>
        <time>2017-12-09T12:12:28Z</time>
      </trkpt>
      <trkpt lat="43.57702" lon="3.36275">
        <ele>121.9</ele>
        <time>2017-12-09T12:12:32Z</time>
      </trkpt>
      <trkpt lat="43.57699" lon="3.36271">
        <ele>122.3</ele>
        <time>2017-12-09T12:12:34Z</time>
      </trkpt>
      <trkpt lat="43.57697" lon="3.36266">
        <ele>122.5</ele>
        <time>2017-12-09T12:12:36Z</time>
      </trkpt>
      <trkpt lat="43.57695" lon="3.36262">
        <ele>122.7</ele>
        <time>2017-12-09T12:12:38Z</time>
      </trkpt>
      <trkpt lat="43.57694" lon="3.36257">
        <ele>122.8</ele>
        <time>2017-12-09T12:12:40Z</time>
      </trkpt>
      <trkpt lat="43.57693" lon="3.36253">
        <ele>122.9</ele>
        <time>2017-12-09T12:12:42Z</time>
      </trkpt>
      <trkpt lat="43.57692" lon="3.36249">
        <ele>123.1</ele>
        <time>2017-12-09T12:12:44Z</time>
      </trkpt>
      <trkpt lat="43.57691" lon="3.36246">
        <ele>123.2</ele>
        <time>2017-12-09T12:12:46Z</time>
      </trkpt>
      <trkpt lat="43.57689" lon="3.36242">
        <ele>123.4</ele>
        <time>2017-12-09T12:12:47Z</time>
      </trkpt>
      <trkpt lat="43.57685" lon="3.36237">
        <ele>123.6</ele>
        <time>2017-12-09T12:12:49Z</time>
      </trkpt>
      <trkpt lat="43.57683" lon="3.36233">
        <ele>123.7</ele>
        <time>2017-12-09T12:12:51Z</time>
      </trkpt>
      <trkpt lat="43.57681" lon="3.36229">
        <ele>123.8</ele>
        <time>2017-12-09T12:12:52Z</time>
      </trkpt>
      <trkpt lat="43.57679" lon="3.36224">
        <ele>123.9</ele>
        <time>2017-12-09T12:12:53Z</time>
      </trkpt>
      <trkpt lat="43.57678" lon="3.36219">
        <ele>124</ele>
        <time>2017-12-09T12:12:54Z</time>
      </trkpt>
      <trkpt lat="43.57677" lon="3.36215">
        <ele>124</ele>
        <time>2017-12-09T12:12:55Z</time>
      </trkpt>
      <trkpt lat="43.57675" lon="3.3621">
        <ele>124</ele>
        <time>2017-12-09T12:12:57Z</time>
      </trkpt>
      <trkpt lat="43.57673" lon="3.36207">
        <ele>124</ele>
        <time>2017-12-09T12:13:00Z</time>
      </trkpt>
      <trkpt lat="43.5767" lon="3.36204">
        <ele>124</ele>
        <time>2017-12-09T12:13:03Z</time>
      </trkpt>
      <trkpt lat="43.57668" lon="3.36201">
        <ele>124</ele>
        <time>2017-12-09T12:13:06Z</time>
      </trkpt>
      <trkpt lat="43.57665" lon="3.36199">
        <ele>124</ele>
        <time>2017-12-09T12:13:07Z</time>
      </trkpt>
      <trkpt lat="43.57662" lon="3.36198">
        <ele>123.4</ele>
        <time>2017-12-09T12:13:08Z</time>
      </trkpt>
      <trkpt lat="43.57655" lon="3.36199">
        <ele>122.7</ele>
        <time>2017-12-09T12:13:10Z</time>
      </trkpt>
      <trkpt lat="43.57651" lon="3.36202">
        <ele>122.1</ele>
        <time>2017-12-09T12:13:11Z</time>
      </trkpt>
      <trkpt lat="43.57647" lon="3.36205">
        <ele>121.8</ele>
        <time>2017-12-09T12:13:12Z</time>
      </trkpt>
      <trkpt lat="43.57644" lon="3.36209">
        <ele>121.6</ele>
        <time>2017-12-09T12:13:13Z</time>
      </trkpt>
      <trkpt lat="43.5764" lon="3.36213">
        <ele>121.4</ele>
        <time>2017-12-09T12:13:14Z</time>
      </trkpt>
      <trkpt lat="43.57636" lon="3.36217">
        <ele>121.3</ele>
        <time>2017-12-09T12:13:15Z</time>
      </trkpt>
      <trkpt lat="43.57632" lon="3.36221">
        <ele>121.2</ele>
        <time>2017-12-09T12:13:16Z</time>
      </trkpt>
      <trkpt lat="43.57627" lon="3.36225">
        <ele>121</ele>
        <time>2017-12-09T12:13:17Z</time>
      </trkpt>
      <trkpt lat="43.57623" lon="3.36231">
        <ele>120.9</ele>
        <time>2017-12-09T12:13:18Z</time>
      </trkpt>
      <trkpt lat="43.57618" lon="3.36234">
        <ele>120.8</ele>
        <time>2017-12-09T12:13:19Z</time>
      </trkpt>
      <trkpt lat="43.57615" lon="3.36239">
        <ele>120.6</ele>
        <time>2017-12-09T12:13:20Z</time>
      </trkpt>
      <trkpt lat="43.57612" lon="3.36244">
        <ele>120.3</ele>
        <time>2017-12-09T12:13:21Z</time>
      </trkpt>
      <trkpt lat="43.57607" lon="3.36249">
        <ele>119.8</ele>
        <time>2017-12-09T12:13:22Z</time>
      </trkpt>
      <trkpt lat="43.57603" lon="3.36253">
        <ele>119.2</ele>
        <time>2017-12-09T12:13:23Z</time>
      </trkpt>
      <trkpt lat="43.57599" lon="3.36258">
        <ele>119</ele>
        <time>2017-12-09T12:13:24Z</time>
      </trkpt>
      <trkpt lat="43.57596" lon="3.36262">
        <ele>119</ele>
        <time>2017-12-09T12:13:25Z</time>
      </trkpt>
      <trkpt lat="43.57593" lon="3.36267">
        <ele>118.7</ele>
        <time>2017-12-09T12:13:26Z</time>
      </trkpt>
      <trkpt lat="43.57589" lon="3.36273">
        <ele>117.6</ele>
        <time>2017-12-09T12:13:27Z</time>
      </trkpt>
      <trkpt lat="43.57584" lon="3.3628">
        <ele>116.2</ele>
        <time>2017-12-09T12:13:28Z</time>
      </trkpt>
      <trkpt lat="43.57581" lon="3.36287">
        <ele>115</ele>
        <time>2017-12-09T12:13:29Z</time>
      </trkpt>
      <trkpt lat="43.57578" lon="3.36295">
        <ele>113.7</ele>
        <time>2017-12-09T12:13:30Z</time>
      </trkpt>
      <trkpt lat="43.57578" lon="3.36305">
        <ele>112.8</ele>
        <time>2017-12-09T12:13:31Z</time>
      </trkpt>
      <trkpt lat="43.57578" lon="3.36316">
        <ele>112.4</ele>
        <time>2017-12-09T12:13:32Z</time>
      </trkpt>
      <trkpt lat="43.57579" lon="3.36326">
        <ele>112.1</ele>
        <time>2017-12-09T12:13:33Z</time>
      </trkpt>
      <trkpt lat="43.57579" lon="3.36337">
        <ele>111.7</ele>
        <time>2017-12-09T12:13:34Z</time>
      </trkpt>
      <trkpt lat="43.57579" lon="3.36347">
        <ele>111.3</ele>
        <time>2017-12-09T12:13:35Z</time>
      </trkpt>
      <trkpt lat="43.57579" lon="3.36356">
        <ele>111</ele>
        <time>2017-12-09T12:13:36Z</time>
      </trkpt>
      <trkpt lat="43.57578" lon="3.36363">
        <ele>111</ele>
        <time>2017-12-09T12:13:37Z</time>
      </trkpt>
      <trkpt lat="43.57577" lon="3.36369">
        <ele>111</ele>
        <time>2017-12-09T12:13:38Z</time>
      </trkpt>
      <trkpt lat="43.57576" lon="3.36372">
        <ele>111</ele>
        <time>2017-12-09T12:13:39Z</time>
      </trkpt>
      <trkpt lat="43.57572" lon="3.36375">
        <ele>111.1</ele>
        <time>2017-12-09T12:13:41Z</time>
      </trkpt>
      <trkpt lat="43.57569" lon="3.36374">
        <ele>111.1</ele>
        <time>2017-12-09T12:13:42Z</time>
      </trkpt>
      <trkpt lat="43.57564" lon="3.36373">
        <ele>111.1</ele>
        <time>2017-12-09T12:13:43Z</time>
      </trkpt>
      <trkpt lat="43.57558" lon="3.36372">
        <ele>111.2</ele>
        <time>2017-12-09T12:13:44Z</time>
      </trkpt>
      <trkpt lat="43.57553" lon="3.36371">
        <ele>111.2</ele>
        <time>2017-12-09T12:13:45Z</time>
      </trkpt>
      <trkpt lat="43.57547" lon="3.3637">
        <ele>111.2</ele>
        <time>2017-12-09T12:13:46Z</time>
      </trkpt>
      <trkpt lat="43.57542" lon="3.36369">
        <ele>111.2</ele>
        <time>2017-12-09T12:13:47Z</time>
      </trkpt>
      <trkpt lat="43.57538" lon="3.36368">
        <ele>111.2</ele>
        <time>2017-12-09T12:13:48Z</time>
      </trkpt>
      <trkpt lat="43.57533" lon="3.36367">
        <ele>111.2</ele>
        <time>2017-12-09T12:13:49Z</time>
      </trkpt>
      <trkpt lat="43.57528" lon="3.36365">
        <ele>111.2</ele>
        <time>2017-12-09T12:13:50Z</time>
      </trkpt>
      <trkpt lat="43.57523" lon="3.36364">
        <ele>111.2</ele>
        <time>2017-12-09T12:13:51Z</time>
      </trkpt>
      <trkpt lat="43.57518" lon="3.36364">
        <ele>111.2</ele>
        <time>2017-12-09T12:13:52Z</time>
      </trkpt>
      <trkpt lat="43.57513" lon="3.36364">
        <ele>111.1</ele>
        <time>2017-12-09T12:13:53Z</time>
      </trkpt>
      <trkpt lat="43.57509" lon="3.36364">
        <ele>111</ele>
        <time>2017-12-09T12:13:54Z</time>
      </trkpt>
      <trkpt lat="43.57504" lon="3.36362">
        <ele>111</ele>
        <time>2017-12-09T12:13:55Z</time>
      </trkpt>
      <trkpt lat="43.57499" lon="3.36361">
        <ele>110.9</ele>
        <time>2017-12-09T12:13:56Z</time>
      </trkpt>
      <trkpt lat="43.57495" lon="3.36359">
        <ele>110.9</ele>
        <time>2017-12-09T12:13:57Z</time>
      </trkpt>
      <trkpt lat="43.57491" lon="3.36358">
        <ele>110.8</ele>
        <time>2017-12-09T12:13:58Z</time>
      </trkpt>
      <trkpt lat="43.57487" lon="3.36357">
        <ele>110.8</ele>
        <time>2017-12-09T12:13:59Z</time>
      </trkpt>
      <trkpt lat="43.57483" lon="3.36357">
        <ele>110.7</ele>
        <time>2017-12-09T12:14:00Z</time>
      </trkpt>
      <trkpt lat="43.5748" lon="3.36356">
        <ele>110.7</ele>
        <time>2017-12-09T12:14:01Z</time>
      </trkpt>
      <trkpt lat="43.57477" lon="3.36355">
        <ele>110.6</ele>
        <time>2017-12-09T12:14:02Z</time>
      </trkpt>
      <trkpt lat="43.57473" lon="3.36355">
        <ele>110.6</ele>
        <time>2017-12-09T12:14:03Z</time>
      </trkpt>
      <trkpt lat="43.57469" lon="3.36354">
        <ele>110.5</ele>
        <time>2017-12-09T12:14:04Z</time>
      </trkpt>
      <trkpt lat="43.57465" lon="3.36354">
        <ele>110.5</ele>
        <time>2017-12-09T12:14:05Z</time>
      </trkpt>
      <trkpt lat="43.57461" lon="3.36353">
        <ele>110.4</ele>
        <time>2017-12-09T12:14:06Z</time>
      </trkpt>
      <trkpt lat="43.57457" lon="3.36353">
        <ele>110.4</ele>
        <time>2017-12-09T12:14:07Z</time>
      </trkpt>
      <trkpt lat="43.57453" lon="3.36352">
        <ele>110.3</ele>
        <time>2017-12-09T12:14:08Z</time>
      </trkpt>
      <trkpt lat="43.57449" lon="3.36351">
        <ele>110.3</ele>
        <time>2017-12-09T12:14:09Z</time>
      </trkpt>
      <trkpt lat="43.57445" lon="3.36351">
        <ele>110.2</ele>
        <time>2017-12-09T12:14:10Z</time>
      </trkpt>
      <trkpt lat="43.57441" lon="3.36351">
        <ele>110.1</ele>
        <time>2017-12-09T12:14:11Z</time>
      </trkpt>
      <trkpt lat="43.57437" lon="3.36351">
        <ele>110.1</ele>
        <time>2017-12-09T12:14:12Z</time>
      </trkpt>
      <trkpt lat="43.57433" lon="3.36351">
        <ele>110</ele>
        <time>2017-12-09T12:14:13Z</time>
      </trkpt>
      <trkpt lat="43.57429" lon="3.36351">
        <ele>109.9</ele>
        <time>2017-12-09T12:14:14Z</time>
      </trkpt>
      <trkpt lat="43.57426" lon="3.36351">
        <ele>109.9</ele>
        <time>2017-12-09T12:14:15Z</time>
      </trkpt>
      <trkpt lat="43.57422" lon="3.36352">
        <ele>109.8</ele>
        <time>2017-12-09T12:14:16Z</time>
      </trkpt>
      <trkpt lat="43.57417" lon="3.36353">
        <ele>109.8</ele>
        <time>2017-12-09T12:14:17Z</time>
      </trkpt>
      <trkpt lat="43.57412" lon="3.36355">
        <ele>109.7</ele>
        <time>2017-12-09T12:14:18Z</time>
      </trkpt>
      <trkpt lat="43.57407" lon="3.36356">
        <ele>109.6</ele>
        <time>2017-12-09T12:14:19Z</time>
      </trkpt>
      <trkpt lat="43.57403" lon="3.36358">
        <ele>109.5</ele>
        <time>2017-12-09T12:14:20Z</time>
      </trkpt>
      <trkpt lat="43.57397" lon="3.36359">
        <ele>109.4</ele>
        <time>2017-12-09T12:14:21Z</time>
      </trkpt>
      <trkpt lat="43.57393" lon="3.36361">
        <ele>109.3</ele>
        <time>2017-12-09T12:14:22Z</time>
      </trkpt>
      <trkpt lat="43.57388" lon="3.36363">
        <ele>109.3</ele>
        <time>2017-12-09T12:14:23Z</time>
      </trkpt>
      <trkpt lat="43.57383" lon="3.36365">
        <ele>109.2</ele>
        <time>2017-12-09T12:14:24Z</time>
      </trkpt>
      <trkpt lat="43.57378" lon="3.36366">
        <ele>109.1</ele>
        <time>2017-12-09T12:14:25Z</time>
      </trkpt>
      <trkpt lat="43.57374" lon="3.36367">
        <ele>109.1</ele>
        <time>2017-12-09T12:14:26Z</time>
      </trkpt>
      <trkpt lat="43.57369" lon="3.36367">
        <ele>109</ele>
        <time>2017-12-09T12:14:27Z</time>
      </trkpt>
      <trkpt lat="43.57365" lon="3.36367">
        <ele>109</ele>
        <time>2017-12-09T12:14:28Z</time>
      </trkpt>
      <trkpt lat="43.5736" lon="3.36367">
        <ele>109</ele>
        <time>2017-12-09T12:14:29Z</time>
      </trkpt>
      <trkpt lat="43.57355" lon="3.36366">
        <ele>109</ele>
        <time>2017-12-09T12:14:30Z</time>
      </trkpt>
      <trkpt lat="43.57351" lon="3.36365">
        <ele>109</ele>
        <time>2017-12-09T12:14:31Z</time>
      </trkpt>
      <trkpt lat="43.57346" lon="3.36363">
        <ele>109</ele>
        <time>2017-12-09T12:14:32Z</time>
      </trkpt>
      <trkpt lat="43.57341" lon="3.36362">
        <ele>109.1</ele>
        <time>2017-12-09T12:14:33Z</time>
      </trkpt>
      <trkpt lat="43.57336" lon="3.36361">
        <ele>109.7</ele>
        <time>2017-12-09T12:14:34Z</time>
      </trkpt>
      <trkpt lat="43.57331" lon="3.3636">
        <ele>110</ele>
        <time>2017-12-09T12:14:35Z</time>
      </trkpt>
      <trkpt lat="43.57327" lon="3.36358">
        <ele>110.3</ele>
        <time>2017-12-09T12:14:36Z</time>
      </trkpt>
      <trkpt lat="43.57322" lon="3.36357">
        <ele>110.6</ele>
        <time>2017-12-09T12:14:37Z</time>
      </trkpt>
      <trkpt lat="43.57318" lon="3.36356">
        <ele>110.9</ele>
        <time>2017-12-09T12:14:38Z</time>
      </trkpt>
      <trkpt lat="43.57313" lon="3.36354">
        <ele>111.1</ele>
        <time>2017-12-09T12:14:39Z</time>
      </trkpt>
      <trkpt lat="43.57309" lon="3.36353">
        <ele>111.4</ele>
        <time>2017-12-09T12:14:40Z</time>
      </trkpt>
      <trkpt lat="43.57304" lon="3.36352">
        <ele>111.8</ele>
        <time>2017-12-09T12:14:41Z</time>
      </trkpt>
      <trkpt lat="43.57298" lon="3.36351">
        <ele>112</ele>
        <time>2017-12-09T12:14:42Z</time>
      </trkpt>
      <trkpt lat="43.57294" lon="3.36349">
        <ele>112.2</ele>
        <time>2017-12-09T12:14:43Z</time>
      </trkpt>
      <trkpt lat="43.57289" lon="3.36347">
        <ele>112.5</ele>
        <time>2017-12-09T12:14:44Z</time>
      </trkpt>
      <trkpt lat="43.57285" lon="3.36346">
        <ele>112.7</ele>
        <time>2017-12-09T12:14:45Z</time>
      </trkpt>
      <trkpt lat="43.57281" lon="3.36345">
        <ele>112.8</ele>
        <time>2017-12-09T12:14:46Z</time>
      </trkpt>
      <trkpt lat="43.57277" lon="3.36344">
        <ele>113.1</ele>
        <time>2017-12-09T12:14:47Z</time>
      </trkpt>
      <trkpt lat="43.57272" lon="3.36343">
        <ele>113.3</ele>
        <time>2017-12-09T12:14:48Z</time>
      </trkpt>
      <trkpt lat="43.57268" lon="3.36341">
        <ele>113.6</ele>
        <time>2017-12-09T12:14:49Z</time>
      </trkpt>
      <trkpt lat="43.57263" lon="3.3634">
        <ele>114</ele>
        <time>2017-12-09T12:14:50Z</time>
      </trkpt>
      <trkpt lat="43.57259" lon="3.36339">
        <ele>114.2</ele>
        <time>2017-12-09T12:14:51Z</time>
      </trkpt>
      <trkpt lat="43.57254" lon="3.36338">
        <ele>114.4</ele>
        <time>2017-12-09T12:14:52Z</time>
      </trkpt>
      <trkpt lat="43.5725" lon="3.36338">
        <ele>114.9</ele>
        <time>2017-12-09T12:14:53Z</time>
      </trkpt>
      <trkpt lat="43.57246" lon="3.36337">
        <ele>115.3</ele>
        <time>2017-12-09T12:14:54Z</time>
      </trkpt>
      <trkpt lat="43.57241" lon="3.36336">
        <ele>115.5</ele>
        <time>2017-12-09T12:14:55Z</time>
      </trkpt>
      <trkpt lat="43.57237" lon="3.36335">
        <ele>115.8</ele>
        <time>2017-12-09T12:14:56Z</time>
      </trkpt>
      <trkpt lat="43.57232" lon="3.36335">
        <ele>116</ele>
        <time>2017-12-09T12:14:57Z</time>
      </trkpt>
      <trkpt lat="43.57227" lon="3.36335">
        <ele>116.2</ele>
        <time>2017-12-09T12:14:58Z</time>
      </trkpt>
      <trkpt lat="43.57222" lon="3.36333">
        <ele>116.4</ele>
        <time>2017-12-09T12:14:59Z</time>
      </trkpt>
      <trkpt lat="43.57217" lon="3.36331">
        <ele>116.6</ele>
        <time>2017-12-09T12:15:00Z</time>
      </trkpt>
      <trkpt lat="43.57211" lon="3.3633">
        <ele>116.7</ele>
        <time>2017-12-09T12:15:01Z</time>
      </trkpt>
      <trkpt lat="43.57206" lon="3.36328">
        <ele>116.9</ele>
        <time>2017-12-09T12:15:02Z</time>
      </trkpt>
      <trkpt lat="43.572" lon="3.36327">
        <ele>117</ele>
        <time>2017-12-09T12:15:03Z</time>
      </trkpt>
      <trkpt lat="43.57195" lon="3.36326">
        <ele>117.1</ele>
        <time>2017-12-09T12:15:04Z</time>
      </trkpt>
      <trkpt lat="43.5719" lon="3.36324">
        <ele>117.3</ele>
        <time>2017-12-09T12:15:05Z</time>
      </trkpt>
      <trkpt lat="43.57184" lon="3.36323">
        <ele>117.4</ele>
        <time>2017-12-09T12:15:06Z</time>
      </trkpt>
      <trkpt lat="43.57179" lon="3.36322">
        <ele>117.5</ele>
        <time>2017-12-09T12:15:07Z</time>
      </trkpt>
      <trkpt lat="43.57174" lon="3.3632">
        <ele>117.7</ele>
        <time>2017-12-09T12:15:08Z</time>
      </trkpt>
      <trkpt lat="43.57169" lon="3.36319">
        <ele>118</ele>
        <time>2017-12-09T12:15:09Z</time>
      </trkpt>
      <trkpt lat="43.57164" lon="3.36318">
        <ele>118.2</ele>
        <time>2017-12-09T12:15:10Z</time>
      </trkpt>
      <trkpt lat="43.57159" lon="3.36317">
        <ele>118.3</ele>
        <time>2017-12-09T12:15:11Z</time>
      </trkpt>
      <trkpt lat="43.57154" lon="3.36316">
        <ele>118.5</ele>
        <time>2017-12-09T12:15:12Z</time>
      </trkpt>
      <trkpt lat="43.57149" lon="3.36314">
        <ele>118.6</ele>
        <time>2017-12-09T12:15:13Z</time>
      </trkpt>
      <trkpt lat="43.57145" lon="3.36313">
        <ele>118.8</ele>
        <time>2017-12-09T12:15:14Z</time>
      </trkpt>
      <trkpt lat="43.5714" lon="3.36311">
        <ele>118.9</ele>
        <time>2017-12-09T12:15:15Z</time>
      </trkpt>
      <trkpt lat="43.57135" lon="3.36308">
        <ele>119</ele>
        <time>2017-12-09T12:15:16Z</time>
      </trkpt>
      <trkpt lat="43.57131" lon="3.36304">
        <ele>119.1</ele>
        <time>2017-12-09T12:15:17Z</time>
      </trkpt>
      <trkpt lat="43.57127" lon="3.36301">
        <ele>119.1</ele>
        <time>2017-12-09T12:15:18Z</time>
      </trkpt>
      <trkpt lat="43.57123" lon="3.36298">
        <ele>119</ele>
        <time>2017-12-09T12:15:19Z</time>
      </trkpt>
      <trkpt lat="43.57119" lon="3.36294">
        <ele>118.9</ele>
        <time>2017-12-09T12:15:20Z</time>
      </trkpt>
      <trkpt lat="43.57115" lon="3.36291">
        <ele>118.8</ele>
        <time>2017-12-09T12:15:21Z</time>
      </trkpt>
      <trkpt lat="43.57111" lon="3.36288">
        <ele>118.6</ele>
        <time>2017-12-09T12:15:22Z</time>
      </trkpt>
      <trkpt lat="43.57107" lon="3.36285">
        <ele>118.4</ele>
        <time>2017-12-09T12:15:23Z</time>
      </trkpt>
      <trkpt lat="43.57103" lon="3.36283">
        <ele>118.2</ele>
        <time>2017-12-09T12:15:24Z</time>
      </trkpt>
      <trkpt lat="43.57098" lon="3.36282">
        <ele>117.9</ele>
        <time>2017-12-09T12:15:25Z</time>
      </trkpt>
      <trkpt lat="43.57094" lon="3.3628">
        <ele>117.6</ele>
        <time>2017-12-09T12:15:26Z</time>
      </trkpt>
      <trkpt lat="43.5709" lon="3.36279">
        <ele>117.3</ele>
        <time>2017-12-09T12:15:27Z</time>
      </trkpt>
      <trkpt lat="43.57086" lon="3.36278">
        <ele>117</ele>
        <time>2017-12-09T12:15:28Z</time>
      </trkpt>
      <trkpt lat="43.57082" lon="3.36276">
        <ele>116.8</ele>
        <time>2017-12-09T12:15:29Z</time>
      </trkpt>
      <trkpt lat="43.57079" lon="3.36275">
        <ele>116.6</ele>
        <time>2017-12-09T12:15:30Z</time>
      </trkpt>
      <trkpt lat="43.57075" lon="3.36274">
        <ele>116.5</ele>
        <time>2017-12-09T12:15:31Z</time>
      </trkpt>
      <trkpt lat="43.57071" lon="3.36273">
        <ele>116.4</ele>
        <time>2017-12-09T12:15:32Z</time>
      </trkpt>
      <trkpt lat="43.57068" lon="3.36272">
        <ele>116.3</ele>
        <time>2017-12-09T12:15:33Z</time>
      </trkpt>
      <trkpt lat="43.57064" lon="3.36271">
        <ele>116.2</ele>
        <time>2017-12-09T12:15:34Z</time>
      </trkpt>
      <trkpt lat="43.5706" lon="3.3627">
        <ele>116.2</ele>
        <time>2017-12-09T12:15:35Z</time>
      </trkpt>
      <trkpt lat="43.57055" lon="3.36269">
        <ele>116.2</ele>
        <time>2017-12-09T12:15:36Z</time>
      </trkpt>
      <trkpt lat="43.57051" lon="3.36268">
        <ele>116.1</ele>
        <time>2017-12-09T12:15:37Z</time>
      </trkpt>
      <trkpt lat="43.57046" lon="3.36266">
        <ele>116.1</ele>
        <time>2017-12-09T12:15:38Z</time>
      </trkpt>
      <trkpt lat="43.57041" lon="3.36265">
        <ele>116.1</ele>
        <time>2017-12-09T12:15:39Z</time>
      </trkpt>
      <trkpt lat="43.57036" lon="3.36265">
        <ele>116</ele>
        <time>2017-12-09T12:15:40Z</time>
      </trkpt>
      <trkpt lat="43.5703" lon="3.36263">
        <ele>116</ele>
        <time>2017-12-09T12:15:41Z</time>
      </trkpt>
      <trkpt lat="43.57024" lon="3.36262">
        <ele>116</ele>
        <time>2017-12-09T12:15:42Z</time>
      </trkpt>
      <trkpt lat="43.57017" lon="3.36261">
        <ele>116</ele>
        <time>2017-12-09T12:15:43Z</time>
      </trkpt>
      <trkpt lat="43.57011" lon="3.3626">
        <ele>116.1</ele>
        <time>2017-12-09T12:15:44Z</time>
      </trkpt>
      <trkpt lat="43.57006" lon="3.3626">
        <ele>116.2</ele>
        <time>2017-12-09T12:15:45Z</time>
      </trkpt>
      <trkpt lat="43.57" lon="3.36259">
        <ele>116.3</ele>
        <time>2017-12-09T12:15:46Z</time>
      </trkpt>
      <trkpt lat="43.56994" lon="3.36258">
        <ele>116.6</ele>
        <time>2017-12-09T12:15:47Z</time>
      </trkpt>
      <trkpt lat="43.56988" lon="3.36257">
        <ele>116.8</ele>
        <time>2017-12-09T12:15:48Z</time>
      </trkpt>
      <trkpt lat="43.56983" lon="3.36256">
        <ele>117</ele>
        <time>2017-12-09T12:15:49Z</time>
      </trkpt>
      <trkpt lat="43.56978" lon="3.36256">
        <ele>117.2</ele>
        <time>2017-12-09T12:15:50Z</time>
      </trkpt>
      <trkpt lat="43.56973" lon="3.36257">
        <ele>117.4</ele>
        <time>2017-12-09T12:15:51Z</time>
      </trkpt>
      <trkpt lat="43.56969" lon="3.36257">
        <ele>117.6</ele>
        <time>2017-12-09T12:15:52Z</time>
      </trkpt>
      <trkpt lat="43.56965" lon="3.36258">
        <ele>117.8</ele>
        <time>2017-12-09T12:15:53Z</time>
      </trkpt>
      <trkpt lat="43.56961" lon="3.36259">
        <ele>117.9</ele>
        <time>2017-12-09T12:15:54Z</time>
      </trkpt>
      <trkpt lat="43.56957" lon="3.36261">
        <ele>118.1</ele>
        <time>2017-12-09T12:15:55Z</time>
      </trkpt>
      <trkpt lat="43.56954" lon="3.36262">
        <ele>118.2</ele>
        <time>2017-12-09T12:15:56Z</time>
      </trkpt>
      <trkpt lat="43.5695" lon="3.36264">
        <ele>118.4</ele>
        <time>2017-12-09T12:15:57Z</time>
      </trkpt>
      <trkpt lat="43.56947" lon="3.36266">
        <ele>118.5</ele>
        <time>2017-12-09T12:15:58Z</time>
      </trkpt>
      <trkpt lat="43.56944" lon="3.36268">
        <ele>118.6</ele>
        <time>2017-12-09T12:15:59Z</time>
      </trkpt>
      <trkpt lat="43.56941" lon="3.3627">
        <ele>118.8</ele>
        <time>2017-12-09T12:16:00Z</time>
      </trkpt>
      <trkpt lat="43.56937" lon="3.36272">
        <ele>118.9</ele>
        <time>2017-12-09T12:16:01Z</time>
      </trkpt>
      <trkpt lat="43.56934" lon="3.36274">
        <ele>119.1</ele>
        <time>2017-12-09T12:16:02Z</time>
      </trkpt>
      <trkpt lat="43.56931" lon="3.36276">
        <ele>119.2</ele>
        <time>2017-12-09T12:16:03Z</time>
      </trkpt>
      <trkpt lat="43.56928" lon="3.36278">
        <ele>119.3</ele>
        <time>2017-12-09T12:16:04Z</time>
      </trkpt>
      <trkpt lat="43.56924" lon="3.36279">
        <ele>119.5</ele>
        <time>2017-12-09T12:16:05Z</time>
      </trkpt>
      <trkpt lat="43.56921" lon="3.3628">
        <ele>119.6</ele>
        <time>2017-12-09T12:16:06Z</time>
      </trkpt>
      <trkpt lat="43.56917" lon="3.36282">
        <ele>119.7</ele>
        <time>2017-12-09T12:16:07Z</time>
      </trkpt>
      <trkpt lat="43.56914" lon="3.36283">
        <ele>119.8</ele>
        <time>2017-12-09T12:16:08Z</time>
      </trkpt>
      <trkpt lat="43.5691" lon="3.36283">
        <ele>119.9</ele>
        <time>2017-12-09T12:16:09Z</time>
      </trkpt>
      <trkpt lat="43.56906" lon="3.36283">
        <ele>120</ele>
        <time>2017-12-09T12:16:10Z</time>
      </trkpt>
      <trkpt lat="43.56903" lon="3.36281">
        <ele>120</ele>
        <time>2017-12-09T12:16:11Z</time>
      </trkpt>
      <trkpt lat="43.56899" lon="3.3628">
        <ele>120.1</ele>
        <time>2017-12-09T12:16:12Z</time>
      </trkpt>
      <trkpt lat="43.56896" lon="3.36278">
        <ele>120.1</ele>
        <time>2017-12-09T12:16:13Z</time>
      </trkpt>
      <trkpt lat="43.56892" lon="3.36276">
        <ele>120.2</ele>
        <time>2017-12-09T12:16:14Z</time>
      </trkpt>
      <trkpt lat="43.56889" lon="3.36273">
        <ele>120.2</ele>
        <time>2017-12-09T12:16:15Z</time>
      </trkpt>
      <trkpt lat="43.56885" lon="3.3627">
        <ele>120.2</ele>
        <time>2017-12-09T12:16:16Z</time>
      </trkpt>
      <trkpt lat="43.56882" lon="3.36267">
        <ele>120.3</ele>
        <time>2017-12-09T12:16:17Z</time>
      </trkpt>
      <trkpt lat="43.56879" lon="3.36264">
        <ele>120.4</ele>
        <time>2017-12-09T12:16:18Z</time>
      </trkpt>
      <trkpt lat="43.56876" lon="3.36261">
        <ele>120.4</ele>
        <time>2017-12-09T12:16:19Z</time>
      </trkpt>
      <trkpt lat="43.56873" lon="3.36258">
        <ele>120.5</ele>
        <time>2017-12-09T12:16:20Z</time>
      </trkpt>
      <trkpt lat="43.5687" lon="3.36256">
        <ele>120.6</ele>
        <time>2017-12-09T12:16:21Z</time>
      </trkpt>
      <trkpt lat="43.56866" lon="3.36253">
        <ele>120.7</ele>
        <time>2017-12-09T12:16:22Z</time>
      </trkpt>
      <trkpt lat="43.56863" lon="3.3625">
        <ele>120.8</ele>
        <time>2017-12-09T12:16:23Z</time>
      </trkpt>
      <trkpt lat="43.5686" lon="3.36248">
        <ele>120.9</ele>
        <time>2017-12-09T12:16:24Z</time>
      </trkpt>
      <trkpt lat="43.56857" lon="3.36245">
        <ele>121</ele>
        <time>2017-12-09T12:16:25Z</time>
      </trkpt>
      <trkpt lat="43.56854" lon="3.36243">
        <ele>121.1</ele>
        <time>2017-12-09T12:16:26Z</time>
      </trkpt>
      <trkpt lat="43.5685" lon="3.36241">
        <ele>121.2</ele>
        <time>2017-12-09T12:16:27Z</time>
      </trkpt>
      <trkpt lat="43.56847" lon="3.36238">
        <ele>121.2</ele>
        <time>2017-12-09T12:16:28Z</time>
      </trkpt>
      <trkpt lat="43.56843" lon="3.36236">
        <ele>121.3</ele>
        <time>2017-12-09T12:16:29Z</time>
      </trkpt>
      <trkpt lat="43.56839" lon="3.36233">
        <ele>121.3</ele>
        <time>2017-12-09T12:16:30Z</time>
      </trkpt>
      <trkpt lat="43.56836" lon="3.36231">
        <ele>121.3</ele>
        <time>2017-12-09T12:16:31Z</time>
      </trkpt>
      <trkpt lat="43.56832" lon="3.36228">
        <ele>121.2</ele>
        <time>2017-12-09T12:16:32Z</time>
      </trkpt>
      <trkpt lat="43.56829" lon="3.36225">
        <ele>121.2</ele>
        <time>2017-12-09T12:16:33Z</time>
      </trkpt>
      <trkpt lat="43.56826" lon="3.36222">
        <ele>121.2</ele>
        <time>2017-12-09T12:16:34Z</time>
      </trkpt>
      <trkpt lat="43.56823" lon="3.36218">
        <ele>121.2</ele>
        <time>2017-12-09T12:16:35Z</time>
      </trkpt>
      <trkpt lat="43.5682" lon="3.36215">
        <ele>121.1</ele>
        <time>2017-12-09T12:16:36Z</time>
      </trkpt>
      <trkpt lat="43.56818" lon="3.36211">
        <ele>121</ele>
        <time>2017-12-09T12:16:37Z</time>
      </trkpt>
      <trkpt lat="43.56816" lon="3.36208">
        <ele>120.9</ele>
        <time>2017-12-09T12:16:38Z</time>
      </trkpt>
      <trkpt lat="43.56814" lon="3.36204">
        <ele>120.8</ele>
        <time>2017-12-09T12:16:39Z</time>
      </trkpt>
      <trkpt lat="43.56813" lon="3.362">
        <ele>120.7</ele>
        <time>2017-12-09T12:16:40Z</time>
      </trkpt>
      <trkpt lat="43.56811" lon="3.36197">
        <ele>120.6</ele>
        <time>2017-12-09T12:16:41Z</time>
      </trkpt>
      <trkpt lat="43.5681" lon="3.36194">
        <ele>120.5</ele>
        <time>2017-12-09T12:16:42Z</time>
      </trkpt>
      <trkpt lat="43.56806" lon="3.36188">
        <ele>120.2</ele>
        <time>2017-12-09T12:16:44Z</time>
      </trkpt>
      <trkpt lat="43.56804" lon="3.36184">
        <ele>119.9</ele>
        <time>2017-12-09T12:16:45Z</time>
      </trkpt>
      <trkpt lat="43.56803" lon="3.36181">
        <ele>119.6</ele>
        <time>2017-12-09T12:16:46Z</time>
      </trkpt>
      <trkpt lat="43.56801" lon="3.36177">
        <ele>119.3</ele>
        <time>2017-12-09T12:16:47Z</time>
      </trkpt>
      <trkpt lat="43.56799" lon="3.36174">
        <ele>119</ele>
        <time>2017-12-09T12:16:48Z</time>
      </trkpt>
      <trkpt lat="43.56796" lon="3.3617">
        <ele>118.7</ele>
        <time>2017-12-09T12:16:49Z</time>
      </trkpt>
      <trkpt lat="43.56794" lon="3.36166">
        <ele>118.6</ele>
        <time>2017-12-09T12:16:50Z</time>
      </trkpt>
      <trkpt lat="43.56791" lon="3.36162">
        <ele>118.4</ele>
        <time>2017-12-09T12:16:51Z</time>
      </trkpt>
      <trkpt lat="43.56789" lon="3.36158">
        <ele>118.2</ele>
        <time>2017-12-09T12:16:52Z</time>
      </trkpt>
      <trkpt lat="43.56786" lon="3.36154">
        <ele>118</ele>
        <time>2017-12-09T12:16:53Z</time>
      </trkpt>
      <trkpt lat="43.56783" lon="3.36149">
        <ele>117.7</ele>
        <time>2017-12-09T12:16:54Z</time>
      </trkpt>
      <trkpt lat="43.5678" lon="3.36144">
        <ele>117.4</ele>
        <time>2017-12-09T12:16:55Z</time>
      </trkpt>
      <trkpt lat="43.56778" lon="3.36138">
        <ele>117.2</ele>
        <time>2017-12-09T12:16:56Z</time>
      </trkpt>
      <trkpt lat="43.56776" lon="3.36132">
        <ele>116.9</ele>
        <time>2017-12-09T12:16:57Z</time>
      </trkpt>
      <trkpt lat="43.56775" lon="3.36126">
        <ele>116.6</ele>
        <time>2017-12-09T12:16:58Z</time>
      </trkpt>
      <trkpt lat="43.56774" lon="3.3612">
        <ele>116.2</ele>
        <time>2017-12-09T12:16:59Z</time>
      </trkpt>
      <trkpt lat="43.56773" lon="3.36114">
        <ele>115.8</ele>
        <time>2017-12-09T12:17:00Z</time>
      </trkpt>
      <trkpt lat="43.56773" lon="3.36108">
        <ele>115.5</ele>
        <time>2017-12-09T12:17:01Z</time>
      </trkpt>
      <trkpt lat="43.56773" lon="3.36102">
        <ele>115.2</ele>
        <time>2017-12-09T12:17:02Z</time>
      </trkpt>
      <trkpt lat="43.56773" lon="3.36097">
        <ele>114.9</ele>
        <time>2017-12-09T12:17:03Z</time>
      </trkpt>
      <trkpt lat="43.56773" lon="3.36091">
        <ele>114.6</ele>
        <time>2017-12-09T12:17:04Z</time>
      </trkpt>
      <trkpt lat="43.56772" lon="3.36085">
        <ele>114.4</ele>
        <time>2017-12-09T12:17:05Z</time>
      </trkpt>
      <trkpt lat="43.56772" lon="3.36079">
        <ele>114.2</ele>
        <time>2017-12-09T12:17:06Z</time>
      </trkpt>
      <trkpt lat="43.56771" lon="3.36072">
        <ele>114</ele>
        <time>2017-12-09T12:17:07Z</time>
      </trkpt>
      <trkpt lat="43.5677" lon="3.36066">
        <ele>113.4</ele>
        <time>2017-12-09T12:17:08Z</time>
      </trkpt>
      <trkpt lat="43.56767" lon="3.3606">
        <ele>112.8</ele>
        <time>2017-12-09T12:17:09Z</time>
      </trkpt>
      <trkpt lat="43.56764" lon="3.36055">
        <ele>112.2</ele>
        <time>2017-12-09T12:17:10Z</time>
      </trkpt>
      <trkpt lat="43.5676" lon="3.3605">
        <ele>111.6</ele>
        <time>2017-12-09T12:17:11Z</time>
      </trkpt>
      <trkpt lat="43.56755" lon="3.36047">
        <ele>111.1</ele>
        <time>2017-12-09T12:17:12Z</time>
      </trkpt>
      <trkpt lat="43.56749" lon="3.36045">
        <ele>110.5</ele>
        <time>2017-12-09T12:17:13Z</time>
      </trkpt>
      <trkpt lat="43.56742" lon="3.36043">
        <ele>110</ele>
        <time>2017-12-09T12:17:14Z</time>
      </trkpt>
      <trkpt lat="43.56735" lon="3.3604">
        <ele>109.5</ele>
        <time>2017-12-09T12:17:15Z</time>
      </trkpt>
      <trkpt lat="43.56729" lon="3.36036">
        <ele>109.1</ele>
        <time>2017-12-09T12:17:16Z</time>
      </trkpt>
      <trkpt lat="43.56722" lon="3.3603">
        <ele>108.9</ele>
        <time>2017-12-09T12:17:17Z</time>
      </trkpt>
      <trkpt lat="43.56717" lon="3.36022">
        <ele>108.8</ele>
        <time>2017-12-09T12:17:18Z</time>
      </trkpt>
      <trkpt lat="43.56711" lon="3.36014">
        <ele>108.6</ele>
        <time>2017-12-09T12:17:19Z</time>
      </trkpt>
      <trkpt lat="43.56706" lon="3.36006">
        <ele>108.5</ele>
        <time>2017-12-09T12:17:20Z</time>
      </trkpt>
      <trkpt lat="43.567" lon="3.35998">
        <ele>108.2</ele>
        <time>2017-12-09T12:17:21Z</time>
      </trkpt>
      <trkpt lat="43.56693" lon="3.35991">
        <ele>107.8</ele>
        <time>2017-12-09T12:17:22Z</time>
      </trkpt>
      <trkpt lat="43.56687" lon="3.35984">
        <ele>107.5</ele>
        <time>2017-12-09T12:17:23Z</time>
      </trkpt>
      <trkpt lat="43.5668" lon="3.35978">
        <ele>107.2</ele>
        <time>2017-12-09T12:17:24Z</time>
      </trkpt>
      <trkpt lat="43.56674" lon="3.35971">
        <ele>107</ele>
        <time>2017-12-09T12:17:25Z</time>
      </trkpt>
      <trkpt lat="43.56667" lon="3.35965">
        <ele>106.9</ele>
        <time>2017-12-09T12:17:26Z</time>
      </trkpt>
      <trkpt lat="43.56661" lon="3.35959">
        <ele>106.9</ele>
        <time>2017-12-09T12:17:27Z</time>
      </trkpt>
      <trkpt lat="43.56655" lon="3.35954">
        <ele>106.8</ele>
        <time>2017-12-09T12:17:28Z</time>
      </trkpt>
      <trkpt lat="43.56648" lon="3.35949">
        <ele>106.7</ele>
        <time>2017-12-09T12:17:29Z</time>
      </trkpt>
      <trkpt lat="43.56643" lon="3.35944">
        <ele>106.7</ele>
        <time>2017-12-09T12:17:30Z</time>
      </trkpt>
      <trkpt lat="43.56637" lon="3.35939">
        <ele>106.7</ele>
        <time>2017-12-09T12:17:31Z</time>
      </trkpt>
      <trkpt lat="43.56632" lon="3.35934">
        <ele>106.7</ele>
        <time>2017-12-09T12:17:32Z</time>
      </trkpt>
      <trkpt lat="43.56627" lon="3.35929">
        <ele>106.8</ele>
        <time>2017-12-09T12:17:33Z</time>
      </trkpt>
      <trkpt lat="43.56623" lon="3.35924">
        <ele>106.8</ele>
        <time>2017-12-09T12:17:34Z</time>
      </trkpt>
      <trkpt lat="43.5662" lon="3.35918">
        <ele>106.8</ele>
        <time>2017-12-09T12:17:35Z</time>
      </trkpt>
      <trkpt lat="43.56616" lon="3.35912">
        <ele>106.9</ele>
        <time>2017-12-09T12:17:36Z</time>
      </trkpt>
      <trkpt lat="43.56613" lon="3.35906">
        <ele>107</ele>
        <time>2017-12-09T12:17:37Z</time>
      </trkpt>
      <trkpt lat="43.5661" lon="3.359">
        <ele>107.1</ele>
        <time>2017-12-09T12:17:38Z</time>
      </trkpt>
      <trkpt lat="43.56607" lon="3.35895">
        <ele>107.3</ele>
        <time>2017-12-09T12:17:39Z</time>
      </trkpt>
      <trkpt lat="43.56604" lon="3.35889">
        <ele>107.5</ele>
        <time>2017-12-09T12:17:40Z</time>
      </trkpt>
      <trkpt lat="43.56601" lon="3.35883">
        <ele>107.7</ele>
        <time>2017-12-09T12:17:41Z</time>
      </trkpt>
      <trkpt lat="43.56599" lon="3.35878">
        <ele>107.9</ele>
        <time>2017-12-09T12:17:42Z</time>
      </trkpt>
      <trkpt lat="43.56596" lon="3.35873">
        <ele>108.1</ele>
        <time>2017-12-09T12:17:43Z</time>
      </trkpt>
      <trkpt lat="43.56593" lon="3.35868">
        <ele>108.2</ele>
        <time>2017-12-09T12:17:44Z</time>
      </trkpt>
      <trkpt lat="43.5659" lon="3.35862">
        <ele>108.4</ele>
        <time>2017-12-09T12:17:45Z</time>
      </trkpt>
      <trkpt lat="43.56587" lon="3.35856">
        <ele>108.5</ele>
        <time>2017-12-09T12:17:46Z</time>
      </trkpt>
      <trkpt lat="43.56584" lon="3.35851">
        <ele>108.5</ele>
        <time>2017-12-09T12:17:47Z</time>
      </trkpt>
      <trkpt lat="43.56581" lon="3.35845">
        <ele>108.6</ele>
        <time>2017-12-09T12:17:48Z</time>
      </trkpt>
      <trkpt lat="43.56579" lon="3.35838">
        <ele>108.6</ele>
        <time>2017-12-09T12:17:49Z</time>
      </trkpt>
      <trkpt lat="43.56577" lon="3.35831">
        <ele>108.7</ele>
        <time>2017-12-09T12:17:50Z</time>
      </trkpt>
      <trkpt lat="43.56577" lon="3.35824">
        <ele>108.7</ele>
        <time>2017-12-09T12:17:51Z</time>
      </trkpt>
      <trkpt lat="43.56576" lon="3.35818">
        <ele>108.8</ele>
        <time>2017-12-09T12:17:52Z</time>
      </trkpt>
      <trkpt lat="43.56575" lon="3.35812">
        <ele>108.8</ele>
        <time>2017-12-09T12:17:53Z</time>
      </trkpt>
      <trkpt lat="43.56575" lon="3.35806">
        <ele>108.8</ele>
        <time>2017-12-09T12:17:54Z</time>
      </trkpt>
      <trkpt lat="43.56575" lon="3.35801">
        <ele>108.9</ele>
        <time>2017-12-09T12:17:55Z</time>
      </trkpt>
      <trkpt lat="43.56574" lon="3.35795">
        <ele>109</ele>
        <time>2017-12-09T12:17:56Z</time>
      </trkpt>
      <trkpt lat="43.56574" lon="3.3579">
        <ele>109.1</ele>
        <time>2017-12-09T12:17:57Z</time>
      </trkpt>
      <trkpt lat="43.56573" lon="3.35784">
        <ele>109.2</ele>
        <time>2017-12-09T12:17:58Z</time>
      </trkpt>
      <trkpt lat="43.56573" lon="3.35779">
        <ele>109.3</ele>
        <time>2017-12-09T12:17:59Z</time>
      </trkpt>
      <trkpt lat="43.56572" lon="3.35773">
        <ele>109.4</ele>
        <time>2017-12-09T12:18:00Z</time>
      </trkpt>
      <trkpt lat="43.56572" lon="3.35767">
        <ele>109.6</ele>
        <time>2017-12-09T12:18:01Z</time>
      </trkpt>
      <trkpt lat="43.56571" lon="3.35762">
        <ele>109.8</ele>
        <time>2017-12-09T12:18:02Z</time>
      </trkpt>
      <trkpt lat="43.5657" lon="3.35756">
        <ele>109.9</ele>
        <time>2017-12-09T12:18:03Z</time>
      </trkpt>
      <trkpt lat="43.56568" lon="3.35751">
        <ele>110.1</ele>
        <time>2017-12-09T12:18:04Z</time>
      </trkpt>
      <trkpt lat="43.56567" lon="3.35745">
        <ele>110.3</ele>
        <time>2017-12-09T12:18:05Z</time>
      </trkpt>
      <trkpt lat="43.56565" lon="3.35739">
        <ele>110.4</ele>
        <time>2017-12-09T12:18:06Z</time>
      </trkpt>
      <trkpt lat="43.56564" lon="3.35733">
        <ele>110.6</ele>
        <time>2017-12-09T12:18:07Z</time>
      </trkpt>
      <trkpt lat="43.56563" lon="3.35727">
        <ele>110.7</ele>
        <time>2017-12-09T12:18:08Z</time>
      </trkpt>
      <trkpt lat="43.56562" lon="3.35721">
        <ele>110.8</ele>
        <time>2017-12-09T12:18:09Z</time>
      </trkpt>
      <trkpt lat="43.5656" lon="3.35715">
        <ele>110.9</ele>
        <time>2017-12-09T12:18:10Z</time>
      </trkpt>
      <trkpt lat="43.56559" lon="3.35709">
        <ele>111</ele>
        <time>2017-12-09T12:18:11Z</time>
      </trkpt>
      <trkpt lat="43.56557" lon="3.35703">
        <ele>111</ele>
        <time>2017-12-09T12:18:12Z</time>
      </trkpt>
      <trkpt lat="43.56555" lon="3.35698">
        <ele>111.1</ele>
        <time>2017-12-09T12:18:13Z</time>
      </trkpt>
      <trkpt lat="43.56553" lon="3.35693">
        <ele>111.1</ele>
        <time>2017-12-09T12:18:14Z</time>
      </trkpt>
      <trkpt lat="43.56551" lon="3.35688">
        <ele>111.2</ele>
        <time>2017-12-09T12:18:15Z</time>
      </trkpt>
      <trkpt lat="43.56549" lon="3.35684">
        <ele>111.2</ele>
        <time>2017-12-09T12:18:16Z</time>
      </trkpt>
      <trkpt lat="43.56547" lon="3.3568">
        <ele>111.3</ele>
        <time>2017-12-09T12:18:17Z</time>
      </trkpt>
      <trkpt lat="43.56544" lon="3.35676">
        <ele>111.4</ele>
        <time>2017-12-09T12:18:18Z</time>
      </trkpt>
      <trkpt lat="43.56542" lon="3.35672">
        <ele>111.4</ele>
        <time>2017-12-09T12:18:19Z</time>
      </trkpt>
      <trkpt lat="43.5654" lon="3.35668">
        <ele>111.5</ele>
        <time>2017-12-09T12:18:20Z</time>
      </trkpt>
      <trkpt lat="43.56538" lon="3.35664">
        <ele>111.6</ele>
        <time>2017-12-09T12:18:21Z</time>
      </trkpt>
      <trkpt lat="43.56535" lon="3.35659">
        <ele>111.7</ele>
        <time>2017-12-09T12:18:22Z</time>
      </trkpt>
      <trkpt lat="43.56533" lon="3.35655">
        <ele>111.8</ele>
        <time>2017-12-09T12:18:23Z</time>
      </trkpt>
      <trkpt lat="43.5653" lon="3.35651">
        <ele>112</ele>
        <time>2017-12-09T12:18:24Z</time>
      </trkpt>
      <trkpt lat="43.56527" lon="3.35646">
        <ele>112.1</ele>
        <time>2017-12-09T12:18:25Z</time>
      </trkpt>
      <trkpt lat="43.56525" lon="3.35642">
        <ele>112.3</ele>
        <time>2017-12-09T12:18:26Z</time>
      </trkpt>
      <trkpt lat="43.56523" lon="3.35638">
        <ele>112.4</ele>
        <time>2017-12-09T12:18:27Z</time>
      </trkpt>
      <trkpt lat="43.56521" lon="3.35633">
        <ele>112.5</ele>
        <time>2017-12-09T12:18:28Z</time>
      </trkpt>
      <trkpt lat="43.5652" lon="3.3563">
        <ele>112.6</ele>
        <time>2017-12-09T12:18:29Z</time>
      </trkpt>
      <trkpt lat="43.56519" lon="3.35626">
        <ele>112.7</ele>
        <time>2017-12-09T12:18:30Z</time>
      </trkpt>
      <trkpt lat="43.56517" lon="3.35623">
        <ele>112.8</ele>
        <time>2017-12-09T12:18:31Z</time>
      </trkpt>
      <trkpt lat="43.56514" lon="3.35617">
        <ele>112.9</ele>
        <time>2017-12-09T12:18:33Z</time>
      </trkpt>
      <trkpt lat="43.56512" lon="3.35613">
        <ele>113</ele>
        <time>2017-12-09T12:18:34Z</time>
      </trkpt>
      <trkpt lat="43.56511" lon="3.35609">
        <ele>113</ele>
        <time>2017-12-09T12:18:35Z</time>
      </trkpt>
      <trkpt lat="43.56509" lon="3.35605">
        <ele>113.1</ele>
        <time>2017-12-09T12:18:36Z</time>
      </trkpt>
      <trkpt lat="43.56508" lon="3.35601">
        <ele>113.2</ele>
        <time>2017-12-09T12:18:37Z</time>
      </trkpt>
      <trkpt lat="43.56507" lon="3.35596">
        <ele>113.2</ele>
        <time>2017-12-09T12:18:38Z</time>
      </trkpt>
      <trkpt lat="43.56506" lon="3.35592">
        <ele>113.3</ele>
        <time>2017-12-09T12:18:39Z</time>
      </trkpt>
      <trkpt lat="43.56505" lon="3.35587">
        <ele>113.4</ele>
        <time>2017-12-09T12:18:40Z</time>
      </trkpt>
      <trkpt lat="43.56503" lon="3.35583">
        <ele>113.4</ele>
        <time>2017-12-09T12:18:41Z</time>
      </trkpt>
      <trkpt lat="43.56502" lon="3.35578">
        <ele>113.6</ele>
        <time>2017-12-09T12:18:42Z</time>
      </trkpt>
      <trkpt lat="43.56501" lon="3.35573">
        <ele>113.7</ele>
        <time>2017-12-09T12:18:43Z</time>
      </trkpt>
      <trkpt lat="43.565" lon="3.35568">
        <ele>113.9</ele>
        <time>2017-12-09T12:18:44Z</time>
      </trkpt>
      <trkpt lat="43.56499" lon="3.35563">
        <ele>114</ele>
        <time>2017-12-09T12:18:45Z</time>
      </trkpt>
      <trkpt lat="43.56498" lon="3.35558">
        <ele>114.2</ele>
        <time>2017-12-09T12:18:46Z</time>
      </trkpt>
      <trkpt lat="43.56497" lon="3.35552">
        <ele>114.4</ele>
        <time>2017-12-09T12:18:47Z</time>
      </trkpt>
      <trkpt lat="43.56496" lon="3.35547">
        <ele>114.5</ele>
        <time>2017-12-09T12:18:48Z</time>
      </trkpt>
      <trkpt lat="43.56497" lon="3.35541">
        <ele>114.7</ele>
        <time>2017-12-09T12:18:49Z</time>
      </trkpt>
      <trkpt lat="43.56497" lon="3.35536">
        <ele>114.9</ele>
        <time>2017-12-09T12:18:50Z</time>
      </trkpt>
      <trkpt lat="43.56498" lon="3.35531">
        <ele>115</ele>
        <time>2017-12-09T12:18:51Z</time>
      </trkpt>
      <trkpt lat="43.56499" lon="3.35526">
        <ele>115.2</ele>
        <time>2017-12-09T12:18:52Z</time>
      </trkpt>
      <trkpt lat="43.565" lon="3.35521">
        <ele>115.3</ele>
        <time>2017-12-09T12:18:53Z</time>
      </trkpt>
      <trkpt lat="43.56501" lon="3.35517">
        <ele>115.4</ele>
        <time>2017-12-09T12:18:54Z</time>
      </trkpt>
      <trkpt lat="43.56502" lon="3.35512">
        <ele>115.5</ele>
        <time>2017-12-09T12:18:55Z</time>
      </trkpt>
      <trkpt lat="43.56502" lon="3.35507">
        <ele>115.6</ele>
        <time>2017-12-09T12:18:56Z</time>
      </trkpt>
      <trkpt lat="43.56502" lon="3.35501">
        <ele>115.8</ele>
        <time>2017-12-09T12:18:57Z</time>
      </trkpt>
      <trkpt lat="43.56501" lon="3.35497">
        <ele>115.9</ele>
        <time>2017-12-09T12:18:58Z</time>
      </trkpt>
      <trkpt lat="43.565" lon="3.35492">
        <ele>116</ele>
        <time>2017-12-09T12:18:59Z</time>
      </trkpt>
      <trkpt lat="43.56498" lon="3.35487">
        <ele>116.2</ele>
        <time>2017-12-09T12:19:00Z</time>
      </trkpt>
      <trkpt lat="43.56496" lon="3.35482">
        <ele>116.3</ele>
        <time>2017-12-09T12:19:01Z</time>
      </trkpt>
      <trkpt lat="43.56494" lon="3.35477">
        <ele>116.5</ele>
        <time>2017-12-09T12:19:02Z</time>
      </trkpt>
      <trkpt lat="43.56492" lon="3.35472">
        <ele>116.6</ele>
        <time>2017-12-09T12:19:03Z</time>
      </trkpt>
      <trkpt lat="43.5649" lon="3.35468">
        <ele>116.8</ele>
        <time>2017-12-09T12:19:04Z</time>
      </trkpt>
      <trkpt lat="43.56488" lon="3.35462">
        <ele>117</ele>
        <time>2017-12-09T12:19:05Z</time>
      </trkpt>
      <trkpt lat="43.56486" lon="3.35457">
        <ele>117.2</ele>
        <time>2017-12-09T12:19:06Z</time>
      </trkpt>
      <trkpt lat="43.56484" lon="3.35453">
        <ele>117.4</ele>
        <time>2017-12-09T12:19:07Z</time>
      </trkpt>
      <trkpt lat="43.56482" lon="3.35448">
        <ele>117.6</ele>
        <time>2017-12-09T12:19:08Z</time>
      </trkpt>
      <trkpt lat="43.56481" lon="3.35443">
        <ele>117.7</ele>
        <time>2017-12-09T12:19:09Z</time>
      </trkpt>
      <trkpt lat="43.56479" lon="3.35437">
        <ele>117.9</ele>
        <time>2017-12-09T12:19:10Z</time>
      </trkpt>
      <trkpt lat="43.56477" lon="3.35433">
        <ele>118.1</ele>
        <time>2017-12-09T12:19:11Z</time>
      </trkpt>
      <trkpt lat="43.56475" lon="3.35428">
        <ele>118.3</ele>
        <time>2017-12-09T12:19:12Z</time>
      </trkpt>
      <trkpt lat="43.56474" lon="3.35423">
        <ele>118.5</ele>
        <time>2017-12-09T12:19:13Z</time>
      </trkpt>
      <trkpt lat="43.56472" lon="3.35418">
        <ele>118.7</ele>
        <time>2017-12-09T12:19:14Z</time>
      </trkpt>
      <trkpt lat="43.56471" lon="3.35413">
        <ele>118.8</ele>
        <time>2017-12-09T12:19:15Z</time>
      </trkpt>
      <trkpt lat="43.56469" lon="3.35408">
        <ele>119</ele>
        <time>2017-12-09T12:19:16Z</time>
      </trkpt>
      <trkpt lat="43.56468" lon="3.35404">
        <ele>119.1</ele>
        <time>2017-12-09T12:19:17Z</time>
      </trkpt>
      <trkpt lat="43.56467" lon="3.35399">
        <ele>119.3</ele>
        <time>2017-12-09T12:19:18Z</time>
      </trkpt>
      <trkpt lat="43.56465" lon="3.35395">
        <ele>119.4</ele>
        <time>2017-12-09T12:19:19Z</time>
      </trkpt>
      <trkpt lat="43.56464" lon="3.35391">
        <ele>119.5</ele>
        <time>2017-12-09T12:19:20Z</time>
      </trkpt>
      <trkpt lat="43.56463" lon="3.35387">
        <ele>119.6</ele>
        <time>2017-12-09T12:19:21Z</time>
      </trkpt>
      <trkpt lat="43.56462" lon="3.35382">
        <ele>119.7</ele>
        <time>2017-12-09T12:19:22Z</time>
      </trkpt>
      <trkpt lat="43.5646" lon="3.35378">
        <ele>119.7</ele>
        <time>2017-12-09T12:19:23Z</time>
      </trkpt>
      <trkpt lat="43.56459" lon="3.35374">
        <ele>119.7</ele>
        <time>2017-12-09T12:19:24Z</time>
      </trkpt>
      <trkpt lat="43.56458" lon="3.35369">
        <ele>119.8</ele>
        <time>2017-12-09T12:19:25Z</time>
      </trkpt>
      <trkpt lat="43.56457" lon="3.35365">
        <ele>119.8</ele>
        <time>2017-12-09T12:19:26Z</time>
      </trkpt>
      <trkpt lat="43.56456" lon="3.3536">
        <ele>119.9</ele>
        <time>2017-12-09T12:19:27Z</time>
      </trkpt>
      <trkpt lat="43.56455" lon="3.35355">
        <ele>119.9</ele>
        <time>2017-12-09T12:19:28Z</time>
      </trkpt>
      <trkpt lat="43.56454" lon="3.35351">
        <ele>119.9</ele>
        <time>2017-12-09T12:19:29Z</time>
      </trkpt>
      <trkpt lat="43.56454" lon="3.35346">
        <ele>120</ele>
        <time>2017-12-09T12:19:30Z</time>
      </trkpt>
      <trkpt lat="43.56453" lon="3.35342">
        <ele>120</ele>
        <time>2017-12-09T12:19:31Z</time>
      </trkpt>
      <trkpt lat="43.56453" lon="3.35337">
        <ele>120</ele>
        <time>2017-12-09T12:19:32Z</time>
      </trkpt>
      <trkpt lat="43.56453" lon="3.35333">
        <ele>120</ele>
        <time>2017-12-09T12:19:33Z</time>
      </trkpt>
      <trkpt lat="43.56454" lon="3.35328">
        <ele>120</ele>
        <time>2017-12-09T12:19:34Z</time>
      </trkpt>
      <trkpt lat="43.56454" lon="3.35323">
        <ele>120</ele>
        <time>2017-12-09T12:19:35Z</time>
      </trkpt>
      <trkpt lat="43.56454" lon="3.35318">
        <ele>120</ele>
        <time>2017-12-09T12:19:36Z</time>
      </trkpt>
      <trkpt lat="43.56455" lon="3.35313">
        <ele>120</ele>
        <time>2017-12-09T12:19:37Z</time>
      </trkpt>
      <trkpt lat="43.56455" lon="3.35308">
        <ele>120</ele>
        <time>2017-12-09T12:19:38Z</time>
      </trkpt>
      <trkpt lat="43.56455" lon="3.35304">
        <ele>120</ele>
        <time>2017-12-09T12:19:39Z</time>
      </trkpt>
      <trkpt lat="43.56455" lon="3.35298">
        <ele>120.1</ele>
        <time>2017-12-09T12:19:40Z</time>
      </trkpt>
      <trkpt lat="43.56455" lon="3.35294">
        <ele>120.1</ele>
        <time>2017-12-09T12:19:41Z</time>
      </trkpt>
      <trkpt lat="43.56455" lon="3.35289">
        <ele>120.1</ele>
        <time>2017-12-09T12:19:42Z</time>
      </trkpt>
      <trkpt lat="43.56455" lon="3.35285">
        <ele>120.1</ele>
        <time>2017-12-09T12:19:43Z</time>
      </trkpt>
      <trkpt lat="43.56455" lon="3.35279">
        <ele>120.2</ele>
        <time>2017-12-09T12:19:44Z</time>
      </trkpt>
      <trkpt lat="43.56455" lon="3.35275">
        <ele>120.3</ele>
        <time>2017-12-09T12:19:45Z</time>
      </trkpt>
      <trkpt lat="43.56455" lon="3.3527">
        <ele>120.4</ele>
        <time>2017-12-09T12:19:46Z</time>
      </trkpt>
      <trkpt lat="43.56454" lon="3.35265">
        <ele>120.5</ele>
        <time>2017-12-09T12:19:47Z</time>
      </trkpt>
      <trkpt lat="43.56453" lon="3.35261">
        <ele>120.6</ele>
        <time>2017-12-09T12:19:48Z</time>
      </trkpt>
      <trkpt lat="43.56452" lon="3.35256">
        <ele>120.8</ele>
        <time>2017-12-09T12:19:49Z</time>
      </trkpt>
      <trkpt lat="43.5645" lon="3.35251">
        <ele>120.9</ele>
        <time>2017-12-09T12:19:50Z</time>
      </trkpt>
      <trkpt lat="43.56448" lon="3.35247">
        <ele>121</ele>
        <time>2017-12-09T12:19:51Z</time>
      </trkpt>
      <trkpt lat="43.56446" lon="3.35243">
        <ele>121.2</ele>
        <time>2017-12-09T12:19:52Z</time>
      </trkpt>
      <trkpt lat="43.56445" lon="3.35238">
        <ele>121.3</ele>
        <time>2017-12-09T12:19:53Z</time>
      </trkpt>
      <trkpt lat="43.56442" lon="3.35234">
        <ele>121.4</ele>
        <time>2017-12-09T12:19:54Z</time>
      </trkpt>
      <trkpt lat="43.5644" lon="3.3523">
        <ele>121.5</ele>
        <time>2017-12-09T12:19:55Z</time>
      </trkpt>
      <trkpt lat="43.56438" lon="3.35225">
        <ele>121.6</ele>
        <time>2017-12-09T12:19:56Z</time>
      </trkpt>
      <trkpt lat="43.56436" lon="3.35221">
        <ele>121.7</ele>
        <time>2017-12-09T12:19:57Z</time>
      </trkpt>
      <trkpt lat="43.56435" lon="3.35216">
        <ele>121.8</ele>
        <time>2017-12-09T12:19:58Z</time>
      </trkpt>
      <trkpt lat="43.56433" lon="3.35211">
        <ele>121.8</ele>
        <time>2017-12-09T12:19:59Z</time>
      </trkpt>
      <trkpt lat="43.56433" lon="3.35206">
        <ele>121.9</ele>
        <time>2017-12-09T12:20:00Z</time>
      </trkpt>
      <trkpt lat="43.56432" lon="3.35201">
        <ele>122</ele>
        <time>2017-12-09T12:20:01Z</time>
      </trkpt>
      <trkpt lat="43.56431" lon="3.35195">
        <ele>122.1</ele>
        <time>2017-12-09T12:20:02Z</time>
      </trkpt>
      <trkpt lat="43.5643" lon="3.3519">
        <ele>122.1</ele>
        <time>2017-12-09T12:20:03Z</time>
      </trkpt>
      <trkpt lat="43.5643" lon="3.35185">
        <ele>122.2</ele>
        <time>2017-12-09T12:20:04Z</time>
      </trkpt>
      <trkpt lat="43.56428" lon="3.3518">
        <ele>122.2</ele>
        <time>2017-12-09T12:20:05Z</time>
      </trkpt>
      <trkpt lat="43.56427" lon="3.35174">
        <ele>122.3</ele>
        <time>2017-12-09T12:20:06Z</time>
      </trkpt>
      <trkpt lat="43.56426" lon="3.35169">
        <ele>122.4</ele>
        <time>2017-12-09T12:20:07Z</time>
      </trkpt>
      <trkpt lat="43.56425" lon="3.35165">
        <ele>122.5</ele>
        <time>2017-12-09T12:20:08Z</time>
      </trkpt>
      <trkpt lat="43.56424" lon="3.3516">
        <ele>122.6</ele>
        <time>2017-12-09T12:20:09Z</time>
      </trkpt>
      <trkpt lat="43.56422" lon="3.35155">
        <ele>122.7</ele>
        <time>2017-12-09T12:20:10Z</time>
      </trkpt>
      <trkpt lat="43.56421" lon="3.3515">
        <ele>122.9</ele>
        <time>2017-12-09T12:20:11Z</time>
      </trkpt>
      <trkpt lat="43.5642" lon="3.35145">
        <ele>123</ele>
        <time>2017-12-09T12:20:12Z</time>
      </trkpt>
      <trkpt lat="43.56419" lon="3.3514">
        <ele>123.2</ele>
        <time>2017-12-09T12:20:13Z</time>
      </trkpt>
      <trkpt lat="43.56417" lon="3.35136">
        <ele>123.4</ele>
        <time>2017-12-09T12:20:14Z</time>
      </trkpt>
      <trkpt lat="43.56416" lon="3.35131">
        <ele>123.5</ele>
        <time>2017-12-09T12:20:15Z</time>
      </trkpt>
      <trkpt lat="43.56415" lon="3.35126">
        <ele>123.6</ele>
        <time>2017-12-09T12:20:16Z</time>
      </trkpt>
      <trkpt lat="43.56413" lon="3.35122">
        <ele>123.7</ele>
        <time>2017-12-09T12:20:17Z</time>
      </trkpt>
      <trkpt lat="43.56412" lon="3.35117">
        <ele>123.8</ele>
        <time>2017-12-09T12:20:18Z</time>
      </trkpt>
      <trkpt lat="43.5641" lon="3.35113">
        <ele>123.9</ele>
        <time>2017-12-09T12:20:19Z</time>
      </trkpt>
      <trkpt lat="43.56409" lon="3.35108">
        <ele>124</ele>
        <time>2017-12-09T12:20:20Z</time>
      </trkpt>
      <trkpt lat="43.56407" lon="3.35104">
        <ele>124.1</ele>
        <time>2017-12-09T12:20:21Z</time>
      </trkpt>
      <trkpt lat="43.56405" lon="3.35099">
        <ele>124.3</ele>
        <time>2017-12-09T12:20:22Z</time>
      </trkpt>
      <trkpt lat="43.56404" lon="3.35094">
        <ele>124.4</ele>
        <time>2017-12-09T12:20:23Z</time>
      </trkpt>
      <trkpt lat="43.56402" lon="3.35089">
        <ele>124.5</ele>
        <time>2017-12-09T12:20:24Z</time>
      </trkpt>
      <trkpt lat="43.564" lon="3.35084">
        <ele>124.6</ele>
        <time>2017-12-09T12:20:25Z</time>
      </trkpt>
      <trkpt lat="43.56398" lon="3.35079">
        <ele>124.7</ele>
        <time>2017-12-09T12:20:26Z</time>
      </trkpt>
      <trkpt lat="43.56396" lon="3.35074">
        <ele>124.8</ele>
        <time>2017-12-09T12:20:27Z</time>
      </trkpt>
      <trkpt lat="43.56395" lon="3.3507">
        <ele>125</ele>
        <time>2017-12-09T12:20:28Z</time>
      </trkpt>
      <trkpt lat="43.56393" lon="3.35065">
        <ele>125.1</ele>
        <time>2017-12-09T12:20:29Z</time>
      </trkpt>
      <trkpt lat="43.56392" lon="3.35061">
        <ele>125.3</ele>
        <time>2017-12-09T12:20:30Z</time>
      </trkpt>
      <trkpt lat="43.5639" lon="3.35056">
        <ele>125.5</ele>
        <time>2017-12-09T12:20:31Z</time>
      </trkpt>
      <trkpt lat="43.56389" lon="3.35051">
        <ele>125.7</ele>
        <time>2017-12-09T12:20:32Z</time>
      </trkpt>
      <trkpt lat="43.56388" lon="3.35046">
        <ele>125.8</ele>
        <time>2017-12-09T12:20:33Z</time>
      </trkpt>
      <trkpt lat="43.56388" lon="3.35041">
        <ele>126</ele>
        <time>2017-12-09T12:20:34Z</time>
      </trkpt>
      <trkpt lat="43.56389" lon="3.35036">
        <ele>126.1</ele>
        <time>2017-12-09T12:20:35Z</time>
      </trkpt>
      <trkpt lat="43.56391" lon="3.35032">
        <ele>126.2</ele>
        <time>2017-12-09T12:20:36Z</time>
      </trkpt>
      <trkpt lat="43.56393" lon="3.35029">
        <ele>126.3</ele>
        <time>2017-12-09T12:20:37Z</time>
      </trkpt>
      <trkpt lat="43.56396" lon="3.35026">
        <ele>126.4</ele>
        <time>2017-12-09T12:20:38Z</time>
      </trkpt>
      <trkpt lat="43.56399" lon="3.35023">
        <ele>126.4</ele>
        <time>2017-12-09T12:20:39Z</time>
      </trkpt>
      <trkpt lat="43.56402" lon="3.35021">
        <ele>126.5</ele>
        <time>2017-12-09T12:20:40Z</time>
      </trkpt>
      <trkpt lat="43.56405" lon="3.35018">
        <ele>126.5</ele>
        <time>2017-12-09T12:20:41Z</time>
      </trkpt>
      <trkpt lat="43.56408" lon="3.35016">
        <ele>126.5</ele>
        <time>2017-12-09T12:20:42Z</time>
      </trkpt>
      <trkpt lat="43.56412" lon="3.35013">
        <ele>126.6</ele>
        <time>2017-12-09T12:20:43Z</time>
      </trkpt>
      <trkpt lat="43.56414" lon="3.35011">
        <ele>126.6</ele>
        <time>2017-12-09T12:20:44Z</time>
      </trkpt>
      <trkpt lat="43.56417" lon="3.35007">
        <ele>126.6</ele>
        <time>2017-12-09T12:20:45Z</time>
      </trkpt>
      <trkpt lat="43.56419" lon="3.35004">
        <ele>126.6</ele>
        <time>2017-12-09T12:20:46Z</time>
      </trkpt>
      <trkpt lat="43.5642" lon="3.34999">
        <ele>126.6</ele>
        <time>2017-12-09T12:20:47Z</time>
      </trkpt>
      <trkpt lat="43.5642" lon="3.34994">
        <ele>126.6</ele>
        <time>2017-12-09T12:20:48Z</time>
      </trkpt>
      <trkpt lat="43.5642" lon="3.3499">
        <ele>126.6</ele>
        <time>2017-12-09T12:20:49Z</time>
      </trkpt>
      <trkpt lat="43.56418" lon="3.34986">
        <ele>126.6</ele>
        <time>2017-12-09T12:20:50Z</time>
      </trkpt>
      <trkpt lat="43.56415" lon="3.34981">
        <ele>126.6</ele>
        <time>2017-12-09T12:20:51Z</time>
      </trkpt>
      <trkpt lat="43.56413" lon="3.34977">
        <ele>126.6</ele>
        <time>2017-12-09T12:20:52Z</time>
      </trkpt>
      <trkpt lat="43.5641" lon="3.34973">
        <ele>126.6</ele>
        <time>2017-12-09T12:20:53Z</time>
      </trkpt>
      <trkpt lat="43.56407" lon="3.34969">
        <ele>126.6</ele>
        <time>2017-12-09T12:20:54Z</time>
      </trkpt>
      <trkpt lat="43.56404" lon="3.34964">
        <ele>126.6</ele>
        <time>2017-12-09T12:20:55Z</time>
      </trkpt>
      <trkpt lat="43.56401" lon="3.3496">
        <ele>126.6</ele>
        <time>2017-12-09T12:20:56Z</time>
      </trkpt>
      <trkpt lat="43.56398" lon="3.34955">
        <ele>126.6</ele>
        <time>2017-12-09T12:20:57Z</time>
      </trkpt>
      <trkpt lat="43.56395" lon="3.34951">
        <ele>126.7</ele>
        <time>2017-12-09T12:20:58Z</time>
      </trkpt>
      <trkpt lat="43.56392" lon="3.34947">
        <ele>126.7</ele>
        <time>2017-12-09T12:20:59Z</time>
      </trkpt>
      <trkpt lat="43.5639" lon="3.34943">
        <ele>126.7</ele>
        <time>2017-12-09T12:21:00Z</time>
      </trkpt>
      <trkpt lat="43.56387" lon="3.34938">
        <ele>126.7</ele>
        <time>2017-12-09T12:21:01Z</time>
      </trkpt>
      <trkpt lat="43.56384" lon="3.34934">
        <ele>126.8</ele>
        <time>2017-12-09T12:21:02Z</time>
      </trkpt>
      <trkpt lat="43.56382" lon="3.3493">
        <ele>126.8</ele>
        <time>2017-12-09T12:21:03Z</time>
      </trkpt>
      <trkpt lat="43.56379" lon="3.34926">
        <ele>126.9</ele>
        <time>2017-12-09T12:21:04Z</time>
      </trkpt>
      <trkpt lat="43.56377" lon="3.34921">
        <ele>127</ele>
        <time>2017-12-09T12:21:05Z</time>
      </trkpt>
      <trkpt lat="43.56374" lon="3.34916">
        <ele>127.2</ele>
        <time>2017-12-09T12:21:06Z</time>
      </trkpt>
      <trkpt lat="43.56372" lon="3.34911">
        <ele>127.3</ele>
        <time>2017-12-09T12:21:07Z</time>
      </trkpt>
      <trkpt lat="43.5637" lon="3.34906">
        <ele>127.5</ele>
        <time>2017-12-09T12:21:08Z</time>
      </trkpt>
      <trkpt lat="43.56368" lon="3.34901">
        <ele>127.7</ele>
        <time>2017-12-09T12:21:09Z</time>
      </trkpt>
      <trkpt lat="43.56366" lon="3.34896">
        <ele>127.9</ele>
        <time>2017-12-09T12:21:10Z</time>
      </trkpt>
      <trkpt lat="43.56364" lon="3.34891">
        <ele>128.1</ele>
        <time>2017-12-09T12:21:11Z</time>
      </trkpt>
      <trkpt lat="43.56362" lon="3.34886">
        <ele>128.2</ele>
        <time>2017-12-09T12:21:12Z</time>
      </trkpt>
      <trkpt lat="43.56361" lon="3.34881">
        <ele>128.3</ele>
        <time>2017-12-09T12:21:13Z</time>
      </trkpt>
      <trkpt lat="43.56359" lon="3.34877">
        <ele>128.4</ele>
        <time>2017-12-09T12:21:14Z</time>
      </trkpt>
      <trkpt lat="43.56357" lon="3.34873">
        <ele>128.5</ele>
        <time>2017-12-09T12:21:15Z</time>
      </trkpt>
      <trkpt lat="43.56356" lon="3.34869">
        <ele>128.5</ele>
        <time>2017-12-09T12:21:16Z</time>
      </trkpt>
      <trkpt lat="43.56354" lon="3.34865">
        <ele>128.6</ele>
        <time>2017-12-09T12:21:17Z</time>
      </trkpt>
      <trkpt lat="43.56352" lon="3.3486">
        <ele>128.6</ele>
        <time>2017-12-09T12:21:18Z</time>
      </trkpt>
      <trkpt lat="43.56351" lon="3.34856">
        <ele>128.7</ele>
        <time>2017-12-09T12:21:19Z</time>
      </trkpt>
      <trkpt lat="43.5635" lon="3.34852">
        <ele>128.7</ele>
        <time>2017-12-09T12:21:20Z</time>
      </trkpt>
      <trkpt lat="43.56348" lon="3.34847">
        <ele>128.7</ele>
        <time>2017-12-09T12:21:21Z</time>
      </trkpt>
      <trkpt lat="43.56347" lon="3.34842">
        <ele>128.7</ele>
        <time>2017-12-09T12:21:22Z</time>
      </trkpt>
      <trkpt lat="43.56345" lon="3.34837">
        <ele>128.7</ele>
        <time>2017-12-09T12:21:23Z</time>
      </trkpt>
      <trkpt lat="43.56343" lon="3.34831">
        <ele>128.7</ele>
        <time>2017-12-09T12:21:24Z</time>
      </trkpt>
      <trkpt lat="43.56341" lon="3.34826">
        <ele>128.7</ele>
        <time>2017-12-09T12:21:25Z</time>
      </trkpt>
      <trkpt lat="43.56338" lon="3.34823">
        <ele>128.7</ele>
        <time>2017-12-09T12:21:26Z</time>
      </trkpt>
      <trkpt lat="43.56335" lon="3.34821">
        <ele>128.6</ele>
        <time>2017-12-09T12:21:27Z</time>
      </trkpt>
      <trkpt lat="43.56331" lon="3.34819">
        <ele>128.6</ele>
        <time>2017-12-09T12:21:28Z</time>
      </trkpt>
      <trkpt lat="43.56328" lon="3.34817">
        <ele>128.5</ele>
        <time>2017-12-09T12:21:29Z</time>
      </trkpt>
      <trkpt lat="43.56325" lon="3.34816">
        <ele>128.4</ele>
        <time>2017-12-09T12:21:30Z</time>
      </trkpt>
      <trkpt lat="43.56322" lon="3.34814">
        <ele>128.3</ele>
        <time>2017-12-09T12:21:31Z</time>
      </trkpt>
      <trkpt lat="43.56318" lon="3.34813">
        <ele>128.2</ele>
        <time>2017-12-09T12:21:32Z</time>
      </trkpt>
      <trkpt lat="43.56315" lon="3.34811">
        <ele>128.1</ele>
        <time>2017-12-09T12:21:33Z</time>
      </trkpt>
      <trkpt lat="43.56311" lon="3.34809">
        <ele>127.9</ele>
        <time>2017-12-09T12:21:34Z</time>
      </trkpt>
      <trkpt lat="43.56306" lon="3.34808">
        <ele>127.3</ele>
        <time>2017-12-09T12:21:35Z</time>
      </trkpt>
      <trkpt lat="43.56302" lon="3.34806">
        <ele>126.7</ele>
        <time>2017-12-09T12:21:36Z</time>
      </trkpt>
      <trkpt lat="43.56297" lon="3.34805">
        <ele>126</ele>
        <time>2017-12-09T12:21:37Z</time>
      </trkpt>
      <trkpt lat="43.56292" lon="3.34803">
        <ele>125.5</ele>
        <time>2017-12-09T12:21:38Z</time>
      </trkpt>
      <trkpt lat="43.56288" lon="3.34801">
        <ele>125.1</ele>
        <time>2017-12-09T12:21:39Z</time>
      </trkpt>
      <trkpt lat="43.56282" lon="3.34799">
        <ele>124.8</ele>
        <time>2017-12-09T12:21:40Z</time>
      </trkpt>
      <trkpt lat="43.56277" lon="3.34798">
        <ele>124.7</ele>
        <time>2017-12-09T12:21:41Z</time>
      </trkpt>
      <trkpt lat="43.56271" lon="3.34796">
        <ele>124.6</ele>
        <time>2017-12-09T12:21:42Z</time>
      </trkpt>
      <trkpt lat="43.56266" lon="3.34793">
        <ele>124.6</ele>
        <time>2017-12-09T12:21:43Z</time>
      </trkpt>
      <trkpt lat="43.56261" lon="3.34787">
        <ele>124.7</ele>
        <time>2017-12-09T12:21:44Z</time>
      </trkpt>
      <trkpt lat="43.5626" lon="3.34778">
        <ele>124.8</ele>
        <time>2017-12-09T12:21:45Z</time>
      </trkpt>
      <trkpt lat="43.5626" lon="3.34769">
        <ele>124.9</ele>
        <time>2017-12-09T12:21:46Z</time>
      </trkpt>
      <trkpt lat="43.56259" lon="3.3476">
        <ele>125.2</ele>
        <time>2017-12-09T12:21:47Z</time>
      </trkpt>
      <trkpt lat="43.56259" lon="3.34752">
        <ele>125.6</ele>
        <time>2017-12-09T12:21:48Z</time>
      </trkpt>
      <trkpt lat="43.56257" lon="3.34744">
        <ele>125.9</ele>
        <time>2017-12-09T12:21:49Z</time>
      </trkpt>
      <trkpt lat="43.56254" lon="3.34737">
        <ele>126.2</ele>
        <time>2017-12-09T12:21:50Z</time>
      </trkpt>
      <trkpt lat="43.56252" lon="3.34729">
        <ele>126.6</ele>
        <time>2017-12-09T12:21:51Z</time>
      </trkpt>
      <trkpt lat="43.56249" lon="3.34723">
        <ele>127</ele>
        <time>2017-12-09T12:21:52Z</time>
      </trkpt>
      <trkpt lat="43.56247" lon="3.34717">
        <ele>127.4</ele>
        <time>2017-12-09T12:21:53Z</time>
      </trkpt>
      <trkpt lat="43.56246" lon="3.34712">
        <ele>127.7</ele>
        <time>2017-12-09T12:21:54Z</time>
      </trkpt>
      <trkpt lat="43.56246" lon="3.34707">
        <ele>128.1</ele>
        <time>2017-12-09T12:21:55Z</time>
      </trkpt>
      <trkpt lat="43.56246" lon="3.34703">
        <ele>128.4</ele>
        <time>2017-12-09T12:21:56Z</time>
      </trkpt>
      <trkpt lat="43.56246" lon="3.34698">
        <ele>128.8</ele>
        <time>2017-12-09T12:21:57Z</time>
      </trkpt>
      <trkpt lat="43.56246" lon="3.34694">
        <ele>129.2</ele>
        <time>2017-12-09T12:21:58Z</time>
      </trkpt>
      <trkpt lat="43.56247" lon="3.34689">
        <ele>129.6</ele>
        <time>2017-12-09T12:21:59Z</time>
      </trkpt>
      <trkpt lat="43.56247" lon="3.34685">
        <ele>129.9</ele>
        <time>2017-12-09T12:22:00Z</time>
      </trkpt>
      <trkpt lat="43.56247" lon="3.3468">
        <ele>130.3</ele>
        <time>2017-12-09T12:22:01Z</time>
      </trkpt>
      <trkpt lat="43.56247" lon="3.34675">
        <ele>130.7</ele>
        <time>2017-12-09T12:22:02Z</time>
      </trkpt>
      <trkpt lat="43.56247" lon="3.3467">
        <ele>131.1</ele>
        <time>2017-12-09T12:22:03Z</time>
      </trkpt>
      <trkpt lat="43.56246" lon="3.34666">
        <ele>131.4</ele>
        <time>2017-12-09T12:22:04Z</time>
      </trkpt>
      <trkpt lat="43.56245" lon="3.34662">
        <ele>131.7</ele>
        <time>2017-12-09T12:22:05Z</time>
      </trkpt>
      <trkpt lat="43.56243" lon="3.34658">
        <ele>132</ele>
        <time>2017-12-09T12:22:06Z</time>
      </trkpt>
      <trkpt lat="43.56241" lon="3.34654">
        <ele>132.3</ele>
        <time>2017-12-09T12:22:07Z</time>
      </trkpt>
      <trkpt lat="43.56239" lon="3.3465">
        <ele>132.6</ele>
        <time>2017-12-09T12:22:08Z</time>
      </trkpt>
      <trkpt lat="43.56237" lon="3.34646">
        <ele>132.9</ele>
        <time>2017-12-09T12:22:09Z</time>
      </trkpt>
      <trkpt lat="43.56235" lon="3.34643">
        <ele>133.2</ele>
        <time>2017-12-09T12:22:10Z</time>
      </trkpt>
      <trkpt lat="43.56232" lon="3.34641">
        <ele>133.4</ele>
        <time>2017-12-09T12:22:11Z</time>
      </trkpt>
      <trkpt lat="43.5623" lon="3.34639">
        <ele>133.6</ele>
        <time>2017-12-09T12:22:12Z</time>
      </trkpt>
      <trkpt lat="43.56227" lon="3.34636">
        <ele>133.7</ele>
        <time>2017-12-09T12:22:13Z</time>
      </trkpt>
      <trkpt lat="43.56225" lon="3.34634">
        <ele>133.9</ele>
        <time>2017-12-09T12:22:14Z</time>
      </trkpt>
      <trkpt lat="43.56222" lon="3.34632">
        <ele>134</ele>
        <time>2017-12-09T12:22:15Z</time>
      </trkpt>
      <trkpt lat="43.5622" lon="3.34629">
        <ele>134.1</ele>
        <time>2017-12-09T12:22:16Z</time>
      </trkpt>
      <trkpt lat="43.56217" lon="3.34626">
        <ele>134.2</ele>
        <time>2017-12-09T12:22:17Z</time>
      </trkpt>
      <trkpt lat="43.56215" lon="3.34622">
        <ele>134.2</ele>
        <time>2017-12-09T12:22:18Z</time>
      </trkpt>
      <trkpt lat="43.56214" lon="3.34619">
        <ele>134.2</ele>
        <time>2017-12-09T12:22:19Z</time>
      </trkpt>
      <trkpt lat="43.56212" lon="3.34615">
        <ele>134.3</ele>
        <time>2017-12-09T12:22:20Z</time>
      </trkpt>
      <trkpt lat="43.5621" lon="3.34611">
        <ele>134.3</ele>
        <time>2017-12-09T12:22:21Z</time>
      </trkpt>
      <trkpt lat="43.56209" lon="3.34607">
        <ele>134.4</ele>
        <time>2017-12-09T12:22:22Z</time>
      </trkpt>
      <trkpt lat="43.56207" lon="3.34604">
        <ele>134.4</ele>
        <time>2017-12-09T12:22:23Z</time>
      </trkpt>
      <trkpt lat="43.56206" lon="3.346">
        <ele>134.4</ele>
        <time>2017-12-09T12:22:24Z</time>
      </trkpt>
      <trkpt lat="43.56205" lon="3.34596">
        <ele>134.4</ele>
        <time>2017-12-09T12:22:25Z</time>
      </trkpt>
      <trkpt lat="43.56204" lon="3.34592">
        <ele>134.4</ele>
        <time>2017-12-09T12:22:26Z</time>
      </trkpt>
      <trkpt lat="43.56202" lon="3.34587">
        <ele>134.5</ele>
        <time>2017-12-09T12:22:27Z</time>
      </trkpt>
      <trkpt lat="43.56201" lon="3.34582">
        <ele>134.5</ele>
        <time>2017-12-09T12:22:28Z</time>
      </trkpt>
      <trkpt lat="43.562" lon="3.34578">
        <ele>134.5</ele>
        <time>2017-12-09T12:22:29Z</time>
      </trkpt>
      <trkpt lat="43.56199" lon="3.34573">
        <ele>134.5</ele>
        <time>2017-12-09T12:22:30Z</time>
      </trkpt>
      <trkpt lat="43.56199" lon="3.34569">
        <ele>134.5</ele>
        <time>2017-12-09T12:22:31Z</time>
      </trkpt>
      <trkpt lat="43.56198" lon="3.34564">
        <ele>134.5</ele>
        <time>2017-12-09T12:22:32Z</time>
      </trkpt>
      <trkpt lat="43.56198" lon="3.3456">
        <ele>134.5</ele>
        <time>2017-12-09T12:22:33Z</time>
      </trkpt>
      <trkpt lat="43.56198" lon="3.34555">
        <ele>134.5</ele>
        <time>2017-12-09T12:22:34Z</time>
      </trkpt>
      <trkpt lat="43.56197" lon="3.34551">
        <ele>134.5</ele>
        <time>2017-12-09T12:22:35Z</time>
      </trkpt>
      <trkpt lat="43.56197" lon="3.34547">
        <ele>134.6</ele>
        <time>2017-12-09T12:22:36Z</time>
      </trkpt>
      <trkpt lat="43.56197" lon="3.34542">
        <ele>134.6</ele>
        <time>2017-12-09T12:22:37Z</time>
      </trkpt>
      <trkpt lat="43.56197" lon="3.34538">
        <ele>134.6</ele>
        <time>2017-12-09T12:22:38Z</time>
      </trkpt>
      <trkpt lat="43.56197" lon="3.34534">
        <ele>134.6</ele>
        <time>2017-12-09T12:22:39Z</time>
      </trkpt>
      <trkpt lat="43.56197" lon="3.3453">
        <ele>134.6</ele>
        <time>2017-12-09T12:22:40Z</time>
      </trkpt>
      <trkpt lat="43.56198" lon="3.34525">
        <ele>134.6</ele>
        <time>2017-12-09T12:22:41Z</time>
      </trkpt>
      <trkpt lat="43.56198" lon="3.34521">
        <ele>134.6</ele>
        <time>2017-12-09T12:22:42Z</time>
      </trkpt>
      <trkpt lat="43.56198" lon="3.34516">
        <ele>134.6</ele>
        <time>2017-12-09T12:22:43Z</time>
      </trkpt>
      <trkpt lat="43.56198" lon="3.34511">
        <ele>134.6</ele>
        <time>2017-12-09T12:22:44Z</time>
      </trkpt>
      <trkpt lat="43.56198" lon="3.34506">
        <ele>134.6</ele>
        <time>2017-12-09T12:22:45Z</time>
      </trkpt>
      <trkpt lat="43.56198" lon="3.34502">
        <ele>134.6</ele>
        <time>2017-12-09T12:22:46Z</time>
      </trkpt>
      <trkpt lat="43.56199" lon="3.34497">
        <ele>134.6</ele>
        <time>2017-12-09T12:22:47Z</time>
      </trkpt>
      <trkpt lat="43.56199" lon="3.34492">
        <ele>134.6</ele>
        <time>2017-12-09T12:22:48Z</time>
      </trkpt>
      <trkpt lat="43.56199" lon="3.34488">
        <ele>134.6</ele>
        <time>2017-12-09T12:22:49Z</time>
      </trkpt>
      <trkpt lat="43.562" lon="3.34483">
        <ele>134.6</ele>
        <time>2017-12-09T12:22:50Z</time>
      </trkpt>
      <trkpt lat="43.562" lon="3.34479">
        <ele>134.6</ele>
        <time>2017-12-09T12:22:51Z</time>
      </trkpt>
      <trkpt lat="43.56201" lon="3.34474">
        <ele>134.6</ele>
        <time>2017-12-09T12:22:52Z</time>
      </trkpt>
      <trkpt lat="43.56202" lon="3.34469">
        <ele>134.6</ele>
        <time>2017-12-09T12:22:53Z</time>
      </trkpt>
      <trkpt lat="43.56202" lon="3.34464">
        <ele>134.6</ele>
        <time>2017-12-09T12:22:54Z</time>
      </trkpt>
      <trkpt lat="43.56202" lon="3.34459">
        <ele>134.6</ele>
        <time>2017-12-09T12:22:55Z</time>
      </trkpt>
      <trkpt lat="43.56203" lon="3.34454">
        <ele>134.6</ele>
        <time>2017-12-09T12:22:56Z</time>
      </trkpt>
      <trkpt lat="43.56203" lon="3.34449">
        <ele>134.6</ele>
        <time>2017-12-09T12:22:57Z</time>
      </trkpt>
      <trkpt lat="43.56204" lon="3.34444">
        <ele>134.6</ele>
        <time>2017-12-09T12:22:58Z</time>
      </trkpt>
      <trkpt lat="43.56204" lon="3.34439">
        <ele>134.6</ele>
        <time>2017-12-09T12:22:59Z</time>
      </trkpt>
      <trkpt lat="43.56205" lon="3.34434">
        <ele>134.6</ele>
        <time>2017-12-09T12:23:00Z</time>
      </trkpt>
      <trkpt lat="43.56205" lon="3.34428">
        <ele>134.6</ele>
        <time>2017-12-09T12:23:01Z</time>
      </trkpt>
      <trkpt lat="43.56205" lon="3.34423">
        <ele>134.6</ele>
        <time>2017-12-09T12:23:02Z</time>
      </trkpt>
      <trkpt lat="43.56205" lon="3.34418">
        <ele>134.6</ele>
        <time>2017-12-09T12:23:03Z</time>
      </trkpt>
      <trkpt lat="43.56205" lon="3.34413">
        <ele>134.7</ele>
        <time>2017-12-09T12:23:04Z</time>
      </trkpt>
      <trkpt lat="43.56205" lon="3.34408">
        <ele>134.7</ele>
        <time>2017-12-09T12:23:05Z</time>
      </trkpt>
      <trkpt lat="43.56204" lon="3.34403">
        <ele>134.7</ele>
        <time>2017-12-09T12:23:06Z</time>
      </trkpt>
      <trkpt lat="43.56204" lon="3.34398">
        <ele>134.7</ele>
        <time>2017-12-09T12:23:07Z</time>
      </trkpt>
      <trkpt lat="43.56204" lon="3.34393">
        <ele>134.7</ele>
        <time>2017-12-09T12:23:08Z</time>
      </trkpt>
      <trkpt lat="43.56204" lon="3.34388">
        <ele>134.7</ele>
        <time>2017-12-09T12:23:09Z</time>
      </trkpt>
      <trkpt lat="43.56204" lon="3.34383">
        <ele>134.8</ele>
        <time>2017-12-09T12:23:10Z</time>
      </trkpt>
      <trkpt lat="43.56204" lon="3.34378">
        <ele>134.8</ele>
        <time>2017-12-09T12:23:11Z</time>
      </trkpt>
      <trkpt lat="43.56204" lon="3.34372">
        <ele>134.8</ele>
        <time>2017-12-09T12:23:12Z</time>
      </trkpt>
      <trkpt lat="43.56204" lon="3.34367">
        <ele>134.9</ele>
        <time>2017-12-09T12:23:13Z</time>
      </trkpt>
      <trkpt lat="43.56205" lon="3.34361">
        <ele>135</ele>
        <time>2017-12-09T12:23:14Z</time>
      </trkpt>
      <trkpt lat="43.56205" lon="3.34356">
        <ele>135</ele>
        <time>2017-12-09T12:23:15Z</time>
      </trkpt>
      <trkpt lat="43.56205" lon="3.34351">
        <ele>135.1</ele>
        <time>2017-12-09T12:23:16Z</time>
      </trkpt>
      <trkpt lat="43.56205" lon="3.34346">
        <ele>135.2</ele>
        <time>2017-12-09T12:23:17Z</time>
      </trkpt>
      <trkpt lat="43.56205" lon="3.34341">
        <ele>135.4</ele>
        <time>2017-12-09T12:23:18Z</time>
      </trkpt>
      <trkpt lat="43.56204" lon="3.34336">
        <ele>135.6</ele>
        <time>2017-12-09T12:23:19Z</time>
      </trkpt>
      <trkpt lat="43.56204" lon="3.34331">
        <ele>135.8</ele>
        <time>2017-12-09T12:23:20Z</time>
      </trkpt>
      <trkpt lat="43.56203" lon="3.34326">
        <ele>136</ele>
        <time>2017-12-09T12:23:21Z</time>
      </trkpt>
      <trkpt lat="43.56203" lon="3.34321">
        <ele>136.2</ele>
        <time>2017-12-09T12:23:22Z</time>
      </trkpt>
      <trkpt lat="43.56202" lon="3.34315">
        <ele>136.4</ele>
        <time>2017-12-09T12:23:23Z</time>
      </trkpt>
      <trkpt lat="43.56201" lon="3.3431">
        <ele>136.7</ele>
        <time>2017-12-09T12:23:24Z</time>
      </trkpt>
      <trkpt lat="43.56201" lon="3.34305">
        <ele>137</ele>
        <time>2017-12-09T12:23:25Z</time>
      </trkpt>
      <trkpt lat="43.562" lon="3.343">
        <ele>137.2</ele>
        <time>2017-12-09T12:23:26Z</time>
      </trkpt>
      <trkpt lat="43.56199" lon="3.34295">
        <ele>137.5</ele>
        <time>2017-12-09T12:23:27Z</time>
      </trkpt>
      <trkpt lat="43.56199" lon="3.3429">
        <ele>137.8</ele>
        <time>2017-12-09T12:23:28Z</time>
      </trkpt>
      <trkpt lat="43.56198" lon="3.34285">
        <ele>138.1</ele>
        <time>2017-12-09T12:23:29Z</time>
      </trkpt>
      <trkpt lat="43.56198" lon="3.3428">
        <ele>138.4</ele>
        <time>2017-12-09T12:23:30Z</time>
      </trkpt>
      <trkpt lat="43.56197" lon="3.34275">
        <ele>138.6</ele>
        <time>2017-12-09T12:23:31Z</time>
      </trkpt>
      <trkpt lat="43.56196" lon="3.34271">
        <ele>138.9</ele>
        <time>2017-12-09T12:23:32Z</time>
      </trkpt>
      <trkpt lat="43.56195" lon="3.34266">
        <ele>139.2</ele>
        <time>2017-12-09T12:23:33Z</time>
      </trkpt>
      <trkpt lat="43.56194" lon="3.34262">
        <ele>139.4</ele>
        <time>2017-12-09T12:23:34Z</time>
      </trkpt>
      <trkpt lat="43.56193" lon="3.34257">
        <ele>139.6</ele>
        <time>2017-12-09T12:23:35Z</time>
      </trkpt>
      <trkpt lat="43.56192" lon="3.34253">
        <ele>139.9</ele>
        <time>2017-12-09T12:23:36Z</time>
      </trkpt>
      <trkpt lat="43.56192" lon="3.34248">
        <ele>140.1</ele>
        <time>2017-12-09T12:23:37Z</time>
      </trkpt>
      <trkpt lat="43.56191" lon="3.34244">
        <ele>140.3</ele>
        <time>2017-12-09T12:23:38Z</time>
      </trkpt>
      <trkpt lat="43.5619" lon="3.34239">
        <ele>140.5</ele>
        <time>2017-12-09T12:23:39Z</time>
      </trkpt>
      <trkpt lat="43.5619" lon="3.34234">
        <ele>140.6</ele>
        <time>2017-12-09T12:23:40Z</time>
      </trkpt>
      <trkpt lat="43.56191" lon="3.3423">
        <ele>140.8</ele>
        <time>2017-12-09T12:23:41Z</time>
      </trkpt>
      <trkpt lat="43.56191" lon="3.34226">
        <ele>140.9</ele>
        <time>2017-12-09T12:23:42Z</time>
      </trkpt>
      <trkpt lat="43.56192" lon="3.34221">
        <ele>141</ele>
        <time>2017-12-09T12:23:43Z</time>
      </trkpt>
      <trkpt lat="43.56193" lon="3.34217">
        <ele>141.1</ele>
        <time>2017-12-09T12:23:44Z</time>
      </trkpt>
      <trkpt lat="43.56194" lon="3.34213">
        <ele>141.2</ele>
        <time>2017-12-09T12:23:45Z</time>
      </trkpt>
      <trkpt lat="43.56195" lon="3.34209">
        <ele>141.3</ele>
        <time>2017-12-09T12:23:46Z</time>
      </trkpt>
      <trkpt lat="43.56196" lon="3.34204">
        <ele>141.5</ele>
        <time>2017-12-09T12:23:47Z</time>
      </trkpt>
      <trkpt lat="43.56197" lon="3.342">
        <ele>141.6</ele>
        <time>2017-12-09T12:23:48Z</time>
      </trkpt>
      <trkpt lat="43.56198" lon="3.34195">
        <ele>141.8</ele>
        <time>2017-12-09T12:23:49Z</time>
      </trkpt>
      <trkpt lat="43.562" lon="3.34191">
        <ele>141.9</ele>
        <time>2017-12-09T12:23:50Z</time>
      </trkpt>
      <trkpt lat="43.56201" lon="3.34186">
        <ele>142.1</ele>
        <time>2017-12-09T12:23:51Z</time>
      </trkpt>
      <trkpt lat="43.56202" lon="3.34181">
        <ele>142.3</ele>
        <time>2017-12-09T12:23:52Z</time>
      </trkpt>
      <trkpt lat="43.56203" lon="3.34177">
        <ele>142.5</ele>
        <time>2017-12-09T12:23:53Z</time>
      </trkpt>
      <trkpt lat="43.56205" lon="3.34173">
        <ele>142.7</ele>
        <time>2017-12-09T12:23:54Z</time>
      </trkpt>
      <trkpt lat="43.56207" lon="3.34169">
        <ele>142.9</ele>
        <time>2017-12-09T12:23:55Z</time>
      </trkpt>
      <trkpt lat="43.56208" lon="3.34166">
        <ele>143</ele>
        <time>2017-12-09T12:23:56Z</time>
      </trkpt>
      <trkpt lat="43.5621" lon="3.34162">
        <ele>143.2</ele>
        <time>2017-12-09T12:23:57Z</time>
      </trkpt>
      <trkpt lat="43.56212" lon="3.34158">
        <ele>143.4</ele>
        <time>2017-12-09T12:23:58Z</time>
      </trkpt>
      <trkpt lat="43.56214" lon="3.34155">
        <ele>143.6</ele>
        <time>2017-12-09T12:23:59Z</time>
      </trkpt>
      <trkpt lat="43.56217" lon="3.34152">
        <ele>143.8</ele>
        <time>2017-12-09T12:24:00Z</time>
      </trkpt>
      <trkpt lat="43.56219" lon="3.34149">
        <ele>143.9</ele>
        <time>2017-12-09T12:24:01Z</time>
      </trkpt>
      <trkpt lat="43.56221" lon="3.34145">
        <ele>144.1</ele>
        <time>2017-12-09T12:24:02Z</time>
      </trkpt>
      <trkpt lat="43.56223" lon="3.34141">
        <ele>144.3</ele>
        <time>2017-12-09T12:24:03Z</time>
      </trkpt>
      <trkpt lat="43.56225" lon="3.34138">
        <ele>144.4</ele>
        <time>2017-12-09T12:24:04Z</time>
      </trkpt>
      <trkpt lat="43.56227" lon="3.34134">
        <ele>144.6</ele>
        <time>2017-12-09T12:24:05Z</time>
      </trkpt>
      <trkpt lat="43.56229" lon="3.34131">
        <ele>144.7</ele>
        <time>2017-12-09T12:24:06Z</time>
      </trkpt>
      <trkpt lat="43.56231" lon="3.34127">
        <ele>144.9</ele>
        <time>2017-12-09T12:24:07Z</time>
      </trkpt>
      <trkpt lat="43.56233" lon="3.34123">
        <ele>145</ele>
        <time>2017-12-09T12:24:08Z</time>
      </trkpt>
      <trkpt lat="43.56235" lon="3.3412">
        <ele>145.1</ele>
        <time>2017-12-09T12:24:09Z</time>
      </trkpt>
      <trkpt lat="43.56237" lon="3.34116">
        <ele>145.1</ele>
        <time>2017-12-09T12:24:10Z</time>
      </trkpt>
      <trkpt lat="43.56239" lon="3.34113">
        <ele>145.1</ele>
        <time>2017-12-09T12:24:11Z</time>
      </trkpt>
      <trkpt lat="43.5624" lon="3.3411">
        <ele>145.1</ele>
        <time>2017-12-09T12:24:12Z</time>
      </trkpt>
      <trkpt lat="43.56242" lon="3.34107">
        <ele>145.2</ele>
        <time>2017-12-09T12:24:13Z</time>
      </trkpt>
      <trkpt lat="43.56244" lon="3.34104">
        <ele>145.2</ele>
        <time>2017-12-09T12:24:14Z</time>
      </trkpt>
      <trkpt lat="43.56246" lon="3.34101">
        <ele>145.2</ele>
        <time>2017-12-09T12:24:15Z</time>
      </trkpt>
      <trkpt lat="43.56249" lon="3.34099">
        <ele>145.2</ele>
        <time>2017-12-09T12:24:16Z</time>
      </trkpt>
      <trkpt lat="43.56251" lon="3.34096">
        <ele>145.2</ele>
        <time>2017-12-09T12:24:17Z</time>
      </trkpt>
      <trkpt lat="43.56253" lon="3.34093">
        <ele>145.3</ele>
        <time>2017-12-09T12:24:18Z</time>
      </trkpt>
      <trkpt lat="43.56256" lon="3.34091">
        <ele>145.3</ele>
        <time>2017-12-09T12:24:19Z</time>
      </trkpt>
      <trkpt lat="43.56259" lon="3.34088">
        <ele>145.3</ele>
        <time>2017-12-09T12:24:20Z</time>
      </trkpt>
      <trkpt lat="43.56261" lon="3.34085">
        <ele>145.3</ele>
        <time>2017-12-09T12:24:21Z</time>
      </trkpt>
      <trkpt lat="43.56263" lon="3.34083">
        <ele>145.3</ele>
        <time>2017-12-09T12:24:22Z</time>
      </trkpt>
      <trkpt lat="43.56266" lon="3.3408">
        <ele>145.3</ele>
        <time>2017-12-09T12:24:23Z</time>
      </trkpt>
      <trkpt lat="43.56268" lon="3.34078">
        <ele>145.3</ele>
        <time>2017-12-09T12:24:24Z</time>
      </trkpt>
      <trkpt lat="43.5627" lon="3.34075">
        <ele>145.3</ele>
        <time>2017-12-09T12:24:25Z</time>
      </trkpt>
      <trkpt lat="43.56272" lon="3.34073">
        <ele>145.3</ele>
        <time>2017-12-09T12:24:26Z</time>
      </trkpt>
      <trkpt lat="43.56275" lon="3.3407">
        <ele>145.2</ele>
        <time>2017-12-09T12:24:27Z</time>
      </trkpt>
      <trkpt lat="43.56277" lon="3.34068">
        <ele>145.2</ele>
        <time>2017-12-09T12:24:28Z</time>
      </trkpt>
      <trkpt lat="43.56279" lon="3.34065">
        <ele>145.2</ele>
        <time>2017-12-09T12:24:29Z</time>
      </trkpt>
      <trkpt lat="43.56281" lon="3.34062">
        <ele>145.2</ele>
        <time>2017-12-09T12:24:30Z</time>
      </trkpt>
      <trkpt lat="43.56283" lon="3.3406">
        <ele>145.2</ele>
        <time>2017-12-09T12:24:31Z</time>
      </trkpt>
      <trkpt lat="43.56286" lon="3.34057">
        <ele>145.1</ele>
        <time>2017-12-09T12:24:32Z</time>
      </trkpt>
      <trkpt lat="43.56288" lon="3.34055">
        <ele>145</ele>
        <time>2017-12-09T12:24:33Z</time>
      </trkpt>
      <trkpt lat="43.56292" lon="3.3405">
        <ele>144.7</ele>
        <time>2017-12-09T12:24:35Z</time>
      </trkpt>
      <trkpt lat="43.56295" lon="3.34045">
        <ele>144.4</ele>
        <time>2017-12-09T12:24:37Z</time>
      </trkpt>
      <trkpt lat="43.56297" lon="3.34042">
        <ele>144.2</ele>
        <time>2017-12-09T12:24:38Z</time>
      </trkpt>
      <trkpt lat="43.56299" lon="3.34039">
        <ele>144</ele>
        <time>2017-12-09T12:24:39Z</time>
      </trkpt>
      <trkpt lat="43.56301" lon="3.34036">
        <ele>143.8</ele>
        <time>2017-12-09T12:24:40Z</time>
      </trkpt>
      <trkpt lat="43.56304" lon="3.34032">
        <ele>143.7</ele>
        <time>2017-12-09T12:24:41Z</time>
      </trkpt>
      <trkpt lat="43.56307" lon="3.34029">
        <ele>143.6</ele>
        <time>2017-12-09T12:24:42Z</time>
      </trkpt>
      <trkpt lat="43.5631" lon="3.34027">
        <ele>143.5</ele>
        <time>2017-12-09T12:24:43Z</time>
      </trkpt>
      <trkpt lat="43.56314" lon="3.34025">
        <ele>143.4</ele>
        <time>2017-12-09T12:24:44Z</time>
      </trkpt>
      <trkpt lat="43.56318" lon="3.34024">
        <ele>143.3</ele>
        <time>2017-12-09T12:24:45Z</time>
      </trkpt>
      <trkpt lat="43.56323" lon="3.34024">
        <ele>143.3</ele>
        <time>2017-12-09T12:24:46Z</time>
      </trkpt>
      <trkpt lat="43.56326" lon="3.34025">
        <ele>143.3</ele>
        <time>2017-12-09T12:24:47Z</time>
      </trkpt>
      <trkpt lat="43.5633" lon="3.34026">
        <ele>143.2</ele>
        <time>2017-12-09T12:24:48Z</time>
      </trkpt>
      <trkpt lat="43.56334" lon="3.34028">
        <ele>143.2</ele>
        <time>2017-12-09T12:24:49Z</time>
      </trkpt>
      <trkpt lat="43.56337" lon="3.34029">
        <ele>143.2</ele>
        <time>2017-12-09T12:24:50Z</time>
      </trkpt>
      <trkpt lat="43.56341" lon="3.3403">
        <ele>143.2</ele>
        <time>2017-12-09T12:24:51Z</time>
      </trkpt>
      <trkpt lat="43.56344" lon="3.34031">
        <ele>143.2</ele>
        <time>2017-12-09T12:24:52Z</time>
      </trkpt>
      <trkpt lat="43.56348" lon="3.34031">
        <ele>143.2</ele>
        <time>2017-12-09T12:24:53Z</time>
      </trkpt>
      <trkpt lat="43.56352" lon="3.34031">
        <ele>143.3</ele>
        <time>2017-12-09T12:24:54Z</time>
      </trkpt>
      <trkpt lat="43.56356" lon="3.34031">
        <ele>143.3</ele>
        <time>2017-12-09T12:24:55Z</time>
      </trkpt>
      <trkpt lat="43.5636" lon="3.3403">
        <ele>143.3</ele>
        <time>2017-12-09T12:24:56Z</time>
      </trkpt>
      <trkpt lat="43.56363" lon="3.34028">
        <ele>143.4</ele>
        <time>2017-12-09T12:24:57Z</time>
      </trkpt>
      <trkpt lat="43.56367" lon="3.34026">
        <ele>143.5</ele>
        <time>2017-12-09T12:24:58Z</time>
      </trkpt>
      <trkpt lat="43.56372" lon="3.34024">
        <ele>143.5</ele>
        <time>2017-12-09T12:24:59Z</time>
      </trkpt>
      <trkpt lat="43.56376" lon="3.3402">
        <ele>143.6</ele>
        <time>2017-12-09T12:25:00Z</time>
      </trkpt>
      <trkpt lat="43.56379" lon="3.34015">
        <ele>143.8</ele>
        <time>2017-12-09T12:25:01Z</time>
      </trkpt>
      <trkpt lat="43.56382" lon="3.3401">
        <ele>143.9</ele>
        <time>2017-12-09T12:25:02Z</time>
      </trkpt>
      <trkpt lat="43.56384" lon="3.34005">
        <ele>144.1</ele>
        <time>2017-12-09T12:25:03Z</time>
      </trkpt>
      <trkpt lat="43.56385" lon="3.33999">
        <ele>144.3</ele>
        <time>2017-12-09T12:25:04Z</time>
      </trkpt>
      <trkpt lat="43.56386" lon="3.33994">
        <ele>144.5</ele>
        <time>2017-12-09T12:25:05Z</time>
      </trkpt>
      <trkpt lat="43.56387" lon="3.33988">
        <ele>144.6</ele>
        <time>2017-12-09T12:25:06Z</time>
      </trkpt>
      <trkpt lat="43.56387" lon="3.33983">
        <ele>144.7</ele>
        <time>2017-12-09T12:25:07Z</time>
      </trkpt>
      <trkpt lat="43.56388" lon="3.33977">
        <ele>144.8</ele>
        <time>2017-12-09T12:25:08Z</time>
      </trkpt>
      <trkpt lat="43.56388" lon="3.33972">
        <ele>144.8</ele>
        <time>2017-12-09T12:25:09Z</time>
      </trkpt>
      <trkpt lat="43.56388" lon="3.33967">
        <ele>144.9</ele>
        <time>2017-12-09T12:25:10Z</time>
      </trkpt>
      <trkpt lat="43.56388" lon="3.33961">
        <ele>144.9</ele>
        <time>2017-12-09T12:25:11Z</time>
      </trkpt>
      <trkpt lat="43.56388" lon="3.33956">
        <ele>144.9</ele>
        <time>2017-12-09T12:25:12Z</time>
      </trkpt>
      <trkpt lat="43.56387" lon="3.33951">
        <ele>145</ele>
        <time>2017-12-09T12:25:13Z</time>
      </trkpt>
      <trkpt lat="43.56387" lon="3.33946">
        <ele>145</ele>
        <time>2017-12-09T12:25:14Z</time>
      </trkpt>
      <trkpt lat="43.56387" lon="3.33941">
        <ele>145.1</ele>
        <time>2017-12-09T12:25:15Z</time>
      </trkpt>
      <trkpt lat="43.56387" lon="3.33936">
        <ele>145.1</ele>
        <time>2017-12-09T12:25:16Z</time>
      </trkpt>
      <trkpt lat="43.56386" lon="3.33932">
        <ele>145.1</ele>
        <time>2017-12-09T12:25:17Z</time>
      </trkpt>
      <trkpt lat="43.56386" lon="3.33927">
        <ele>145.1</ele>
        <time>2017-12-09T12:25:18Z</time>
      </trkpt>
      <trkpt lat="43.56386" lon="3.33922">
        <ele>145.2</ele>
        <time>2017-12-09T12:25:19Z</time>
      </trkpt>
      <trkpt lat="43.56386" lon="3.33917">
        <ele>145.2</ele>
        <time>2017-12-09T12:25:20Z</time>
      </trkpt>
      <trkpt lat="43.56385" lon="3.33912">
        <ele>145.2</ele>
        <time>2017-12-09T12:25:21Z</time>
      </trkpt>
      <trkpt lat="43.56385" lon="3.33907">
        <ele>145.2</ele>
        <time>2017-12-09T12:25:22Z</time>
      </trkpt>
      <trkpt lat="43.56384" lon="3.33903">
        <ele>145.3</ele>
        <time>2017-12-09T12:25:23Z</time>
      </trkpt>
      <trkpt lat="43.56384" lon="3.33898">
        <ele>145.3</ele>
        <time>2017-12-09T12:25:24Z</time>
      </trkpt>
      <trkpt lat="43.56383" lon="3.33893">
        <ele>145.3</ele>
        <time>2017-12-09T12:25:25Z</time>
      </trkpt>
      <trkpt lat="43.56382" lon="3.33889">
        <ele>145.3</ele>
        <time>2017-12-09T12:25:26Z</time>
      </trkpt>
      <trkpt lat="43.56381" lon="3.33884">
        <ele>145.3</ele>
        <time>2017-12-09T12:25:27Z</time>
      </trkpt>
      <trkpt lat="43.5638" lon="3.3388">
        <ele>145.4</ele>
        <time>2017-12-09T12:25:28Z</time>
      </trkpt>
      <trkpt lat="43.5638" lon="3.33875">
        <ele>145.4</ele>
        <time>2017-12-09T12:25:29Z</time>
      </trkpt>
      <trkpt lat="43.56379" lon="3.3387">
        <ele>145.4</ele>
        <time>2017-12-09T12:25:30Z</time>
      </trkpt>
      <trkpt lat="43.56379" lon="3.33865">
        <ele>145.5</ele>
        <time>2017-12-09T12:25:31Z</time>
      </trkpt>
      <trkpt lat="43.56379" lon="3.3386">
        <ele>145.5</ele>
        <time>2017-12-09T12:25:32Z</time>
      </trkpt>
      <trkpt lat="43.56379" lon="3.33855">
        <ele>145.5</ele>
        <time>2017-12-09T12:25:33Z</time>
      </trkpt>
      <trkpt lat="43.5638" lon="3.33851">
        <ele>145.6</ele>
        <time>2017-12-09T12:25:34Z</time>
      </trkpt>
      <trkpt lat="43.56381" lon="3.33846">
        <ele>145.6</ele>
        <time>2017-12-09T12:25:35Z</time>
      </trkpt>
      <trkpt lat="43.56383" lon="3.33842">
        <ele>145.7</ele>
        <time>2017-12-09T12:25:36Z</time>
      </trkpt>
      <trkpt lat="43.56385" lon="3.33838">
        <ele>145.7</ele>
        <time>2017-12-09T12:25:37Z</time>
      </trkpt>
      <trkpt lat="43.56387" lon="3.33835">
        <ele>145.8</ele>
        <time>2017-12-09T12:25:38Z</time>
      </trkpt>
      <trkpt lat="43.5639" lon="3.33831">
        <ele>145.9</ele>
        <time>2017-12-09T12:25:39Z</time>
      </trkpt>
      <trkpt lat="43.56393" lon="3.33828">
        <ele>146.1</ele>
        <time>2017-12-09T12:25:40Z</time>
      </trkpt>
      <trkpt lat="43.56396" lon="3.33825">
        <ele>146.2</ele>
        <time>2017-12-09T12:25:41Z</time>
      </trkpt>
      <trkpt lat="43.56399" lon="3.33822">
        <ele>146.4</ele>
        <time>2017-12-09T12:25:42Z</time>
      </trkpt>
      <trkpt lat="43.56402" lon="3.3382">
        <ele>146.5</ele>
        <time>2017-12-09T12:25:43Z</time>
      </trkpt>
      <trkpt lat="43.56405" lon="3.33817">
        <ele>146.7</ele>
        <time>2017-12-09T12:25:44Z</time>
      </trkpt>
      <trkpt lat="43.56408" lon="3.33815">
        <ele>146.8</ele>
        <time>2017-12-09T12:25:45Z</time>
      </trkpt>
      <trkpt lat="43.56411" lon="3.33813">
        <ele>147</ele>
        <time>2017-12-09T12:25:46Z</time>
      </trkpt>
      <trkpt lat="43.56415" lon="3.3381">
        <ele>147.1</ele>
        <time>2017-12-09T12:25:47Z</time>
      </trkpt>
      <trkpt lat="43.56418" lon="3.33808">
        <ele>147.2</ele>
        <time>2017-12-09T12:25:48Z</time>
      </trkpt>
      <trkpt lat="43.56422" lon="3.33807">
        <ele>147.3</ele>
        <time>2017-12-09T12:25:49Z</time>
      </trkpt>
      <trkpt lat="43.56425" lon="3.33806">
        <ele>147.4</ele>
        <time>2017-12-09T12:25:50Z</time>
      </trkpt>
      <trkpt lat="43.56429" lon="3.33805">
        <ele>147.6</ele>
        <time>2017-12-09T12:25:51Z</time>
      </trkpt>
      <trkpt lat="43.56433" lon="3.33805">
        <ele>147.7</ele>
        <time>2017-12-09T12:25:52Z</time>
      </trkpt>
      <trkpt lat="43.56437" lon="3.33805">
        <ele>147.9</ele>
        <time>2017-12-09T12:25:53Z</time>
      </trkpt>
      <trkpt lat="43.5644" lon="3.33805">
        <ele>148</ele>
        <time>2017-12-09T12:25:54Z</time>
      </trkpt>
      <trkpt lat="43.56444" lon="3.33806">
        <ele>148.2</ele>
        <time>2017-12-09T12:25:55Z</time>
      </trkpt>
      <trkpt lat="43.56447" lon="3.33807">
        <ele>148.3</ele>
        <time>2017-12-09T12:25:56Z</time>
      </trkpt>
      <trkpt lat="43.56451" lon="3.33808">
        <ele>148.5</ele>
        <time>2017-12-09T12:25:57Z</time>
      </trkpt>
      <trkpt lat="43.56454" lon="3.33808">
        <ele>148.6</ele>
        <time>2017-12-09T12:25:58Z</time>
      </trkpt>
      <trkpt lat="43.56458" lon="3.33808">
        <ele>148.8</ele>
        <time>2017-12-09T12:25:59Z</time>
      </trkpt>
      <trkpt lat="43.56461" lon="3.33807">
        <ele>149</ele>
        <time>2017-12-09T12:26:00Z</time>
      </trkpt>
      <trkpt lat="43.56464" lon="3.33805">
        <ele>149.1</ele>
        <time>2017-12-09T12:26:01Z</time>
      </trkpt>
      <trkpt lat="43.56466" lon="3.33802">
        <ele>149.2</ele>
        <time>2017-12-09T12:26:02Z</time>
      </trkpt>
      <trkpt lat="43.56469" lon="3.33799">
        <ele>149.3</ele>
        <time>2017-12-09T12:26:03Z</time>
      </trkpt>
      <trkpt lat="43.56471" lon="3.33797">
        <ele>149.4</ele>
        <time>2017-12-09T12:26:04Z</time>
      </trkpt>
      <trkpt lat="43.56474" lon="3.33795">
        <ele>149.5</ele>
        <time>2017-12-09T12:26:05Z</time>
      </trkpt>
      <trkpt lat="43.56477" lon="3.33793">
        <ele>149.6</ele>
        <time>2017-12-09T12:26:06Z</time>
      </trkpt>
      <trkpt lat="43.5648" lon="3.33791">
        <ele>149.7</ele>
        <time>2017-12-09T12:26:07Z</time>
      </trkpt>
      <trkpt lat="43.56484" lon="3.33789">
        <ele>149.9</ele>
        <time>2017-12-09T12:26:08Z</time>
      </trkpt>
      <trkpt lat="43.56487" lon="3.33787">
        <ele>150.1</ele>
        <time>2017-12-09T12:26:09Z</time>
      </trkpt>
      <trkpt lat="43.56489" lon="3.33785">
        <ele>150.2</ele>
        <time>2017-12-09T12:26:10Z</time>
      </trkpt>
      <trkpt lat="43.56492" lon="3.33782">
        <ele>150.4</ele>
        <time>2017-12-09T12:26:11Z</time>
      </trkpt>
      <trkpt lat="43.56494" lon="3.33779">
        <ele>150.5</ele>
        <time>2017-12-09T12:26:12Z</time>
      </trkpt>
      <trkpt lat="43.56497" lon="3.33776">
        <ele>150.7</ele>
        <time>2017-12-09T12:26:13Z</time>
      </trkpt>
      <trkpt lat="43.56499" lon="3.33773">
        <ele>150.9</ele>
        <time>2017-12-09T12:26:14Z</time>
      </trkpt>
      <trkpt lat="43.56502" lon="3.3377">
        <ele>151</ele>
        <time>2017-12-09T12:26:15Z</time>
      </trkpt>
      <trkpt lat="43.56504" lon="3.33767">
        <ele>151.2</ele>
        <time>2017-12-09T12:26:16Z</time>
      </trkpt>
      <trkpt lat="43.56507" lon="3.33764">
        <ele>151.3</ele>
        <time>2017-12-09T12:26:17Z</time>
      </trkpt>
      <trkpt lat="43.56509" lon="3.33761">
        <ele>151.3</ele>
        <time>2017-12-09T12:26:18Z</time>
      </trkpt>
      <trkpt lat="43.56512" lon="3.33758">
        <ele>151.4</ele>
        <time>2017-12-09T12:26:19Z</time>
      </trkpt>
      <trkpt lat="43.56514" lon="3.33755">
        <ele>151.5</ele>
        <time>2017-12-09T12:26:20Z</time>
      </trkpt>
      <trkpt lat="43.56517" lon="3.33752">
        <ele>151.6</ele>
        <time>2017-12-09T12:26:21Z</time>
      </trkpt>
      <trkpt lat="43.56519" lon="3.33749">
        <ele>151.7</ele>
        <time>2017-12-09T12:26:22Z</time>
      </trkpt>
      <trkpt lat="43.56522" lon="3.33746">
        <ele>151.9</ele>
        <time>2017-12-09T12:26:23Z</time>
      </trkpt>
      <trkpt lat="43.56524" lon="3.33743">
        <ele>152.1</ele>
        <time>2017-12-09T12:26:24Z</time>
      </trkpt>
      <trkpt lat="43.56526" lon="3.33739">
        <ele>152.3</ele>
        <time>2017-12-09T12:26:25Z</time>
      </trkpt>
      <trkpt lat="43.56527" lon="3.33735">
        <ele>152.5</ele>
        <time>2017-12-09T12:26:26Z</time>
      </trkpt>
      <trkpt lat="43.56528" lon="3.33731">
        <ele>152.7</ele>
        <time>2017-12-09T12:26:27Z</time>
      </trkpt>
      <trkpt lat="43.56529" lon="3.33726">
        <ele>152.9</ele>
        <time>2017-12-09T12:26:28Z</time>
      </trkpt>
      <trkpt lat="43.56529" lon="3.33722">
        <ele>153.1</ele>
        <time>2017-12-09T12:26:29Z</time>
      </trkpt>
      <trkpt lat="43.56528" lon="3.33717">
        <ele>153.4</ele>
        <time>2017-12-09T12:26:30Z</time>
      </trkpt>
      <trkpt lat="43.56527" lon="3.33713">
        <ele>153.6</ele>
        <time>2017-12-09T12:26:31Z</time>
      </trkpt>
      <trkpt lat="43.56526" lon="3.33708">
        <ele>153.8</ele>
        <time>2017-12-09T12:26:32Z</time>
      </trkpt>
      <trkpt lat="43.56525" lon="3.33704">
        <ele>154.1</ele>
        <time>2017-12-09T12:26:33Z</time>
      </trkpt>
      <trkpt lat="43.56524" lon="3.33699">
        <ele>154.3</ele>
        <time>2017-12-09T12:26:34Z</time>
      </trkpt>
      <trkpt lat="43.56523" lon="3.33695">
        <ele>154.4</ele>
        <time>2017-12-09T12:26:35Z</time>
      </trkpt>
      <trkpt lat="43.56522" lon="3.33692">
        <ele>154.6</ele>
        <time>2017-12-09T12:26:36Z</time>
      </trkpt>
      <trkpt lat="43.56521" lon="3.33688">
        <ele>154.8</ele>
        <time>2017-12-09T12:26:37Z</time>
      </trkpt>
      <trkpt lat="43.5652" lon="3.33684">
        <ele>155</ele>
        <time>2017-12-09T12:26:38Z</time>
      </trkpt>
      <trkpt lat="43.56519" lon="3.3368">
        <ele>155.1</ele>
        <time>2017-12-09T12:26:39Z</time>
      </trkpt>
      <trkpt lat="43.56517" lon="3.33676">
        <ele>155.3</ele>
        <time>2017-12-09T12:26:40Z</time>
      </trkpt>
      <trkpt lat="43.56516" lon="3.33672">
        <ele>155.4</ele>
        <time>2017-12-09T12:26:41Z</time>
      </trkpt>
      <trkpt lat="43.56515" lon="3.33667">
        <ele>155.5</ele>
        <time>2017-12-09T12:26:42Z</time>
      </trkpt>
      <trkpt lat="43.56514" lon="3.33663">
        <ele>155.6</ele>
        <time>2017-12-09T12:26:43Z</time>
      </trkpt>
      <trkpt lat="43.56512" lon="3.33659">
        <ele>155.7</ele>
        <time>2017-12-09T12:26:44Z</time>
      </trkpt>
      <trkpt lat="43.56511" lon="3.33655">
        <ele>155.8</ele>
        <time>2017-12-09T12:26:45Z</time>
      </trkpt>
      <trkpt lat="43.5651" lon="3.33651">
        <ele>155.8</ele>
        <time>2017-12-09T12:26:46Z</time>
      </trkpt>
      <trkpt lat="43.56509" lon="3.33647">
        <ele>155.9</ele>
        <time>2017-12-09T12:26:47Z</time>
      </trkpt>
      <trkpt lat="43.56507" lon="3.33643">
        <ele>156</ele>
        <time>2017-12-09T12:26:48Z</time>
      </trkpt>
      <trkpt lat="43.56506" lon="3.33639">
        <ele>156.2</ele>
        <time>2017-12-09T12:26:49Z</time>
      </trkpt>
      <trkpt lat="43.56504" lon="3.33635">
        <ele>156.4</ele>
        <time>2017-12-09T12:26:50Z</time>
      </trkpt>
      <trkpt lat="43.56503" lon="3.33632">
        <ele>156.5</ele>
        <time>2017-12-09T12:26:51Z</time>
      </trkpt>
      <trkpt lat="43.56502" lon="3.33628">
        <ele>156.6</ele>
        <time>2017-12-09T12:26:52Z</time>
      </trkpt>
      <trkpt lat="43.56501" lon="3.33625">
        <ele>156.8</ele>
        <time>2017-12-09T12:26:53Z</time>
      </trkpt>
      <trkpt lat="43.56499" lon="3.33621">
        <ele>156.9</ele>
        <time>2017-12-09T12:26:54Z</time>
      </trkpt>
      <trkpt lat="43.56497" lon="3.33618">
        <ele>157</ele>
        <time>2017-12-09T12:26:55Z</time>
      </trkpt>
      <trkpt lat="43.56496" lon="3.33614">
        <ele>157.1</ele>
        <time>2017-12-09T12:26:56Z</time>
      </trkpt>
      <trkpt lat="43.56494" lon="3.3361">
        <ele>157.1</ele>
        <time>2017-12-09T12:26:57Z</time>
      </trkpt>
      <trkpt lat="43.56493" lon="3.33607">
        <ele>157.2</ele>
        <time>2017-12-09T12:26:58Z</time>
      </trkpt>
      <trkpt lat="43.5649" lon="3.33602">
        <ele>157.2</ele>
        <time>2017-12-09T12:27:00Z</time>
      </trkpt>
      <trkpt lat="43.56485" lon="3.33596">
        <ele>157.4</ele>
        <time>2017-12-09T12:27:02Z</time>
      </trkpt>
      <trkpt lat="43.56483" lon="3.33593">
        <ele>157.4</ele>
        <time>2017-12-09T12:27:03Z</time>
      </trkpt>
      <trkpt lat="43.56481" lon="3.3359">
        <ele>157.5</ele>
        <time>2017-12-09T12:27:04Z</time>
      </trkpt>
      <trkpt lat="43.56479" lon="3.33587">
        <ele>157.5</ele>
        <time>2017-12-09T12:27:05Z</time>
      </trkpt>
      <trkpt lat="43.56477" lon="3.33583">
        <ele>157.6</ele>
        <time>2017-12-09T12:27:06Z</time>
      </trkpt>
      <trkpt lat="43.56476" lon="3.3358">
        <ele>157.7</ele>
        <time>2017-12-09T12:27:07Z</time>
      </trkpt>
      <trkpt lat="43.56474" lon="3.33576">
        <ele>157.7</ele>
        <time>2017-12-09T12:27:08Z</time>
      </trkpt>
      <trkpt lat="43.56473" lon="3.33572">
        <ele>157.8</ele>
        <time>2017-12-09T12:27:09Z</time>
      </trkpt>
      <trkpt lat="43.56472" lon="3.33568">
        <ele>157.8</ele>
        <time>2017-12-09T12:27:10Z</time>
      </trkpt>
      <trkpt lat="43.56471" lon="3.33564">
        <ele>157.9</ele>
        <time>2017-12-09T12:27:11Z</time>
      </trkpt>
      <trkpt lat="43.5647" lon="3.3356">
        <ele>158</ele>
        <time>2017-12-09T12:27:12Z</time>
      </trkpt>
      <trkpt lat="43.56468" lon="3.33556">
        <ele>158.1</ele>
        <time>2017-12-09T12:27:13Z</time>
      </trkpt>
      <trkpt lat="43.56467" lon="3.33552">
        <ele>158.3</ele>
        <time>2017-12-09T12:27:14Z</time>
      </trkpt>
      <trkpt lat="43.56466" lon="3.33548">
        <ele>158.4</ele>
        <time>2017-12-09T12:27:15Z</time>
      </trkpt>
      <trkpt lat="43.56464" lon="3.33544">
        <ele>158.6</ele>
        <time>2017-12-09T12:27:16Z</time>
      </trkpt>
      <trkpt lat="43.56463" lon="3.33541">
        <ele>158.7</ele>
        <time>2017-12-09T12:27:17Z</time>
      </trkpt>
      <trkpt lat="43.56462" lon="3.33537">
        <ele>158.9</ele>
        <time>2017-12-09T12:27:18Z</time>
      </trkpt>
      <trkpt lat="43.5646" lon="3.33533">
        <ele>159</ele>
        <time>2017-12-09T12:27:19Z</time>
      </trkpt>
      <trkpt lat="43.56458" lon="3.3353">
        <ele>159.1</ele>
        <time>2017-12-09T12:27:20Z</time>
      </trkpt>
      <trkpt lat="43.56457" lon="3.33527">
        <ele>159.2</ele>
        <time>2017-12-09T12:27:21Z</time>
      </trkpt>
      <trkpt lat="43.56455" lon="3.33523">
        <ele>159.2</ele>
        <time>2017-12-09T12:27:22Z</time>
      </trkpt>
      <trkpt lat="43.56453" lon="3.3352">
        <ele>159.3</ele>
        <time>2017-12-09T12:27:23Z</time>
      </trkpt>
      <trkpt lat="43.56451" lon="3.33517">
        <ele>159.4</ele>
        <time>2017-12-09T12:27:24Z</time>
      </trkpt>
      <trkpt lat="43.56448" lon="3.33511">
        <ele>159.5</ele>
        <time>2017-12-09T12:27:26Z</time>
      </trkpt>
      <trkpt lat="43.56446" lon="3.33508">
        <ele>159.5</ele>
        <time>2017-12-09T12:27:27Z</time>
      </trkpt>
      <trkpt lat="43.56444" lon="3.33505">
        <ele>159.6</ele>
        <time>2017-12-09T12:27:28Z</time>
      </trkpt>
      <trkpt lat="43.56441" lon="3.335">
        <ele>159.7</ele>
        <time>2017-12-09T12:27:30Z</time>
      </trkpt>
      <trkpt lat="43.56439" lon="3.33497">
        <ele>159.7</ele>
        <time>2017-12-09T12:27:31Z</time>
      </trkpt>
      <trkpt lat="43.56436" lon="3.33491">
        <ele>159.9</ele>
        <time>2017-12-09T12:27:33Z</time>
      </trkpt>
      <trkpt lat="43.56433" lon="3.33486">
        <ele>160</ele>
        <time>2017-12-09T12:27:35Z</time>
      </trkpt>
      <trkpt lat="43.56431" lon="3.33483">
        <ele>160</ele>
        <time>2017-12-09T12:27:36Z</time>
      </trkpt>
      <trkpt lat="43.56428" lon="3.33478">
        <ele>160</ele>
        <time>2017-12-09T12:27:37Z</time>
      </trkpt>
      <trkpt lat="43.56426" lon="3.33473">
        <ele>160</ele>
        <time>2017-12-09T12:27:38Z</time>
      </trkpt>
      <trkpt lat="43.56423" lon="3.33468">
        <ele>160</ele>
        <time>2017-12-09T12:27:39Z</time>
      </trkpt>
      <trkpt lat="43.56419" lon="3.33462">
        <ele>160</ele>
        <time>2017-12-09T12:27:40Z</time>
      </trkpt>
      <trkpt lat="43.56416" lon="3.33455">
        <ele>160</ele>
        <time>2017-12-09T12:27:41Z</time>
      </trkpt>
      <trkpt lat="43.56412" lon="3.33449">
        <ele>160</ele>
        <time>2017-12-09T12:27:42Z</time>
      </trkpt>
      <trkpt lat="43.56408" lon="3.33442">
        <ele>160</ele>
        <time>2017-12-09T12:27:43Z</time>
      </trkpt>
      <trkpt lat="43.56404" lon="3.33436">
        <ele>160</ele>
        <time>2017-12-09T12:27:44Z</time>
      </trkpt>
      <trkpt lat="43.564" lon="3.3343">
        <ele>160.1</ele>
        <time>2017-12-09T12:27:45Z</time>
      </trkpt>
      <trkpt lat="43.56396" lon="3.33425">
        <ele>160.1</ele>
        <time>2017-12-09T12:27:46Z</time>
      </trkpt>
      <trkpt lat="43.56392" lon="3.33419">
        <ele>160.1</ele>
        <time>2017-12-09T12:27:47Z</time>
      </trkpt>
      <trkpt lat="43.56388" lon="3.33413">
        <ele>160.2</ele>
        <time>2017-12-09T12:27:48Z</time>
      </trkpt>
      <trkpt lat="43.56385" lon="3.33406">
        <ele>160.2</ele>
        <time>2017-12-09T12:27:49Z</time>
      </trkpt>
      <trkpt lat="43.56381" lon="3.334">
        <ele>160.3</ele>
        <time>2017-12-09T12:27:50Z</time>
      </trkpt>
      <trkpt lat="43.56378" lon="3.33393">
        <ele>160.4</ele>
        <time>2017-12-09T12:27:51Z</time>
      </trkpt>
      <trkpt lat="43.56375" lon="3.33387">
        <ele>160.6</ele>
        <time>2017-12-09T12:27:52Z</time>
      </trkpt>
      <trkpt lat="43.56372" lon="3.33381">
        <ele>160.9</ele>
        <time>2017-12-09T12:27:53Z</time>
      </trkpt>
      <trkpt lat="43.56369" lon="3.33374">
        <ele>161.2</ele>
        <time>2017-12-09T12:27:54Z</time>
      </trkpt>
      <trkpt lat="43.56367" lon="3.33367">
        <ele>161.4</ele>
        <time>2017-12-09T12:27:55Z</time>
      </trkpt>
      <trkpt lat="43.56365" lon="3.3336">
        <ele>161.6</ele>
        <time>2017-12-09T12:27:56Z</time>
      </trkpt>
      <trkpt lat="43.56363" lon="3.33353">
        <ele>161.7</ele>
        <time>2017-12-09T12:27:57Z</time>
      </trkpt>
      <trkpt lat="43.56361" lon="3.33348">
        <ele>161.8</ele>
        <time>2017-12-09T12:27:58Z</time>
      </trkpt>
      <trkpt lat="43.5636" lon="3.33342">
        <ele>161.9</ele>
        <time>2017-12-09T12:27:59Z</time>
      </trkpt>
      <trkpt lat="43.56358" lon="3.33337">
        <ele>161.9</ele>
        <time>2017-12-09T12:28:00Z</time>
      </trkpt>
      <trkpt lat="43.56356" lon="3.33332">
        <ele>162</ele>
        <time>2017-12-09T12:28:01Z</time>
      </trkpt>
      <trkpt lat="43.56354" lon="3.33328">
        <ele>162.1</ele>
        <time>2017-12-09T12:28:02Z</time>
      </trkpt>
      <trkpt lat="43.56353" lon="3.33324">
        <ele>162.1</ele>
        <time>2017-12-09T12:28:03Z</time>
      </trkpt>
      <trkpt lat="43.56351" lon="3.33319">
        <ele>162.2</ele>
        <time>2017-12-09T12:28:04Z</time>
      </trkpt>
      <trkpt lat="43.56349" lon="3.33315">
        <ele>162.2</ele>
        <time>2017-12-09T12:28:05Z</time>
      </trkpt>
      <trkpt lat="43.56347" lon="3.3331">
        <ele>162.3</ele>
        <time>2017-12-09T12:28:06Z</time>
      </trkpt>
      <trkpt lat="43.56345" lon="3.33306">
        <ele>162.3</ele>
        <time>2017-12-09T12:28:07Z</time>
      </trkpt>
      <trkpt lat="43.56343" lon="3.33302">
        <ele>162.3</ele>
        <time>2017-12-09T12:28:08Z</time>
      </trkpt>
      <trkpt lat="43.56341" lon="3.33298">
        <ele>162.3</ele>
        <time>2017-12-09T12:28:09Z</time>
      </trkpt>
      <trkpt lat="43.56339" lon="3.33294">
        <ele>162.4</ele>
        <time>2017-12-09T12:28:10Z</time>
      </trkpt>
      <trkpt lat="43.56337" lon="3.3329">
        <ele>162.4</ele>
        <time>2017-12-09T12:28:11Z</time>
      </trkpt>
      <trkpt lat="43.56336" lon="3.33286">
        <ele>162.4</ele>
        <time>2017-12-09T12:28:12Z</time>
      </trkpt>
      <trkpt lat="43.56334" lon="3.33282">
        <ele>162.4</ele>
        <time>2017-12-09T12:28:13Z</time>
      </trkpt>
      <trkpt lat="43.56332" lon="3.33278">
        <ele>162.4</ele>
        <time>2017-12-09T12:28:14Z</time>
      </trkpt>
      <trkpt lat="43.5633" lon="3.33274">
        <ele>162.4</ele>
        <time>2017-12-09T12:28:15Z</time>
      </trkpt>
      <trkpt lat="43.56329" lon="3.33269">
        <ele>162.4</ele>
        <time>2017-12-09T12:28:16Z</time>
      </trkpt>
      <trkpt lat="43.56328" lon="3.33264">
        <ele>162.4</ele>
        <time>2017-12-09T12:28:17Z</time>
      </trkpt>
      <trkpt lat="43.56326" lon="3.3326">
        <ele>162.4</ele>
        <time>2017-12-09T12:28:18Z</time>
      </trkpt>
      <trkpt lat="43.56325" lon="3.33256">
        <ele>162.4</ele>
        <time>2017-12-09T12:28:19Z</time>
      </trkpt>
      <trkpt lat="43.56324" lon="3.33251">
        <ele>162.4</ele>
        <time>2017-12-09T12:28:20Z</time>
      </trkpt>
      <trkpt lat="43.56323" lon="3.33247">
        <ele>162.5</ele>
        <time>2017-12-09T12:28:21Z</time>
      </trkpt>
      <trkpt lat="43.56322" lon="3.33242">
        <ele>162.5</ele>
        <time>2017-12-09T12:28:22Z</time>
      </trkpt>
      <trkpt lat="43.56322" lon="3.33238">
        <ele>162.5</ele>
        <time>2017-12-09T12:28:23Z</time>
      </trkpt>
      <trkpt lat="43.56321" lon="3.33233">
        <ele>162.5</ele>
        <time>2017-12-09T12:28:24Z</time>
      </trkpt>
      <trkpt lat="43.5632" lon="3.33228">
        <ele>162.5</ele>
        <time>2017-12-09T12:28:25Z</time>
      </trkpt>
      <trkpt lat="43.56319" lon="3.33223">
        <ele>162.6</ele>
        <time>2017-12-09T12:28:26Z</time>
      </trkpt>
      <trkpt lat="43.56318" lon="3.33217">
        <ele>162.6</ele>
        <time>2017-12-09T12:28:27Z</time>
      </trkpt>
      <trkpt lat="43.56317" lon="3.33213">
        <ele>162.6</ele>
        <time>2017-12-09T12:28:28Z</time>
      </trkpt>
      <trkpt lat="43.56316" lon="3.33208">
        <ele>162.6</ele>
        <time>2017-12-09T12:28:29Z</time>
      </trkpt>
      <trkpt lat="43.56314" lon="3.33203">
        <ele>162.7</ele>
        <time>2017-12-09T12:28:30Z</time>
      </trkpt>
      <trkpt lat="43.56314" lon="3.33197">
        <ele>162.8</ele>
        <time>2017-12-09T12:28:31Z</time>
      </trkpt>
      <trkpt lat="43.56313" lon="3.33192">
        <ele>163</ele>
        <time>2017-12-09T12:28:32Z</time>
      </trkpt>
      <trkpt lat="43.56311" lon="3.33188">
        <ele>163.1</ele>
        <time>2017-12-09T12:28:33Z</time>
      </trkpt>
      <trkpt lat="43.5631" lon="3.33183">
        <ele>163.3</ele>
        <time>2017-12-09T12:28:34Z</time>
      </trkpt>
      <trkpt lat="43.5631" lon="3.33179">
        <ele>163.5</ele>
        <time>2017-12-09T12:28:35Z</time>
      </trkpt>
      <trkpt lat="43.56309" lon="3.33174">
        <ele>163.7</ele>
        <time>2017-12-09T12:28:36Z</time>
      </trkpt>
      <trkpt lat="43.56308" lon="3.33169">
        <ele>163.9</ele>
        <time>2017-12-09T12:28:37Z</time>
      </trkpt>
      <trkpt lat="43.56307" lon="3.33166">
        <ele>164</ele>
        <time>2017-12-09T12:28:38Z</time>
      </trkpt>
      <trkpt lat="43.56306" lon="3.33161">
        <ele>164.1</ele>
        <time>2017-12-09T12:28:39Z</time>
      </trkpt>
      <trkpt lat="43.56305" lon="3.33157">
        <ele>164.1</ele>
        <time>2017-12-09T12:28:40Z</time>
      </trkpt>
      <trkpt lat="43.56304" lon="3.33154">
        <ele>164.2</ele>
        <time>2017-12-09T12:28:41Z</time>
      </trkpt>
      <trkpt lat="43.56303" lon="3.3315">
        <ele>164.2</ele>
        <time>2017-12-09T12:28:42Z</time>
      </trkpt>
      <trkpt lat="43.56302" lon="3.33144">
        <ele>164.3</ele>
        <time>2017-12-09T12:28:43Z</time>
      </trkpt>
      <trkpt lat="43.56301" lon="3.33139">
        <ele>164.4</ele>
        <time>2017-12-09T12:28:44Z</time>
      </trkpt>
      <trkpt lat="43.56299" lon="3.33135">
        <ele>164.5</ele>
        <time>2017-12-09T12:28:45Z</time>
      </trkpt>
      <trkpt lat="43.56299" lon="3.33129">
        <ele>164.6</ele>
        <time>2017-12-09T12:28:46Z</time>
      </trkpt>
      <trkpt lat="43.56298" lon="3.33125">
        <ele>164.7</ele>
        <time>2017-12-09T12:28:47Z</time>
      </trkpt>
      <trkpt lat="43.56298" lon="3.33119">
        <ele>164.7</ele>
        <time>2017-12-09T12:28:48Z</time>
      </trkpt>
      <trkpt lat="43.56297" lon="3.33114">
        <ele>164.8</ele>
        <time>2017-12-09T12:28:49Z</time>
      </trkpt>
      <trkpt lat="43.56297" lon="3.33109">
        <ele>164.9</ele>
        <time>2017-12-09T12:28:50Z</time>
      </trkpt>
      <trkpt lat="43.56297" lon="3.33104">
        <ele>164.9</ele>
        <time>2017-12-09T12:28:51Z</time>
      </trkpt>
      <trkpt lat="43.56297" lon="3.33099">
        <ele>165</ele>
        <time>2017-12-09T12:28:52Z</time>
      </trkpt>
      <trkpt lat="43.56297" lon="3.33095">
        <ele>165.1</ele>
        <time>2017-12-09T12:28:53Z</time>
      </trkpt>
      <trkpt lat="43.56298" lon="3.3309">
        <ele>165.1</ele>
        <time>2017-12-09T12:28:54Z</time>
      </trkpt>
      <trkpt lat="43.56298" lon="3.33085">
        <ele>165.3</ele>
        <time>2017-12-09T12:28:55Z</time>
      </trkpt>
      <trkpt lat="43.56298" lon="3.3308">
        <ele>165.5</ele>
        <time>2017-12-09T12:28:56Z</time>
      </trkpt>
      <trkpt lat="43.56299" lon="3.33075">
        <ele>165.7</ele>
        <time>2017-12-09T12:28:57Z</time>
      </trkpt>
      <trkpt lat="43.563" lon="3.3307">
        <ele>166</ele>
        <time>2017-12-09T12:28:58Z</time>
      </trkpt>
      <trkpt lat="43.56301" lon="3.33065">
        <ele>166.2</ele>
        <time>2017-12-09T12:28:59Z</time>
      </trkpt>
      <trkpt lat="43.56301" lon="3.33061">
        <ele>166.4</ele>
        <time>2017-12-09T12:29:00Z</time>
      </trkpt>
      <trkpt lat="43.56301" lon="3.33056">
        <ele>166.5</ele>
        <time>2017-12-09T12:29:01Z</time>
      </trkpt>
      <trkpt lat="43.56302" lon="3.33052">
        <ele>166.6</ele>
        <time>2017-12-09T12:29:02Z</time>
      </trkpt>
      <trkpt lat="43.56302" lon="3.33047">
        <ele>166.7</ele>
        <time>2017-12-09T12:29:03Z</time>
      </trkpt>
      <trkpt lat="43.56303" lon="3.3304">
        <ele>166.7</ele>
        <time>2017-12-09T12:29:05Z</time>
      </trkpt>
      <trkpt lat="43.56303" lon="3.33036">
        <ele>166.8</ele>
        <time>2017-12-09T12:29:06Z</time>
      </trkpt>
      <trkpt lat="43.56303" lon="3.33031">
        <ele>166.8</ele>
        <time>2017-12-09T12:29:07Z</time>
      </trkpt>
      <trkpt lat="43.56303" lon="3.33026">
        <ele>166.8</ele>
        <time>2017-12-09T12:29:08Z</time>
      </trkpt>
      <trkpt lat="43.56303" lon="3.33021">
        <ele>166.8</ele>
        <time>2017-12-09T12:29:09Z</time>
      </trkpt>
      <trkpt lat="43.56303" lon="3.33016">
        <ele>166.9</ele>
        <time>2017-12-09T12:29:10Z</time>
      </trkpt>
      <trkpt lat="43.56303" lon="3.3301">
        <ele>166.9</ele>
        <time>2017-12-09T12:29:11Z</time>
      </trkpt>
      <trkpt lat="43.56302" lon="3.33005">
        <ele>167</ele>
        <time>2017-12-09T12:29:12Z</time>
      </trkpt>
      <trkpt lat="43.56299" lon="3.32999">
        <ele>167.1</ele>
        <time>2017-12-09T12:29:13Z</time>
      </trkpt>
      <trkpt lat="43.56296" lon="3.32993">
        <ele>167.3</ele>
        <time>2017-12-09T12:29:14Z</time>
      </trkpt>
      <trkpt lat="43.56292" lon="3.32989">
        <ele>167.5</ele>
        <time>2017-12-09T12:29:15Z</time>
      </trkpt>
      <trkpt lat="43.56289" lon="3.32985">
        <ele>167.8</ele>
        <time>2017-12-09T12:29:16Z</time>
      </trkpt>
      <trkpt lat="43.56286" lon="3.32982">
        <ele>168.1</ele>
        <time>2017-12-09T12:29:17Z</time>
      </trkpt>
      <trkpt lat="43.56283" lon="3.32979">
        <ele>168.5</ele>
        <time>2017-12-09T12:29:18Z</time>
      </trkpt>
      <trkpt lat="43.5628" lon="3.32977">
        <ele>168.8</ele>
        <time>2017-12-09T12:29:19Z</time>
      </trkpt>
      <trkpt lat="43.56276" lon="3.32975">
        <ele>169.2</ele>
        <time>2017-12-09T12:29:20Z</time>
      </trkpt>
      <trkpt lat="43.56272" lon="3.32974">
        <ele>169.5</ele>
        <time>2017-12-09T12:29:21Z</time>
      </trkpt>
      <trkpt lat="43.56268" lon="3.32973">
        <ele>169.9</ele>
        <time>2017-12-09T12:29:22Z</time>
      </trkpt>
      <trkpt lat="43.56265" lon="3.3297">
        <ele>170.4</ele>
        <time>2017-12-09T12:29:23Z</time>
      </trkpt>
      <trkpt lat="43.56263" lon="3.32966">
        <ele>170.9</ele>
        <time>2017-12-09T12:29:24Z</time>
      </trkpt>
      <trkpt lat="43.56262" lon="3.32961">
        <ele>171</ele>
        <time>2017-12-09T12:29:25Z</time>
      </trkpt>
      <trkpt lat="43.56262" lon="3.32956">
        <ele>171</ele>
        <time>2017-12-09T12:29:26Z</time>
      </trkpt>
      <trkpt lat="43.56262" lon="3.32951">
        <ele>171.1</ele>
        <time>2017-12-09T12:29:27Z</time>
      </trkpt>
      <trkpt lat="43.56262" lon="3.32947">
        <ele>171.1</ele>
        <time>2017-12-09T12:29:28Z</time>
      </trkpt>
      <trkpt lat="43.56263" lon="3.32943">
        <ele>171.2</ele>
        <time>2017-12-09T12:29:29Z</time>
      </trkpt>
      <trkpt lat="43.56263" lon="3.32938">
        <ele>171.3</ele>
        <time>2017-12-09T12:29:30Z</time>
      </trkpt>
      <trkpt lat="43.56263" lon="3.32933">
        <ele>171.5</ele>
        <time>2017-12-09T12:29:31Z</time>
      </trkpt>
      <trkpt lat="43.56263" lon="3.32928">
        <ele>171.6</ele>
        <time>2017-12-09T12:29:32Z</time>
      </trkpt>
      <trkpt lat="43.56263" lon="3.32924">
        <ele>171.9</ele>
        <time>2017-12-09T12:29:33Z</time>
      </trkpt>
      <trkpt lat="43.56263" lon="3.3292">
        <ele>172.1</ele>
        <time>2017-12-09T12:29:34Z</time>
      </trkpt>
      <trkpt lat="43.56263" lon="3.32915">
        <ele>172.3</ele>
        <time>2017-12-09T12:29:35Z</time>
      </trkpt>
      <trkpt lat="43.56263" lon="3.32911">
        <ele>172.6</ele>
        <time>2017-12-09T12:29:36Z</time>
      </trkpt>
      <trkpt lat="43.56262" lon="3.32906">
        <ele>172.7</ele>
        <time>2017-12-09T12:29:37Z</time>
      </trkpt>
      <trkpt lat="43.56262" lon="3.32901">
        <ele>172.9</ele>
        <time>2017-12-09T12:29:38Z</time>
      </trkpt>
      <trkpt lat="43.56262" lon="3.32897">
        <ele>173</ele>
        <time>2017-12-09T12:29:39Z</time>
      </trkpt>
      <trkpt lat="43.56262" lon="3.32893">
        <ele>173.1</ele>
        <time>2017-12-09T12:29:40Z</time>
      </trkpt>
      <trkpt lat="43.56262" lon="3.32888">
        <ele>173.3</ele>
        <time>2017-12-09T12:29:41Z</time>
      </trkpt>
      <trkpt lat="43.56261" lon="3.32884">
        <ele>173.4</ele>
        <time>2017-12-09T12:29:42Z</time>
      </trkpt>
      <trkpt lat="43.56261" lon="3.3288">
        <ele>173.6</ele>
        <time>2017-12-09T12:29:43Z</time>
      </trkpt>
      <trkpt lat="43.5626" lon="3.32876">
        <ele>173.8</ele>
        <time>2017-12-09T12:29:44Z</time>
      </trkpt>
      <trkpt lat="43.5626" lon="3.32872">
        <ele>174.1</ele>
        <time>2017-12-09T12:29:45Z</time>
      </trkpt>
      <trkpt lat="43.5626" lon="3.32867">
        <ele>174.3</ele>
        <time>2017-12-09T12:29:46Z</time>
      </trkpt>
      <trkpt lat="43.56259" lon="3.32863">
        <ele>174.5</ele>
        <time>2017-12-09T12:29:47Z</time>
      </trkpt>
      <trkpt lat="43.56259" lon="3.32858">
        <ele>174.6</ele>
        <time>2017-12-09T12:29:48Z</time>
      </trkpt>
      <trkpt lat="43.5626" lon="3.32854">
        <ele>174.7</ele>
        <time>2017-12-09T12:29:49Z</time>
      </trkpt>
      <trkpt lat="43.5626" lon="3.3285">
        <ele>174.7</ele>
        <time>2017-12-09T12:29:50Z</time>
      </trkpt>
      <trkpt lat="43.5626" lon="3.32846">
        <ele>174.8</ele>
        <time>2017-12-09T12:29:51Z</time>
      </trkpt>
      <trkpt lat="43.5626" lon="3.32842">
        <ele>174.9</ele>
        <time>2017-12-09T12:29:52Z</time>
      </trkpt>
      <trkpt lat="43.56261" lon="3.32838">
        <ele>174.9</ele>
        <time>2017-12-09T12:29:53Z</time>
      </trkpt>
      <trkpt lat="43.56261" lon="3.32833">
        <ele>175</ele>
        <time>2017-12-09T12:29:54Z</time>
      </trkpt>
      <trkpt lat="43.56261" lon="3.32829">
        <ele>175.1</ele>
        <time>2017-12-09T12:29:55Z</time>
      </trkpt>
      <trkpt lat="43.5626" lon="3.32824">
        <ele>175.1</ele>
        <time>2017-12-09T12:29:56Z</time>
      </trkpt>
      <trkpt lat="43.5626" lon="3.3282">
        <ele>175.2</ele>
        <time>2017-12-09T12:29:57Z</time>
      </trkpt>
      <trkpt lat="43.5626" lon="3.32815">
        <ele>175.3</ele>
        <time>2017-12-09T12:29:58Z</time>
      </trkpt>
      <trkpt lat="43.56261" lon="3.3281">
        <ele>175.4</ele>
        <time>2017-12-09T12:29:59Z</time>
      </trkpt>
      <trkpt lat="43.56261" lon="3.32806">
        <ele>175.5</ele>
        <time>2017-12-09T12:30:00Z</time>
      </trkpt>
      <trkpt lat="43.56261" lon="3.32801">
        <ele>175.6</ele>
        <time>2017-12-09T12:30:01Z</time>
      </trkpt>
      <trkpt lat="43.56262" lon="3.32797">
        <ele>175.7</ele>
        <time>2017-12-09T12:30:02Z</time>
      </trkpt>
      <trkpt lat="43.56264" lon="3.32793">
        <ele>175.9</ele>
        <time>2017-12-09T12:30:03Z</time>
      </trkpt>
      <trkpt lat="43.56267" lon="3.3279">
        <ele>176.2</ele>
        <time>2017-12-09T12:30:04Z</time>
      </trkpt>
      <trkpt lat="43.5627" lon="3.32787">
        <ele>176.4</ele>
        <time>2017-12-09T12:30:05Z</time>
      </trkpt>
      <trkpt lat="43.56273" lon="3.32783">
        <ele>176.6</ele>
        <time>2017-12-09T12:30:06Z</time>
      </trkpt>
      <trkpt lat="43.56274" lon="3.32779">
        <ele>176.8</ele>
        <time>2017-12-09T12:30:07Z</time>
      </trkpt>
      <trkpt lat="43.56275" lon="3.32776">
        <ele>176.9</ele>
        <time>2017-12-09T12:30:08Z</time>
      </trkpt>
      <trkpt lat="43.56276" lon="3.32772">
        <ele>176.9</ele>
        <time>2017-12-09T12:30:09Z</time>
      </trkpt>
      <trkpt lat="43.56276" lon="3.32767">
        <ele>177</ele>
        <time>2017-12-09T12:30:10Z</time>
      </trkpt>
      <trkpt lat="43.56276" lon="3.32763">
        <ele>177.1</ele>
        <time>2017-12-09T12:30:11Z</time>
      </trkpt>
      <trkpt lat="43.56275" lon="3.32758">
        <ele>177.2</ele>
        <time>2017-12-09T12:30:12Z</time>
      </trkpt>
      <trkpt lat="43.56275" lon="3.32754">
        <ele>177.2</ele>
        <time>2017-12-09T12:30:13Z</time>
      </trkpt>
      <trkpt lat="43.56275" lon="3.3275">
        <ele>177.3</ele>
        <time>2017-12-09T12:30:14Z</time>
      </trkpt>
      <trkpt lat="43.56274" lon="3.32745">
        <ele>177.5</ele>
        <time>2017-12-09T12:30:15Z</time>
      </trkpt>
      <trkpt lat="43.56274" lon="3.3274">
        <ele>177.6</ele>
        <time>2017-12-09T12:30:16Z</time>
      </trkpt>
      <trkpt lat="43.56273" lon="3.32735">
        <ele>177.8</ele>
        <time>2017-12-09T12:30:17Z</time>
      </trkpt>
      <trkpt lat="43.56273" lon="3.32731">
        <ele>178.1</ele>
        <time>2017-12-09T12:30:18Z</time>
      </trkpt>
      <trkpt lat="43.56273" lon="3.32726">
        <ele>178.3</ele>
        <time>2017-12-09T12:30:19Z</time>
      </trkpt>
      <trkpt lat="43.56272" lon="3.32722">
        <ele>178.6</ele>
        <time>2017-12-09T12:30:20Z</time>
      </trkpt>
      <trkpt lat="43.56272" lon="3.32717">
        <ele>178.7</ele>
        <time>2017-12-09T12:30:21Z</time>
      </trkpt>
      <trkpt lat="43.56272" lon="3.32712">
        <ele>178.8</ele>
        <time>2017-12-09T12:30:22Z</time>
      </trkpt>
      <trkpt lat="43.56272" lon="3.32708">
        <ele>178.9</ele>
        <time>2017-12-09T12:30:23Z</time>
      </trkpt>
      <trkpt lat="43.56271" lon="3.32703">
        <ele>179</ele>
        <time>2017-12-09T12:30:24Z</time>
      </trkpt>
      <trkpt lat="43.56271" lon="3.32699">
        <ele>179.1</ele>
        <time>2017-12-09T12:30:25Z</time>
      </trkpt>
      <trkpt lat="43.56271" lon="3.32695">
        <ele>179.2</ele>
        <time>2017-12-09T12:30:26Z</time>
      </trkpt>
      <trkpt lat="43.56271" lon="3.32691">
        <ele>179.3</ele>
        <time>2017-12-09T12:30:27Z</time>
      </trkpt>
      <trkpt lat="43.56271" lon="3.32687">
        <ele>179.5</ele>
        <time>2017-12-09T12:30:28Z</time>
      </trkpt>
      <trkpt lat="43.5627" lon="3.32683">
        <ele>179.6</ele>
        <time>2017-12-09T12:30:29Z</time>
      </trkpt>
      <trkpt lat="43.5627" lon="3.32678">
        <ele>179.9</ele>
        <time>2017-12-09T12:30:30Z</time>
      </trkpt>
      <trkpt lat="43.5627" lon="3.32674">
        <ele>180.1</ele>
        <time>2017-12-09T12:30:31Z</time>
      </trkpt>
      <trkpt lat="43.56269" lon="3.3267">
        <ele>180.4</ele>
        <time>2017-12-09T12:30:32Z</time>
      </trkpt>
      <trkpt lat="43.56269" lon="3.32666">
        <ele>180.8</ele>
        <time>2017-12-09T12:30:33Z</time>
      </trkpt>
      <trkpt lat="43.56269" lon="3.32661">
        <ele>181</ele>
        <time>2017-12-09T12:30:34Z</time>
      </trkpt>
      <trkpt lat="43.56269" lon="3.32657">
        <ele>181.1</ele>
        <time>2017-12-09T12:30:35Z</time>
      </trkpt>
      <trkpt lat="43.56269" lon="3.32653">
        <ele>181.2</ele>
        <time>2017-12-09T12:30:36Z</time>
      </trkpt>
      <trkpt lat="43.56269" lon="3.32649">
        <ele>181.3</ele>
        <time>2017-12-09T12:30:37Z</time>
      </trkpt>
      <trkpt lat="43.56268" lon="3.32646">
        <ele>181.4</ele>
        <time>2017-12-09T12:30:38Z</time>
      </trkpt>
      <trkpt lat="43.56268" lon="3.32642">
        <ele>181.5</ele>
        <time>2017-12-09T12:30:39Z</time>
      </trkpt>
      <trkpt lat="43.56268" lon="3.32638">
        <ele>181.6</ele>
        <time>2017-12-09T12:30:40Z</time>
      </trkpt>
      <trkpt lat="43.56268" lon="3.32633">
        <ele>181.8</ele>
        <time>2017-12-09T12:30:41Z</time>
      </trkpt>
      <trkpt lat="43.56268" lon="3.32629">
        <ele>182</ele>
        <time>2017-12-09T12:30:42Z</time>
      </trkpt>
      <trkpt lat="43.56268" lon="3.32624">
        <ele>182.4</ele>
        <time>2017-12-09T12:30:43Z</time>
      </trkpt>
      <trkpt lat="43.56267" lon="3.32619">
        <ele>182.7</ele>
        <time>2017-12-09T12:30:44Z</time>
      </trkpt>
      <trkpt lat="43.56267" lon="3.32612">
        <ele>183</ele>
        <time>2017-12-09T12:30:46Z</time>
      </trkpt>
      <trkpt lat="43.56267" lon="3.32605">
        <ele>183.3</ele>
        <time>2017-12-09T12:30:48Z</time>
      </trkpt>
      <trkpt lat="43.56266" lon="3.32597">
        <ele>183.7</ele>
        <time>2017-12-09T12:30:50Z</time>
      </trkpt>
      <trkpt lat="43.56265" lon="3.32593">
        <ele>184</ele>
        <time>2017-12-09T12:30:51Z</time>
      </trkpt>
      <trkpt lat="43.56265" lon="3.32589">
        <ele>184.2</ele>
        <time>2017-12-09T12:30:52Z</time>
      </trkpt>
      <trkpt lat="43.56264" lon="3.32585">
        <ele>184.4</ele>
        <time>2017-12-09T12:30:53Z</time>
      </trkpt>
      <trkpt lat="43.56264" lon="3.32581">
        <ele>184.5</ele>
        <time>2017-12-09T12:30:54Z</time>
      </trkpt>
      <trkpt lat="43.56263" lon="3.32574">
        <ele>184.7</ele>
        <time>2017-12-09T12:30:56Z</time>
      </trkpt>
      <trkpt lat="43.56262" lon="3.32567">
        <ele>184.8</ele>
        <time>2017-12-09T12:30:58Z</time>
      </trkpt>
      <trkpt lat="43.56262" lon="3.32563">
        <ele>184.8</ele>
        <time>2017-12-09T12:30:59Z</time>
      </trkpt>
      <trkpt lat="43.56261" lon="3.32559">
        <ele>184.9</ele>
        <time>2017-12-09T12:31:00Z</time>
      </trkpt>
      <trkpt lat="43.56261" lon="3.32555">
        <ele>184.9</ele>
        <time>2017-12-09T12:31:01Z</time>
      </trkpt>
      <trkpt lat="43.56261" lon="3.32551">
        <ele>185</ele>
        <time>2017-12-09T12:31:02Z</time>
      </trkpt>
      <trkpt lat="43.56261" lon="3.32547">
        <ele>185</ele>
        <time>2017-12-09T12:31:03Z</time>
      </trkpt>
      <trkpt lat="43.56261" lon="3.32542">
        <ele>185.1</ele>
        <time>2017-12-09T12:31:04Z</time>
      </trkpt>
      <trkpt lat="43.56262" lon="3.32537">
        <ele>185.1</ele>
        <time>2017-12-09T12:31:05Z</time>
      </trkpt>
      <trkpt lat="43.56263" lon="3.32532">
        <ele>185.2</ele>
        <time>2017-12-09T12:31:06Z</time>
      </trkpt>
      <trkpt lat="43.56263" lon="3.32525">
        <ele>185.4</ele>
        <time>2017-12-09T12:31:08Z</time>
      </trkpt>
      <trkpt lat="43.56263" lon="3.32521">
        <ele>185.5</ele>
        <time>2017-12-09T12:31:09Z</time>
      </trkpt>
      <trkpt lat="43.56264" lon="3.32517">
        <ele>185.6</ele>
        <time>2017-12-09T12:31:10Z</time>
      </trkpt>
      <trkpt lat="43.56264" lon="3.32513">
        <ele>185.8</ele>
        <time>2017-12-09T12:31:11Z</time>
      </trkpt>
      <trkpt lat="43.56265" lon="3.32509">
        <ele>186</ele>
        <time>2017-12-09T12:31:12Z</time>
      </trkpt>
      <trkpt lat="43.56265" lon="3.32505">
        <ele>186.3</ele>
        <time>2017-12-09T12:31:13Z</time>
      </trkpt>
      <trkpt lat="43.56265" lon="3.32501">
        <ele>186.4</ele>
        <time>2017-12-09T12:31:14Z</time>
      </trkpt>
      <trkpt lat="43.56265" lon="3.32497">
        <ele>186.5</ele>
        <time>2017-12-09T12:31:15Z</time>
      </trkpt>
      <trkpt lat="43.56265" lon="3.32494">
        <ele>186.5</ele>
        <time>2017-12-09T12:31:16Z</time>
      </trkpt>
      <trkpt lat="43.56266" lon="3.32486">
        <ele>186.6</ele>
        <time>2017-12-09T12:31:18Z</time>
      </trkpt>
      <trkpt lat="43.56266" lon="3.32482">
        <ele>186.7</ele>
        <time>2017-12-09T12:31:19Z</time>
      </trkpt>
      <trkpt lat="43.56265" lon="3.32479">
        <ele>186.7</ele>
        <time>2017-12-09T12:31:20Z</time>
      </trkpt>
      <trkpt lat="43.56265" lon="3.32475">
        <ele>186.8</ele>
        <time>2017-12-09T12:31:21Z</time>
      </trkpt>
      <trkpt lat="43.56265" lon="3.32471">
        <ele>186.8</ele>
        <time>2017-12-09T12:31:22Z</time>
      </trkpt>
      <trkpt lat="43.56266" lon="3.32467">
        <ele>186.9</ele>
        <time>2017-12-09T12:31:23Z</time>
      </trkpt>
      <trkpt lat="43.56267" lon="3.3246">
        <ele>187</ele>
        <time>2017-12-09T12:31:25Z</time>
      </trkpt>
      <trkpt lat="43.56267" lon="3.32455">
        <ele>187.1</ele>
        <time>2017-12-09T12:31:26Z</time>
      </trkpt>
      <trkpt lat="43.56267" lon="3.32451">
        <ele>187.1</ele>
        <time>2017-12-09T12:31:27Z</time>
      </trkpt>
      <trkpt lat="43.56267" lon="3.32447">
        <ele>187.2</ele>
        <time>2017-12-09T12:31:28Z</time>
      </trkpt>
      <trkpt lat="43.56267" lon="3.32442">
        <ele>187.4</ele>
        <time>2017-12-09T12:31:29Z</time>
      </trkpt>
      <trkpt lat="43.56267" lon="3.32438">
        <ele>187.5</ele>
        <time>2017-12-09T12:31:30Z</time>
      </trkpt>
      <trkpt lat="43.56268" lon="3.32434">
        <ele>187.7</ele>
        <time>2017-12-09T12:31:31Z</time>
      </trkpt>
      <trkpt lat="43.56269" lon="3.3243">
        <ele>188</ele>
        <time>2017-12-09T12:31:32Z</time>
      </trkpt>
      <trkpt lat="43.5627" lon="3.32425">
        <ele>188.2</ele>
        <time>2017-12-09T12:31:33Z</time>
      </trkpt>
      <trkpt lat="43.56271" lon="3.32421">
        <ele>188.4</ele>
        <time>2017-12-09T12:31:34Z</time>
      </trkpt>
      <trkpt lat="43.56272" lon="3.32416">
        <ele>188.5</ele>
        <time>2017-12-09T12:31:35Z</time>
      </trkpt>
      <trkpt lat="43.56273" lon="3.32413">
        <ele>188.6</ele>
        <time>2017-12-09T12:31:36Z</time>
      </trkpt>
      <trkpt lat="43.56274" lon="3.32409">
        <ele>188.7</ele>
        <time>2017-12-09T12:31:37Z</time>
      </trkpt>
      <trkpt lat="43.56275" lon="3.32405">
        <ele>188.8</ele>
        <time>2017-12-09T12:31:38Z</time>
      </trkpt>
      <trkpt lat="43.56276" lon="3.32401">
        <ele>188.8</ele>
        <time>2017-12-09T12:31:39Z</time>
      </trkpt>
      <trkpt lat="43.56277" lon="3.32398">
        <ele>188.9</ele>
        <time>2017-12-09T12:31:40Z</time>
      </trkpt>
      <trkpt lat="43.56278" lon="3.32394">
        <ele>189</ele>
        <time>2017-12-09T12:31:41Z</time>
      </trkpt>
      <trkpt lat="43.56278" lon="3.3239">
        <ele>189.2</ele>
        <time>2017-12-09T12:31:42Z</time>
      </trkpt>
      <trkpt lat="43.56279" lon="3.32387">
        <ele>189.5</ele>
        <time>2017-12-09T12:31:43Z</time>
      </trkpt>
      <trkpt lat="43.5628" lon="3.32379">
        <ele>190</ele>
        <time>2017-12-09T12:31:45Z</time>
      </trkpt>
      <trkpt lat="43.5628" lon="3.32373">
        <ele>190.4</ele>
        <time>2017-12-09T12:31:47Z</time>
      </trkpt>
      <trkpt lat="43.56277" lon="3.32368">
        <ele>190.7</ele>
        <time>2017-12-09T12:31:49Z</time>
      </trkpt>
      <trkpt lat="43.56272" lon="3.32368">
        <ele>191</ele>
        <time>2017-12-09T12:31:51Z</time>
      </trkpt>
      <trkpt lat="43.56269" lon="3.32372">
        <ele>191.1</ele>
        <time>2017-12-09T12:31:53Z</time>
      </trkpt>
      <trkpt lat="43.56267" lon="3.32378">
        <ele>191.2</ele>
        <time>2017-12-09T12:31:55Z</time>
      </trkpt>
      <trkpt lat="43.56265" lon="3.32385">
        <ele>191.3</ele>
        <time>2017-12-09T12:31:57Z</time>
      </trkpt>
      <trkpt lat="43.56263" lon="3.32388">
        <ele>191.4</ele>
        <time>2017-12-09T12:31:58Z</time>
      </trkpt>
      <trkpt lat="43.56262" lon="3.32392">
        <ele>191.5</ele>
        <time>2017-12-09T12:31:59Z</time>
      </trkpt>
      <trkpt lat="43.56261" lon="3.32396">
        <ele>191.7</ele>
        <time>2017-12-09T12:32:00Z</time>
      </trkpt>
      <trkpt lat="43.56259" lon="3.324">
        <ele>191.8</ele>
        <time>2017-12-09T12:32:01Z</time>
      </trkpt>
      <trkpt lat="43.56258" lon="3.32403">
        <ele>192</ele>
        <time>2017-12-09T12:32:02Z</time>
      </trkpt>
      <trkpt lat="43.56257" lon="3.32407">
        <ele>192.2</ele>
        <time>2017-12-09T12:32:03Z</time>
      </trkpt>
      <trkpt lat="43.56255" lon="3.32411">
        <ele>192.5</ele>
        <time>2017-12-09T12:32:04Z</time>
      </trkpt>
      <trkpt lat="43.56254" lon="3.32415">
        <ele>192.7</ele>
        <time>2017-12-09T12:32:05Z</time>
      </trkpt>
      <trkpt lat="43.56253" lon="3.32419">
        <ele>193</ele>
        <time>2017-12-09T12:32:06Z</time>
      </trkpt>
      <trkpt lat="43.56252" lon="3.32423">
        <ele>193.3</ele>
        <time>2017-12-09T12:32:07Z</time>
      </trkpt>
      <trkpt lat="43.5625" lon="3.32427">
        <ele>193.6</ele>
        <time>2017-12-09T12:32:08Z</time>
      </trkpt>
      <trkpt lat="43.56249" lon="3.32435">
        <ele>194.1</ele>
        <time>2017-12-09T12:32:10Z</time>
      </trkpt>
      <trkpt lat="43.56248" lon="3.32439">
        <ele>194.4</ele>
        <time>2017-12-09T12:32:11Z</time>
      </trkpt>
      <trkpt lat="43.56247" lon="3.32444">
        <ele>194.7</ele>
        <time>2017-12-09T12:32:12Z</time>
      </trkpt>
      <trkpt lat="43.56246" lon="3.32452">
        <ele>195.2</ele>
        <time>2017-12-09T12:32:14Z</time>
      </trkpt>
      <trkpt lat="43.56246" lon="3.32455">
        <ele>195.4</ele>
        <time>2017-12-09T12:32:15Z</time>
      </trkpt>
      <trkpt lat="43.56245" lon="3.32459">
        <ele>195.6</ele>
        <time>2017-12-09T12:32:16Z</time>
      </trkpt>
      <trkpt lat="43.56244" lon="3.32466">
        <ele>195.9</ele>
        <time>2017-12-09T12:32:18Z</time>
      </trkpt>
      <trkpt lat="43.56241" lon="3.32473">
        <ele>196.3</ele>
        <time>2017-12-09T12:32:20Z</time>
      </trkpt>
      <trkpt lat="43.56239" lon="3.32479">
        <ele>196.6</ele>
        <time>2017-12-09T12:32:22Z</time>
      </trkpt>
      <trkpt lat="43.56237" lon="3.32483">
        <ele>196.8</ele>
        <time>2017-12-09T12:32:23Z</time>
      </trkpt>
      <trkpt lat="43.56236" lon="3.32487">
        <ele>197.1</ele>
        <time>2017-12-09T12:32:24Z</time>
      </trkpt>
      <trkpt lat="43.56235" lon="3.32491">
        <ele>197.3</ele>
        <time>2017-12-09T12:32:25Z</time>
      </trkpt>
      <trkpt lat="43.56233" lon="3.32497">
        <ele>197.6</ele>
        <time>2017-12-09T12:32:27Z</time>
      </trkpt>
      <trkpt lat="43.56232" lon="3.32503">
        <ele>198</ele>
        <time>2017-12-09T12:32:29Z</time>
      </trkpt>
      <trkpt lat="43.5623" lon="3.32509">
        <ele>198.4</ele>
        <time>2017-12-09T12:32:31Z</time>
      </trkpt>
      <trkpt lat="43.56229" lon="3.32513">
        <ele>198.7</ele>
        <time>2017-12-09T12:32:32Z</time>
      </trkpt>
      <trkpt lat="43.56227" lon="3.32516">
        <ele>199</ele>
        <time>2017-12-09T12:32:33Z</time>
      </trkpt>
      <trkpt lat="43.56225" lon="3.32519">
        <ele>199.3</ele>
        <time>2017-12-09T12:32:34Z</time>
      </trkpt>
      <trkpt lat="43.56223" lon="3.32522">
        <ele>199.7</ele>
        <time>2017-12-09T12:32:35Z</time>
      </trkpt>
      <trkpt lat="43.56221" lon="3.32525">
        <ele>200.1</ele>
        <time>2017-12-09T12:32:36Z</time>
      </trkpt>
      <trkpt lat="43.56217" lon="3.3253">
        <ele>200.9</ele>
        <time>2017-12-09T12:32:38Z</time>
      </trkpt>
      <trkpt lat="43.56212" lon="3.3253">
        <ele>201.6</ele>
        <time>2017-12-09T12:32:40Z</time>
      </trkpt>
      <trkpt lat="43.56209" lon="3.32527">
        <ele>201.8</ele>
        <time>2017-12-09T12:32:41Z</time>
      </trkpt>
      <trkpt lat="43.56208" lon="3.32524">
        <ele>202.1</ele>
        <time>2017-12-09T12:32:42Z</time>
      </trkpt>
      <trkpt lat="43.56208" lon="3.3252">
        <ele>202.4</ele>
        <time>2017-12-09T12:32:43Z</time>
      </trkpt>
      <trkpt lat="43.5621" lon="3.32514">
        <ele>202.7</ele>
        <time>2017-12-09T12:32:45Z</time>
      </trkpt>
      <trkpt lat="43.56212" lon="3.32509">
        <ele>203.1</ele>
        <time>2017-12-09T12:32:47Z</time>
      </trkpt>
      <trkpt lat="43.56213" lon="3.32504">
        <ele>203.4</ele>
        <time>2017-12-09T12:32:49Z</time>
      </trkpt>
      <trkpt lat="43.56215" lon="3.32498">
        <ele>203.7</ele>
        <time>2017-12-09T12:32:51Z</time>
      </trkpt>
      <trkpt lat="43.56217" lon="3.32495">
        <ele>203.9</ele>
        <time>2017-12-09T12:32:52Z</time>
      </trkpt>
      <trkpt lat="43.56218" lon="3.32489">
        <ele>204.2</ele>
        <time>2017-12-09T12:32:54Z</time>
      </trkpt>
      <trkpt lat="43.56219" lon="3.32483">
        <ele>204.5</ele>
        <time>2017-12-09T12:32:56Z</time>
      </trkpt>
      <trkpt lat="43.5622" lon="3.32477">
        <ele>204.8</ele>
        <time>2017-12-09T12:32:58Z</time>
      </trkpt>
      <trkpt lat="43.56221" lon="3.3247">
        <ele>205.1</ele>
        <time>2017-12-09T12:33:00Z</time>
      </trkpt>
      <trkpt lat="43.56221" lon="3.32463">
        <ele>205.4</ele>
        <time>2017-12-09T12:33:02Z</time>
      </trkpt>
      <trkpt lat="43.56221" lon="3.32456">
        <ele>205.6</ele>
        <time>2017-12-09T12:33:04Z</time>
      </trkpt>
      <trkpt lat="43.5622" lon="3.3245">
        <ele>205.8</ele>
        <time>2017-12-09T12:33:06Z</time>
      </trkpt>
      <trkpt lat="43.5622" lon="3.32443">
        <ele>206</ele>
        <time>2017-12-09T12:33:08Z</time>
      </trkpt>
      <trkpt lat="43.5622" lon="3.32436">
        <ele>206.2</ele>
        <time>2017-12-09T12:33:10Z</time>
      </trkpt>
      <trkpt lat="43.56219" lon="3.32432">
        <ele>206.3</ele>
        <time>2017-12-09T12:33:11Z</time>
      </trkpt>
      <trkpt lat="43.56219" lon="3.32426">
        <ele>206.5</ele>
        <time>2017-12-09T12:33:13Z</time>
      </trkpt>
      <trkpt lat="43.56219" lon="3.32419">
        <ele>206.7</ele>
        <time>2017-12-09T12:33:15Z</time>
      </trkpt>
      <trkpt lat="43.56219" lon="3.32413">
        <ele>207</ele>
        <time>2017-12-09T12:33:17Z</time>
      </trkpt>
      <trkpt lat="43.56219" lon="3.32406">
        <ele>207.4</ele>
        <time>2017-12-09T12:33:19Z</time>
      </trkpt>
      <trkpt lat="43.56219" lon="3.32399">
        <ele>207.9</ele>
        <time>2017-12-09T12:33:21Z</time>
      </trkpt>
      <trkpt lat="43.5622" lon="3.32392">
        <ele>208.4</ele>
        <time>2017-12-09T12:33:23Z</time>
      </trkpt>
      <trkpt lat="43.5622" lon="3.32385">
        <ele>209</ele>
        <time>2017-12-09T12:33:25Z</time>
      </trkpt>
      <trkpt lat="43.56219" lon="3.32378">
        <ele>209.7</ele>
        <time>2017-12-09T12:33:27Z</time>
      </trkpt>
      <trkpt lat="43.56216" lon="3.32374">
        <ele>210.3</ele>
        <time>2017-12-09T12:33:29Z</time>
      </trkpt>
      <trkpt lat="43.56211" lon="3.32374">
        <ele>211</ele>
        <time>2017-12-09T12:33:31Z</time>
      </trkpt>
      <trkpt lat="43.56209" lon="3.3238">
        <ele>211.7</ele>
        <time>2017-12-09T12:33:33Z</time>
      </trkpt>
      <trkpt lat="43.56208" lon="3.32386">
        <ele>212.3</ele>
        <time>2017-12-09T12:33:35Z</time>
      </trkpt>
      <trkpt lat="43.56208" lon="3.32393">
        <ele>212.8</ele>
        <time>2017-12-09T12:33:37Z</time>
      </trkpt>
      <trkpt lat="43.56208" lon="3.32399">
        <ele>213.2</ele>
        <time>2017-12-09T12:33:39Z</time>
      </trkpt>
      <trkpt lat="43.56206" lon="3.32406">
        <ele>213.7</ele>
        <time>2017-12-09T12:33:41Z</time>
      </trkpt>
      <trkpt lat="43.56205" lon="3.3241">
        <ele>213.9</ele>
        <time>2017-12-09T12:33:42Z</time>
      </trkpt>
      <trkpt lat="43.56204" lon="3.32414">
        <ele>214.2</ele>
        <time>2017-12-09T12:33:43Z</time>
      </trkpt>
      <trkpt lat="43.56203" lon="3.32417">
        <ele>214.4</ele>
        <time>2017-12-09T12:33:44Z</time>
      </trkpt>
      <trkpt lat="43.56201" lon="3.32424">
        <ele>214.7</ele>
        <time>2017-12-09T12:33:46Z</time>
      </trkpt>
      <trkpt lat="43.56199" lon="3.3243">
        <ele>215.1</ele>
        <time>2017-12-09T12:33:48Z</time>
      </trkpt>
      <trkpt lat="43.56197" lon="3.32437">
        <ele>215.5</ele>
        <time>2017-12-09T12:33:50Z</time>
      </trkpt>
      <trkpt lat="43.56195" lon="3.32444">
        <ele>215.8</ele>
        <time>2017-12-09T12:33:52Z</time>
      </trkpt>
      <trkpt lat="43.56194" lon="3.3245">
        <ele>216.2</ele>
        <time>2017-12-09T12:33:54Z</time>
      </trkpt>
      <trkpt lat="43.56193" lon="3.32456">
        <ele>216.5</ele>
        <time>2017-12-09T12:33:56Z</time>
      </trkpt>
      <trkpt lat="43.56192" lon="3.3246">
        <ele>216.6</ele>
        <time>2017-12-09T12:33:57Z</time>
      </trkpt>
      <trkpt lat="43.5619" lon="3.32466">
        <ele>216.9</ele>
        <time>2017-12-09T12:33:59Z</time>
      </trkpt>
      <trkpt lat="43.56188" lon="3.32472">
        <ele>217.2</ele>
        <time>2017-12-09T12:34:01Z</time>
      </trkpt>
      <trkpt lat="43.56185" lon="3.32478">
        <ele>217.4</ele>
        <time>2017-12-09T12:34:03Z</time>
      </trkpt>
      <trkpt lat="43.56182" lon="3.32483">
        <ele>217.6</ele>
        <time>2017-12-09T12:34:05Z</time>
      </trkpt>
      <trkpt lat="43.56179" lon="3.32488">
        <ele>217.7</ele>
        <time>2017-12-09T12:34:07Z</time>
      </trkpt>
      <trkpt lat="43.56176" lon="3.32493">
        <ele>217.8</ele>
        <time>2017-12-09T12:34:09Z</time>
      </trkpt>
      <trkpt lat="43.56173" lon="3.32498">
        <ele>217.8</ele>
        <time>2017-12-09T12:34:11Z</time>
      </trkpt>
      <trkpt lat="43.5617" lon="3.32502">
        <ele>217.9</ele>
        <time>2017-12-09T12:34:13Z</time>
      </trkpt>
      <trkpt lat="43.56167" lon="3.32508">
        <ele>218</ele>
        <time>2017-12-09T12:34:15Z</time>
      </trkpt>
      <trkpt lat="43.56165" lon="3.32512">
        <ele>218</ele>
        <time>2017-12-09T12:34:16Z</time>
      </trkpt>
      <trkpt lat="43.56163" lon="3.32515">
        <ele>218.1</ele>
        <time>2017-12-09T12:34:17Z</time>
      </trkpt>
      <trkpt lat="43.5616" lon="3.3252">
        <ele>218.5</ele>
        <time>2017-12-09T12:34:19Z</time>
      </trkpt>
      <trkpt lat="43.56157" lon="3.32526">
        <ele>219.1</ele>
        <time>2017-12-09T12:34:21Z</time>
      </trkpt>
      <trkpt lat="43.56155" lon="3.32531">
        <ele>220.3</ele>
        <time>2017-12-09T12:34:23Z</time>
      </trkpt>
      <trkpt lat="43.56153" lon="3.32534">
        <ele>221.7</ele>
        <time>2017-12-09T12:34:24Z</time>
      </trkpt>
      <trkpt lat="43.56151" lon="3.32537">
        <ele>224.8</ele>
        <time>2017-12-09T12:34:25Z</time>
      </trkpt>
      <trkpt lat="43.56148" lon="3.32542">
        <ele>226</ele>
        <time>2017-12-09T12:34:27Z</time>
      </trkpt>
      <trkpt lat="43.56144" lon="3.32548">
        <ele>226.7</ele>
        <time>2017-12-09T12:34:29Z</time>
      </trkpt>
      <trkpt lat="43.56141" lon="3.32553">
        <ele>227.2</ele>
        <time>2017-12-09T12:34:31Z</time>
      </trkpt>
      <trkpt lat="43.56137" lon="3.32558">
        <ele>227.6</ele>
        <time>2017-12-09T12:34:33Z</time>
      </trkpt>
      <trkpt lat="43.56133" lon="3.32563">
        <ele>227.9</ele>
        <time>2017-12-09T12:34:35Z</time>
      </trkpt>
      <trkpt lat="43.5613" lon="3.32567">
        <ele>228.1</ele>
        <time>2017-12-09T12:34:37Z</time>
      </trkpt>
      <trkpt lat="43.56126" lon="3.32572">
        <ele>228.3</ele>
        <time>2017-12-09T12:34:39Z</time>
      </trkpt>
      <trkpt lat="43.56122" lon="3.32578">
        <ele>228.5</ele>
        <time>2017-12-09T12:34:41Z</time>
      </trkpt>
      <trkpt lat="43.56119" lon="3.32582">
        <ele>228.6</ele>
        <time>2017-12-09T12:34:43Z</time>
      </trkpt>
      <trkpt lat="43.56116" lon="3.32586">
        <ele>228.7</ele>
        <time>2017-12-09T12:34:45Z</time>
      </trkpt>
      <trkpt lat="43.56113" lon="3.32589">
        <ele>228.8</ele>
        <time>2017-12-09T12:34:46Z</time>
      </trkpt>
      <trkpt lat="43.5611" lon="3.32593">
        <ele>228.9</ele>
        <time>2017-12-09T12:34:48Z</time>
      </trkpt>
      <trkpt lat="43.56105" lon="3.32597">
        <ele>229</ele>
        <time>2017-12-09T12:34:50Z</time>
      </trkpt>
      <trkpt lat="43.56103" lon="3.32598">
        <ele>229.1</ele>
        <time>2017-12-09T12:34:51Z</time>
      </trkpt>
      <trkpt lat="43.561" lon="3.326">
        <ele>229.2</ele>
        <time>2017-12-09T12:34:52Z</time>
      </trkpt>
      <trkpt lat="43.56098" lon="3.32601">
        <ele>229.3</ele>
        <time>2017-12-09T12:34:53Z</time>
      </trkpt>
      <trkpt lat="43.56093" lon="3.32603">
        <ele>229.4</ele>
        <time>2017-12-09T12:34:55Z</time>
      </trkpt>
      <trkpt lat="43.56088" lon="3.32605">
        <ele>229.6</ele>
        <time>2017-12-09T12:34:57Z</time>
      </trkpt>
      <trkpt lat="43.56083" lon="3.32607">
        <ele>229.8</ele>
        <time>2017-12-09T12:34:59Z</time>
      </trkpt>
      <trkpt lat="43.56079" lon="3.32609">
        <ele>230.1</ele>
        <time>2017-12-09T12:35:01Z</time>
      </trkpt>
      <trkpt lat="43.56074" lon="3.32611">
        <ele>230.4</ele>
        <time>2017-12-09T12:35:03Z</time>
      </trkpt>
      <trkpt lat="43.56069" lon="3.32613">
        <ele>230.7</ele>
        <time>2017-12-09T12:35:05Z</time>
      </trkpt>
      <trkpt lat="43.56064" lon="3.32615">
        <ele>231</ele>
        <time>2017-12-09T12:35:07Z</time>
      </trkpt>
      <trkpt lat="43.56061" lon="3.32616">
        <ele>231.1</ele>
        <time>2017-12-09T12:35:08Z</time>
      </trkpt>
      <trkpt lat="43.56059" lon="3.32618">
        <ele>231.3</ele>
        <time>2017-12-09T12:35:09Z</time>
      </trkpt>
      <trkpt lat="43.56056" lon="3.32619">
        <ele>231.4</ele>
        <time>2017-12-09T12:35:10Z</time>
      </trkpt>
      <trkpt lat="43.56051" lon="3.32622">
        <ele>231.6</ele>
        <time>2017-12-09T12:35:12Z</time>
      </trkpt>
      <trkpt lat="43.56047" lon="3.32625">
        <ele>231.8</ele>
        <time>2017-12-09T12:35:14Z</time>
      </trkpt>
      <trkpt lat="43.56043" lon="3.32628">
        <ele>232</ele>
        <time>2017-12-09T12:35:16Z</time>
      </trkpt>
      <trkpt lat="43.5604" lon="3.32632">
        <ele>232.2</ele>
        <time>2017-12-09T12:35:18Z</time>
      </trkpt>
      <trkpt lat="43.56037" lon="3.32639">
        <ele>232.4</ele>
        <time>2017-12-09T12:35:20Z</time>
      </trkpt>
      <trkpt lat="43.56035" lon="3.32646">
        <ele>232.7</ele>
        <time>2017-12-09T12:35:22Z</time>
      </trkpt>
      <trkpt lat="43.56034" lon="3.32652">
        <ele>232.9</ele>
        <time>2017-12-09T12:35:24Z</time>
      </trkpt>
      <trkpt lat="43.56033" lon="3.32657">
        <ele>233.1</ele>
        <time>2017-12-09T12:35:25Z</time>
      </trkpt>
      <trkpt lat="43.56033" lon="3.32661">
        <ele>233.2</ele>
        <time>2017-12-09T12:35:26Z</time>
      </trkpt>
      <trkpt lat="43.56032" lon="3.32666">
        <ele>233.4</ele>
        <time>2017-12-09T12:35:27Z</time>
      </trkpt>
      <trkpt lat="43.56031" lon="3.32671">
        <ele>233.6</ele>
        <time>2017-12-09T12:35:28Z</time>
      </trkpt>
      <trkpt lat="43.5603" lon="3.32674">
        <ele>233.7</ele>
        <time>2017-12-09T12:35:29Z</time>
      </trkpt>
      <trkpt lat="43.56029" lon="3.32678">
        <ele>233.9</ele>
        <time>2017-12-09T12:35:30Z</time>
      </trkpt>
      <trkpt lat="43.56029" lon="3.32683">
        <ele>234</ele>
        <time>2017-12-09T12:35:31Z</time>
      </trkpt>
      <trkpt lat="43.56029" lon="3.32688">
        <ele>234.2</ele>
        <time>2017-12-09T12:35:32Z</time>
      </trkpt>
      <trkpt lat="43.56028" lon="3.32693">
        <ele>234.4</ele>
        <time>2017-12-09T12:35:33Z</time>
      </trkpt>
      <trkpt lat="43.56028" lon="3.32697">
        <ele>234.6</ele>
        <time>2017-12-09T12:35:34Z</time>
      </trkpt>
      <trkpt lat="43.56027" lon="3.327">
        <ele>234.7</ele>
        <time>2017-12-09T12:35:35Z</time>
      </trkpt>
      <trkpt lat="43.56026" lon="3.32707">
        <ele>235</ele>
        <time>2017-12-09T12:35:37Z</time>
      </trkpt>
      <trkpt lat="43.56025" lon="3.32714">
        <ele>235.4</ele>
        <time>2017-12-09T12:35:39Z</time>
      </trkpt>
      <trkpt lat="43.56026" lon="3.32718">
        <ele>235.7</ele>
        <time>2017-12-09T12:35:40Z</time>
      </trkpt>
      <trkpt lat="43.56027" lon="3.32725">
        <ele>236.2</ele>
        <time>2017-12-09T12:35:42Z</time>
      </trkpt>
      <trkpt lat="43.56028" lon="3.32729">
        <ele>236.5</ele>
        <time>2017-12-09T12:35:43Z</time>
      </trkpt>
      <trkpt lat="43.56029" lon="3.32733">
        <ele>236.8</ele>
        <time>2017-12-09T12:35:44Z</time>
      </trkpt>
      <trkpt lat="43.56032" lon="3.32739">
        <ele>237.5</ele>
        <time>2017-12-09T12:35:46Z</time>
      </trkpt>
      <trkpt lat="43.56035" lon="3.32746">
        <ele>238.1</ele>
        <time>2017-12-09T12:35:48Z</time>
      </trkpt>
      <trkpt lat="43.56036" lon="3.3275">
        <ele>238.5</ele>
        <time>2017-12-09T12:35:49Z</time>
      </trkpt>
      <trkpt lat="43.56037" lon="3.32754">
        <ele>238.9</ele>
        <time>2017-12-09T12:35:50Z</time>
      </trkpt>
      <trkpt lat="43.56037" lon="3.32758">
        <ele>239.2</ele>
        <time>2017-12-09T12:35:51Z</time>
      </trkpt>
      <trkpt lat="43.56038" lon="3.32762">
        <ele>239.7</ele>
        <time>2017-12-09T12:35:52Z</time>
      </trkpt>
      <trkpt lat="43.56039" lon="3.32767">
        <ele>240.1</ele>
        <time>2017-12-09T12:35:53Z</time>
      </trkpt>
      <trkpt lat="43.5604" lon="3.32775">
        <ele>240.8</ele>
        <time>2017-12-09T12:35:55Z</time>
      </trkpt>
      <trkpt lat="43.5604" lon="3.32779">
        <ele>241.2</ele>
        <time>2017-12-09T12:35:56Z</time>
      </trkpt>
      <trkpt lat="43.56041" lon="3.32784">
        <ele>241.5</ele>
        <time>2017-12-09T12:35:57Z</time>
      </trkpt>
      <trkpt lat="43.56041" lon="3.32791">
        <ele>242.1</ele>
        <time>2017-12-09T12:35:59Z</time>
      </trkpt>
      <trkpt lat="43.56041" lon="3.32796">
        <ele>242.4</ele>
        <time>2017-12-09T12:36:00Z</time>
      </trkpt>
      <trkpt lat="43.56041" lon="3.328">
        <ele>242.7</ele>
        <time>2017-12-09T12:36:01Z</time>
      </trkpt>
      <trkpt lat="43.56041" lon="3.32804">
        <ele>242.9</ele>
        <time>2017-12-09T12:36:02Z</time>
      </trkpt>
      <trkpt lat="43.56041" lon="3.32808">
        <ele>243.1</ele>
        <time>2017-12-09T12:36:03Z</time>
      </trkpt>
      <trkpt lat="43.56041" lon="3.32812">
        <ele>243.3</ele>
        <time>2017-12-09T12:36:04Z</time>
      </trkpt>
      <trkpt lat="43.5604" lon="3.32816">
        <ele>243.5</ele>
        <time>2017-12-09T12:36:05Z</time>
      </trkpt>
      <trkpt lat="43.56039" lon="3.3282">
        <ele>243.7</ele>
        <time>2017-12-09T12:36:06Z</time>
      </trkpt>
      <trkpt lat="43.56039" lon="3.32824">
        <ele>243.9</ele>
        <time>2017-12-09T12:36:07Z</time>
      </trkpt>
      <trkpt lat="43.56038" lon="3.32829">
        <ele>244</ele>
        <time>2017-12-09T12:36:08Z</time>
      </trkpt>
      <trkpt lat="43.56036" lon="3.32836">
        <ele>244.2</ele>
        <time>2017-12-09T12:36:10Z</time>
      </trkpt>
      <trkpt lat="43.56035" lon="3.3284">
        <ele>244.3</ele>
        <time>2017-12-09T12:36:11Z</time>
      </trkpt>
      <trkpt lat="43.56033" lon="3.32847">
        <ele>244.4</ele>
        <time>2017-12-09T12:36:13Z</time>
      </trkpt>
      <trkpt lat="43.56032" lon="3.32851">
        <ele>244.4</ele>
        <time>2017-12-09T12:36:14Z</time>
      </trkpt>
      <trkpt lat="43.56031" lon="3.32854">
        <ele>244.5</ele>
        <time>2017-12-09T12:36:15Z</time>
      </trkpt>
      <trkpt lat="43.56029" lon="3.32858">
        <ele>244.5</ele>
        <time>2017-12-09T12:36:16Z</time>
      </trkpt>
      <trkpt lat="43.56028" lon="3.32861">
        <ele>244.5</ele>
        <time>2017-12-09T12:36:17Z</time>
      </trkpt>
      <trkpt lat="43.56026" lon="3.32864">
        <ele>244.6</ele>
        <time>2017-12-09T12:36:18Z</time>
      </trkpt>
      <trkpt lat="43.56025" lon="3.32868">
        <ele>244.6</ele>
        <time>2017-12-09T12:36:19Z</time>
      </trkpt>
      <trkpt lat="43.56024" lon="3.32872">
        <ele>244.6</ele>
        <time>2017-12-09T12:36:20Z</time>
      </trkpt>
      <trkpt lat="43.5602" lon="3.32878">
        <ele>244.7</ele>
        <time>2017-12-09T12:36:22Z</time>
      </trkpt>
      <trkpt lat="43.56017" lon="3.32883">
        <ele>244.8</ele>
        <time>2017-12-09T12:36:24Z</time>
      </trkpt>
      <trkpt lat="43.56014" lon="3.32888">
        <ele>244.9</ele>
        <time>2017-12-09T12:36:26Z</time>
      </trkpt>
      <trkpt lat="43.56011" lon="3.32891">
        <ele>244.9</ele>
        <time>2017-12-09T12:36:27Z</time>
      </trkpt>
      <trkpt lat="43.56009" lon="3.32894">
        <ele>245</ele>
        <time>2017-12-09T12:36:28Z</time>
      </trkpt>
      <trkpt lat="43.56007" lon="3.32897">
        <ele>245</ele>
        <time>2017-12-09T12:36:29Z</time>
      </trkpt>
      <trkpt lat="43.56005" lon="3.32899">
        <ele>245</ele>
        <time>2017-12-09T12:36:30Z</time>
      </trkpt>
      <trkpt lat="43.56002" lon="3.32902">
        <ele>245</ele>
        <time>2017-12-09T12:36:31Z</time>
      </trkpt>
      <trkpt lat="43.56" lon="3.32904">
        <ele>245.1</ele>
        <time>2017-12-09T12:36:32Z</time>
      </trkpt>
      <trkpt lat="43.55997" lon="3.32905">
        <ele>245.5</ele>
        <time>2017-12-09T12:36:33Z</time>
      </trkpt>
      <trkpt lat="43.55992" lon="3.32906">
        <ele>246.1</ele>
        <time>2017-12-09T12:36:35Z</time>
      </trkpt>
      <trkpt lat="43.55987" lon="3.32908">
        <ele>246.8</ele>
        <time>2017-12-09T12:36:37Z</time>
      </trkpt>
      <trkpt lat="43.55983" lon="3.32909">
        <ele>247.4</ele>
        <time>2017-12-09T12:36:39Z</time>
      </trkpt>
      <trkpt lat="43.55978" lon="3.32911">
        <ele>247.9</ele>
        <time>2017-12-09T12:36:41Z</time>
      </trkpt>
      <trkpt lat="43.55974" lon="3.32913">
        <ele>248.4</ele>
        <time>2017-12-09T12:36:43Z</time>
      </trkpt>
      <trkpt lat="43.5597" lon="3.32916">
        <ele>248.9</ele>
        <time>2017-12-09T12:36:45Z</time>
      </trkpt>
      <trkpt lat="43.55966" lon="3.3292">
        <ele>249.2</ele>
        <time>2017-12-09T12:36:47Z</time>
      </trkpt>
      <trkpt lat="43.55963" lon="3.32922">
        <ele>249.3</ele>
        <time>2017-12-09T12:36:48Z</time>
      </trkpt>
      <trkpt lat="43.55961" lon="3.32923">
        <ele>249.5</ele>
        <time>2017-12-09T12:36:49Z</time>
      </trkpt>
      <trkpt lat="43.55956" lon="3.32927">
        <ele>249.9</ele>
        <time>2017-12-09T12:36:51Z</time>
      </trkpt>
      <trkpt lat="43.55953" lon="3.3293">
        <ele>250.1</ele>
        <time>2017-12-09T12:36:52Z</time>
      </trkpt>
      <trkpt lat="43.55951" lon="3.32932">
        <ele>250.3</ele>
        <time>2017-12-09T12:36:53Z</time>
      </trkpt>
      <trkpt lat="43.55948" lon="3.32935">
        <ele>250.5</ele>
        <time>2017-12-09T12:36:54Z</time>
      </trkpt>
      <trkpt lat="43.55946" lon="3.32938">
        <ele>250.8</ele>
        <time>2017-12-09T12:36:55Z</time>
      </trkpt>
      <trkpt lat="43.55943" lon="3.32942">
        <ele>251.1</ele>
        <time>2017-12-09T12:36:56Z</time>
      </trkpt>
      <trkpt lat="43.55941" lon="3.32945">
        <ele>251.4</ele>
        <time>2017-12-09T12:36:57Z</time>
      </trkpt>
      <trkpt lat="43.55939" lon="3.32949">
        <ele>251.7</ele>
        <time>2017-12-09T12:36:58Z</time>
      </trkpt>
      <trkpt lat="43.55937" lon="3.32953">
        <ele>252.1</ele>
        <time>2017-12-09T12:36:59Z</time>
      </trkpt>
      <trkpt lat="43.55935" lon="3.32958">
        <ele>252.4</ele>
        <time>2017-12-09T12:37:00Z</time>
      </trkpt>
      <trkpt lat="43.55934" lon="3.32963">
        <ele>252.7</ele>
        <time>2017-12-09T12:37:01Z</time>
      </trkpt>
      <trkpt lat="43.55933" lon="3.32968">
        <ele>253</ele>
        <time>2017-12-09T12:37:02Z</time>
      </trkpt>
      <trkpt lat="43.55932" lon="3.32972">
        <ele>252.8</ele>
        <time>2017-12-09T12:37:03Z</time>
      </trkpt>
      <trkpt lat="43.5593" lon="3.32977">
        <ele>252.6</ele>
        <time>2017-12-09T12:37:04Z</time>
      </trkpt>
      <trkpt lat="43.55928" lon="3.3298">
        <ele>252.4</ele>
        <time>2017-12-09T12:37:05Z</time>
      </trkpt>
      <trkpt lat="43.55924" lon="3.32982">
        <ele>252.2</ele>
        <time>2017-12-09T12:37:06Z</time>
      </trkpt>
      <trkpt lat="43.55921" lon="3.32984">
        <ele>252</ele>
        <time>2017-12-09T12:37:07Z</time>
      </trkpt>
      <trkpt lat="43.55918" lon="3.32986">
        <ele>251.8</ele>
        <time>2017-12-09T12:37:08Z</time>
      </trkpt>
      <trkpt lat="43.55915" lon="3.32988">
        <ele>251.7</ele>
        <time>2017-12-09T12:37:09Z</time>
      </trkpt>
      <trkpt lat="43.55913" lon="3.32991">
        <ele>251.5</ele>
        <time>2017-12-09T12:37:10Z</time>
      </trkpt>
      <trkpt lat="43.55911" lon="3.32996">
        <ele>251.4</ele>
        <time>2017-12-09T12:37:11Z</time>
      </trkpt>
      <trkpt lat="43.55909" lon="3.32999">
        <ele>251.2</ele>
        <time>2017-12-09T12:37:12Z</time>
      </trkpt>
      <trkpt lat="43.55908" lon="3.33004">
        <ele>251.1</ele>
        <time>2017-12-09T12:37:13Z</time>
      </trkpt>
      <trkpt lat="43.55906" lon="3.33008">
        <ele>251</ele>
        <time>2017-12-09T12:37:14Z</time>
      </trkpt>
      <trkpt lat="43.55905" lon="3.33013">
        <ele>250.9</ele>
        <time>2017-12-09T12:37:15Z</time>
      </trkpt>
      <trkpt lat="43.55904" lon="3.33017">
        <ele>250.9</ele>
        <time>2017-12-09T12:37:16Z</time>
      </trkpt>
      <trkpt lat="43.55902" lon="3.33022">
        <ele>250.9</ele>
        <time>2017-12-09T12:37:17Z</time>
      </trkpt>
      <trkpt lat="43.55901" lon="3.33026">
        <ele>250.9</ele>
        <time>2017-12-09T12:37:18Z</time>
      </trkpt>
      <trkpt lat="43.55899" lon="3.33031">
        <ele>251</ele>
        <time>2017-12-09T12:37:19Z</time>
      </trkpt>
      <trkpt lat="43.55897" lon="3.33035">
        <ele>251</ele>
        <time>2017-12-09T12:37:20Z</time>
      </trkpt>
      <trkpt lat="43.55895" lon="3.33039">
        <ele>251.1</ele>
        <time>2017-12-09T12:37:21Z</time>
      </trkpt>
      <trkpt lat="43.55894" lon="3.33043">
        <ele>251.1</ele>
        <time>2017-12-09T12:37:22Z</time>
      </trkpt>
      <trkpt lat="43.55891" lon="3.33047">
        <ele>251.1</ele>
        <time>2017-12-09T12:37:23Z</time>
      </trkpt>
      <trkpt lat="43.55889" lon="3.3305">
        <ele>251.1</ele>
        <time>2017-12-09T12:37:24Z</time>
      </trkpt>
      <trkpt lat="43.55886" lon="3.33054">
        <ele>251.1</ele>
        <time>2017-12-09T12:37:25Z</time>
      </trkpt>
      <trkpt lat="43.55883" lon="3.33058">
        <ele>251</ele>
        <time>2017-12-09T12:37:26Z</time>
      </trkpt>
      <trkpt lat="43.5588" lon="3.33061">
        <ele>250.9</ele>
        <time>2017-12-09T12:37:27Z</time>
      </trkpt>
      <trkpt lat="43.55877" lon="3.33065">
        <ele>250.8</ele>
        <time>2017-12-09T12:37:28Z</time>
      </trkpt>
      <trkpt lat="43.55873" lon="3.33068">
        <ele>250.7</ele>
        <time>2017-12-09T12:37:29Z</time>
      </trkpt>
      <trkpt lat="43.55869" lon="3.33074">
        <ele>250.6</ele>
        <time>2017-12-09T12:37:31Z</time>
      </trkpt>
      <trkpt lat="43.55866" lon="3.33078">
        <ele>250.6</ele>
        <time>2017-12-09T12:37:32Z</time>
      </trkpt>
      <trkpt lat="43.55864" lon="3.33082">
        <ele>250.5</ele>
        <time>2017-12-09T12:37:33Z</time>
      </trkpt>
      <trkpt lat="43.55862" lon="3.33085">
        <ele>250.5</ele>
        <time>2017-12-09T12:37:34Z</time>
      </trkpt>
      <trkpt lat="43.5586" lon="3.33088">
        <ele>250.5</ele>
        <time>2017-12-09T12:37:35Z</time>
      </trkpt>
      <trkpt lat="43.55858" lon="3.33092">
        <ele>250.5</ele>
        <time>2017-12-09T12:37:36Z</time>
      </trkpt>
      <trkpt lat="43.55856" lon="3.33096">
        <ele>250.6</ele>
        <time>2017-12-09T12:37:37Z</time>
      </trkpt>
      <trkpt lat="43.55854" lon="3.33099">
        <ele>250.7</ele>
        <time>2017-12-09T12:37:38Z</time>
      </trkpt>
      <trkpt lat="43.55852" lon="3.33102">
        <ele>250.8</ele>
        <time>2017-12-09T12:37:39Z</time>
      </trkpt>
      <trkpt lat="43.55851" lon="3.33106">
        <ele>250.9</ele>
        <time>2017-12-09T12:37:40Z</time>
      </trkpt>
      <trkpt lat="43.55849" lon="3.3311">
        <ele>251</ele>
        <time>2017-12-09T12:37:41Z</time>
      </trkpt>
      <trkpt lat="43.55848" lon="3.33113">
        <ele>251.1</ele>
        <time>2017-12-09T12:37:42Z</time>
      </trkpt>
      <trkpt lat="43.55846" lon="3.33117">
        <ele>251.2</ele>
        <time>2017-12-09T12:37:43Z</time>
      </trkpt>
      <trkpt lat="43.55846" lon="3.33121">
        <ele>251.4</ele>
        <time>2017-12-09T12:37:44Z</time>
      </trkpt>
      <trkpt lat="43.55845" lon="3.33125">
        <ele>251.5</ele>
        <time>2017-12-09T12:37:45Z</time>
      </trkpt>
      <trkpt lat="43.55843" lon="3.33129">
        <ele>251.6</ele>
        <time>2017-12-09T12:37:46Z</time>
      </trkpt>
      <trkpt lat="43.55841" lon="3.33132">
        <ele>251.8</ele>
        <time>2017-12-09T12:37:47Z</time>
      </trkpt>
      <trkpt lat="43.55839" lon="3.33136">
        <ele>251.9</ele>
        <time>2017-12-09T12:37:48Z</time>
      </trkpt>
      <trkpt lat="43.55837" lon="3.3314">
        <ele>252</ele>
        <time>2017-12-09T12:37:49Z</time>
      </trkpt>
      <trkpt lat="43.55835" lon="3.33143">
        <ele>252.2</ele>
        <time>2017-12-09T12:37:50Z</time>
      </trkpt>
      <trkpt lat="43.55833" lon="3.33147">
        <ele>252.3</ele>
        <time>2017-12-09T12:37:51Z</time>
      </trkpt>
      <trkpt lat="43.55832" lon="3.3315">
        <ele>252.4</ele>
        <time>2017-12-09T12:37:52Z</time>
      </trkpt>
      <trkpt lat="43.55829" lon="3.33156">
        <ele>252.6</ele>
        <time>2017-12-09T12:37:54Z</time>
      </trkpt>
      <trkpt lat="43.55825" lon="3.33161">
        <ele>252.8</ele>
        <time>2017-12-09T12:37:56Z</time>
      </trkpt>
      <trkpt lat="43.55824" lon="3.33164">
        <ele>252.9</ele>
        <time>2017-12-09T12:37:57Z</time>
      </trkpt>
      <trkpt lat="43.55821" lon="3.33168">
        <ele>253.1</ele>
        <time>2017-12-09T12:37:59Z</time>
      </trkpt>
      <trkpt lat="43.55819" lon="3.33173">
        <ele>253.3</ele>
        <time>2017-12-09T12:38:01Z</time>
      </trkpt>
      <trkpt lat="43.55817" lon="3.33178">
        <ele>253.5</ele>
        <time>2017-12-09T12:38:03Z</time>
      </trkpt>
      <trkpt lat="43.55814" lon="3.33183">
        <ele>253.7</ele>
        <time>2017-12-09T12:38:05Z</time>
      </trkpt>
      <trkpt lat="43.55813" lon="3.33188">
        <ele>253.8</ele>
        <time>2017-12-09T12:38:07Z</time>
      </trkpt>
      <trkpt lat="43.55811" lon="3.33194">
        <ele>254</ele>
        <time>2017-12-09T12:38:09Z</time>
      </trkpt>
      <trkpt lat="43.55808" lon="3.332">
        <ele>254.2</ele>
        <time>2017-12-09T12:38:11Z</time>
      </trkpt>
      <trkpt lat="43.55806" lon="3.33206">
        <ele>254.3</ele>
        <time>2017-12-09T12:38:13Z</time>
      </trkpt>
      <trkpt lat="43.55804" lon="3.33212">
        <ele>254.5</ele>
        <time>2017-12-09T12:38:15Z</time>
      </trkpt>
      <trkpt lat="43.55802" lon="3.33218">
        <ele>254.6</ele>
        <time>2017-12-09T12:38:17Z</time>
      </trkpt>
      <trkpt lat="43.558" lon="3.33225">
        <ele>254.8</ele>
        <time>2017-12-09T12:38:19Z</time>
      </trkpt>
      <trkpt lat="43.55799" lon="3.33228">
        <ele>255</ele>
        <time>2017-12-09T12:38:20Z</time>
      </trkpt>
      <trkpt lat="43.55798" lon="3.33234">
        <ele>255.2</ele>
        <time>2017-12-09T12:38:22Z</time>
      </trkpt>
      <trkpt lat="43.55796" lon="3.3324">
        <ele>255.5</ele>
        <time>2017-12-09T12:38:24Z</time>
      </trkpt>
      <trkpt lat="43.55794" lon="3.33247">
        <ele>255.9</ele>
        <time>2017-12-09T12:38:26Z</time>
      </trkpt>
      <trkpt lat="43.55793" lon="3.33251">
        <ele>256</ele>
        <time>2017-12-09T12:38:27Z</time>
      </trkpt>
      <trkpt lat="43.55791" lon="3.33255">
        <ele>256.2</ele>
        <time>2017-12-09T12:38:28Z</time>
      </trkpt>
      <trkpt lat="43.5579" lon="3.33259">
        <ele>256.4</ele>
        <time>2017-12-09T12:38:29Z</time>
      </trkpt>
      <trkpt lat="43.55788" lon="3.33265">
        <ele>256.7</ele>
        <time>2017-12-09T12:38:31Z</time>
      </trkpt>
      <trkpt lat="43.55787" lon="3.33269">
        <ele>256.8</ele>
        <time>2017-12-09T12:38:32Z</time>
      </trkpt>
      <trkpt lat="43.55785" lon="3.33272">
        <ele>256.9</ele>
        <time>2017-12-09T12:38:33Z</time>
      </trkpt>
      <trkpt lat="43.55784" lon="3.33276">
        <ele>257</ele>
        <time>2017-12-09T12:38:34Z</time>
      </trkpt>
      <trkpt lat="43.55783" lon="3.33279">
        <ele>257</ele>
        <time>2017-12-09T12:38:35Z</time>
      </trkpt>
      <trkpt lat="43.55781" lon="3.33286">
        <ele>257.1</ele>
        <time>2017-12-09T12:38:37Z</time>
      </trkpt>
      <trkpt lat="43.55779" lon="3.33292">
        <ele>257.1</ele>
        <time>2017-12-09T12:38:39Z</time>
      </trkpt>
      <trkpt lat="43.55777" lon="3.33298">
        <ele>257.1</ele>
        <time>2017-12-09T12:38:41Z</time>
      </trkpt>
      <trkpt lat="43.55775" lon="3.33305">
        <ele>257.2</ele>
        <time>2017-12-09T12:38:43Z</time>
      </trkpt>
      <trkpt lat="43.55773" lon="3.33311">
        <ele>257.2</ele>
        <time>2017-12-09T12:38:45Z</time>
      </trkpt>
      <trkpt lat="43.55771" lon="3.33316">
        <ele>257.3</ele>
        <time>2017-12-09T12:38:47Z</time>
      </trkpt>
      <trkpt lat="43.55769" lon="3.33322">
        <ele>257.4</ele>
        <time>2017-12-09T12:38:49Z</time>
      </trkpt>
      <trkpt lat="43.55766" lon="3.33327">
        <ele>257.5</ele>
        <time>2017-12-09T12:38:51Z</time>
      </trkpt>
      <trkpt lat="43.55763" lon="3.33331">
        <ele>257.6</ele>
        <time>2017-12-09T12:38:53Z</time>
      </trkpt>
      <trkpt lat="43.55761" lon="3.33337">
        <ele>257.6</ele>
        <time>2017-12-09T12:38:55Z</time>
      </trkpt>
      <trkpt lat="43.55758" lon="3.33343">
        <ele>257.6</ele>
        <time>2017-12-09T12:38:57Z</time>
      </trkpt>
      <trkpt lat="43.55756" lon="3.33349">
        <ele>257.5</ele>
        <time>2017-12-09T12:38:59Z</time>
      </trkpt>
      <trkpt lat="43.55754" lon="3.33354">
        <ele>257.4</ele>
        <time>2017-12-09T12:39:01Z</time>
      </trkpt>
      <trkpt lat="43.55751" lon="3.3336">
        <ele>257.2</ele>
        <time>2017-12-09T12:39:03Z</time>
      </trkpt>
      <trkpt lat="43.55749" lon="3.33365">
        <ele>257.1</ele>
        <time>2017-12-09T12:39:05Z</time>
      </trkpt>
      <trkpt lat="43.55747" lon="3.3337">
        <ele>257</ele>
        <time>2017-12-09T12:39:07Z</time>
      </trkpt>
      <trkpt lat="43.55745" lon="3.33376">
        <ele>256.8</ele>
        <time>2017-12-09T12:39:09Z</time>
      </trkpt>
      <trkpt lat="43.55743" lon="3.33381">
        <ele>256.7</ele>
        <time>2017-12-09T12:39:11Z</time>
      </trkpt>
      <trkpt lat="43.5574" lon="3.33385">
        <ele>256.6</ele>
        <time>2017-12-09T12:39:13Z</time>
      </trkpt>
      <trkpt lat="43.55737" lon="3.3339">
        <ele>256.6</ele>
        <time>2017-12-09T12:39:15Z</time>
      </trkpt>
      <trkpt lat="43.55734" lon="3.33393">
        <ele>256.6</ele>
        <time>2017-12-09T12:39:17Z</time>
      </trkpt>
      <trkpt lat="43.55732" lon="3.33396">
        <ele>256.6</ele>
        <time>2017-12-09T12:39:19Z</time>
      </trkpt>
      <trkpt lat="43.55729" lon="3.334">
        <ele>256.7</ele>
        <time>2017-12-09T12:39:21Z</time>
      </trkpt>
      <trkpt lat="43.55725" lon="3.33403">
        <ele>256.8</ele>
        <time>2017-12-09T12:39:23Z</time>
      </trkpt>
      <trkpt lat="43.55723" lon="3.33405">
        <ele>256.9</ele>
        <time>2017-12-09T12:39:24Z</time>
      </trkpt>
      <trkpt lat="43.55719" lon="3.33409">
        <ele>257</ele>
        <time>2017-12-09T12:39:26Z</time>
      </trkpt>
      <trkpt lat="43.55716" lon="3.33413">
        <ele>257</ele>
        <time>2017-12-09T12:39:28Z</time>
      </trkpt>
      <trkpt lat="43.55714" lon="3.33416">
        <ele>257</ele>
        <time>2017-12-09T12:39:29Z</time>
      </trkpt>
      <trkpt lat="43.55712" lon="3.3342">
        <ele>256.9</ele>
        <time>2017-12-09T12:39:30Z</time>
      </trkpt>
      <trkpt lat="43.5571" lon="3.33426">
        <ele>256.8</ele>
        <time>2017-12-09T12:39:32Z</time>
      </trkpt>
      <trkpt lat="43.55708" lon="3.3343">
        <ele>256.8</ele>
        <time>2017-12-09T12:39:34Z</time>
      </trkpt>
      <trkpt lat="43.55706" lon="3.33435">
        <ele>256.7</ele>
        <time>2017-12-09T12:39:36Z</time>
      </trkpt>
      <trkpt lat="43.55704" lon="3.33439">
        <ele>256.7</ele>
        <time>2017-12-09T12:39:38Z</time>
      </trkpt>
      <trkpt lat="43.55703" lon="3.33445">
        <ele>256.7</ele>
        <time>2017-12-09T12:39:40Z</time>
      </trkpt>
      <trkpt lat="43.55701" lon="3.33448">
        <ele>256.7</ele>
        <time>2017-12-09T12:39:42Z</time>
      </trkpt>
      <trkpt lat="43.55697" lon="3.33448">
        <ele>256.8</ele>
        <time>2017-12-09T12:39:44Z</time>
      </trkpt>
      <trkpt lat="43.55695" lon="3.33445">
        <ele>257.1</ele>
        <time>2017-12-09T12:39:46Z</time>
      </trkpt>
      <trkpt lat="43.55695" lon="3.33441">
        <ele>257</ele>
        <time>2017-12-09T12:39:48Z</time>
      </trkpt>
      <trkpt lat="43.55697" lon="3.33436">
        <ele>257</ele>
        <time>2017-12-09T12:39:50Z</time>
      </trkpt>
      <trkpt lat="43.55698" lon="3.3343">
        <ele>256.9</ele>
        <time>2017-12-09T12:39:52Z</time>
      </trkpt>
      <trkpt lat="43.55698" lon="3.33425">
        <ele>256.9</ele>
        <time>2017-12-09T12:39:54Z</time>
      </trkpt>
      <trkpt lat="43.557" lon="3.3342">
        <ele>256.8</ele>
        <time>2017-12-09T12:39:56Z</time>
      </trkpt>
      <trkpt lat="43.55702" lon="3.33416">
        <ele>256.8</ele>
        <time>2017-12-09T12:39:58Z</time>
      </trkpt>
      <trkpt lat="43.55704" lon="3.3341">
        <ele>256.7</ele>
        <time>2017-12-09T12:40:00Z</time>
      </trkpt>
      <trkpt lat="43.55706" lon="3.33405">
        <ele>256.6</ele>
        <time>2017-12-09T12:40:02Z</time>
      </trkpt>
      <trkpt lat="43.55708" lon="3.33399">
        <ele>256.5</ele>
        <time>2017-12-09T12:40:04Z</time>
      </trkpt>
      <trkpt lat="43.5571" lon="3.33393">
        <ele>256.3</ele>
        <time>2017-12-09T12:40:06Z</time>
      </trkpt>
      <trkpt lat="43.5571" lon="3.33388">
        <ele>256.2</ele>
        <time>2017-12-09T12:40:07Z</time>
      </trkpt>
      <trkpt lat="43.55709" lon="3.33384">
        <ele>256.1</ele>
        <time>2017-12-09T12:40:09Z</time>
      </trkpt>
      <trkpt lat="43.55707" lon="3.3338">
        <ele>256</ele>
        <time>2017-12-09T12:40:10Z</time>
      </trkpt>
      <trkpt lat="43.55705" lon="3.33378">
        <ele>255.9</ele>
        <time>2017-12-09T12:40:11Z</time>
      </trkpt>
      <trkpt lat="43.55701" lon="3.33373">
        <ele>255.7</ele>
        <time>2017-12-09T12:40:13Z</time>
      </trkpt>
      <trkpt lat="43.55698" lon="3.3337">
        <ele>255.7</ele>
        <time>2017-12-09T12:40:15Z</time>
      </trkpt>
      <trkpt lat="43.55694" lon="3.33366">
        <ele>255.6</ele>
        <time>2017-12-09T12:40:17Z</time>
      </trkpt>
      <trkpt lat="43.55691" lon="3.33362">
        <ele>255.5</ele>
        <time>2017-12-09T12:40:19Z</time>
      </trkpt>
      <trkpt lat="43.55687" lon="3.33358">
        <ele>255.5</ele>
        <time>2017-12-09T12:40:21Z</time>
      </trkpt>
      <trkpt lat="43.55684" lon="3.33354">
        <ele>255.4</ele>
        <time>2017-12-09T12:40:23Z</time>
      </trkpt>
      <trkpt lat="43.5568" lon="3.3335">
        <ele>255.3</ele>
        <time>2017-12-09T12:40:25Z</time>
      </trkpt>
      <trkpt lat="43.55676" lon="3.33345">
        <ele>255.2</ele>
        <time>2017-12-09T12:40:27Z</time>
      </trkpt>
      <trkpt lat="43.55673" lon="3.3334">
        <ele>255.2</ele>
        <time>2017-12-09T12:40:29Z</time>
      </trkpt>
      <trkpt lat="43.5567" lon="3.33335">
        <ele>255.1</ele>
        <time>2017-12-09T12:40:31Z</time>
      </trkpt>
      <trkpt lat="43.55666" lon="3.33331">
        <ele>255</ele>
        <time>2017-12-09T12:40:33Z</time>
      </trkpt>
      <trkpt lat="43.55663" lon="3.33329">
        <ele>254.9</ele>
        <time>2017-12-09T12:40:34Z</time>
      </trkpt>
      <trkpt lat="43.55659" lon="3.33325">
        <ele>254.8</ele>
        <time>2017-12-09T12:40:36Z</time>
      </trkpt>
      <trkpt lat="43.55656" lon="3.33323">
        <ele>254.7</ele>
        <time>2017-12-09T12:40:37Z</time>
      </trkpt>
      <trkpt lat="43.55653" lon="3.33321">
        <ele>254.7</ele>
        <time>2017-12-09T12:40:38Z</time>
      </trkpt>
      <trkpt lat="43.5565" lon="3.33319">
        <ele>254.6</ele>
        <time>2017-12-09T12:40:39Z</time>
      </trkpt>
      <trkpt lat="43.55647" lon="3.33318">
        <ele>254.6</ele>
        <time>2017-12-09T12:40:40Z</time>
      </trkpt>
      <trkpt lat="43.55642" lon="3.33317">
        <ele>254.5</ele>
        <time>2017-12-09T12:40:42Z</time>
      </trkpt>
      <trkpt lat="43.55638" lon="3.33315">
        <ele>254.4</ele>
        <time>2017-12-09T12:40:44Z</time>
      </trkpt>
      <trkpt lat="43.55632" lon="3.33314">
        <ele>254.2</ele>
        <time>2017-12-09T12:40:46Z</time>
      </trkpt>
      <trkpt lat="43.55629" lon="3.33313">
        <ele>254.2</ele>
        <time>2017-12-09T12:40:47Z</time>
      </trkpt>
      <trkpt lat="43.55626" lon="3.33312">
        <ele>254.1</ele>
        <time>2017-12-09T12:40:48Z</time>
      </trkpt>
      <trkpt lat="43.55623" lon="3.33312">
        <ele>254</ele>
        <time>2017-12-09T12:40:49Z</time>
      </trkpt>
      <trkpt lat="43.5562" lon="3.33311">
        <ele>254</ele>
        <time>2017-12-09T12:40:50Z</time>
      </trkpt>
      <trkpt lat="43.55617" lon="3.3331">
        <ele>253.9</ele>
        <time>2017-12-09T12:40:51Z</time>
      </trkpt>
      <trkpt lat="43.55614" lon="3.3331">
        <ele>253.9</ele>
        <time>2017-12-09T12:40:52Z</time>
      </trkpt>
      <trkpt lat="43.55611" lon="3.33309">
        <ele>253.8</ele>
        <time>2017-12-09T12:40:53Z</time>
      </trkpt>
      <trkpt lat="43.55609" lon="3.33309">
        <ele>253.7</ele>
        <time>2017-12-09T12:40:54Z</time>
      </trkpt>
      <trkpt lat="43.55606" lon="3.33308">
        <ele>253.7</ele>
        <time>2017-12-09T12:40:55Z</time>
      </trkpt>
      <trkpt lat="43.55603" lon="3.33307">
        <ele>253.6</ele>
        <time>2017-12-09T12:40:56Z</time>
      </trkpt>
      <trkpt lat="43.556" lon="3.33307">
        <ele>253.6</ele>
        <time>2017-12-09T12:40:57Z</time>
      </trkpt>
      <trkpt lat="43.55597" lon="3.33306">
        <ele>253.5</ele>
        <time>2017-12-09T12:40:58Z</time>
      </trkpt>
      <trkpt lat="43.55594" lon="3.33305">
        <ele>253.4</ele>
        <time>2017-12-09T12:40:59Z</time>
      </trkpt>
      <trkpt lat="43.55591" lon="3.33304">
        <ele>253.4</ele>
        <time>2017-12-09T12:41:00Z</time>
      </trkpt>
      <trkpt lat="43.55588" lon="3.33304">
        <ele>253.3</ele>
        <time>2017-12-09T12:41:01Z</time>
      </trkpt>
      <trkpt lat="43.55585" lon="3.33303">
        <ele>253.3</ele>
        <time>2017-12-09T12:41:02Z</time>
      </trkpt>
      <trkpt lat="43.55582" lon="3.33302">
        <ele>253.2</ele>
        <time>2017-12-09T12:41:03Z</time>
      </trkpt>
      <trkpt lat="43.55579" lon="3.33301">
        <ele>253.1</ele>
        <time>2017-12-09T12:41:04Z</time>
      </trkpt>
      <trkpt lat="43.55576" lon="3.333">
        <ele>253.1</ele>
        <time>2017-12-09T12:41:05Z</time>
      </trkpt>
      <trkpt lat="43.55572" lon="3.333">
        <ele>253</ele>
        <time>2017-12-09T12:41:06Z</time>
      </trkpt>
      <trkpt lat="43.55569" lon="3.33299">
        <ele>252.9</ele>
        <time>2017-12-09T12:41:07Z</time>
      </trkpt>
      <trkpt lat="43.55566" lon="3.33298">
        <ele>252.9</ele>
        <time>2017-12-09T12:41:08Z</time>
      </trkpt>
      <trkpt lat="43.55563" lon="3.33298">
        <ele>252.8</ele>
        <time>2017-12-09T12:41:09Z</time>
      </trkpt>
      <trkpt lat="43.5556" lon="3.33297">
        <ele>252.7</ele>
        <time>2017-12-09T12:41:10Z</time>
      </trkpt>
      <trkpt lat="43.55557" lon="3.33297">
        <ele>252.6</ele>
        <time>2017-12-09T12:41:11Z</time>
      </trkpt>
      <trkpt lat="43.55554" lon="3.33296">
        <ele>252.5</ele>
        <time>2017-12-09T12:41:12Z</time>
      </trkpt>
      <trkpt lat="43.55551" lon="3.33295">
        <ele>252.5</ele>
        <time>2017-12-09T12:41:13Z</time>
      </trkpt>
      <trkpt lat="43.55547" lon="3.33294">
        <ele>252.3</ele>
        <time>2017-12-09T12:41:15Z</time>
      </trkpt>
      <trkpt lat="43.55542" lon="3.33293">
        <ele>252.1</ele>
        <time>2017-12-09T12:41:17Z</time>
      </trkpt>
      <trkpt lat="43.55539" lon="3.33291">
        <ele>252</ele>
        <time>2017-12-09T12:41:19Z</time>
      </trkpt>
      <trkpt lat="43.55537" lon="3.33287">
        <ele>252</ele>
        <time>2017-12-09T12:41:21Z</time>
      </trkpt>
      <trkpt lat="43.55536" lon="3.33282">
        <ele>252</ele>
        <time>2017-12-09T12:41:23Z</time>
      </trkpt>
      <trkpt lat="43.55536" lon="3.33276">
        <ele>252.3</ele>
        <time>2017-12-09T12:41:25Z</time>
      </trkpt>
      <trkpt lat="43.55537" lon="3.3327">
        <ele>252.7</ele>
        <time>2017-12-09T12:41:27Z</time>
      </trkpt>
      <trkpt lat="43.55539" lon="3.33265">
        <ele>253.2</ele>
        <time>2017-12-09T12:41:29Z</time>
      </trkpt>
      <trkpt lat="43.55544" lon="3.33263">
        <ele>253.9</ele>
        <time>2017-12-09T12:41:31Z</time>
      </trkpt>
      <trkpt lat="43.55548" lon="3.33262">
        <ele>254.2</ele>
        <time>2017-12-09T12:41:33Z</time>
      </trkpt>
      <trkpt lat="43.55552" lon="3.33263">
        <ele>254.5</ele>
        <time>2017-12-09T12:41:35Z</time>
      </trkpt>
      <trkpt lat="43.55556" lon="3.3326">
        <ele>254.7</ele>
        <time>2017-12-09T12:41:37Z</time>
      </trkpt>
      <trkpt lat="43.55558" lon="3.33257">
        <ele>254.9</ele>
        <time>2017-12-09T12:41:38Z</time>
      </trkpt>
      <trkpt lat="43.55561" lon="3.33251">
        <ele>255.7</ele>
        <time>2017-12-09T12:41:40Z</time>
      </trkpt>
      <trkpt lat="43.55564" lon="3.33247">
        <ele>256.4</ele>
        <time>2017-12-09T12:41:42Z</time>
      </trkpt>
      <trkpt lat="43.55567" lon="3.33243">
        <ele>256.9</ele>
        <time>2017-12-09T12:41:44Z</time>
      </trkpt>
      <trkpt lat="43.55571" lon="3.33239">
        <ele>257.2</ele>
        <time>2017-12-09T12:41:46Z</time>
      </trkpt>
      <trkpt lat="43.55575" lon="3.33235">
        <ele>257.7</ele>
        <time>2017-12-09T12:41:48Z</time>
      </trkpt>
      <trkpt lat="43.55579" lon="3.33232">
        <ele>258.5</ele>
        <time>2017-12-09T12:41:50Z</time>
      </trkpt>
      <trkpt lat="43.55583" lon="3.33229">
        <ele>259.1</ele>
        <time>2017-12-09T12:41:52Z</time>
      </trkpt>
      <trkpt lat="43.55586" lon="3.33225">
        <ele>259.5</ele>
        <time>2017-12-09T12:41:54Z</time>
      </trkpt>
      <trkpt lat="43.5559" lon="3.33222">
        <ele>259.8</ele>
        <time>2017-12-09T12:41:56Z</time>
      </trkpt>
      <trkpt lat="43.55593" lon="3.33219">
        <ele>260.2</ele>
        <time>2017-12-09T12:41:58Z</time>
      </trkpt>
      <trkpt lat="43.55596" lon="3.33215">
        <ele>260.9</ele>
        <time>2017-12-09T12:42:00Z</time>
      </trkpt>
      <trkpt lat="43.55599" lon="3.33211">
        <ele>261.2</ele>
        <time>2017-12-09T12:42:02Z</time>
      </trkpt>
      <trkpt lat="43.55602" lon="3.33208">
        <ele>261.5</ele>
        <time>2017-12-09T12:42:04Z</time>
      </trkpt>
      <trkpt lat="43.55605" lon="3.33205">
        <ele>261.6</ele>
        <time>2017-12-09T12:42:06Z</time>
      </trkpt>
      <trkpt lat="43.55608" lon="3.33202">
        <ele>261.8</ele>
        <time>2017-12-09T12:42:08Z</time>
      </trkpt>
      <trkpt lat="43.5561" lon="3.33197">
        <ele>261.9</ele>
        <time>2017-12-09T12:42:10Z</time>
      </trkpt>
      <trkpt lat="43.55612" lon="3.33192">
        <ele>262</ele>
        <time>2017-12-09T12:42:12Z</time>
      </trkpt>
      <trkpt lat="43.55613" lon="3.33186">
        <ele>262.2</ele>
        <time>2017-12-09T12:42:14Z</time>
      </trkpt>
      <trkpt lat="43.55613" lon="3.33179">
        <ele>262.4</ele>
        <time>2017-12-09T12:42:16Z</time>
      </trkpt>
      <trkpt lat="43.55615" lon="3.33173">
        <ele>262.7</ele>
        <time>2017-12-09T12:42:18Z</time>
      </trkpt>
      <trkpt lat="43.55617" lon="3.33167">
        <ele>263.3</ele>
        <time>2017-12-09T12:42:20Z</time>
      </trkpt>
      <trkpt lat="43.5562" lon="3.33162">
        <ele>263.6</ele>
        <time>2017-12-09T12:42:22Z</time>
      </trkpt>
      <trkpt lat="43.55622" lon="3.33157">
        <ele>263.8</ele>
        <time>2017-12-09T12:42:24Z</time>
      </trkpt>
      <trkpt lat="43.55625" lon="3.33152">
        <ele>263.9</ele>
        <time>2017-12-09T12:42:26Z</time>
      </trkpt>
      <trkpt lat="43.55626" lon="3.33145">
        <ele>263.9</ele>
        <time>2017-12-09T12:42:28Z</time>
      </trkpt>
      <trkpt lat="43.55629" lon="3.3314">
        <ele>264</ele>
        <time>2017-12-09T12:42:30Z</time>
      </trkpt>
      <trkpt lat="43.55631" lon="3.33134">
        <ele>264.1</ele>
        <time>2017-12-09T12:42:32Z</time>
      </trkpt>
      <trkpt lat="43.55634" lon="3.33128">
        <ele>264.1</ele>
        <time>2017-12-09T12:42:34Z</time>
      </trkpt>
      <trkpt lat="43.55636" lon="3.33125">
        <ele>264.1</ele>
        <time>2017-12-09T12:42:35Z</time>
      </trkpt>
      <trkpt lat="43.55638" lon="3.33118">
        <ele>264.2</ele>
        <time>2017-12-09T12:42:37Z</time>
      </trkpt>
      <trkpt lat="43.5564" lon="3.33112">
        <ele>264.2</ele>
        <time>2017-12-09T12:42:39Z</time>
      </trkpt>
      <trkpt lat="43.55641" lon="3.33108">
        <ele>264.2</ele>
        <time>2017-12-09T12:42:40Z</time>
      </trkpt>
      <trkpt lat="43.55642" lon="3.33105">
        <ele>264.2</ele>
        <time>2017-12-09T12:42:41Z</time>
      </trkpt>
      <trkpt lat="43.55644" lon="3.33101">
        <ele>264.2</ele>
        <time>2017-12-09T12:42:42Z</time>
      </trkpt>
      <trkpt lat="43.55646" lon="3.33098">
        <ele>264.2</ele>
        <time>2017-12-09T12:42:43Z</time>
      </trkpt>
      <trkpt lat="43.55647" lon="3.33094">
        <ele>264.2</ele>
        <time>2017-12-09T12:42:44Z</time>
      </trkpt>
      <trkpt lat="43.55649" lon="3.3309">
        <ele>264.2</ele>
        <time>2017-12-09T12:42:45Z</time>
      </trkpt>
      <trkpt lat="43.55651" lon="3.33087">
        <ele>264.3</ele>
        <time>2017-12-09T12:42:46Z</time>
      </trkpt>
      <trkpt lat="43.55653" lon="3.33082">
        <ele>264.3</ele>
        <time>2017-12-09T12:42:47Z</time>
      </trkpt>
      <trkpt lat="43.55655" lon="3.33078">
        <ele>264.3</ele>
        <time>2017-12-09T12:42:48Z</time>
      </trkpt>
      <trkpt lat="43.55657" lon="3.33074">
        <ele>264.3</ele>
        <time>2017-12-09T12:42:49Z</time>
      </trkpt>
      <trkpt lat="43.55659" lon="3.33069">
        <ele>264.3</ele>
        <time>2017-12-09T12:42:50Z</time>
      </trkpt>
      <trkpt lat="43.55661" lon="3.33065">
        <ele>264.3</ele>
        <time>2017-12-09T12:42:51Z</time>
      </trkpt>
      <trkpt lat="43.55663" lon="3.33061">
        <ele>264.3</ele>
        <time>2017-12-09T12:42:52Z</time>
      </trkpt>
      <trkpt lat="43.55665" lon="3.33057">
        <ele>264.3</ele>
        <time>2017-12-09T12:42:53Z</time>
      </trkpt>
      <trkpt lat="43.55667" lon="3.33053">
        <ele>264.4</ele>
        <time>2017-12-09T12:42:54Z</time>
      </trkpt>
      <trkpt lat="43.55668" lon="3.33049">
        <ele>264.4</ele>
        <time>2017-12-09T12:42:55Z</time>
      </trkpt>
      <trkpt lat="43.5567" lon="3.33044">
        <ele>264.4</ele>
        <time>2017-12-09T12:42:56Z</time>
      </trkpt>
      <trkpt lat="43.55672" lon="3.3304">
        <ele>264.4</ele>
        <time>2017-12-09T12:42:57Z</time>
      </trkpt>
      <trkpt lat="43.55674" lon="3.33036">
        <ele>264.4</ele>
        <time>2017-12-09T12:42:58Z</time>
      </trkpt>
      <trkpt lat="43.55676" lon="3.33031">
        <ele>264.4</ele>
        <time>2017-12-09T12:42:59Z</time>
      </trkpt>
      <trkpt lat="43.55678" lon="3.33027">
        <ele>264.4</ele>
        <time>2017-12-09T12:43:00Z</time>
      </trkpt>
      <trkpt lat="43.5568" lon="3.33022">
        <ele>264.4</ele>
        <time>2017-12-09T12:43:01Z</time>
      </trkpt>
      <trkpt lat="43.55681" lon="3.33018">
        <ele>264.5</ele>
        <time>2017-12-09T12:43:02Z</time>
      </trkpt>
      <trkpt lat="43.55683" lon="3.33014">
        <ele>264.5</ele>
        <time>2017-12-09T12:43:03Z</time>
      </trkpt>
      <trkpt lat="43.55685" lon="3.3301">
        <ele>264.5</ele>
        <time>2017-12-09T12:43:04Z</time>
      </trkpt>
      <trkpt lat="43.55687" lon="3.33006">
        <ele>264.5</ele>
        <time>2017-12-09T12:43:05Z</time>
      </trkpt>
      <trkpt lat="43.55689" lon="3.33002">
        <ele>264.5</ele>
        <time>2017-12-09T12:43:06Z</time>
      </trkpt>
      <trkpt lat="43.55691" lon="3.32998">
        <ele>264.5</ele>
        <time>2017-12-09T12:43:07Z</time>
      </trkpt>
      <trkpt lat="43.55693" lon="3.32995">
        <ele>264.6</ele>
        <time>2017-12-09T12:43:08Z</time>
      </trkpt>
      <trkpt lat="43.55695" lon="3.32992">
        <ele>264.6</ele>
        <time>2017-12-09T12:43:09Z</time>
      </trkpt>
      <trkpt lat="43.55698" lon="3.32989">
        <ele>264.6</ele>
        <time>2017-12-09T12:43:10Z</time>
      </trkpt>
      <trkpt lat="43.557" lon="3.32986">
        <ele>264.6</ele>
        <time>2017-12-09T12:43:11Z</time>
      </trkpt>
      <trkpt lat="43.55702" lon="3.32984">
        <ele>264.6</ele>
        <time>2017-12-09T12:43:12Z</time>
      </trkpt>
      <trkpt lat="43.55705" lon="3.32981">
        <ele>264.6</ele>
        <time>2017-12-09T12:43:13Z</time>
      </trkpt>
      <trkpt lat="43.55708" lon="3.32978">
        <ele>264.6</ele>
        <time>2017-12-09T12:43:14Z</time>
      </trkpt>
      <trkpt lat="43.5571" lon="3.32975">
        <ele>264.7</ele>
        <time>2017-12-09T12:43:15Z</time>
      </trkpt>
      <trkpt lat="43.55713" lon="3.32972">
        <ele>264.7</ele>
        <time>2017-12-09T12:43:16Z</time>
      </trkpt>
      <trkpt lat="43.55715" lon="3.32969">
        <ele>264.8</ele>
        <time>2017-12-09T12:43:17Z</time>
      </trkpt>
      <trkpt lat="43.55717" lon="3.32967">
        <ele>264.8</ele>
        <time>2017-12-09T12:43:18Z</time>
      </trkpt>
      <trkpt lat="43.5572" lon="3.32964">
        <ele>264.8</ele>
        <time>2017-12-09T12:43:19Z</time>
      </trkpt>
      <trkpt lat="43.55722" lon="3.32961">
        <ele>264.9</ele>
        <time>2017-12-09T12:43:20Z</time>
      </trkpt>
      <trkpt lat="43.55726" lon="3.32955">
        <ele>265</ele>
        <time>2017-12-09T12:43:22Z</time>
      </trkpt>
      <trkpt lat="43.55728" lon="3.32952">
        <ele>265.1</ele>
        <time>2017-12-09T12:43:23Z</time>
      </trkpt>
      <trkpt lat="43.55731" lon="3.32949">
        <ele>265.2</ele>
        <time>2017-12-09T12:43:24Z</time>
      </trkpt>
      <trkpt lat="43.55733" lon="3.32946">
        <ele>265.5</ele>
        <time>2017-12-09T12:43:25Z</time>
      </trkpt>
      <trkpt lat="43.55736" lon="3.32945">
        <ele>265.7</ele>
        <time>2017-12-09T12:43:26Z</time>
      </trkpt>
      <trkpt lat="43.55738" lon="3.32943">
        <ele>266</ele>
        <time>2017-12-09T12:43:27Z</time>
      </trkpt>
      <trkpt lat="43.55741" lon="3.3294">
        <ele>266.2</ele>
        <time>2017-12-09T12:43:28Z</time>
      </trkpt>
      <trkpt lat="43.55743" lon="3.32938">
        <ele>266.4</ele>
        <time>2017-12-09T12:43:29Z</time>
      </trkpt>
      <trkpt lat="43.55745" lon="3.32936">
        <ele>266.5</ele>
        <time>2017-12-09T12:43:30Z</time>
      </trkpt>
      <trkpt lat="43.55751" lon="3.32934">
        <ele>266.6</ele>
        <time>2017-12-09T12:43:32Z</time>
      </trkpt>
      <trkpt lat="43.55753" lon="3.32933">
        <ele>266.7</ele>
        <time>2017-12-09T12:43:33Z</time>
      </trkpt>
      <trkpt lat="43.55756" lon="3.32931">
        <ele>266.8</ele>
        <time>2017-12-09T12:43:34Z</time>
      </trkpt>
      <trkpt lat="43.55758" lon="3.32929">
        <ele>266.8</ele>
        <time>2017-12-09T12:43:35Z</time>
      </trkpt>
      <trkpt lat="43.5576" lon="3.32927">
        <ele>266.9</ele>
        <time>2017-12-09T12:43:36Z</time>
      </trkpt>
      <trkpt lat="43.55762" lon="3.32924">
        <ele>266.9</ele>
        <time>2017-12-09T12:43:37Z</time>
      </trkpt>
      <trkpt lat="43.55764" lon="3.3292">
        <ele>267</ele>
        <time>2017-12-09T12:43:38Z</time>
      </trkpt>
      <trkpt lat="43.55766" lon="3.32916">
        <ele>267.1</ele>
        <time>2017-12-09T12:43:39Z</time>
      </trkpt>
      <trkpt lat="43.55768" lon="3.32912">
        <ele>267.1</ele>
        <time>2017-12-09T12:43:40Z</time>
      </trkpt>
      <trkpt lat="43.5577" lon="3.32908">
        <ele>267.2</ele>
        <time>2017-12-09T12:43:41Z</time>
      </trkpt>
      <trkpt lat="43.55772" lon="3.32904">
        <ele>267.2</ele>
        <time>2017-12-09T12:43:42Z</time>
      </trkpt>
      <trkpt lat="43.55773" lon="3.329">
        <ele>267.3</ele>
        <time>2017-12-09T12:43:43Z</time>
      </trkpt>
      <trkpt lat="43.55775" lon="3.32897">
        <ele>267.3</ele>
        <time>2017-12-09T12:43:44Z</time>
      </trkpt>
      <trkpt lat="43.55778" lon="3.32891">
        <ele>267.4</ele>
        <time>2017-12-09T12:43:46Z</time>
      </trkpt>
      <trkpt lat="43.55779" lon="3.32887">
        <ele>267.5</ele>
        <time>2017-12-09T12:43:47Z</time>
      </trkpt>
      <trkpt lat="43.55782" lon="3.32881">
        <ele>267.7</ele>
        <time>2017-12-09T12:43:49Z</time>
      </trkpt>
      <trkpt lat="43.55783" lon="3.32876">
        <ele>267.7</ele>
        <time>2017-12-09T12:43:50Z</time>
      </trkpt>
      <trkpt lat="43.55785" lon="3.32872">
        <ele>267.9</ele>
        <time>2017-12-09T12:43:51Z</time>
      </trkpt>
      <trkpt lat="43.55787" lon="3.32868">
        <ele>268.2</ele>
        <time>2017-12-09T12:43:52Z</time>
      </trkpt>
      <trkpt lat="43.55789" lon="3.32863">
        <ele>268.4</ele>
        <time>2017-12-09T12:43:53Z</time>
      </trkpt>
      <trkpt lat="43.55791" lon="3.32859">
        <ele>268.6</ele>
        <time>2017-12-09T12:43:54Z</time>
      </trkpt>
      <trkpt lat="43.55793" lon="3.32855">
        <ele>268.8</ele>
        <time>2017-12-09T12:43:55Z</time>
      </trkpt>
      <trkpt lat="43.55794" lon="3.32852">
        <ele>268.9</ele>
        <time>2017-12-09T12:43:56Z</time>
      </trkpt>
      <trkpt lat="43.55796" lon="3.32848">
        <ele>268.9</ele>
        <time>2017-12-09T12:43:57Z</time>
      </trkpt>
      <trkpt lat="43.55798" lon="3.32844">
        <ele>269</ele>
        <time>2017-12-09T12:43:58Z</time>
      </trkpt>
      <trkpt lat="43.558" lon="3.32839">
        <ele>269</ele>
        <time>2017-12-09T12:43:59Z</time>
      </trkpt>
      <trkpt lat="43.55801" lon="3.32835">
        <ele>269.1</ele>
        <time>2017-12-09T12:44:00Z</time>
      </trkpt>
      <trkpt lat="43.55803" lon="3.32831">
        <ele>269.1</ele>
        <time>2017-12-09T12:44:01Z</time>
      </trkpt>
      <trkpt lat="43.55805" lon="3.32827">
        <ele>269.1</ele>
        <time>2017-12-09T12:44:02Z</time>
      </trkpt>
      <trkpt lat="43.55806" lon="3.32823">
        <ele>269.2</ele>
        <time>2017-12-09T12:44:03Z</time>
      </trkpt>
      <trkpt lat="43.55808" lon="3.3282">
        <ele>269.2</ele>
        <time>2017-12-09T12:44:04Z</time>
      </trkpt>
      <trkpt lat="43.5581" lon="3.32816">
        <ele>269.2</ele>
        <time>2017-12-09T12:44:05Z</time>
      </trkpt>
      <trkpt lat="43.55811" lon="3.32812">
        <ele>269.2</ele>
        <time>2017-12-09T12:44:06Z</time>
      </trkpt>
      <trkpt lat="43.55813" lon="3.32809">
        <ele>269.2</ele>
        <time>2017-12-09T12:44:07Z</time>
      </trkpt>
      <trkpt lat="43.55815" lon="3.32805">
        <ele>269.3</ele>
        <time>2017-12-09T12:44:08Z</time>
      </trkpt>
      <trkpt lat="43.55816" lon="3.32801">
        <ele>269.3</ele>
        <time>2017-12-09T12:44:09Z</time>
      </trkpt>
      <trkpt lat="43.55816" lon="3.32797">
        <ele>269.3</ele>
        <time>2017-12-09T12:44:10Z</time>
      </trkpt>
      <trkpt lat="43.55817" lon="3.32792">
        <ele>269.3</ele>
        <time>2017-12-09T12:44:11Z</time>
      </trkpt>
      <trkpt lat="43.55817" lon="3.32787">
        <ele>269.3</ele>
        <time>2017-12-09T12:44:12Z</time>
      </trkpt>
      <trkpt lat="43.55817" lon="3.32782">
        <ele>269.3</ele>
        <time>2017-12-09T12:44:13Z</time>
      </trkpt>
      <trkpt lat="43.55817" lon="3.32778">
        <ele>269.3</ele>
        <time>2017-12-09T12:44:14Z</time>
      </trkpt>
      <trkpt lat="43.55818" lon="3.32773">
        <ele>269.3</ele>
        <time>2017-12-09T12:44:15Z</time>
      </trkpt>
      <trkpt lat="43.55818" lon="3.32769">
        <ele>269.4</ele>
        <time>2017-12-09T12:44:16Z</time>
      </trkpt>
      <trkpt lat="43.55818" lon="3.32764">
        <ele>269.4</ele>
        <time>2017-12-09T12:44:17Z</time>
      </trkpt>
      <trkpt lat="43.55818" lon="3.32759">
        <ele>269.4</ele>
        <time>2017-12-09T12:44:18Z</time>
      </trkpt>
      <trkpt lat="43.55818" lon="3.32755">
        <ele>269.4</ele>
        <time>2017-12-09T12:44:19Z</time>
      </trkpt>
      <trkpt lat="43.55817" lon="3.32749">
        <ele>269.4</ele>
        <time>2017-12-09T12:44:20Z</time>
      </trkpt>
      <trkpt lat="43.55817" lon="3.32745">
        <ele>269.4</ele>
        <time>2017-12-09T12:44:21Z</time>
      </trkpt>
      <trkpt lat="43.55817" lon="3.32741">
        <ele>269.4</ele>
        <time>2017-12-09T12:44:22Z</time>
      </trkpt>
      <trkpt lat="43.55818" lon="3.32737">
        <ele>269.4</ele>
        <time>2017-12-09T12:44:23Z</time>
      </trkpt>
      <trkpt lat="43.5582" lon="3.32733">
        <ele>269.4</ele>
        <time>2017-12-09T12:44:24Z</time>
      </trkpt>
      <trkpt lat="43.5582" lon="3.32729">
        <ele>269.4</ele>
        <time>2017-12-09T12:44:25Z</time>
      </trkpt>
      <trkpt lat="43.55821" lon="3.32725">
        <ele>269.4</ele>
        <time>2017-12-09T12:44:26Z</time>
      </trkpt>
      <trkpt lat="43.55821" lon="3.32721">
        <ele>269.4</ele>
        <time>2017-12-09T12:44:27Z</time>
      </trkpt>
      <trkpt lat="43.55824" lon="3.32715">
        <ele>269.5</ele>
        <time>2017-12-09T12:44:29Z</time>
      </trkpt>
      <trkpt lat="43.55828" lon="3.3271">
        <ele>269.5</ele>
        <time>2017-12-09T12:44:31Z</time>
      </trkpt>
      <trkpt lat="43.5583" lon="3.32706">
        <ele>269.5</ele>
        <time>2017-12-09T12:44:32Z</time>
      </trkpt>
      <trkpt lat="43.55832" lon="3.32703">
        <ele>269.5</ele>
        <time>2017-12-09T12:44:33Z</time>
      </trkpt>
      <trkpt lat="43.55834" lon="3.32698">
        <ele>269.5</ele>
        <time>2017-12-09T12:44:34Z</time>
      </trkpt>
      <trkpt lat="43.55835" lon="3.32693">
        <ele>269.5</ele>
        <time>2017-12-09T12:44:35Z</time>
      </trkpt>
      <trkpt lat="43.55836" lon="3.32689">
        <ele>269.5</ele>
        <time>2017-12-09T12:44:36Z</time>
      </trkpt>
      <trkpt lat="43.55837" lon="3.32684">
        <ele>269.6</ele>
        <time>2017-12-09T12:44:37Z</time>
      </trkpt>
      <trkpt lat="43.55838" lon="3.32679">
        <ele>269.6</ele>
        <time>2017-12-09T12:44:38Z</time>
      </trkpt>
      <trkpt lat="43.55839" lon="3.32674">
        <ele>269.6</ele>
        <time>2017-12-09T12:44:39Z</time>
      </trkpt>
      <trkpt lat="43.55839" lon="3.32669">
        <ele>269.6</ele>
        <time>2017-12-09T12:44:40Z</time>
      </trkpt>
      <trkpt lat="43.5584" lon="3.32664">
        <ele>269.6</ele>
        <time>2017-12-09T12:44:41Z</time>
      </trkpt>
      <trkpt lat="43.55841" lon="3.32659">
        <ele>269.6</ele>
        <time>2017-12-09T12:44:42Z</time>
      </trkpt>
      <trkpt lat="43.55842" lon="3.32655">
        <ele>269.6</ele>
        <time>2017-12-09T12:44:43Z</time>
      </trkpt>
      <trkpt lat="43.55842" lon="3.3265">
        <ele>269.7</ele>
        <time>2017-12-09T12:44:44Z</time>
      </trkpt>
      <trkpt lat="43.55842" lon="3.32645">
        <ele>269.7</ele>
        <time>2017-12-09T12:44:45Z</time>
      </trkpt>
      <trkpt lat="43.55842" lon="3.3264">
        <ele>269.7</ele>
        <time>2017-12-09T12:44:46Z</time>
      </trkpt>
      <trkpt lat="43.55842" lon="3.32635">
        <ele>269.8</ele>
        <time>2017-12-09T12:44:47Z</time>
      </trkpt>
      <trkpt lat="43.55842" lon="3.3263">
        <ele>269.8</ele>
        <time>2017-12-09T12:44:48Z</time>
      </trkpt>
      <trkpt lat="43.55842" lon="3.32625">
        <ele>269.9</ele>
        <time>2017-12-09T12:44:49Z</time>
      </trkpt>
      <trkpt lat="43.55842" lon="3.3262">
        <ele>269.9</ele>
        <time>2017-12-09T12:44:50Z</time>
      </trkpt>
      <trkpt lat="43.55841" lon="3.32616">
        <ele>270</ele>
        <time>2017-12-09T12:44:51Z</time>
      </trkpt>
      <trkpt lat="43.55841" lon="3.32611">
        <ele>270</ele>
        <time>2017-12-09T12:44:52Z</time>
      </trkpt>
      <trkpt lat="43.5584" lon="3.32607">
        <ele>270.1</ele>
        <time>2017-12-09T12:44:53Z</time>
      </trkpt>
      <trkpt lat="43.5584" lon="3.32602">
        <ele>270.1</ele>
        <time>2017-12-09T12:44:54Z</time>
      </trkpt>
      <trkpt lat="43.5584" lon="3.32598">
        <ele>270.2</ele>
        <time>2017-12-09T12:44:55Z</time>
      </trkpt>
      <trkpt lat="43.55839" lon="3.32593">
        <ele>270.2</ele>
        <time>2017-12-09T12:44:56Z</time>
      </trkpt>
      <trkpt lat="43.55839" lon="3.32589">
        <ele>270.3</ele>
        <time>2017-12-09T12:44:57Z</time>
      </trkpt>
      <trkpt lat="43.55839" lon="3.32585">
        <ele>270.3</ele>
        <time>2017-12-09T12:44:58Z</time>
      </trkpt>
      <trkpt lat="43.55839" lon="3.3258">
        <ele>270.4</ele>
        <time>2017-12-09T12:44:59Z</time>
      </trkpt>
      <trkpt lat="43.55839" lon="3.32576">
        <ele>270.5</ele>
        <time>2017-12-09T12:45:00Z</time>
      </trkpt>
      <trkpt lat="43.55839" lon="3.32572">
        <ele>270.5</ele>
        <time>2017-12-09T12:45:01Z</time>
      </trkpt>
      <trkpt lat="43.55839" lon="3.32568">
        <ele>270.6</ele>
        <time>2017-12-09T12:45:02Z</time>
      </trkpt>
      <trkpt lat="43.55839" lon="3.32564">
        <ele>270.8</ele>
        <time>2017-12-09T12:45:03Z</time>
      </trkpt>
      <trkpt lat="43.55839" lon="3.32559">
        <ele>271</ele>
        <time>2017-12-09T12:45:04Z</time>
      </trkpt>
      <trkpt lat="43.55839" lon="3.32555">
        <ele>271.3</ele>
        <time>2017-12-09T12:45:05Z</time>
      </trkpt>
      <trkpt lat="43.55839" lon="3.32551">
        <ele>271.5</ele>
        <time>2017-12-09T12:45:06Z</time>
      </trkpt>
      <trkpt lat="43.55839" lon="3.32546">
        <ele>271.6</ele>
        <time>2017-12-09T12:45:07Z</time>
      </trkpt>
      <trkpt lat="43.55839" lon="3.32542">
        <ele>271.8</ele>
        <time>2017-12-09T12:45:08Z</time>
      </trkpt>
      <trkpt lat="43.55839" lon="3.32538">
        <ele>271.9</ele>
        <time>2017-12-09T12:45:09Z</time>
      </trkpt>
      <trkpt lat="43.55839" lon="3.32534">
        <ele>272</ele>
        <time>2017-12-09T12:45:10Z</time>
      </trkpt>
      <trkpt lat="43.55839" lon="3.3253">
        <ele>272</ele>
        <time>2017-12-09T12:45:11Z</time>
      </trkpt>
      <trkpt lat="43.55839" lon="3.32526">
        <ele>272.2</ele>
        <time>2017-12-09T12:45:12Z</time>
      </trkpt>
      <trkpt lat="43.55838" lon="3.32519">
        <ele>272.3</ele>
        <time>2017-12-09T12:45:14Z</time>
      </trkpt>
      <trkpt lat="43.55839" lon="3.32511">
        <ele>272.5</ele>
        <time>2017-12-09T12:45:16Z</time>
      </trkpt>
      <trkpt lat="43.55839" lon="3.32507">
        <ele>272.6</ele>
        <time>2017-12-09T12:45:17Z</time>
      </trkpt>
      <trkpt lat="43.55839" lon="3.32503">
        <ele>272.7</ele>
        <time>2017-12-09T12:45:18Z</time>
      </trkpt>
      <trkpt lat="43.55839" lon="3.32495">
        <ele>273</ele>
        <time>2017-12-09T12:45:20Z</time>
      </trkpt>
      <trkpt lat="43.55839" lon="3.32492">
        <ele>273.3</ele>
        <time>2017-12-09T12:45:21Z</time>
      </trkpt>
      <trkpt lat="43.55839" lon="3.32484">
        <ele>273.8</ele>
        <time>2017-12-09T12:45:23Z</time>
      </trkpt>
      <trkpt lat="43.55839" lon="3.32477">
        <ele>274.3</ele>
        <time>2017-12-09T12:45:25Z</time>
      </trkpt>
      <trkpt lat="43.55839" lon="3.3247">
        <ele>274.6</ele>
        <time>2017-12-09T12:45:27Z</time>
      </trkpt>
      <trkpt lat="43.55839" lon="3.32463">
        <ele>275.1</ele>
        <time>2017-12-09T12:45:29Z</time>
      </trkpt>
      <trkpt lat="43.55837" lon="3.32456">
        <ele>275.7</ele>
        <time>2017-12-09T12:45:31Z</time>
      </trkpt>
      <trkpt lat="43.55835" lon="3.3245">
        <ele>276.3</ele>
        <time>2017-12-09T12:45:33Z</time>
      </trkpt>
      <trkpt lat="43.55834" lon="3.32443">
        <ele>276.8</ele>
        <time>2017-12-09T12:45:35Z</time>
      </trkpt>
      <trkpt lat="43.55832" lon="3.32437">
        <ele>277.3</ele>
        <time>2017-12-09T12:45:37Z</time>
      </trkpt>
      <trkpt lat="43.55833" lon="3.32432">
        <ele>277.9</ele>
        <time>2017-12-09T12:45:39Z</time>
      </trkpt>
      <trkpt lat="43.55834" lon="3.32426">
        <ele>278.6</ele>
        <time>2017-12-09T12:45:41Z</time>
      </trkpt>
      <trkpt lat="43.55835" lon="3.32419">
        <ele>279.1</ele>
        <time>2017-12-09T12:45:43Z</time>
      </trkpt>
      <trkpt lat="43.55835" lon="3.32412">
        <ele>279.6</ele>
        <time>2017-12-09T12:45:45Z</time>
      </trkpt>
      <trkpt lat="43.55835" lon="3.32406">
        <ele>280.4</ele>
        <time>2017-12-09T12:45:47Z</time>
      </trkpt>
      <trkpt lat="43.55834" lon="3.32399">
        <ele>281.3</ele>
        <time>2017-12-09T12:45:49Z</time>
      </trkpt>
      <trkpt lat="43.55832" lon="3.32393">
        <ele>281.9</ele>
        <time>2017-12-09T12:45:51Z</time>
      </trkpt>
      <trkpt lat="43.55828" lon="3.32389">
        <ele>282.1</ele>
        <time>2017-12-09T12:45:53Z</time>
      </trkpt>
      <trkpt lat="43.55824" lon="3.32385">
        <ele>282.4</ele>
        <time>2017-12-09T12:45:55Z</time>
      </trkpt>
      <trkpt lat="43.5582" lon="3.32381">
        <ele>283</ele>
        <time>2017-12-09T12:45:57Z</time>
      </trkpt>
      <trkpt lat="43.55817" lon="3.32375">
        <ele>283.6</ele>
        <time>2017-12-09T12:45:59Z</time>
      </trkpt>
      <trkpt lat="43.55814" lon="3.32369">
        <ele>283.9</ele>
        <time>2017-12-09T12:46:01Z</time>
      </trkpt>
      <trkpt lat="43.55813" lon="3.32366">
        <ele>284</ele>
        <time>2017-12-09T12:46:02Z</time>
      </trkpt>
      <trkpt lat="43.55812" lon="3.32362">
        <ele>284.1</ele>
        <time>2017-12-09T12:46:03Z</time>
      </trkpt>
      <trkpt lat="43.55811" lon="3.32356">
        <ele>284.2</ele>
        <time>2017-12-09T12:46:05Z</time>
      </trkpt>
      <trkpt lat="43.5581" lon="3.3235">
        <ele>284.2</ele>
        <time>2017-12-09T12:46:07Z</time>
      </trkpt>
      <trkpt lat="43.5581" lon="3.32344">
        <ele>284.3</ele>
        <time>2017-12-09T12:46:09Z</time>
      </trkpt>
      <trkpt lat="43.5581" lon="3.32338">
        <ele>284.3</ele>
        <time>2017-12-09T12:46:11Z</time>
      </trkpt>
      <trkpt lat="43.55809" lon="3.32333">
        <ele>284.3</ele>
        <time>2017-12-09T12:46:13Z</time>
      </trkpt>
      <trkpt lat="43.55807" lon="3.32328">
        <ele>284.4</ele>
        <time>2017-12-09T12:46:15Z</time>
      </trkpt>
      <trkpt lat="43.55802" lon="3.32325">
        <ele>284.4</ele>
        <time>2017-12-09T12:46:17Z</time>
      </trkpt>
      <trkpt lat="43.55799" lon="3.32323">
        <ele>284.4</ele>
        <time>2017-12-09T12:46:18Z</time>
      </trkpt>
      <trkpt lat="43.55797" lon="3.32321">
        <ele>284.4</ele>
        <time>2017-12-09T12:46:19Z</time>
      </trkpt>
      <trkpt lat="43.55794" lon="3.32319">
        <ele>284.4</ele>
        <time>2017-12-09T12:46:20Z</time>
      </trkpt>
      <trkpt lat="43.5579" lon="3.32316">
        <ele>284.5</ele>
        <time>2017-12-09T12:46:21Z</time>
      </trkpt>
      <trkpt lat="43.55787" lon="3.32313">
        <ele>284.5</ele>
        <time>2017-12-09T12:46:22Z</time>
      </trkpt>
      <trkpt lat="43.55784" lon="3.3231">
        <ele>284.5</ele>
        <time>2017-12-09T12:46:23Z</time>
      </trkpt>
      <trkpt lat="43.55781" lon="3.32305">
        <ele>284.5</ele>
        <time>2017-12-09T12:46:24Z</time>
      </trkpt>
      <trkpt lat="43.55778" lon="3.323">
        <ele>284.5</ele>
        <time>2017-12-09T12:46:25Z</time>
      </trkpt>
      <trkpt lat="43.55777" lon="3.32294">
        <ele>284.5</ele>
        <time>2017-12-09T12:46:26Z</time>
      </trkpt>
      <trkpt lat="43.55775" lon="3.32289">
        <ele>284.4</ele>
        <time>2017-12-09T12:46:27Z</time>
      </trkpt>
      <trkpt lat="43.55774" lon="3.32283">
        <ele>284.4</ele>
        <time>2017-12-09T12:46:28Z</time>
      </trkpt>
      <trkpt lat="43.55771" lon="3.32278">
        <ele>284.4</ele>
        <time>2017-12-09T12:46:29Z</time>
      </trkpt>
      <trkpt lat="43.55768" lon="3.32271">
        <ele>284.3</ele>
        <time>2017-12-09T12:46:30Z</time>
      </trkpt>
      <trkpt lat="43.55764" lon="3.32265">
        <ele>284.3</ele>
        <time>2017-12-09T12:46:31Z</time>
      </trkpt>
      <trkpt lat="43.55761" lon="3.32258">
        <ele>284.2</ele>
        <time>2017-12-09T12:46:32Z</time>
      </trkpt>
      <trkpt lat="43.55757" lon="3.32253">
        <ele>284.1</ele>
        <time>2017-12-09T12:46:33Z</time>
      </trkpt>
      <trkpt lat="43.55753" lon="3.32247">
        <ele>284</ele>
        <time>2017-12-09T12:46:34Z</time>
      </trkpt>
      <trkpt lat="43.5575" lon="3.32241">
        <ele>283.9</ele>
        <time>2017-12-09T12:46:35Z</time>
      </trkpt>
      <trkpt lat="43.55746" lon="3.32237">
        <ele>283.7</ele>
        <time>2017-12-09T12:46:36Z</time>
      </trkpt>
      <trkpt lat="43.55742" lon="3.32232">
        <ele>283.4</ele>
        <time>2017-12-09T12:46:37Z</time>
      </trkpt>
      <trkpt lat="43.55741" lon="3.32228">
        <ele>283.2</ele>
        <time>2017-12-09T12:46:38Z</time>
      </trkpt>
      <trkpt lat="43.55741" lon="3.32222">
        <ele>283.1</ele>
        <time>2017-12-09T12:46:40Z</time>
      </trkpt>
      <trkpt lat="43.55746" lon="3.32218">
        <ele>283.1</ele>
        <time>2017-12-09T12:46:42Z</time>
      </trkpt>
      <trkpt lat="43.5575" lon="3.32215">
        <ele>283.2</ele>
        <time>2017-12-09T12:46:44Z</time>
      </trkpt>
      <trkpt lat="43.55752" lon="3.32213">
        <ele>283.3</ele>
        <time>2017-12-09T12:46:45Z</time>
      </trkpt>
      <trkpt lat="43.55756" lon="3.32209">
        <ele>283.4</ele>
        <time>2017-12-09T12:46:47Z</time>
      </trkpt>
      <trkpt lat="43.55759" lon="3.32205">
        <ele>283.5</ele>
        <time>2017-12-09T12:46:49Z</time>
      </trkpt>
      <trkpt lat="43.55762" lon="3.32201">
        <ele>283.6</ele>
        <time>2017-12-09T12:46:51Z</time>
      </trkpt>
      <trkpt lat="43.55766" lon="3.32196">
        <ele>284</ele>
        <time>2017-12-09T12:46:53Z</time>
      </trkpt>
      <trkpt lat="43.55768" lon="3.32193">
        <ele>284.3</ele>
        <time>2017-12-09T12:46:54Z</time>
      </trkpt>
      <trkpt lat="43.55771" lon="3.32188">
        <ele>284.7</ele>
        <time>2017-12-09T12:46:56Z</time>
      </trkpt>
      <trkpt lat="43.55774" lon="3.32185">
        <ele>285</ele>
        <time>2017-12-09T12:46:58Z</time>
      </trkpt>
      <trkpt lat="43.55777" lon="3.32181">
        <ele>285.2</ele>
        <time>2017-12-09T12:47:00Z</time>
      </trkpt>
      <trkpt lat="43.5578" lon="3.32176">
        <ele>285.3</ele>
        <time>2017-12-09T12:47:02Z</time>
      </trkpt>
      <trkpt lat="43.55784" lon="3.32171">
        <ele>285.6</ele>
        <time>2017-12-09T12:47:04Z</time>
      </trkpt>
      <trkpt lat="43.55788" lon="3.3217">
        <ele>285.8</ele>
        <time>2017-12-09T12:47:06Z</time>
      </trkpt>
      <trkpt lat="43.55793" lon="3.32169">
        <ele>286.2</ele>
        <time>2017-12-09T12:47:08Z</time>
      </trkpt>
      <trkpt lat="43.55797" lon="3.32167">
        <ele>286.5</ele>
        <time>2017-12-09T12:47:10Z</time>
      </trkpt>
      <trkpt lat="43.55801" lon="3.32164">
        <ele>286.9</ele>
        <time>2017-12-09T12:47:12Z</time>
      </trkpt>
      <trkpt lat="43.55804" lon="3.3216">
        <ele>287.1</ele>
        <time>2017-12-09T12:47:14Z</time>
      </trkpt>
      <trkpt lat="43.55807" lon="3.32156">
        <ele>287.2</ele>
        <time>2017-12-09T12:47:16Z</time>
      </trkpt>
      <trkpt lat="43.5581" lon="3.32152">
        <ele>287.4</ele>
        <time>2017-12-09T12:47:18Z</time>
      </trkpt>
      <trkpt lat="43.55815" lon="3.3215">
        <ele>287.5</ele>
        <time>2017-12-09T12:47:20Z</time>
      </trkpt>
      <trkpt lat="43.55817" lon="3.32148">
        <ele>287.5</ele>
        <time>2017-12-09T12:47:21Z</time>
      </trkpt>
      <trkpt lat="43.5582" lon="3.32145">
        <ele>287.6</ele>
        <time>2017-12-09T12:47:22Z</time>
      </trkpt>
      <trkpt lat="43.55823" lon="3.3214">
        <ele>287.7</ele>
        <time>2017-12-09T12:47:24Z</time>
      </trkpt>
      <trkpt lat="43.55825" lon="3.32133">
        <ele>287.8</ele>
        <time>2017-12-09T12:47:26Z</time>
      </trkpt>
      <trkpt lat="43.55828" lon="3.32124">
        <ele>288.1</ele>
        <time>2017-12-09T12:47:28Z</time>
      </trkpt>
      <trkpt lat="43.55829" lon="3.32121">
        <ele>288.3</ele>
        <time>2017-12-09T12:47:29Z</time>
      </trkpt>
      <trkpt lat="43.55831" lon="3.32115">
        <ele>288.8</ele>
        <time>2017-12-09T12:47:31Z</time>
      </trkpt>
      <trkpt lat="43.55832" lon="3.32111">
        <ele>289.1</ele>
        <time>2017-12-09T12:47:32Z</time>
      </trkpt>
      <trkpt lat="43.55833" lon="3.32104">
        <ele>289.7</ele>
        <time>2017-12-09T12:47:34Z</time>
      </trkpt>
      <trkpt lat="43.55834" lon="3.32097">
        <ele>290.2</ele>
        <time>2017-12-09T12:47:36Z</time>
      </trkpt>
      <trkpt lat="43.55834" lon="3.32091">
        <ele>290.5</ele>
        <time>2017-12-09T12:47:38Z</time>
      </trkpt>
      <trkpt lat="43.55835" lon="3.32085">
        <ele>291</ele>
        <time>2017-12-09T12:47:40Z</time>
      </trkpt>
      <trkpt lat="43.55836" lon="3.3208">
        <ele>291.6</ele>
        <time>2017-12-09T12:47:42Z</time>
      </trkpt>
      <trkpt lat="43.55837" lon="3.32074">
        <ele>292.1</ele>
        <time>2017-12-09T12:47:44Z</time>
      </trkpt>
      <trkpt lat="43.55837" lon="3.32068">
        <ele>292.4</ele>
        <time>2017-12-09T12:47:46Z</time>
      </trkpt>
      <trkpt lat="43.55836" lon="3.32063">
        <ele>292.8</ele>
        <time>2017-12-09T12:47:48Z</time>
      </trkpt>
      <trkpt lat="43.55836" lon="3.32057">
        <ele>293.4</ele>
        <time>2017-12-09T12:47:50Z</time>
      </trkpt>
      <trkpt lat="43.55835" lon="3.32049">
        <ele>294.1</ele>
        <time>2017-12-09T12:47:52Z</time>
      </trkpt>
      <trkpt lat="43.55835" lon="3.32043">
        <ele>294.5</ele>
        <time>2017-12-09T12:47:54Z</time>
      </trkpt>
      <trkpt lat="43.55836" lon="3.32037">
        <ele>294.8</ele>
        <time>2017-12-09T12:47:56Z</time>
      </trkpt>
      <trkpt lat="43.55837" lon="3.32031">
        <ele>295.2</ele>
        <time>2017-12-09T12:47:58Z</time>
      </trkpt>
      <trkpt lat="43.55838" lon="3.32025">
        <ele>295.7</ele>
        <time>2017-12-09T12:48:00Z</time>
      </trkpt>
      <trkpt lat="43.55839" lon="3.32018">
        <ele>296.2</ele>
        <time>2017-12-09T12:48:02Z</time>
      </trkpt>
      <trkpt lat="43.55839" lon="3.32012">
        <ele>296.3</ele>
        <time>2017-12-09T12:48:04Z</time>
      </trkpt>
      <trkpt lat="43.5584" lon="3.32005">
        <ele>296.5</ele>
        <time>2017-12-09T12:48:06Z</time>
      </trkpt>
      <trkpt lat="43.55842" lon="3.31998">
        <ele>296.7</ele>
        <time>2017-12-09T12:48:08Z</time>
      </trkpt>
      <trkpt lat="43.55843" lon="3.31992">
        <ele>296.9</ele>
        <time>2017-12-09T12:48:10Z</time>
      </trkpt>
      <trkpt lat="43.55844" lon="3.31986">
        <ele>297.3</ele>
        <time>2017-12-09T12:48:12Z</time>
      </trkpt>
      <trkpt lat="43.55843" lon="3.31979">
        <ele>297.9</ele>
        <time>2017-12-09T12:48:14Z</time>
      </trkpt>
      <trkpt lat="43.55843" lon="3.31973">
        <ele>298.4</ele>
        <time>2017-12-09T12:48:16Z</time>
      </trkpt>
      <trkpt lat="43.55843" lon="3.31967">
        <ele>298.9</ele>
        <time>2017-12-09T12:48:18Z</time>
      </trkpt>
      <trkpt lat="43.55844" lon="3.31961">
        <ele>299.2</ele>
        <time>2017-12-09T12:48:20Z</time>
      </trkpt>
      <trkpt lat="43.55846" lon="3.31955">
        <ele>299.4</ele>
        <time>2017-12-09T12:48:22Z</time>
      </trkpt>
      <trkpt lat="43.55847" lon="3.3195">
        <ele>299.7</ele>
        <time>2017-12-09T12:48:24Z</time>
      </trkpt>
      <trkpt lat="43.55848" lon="3.31944">
        <ele>300.1</ele>
        <time>2017-12-09T12:48:26Z</time>
      </trkpt>
      <trkpt lat="43.55849" lon="3.31938">
        <ele>300.7</ele>
        <time>2017-12-09T12:48:28Z</time>
      </trkpt>
      <trkpt lat="43.5585" lon="3.31932">
        <ele>301.2</ele>
        <time>2017-12-09T12:48:30Z</time>
      </trkpt>
      <trkpt lat="43.5585" lon="3.31925">
        <ele>301.5</ele>
        <time>2017-12-09T12:48:32Z</time>
      </trkpt>
      <trkpt lat="43.55849" lon="3.3192">
        <ele>301.7</ele>
        <time>2017-12-09T12:48:34Z</time>
      </trkpt>
      <trkpt lat="43.55849" lon="3.31914">
        <ele>302</ele>
        <time>2017-12-09T12:48:36Z</time>
      </trkpt>
      <trkpt lat="43.55848" lon="3.31909">
        <ele>302.4</ele>
        <time>2017-12-09T12:48:38Z</time>
      </trkpt>
      <trkpt lat="43.55847" lon="3.31903">
        <ele>302.9</ele>
        <time>2017-12-09T12:48:40Z</time>
      </trkpt>
      <trkpt lat="43.55847" lon="3.31898">
        <ele>303.4</ele>
        <time>2017-12-09T12:48:42Z</time>
      </trkpt>
      <trkpt lat="43.55845" lon="3.31894">
        <ele>303.9</ele>
        <time>2017-12-09T12:48:44Z</time>
      </trkpt>
      <trkpt lat="43.55843" lon="3.31889">
        <ele>304.6</ele>
        <time>2017-12-09T12:48:46Z</time>
      </trkpt>
      <trkpt lat="43.55841" lon="3.31884">
        <ele>305.5</ele>
        <time>2017-12-09T12:48:48Z</time>
      </trkpt>
      <trkpt lat="43.55839" lon="3.31879">
        <ele>306.2</ele>
        <time>2017-12-09T12:48:50Z</time>
      </trkpt>
      <trkpt lat="43.55837" lon="3.31875">
        <ele>306.9</ele>
        <time>2017-12-09T12:48:52Z</time>
      </trkpt>
      <trkpt lat="43.55836" lon="3.3187">
        <ele>307.7</ele>
        <time>2017-12-09T12:48:54Z</time>
      </trkpt>
      <trkpt lat="43.55834" lon="3.31865">
        <ele>308.2</ele>
        <time>2017-12-09T12:48:56Z</time>
      </trkpt>
      <trkpt lat="43.55834" lon="3.31861">
        <ele>308.5</ele>
        <time>2017-12-09T12:48:58Z</time>
      </trkpt>
      <trkpt lat="43.55833" lon="3.31856">
        <ele>308.9</ele>
        <time>2017-12-09T12:49:00Z</time>
      </trkpt>
      <trkpt lat="43.55832" lon="3.31852">
        <ele>309.5</ele>
        <time>2017-12-09T12:49:02Z</time>
      </trkpt>
      <trkpt lat="43.55831" lon="3.31848">
        <ele>310.1</ele>
        <time>2017-12-09T12:49:04Z</time>
      </trkpt>
      <trkpt lat="43.55829" lon="3.31843">
        <ele>310.5</ele>
        <time>2017-12-09T12:49:06Z</time>
      </trkpt>
      <trkpt lat="43.55828" lon="3.31838">
        <ele>310.8</ele>
        <time>2017-12-09T12:49:08Z</time>
      </trkpt>
      <trkpt lat="43.55827" lon="3.31834">
        <ele>311.1</ele>
        <time>2017-12-09T12:49:10Z</time>
      </trkpt>
      <trkpt lat="43.55826" lon="3.31829">
        <ele>311.6</ele>
        <time>2017-12-09T12:49:12Z</time>
      </trkpt>
      <trkpt lat="43.55825" lon="3.31824">
        <ele>312.1</ele>
        <time>2017-12-09T12:49:14Z</time>
      </trkpt>
      <trkpt lat="43.55824" lon="3.3182">
        <ele>312.4</ele>
        <time>2017-12-09T12:49:16Z</time>
      </trkpt>
      <trkpt lat="43.55823" lon="3.31815">
        <ele>312.6</ele>
        <time>2017-12-09T12:49:18Z</time>
      </trkpt>
      <trkpt lat="43.55822" lon="3.3181">
        <ele>312.9</ele>
        <time>2017-12-09T12:49:20Z</time>
      </trkpt>
      <trkpt lat="43.55822" lon="3.31804">
        <ele>313.1</ele>
        <time>2017-12-09T12:49:22Z</time>
      </trkpt>
      <trkpt lat="43.55822" lon="3.31799">
        <ele>313.3</ele>
        <time>2017-12-09T12:49:24Z</time>
      </trkpt>
      <trkpt lat="43.55822" lon="3.31794">
        <ele>313.7</ele>
        <time>2017-12-09T12:49:26Z</time>
      </trkpt>
      <trkpt lat="43.55822" lon="3.31788">
        <ele>314.1</ele>
        <time>2017-12-09T12:49:28Z</time>
      </trkpt>
      <trkpt lat="43.5582" lon="3.31781">
        <ele>314.4</ele>
        <time>2017-12-09T12:49:30Z</time>
      </trkpt>
      <trkpt lat="43.55818" lon="3.31776">
        <ele>314.5</ele>
        <time>2017-12-09T12:49:32Z</time>
      </trkpt>
      <trkpt lat="43.55814" lon="3.31773">
        <ele>314.6</ele>
        <time>2017-12-09T12:49:34Z</time>
      </trkpt>
      <trkpt lat="43.5581" lon="3.31771">
        <ele>314.8</ele>
        <time>2017-12-09T12:49:36Z</time>
      </trkpt>
      <trkpt lat="43.55807" lon="3.31769">
        <ele>314.9</ele>
        <time>2017-12-09T12:49:38Z</time>
      </trkpt>
      <trkpt lat="43.55803" lon="3.31766">
        <ele>315.1</ele>
        <time>2017-12-09T12:49:40Z</time>
      </trkpt>
      <trkpt lat="43.558" lon="3.3176">
        <ele>315.3</ele>
        <time>2017-12-09T12:49:42Z</time>
      </trkpt>
      <trkpt lat="43.55798" lon="3.31755">
        <ele>315.5</ele>
        <time>2017-12-09T12:49:44Z</time>
      </trkpt>
      <trkpt lat="43.55795" lon="3.31751">
        <ele>315.8</ele>
        <time>2017-12-09T12:49:46Z</time>
      </trkpt>
      <trkpt lat="43.55792" lon="3.31746">
        <ele>316.1</ele>
        <time>2017-12-09T12:49:48Z</time>
      </trkpt>
      <trkpt lat="43.55789" lon="3.31742">
        <ele>316.4</ele>
        <time>2017-12-09T12:49:50Z</time>
      </trkpt>
      <trkpt lat="43.55786" lon="3.31738">
        <ele>316.4</ele>
        <time>2017-12-09T12:49:52Z</time>
      </trkpt>
      <trkpt lat="43.55783" lon="3.31734">
        <ele>316.5</ele>
        <time>2017-12-09T12:49:54Z</time>
      </trkpt>
      <trkpt lat="43.55781" lon="3.3173">
        <ele>316.6</ele>
        <time>2017-12-09T12:49:55Z</time>
      </trkpt>
      <trkpt lat="43.55779" lon="3.31727">
        <ele>316.6</ele>
        <time>2017-12-09T12:49:56Z</time>
      </trkpt>
      <trkpt lat="43.55777" lon="3.31724">
        <ele>316.7</ele>
        <time>2017-12-09T12:49:57Z</time>
      </trkpt>
      <trkpt lat="43.55775" lon="3.31721">
        <ele>316.7</ele>
        <time>2017-12-09T12:49:58Z</time>
      </trkpt>
      <trkpt lat="43.55773" lon="3.31719">
        <ele>316.7</ele>
        <time>2017-12-09T12:49:59Z</time>
      </trkpt>
      <trkpt lat="43.5577" lon="3.31719">
        <ele>316.8</ele>
        <time>2017-12-09T12:50:00Z</time>
      </trkpt>
      <trkpt lat="43.55767" lon="3.31719">
        <ele>316.8</ele>
        <time>2017-12-09T12:50:01Z</time>
      </trkpt>
      <trkpt lat="43.55762" lon="3.31719">
        <ele>316.9</ele>
        <time>2017-12-09T12:50:03Z</time>
      </trkpt>
      <trkpt lat="43.55757" lon="3.31718">
        <ele>316.9</ele>
        <time>2017-12-09T12:50:05Z</time>
      </trkpt>
      <trkpt lat="43.55752" lon="3.31718">
        <ele>316.9</ele>
        <time>2017-12-09T12:50:07Z</time>
      </trkpt>
      <trkpt lat="43.55747" lon="3.31715">
        <ele>316.9</ele>
        <time>2017-12-09T12:50:09Z</time>
      </trkpt>
      <trkpt lat="43.55744" lon="3.3171">
        <ele>316.9</ele>
        <time>2017-12-09T12:50:11Z</time>
      </trkpt>
      <trkpt lat="43.55741" lon="3.31705">
        <ele>316.9</ele>
        <time>2017-12-09T12:50:13Z</time>
      </trkpt>
      <trkpt lat="43.5574" lon="3.31701">
        <ele>317</ele>
        <time>2017-12-09T12:50:15Z</time>
      </trkpt>
      <trkpt lat="43.55739" lon="3.31696">
        <ele>317</ele>
        <time>2017-12-09T12:50:17Z</time>
      </trkpt>
      <trkpt lat="43.55738" lon="3.31693">
        <ele>317</ele>
        <time>2017-12-09T12:50:19Z</time>
      </trkpt>
      <trkpt lat="43.55738" lon="3.31688">
        <ele>317</ele>
        <time>2017-12-09T12:50:22Z</time>
      </trkpt>
      <trkpt lat="43.55739" lon="3.31683">
        <ele>317</ele>
        <time>2017-12-09T12:50:25Z</time>
      </trkpt>
      <trkpt lat="43.55742" lon="3.31681">
        <ele>317</ele>
        <time>2017-12-09T12:50:28Z</time>
      </trkpt>
      <trkpt lat="43.55745" lon="3.31681">
        <ele>317</ele>
        <time>2017-12-09T12:50:30Z</time>
      </trkpt>
      <trkpt lat="43.55746" lon="3.31684">
        <ele>317</ele>
        <time>2017-12-09T12:50:32Z</time>
      </trkpt>
      <trkpt lat="43.55746" lon="3.31688">
        <ele>317</ele>
        <time>2017-12-09T12:50:34Z</time>
      </trkpt>
      <trkpt lat="43.55743" lon="3.3169">
        <ele>317</ele>
        <time>2017-12-09T12:50:36Z</time>
      </trkpt>
      <trkpt lat="43.5574" lon="3.31688">
        <ele>317</ele>
        <time>2017-12-09T12:50:38Z</time>
      </trkpt>
      <trkpt lat="43.55739" lon="3.31684">
        <ele>317</ele>
        <time>2017-12-09T12:50:40Z</time>
      </trkpt>
      <trkpt lat="43.55742" lon="3.3168">
        <ele>317</ele>
        <time>2017-12-09T12:50:43Z</time>
      </trkpt>
      <trkpt lat="43.55745" lon="3.31682">
        <ele>317</ele>
        <time>2017-12-09T12:50:45Z</time>
      </trkpt>
      <trkpt lat="43.55745" lon="3.31687">
        <ele>317</ele>
        <time>2017-12-09T12:50:47Z</time>
      </trkpt>
      <trkpt lat="43.55742" lon="3.31689">
        <ele>317</ele>
        <time>2017-12-09T12:50:49Z</time>
      </trkpt>
      <trkpt lat="43.5574" lon="3.31685">
        <ele>317</ele>
        <time>2017-12-09T12:50:51Z</time>
      </trkpt>
      <trkpt lat="43.55741" lon="3.31682">
        <ele>317</ele>
        <time>2017-12-09T12:50:53Z</time>
      </trkpt>
      <trkpt lat="43.55744" lon="3.31682">
        <ele>317</ele>
        <time>2017-12-09T12:50:55Z</time>
      </trkpt>
      <trkpt lat="43.55743" lon="3.31688">
        <ele>317</ele>
        <time>2017-12-09T12:50:58Z</time>
      </trkpt>
      <trkpt lat="43.55741" lon="3.31689">
        <ele>317</ele>
        <time>2017-12-09T12:51:00Z</time>
      </trkpt>
      <trkpt lat="43.55739" lon="3.31684">
        <ele>316.6</ele>
        <time>2017-12-09T12:51:03Z</time>
      </trkpt>
      <trkpt lat="43.55741" lon="3.31681">
        <ele>316.4</ele>
        <time>2017-12-09T12:51:05Z</time>
      </trkpt>
      <trkpt lat="43.55745" lon="3.31679">
        <ele>316.2</ele>
        <time>2017-12-09T12:51:07Z</time>
      </trkpt>
      <trkpt lat="43.55749" lon="3.31677">
        <ele>315.9</ele>
        <time>2017-12-09T12:51:09Z</time>
      </trkpt>
      <trkpt lat="43.55752" lon="3.31676">
        <ele>315.7</ele>
        <time>2017-12-09T12:51:11Z</time>
      </trkpt>
      <trkpt lat="43.55754" lon="3.31673">
        <ele>315.5</ele>
        <time>2017-12-09T12:51:13Z</time>
      </trkpt>
      <trkpt lat="43.55754" lon="3.31666">
        <ele>315</ele>
        <time>2017-12-09T12:51:15Z</time>
      </trkpt>
      <trkpt lat="43.55754" lon="3.31663">
        <ele>314.7</ele>
        <time>2017-12-09T12:51:16Z</time>
      </trkpt>
      <trkpt lat="43.55753" lon="3.31659">
        <ele>314.2</ele>
        <time>2017-12-09T12:51:17Z</time>
      </trkpt>
      <trkpt lat="43.55753" lon="3.31651">
        <ele>313.4</ele>
        <time>2017-12-09T12:51:19Z</time>
      </trkpt>
      <trkpt lat="43.55751" lon="3.31645">
        <ele>312.8</ele>
        <time>2017-12-09T12:51:21Z</time>
      </trkpt>
      <trkpt lat="43.55749" lon="3.3164">
        <ele>312.3</ele>
        <time>2017-12-09T12:51:23Z</time>
      </trkpt>
      <trkpt lat="43.55751" lon="3.31635">
        <ele>312</ele>
        <time>2017-12-09T12:51:25Z</time>
      </trkpt>
      <trkpt lat="43.55752" lon="3.31631">
        <ele>311.8</ele>
        <time>2017-12-09T12:51:26Z</time>
      </trkpt>
      <trkpt lat="43.55753" lon="3.31627">
        <ele>311.5</ele>
        <time>2017-12-09T12:51:27Z</time>
      </trkpt>
      <trkpt lat="43.55753" lon="3.31623">
        <ele>311.3</ele>
        <time>2017-12-09T12:51:28Z</time>
      </trkpt>
      <trkpt lat="43.55753" lon="3.31617">
        <ele>310.8</ele>
        <time>2017-12-09T12:51:29Z</time>
      </trkpt>
      <trkpt lat="43.55753" lon="3.31611">
        <ele>310.3</ele>
        <time>2017-12-09T12:51:30Z</time>
      </trkpt>
      <trkpt lat="43.55755" lon="3.31609">
        <ele>309.9</ele>
        <time>2017-12-09T12:51:31Z</time>
      </trkpt>
      <trkpt lat="43.55758" lon="3.31607">
        <ele>309.5</ele>
        <time>2017-12-09T12:51:32Z</time>
      </trkpt>
      <trkpt lat="43.55761" lon="3.31604">
        <ele>309.1</ele>
        <time>2017-12-09T12:51:33Z</time>
      </trkpt>
      <trkpt lat="43.55762" lon="3.31599">
        <ele>308.6</ele>
        <time>2017-12-09T12:51:34Z</time>
      </trkpt>
      <trkpt lat="43.55764" lon="3.31593">
        <ele>308.2</ele>
        <time>2017-12-09T12:51:35Z</time>
      </trkpt>
      <trkpt lat="43.55765" lon="3.31587">
        <ele>308</ele>
        <time>2017-12-09T12:51:36Z</time>
      </trkpt>
      <trkpt lat="43.55766" lon="3.31581">
        <ele>307.9</ele>
        <time>2017-12-09T12:51:37Z</time>
      </trkpt>
      <trkpt lat="43.55767" lon="3.31575">
        <ele>307.8</ele>
        <time>2017-12-09T12:51:38Z</time>
      </trkpt>
      <trkpt lat="43.55767" lon="3.31569">
        <ele>307.7</ele>
        <time>2017-12-09T12:51:39Z</time>
      </trkpt>
      <trkpt lat="43.55768" lon="3.31563">
        <ele>307.6</ele>
        <time>2017-12-09T12:51:40Z</time>
      </trkpt>
      <trkpt lat="43.55768" lon="3.31558">
        <ele>307.5</ele>
        <time>2017-12-09T12:51:41Z</time>
      </trkpt>
      <trkpt lat="43.55769" lon="3.31553">
        <ele>307.4</ele>
        <time>2017-12-09T12:51:42Z</time>
      </trkpt>
      <trkpt lat="43.55769" lon="3.31548">
        <ele>307.3</ele>
        <time>2017-12-09T12:51:43Z</time>
      </trkpt>
      <trkpt lat="43.55769" lon="3.31543">
        <ele>307.2</ele>
        <time>2017-12-09T12:51:44Z</time>
      </trkpt>
      <trkpt lat="43.55769" lon="3.31538">
        <ele>307.1</ele>
        <time>2017-12-09T12:51:45Z</time>
      </trkpt>
      <trkpt lat="43.5577" lon="3.31534">
        <ele>307</ele>
        <time>2017-12-09T12:51:46Z</time>
      </trkpt>
      <trkpt lat="43.5577" lon="3.31529">
        <ele>306.8</ele>
        <time>2017-12-09T12:51:47Z</time>
      </trkpt>
      <trkpt lat="43.55771" lon="3.31524">
        <ele>306.7</ele>
        <time>2017-12-09T12:51:48Z</time>
      </trkpt>
      <trkpt lat="43.55771" lon="3.3152">
        <ele>306.6</ele>
        <time>2017-12-09T12:51:49Z</time>
      </trkpt>
      <trkpt lat="43.55772" lon="3.31516">
        <ele>306.6</ele>
        <time>2017-12-09T12:51:50Z</time>
      </trkpt>
      <trkpt lat="43.55772" lon="3.31512">
        <ele>306.5</ele>
        <time>2017-12-09T12:51:51Z</time>
      </trkpt>
      <trkpt lat="43.55772" lon="3.31507">
        <ele>306.4</ele>
        <time>2017-12-09T12:51:52Z</time>
      </trkpt>
      <trkpt lat="43.55772" lon="3.31502">
        <ele>306.3</ele>
        <time>2017-12-09T12:51:53Z</time>
      </trkpt>
      <trkpt lat="43.55772" lon="3.31497">
        <ele>306.2</ele>
        <time>2017-12-09T12:51:54Z</time>
      </trkpt>
      <trkpt lat="43.55772" lon="3.31492">
        <ele>306.1</ele>
        <time>2017-12-09T12:51:55Z</time>
      </trkpt>
      <trkpt lat="43.55772" lon="3.31487">
        <ele>306</ele>
        <time>2017-12-09T12:51:56Z</time>
      </trkpt>
      <trkpt lat="43.55773" lon="3.31481">
        <ele>305.9</ele>
        <time>2017-12-09T12:51:57Z</time>
      </trkpt>
      <trkpt lat="43.55773" lon="3.31476">
        <ele>305.8</ele>
        <time>2017-12-09T12:51:58Z</time>
      </trkpt>
      <trkpt lat="43.55774" lon="3.31471">
        <ele>305.7</ele>
        <time>2017-12-09T12:51:59Z</time>
      </trkpt>
      <trkpt lat="43.55775" lon="3.31466">
        <ele>305.6</ele>
        <time>2017-12-09T12:52:00Z</time>
      </trkpt>
      <trkpt lat="43.55775" lon="3.31462">
        <ele>305.4</ele>
        <time>2017-12-09T12:52:01Z</time>
      </trkpt>
      <trkpt lat="43.55775" lon="3.31457">
        <ele>305.2</ele>
        <time>2017-12-09T12:52:02Z</time>
      </trkpt>
      <trkpt lat="43.55775" lon="3.31452">
        <ele>305</ele>
        <time>2017-12-09T12:52:03Z</time>
      </trkpt>
      <trkpt lat="43.55774" lon="3.31447">
        <ele>304.7</ele>
        <time>2017-12-09T12:52:04Z</time>
      </trkpt>
      <trkpt lat="43.55774" lon="3.31442">
        <ele>304.4</ele>
        <time>2017-12-09T12:52:05Z</time>
      </trkpt>
      <trkpt lat="43.55774" lon="3.31437">
        <ele>304.1</ele>
        <time>2017-12-09T12:52:06Z</time>
      </trkpt>
      <trkpt lat="43.55774" lon="3.31433">
        <ele>303.7</ele>
        <time>2017-12-09T12:52:07Z</time>
      </trkpt>
      <trkpt lat="43.55775" lon="3.31428">
        <ele>303.3</ele>
        <time>2017-12-09T12:52:08Z</time>
      </trkpt>
      <trkpt lat="43.55776" lon="3.31423">
        <ele>303</ele>
        <time>2017-12-09T12:52:09Z</time>
      </trkpt>
      <trkpt lat="43.55777" lon="3.31419">
        <ele>302.6</ele>
        <time>2017-12-09T12:52:10Z</time>
      </trkpt>
      <trkpt lat="43.55779" lon="3.31414">
        <ele>302.4</ele>
        <time>2017-12-09T12:52:11Z</time>
      </trkpt>
      <trkpt lat="43.55781" lon="3.31411">
        <ele>302.2</ele>
        <time>2017-12-09T12:52:12Z</time>
      </trkpt>
      <trkpt lat="43.55784" lon="3.31408">
        <ele>302</ele>
        <time>2017-12-09T12:52:13Z</time>
      </trkpt>
      <trkpt lat="43.55787" lon="3.31402">
        <ele>301.7</ele>
        <time>2017-12-09T12:52:15Z</time>
      </trkpt>
      <trkpt lat="43.55787" lon="3.31396">
        <ele>301.3</ele>
        <time>2017-12-09T12:52:16Z</time>
      </trkpt>
      <trkpt lat="43.55786" lon="3.31389">
        <ele>300.9</ele>
        <time>2017-12-09T12:52:17Z</time>
      </trkpt>
      <trkpt lat="43.55786" lon="3.31384">
        <ele>300.5</ele>
        <time>2017-12-09T12:52:18Z</time>
      </trkpt>
      <trkpt lat="43.55788" lon="3.31378">
        <ele>300.3</ele>
        <time>2017-12-09T12:52:19Z</time>
      </trkpt>
      <trkpt lat="43.55788" lon="3.31373">
        <ele>300.1</ele>
        <time>2017-12-09T12:52:20Z</time>
      </trkpt>
      <trkpt lat="43.55788" lon="3.31367">
        <ele>299.9</ele>
        <time>2017-12-09T12:52:21Z</time>
      </trkpt>
      <trkpt lat="43.55788" lon="3.31362">
        <ele>299.6</ele>
        <time>2017-12-09T12:52:22Z</time>
      </trkpt>
      <trkpt lat="43.55787" lon="3.31357">
        <ele>299.1</ele>
        <time>2017-12-09T12:52:23Z</time>
      </trkpt>
      <trkpt lat="43.55787" lon="3.31352">
        <ele>298.7</ele>
        <time>2017-12-09T12:52:24Z</time>
      </trkpt>
      <trkpt lat="43.55789" lon="3.31348">
        <ele>298.3</ele>
        <time>2017-12-09T12:52:25Z</time>
      </trkpt>
      <trkpt lat="43.5579" lon="3.31343">
        <ele>297.8</ele>
        <time>2017-12-09T12:52:26Z</time>
      </trkpt>
      <trkpt lat="43.5579" lon="3.31338">
        <ele>297.4</ele>
        <time>2017-12-09T12:52:27Z</time>
      </trkpt>
      <trkpt lat="43.5579" lon="3.31332">
        <ele>297</ele>
        <time>2017-12-09T12:52:28Z</time>
      </trkpt>
      <trkpt lat="43.5579" lon="3.31326">
        <ele>296.6</ele>
        <time>2017-12-09T12:52:29Z</time>
      </trkpt>
      <trkpt lat="43.55791" lon="3.31321">
        <ele>296.3</ele>
        <time>2017-12-09T12:52:30Z</time>
      </trkpt>
      <trkpt lat="43.55793" lon="3.31316">
        <ele>296</ele>
        <time>2017-12-09T12:52:31Z</time>
      </trkpt>
      <trkpt lat="43.55795" lon="3.31312">
        <ele>295.8</ele>
        <time>2017-12-09T12:52:32Z</time>
      </trkpt>
      <trkpt lat="43.55797" lon="3.31309">
        <ele>295.6</ele>
        <time>2017-12-09T12:52:33Z</time>
      </trkpt>
      <trkpt lat="43.558" lon="3.31306">
        <ele>295.4</ele>
        <time>2017-12-09T12:52:34Z</time>
      </trkpt>
      <trkpt lat="43.55803" lon="3.313">
        <ele>294.9</ele>
        <time>2017-12-09T12:52:36Z</time>
      </trkpt>
      <trkpt lat="43.55805" lon="3.31295">
        <ele>294.4</ele>
        <time>2017-12-09T12:52:38Z</time>
      </trkpt>
      <trkpt lat="43.55808" lon="3.31289">
        <ele>293.9</ele>
        <time>2017-12-09T12:52:40Z</time>
      </trkpt>
      <trkpt lat="43.5581" lon="3.31283">
        <ele>293.3</ele>
        <time>2017-12-09T12:52:42Z</time>
      </trkpt>
      <trkpt lat="43.55812" lon="3.31278">
        <ele>293</ele>
        <time>2017-12-09T12:52:44Z</time>
      </trkpt>
      <trkpt lat="43.55814" lon="3.31274">
        <ele>292.8</ele>
        <time>2017-12-09T12:52:57Z</time>
      </trkpt>
      <trkpt lat="43.55812" lon="3.3127">
        <ele>292.5</ele>
        <time>2017-12-09T12:52:59Z</time>
      </trkpt>
      <trkpt lat="43.55809" lon="3.31268">
        <ele>291.4</ele>
        <time>2017-12-09T12:53:00Z</time>
      </trkpt>
      <trkpt lat="43.55806" lon="3.31268">
        <ele>291.2</ele>
        <time>2017-12-09T12:53:01Z</time>
      </trkpt>
      <trkpt lat="43.55803" lon="3.31269">
        <ele>291</ele>
        <time>2017-12-09T12:53:02Z</time>
      </trkpt>
      <trkpt lat="43.55799" lon="3.3127">
        <ele>290.7</ele>
        <time>2017-12-09T12:53:03Z</time>
      </trkpt>
      <trkpt lat="43.55794" lon="3.3127">
        <ele>290.4</ele>
        <time>2017-12-09T12:53:04Z</time>
      </trkpt>
      <trkpt lat="43.55789" lon="3.31267">
        <ele>290.1</ele>
        <time>2017-12-09T12:53:05Z</time>
      </trkpt>
      <trkpt lat="43.55784" lon="3.31262">
        <ele>289.6</ele>
        <time>2017-12-09T12:53:06Z</time>
      </trkpt>
      <trkpt lat="43.55781" lon="3.31255">
        <ele>289.3</ele>
        <time>2017-12-09T12:53:07Z</time>
      </trkpt>
      <trkpt lat="43.55778" lon="3.31249">
        <ele>288.8</ele>
        <time>2017-12-09T12:53:08Z</time>
      </trkpt>
      <trkpt lat="43.55773" lon="3.31247">
        <ele>288.4</ele>
        <time>2017-12-09T12:53:09Z</time>
      </trkpt>
      <trkpt lat="43.55767" lon="3.31246">
        <ele>288.2</ele>
        <time>2017-12-09T12:53:10Z</time>
      </trkpt>
      <trkpt lat="43.55762" lon="3.31246">
        <ele>287.9</ele>
        <time>2017-12-09T12:53:11Z</time>
      </trkpt>
      <trkpt lat="43.55758" lon="3.31243">
        <ele>287.5</ele>
        <time>2017-12-09T12:53:12Z</time>
      </trkpt>
      <trkpt lat="43.55755" lon="3.31238">
        <ele>287.1</ele>
        <time>2017-12-09T12:53:13Z</time>
      </trkpt>
      <trkpt lat="43.55753" lon="3.31232">
        <ele>286.7</ele>
        <time>2017-12-09T12:53:14Z</time>
      </trkpt>
      <trkpt lat="43.5575" lon="3.31227">
        <ele>286.3</ele>
        <time>2017-12-09T12:53:15Z</time>
      </trkpt>
      <trkpt lat="43.55746" lon="3.31222">
        <ele>286.1</ele>
        <time>2017-12-09T12:53:16Z</time>
      </trkpt>
      <trkpt lat="43.55742" lon="3.31221">
        <ele>285.9</ele>
        <time>2017-12-09T12:53:17Z</time>
      </trkpt>
      <trkpt lat="43.55739" lon="3.31221">
        <ele>285.7</ele>
        <time>2017-12-09T12:53:18Z</time>
      </trkpt>
      <trkpt lat="43.55736" lon="3.31222">
        <ele>285.6</ele>
        <time>2017-12-09T12:53:19Z</time>
      </trkpt>
      <trkpt lat="43.55732" lon="3.31223">
        <ele>285.5</ele>
        <time>2017-12-09T12:53:20Z</time>
      </trkpt>
      <trkpt lat="43.55729" lon="3.31223">
        <ele>285.4</ele>
        <time>2017-12-09T12:53:21Z</time>
      </trkpt>
      <trkpt lat="43.55725" lon="3.31224">
        <ele>285.3</ele>
        <time>2017-12-09T12:53:22Z</time>
      </trkpt>
      <trkpt lat="43.55723" lon="3.31227">
        <ele>285.3</ele>
        <time>2017-12-09T12:53:23Z</time>
      </trkpt>
      <trkpt lat="43.55721" lon="3.3123">
        <ele>285.2</ele>
        <time>2017-12-09T12:53:24Z</time>
      </trkpt>
      <trkpt lat="43.55719" lon="3.31233">
        <ele>285.2</ele>
        <time>2017-12-09T12:53:25Z</time>
      </trkpt>
      <trkpt lat="43.55715" lon="3.31237">
        <ele>285.1</ele>
        <time>2017-12-09T12:53:27Z</time>
      </trkpt>
      <trkpt lat="43.55711" lon="3.31241">
        <ele>285.1</ele>
        <time>2017-12-09T12:53:29Z</time>
      </trkpt>
      <trkpt lat="43.55708" lon="3.31246">
        <ele>285</ele>
        <time>2017-12-09T12:53:31Z</time>
      </trkpt>
      <trkpt lat="43.55704" lon="3.3125">
        <ele>285</ele>
        <time>2017-12-09T12:53:33Z</time>
      </trkpt>
      <trkpt lat="43.55701" lon="3.31254">
        <ele>284.9</ele>
        <time>2017-12-09T12:53:35Z</time>
      </trkpt>
      <trkpt lat="43.55699" lon="3.3126">
        <ele>284.9</ele>
        <time>2017-12-09T12:53:37Z</time>
      </trkpt>
      <trkpt lat="43.55697" lon="3.31267">
        <ele>284.9</ele>
        <time>2017-12-09T12:53:39Z</time>
      </trkpt>
      <trkpt lat="43.55696" lon="3.31273">
        <ele>285</ele>
        <time>2017-12-09T12:53:41Z</time>
      </trkpt>
      <trkpt lat="43.55692" lon="3.31277">
        <ele>285</ele>
        <time>2017-12-09T12:53:43Z</time>
      </trkpt>
      <trkpt lat="43.55689" lon="3.31279">
        <ele>285.2</ele>
        <time>2017-12-09T12:53:45Z</time>
      </trkpt>
      <trkpt lat="43.55685" lon="3.3128">
        <ele>285.4</ele>
        <time>2017-12-09T12:53:47Z</time>
      </trkpt>
      <trkpt lat="43.55681" lon="3.3128">
        <ele>285.5</ele>
        <time>2017-12-09T12:53:49Z</time>
      </trkpt>
      <trkpt lat="43.55678" lon="3.31282">
        <ele>285.6</ele>
        <time>2017-12-09T12:53:51Z</time>
      </trkpt>
      <trkpt lat="43.55674" lon="3.31286">
        <ele>285.7</ele>
        <time>2017-12-09T12:53:53Z</time>
      </trkpt>
      <trkpt lat="43.5567" lon="3.31287">
        <ele>285.7</ele>
        <time>2017-12-09T12:53:55Z</time>
      </trkpt>
      <trkpt lat="43.55666" lon="3.31285">
        <ele>285.8</ele>
        <time>2017-12-09T12:53:57Z</time>
      </trkpt>
      <trkpt lat="43.55662" lon="3.31285">
        <ele>285.9</ele>
        <time>2017-12-09T12:53:59Z</time>
      </trkpt>
      <trkpt lat="43.55658" lon="3.31285">
        <ele>286</ele>
        <time>2017-12-09T12:54:01Z</time>
      </trkpt>
      <trkpt lat="43.55654" lon="3.31284">
        <ele>286.2</ele>
        <time>2017-12-09T12:54:03Z</time>
      </trkpt>
      <trkpt lat="43.5565" lon="3.31283">
        <ele>286.5</ele>
        <time>2017-12-09T12:54:05Z</time>
      </trkpt>
      <trkpt lat="43.55646" lon="3.31283">
        <ele>286.8</ele>
        <time>2017-12-09T12:54:07Z</time>
      </trkpt>
      <trkpt lat="43.55643" lon="3.31282">
        <ele>287</ele>
        <time>2017-12-09T12:54:09Z</time>
      </trkpt>
      <trkpt lat="43.55639" lon="3.31281">
        <ele>287.2</ele>
        <time>2017-12-09T12:54:11Z</time>
      </trkpt>
      <trkpt lat="43.55635" lon="3.3128">
        <ele>287.5</ele>
        <time>2017-12-09T12:54:13Z</time>
      </trkpt>
      <trkpt lat="43.55631" lon="3.31279">
        <ele>287.8</ele>
        <time>2017-12-09T12:54:15Z</time>
      </trkpt>
      <trkpt lat="43.55627" lon="3.31279">
        <ele>288.1</ele>
        <time>2017-12-09T12:54:17Z</time>
      </trkpt>
      <trkpt lat="43.55623" lon="3.31278">
        <ele>288.3</ele>
        <time>2017-12-09T12:54:19Z</time>
      </trkpt>
      <trkpt lat="43.5562" lon="3.31278">
        <ele>288.4</ele>
        <time>2017-12-09T12:54:21Z</time>
      </trkpt>
      <trkpt lat="43.55616" lon="3.31278">
        <ele>288.5</ele>
        <time>2017-12-09T12:54:23Z</time>
      </trkpt>
      <trkpt lat="43.55613" lon="3.31278">
        <ele>288.7</ele>
        <time>2017-12-09T12:54:25Z</time>
      </trkpt>
      <trkpt lat="43.55608" lon="3.31277">
        <ele>288.9</ele>
        <time>2017-12-09T12:54:27Z</time>
      </trkpt>
      <trkpt lat="43.55604" lon="3.31276">
        <ele>289.2</ele>
        <time>2017-12-09T12:54:29Z</time>
      </trkpt>
      <trkpt lat="43.556" lon="3.31274">
        <ele>289.4</ele>
        <time>2017-12-09T12:54:31Z</time>
      </trkpt>
      <trkpt lat="43.55596" lon="3.31274">
        <ele>289.5</ele>
        <time>2017-12-09T12:54:33Z</time>
      </trkpt>
      <trkpt lat="43.55592" lon="3.31274">
        <ele>289.7</ele>
        <time>2017-12-09T12:54:35Z</time>
      </trkpt>
      <trkpt lat="43.55587" lon="3.31273">
        <ele>289.8</ele>
        <time>2017-12-09T12:54:37Z</time>
      </trkpt>
      <trkpt lat="43.55583" lon="3.31271">
        <ele>289.9</ele>
        <time>2017-12-09T12:54:39Z</time>
      </trkpt>
      <trkpt lat="43.55578" lon="3.3127">
        <ele>290.1</ele>
        <time>2017-12-09T12:54:41Z</time>
      </trkpt>
      <trkpt lat="43.55575" lon="3.3127">
        <ele>290.3</ele>
        <time>2017-12-09T12:54:42Z</time>
      </trkpt>
      <trkpt lat="43.55572" lon="3.31269">
        <ele>290.6</ele>
        <time>2017-12-09T12:54:43Z</time>
      </trkpt>
      <trkpt lat="43.5557" lon="3.31269">
        <ele>290.7</ele>
        <time>2017-12-09T12:54:44Z</time>
      </trkpt>
      <trkpt lat="43.55567" lon="3.31268">
        <ele>290.8</ele>
        <time>2017-12-09T12:54:45Z</time>
      </trkpt>
      <trkpt lat="43.55564" lon="3.31269">
        <ele>290.9</ele>
        <time>2017-12-09T12:54:46Z</time>
      </trkpt>
      <trkpt lat="43.55562" lon="3.31271">
        <ele>291</ele>
        <time>2017-12-09T12:54:47Z</time>
      </trkpt>
      <trkpt lat="43.5556" lon="3.31274">
        <ele>291</ele>
        <time>2017-12-09T12:54:48Z</time>
      </trkpt>
      <trkpt lat="43.55559" lon="3.31278">
        <ele>290.9</ele>
        <time>2017-12-09T12:54:49Z</time>
      </trkpt>
      <trkpt lat="43.55558" lon="3.31281">
        <ele>290.9</ele>
        <time>2017-12-09T12:54:50Z</time>
      </trkpt>
      <trkpt lat="43.55557" lon="3.31285">
        <ele>290.9</ele>
        <time>2017-12-09T12:54:51Z</time>
      </trkpt>
      <trkpt lat="43.55556" lon="3.31291">
        <ele>290.9</ele>
        <time>2017-12-09T12:54:53Z</time>
      </trkpt>
      <trkpt lat="43.55556" lon="3.31298">
        <ele>290.8</ele>
        <time>2017-12-09T12:54:55Z</time>
      </trkpt>
      <trkpt lat="43.55555" lon="3.31305">
        <ele>290.8</ele>
        <time>2017-12-09T12:54:57Z</time>
      </trkpt>
      <trkpt lat="43.55556" lon="3.31311">
        <ele>290.8</ele>
        <time>2017-12-09T12:54:59Z</time>
      </trkpt>
      <trkpt lat="43.55557" lon="3.31317">
        <ele>290.8</ele>
        <time>2017-12-09T12:55:01Z</time>
      </trkpt>
      <trkpt lat="43.55558" lon="3.31323">
        <ele>290.9</ele>
        <time>2017-12-09T12:55:03Z</time>
      </trkpt>
      <trkpt lat="43.55559" lon="3.31328">
        <ele>291.1</ele>
        <time>2017-12-09T12:55:05Z</time>
      </trkpt>
      <trkpt lat="43.5556" lon="3.31333">
        <ele>291.5</ele>
        <time>2017-12-09T12:55:07Z</time>
      </trkpt>
      <trkpt lat="43.55561" lon="3.31338">
        <ele>291.9</ele>
        <time>2017-12-09T12:55:09Z</time>
      </trkpt>
      <trkpt lat="43.55561" lon="3.31343">
        <ele>292.2</ele>
        <time>2017-12-09T12:55:11Z</time>
      </trkpt>
      <trkpt lat="43.55561" lon="3.31348">
        <ele>292.5</ele>
        <time>2017-12-09T12:55:13Z</time>
      </trkpt>
      <trkpt lat="43.55562" lon="3.31353">
        <ele>292.8</ele>
        <time>2017-12-09T12:55:15Z</time>
      </trkpt>
      <trkpt lat="43.55561" lon="3.31358">
        <ele>293.2</ele>
        <time>2017-12-09T12:55:17Z</time>
      </trkpt>
      <trkpt lat="43.55561" lon="3.31364">
        <ele>293.6</ele>
        <time>2017-12-09T12:55:19Z</time>
      </trkpt>
      <trkpt lat="43.55561" lon="3.31369">
        <ele>293.9</ele>
        <time>2017-12-09T12:55:21Z</time>
      </trkpt>
      <trkpt lat="43.55561" lon="3.31375">
        <ele>294.2</ele>
        <time>2017-12-09T12:55:23Z</time>
      </trkpt>
      <trkpt lat="43.55561" lon="3.3138">
        <ele>294.4</ele>
        <time>2017-12-09T12:55:25Z</time>
      </trkpt>
      <trkpt lat="43.55561" lon="3.31386">
        <ele>294.6</ele>
        <time>2017-12-09T12:55:27Z</time>
      </trkpt>
      <trkpt lat="43.55559" lon="3.31391">
        <ele>294.9</ele>
        <time>2017-12-09T12:55:29Z</time>
      </trkpt>
      <trkpt lat="43.55557" lon="3.31395">
        <ele>295.4</ele>
        <time>2017-12-09T12:55:31Z</time>
      </trkpt>
      <trkpt lat="43.55553" lon="3.31397">
        <ele>295.8</ele>
        <time>2017-12-09T12:55:33Z</time>
      </trkpt>
      <trkpt lat="43.5555" lon="3.314">
        <ele>296.1</ele>
        <time>2017-12-09T12:55:35Z</time>
      </trkpt>
      <trkpt lat="43.55547" lon="3.31404">
        <ele>296.4</ele>
        <time>2017-12-09T12:55:37Z</time>
      </trkpt>
      <trkpt lat="43.55545" lon="3.31408">
        <ele>296.7</ele>
        <time>2017-12-09T12:55:39Z</time>
      </trkpt>
      <trkpt lat="43.55542" lon="3.31412">
        <ele>297.1</ele>
        <time>2017-12-09T12:55:41Z</time>
      </trkpt>
      <trkpt lat="43.55539" lon="3.31416">
        <ele>297.5</ele>
        <time>2017-12-09T12:55:43Z</time>
      </trkpt>
      <trkpt lat="43.55536" lon="3.31419">
        <ele>297.8</ele>
        <time>2017-12-09T12:55:45Z</time>
      </trkpt>
      <trkpt lat="43.55533" lon="3.31421">
        <ele>298</ele>
        <time>2017-12-09T12:55:47Z</time>
      </trkpt>
      <trkpt lat="43.55529" lon="3.31425">
        <ele>298.1</ele>
        <time>2017-12-09T12:55:49Z</time>
      </trkpt>
      <trkpt lat="43.55526" lon="3.31427">
        <ele>298.3</ele>
        <time>2017-12-09T12:55:51Z</time>
      </trkpt>
      <trkpt lat="43.55523" lon="3.31431">
        <ele>298.6</ele>
        <time>2017-12-09T12:55:53Z</time>
      </trkpt>
      <trkpt lat="43.5552" lon="3.31435">
        <ele>298.9</ele>
        <time>2017-12-09T12:55:55Z</time>
      </trkpt>
      <trkpt lat="43.55517" lon="3.31438">
        <ele>299.3</ele>
        <time>2017-12-09T12:55:57Z</time>
      </trkpt>
      <trkpt lat="43.55515" lon="3.31442">
        <ele>299.6</ele>
        <time>2017-12-09T12:55:59Z</time>
      </trkpt>
      <trkpt lat="43.55512" lon="3.31446">
        <ele>299.8</ele>
        <time>2017-12-09T12:56:01Z</time>
      </trkpt>
      <trkpt lat="43.55509" lon="3.3145">
        <ele>300.1</ele>
        <time>2017-12-09T12:56:03Z</time>
      </trkpt>
      <trkpt lat="43.55506" lon="3.31454">
        <ele>300.4</ele>
        <time>2017-12-09T12:56:05Z</time>
      </trkpt>
      <trkpt lat="43.55504" lon="3.31459">
        <ele>300.8</ele>
        <time>2017-12-09T12:56:07Z</time>
      </trkpt>
      <trkpt lat="43.55502" lon="3.31464">
        <ele>301.2</ele>
        <time>2017-12-09T12:56:09Z</time>
      </trkpt>
      <trkpt lat="43.555" lon="3.31469">
        <ele>301.6</ele>
        <time>2017-12-09T12:56:11Z</time>
      </trkpt>
      <trkpt lat="43.55498" lon="3.31473">
        <ele>301.7</ele>
        <time>2017-12-09T12:56:13Z</time>
      </trkpt>
      <trkpt lat="43.55496" lon="3.31478">
        <ele>301.8</ele>
        <time>2017-12-09T12:56:15Z</time>
      </trkpt>
      <trkpt lat="43.55494" lon="3.31482">
        <ele>301.8</ele>
        <time>2017-12-09T12:56:17Z</time>
      </trkpt>
      <trkpt lat="43.55491" lon="3.31485">
        <ele>301.8</ele>
        <time>2017-12-09T12:56:19Z</time>
      </trkpt>
      <trkpt lat="43.55488" lon="3.3149">
        <ele>301.8</ele>
        <time>2017-12-09T12:56:21Z</time>
      </trkpt>
      <trkpt lat="43.55486" lon="3.31495">
        <ele>301.7</ele>
        <time>2017-12-09T12:56:23Z</time>
      </trkpt>
      <trkpt lat="43.55483" lon="3.315">
        <ele>301.7</ele>
        <time>2017-12-09T12:56:25Z</time>
      </trkpt>
      <trkpt lat="43.55481" lon="3.31506">
        <ele>301.7</ele>
        <time>2017-12-09T12:56:27Z</time>
      </trkpt>
      <trkpt lat="43.5548" lon="3.31511">
        <ele>301.7</ele>
        <time>2017-12-09T12:56:29Z</time>
      </trkpt>
      <trkpt lat="43.55479" lon="3.31517">
        <ele>301.8</ele>
        <time>2017-12-09T12:56:31Z</time>
      </trkpt>
      <trkpt lat="43.55478" lon="3.31522">
        <ele>302.1</ele>
        <time>2017-12-09T12:56:33Z</time>
      </trkpt>
      <trkpt lat="43.55478" lon="3.31527">
        <ele>302.6</ele>
        <time>2017-12-09T12:56:35Z</time>
      </trkpt>
      <trkpt lat="43.55477" lon="3.31531">
        <ele>303</ele>
        <time>2017-12-09T12:56:37Z</time>
      </trkpt>
      <trkpt lat="43.55475" lon="3.31535">
        <ele>303.3</ele>
        <time>2017-12-09T12:56:39Z</time>
      </trkpt>
      <trkpt lat="43.55473" lon="3.31539">
        <ele>303.6</ele>
        <time>2017-12-09T12:56:41Z</time>
      </trkpt>
      <trkpt lat="43.55472" lon="3.31543">
        <ele>303.8</ele>
        <time>2017-12-09T12:56:43Z</time>
      </trkpt>
      <trkpt lat="43.5547" lon="3.31548">
        <ele>304.2</ele>
        <time>2017-12-09T12:56:45Z</time>
      </trkpt>
      <trkpt lat="43.55469" lon="3.31552">
        <ele>304.6</ele>
        <time>2017-12-09T12:56:47Z</time>
      </trkpt>
      <trkpt lat="43.55467" lon="3.31556">
        <ele>305</ele>
        <time>2017-12-09T12:56:49Z</time>
      </trkpt>
      <trkpt lat="43.55466" lon="3.31561">
        <ele>305.3</ele>
        <time>2017-12-09T12:56:51Z</time>
      </trkpt>
      <trkpt lat="43.55464" lon="3.31565">
        <ele>305.6</ele>
        <time>2017-12-09T12:56:53Z</time>
      </trkpt>
      <trkpt lat="43.55462" lon="3.31569">
        <ele>305.8</ele>
        <time>2017-12-09T12:56:55Z</time>
      </trkpt>
      <trkpt lat="43.5546" lon="3.31572">
        <ele>306.1</ele>
        <time>2017-12-09T12:56:57Z</time>
      </trkpt>
      <trkpt lat="43.55459" lon="3.31576">
        <ele>306.5</ele>
        <time>2017-12-09T12:56:59Z</time>
      </trkpt>
      <trkpt lat="43.55458" lon="3.31581">
        <ele>306.9</ele>
        <time>2017-12-09T12:57:01Z</time>
      </trkpt>
      <trkpt lat="43.55456" lon="3.31585">
        <ele>307.3</ele>
        <time>2017-12-09T12:57:03Z</time>
      </trkpt>
      <trkpt lat="43.55455" lon="3.31589">
        <ele>307.5</ele>
        <time>2017-12-09T12:57:05Z</time>
      </trkpt>
      <trkpt lat="43.55452" lon="3.31592">
        <ele>307.6</ele>
        <time>2017-12-09T12:57:07Z</time>
      </trkpt>
      <trkpt lat="43.5545" lon="3.31596">
        <ele>307.9</ele>
        <time>2017-12-09T12:57:09Z</time>
      </trkpt>
      <trkpt lat="43.55447" lon="3.316">
        <ele>308.2</ele>
        <time>2017-12-09T12:57:11Z</time>
      </trkpt>
      <trkpt lat="43.55445" lon="3.31604">
        <ele>308.6</ele>
        <time>2017-12-09T12:57:13Z</time>
      </trkpt>
      <trkpt lat="43.55444" lon="3.31609">
        <ele>308.9</ele>
        <time>2017-12-09T12:57:15Z</time>
      </trkpt>
      <trkpt lat="43.55443" lon="3.31613">
        <ele>309.1</ele>
        <time>2017-12-09T12:57:17Z</time>
      </trkpt>
      <trkpt lat="43.55442" lon="3.31617">
        <ele>309.3</ele>
        <time>2017-12-09T12:57:19Z</time>
      </trkpt>
      <trkpt lat="43.55441" lon="3.3162">
        <ele>309.5</ele>
        <time>2017-12-09T12:57:21Z</time>
      </trkpt>
      <trkpt lat="43.55439" lon="3.31626">
        <ele>309.8</ele>
        <time>2017-12-09T12:57:24Z</time>
      </trkpt>
      <trkpt lat="43.55438" lon="3.31629">
        <ele>310.1</ele>
        <time>2017-12-09T12:57:26Z</time>
      </trkpt>
      <trkpt lat="43.55436" lon="3.31632">
        <ele>310.4</ele>
        <time>2017-12-09T12:57:28Z</time>
      </trkpt>
      <trkpt lat="43.55435" lon="3.31636">
        <ele>310.8</ele>
        <time>2017-12-09T12:57:30Z</time>
      </trkpt>
      <trkpt lat="43.55433" lon="3.31639">
        <ele>311</ele>
        <time>2017-12-09T12:57:32Z</time>
      </trkpt>
      <trkpt lat="43.5543" lon="3.31643">
        <ele>311.4</ele>
        <time>2017-12-09T12:57:35Z</time>
      </trkpt>
      <trkpt lat="43.55428" lon="3.31647">
        <ele>311.8</ele>
        <time>2017-12-09T12:57:37Z</time>
      </trkpt>
      <trkpt lat="43.55426" lon="3.3165">
        <ele>312.2</ele>
        <time>2017-12-09T12:57:39Z</time>
      </trkpt>
      <trkpt lat="43.55423" lon="3.31652">
        <ele>312.6</ele>
        <time>2017-12-09T12:57:41Z</time>
      </trkpt>
      <trkpt lat="43.55421" lon="3.31654">
        <ele>312.9</ele>
        <time>2017-12-09T12:57:43Z</time>
      </trkpt>
      <trkpt lat="43.55418" lon="3.31656">
        <ele>313.1</ele>
        <time>2017-12-09T12:57:45Z</time>
      </trkpt>
      <trkpt lat="43.55415" lon="3.31658">
        <ele>313.4</ele>
        <time>2017-12-09T12:57:47Z</time>
      </trkpt>
      <trkpt lat="43.55413" lon="3.3166">
        <ele>313.8</ele>
        <time>2017-12-09T12:57:49Z</time>
      </trkpt>
      <trkpt lat="43.5541" lon="3.31664">
        <ele>314.4</ele>
        <time>2017-12-09T12:57:52Z</time>
      </trkpt>
      <trkpt lat="43.55407" lon="3.31665">
        <ele>315</ele>
        <time>2017-12-09T12:57:54Z</time>
      </trkpt>
      <trkpt lat="43.55403" lon="3.31667">
        <ele>315.5</ele>
        <time>2017-12-09T12:57:56Z</time>
      </trkpt>
      <trkpt lat="43.554" lon="3.31668">
        <ele>316.1</ele>
        <time>2017-12-09T12:57:58Z</time>
      </trkpt>
      <trkpt lat="43.55396" lon="3.31669">
        <ele>316.5</ele>
        <time>2017-12-09T12:58:00Z</time>
      </trkpt>
      <trkpt lat="43.55392" lon="3.31668">
        <ele>316.8</ele>
        <time>2017-12-09T12:58:02Z</time>
      </trkpt>
      <trkpt lat="43.55389" lon="3.31667">
        <ele>316.9</ele>
        <time>2017-12-09T12:58:04Z</time>
      </trkpt>
      <trkpt lat="43.55386" lon="3.31667">
        <ele>317</ele>
        <time>2017-12-09T12:58:06Z</time>
      </trkpt>
      <trkpt lat="43.55382" lon="3.31668">
        <ele>317</ele>
        <time>2017-12-09T12:58:08Z</time>
      </trkpt>
      <trkpt lat="43.55379" lon="3.3167">
        <ele>316.9</ele>
        <time>2017-12-09T12:58:10Z</time>
      </trkpt>
      <trkpt lat="43.55375" lon="3.31671">
        <ele>316.9</ele>
        <time>2017-12-09T12:58:12Z</time>
      </trkpt>
      <trkpt lat="43.55372" lon="3.31674">
        <ele>316.9</ele>
        <time>2017-12-09T12:58:14Z</time>
      </trkpt>
      <trkpt lat="43.55369" lon="3.31677">
        <ele>316.9</ele>
        <time>2017-12-09T12:58:16Z</time>
      </trkpt>
      <trkpt lat="43.55367" lon="3.3168">
        <ele>316.9</ele>
        <time>2017-12-09T12:58:18Z</time>
      </trkpt>
      <trkpt lat="43.55364" lon="3.31682">
        <ele>317</ele>
        <time>2017-12-09T12:58:20Z</time>
      </trkpt>
      <trkpt lat="43.55361" lon="3.31685">
        <ele>317.1</ele>
        <time>2017-12-09T12:58:22Z</time>
      </trkpt>
      <trkpt lat="43.55357" lon="3.31687">
        <ele>317.5</ele>
        <time>2017-12-09T12:58:24Z</time>
      </trkpt>
      <trkpt lat="43.55354" lon="3.31687">
        <ele>317.8</ele>
        <time>2017-12-09T12:58:26Z</time>
      </trkpt>
      <trkpt lat="43.5535" lon="3.31689">
        <ele>318.3</ele>
        <time>2017-12-09T12:58:28Z</time>
      </trkpt>
      <trkpt lat="43.55347" lon="3.31691">
        <ele>318.6</ele>
        <time>2017-12-09T12:58:30Z</time>
      </trkpt>
      <trkpt lat="43.55343" lon="3.31694">
        <ele>318.9</ele>
        <time>2017-12-09T12:58:32Z</time>
      </trkpt>
      <trkpt lat="43.5534" lon="3.31696">
        <ele>319.2</ele>
        <time>2017-12-09T12:58:34Z</time>
      </trkpt>
      <trkpt lat="43.55337" lon="3.31696">
        <ele>319.6</ele>
        <time>2017-12-09T12:58:36Z</time>
      </trkpt>
      <trkpt lat="43.55333" lon="3.31696">
        <ele>320</ele>
        <time>2017-12-09T12:58:38Z</time>
      </trkpt>
      <trkpt lat="43.5533" lon="3.31697">
        <ele>320.4</ele>
        <time>2017-12-09T12:58:40Z</time>
      </trkpt>
      <trkpt lat="43.55326" lon="3.31696">
        <ele>320.7</ele>
        <time>2017-12-09T12:58:42Z</time>
      </trkpt>
      <trkpt lat="43.55322" lon="3.31696">
        <ele>320.9</ele>
        <time>2017-12-09T12:58:44Z</time>
      </trkpt>
      <trkpt lat="43.55318" lon="3.31695">
        <ele>321</ele>
        <time>2017-12-09T12:58:46Z</time>
      </trkpt>
      <trkpt lat="43.55314" lon="3.31697">
        <ele>321.2</ele>
        <time>2017-12-09T12:58:48Z</time>
      </trkpt>
      <trkpt lat="43.55312" lon="3.31699">
        <ele>321.3</ele>
        <time>2017-12-09T12:58:49Z</time>
      </trkpt>
      <trkpt lat="43.5531" lon="3.31705">
        <ele>321.5</ele>
        <time>2017-12-09T12:58:51Z</time>
      </trkpt>
      <trkpt lat="43.55309" lon="3.31709">
        <ele>321.7</ele>
        <time>2017-12-09T12:58:52Z</time>
      </trkpt>
      <trkpt lat="43.55307" lon="3.31714">
        <ele>321.9</ele>
        <time>2017-12-09T12:58:54Z</time>
      </trkpt>
      <trkpt lat="43.55305" lon="3.31718">
        <ele>328.4</ele>
        <time>2017-12-09T12:58:56Z</time>
      </trkpt>
      <trkpt lat="43.55304" lon="3.31723">
        <ele>328.8</ele>
        <time>2017-12-09T12:58:58Z</time>
      </trkpt>
      <trkpt lat="43.55302" lon="3.31727">
        <ele>329</ele>
        <time>2017-12-09T12:59:00Z</time>
      </trkpt>
      <trkpt lat="43.553" lon="3.31731">
        <ele>329.4</ele>
        <time>2017-12-09T12:59:03Z</time>
      </trkpt>
      <trkpt lat="43.55298" lon="3.31736">
        <ele>331.7</ele>
        <time>2017-12-09T12:59:05Z</time>
      </trkpt>
      <trkpt lat="43.55296" lon="3.31739">
        <ele>331.8</ele>
        <time>2017-12-09T12:59:06Z</time>
      </trkpt>
      <trkpt lat="43.55294" lon="3.31743">
        <ele>332</ele>
        <time>2017-12-09T12:59:07Z</time>
      </trkpt>
      <trkpt lat="43.55292" lon="3.31747">
        <ele>332.1</ele>
        <time>2017-12-09T12:59:08Z</time>
      </trkpt>
      <trkpt lat="43.5529" lon="3.31753">
        <ele>332.1</ele>
        <time>2017-12-09T12:59:09Z</time>
      </trkpt>
      <trkpt lat="43.55286" lon="3.31758">
        <ele>332.1</ele>
        <time>2017-12-09T12:59:10Z</time>
      </trkpt>
      <trkpt lat="43.55282" lon="3.31763">
        <ele>332</ele>
        <time>2017-12-09T12:59:11Z</time>
      </trkpt>
      <trkpt lat="43.55278" lon="3.31769">
        <ele>331.7</ele>
        <time>2017-12-09T12:59:12Z</time>
      </trkpt>
      <trkpt lat="43.55276" lon="3.31774">
        <ele>331.4</ele>
        <time>2017-12-09T12:59:13Z</time>
      </trkpt>
      <trkpt lat="43.55274" lon="3.31778">
        <ele>331.2</ele>
        <time>2017-12-09T12:59:14Z</time>
      </trkpt>
      <trkpt lat="43.55272" lon="3.31783">
        <ele>330.7</ele>
        <time>2017-12-09T12:59:16Z</time>
      </trkpt>
      <trkpt lat="43.5527" lon="3.31785">
        <ele>330.3</ele>
        <time>2017-12-09T12:59:35Z</time>
      </trkpt>
      <trkpt lat="43.55267" lon="3.31785">
        <ele>329.9</ele>
        <time>2017-12-09T12:59:37Z</time>
      </trkpt>
      <trkpt lat="43.55262" lon="3.31785">
        <ele>329.2</ele>
        <time>2017-12-09T12:59:39Z</time>
      </trkpt>
      <trkpt lat="43.55259" lon="3.31786">
        <ele>328.8</ele>
        <time>2017-12-09T12:59:40Z</time>
      </trkpt>
      <trkpt lat="43.55256" lon="3.31789">
        <ele>328.2</ele>
        <time>2017-12-09T12:59:41Z</time>
      </trkpt>
      <trkpt lat="43.55251" lon="3.31794">
        <ele>327.4</ele>
        <time>2017-12-09T12:59:42Z</time>
      </trkpt>
      <trkpt lat="43.55247" lon="3.31798">
        <ele>326.6</ele>
        <time>2017-12-09T12:59:43Z</time>
      </trkpt>
      <trkpt lat="43.55242" lon="3.31802">
        <ele>325.8</ele>
        <time>2017-12-09T12:59:44Z</time>
      </trkpt>
      <trkpt lat="43.55236" lon="3.31807">
        <ele>324.8</ele>
        <time>2017-12-09T12:59:45Z</time>
      </trkpt>
      <trkpt lat="43.55231" lon="3.31812">
        <ele>323.7</ele>
        <time>2017-12-09T12:59:46Z</time>
      </trkpt>
      <trkpt lat="43.55225" lon="3.31818">
        <ele>322.5</ele>
        <time>2017-12-09T12:59:47Z</time>
      </trkpt>
      <trkpt lat="43.55218" lon="3.31824">
        <ele>321.2</ele>
        <time>2017-12-09T12:59:48Z</time>
      </trkpt>
      <trkpt lat="43.55211" lon="3.31828">
        <ele>319.7</ele>
        <time>2017-12-09T12:59:49Z</time>
      </trkpt>
      <trkpt lat="43.55203" lon="3.31831">
        <ele>318.1</ele>
        <time>2017-12-09T12:59:50Z</time>
      </trkpt>
      <trkpt lat="43.55195" lon="3.31834">
        <ele>316.4</ele>
        <time>2017-12-09T12:59:51Z</time>
      </trkpt>
      <trkpt lat="43.55188" lon="3.31837">
        <ele>315</ele>
        <time>2017-12-09T12:59:52Z</time>
      </trkpt>
      <trkpt lat="43.55183" lon="3.31838">
        <ele>313.8</ele>
        <time>2017-12-09T12:59:53Z</time>
      </trkpt>
      <trkpt lat="43.55179" lon="3.31836">
        <ele>312.5</ele>
        <time>2017-12-09T12:59:54Z</time>
      </trkpt>
      <trkpt lat="43.55174" lon="3.31835">
        <ele>311.3</ele>
        <time>2017-12-09T12:59:55Z</time>
      </trkpt>
      <trkpt lat="43.5517" lon="3.31832">
        <ele>310</ele>
        <time>2017-12-09T12:59:56Z</time>
      </trkpt>
      <trkpt lat="43.55167" lon="3.31828">
        <ele>308.9</ele>
        <time>2017-12-09T12:59:57Z</time>
      </trkpt>
      <trkpt lat="43.55166" lon="3.31824">
        <ele>307.9</ele>
        <time>2017-12-09T12:59:58Z</time>
      </trkpt>
      <trkpt lat="43.55164" lon="3.3182">
        <ele>306.9</ele>
        <time>2017-12-09T12:59:59Z</time>
      </trkpt>
      <trkpt lat="43.55161" lon="3.31819">
        <ele>305.8</ele>
        <time>2017-12-09T13:00:00Z</time>
      </trkpt>
      <trkpt lat="43.55157" lon="3.3182">
        <ele>304.4</ele>
        <time>2017-12-09T13:00:01Z</time>
      </trkpt>
      <trkpt lat="43.55153" lon="3.31823">
        <ele>302.4</ele>
        <time>2017-12-09T13:00:02Z</time>
      </trkpt>
      <trkpt lat="43.55147" lon="3.31827">
        <ele>296.9</ele>
        <time>2017-12-09T13:00:03Z</time>
      </trkpt>
      <trkpt lat="43.55141" lon="3.31831">
        <ele>296.1</ele>
        <time>2017-12-09T13:00:04Z</time>
      </trkpt>
      <trkpt lat="43.55137" lon="3.31833">
        <ele>295.6</ele>
        <time>2017-12-09T13:00:05Z</time>
      </trkpt>
      <trkpt lat="43.55134" lon="3.31834">
        <ele>295.4</ele>
        <time>2017-12-09T13:00:06Z</time>
      </trkpt>
      <trkpt lat="43.5513" lon="3.31835">
        <ele>295.2</ele>
        <time>2017-12-09T13:00:09Z</time>
      </trkpt>
      <trkpt lat="43.55126" lon="3.31834">
        <ele>295</ele>
        <time>2017-12-09T13:00:11Z</time>
      </trkpt>
      <trkpt lat="43.55121" lon="3.31836">
        <ele>294.8</ele>
        <time>2017-12-09T13:00:13Z</time>
      </trkpt>
      <trkpt lat="43.55118" lon="3.31834">
        <ele>294.7</ele>
        <time>2017-12-09T13:00:14Z</time>
      </trkpt>
      <trkpt lat="43.55116" lon="3.31831">
        <ele>294.5</ele>
        <time>2017-12-09T13:00:15Z</time>
      </trkpt>
      <trkpt lat="43.55114" lon="3.31826">
        <ele>294.2</ele>
        <time>2017-12-09T13:00:16Z</time>
      </trkpt>
      <trkpt lat="43.55113" lon="3.31821">
        <ele>294</ele>
        <time>2017-12-09T13:00:17Z</time>
      </trkpt>
      <trkpt lat="43.55112" lon="3.31816">
        <ele>293.7</ele>
        <time>2017-12-09T13:00:18Z</time>
      </trkpt>
      <trkpt lat="43.55112" lon="3.31812">
        <ele>293.5</ele>
        <time>2017-12-09T13:00:19Z</time>
      </trkpt>
      <trkpt lat="43.55113" lon="3.31805">
        <ele>293.1</ele>
        <time>2017-12-09T13:00:21Z</time>
      </trkpt>
      <trkpt lat="43.55114" lon="3.31799">
        <ele>292.8</ele>
        <time>2017-12-09T13:00:23Z</time>
      </trkpt>
      <trkpt lat="43.55115" lon="3.31794">
        <ele>292.5</ele>
        <time>2017-12-09T13:00:25Z</time>
      </trkpt>
      <trkpt lat="43.55114" lon="3.31787">
        <ele>292.1</ele>
        <time>2017-12-09T13:00:27Z</time>
      </trkpt>
      <trkpt lat="43.55114" lon="3.31783">
        <ele>291.9</ele>
        <time>2017-12-09T13:00:28Z</time>
      </trkpt>
      <trkpt lat="43.55113" lon="3.31779">
        <ele>291.7</ele>
        <time>2017-12-09T13:00:29Z</time>
      </trkpt>
      <trkpt lat="43.55111" lon="3.31774">
        <ele>291.4</ele>
        <time>2017-12-09T13:00:30Z</time>
      </trkpt>
      <trkpt lat="43.5511" lon="3.31769">
        <ele>291</ele>
        <time>2017-12-09T13:00:31Z</time>
      </trkpt>
      <trkpt lat="43.55108" lon="3.31763">
        <ele>290.7</ele>
        <time>2017-12-09T13:00:32Z</time>
      </trkpt>
      <trkpt lat="43.55106" lon="3.31759">
        <ele>290.4</ele>
        <time>2017-12-09T13:00:33Z</time>
      </trkpt>
      <trkpt lat="43.55102" lon="3.31755">
        <ele>290</ele>
        <time>2017-12-09T13:00:34Z</time>
      </trkpt>
      <trkpt lat="43.55097" lon="3.31753">
        <ele>289.5</ele>
        <time>2017-12-09T13:00:35Z</time>
      </trkpt>
      <trkpt lat="43.5509" lon="3.31752">
        <ele>288.8</ele>
        <time>2017-12-09T13:00:36Z</time>
      </trkpt>
      <trkpt lat="43.55083" lon="3.31752">
        <ele>288</ele>
        <time>2017-12-09T13:00:37Z</time>
      </trkpt>
      <trkpt lat="43.55075" lon="3.31752">
        <ele>287.1</ele>
        <time>2017-12-09T13:00:38Z</time>
      </trkpt>
      <trkpt lat="43.55068" lon="3.31753">
        <ele>286.2</ele>
        <time>2017-12-09T13:00:39Z</time>
      </trkpt>
      <trkpt lat="43.5506" lon="3.31756">
        <ele>285.4</ele>
        <time>2017-12-09T13:00:40Z</time>
      </trkpt>
      <trkpt lat="43.55054" lon="3.31763">
        <ele>284.7</ele>
        <time>2017-12-09T13:00:41Z</time>
      </trkpt>
      <trkpt lat="43.55049" lon="3.31771">
        <ele>284.1</ele>
        <time>2017-12-09T13:00:42Z</time>
      </trkpt>
      <trkpt lat="43.55044" lon="3.3178">
        <ele>283.5</ele>
        <time>2017-12-09T13:00:43Z</time>
      </trkpt>
      <trkpt lat="43.5504" lon="3.3179">
        <ele>283.1</ele>
        <time>2017-12-09T13:00:44Z</time>
      </trkpt>
      <trkpt lat="43.55034" lon="3.31795">
        <ele>283.3</ele>
        <time>2017-12-09T13:00:45Z</time>
      </trkpt>
      <trkpt lat="43.55029" lon="3.31799">
        <ele>283.9</ele>
        <time>2017-12-09T13:00:46Z</time>
      </trkpt>
      <trkpt lat="43.55026" lon="3.31802">
        <ele>284.4</ele>
        <time>2017-12-09T13:00:47Z</time>
      </trkpt>
      <trkpt lat="43.55023" lon="3.31804">
        <ele>284.8</ele>
        <time>2017-12-09T13:00:48Z</time>
      </trkpt>
      <trkpt lat="43.5502" lon="3.31807">
        <ele>285.1</ele>
        <time>2017-12-09T13:00:49Z</time>
      </trkpt>
      <trkpt lat="43.55018" lon="3.3181">
        <ele>285.3</ele>
        <time>2017-12-09T13:00:50Z</time>
      </trkpt>
      <trkpt lat="43.55014" lon="3.31814">
        <ele>285.6</ele>
        <time>2017-12-09T13:00:52Z</time>
      </trkpt>
      <trkpt lat="43.55012" lon="3.31816">
        <ele>285.7</ele>
        <time>2017-12-09T13:00:53Z</time>
      </trkpt>
      <trkpt lat="43.5501" lon="3.31819">
        <ele>285.9</ele>
        <time>2017-12-09T13:00:54Z</time>
      </trkpt>
      <trkpt lat="43.55007" lon="3.31822">
        <ele>286</ele>
        <time>2017-12-09T13:00:55Z</time>
      </trkpt>
      <trkpt lat="43.55005" lon="3.31825">
        <ele>286.1</ele>
        <time>2017-12-09T13:00:56Z</time>
      </trkpt>
      <trkpt lat="43.55002" lon="3.31828">
        <ele>286.2</ele>
        <time>2017-12-09T13:00:57Z</time>
      </trkpt>
      <trkpt lat="43.55" lon="3.31831">
        <ele>286.3</ele>
        <time>2017-12-09T13:00:58Z</time>
      </trkpt>
      <trkpt lat="43.54997" lon="3.31835">
        <ele>286.5</ele>
        <time>2017-12-09T13:00:59Z</time>
      </trkpt>
      <trkpt lat="43.54993" lon="3.31839">
        <ele>286.6</ele>
        <time>2017-12-09T13:01:00Z</time>
      </trkpt>
      <trkpt lat="43.5499" lon="3.31842">
        <ele>286.7</ele>
        <time>2017-12-09T13:01:01Z</time>
      </trkpt>
      <trkpt lat="43.54987" lon="3.31845">
        <ele>286.8</ele>
        <time>2017-12-09T13:01:02Z</time>
      </trkpt>
      <trkpt lat="43.54984" lon="3.31848">
        <ele>286.9</ele>
        <time>2017-12-09T13:01:03Z</time>
      </trkpt>
      <trkpt lat="43.5498" lon="3.31851">
        <ele>287.1</ele>
        <time>2017-12-09T13:01:04Z</time>
      </trkpt>
      <trkpt lat="43.54976" lon="3.31854">
        <ele>287.2</ele>
        <time>2017-12-09T13:01:05Z</time>
      </trkpt>
      <trkpt lat="43.54973" lon="3.31856">
        <ele>287.3</ele>
        <time>2017-12-09T13:01:06Z</time>
      </trkpt>
      <trkpt lat="43.54969" lon="3.31859">
        <ele>287.4</ele>
        <time>2017-12-09T13:01:07Z</time>
      </trkpt>
      <trkpt lat="43.54965" lon="3.31862">
        <ele>287.5</ele>
        <time>2017-12-09T13:01:08Z</time>
      </trkpt>
      <trkpt lat="43.54962" lon="3.31865">
        <ele>287.6</ele>
        <time>2017-12-09T13:01:09Z</time>
      </trkpt>
      <trkpt lat="43.54958" lon="3.31867">
        <ele>287.8</ele>
        <time>2017-12-09T13:01:10Z</time>
      </trkpt>
      <trkpt lat="43.54955" lon="3.31869">
        <ele>287.9</ele>
        <time>2017-12-09T13:01:11Z</time>
      </trkpt>
      <trkpt lat="43.54952" lon="3.31871">
        <ele>288</ele>
        <time>2017-12-09T13:01:12Z</time>
      </trkpt>
      <trkpt lat="43.54949" lon="3.31874">
        <ele>288.1</ele>
        <time>2017-12-09T13:01:13Z</time>
      </trkpt>
      <trkpt lat="43.54946" lon="3.31876">
        <ele>288.2</ele>
        <time>2017-12-09T13:01:14Z</time>
      </trkpt>
      <trkpt lat="43.54942" lon="3.31878">
        <ele>288.4</ele>
        <time>2017-12-09T13:01:15Z</time>
      </trkpt>
      <trkpt lat="43.54939" lon="3.31879">
        <ele>288.6</ele>
        <time>2017-12-09T13:01:16Z</time>
      </trkpt>
      <trkpt lat="43.54937" lon="3.31881">
        <ele>288.7</ele>
        <time>2017-12-09T13:01:17Z</time>
      </trkpt>
      <trkpt lat="43.54934" lon="3.31883">
        <ele>289</ele>
        <time>2017-12-09T13:01:18Z</time>
      </trkpt>
      <trkpt lat="43.54931" lon="3.31885">
        <ele>289.2</ele>
        <time>2017-12-09T13:01:19Z</time>
      </trkpt>
      <trkpt lat="43.54928" lon="3.31887">
        <ele>289.5</ele>
        <time>2017-12-09T13:01:20Z</time>
      </trkpt>
      <trkpt lat="43.54925" lon="3.31889">
        <ele>289.8</ele>
        <time>2017-12-09T13:01:21Z</time>
      </trkpt>
      <trkpt lat="43.54922" lon="3.31891">
        <ele>290.2</ele>
        <time>2017-12-09T13:01:22Z</time>
      </trkpt>
      <trkpt lat="43.54919" lon="3.31892">
        <ele>290.6</ele>
        <time>2017-12-09T13:01:23Z</time>
      </trkpt>
      <trkpt lat="43.54916" lon="3.31894">
        <ele>290.9</ele>
        <time>2017-12-09T13:01:24Z</time>
      </trkpt>
      <trkpt lat="43.54914" lon="3.31895">
        <ele>291.2</ele>
        <time>2017-12-09T13:01:25Z</time>
      </trkpt>
      <trkpt lat="43.54907" lon="3.319">
        <ele>291.8</ele>
        <time>2017-12-09T13:01:27Z</time>
      </trkpt>
      <trkpt lat="43.54903" lon="3.31903">
        <ele>292.1</ele>
        <time>2017-12-09T13:01:28Z</time>
      </trkpt>
      <trkpt lat="43.54899" lon="3.31905">
        <ele>292.3</ele>
        <time>2017-12-09T13:01:29Z</time>
      </trkpt>
      <trkpt lat="43.54896" lon="3.31908">
        <ele>292.6</ele>
        <time>2017-12-09T13:01:30Z</time>
      </trkpt>
      <trkpt lat="43.54892" lon="3.31911">
        <ele>293</ele>
        <time>2017-12-09T13:01:31Z</time>
      </trkpt>
      <trkpt lat="43.54888" lon="3.31914">
        <ele>293.3</ele>
        <time>2017-12-09T13:01:32Z</time>
      </trkpt>
      <trkpt lat="43.54884" lon="3.31918">
        <ele>293.8</ele>
        <time>2017-12-09T13:01:33Z</time>
      </trkpt>
      <trkpt lat="43.5488" lon="3.31922">
        <ele>294.2</ele>
        <time>2017-12-09T13:01:34Z</time>
      </trkpt>
      <trkpt lat="43.54877" lon="3.31928">
        <ele>294.6</ele>
        <time>2017-12-09T13:01:35Z</time>
      </trkpt>
      <trkpt lat="43.54873" lon="3.31935">
        <ele>295</ele>
        <time>2017-12-09T13:01:36Z</time>
      </trkpt>
      <trkpt lat="43.54869" lon="3.31941">
        <ele>295.2</ele>
        <time>2017-12-09T13:01:37Z</time>
      </trkpt>
      <trkpt lat="43.54866" lon="3.31949">
        <ele>295.4</ele>
        <time>2017-12-09T13:01:38Z</time>
      </trkpt>
      <trkpt lat="43.54864" lon="3.31957">
        <ele>295.6</ele>
        <time>2017-12-09T13:01:39Z</time>
      </trkpt>
      <trkpt lat="43.54863" lon="3.31964">
        <ele>295.8</ele>
        <time>2017-12-09T13:01:40Z</time>
      </trkpt>
      <trkpt lat="43.54862" lon="3.31971">
        <ele>295.9</ele>
        <time>2017-12-09T13:01:41Z</time>
      </trkpt>
      <trkpt lat="43.54864" lon="3.31978">
        <ele>296</ele>
        <time>2017-12-09T13:01:42Z</time>
      </trkpt>
      <trkpt lat="43.54865" lon="3.31984">
        <ele>296.2</ele>
        <time>2017-12-09T13:01:43Z</time>
      </trkpt>
      <trkpt lat="43.54867" lon="3.31988">
        <ele>296.3</ele>
        <time>2017-12-09T13:01:44Z</time>
      </trkpt>
      <trkpt lat="43.54868" lon="3.31992">
        <ele>296.4</ele>
        <time>2017-12-09T13:01:45Z</time>
      </trkpt>
      <trkpt lat="43.54869" lon="3.31996">
        <ele>296.6</ele>
        <time>2017-12-09T13:01:46Z</time>
      </trkpt>
      <trkpt lat="43.54871" lon="3.32003">
        <ele>296.8</ele>
        <time>2017-12-09T13:01:48Z</time>
      </trkpt>
      <trkpt lat="43.54873" lon="3.32009">
        <ele>297.1</ele>
        <time>2017-12-09T13:01:50Z</time>
      </trkpt>
      <trkpt lat="43.54876" lon="3.32014">
        <ele>297.3</ele>
        <time>2017-12-09T13:01:52Z</time>
      </trkpt>
      <trkpt lat="43.54879" lon="3.3202">
        <ele>297.6</ele>
        <time>2017-12-09T13:01:54Z</time>
      </trkpt>
      <trkpt lat="43.54881" lon="3.32024">
        <ele>297.8</ele>
        <time>2017-12-09T13:01:56Z</time>
      </trkpt>
      <trkpt lat="43.54882" lon="3.32031">
        <ele>298.2</ele>
        <time>2017-12-09T13:01:58Z</time>
      </trkpt>
      <trkpt lat="43.54881" lon="3.32035">
        <ele>298.5</ele>
        <time>2017-12-09T13:01:59Z</time>
      </trkpt>
      <trkpt lat="43.5488" lon="3.3204">
        <ele>298.8</ele>
        <time>2017-12-09T13:02:00Z</time>
      </trkpt>
      <trkpt lat="43.54877" lon="3.32045">
        <ele>299</ele>
        <time>2017-12-09T13:02:01Z</time>
      </trkpt>
      <trkpt lat="43.54875" lon="3.32051">
        <ele>299.3</ele>
        <time>2017-12-09T13:02:02Z</time>
      </trkpt>
      <trkpt lat="43.54872" lon="3.32056">
        <ele>299.6</ele>
        <time>2017-12-09T13:02:03Z</time>
      </trkpt>
      <trkpt lat="43.54869" lon="3.32062">
        <ele>299.9</ele>
        <time>2017-12-09T13:02:04Z</time>
      </trkpt>
      <trkpt lat="43.54866" lon="3.32068">
        <ele>300.2</ele>
        <time>2017-12-09T13:02:05Z</time>
      </trkpt>
      <trkpt lat="43.54863" lon="3.32073">
        <ele>300.6</ele>
        <time>2017-12-09T13:02:06Z</time>
      </trkpt>
      <trkpt lat="43.5486" lon="3.32078">
        <ele>300.9</ele>
        <time>2017-12-09T13:02:07Z</time>
      </trkpt>
      <trkpt lat="43.54856" lon="3.32083">
        <ele>301.2</ele>
        <time>2017-12-09T13:02:08Z</time>
      </trkpt>
      <trkpt lat="43.54853" lon="3.32088">
        <ele>301.5</ele>
        <time>2017-12-09T13:02:09Z</time>
      </trkpt>
      <trkpt lat="43.54849" lon="3.32093">
        <ele>301.8</ele>
        <time>2017-12-09T13:02:10Z</time>
      </trkpt>
      <trkpt lat="43.54846" lon="3.32097">
        <ele>302.2</ele>
        <time>2017-12-09T13:02:11Z</time>
      </trkpt>
      <trkpt lat="43.54842" lon="3.32101">
        <ele>302.6</ele>
        <time>2017-12-09T13:02:12Z</time>
      </trkpt>
      <trkpt lat="43.54839" lon="3.32105">
        <ele>303</ele>
        <time>2017-12-09T13:02:13Z</time>
      </trkpt>
      <trkpt lat="43.54836" lon="3.32109">
        <ele>301.7</ele>
        <time>2017-12-09T13:02:14Z</time>
      </trkpt>
      <trkpt lat="43.54832" lon="3.32113">
        <ele>300.7</ele>
        <time>2017-12-09T13:02:15Z</time>
      </trkpt>
      <trkpt lat="43.54829" lon="3.32117">
        <ele>299.7</ele>
        <time>2017-12-09T13:02:16Z</time>
      </trkpt>
      <trkpt lat="43.54826" lon="3.3212">
        <ele>298.8</ele>
        <time>2017-12-09T13:02:17Z</time>
      </trkpt>
      <trkpt lat="43.54822" lon="3.32124">
        <ele>297.9</ele>
        <time>2017-12-09T13:02:18Z</time>
      </trkpt>
      <trkpt lat="43.54819" lon="3.32127">
        <ele>297.1</ele>
        <time>2017-12-09T13:02:19Z</time>
      </trkpt>
      <trkpt lat="43.54815" lon="3.3213">
        <ele>296.2</ele>
        <time>2017-12-09T13:02:20Z</time>
      </trkpt>
      <trkpt lat="43.54811" lon="3.32133">
        <ele>295.4</ele>
        <time>2017-12-09T13:02:21Z</time>
      </trkpt>
      <trkpt lat="43.54808" lon="3.32137">
        <ele>294.6</ele>
        <time>2017-12-09T13:02:22Z</time>
      </trkpt>
      <trkpt lat="43.54805" lon="3.3214">
        <ele>293.9</ele>
        <time>2017-12-09T13:02:23Z</time>
      </trkpt>
      <trkpt lat="43.54801" lon="3.32144">
        <ele>293.1</ele>
        <time>2017-12-09T13:02:24Z</time>
      </trkpt>
      <trkpt lat="43.54798" lon="3.32147">
        <ele>292.4</ele>
        <time>2017-12-09T13:02:25Z</time>
      </trkpt>
      <trkpt lat="43.54796" lon="3.32151">
        <ele>291.6</ele>
        <time>2017-12-09T13:02:26Z</time>
      </trkpt>
      <trkpt lat="43.54793" lon="3.32155">
        <ele>290.8</ele>
        <time>2017-12-09T13:02:27Z</time>
      </trkpt>
      <trkpt lat="43.54791" lon="3.32159">
        <ele>290.1</ele>
        <time>2017-12-09T13:02:28Z</time>
      </trkpt>
      <trkpt lat="43.54789" lon="3.32162">
        <ele>289.5</ele>
        <time>2017-12-09T13:02:29Z</time>
      </trkpt>
      <trkpt lat="43.54787" lon="3.32168">
        <ele>289</ele>
        <time>2017-12-09T13:02:31Z</time>
      </trkpt>
      <trkpt lat="43.54786" lon="3.32171">
        <ele>288.9</ele>
        <time>2017-12-09T13:02:34Z</time>
      </trkpt>
      <trkpt lat="43.54784" lon="3.32175">
        <ele>288.9</ele>
        <time>2017-12-09T13:02:36Z</time>
      </trkpt>
      <trkpt lat="43.54782" lon="3.32181">
        <ele>288.9</ele>
        <time>2017-12-09T13:02:38Z</time>
      </trkpt>
      <trkpt lat="43.5478" lon="3.32187">
        <ele>288.8</ele>
        <time>2017-12-09T13:02:40Z</time>
      </trkpt>
      <trkpt lat="43.54779" lon="3.3219">
        <ele>288.8</ele>
        <time>2017-12-09T13:02:41Z</time>
      </trkpt>
      <trkpt lat="43.54777" lon="3.32194">
        <ele>288.8</ele>
        <time>2017-12-09T13:02:42Z</time>
      </trkpt>
      <trkpt lat="43.54775" lon="3.32198">
        <ele>288.7</ele>
        <time>2017-12-09T13:02:43Z</time>
      </trkpt>
      <trkpt lat="43.54773" lon="3.32201">
        <ele>288.7</ele>
        <time>2017-12-09T13:02:44Z</time>
      </trkpt>
      <trkpt lat="43.54771" lon="3.32206">
        <ele>288.6</ele>
        <time>2017-12-09T13:02:45Z</time>
      </trkpt>
      <trkpt lat="43.54769" lon="3.3221">
        <ele>288.5</ele>
        <time>2017-12-09T13:02:46Z</time>
      </trkpt>
      <trkpt lat="43.54766" lon="3.32214">
        <ele>288.4</ele>
        <time>2017-12-09T13:02:47Z</time>
      </trkpt>
      <trkpt lat="43.54763" lon="3.32219">
        <ele>288.3</ele>
        <time>2017-12-09T13:02:48Z</time>
      </trkpt>
      <trkpt lat="43.54761" lon="3.32224">
        <ele>288</ele>
        <time>2017-12-09T13:02:49Z</time>
      </trkpt>
      <trkpt lat="43.54759" lon="3.3223">
        <ele>287.7</ele>
        <time>2017-12-09T13:02:50Z</time>
      </trkpt>
      <trkpt lat="43.54757" lon="3.32237">
        <ele>287.4</ele>
        <time>2017-12-09T13:02:51Z</time>
      </trkpt>
      <trkpt lat="43.54755" lon="3.32244">
        <ele>287.1</ele>
        <time>2017-12-09T13:02:52Z</time>
      </trkpt>
      <trkpt lat="43.54753" lon="3.32251">
        <ele>286.9</ele>
        <time>2017-12-09T13:02:53Z</time>
      </trkpt>
      <trkpt lat="43.5475" lon="3.32258">
        <ele>286.7</ele>
        <time>2017-12-09T13:02:54Z</time>
      </trkpt>
      <trkpt lat="43.54748" lon="3.32266">
        <ele>286.4</ele>
        <time>2017-12-09T13:02:55Z</time>
      </trkpt>
      <trkpt lat="43.54746" lon="3.32275">
        <ele>285.9</ele>
        <time>2017-12-09T13:02:56Z</time>
      </trkpt>
      <trkpt lat="43.54744" lon="3.32283">
        <ele>285.3</ele>
        <time>2017-12-09T13:02:57Z</time>
      </trkpt>
      <trkpt lat="43.54742" lon="3.32292">
        <ele>285</ele>
        <time>2017-12-09T13:02:58Z</time>
      </trkpt>
      <trkpt lat="43.5474" lon="3.32299">
        <ele>284.7</ele>
        <time>2017-12-09T13:02:59Z</time>
      </trkpt>
      <trkpt lat="43.54738" lon="3.32303">
        <ele>284.4</ele>
        <time>2017-12-09T13:03:00Z</time>
      </trkpt>
      <trkpt lat="43.54737" lon="3.32307">
        <ele>284.2</ele>
        <time>2017-12-09T13:03:01Z</time>
      </trkpt>
      <trkpt lat="43.54735" lon="3.32312">
        <ele>283.9</ele>
        <time>2017-12-09T13:03:03Z</time>
      </trkpt>
      <trkpt lat="43.54733" lon="3.32319">
        <ele>283.5</ele>
        <time>2017-12-09T13:03:05Z</time>
      </trkpt>
      <trkpt lat="43.54731" lon="3.32324">
        <ele>283.1</ele>
        <time>2017-12-09T13:03:06Z</time>
      </trkpt>
      <trkpt lat="43.54729" lon="3.3233">
        <ele>282.8</ele>
        <time>2017-12-09T13:03:07Z</time>
      </trkpt>
      <trkpt lat="43.54726" lon="3.32336">
        <ele>282.3</ele>
        <time>2017-12-09T13:03:08Z</time>
      </trkpt>
      <trkpt lat="43.54724" lon="3.32343">
        <ele>281.8</ele>
        <time>2017-12-09T13:03:09Z</time>
      </trkpt>
      <trkpt lat="43.5472" lon="3.3235">
        <ele>281</ele>
        <time>2017-12-09T13:03:10Z</time>
      </trkpt>
      <trkpt lat="43.54716" lon="3.32357">
        <ele>280.1</ele>
        <time>2017-12-09T13:03:11Z</time>
      </trkpt>
      <trkpt lat="43.5471" lon="3.32363">
        <ele>279.2</ele>
        <time>2017-12-09T13:03:12Z</time>
      </trkpt>
      <trkpt lat="43.54705" lon="3.3237">
        <ele>278.2</ele>
        <time>2017-12-09T13:03:13Z</time>
      </trkpt>
      <trkpt lat="43.547" lon="3.32378">
        <ele>277.2</ele>
        <time>2017-12-09T13:03:14Z</time>
      </trkpt>
      <trkpt lat="43.54694" lon="3.32386">
        <ele>276.3</ele>
        <time>2017-12-09T13:03:15Z</time>
      </trkpt>
      <trkpt lat="43.54689" lon="3.32394">
        <ele>275.3</ele>
        <time>2017-12-09T13:03:16Z</time>
      </trkpt>
      <trkpt lat="43.54685" lon="3.32403">
        <ele>274.2</ele>
        <time>2017-12-09T13:03:17Z</time>
      </trkpt>
      <trkpt lat="43.5468" lon="3.32411">
        <ele>273.1</ele>
        <time>2017-12-09T13:03:18Z</time>
      </trkpt>
      <trkpt lat="43.54675" lon="3.32419">
        <ele>272</ele>
        <time>2017-12-09T13:03:19Z</time>
      </trkpt>
      <trkpt lat="43.5467" lon="3.32429">
        <ele>270.7</ele>
        <time>2017-12-09T13:03:20Z</time>
      </trkpt>
      <trkpt lat="43.54665" lon="3.3244">
        <ele>269.3</ele>
        <time>2017-12-09T13:03:21Z</time>
      </trkpt>
      <trkpt lat="43.5466" lon="3.32452">
        <ele>267.9</ele>
        <time>2017-12-09T13:03:22Z</time>
      </trkpt>
      <trkpt lat="43.54654" lon="3.32464">
        <ele>266.3</ele>
        <time>2017-12-09T13:03:23Z</time>
      </trkpt>
      <trkpt lat="43.54648" lon="3.32476">
        <ele>264.6</ele>
        <time>2017-12-09T13:03:24Z</time>
      </trkpt>
      <trkpt lat="43.54642" lon="3.32486">
        <ele>262.8</ele>
        <time>2017-12-09T13:03:25Z</time>
      </trkpt>
      <trkpt lat="43.54637" lon="3.32495">
        <ele>261.1</ele>
        <time>2017-12-09T13:03:26Z</time>
      </trkpt>
      <trkpt lat="43.5463" lon="3.32503">
        <ele>259.7</ele>
        <time>2017-12-09T13:03:27Z</time>
      </trkpt>
      <trkpt lat="43.54624" lon="3.3251">
        <ele>258.4</ele>
        <time>2017-12-09T13:03:28Z</time>
      </trkpt>
      <trkpt lat="43.54617" lon="3.32516">
        <ele>257.2</ele>
        <time>2017-12-09T13:03:29Z</time>
      </trkpt>
      <trkpt lat="43.54609" lon="3.32522">
        <ele>255.9</ele>
        <time>2017-12-09T13:03:30Z</time>
      </trkpt>
      <trkpt lat="43.54602" lon="3.32527">
        <ele>254.6</ele>
        <time>2017-12-09T13:03:31Z</time>
      </trkpt>
      <trkpt lat="43.54596" lon="3.32532">
        <ele>253.4</ele>
        <time>2017-12-09T13:03:32Z</time>
      </trkpt>
      <trkpt lat="43.54591" lon="3.32537">
        <ele>252</ele>
        <time>2017-12-09T13:03:33Z</time>
      </trkpt>
      <trkpt lat="43.54586" lon="3.32541">
        <ele>250.7</ele>
        <time>2017-12-09T13:03:34Z</time>
      </trkpt>
      <trkpt lat="43.54581" lon="3.32546">
        <ele>249.3</ele>
        <time>2017-12-09T13:03:35Z</time>
      </trkpt>
      <trkpt lat="43.54577" lon="3.32549">
        <ele>248.1</ele>
        <time>2017-12-09T13:03:36Z</time>
      </trkpt>
      <trkpt lat="43.54571" lon="3.3255">
        <ele>246.8</ele>
        <time>2017-12-09T13:03:37Z</time>
      </trkpt>
      <trkpt lat="43.54566" lon="3.3255">
        <ele>245.4</ele>
        <time>2017-12-09T13:03:38Z</time>
      </trkpt>
      <trkpt lat="43.54561" lon="3.3255">
        <ele>244.1</ele>
        <time>2017-12-09T13:03:39Z</time>
      </trkpt>
      <trkpt lat="43.54556" lon="3.32552">
        <ele>242.9</ele>
        <time>2017-12-09T13:03:40Z</time>
      </trkpt>
      <trkpt lat="43.54551" lon="3.32555">
        <ele>241.8</ele>
        <time>2017-12-09T13:03:41Z</time>
      </trkpt>
      <trkpt lat="43.54546" lon="3.32559">
        <ele>240.5</ele>
        <time>2017-12-09T13:03:42Z</time>
      </trkpt>
      <trkpt lat="43.54541" lon="3.32563">
        <ele>239.4</ele>
        <time>2017-12-09T13:03:43Z</time>
      </trkpt>
      <trkpt lat="43.54537" lon="3.32567">
        <ele>238.1</ele>
        <time>2017-12-09T13:03:44Z</time>
      </trkpt>
      <trkpt lat="43.54533" lon="3.32571">
        <ele>236.8</ele>
        <time>2017-12-09T13:03:45Z</time>
      </trkpt>
      <trkpt lat="43.54529" lon="3.32574">
        <ele>235.7</ele>
        <time>2017-12-09T13:03:46Z</time>
      </trkpt>
      <trkpt lat="43.54525" lon="3.32577">
        <ele>234.5</ele>
        <time>2017-12-09T13:03:47Z</time>
      </trkpt>
      <trkpt lat="43.54521" lon="3.32578">
        <ele>233.5</ele>
        <time>2017-12-09T13:03:48Z</time>
      </trkpt>
      <trkpt lat="43.54517" lon="3.32578">
        <ele>232.5</ele>
        <time>2017-12-09T13:03:49Z</time>
      </trkpt>
      <trkpt lat="43.54515" lon="3.32575">
        <ele>231.6</ele>
        <time>2017-12-09T13:03:50Z</time>
      </trkpt>
      <trkpt lat="43.54512" lon="3.3257">
        <ele>230.8</ele>
        <time>2017-12-09T13:03:51Z</time>
      </trkpt>
      <trkpt lat="43.54509" lon="3.32565">
        <ele>229.9</ele>
        <time>2017-12-09T13:03:52Z</time>
      </trkpt>
      <trkpt lat="43.54506" lon="3.3256">
        <ele>228.8</ele>
        <time>2017-12-09T13:03:53Z</time>
      </trkpt>
      <trkpt lat="43.54503" lon="3.32555">
        <ele>227.9</ele>
        <time>2017-12-09T13:03:54Z</time>
      </trkpt>
      <trkpt lat="43.54501" lon="3.32551">
        <ele>227.1</ele>
        <time>2017-12-09T13:03:55Z</time>
      </trkpt>
      <trkpt lat="43.54499" lon="3.32546">
        <ele>226.8</ele>
        <time>2017-12-09T13:03:56Z</time>
      </trkpt>
      <trkpt lat="43.54497" lon="3.32541">
        <ele>226.4</ele>
        <time>2017-12-09T13:03:57Z</time>
      </trkpt>
      <trkpt lat="43.54495" lon="3.32536">
        <ele>225.7</ele>
        <time>2017-12-09T13:03:58Z</time>
      </trkpt>
      <trkpt lat="43.54493" lon="3.32532">
        <ele>224.8</ele>
        <time>2017-12-09T13:03:59Z</time>
      </trkpt>
      <trkpt lat="43.54491" lon="3.32528">
        <ele>224.1</ele>
        <time>2017-12-09T13:04:00Z</time>
      </trkpt>
      <trkpt lat="43.54489" lon="3.32523">
        <ele>223.3</ele>
        <time>2017-12-09T13:04:01Z</time>
      </trkpt>
      <trkpt lat="43.54487" lon="3.32519">
        <ele>222.4</ele>
        <time>2017-12-09T13:04:02Z</time>
      </trkpt>
      <trkpt lat="43.54485" lon="3.32515">
        <ele>221.6</ele>
        <time>2017-12-09T13:04:03Z</time>
      </trkpt>
      <trkpt lat="43.54482" lon="3.32513">
        <ele>220.7</ele>
        <time>2017-12-09T13:04:04Z</time>
      </trkpt>
      <trkpt lat="43.54479" lon="3.32512">
        <ele>220</ele>
        <time>2017-12-09T13:04:05Z</time>
      </trkpt>
      <trkpt lat="43.54476" lon="3.32511">
        <ele>219.5</ele>
        <time>2017-12-09T13:04:06Z</time>
      </trkpt>
      <trkpt lat="43.54472" lon="3.32515">
        <ele>218.4</ele>
        <time>2017-12-09T13:04:08Z</time>
      </trkpt>
      <trkpt lat="43.54469" lon="3.32519">
        <ele>217.7</ele>
        <time>2017-12-09T13:04:09Z</time>
      </trkpt>
      <trkpt lat="43.54467" lon="3.32522">
        <ele>217</ele>
        <time>2017-12-09T13:04:10Z</time>
      </trkpt>
      <trkpt lat="43.54465" lon="3.32524">
        <ele>216.5</ele>
        <time>2017-12-09T13:04:11Z</time>
      </trkpt>
      <trkpt lat="43.54462" lon="3.32526">
        <ele>216</ele>
        <time>2017-12-09T13:04:13Z</time>
      </trkpt>
      <trkpt lat="43.54458" lon="3.32526">
        <ele>215.4</ele>
        <time>2017-12-09T13:04:15Z</time>
      </trkpt>
      <trkpt lat="43.54453" lon="3.32528">
        <ele>214.4</ele>
        <time>2017-12-09T13:04:17Z</time>
      </trkpt>
      <trkpt lat="43.54449" lon="3.32529">
        <ele>219.8</ele>
        <time>2017-12-09T13:04:18Z</time>
      </trkpt>
      <trkpt lat="43.54445" lon="3.3253">
        <ele>219.9</ele>
        <time>2017-12-09T13:04:19Z</time>
      </trkpt>
      <trkpt lat="43.54442" lon="3.32531">
        <ele>220.1</ele>
        <time>2017-12-09T13:04:20Z</time>
      </trkpt>
      <trkpt lat="43.54438" lon="3.32532">
        <ele>220.3</ele>
        <time>2017-12-09T13:04:21Z</time>
      </trkpt>
      <trkpt lat="43.54434" lon="3.32531">
        <ele>220.5</ele>
        <time>2017-12-09T13:04:22Z</time>
      </trkpt>
      <trkpt lat="43.5443" lon="3.3253">
        <ele>220.7</ele>
        <time>2017-12-09T13:04:23Z</time>
      </trkpt>
      <trkpt lat="43.54426" lon="3.32528">
        <ele>220.9</ele>
        <time>2017-12-09T13:04:24Z</time>
      </trkpt>
      <trkpt lat="43.54423" lon="3.32527">
        <ele>221.1</ele>
        <time>2017-12-09T13:04:25Z</time>
      </trkpt>
      <trkpt lat="43.54419" lon="3.32525">
        <ele>221.3</ele>
        <time>2017-12-09T13:04:27Z</time>
      </trkpt>
      <trkpt lat="43.54416" lon="3.32525">
        <ele>221.4</ele>
        <time>2017-12-09T13:04:29Z</time>
      </trkpt>
      <trkpt lat="43.54413" lon="3.32528">
        <ele>221.6</ele>
        <time>2017-12-09T13:04:49Z</time>
      </trkpt>
      <trkpt lat="43.54411" lon="3.32531">
        <ele>221.8</ele>
        <time>2017-12-09T13:04:52Z</time>
      </trkpt>
      <trkpt lat="43.54407" lon="3.32529">
        <ele>222</ele>
        <time>2017-12-09T13:04:54Z</time>
      </trkpt>
      <trkpt lat="43.54408" lon="3.32526">
        <ele>222</ele>
        <time>2017-12-09T13:04:55Z</time>
      </trkpt>
      <trkpt lat="43.54408" lon="3.32522">
        <ele>222</ele>
        <time>2017-12-09T13:04:56Z</time>
      </trkpt>
      <trkpt lat="43.54409" lon="3.32518">
        <ele>222</ele>
        <time>2017-12-09T13:04:57Z</time>
      </trkpt>
      <trkpt lat="43.5441" lon="3.32513">
        <ele>222</ele>
        <time>2017-12-09T13:04:59Z</time>
      </trkpt>
      <trkpt lat="43.5441" lon="3.32507">
        <ele>222</ele>
        <time>2017-12-09T13:05:34Z</time>
      </trkpt>
      <trkpt lat="43.5441" lon="3.32502">
        <ele>222</ele>
        <time>2017-12-09T13:05:37Z</time>
      </trkpt>
      <trkpt lat="43.54409" lon="3.32496">
        <ele>222</ele>
        <time>2017-12-09T13:05:39Z</time>
      </trkpt>
      <trkpt lat="43.54407" lon="3.32491">
        <ele>222</ele>
        <time>2017-12-09T13:05:41Z</time>
      </trkpt>
      <trkpt lat="43.54408" lon="3.32486">
        <ele>222</ele>
        <time>2017-12-09T13:05:43Z</time>
      </trkpt>
      <trkpt lat="43.5441" lon="3.32481">
        <ele>222</ele>
        <time>2017-12-09T13:05:44Z</time>
      </trkpt>
      <trkpt lat="43.54411" lon="3.32475">
        <ele>222</ele>
        <time>2017-12-09T13:05:45Z</time>
      </trkpt>
      <trkpt lat="43.54413" lon="3.3247">
        <ele>222.3</ele>
        <time>2017-12-09T13:05:46Z</time>
      </trkpt>
      <trkpt lat="43.54415" lon="3.32463">
        <ele>222.6</ele>
        <time>2017-12-09T13:05:47Z</time>
      </trkpt>
      <trkpt lat="43.54417" lon="3.32456">
        <ele>222.8</ele>
        <time>2017-12-09T13:05:48Z</time>
      </trkpt>
      <trkpt lat="43.5442" lon="3.32448">
        <ele>222.5</ele>
        <time>2017-12-09T13:05:49Z</time>
      </trkpt>
      <trkpt lat="43.54422" lon="3.3244">
        <ele>221.3</ele>
        <time>2017-12-09T13:05:50Z</time>
      </trkpt>
      <trkpt lat="43.54424" lon="3.32432">
        <ele>220.6</ele>
        <time>2017-12-09T13:05:51Z</time>
      </trkpt>
      <trkpt lat="43.54426" lon="3.32424">
        <ele>220.2</ele>
        <time>2017-12-09T13:05:52Z</time>
      </trkpt>
      <trkpt lat="43.54428" lon="3.32417">
        <ele>219.8</ele>
        <time>2017-12-09T13:05:53Z</time>
      </trkpt>
      <trkpt lat="43.5443" lon="3.3241">
        <ele>219.6</ele>
        <time>2017-12-09T13:05:54Z</time>
      </trkpt>
      <trkpt lat="43.54432" lon="3.32403">
        <ele>219.4</ele>
        <time>2017-12-09T13:05:55Z</time>
      </trkpt>
      <trkpt lat="43.54433" lon="3.32395">
        <ele>219.3</ele>
        <time>2017-12-09T13:05:56Z</time>
      </trkpt>
      <trkpt lat="43.54435" lon="3.32389">
        <ele>219.4</ele>
        <time>2017-12-09T13:05:57Z</time>
      </trkpt>
      <trkpt lat="43.54436" lon="3.32382">
        <ele>219.5</ele>
        <time>2017-12-09T13:05:58Z</time>
      </trkpt>
      <trkpt lat="43.54437" lon="3.32375">
        <ele>219.9</ele>
        <time>2017-12-09T13:05:59Z</time>
      </trkpt>
      <trkpt lat="43.54439" lon="3.32367">
        <ele>220.2</ele>
        <time>2017-12-09T13:06:00Z</time>
      </trkpt>
      <trkpt lat="43.5444" lon="3.32359">
        <ele>220.4</ele>
        <time>2017-12-09T13:06:01Z</time>
      </trkpt>
      <trkpt lat="43.54441" lon="3.32351">
        <ele>220.4</ele>
        <time>2017-12-09T13:06:02Z</time>
      </trkpt>
      <trkpt lat="43.54441" lon="3.32342">
        <ele>220.2</ele>
        <time>2017-12-09T13:06:03Z</time>
      </trkpt>
      <trkpt lat="43.54441" lon="3.32333">
        <ele>220</ele>
        <time>2017-12-09T13:06:04Z</time>
      </trkpt>
      <trkpt lat="43.54441" lon="3.32325">
        <ele>219.8</ele>
        <time>2017-12-09T13:06:05Z</time>
      </trkpt>
      <trkpt lat="43.5444" lon="3.32317">
        <ele>219.4</ele>
        <time>2017-12-09T13:06:06Z</time>
      </trkpt>
      <trkpt lat="43.54438" lon="3.32309">
        <ele>218.9</ele>
        <time>2017-12-09T13:06:07Z</time>
      </trkpt>
      <trkpt lat="43.54437" lon="3.32302">
        <ele>218.4</ele>
        <time>2017-12-09T13:06:08Z</time>
      </trkpt>
      <trkpt lat="43.54436" lon="3.32294">
        <ele>218</ele>
        <time>2017-12-09T13:06:09Z</time>
      </trkpt>
      <trkpt lat="43.54435" lon="3.32287">
        <ele>217.6</ele>
        <time>2017-12-09T13:06:10Z</time>
      </trkpt>
      <trkpt lat="43.54435" lon="3.3228">
        <ele>217.2</ele>
        <time>2017-12-09T13:06:11Z</time>
      </trkpt>
      <trkpt lat="43.54434" lon="3.32272">
        <ele>216.6</ele>
        <time>2017-12-09T13:06:12Z</time>
      </trkpt>
      <trkpt lat="43.54434" lon="3.32267">
        <ele>216.2</ele>
        <time>2017-12-09T13:06:13Z</time>
      </trkpt>
      <trkpt lat="43.54434" lon="3.32261">
        <ele>215.8</ele>
        <time>2017-12-09T13:06:14Z</time>
      </trkpt>
      <trkpt lat="43.54434" lon="3.32255">
        <ele>215.5</ele>
        <time>2017-12-09T13:06:15Z</time>
      </trkpt>
      <trkpt lat="43.54433" lon="3.32249">
        <ele>215.2</ele>
        <time>2017-12-09T13:06:16Z</time>
      </trkpt>
      <trkpt lat="43.54432" lon="3.32244">
        <ele>214.8</ele>
        <time>2017-12-09T13:06:17Z</time>
      </trkpt>
      <trkpt lat="43.5443" lon="3.32238">
        <ele>214.3</ele>
        <time>2017-12-09T13:06:18Z</time>
      </trkpt>
      <trkpt lat="43.54428" lon="3.3223">
        <ele>213.6</ele>
        <time>2017-12-09T13:06:19Z</time>
      </trkpt>
      <trkpt lat="43.54425" lon="3.32221">
        <ele>211.3</ele>
        <time>2017-12-09T13:06:20Z</time>
      </trkpt>
      <trkpt lat="43.54422" lon="3.32214">
        <ele>210.8</ele>
        <time>2017-12-09T13:06:21Z</time>
      </trkpt>
      <trkpt lat="43.5442" lon="3.32207">
        <ele>210.5</ele>
        <time>2017-12-09T13:06:22Z</time>
      </trkpt>
      <trkpt lat="43.54419" lon="3.32201">
        <ele>210.3</ele>
        <time>2017-12-09T13:06:23Z</time>
      </trkpt>
      <trkpt lat="43.54419" lon="3.32195">
        <ele>210.2</ele>
        <time>2017-12-09T13:06:24Z</time>
      </trkpt>
      <trkpt lat="43.54421" lon="3.3219">
        <ele>210</ele>
        <time>2017-12-09T13:06:25Z</time>
      </trkpt>
      <trkpt lat="43.54422" lon="3.32185">
        <ele>209.8</ele>
        <time>2017-12-09T13:06:26Z</time>
      </trkpt>
      <trkpt lat="43.54424" lon="3.32179">
        <ele>209.4</ele>
        <time>2017-12-09T13:06:27Z</time>
      </trkpt>
      <trkpt lat="43.54426" lon="3.32172">
        <ele>209</ele>
        <time>2017-12-09T13:06:28Z</time>
      </trkpt>
      <trkpt lat="43.54427" lon="3.32164">
        <ele>208.4</ele>
        <time>2017-12-09T13:06:29Z</time>
      </trkpt>
      <trkpt lat="43.54428" lon="3.32153">
        <ele>208.1</ele>
        <time>2017-12-09T13:06:30Z</time>
      </trkpt>
      <trkpt lat="43.54428" lon="3.32144">
        <ele>207.9</ele>
        <time>2017-12-09T13:06:31Z</time>
      </trkpt>
      <trkpt lat="43.54426" lon="3.32137">
        <ele>207.8</ele>
        <time>2017-12-09T13:06:32Z</time>
      </trkpt>
      <trkpt lat="43.54427" lon="3.32129">
        <ele>207.6</ele>
        <time>2017-12-09T13:06:33Z</time>
      </trkpt>
      <trkpt lat="43.54428" lon="3.32123">
        <ele>207.3</ele>
        <time>2017-12-09T13:06:34Z</time>
      </trkpt>
      <trkpt lat="43.54428" lon="3.32116">
        <ele>206.9</ele>
        <time>2017-12-09T13:06:35Z</time>
      </trkpt>
      <trkpt lat="43.54429" lon="3.32109">
        <ele>206.5</ele>
        <time>2017-12-09T13:06:36Z</time>
      </trkpt>
      <trkpt lat="43.54429" lon="3.32102">
        <ele>206.1</ele>
        <time>2017-12-09T13:06:37Z</time>
      </trkpt>
      <trkpt lat="43.5443" lon="3.32096">
        <ele>205.8</ele>
        <time>2017-12-09T13:06:38Z</time>
      </trkpt>
      <trkpt lat="43.54431" lon="3.3209">
        <ele>205.6</ele>
        <time>2017-12-09T13:06:39Z</time>
      </trkpt>
      <trkpt lat="43.54433" lon="3.32084">
        <ele>205.5</ele>
        <time>2017-12-09T13:06:40Z</time>
      </trkpt>
      <trkpt lat="43.54434" lon="3.32077">
        <ele>205.4</ele>
        <time>2017-12-09T13:06:41Z</time>
      </trkpt>
      <trkpt lat="43.54434" lon="3.32071">
        <ele>205.2</ele>
        <time>2017-12-09T13:06:42Z</time>
      </trkpt>
      <trkpt lat="43.54435" lon="3.32064">
        <ele>205.1</ele>
        <time>2017-12-09T13:06:43Z</time>
      </trkpt>
      <trkpt lat="43.54435" lon="3.32058">
        <ele>204.9</ele>
        <time>2017-12-09T13:06:44Z</time>
      </trkpt>
      <trkpt lat="43.54435" lon="3.3205">
        <ele>204.5</ele>
        <time>2017-12-09T13:06:45Z</time>
      </trkpt>
      <trkpt lat="43.54434" lon="3.32043">
        <ele>204.2</ele>
        <time>2017-12-09T13:06:46Z</time>
      </trkpt>
      <trkpt lat="43.54433" lon="3.32037">
        <ele>203.9</ele>
        <time>2017-12-09T13:06:47Z</time>
      </trkpt>
      <trkpt lat="43.54433" lon="3.32031">
        <ele>203.6</ele>
        <time>2017-12-09T13:06:48Z</time>
      </trkpt>
      <trkpt lat="43.54432" lon="3.32026">
        <ele>203.4</ele>
        <time>2017-12-09T13:06:49Z</time>
      </trkpt>
      <trkpt lat="43.54432" lon="3.3202">
        <ele>203.2</ele>
        <time>2017-12-09T13:06:50Z</time>
      </trkpt>
      <trkpt lat="43.54432" lon="3.32014">
        <ele>203</ele>
        <time>2017-12-09T13:06:51Z</time>
      </trkpt>
      <trkpt lat="43.54432" lon="3.3201">
        <ele>202.8</ele>
        <time>2017-12-09T13:06:52Z</time>
      </trkpt>
      <trkpt lat="43.5443" lon="3.32005">
        <ele>202.6</ele>
        <time>2017-12-09T13:06:53Z</time>
      </trkpt>
      <trkpt lat="43.54429" lon="3.32001">
        <ele>202.3</ele>
        <time>2017-12-09T13:06:54Z</time>
      </trkpt>
      <trkpt lat="43.54428" lon="3.31996">
        <ele>202.1</ele>
        <time>2017-12-09T13:06:55Z</time>
      </trkpt>
      <trkpt lat="43.54426" lon="3.31993">
        <ele>201.9</ele>
        <time>2017-12-09T13:06:56Z</time>
      </trkpt>
      <trkpt lat="43.54424" lon="3.3199">
        <ele>201.7</ele>
        <time>2017-12-09T13:06:57Z</time>
      </trkpt>
      <trkpt lat="43.5442" lon="3.31986">
        <ele>201.4</ele>
        <time>2017-12-09T13:06:59Z</time>
      </trkpt>
      <trkpt lat="43.54418" lon="3.31984">
        <ele>201.3</ele>
        <time>2017-12-09T13:07:00Z</time>
      </trkpt>
      <trkpt lat="43.54415" lon="3.31979">
        <ele>201.1</ele>
        <time>2017-12-09T13:07:02Z</time>
      </trkpt>
      <trkpt lat="43.54412" lon="3.31975">
        <ele>201</ele>
        <time>2017-12-09T13:07:04Z</time>
      </trkpt>
      <trkpt lat="43.54409" lon="3.31971">
        <ele>200.9</ele>
        <time>2017-12-09T13:07:06Z</time>
      </trkpt>
      <trkpt lat="43.54407" lon="3.31965">
        <ele>200.9</ele>
        <time>2017-12-09T13:07:08Z</time>
      </trkpt>
      <trkpt lat="43.54404" lon="3.31962">
        <ele>200.8</ele>
        <time>2017-12-09T13:07:10Z</time>
      </trkpt>
      <trkpt lat="43.54401" lon="3.31961">
        <ele>200.8</ele>
        <time>2017-12-09T13:07:12Z</time>
      </trkpt>
      <trkpt lat="43.54397" lon="3.31957">
        <ele>200.7</ele>
        <time>2017-12-09T13:07:14Z</time>
      </trkpt>
      <trkpt lat="43.54395" lon="3.31955">
        <ele>200.7</ele>
        <time>2017-12-09T13:07:16Z</time>
      </trkpt>
      <trkpt lat="43.54393" lon="3.3195">
        <ele>200.7</ele>
        <time>2017-12-09T13:07:18Z</time>
      </trkpt>
      <trkpt lat="43.54392" lon="3.31946">
        <ele>200.7</ele>
        <time>2017-12-09T13:07:20Z</time>
      </trkpt>
      <trkpt lat="43.54391" lon="3.31941">
        <ele>200.7</ele>
        <time>2017-12-09T13:07:22Z</time>
      </trkpt>
      <trkpt lat="43.5439" lon="3.31937">
        <ele>200.6</ele>
        <time>2017-12-09T13:07:24Z</time>
      </trkpt>
      <trkpt lat="43.54388" lon="3.31932">
        <ele>200.6</ele>
        <time>2017-12-09T13:07:26Z</time>
      </trkpt>
      <trkpt lat="43.54386" lon="3.31928">
        <ele>200.6</ele>
        <time>2017-12-09T13:07:28Z</time>
      </trkpt>
      <trkpt lat="43.54384" lon="3.31924">
        <ele>200.6</ele>
        <time>2017-12-09T13:07:30Z</time>
      </trkpt>
      <trkpt lat="43.54383" lon="3.3192">
        <ele>200.6</ele>
        <time>2017-12-09T13:07:32Z</time>
      </trkpt>
      <trkpt lat="43.54381" lon="3.31914">
        <ele>200.7</ele>
        <time>2017-12-09T13:07:35Z</time>
      </trkpt>
      <trkpt lat="43.5438" lon="3.31906">
        <ele>200.9</ele>
        <time>2017-12-09T13:07:37Z</time>
      </trkpt>
      <trkpt lat="43.54379" lon="3.31901">
        <ele>201.1</ele>
        <time>2017-12-09T13:07:38Z</time>
      </trkpt>
      <trkpt lat="43.54377" lon="3.31897">
        <ele>201.5</ele>
        <time>2017-12-09T13:07:39Z</time>
      </trkpt>
      <trkpt lat="43.54375" lon="3.31893">
        <ele>201.9</ele>
        <time>2017-12-09T13:07:40Z</time>
      </trkpt>
      <trkpt lat="43.54373" lon="3.31888">
        <ele>202.3</ele>
        <time>2017-12-09T13:07:41Z</time>
      </trkpt>
      <trkpt lat="43.54371" lon="3.31884">
        <ele>202.7</ele>
        <time>2017-12-09T13:07:42Z</time>
      </trkpt>
      <trkpt lat="43.54369" lon="3.3188">
        <ele>203.3</ele>
        <time>2017-12-09T13:07:43Z</time>
      </trkpt>
      <trkpt lat="43.54367" lon="3.31876">
        <ele>203.9</ele>
        <time>2017-12-09T13:07:44Z</time>
      </trkpt>
      <trkpt lat="43.54365" lon="3.31872">
        <ele>204.2</ele>
        <time>2017-12-09T13:07:45Z</time>
      </trkpt>
      <trkpt lat="43.54364" lon="3.31869">
        <ele>204.5</ele>
        <time>2017-12-09T13:07:46Z</time>
      </trkpt>
      <trkpt lat="43.54362" lon="3.31866">
        <ele>204.7</ele>
        <time>2017-12-09T13:07:47Z</time>
      </trkpt>
      <trkpt lat="43.5436" lon="3.31863">
        <ele>204.9</ele>
        <time>2017-12-09T13:07:48Z</time>
      </trkpt>
      <trkpt lat="43.54358" lon="3.3186">
        <ele>205.2</ele>
        <time>2017-12-09T13:07:49Z</time>
      </trkpt>
      <trkpt lat="43.54355" lon="3.31855">
        <ele>205.8</ele>
        <time>2017-12-09T13:07:51Z</time>
      </trkpt>
      <trkpt lat="43.54353" lon="3.31852">
        <ele>206</ele>
        <time>2017-12-09T13:07:52Z</time>
      </trkpt>
      <trkpt lat="43.5435" lon="3.31846">
        <ele>206.5</ele>
        <time>2017-12-09T13:07:54Z</time>
      </trkpt>
      <trkpt lat="43.54347" lon="3.3184">
        <ele>207</ele>
        <time>2017-12-09T13:07:56Z</time>
      </trkpt>
      <trkpt lat="43.54344" lon="3.31835">
        <ele>207.5</ele>
        <time>2017-12-09T13:07:58Z</time>
      </trkpt>
      <trkpt lat="43.5434" lon="3.31831">
        <ele>207.7</ele>
        <time>2017-12-09T13:08:00Z</time>
      </trkpt>
      <trkpt lat="43.54336" lon="3.31827">
        <ele>207.8</ele>
        <time>2017-12-09T13:08:02Z</time>
      </trkpt>
      <trkpt lat="43.54333" lon="3.31823">
        <ele>207.9</ele>
        <time>2017-12-09T13:08:04Z</time>
      </trkpt>
      <trkpt lat="43.5433" lon="3.31819">
        <ele>207.9</ele>
        <time>2017-12-09T13:08:06Z</time>
      </trkpt>
      <trkpt lat="43.54328" lon="3.31813">
        <ele>207.9</ele>
        <time>2017-12-09T13:08:08Z</time>
      </trkpt>
      <trkpt lat="43.54326" lon="3.31808">
        <ele>208</ele>
        <time>2017-12-09T13:08:10Z</time>
      </trkpt>
      <trkpt lat="43.54323" lon="3.31803">
        <ele>208</ele>
        <time>2017-12-09T13:08:12Z</time>
      </trkpt>
      <trkpt lat="43.54321" lon="3.31797">
        <ele>208</ele>
        <time>2017-12-09T13:08:14Z</time>
      </trkpt>
      <trkpt lat="43.54319" lon="3.31794">
        <ele>208</ele>
        <time>2017-12-09T13:08:15Z</time>
      </trkpt>
      <trkpt lat="43.54318" lon="3.31791">
        <ele>208</ele>
        <time>2017-12-09T13:08:16Z</time>
      </trkpt>
      <trkpt lat="43.54316" lon="3.31788">
        <ele>208</ele>
        <time>2017-12-09T13:08:17Z</time>
      </trkpt>
      <trkpt lat="43.54314" lon="3.31784">
        <ele>208</ele>
        <time>2017-12-09T13:08:18Z</time>
      </trkpt>
      <trkpt lat="43.54311" lon="3.3178">
        <ele>208</ele>
        <time>2017-12-09T13:08:19Z</time>
      </trkpt>
      <trkpt lat="43.54308" lon="3.31777">
        <ele>208.1</ele>
        <time>2017-12-09T13:08:20Z</time>
      </trkpt>
      <trkpt lat="43.54306" lon="3.31773">
        <ele>208.1</ele>
        <time>2017-12-09T13:08:21Z</time>
      </trkpt>
      <trkpt lat="43.54304" lon="3.31769">
        <ele>208.2</ele>
        <time>2017-12-09T13:08:22Z</time>
      </trkpt>
      <trkpt lat="43.54302" lon="3.31766">
        <ele>208.2</ele>
        <time>2017-12-09T13:08:23Z</time>
      </trkpt>
      <trkpt lat="43.54299" lon="3.31763">
        <ele>208.3</ele>
        <time>2017-12-09T13:08:24Z</time>
      </trkpt>
      <trkpt lat="43.54297" lon="3.3176">
        <ele>208.5</ele>
        <time>2017-12-09T13:08:25Z</time>
      </trkpt>
      <trkpt lat="43.54294" lon="3.31757">
        <ele>208.6</ele>
        <time>2017-12-09T13:08:26Z</time>
      </trkpt>
      <trkpt lat="43.54292" lon="3.31753">
        <ele>208.8</ele>
        <time>2017-12-09T13:08:27Z</time>
      </trkpt>
      <trkpt lat="43.5429" lon="3.31749">
        <ele>209.1</ele>
        <time>2017-12-09T13:08:28Z</time>
      </trkpt>
      <trkpt lat="43.54288" lon="3.31745">
        <ele>209.4</ele>
        <time>2017-12-09T13:08:29Z</time>
      </trkpt>
      <trkpt lat="43.54285" lon="3.31739">
        <ele>209.6</ele>
        <time>2017-12-09T13:08:30Z</time>
      </trkpt>
      <trkpt lat="43.54284" lon="3.31732">
        <ele>209.6</ele>
        <time>2017-12-09T13:08:31Z</time>
      </trkpt>
      <trkpt lat="43.54282" lon="3.31724">
        <ele>209.6</ele>
        <time>2017-12-09T13:08:32Z</time>
      </trkpt>
      <trkpt lat="43.5428" lon="3.31716">
        <ele>209.7</ele>
        <time>2017-12-09T13:08:33Z</time>
      </trkpt>
      <trkpt lat="43.54279" lon="3.31708">
        <ele>209.7</ele>
        <time>2017-12-09T13:08:34Z</time>
      </trkpt>
      <trkpt lat="43.54277" lon="3.317">
        <ele>209.7</ele>
        <time>2017-12-09T13:08:35Z</time>
      </trkpt>
      <trkpt lat="43.54274" lon="3.31693">
        <ele>209.7</ele>
        <time>2017-12-09T13:08:36Z</time>
      </trkpt>
      <trkpt lat="43.5427" lon="3.31687">
        <ele>209.6</ele>
        <time>2017-12-09T13:08:37Z</time>
      </trkpt>
      <trkpt lat="43.54266" lon="3.31683">
        <ele>209.5</ele>
        <time>2017-12-09T13:08:38Z</time>
      </trkpt>
      <trkpt lat="43.54262" lon="3.31682">
        <ele>209.5</ele>
        <time>2017-12-09T13:08:39Z</time>
      </trkpt>
      <trkpt lat="43.54259" lon="3.31682">
        <ele>209.4</ele>
        <time>2017-12-09T13:08:40Z</time>
      </trkpt>
      <trkpt lat="43.54255" lon="3.31679">
        <ele>209.3</ele>
        <time>2017-12-09T13:08:42Z</time>
      </trkpt>
      <trkpt lat="43.54252" lon="3.31677">
        <ele>209.2</ele>
        <time>2017-12-09T13:08:44Z</time>
      </trkpt>
      <trkpt lat="43.54249" lon="3.31673">
        <ele>208.9</ele>
        <time>2017-12-09T13:08:46Z</time>
      </trkpt>
      <trkpt lat="43.54247" lon="3.3167">
        <ele>208.6</ele>
        <time>2017-12-09T13:08:48Z</time>
      </trkpt>
      <trkpt lat="43.54245" lon="3.31666">
        <ele>208.3</ele>
        <time>2017-12-09T13:08:50Z</time>
      </trkpt>
      <trkpt lat="43.54242" lon="3.31662">
        <ele>208</ele>
        <time>2017-12-09T13:08:52Z</time>
      </trkpt>
      <trkpt lat="43.5424" lon="3.31657">
        <ele>207.6</ele>
        <time>2017-12-09T13:08:54Z</time>
      </trkpt>
      <trkpt lat="43.54237" lon="3.31651">
        <ele>207.4</ele>
        <time>2017-12-09T13:08:56Z</time>
      </trkpt>
      <trkpt lat="43.54235" lon="3.31648">
        <ele>207.3</ele>
        <time>2017-12-09T13:08:57Z</time>
      </trkpt>
      <trkpt lat="43.54233" lon="3.31644">
        <ele>207.2</ele>
        <time>2017-12-09T13:08:58Z</time>
      </trkpt>
      <trkpt lat="43.54231" lon="3.3164">
        <ele>207.1</ele>
        <time>2017-12-09T13:08:59Z</time>
      </trkpt>
      <trkpt lat="43.54228" lon="3.31637">
        <ele>206.6</ele>
        <time>2017-12-09T13:09:00Z</time>
      </trkpt>
      <trkpt lat="43.54226" lon="3.31635">
        <ele>206.5</ele>
        <time>2017-12-09T13:09:01Z</time>
      </trkpt>
      <trkpt lat="43.54222" lon="3.31631">
        <ele>206.5</ele>
        <time>2017-12-09T13:09:03Z</time>
      </trkpt>
      <trkpt lat="43.54219" lon="3.31629">
        <ele>206.7</ele>
        <time>2017-12-09T13:09:05Z</time>
      </trkpt>
      <trkpt lat="43.54216" lon="3.31626">
        <ele>206.9</ele>
        <time>2017-12-09T13:09:07Z</time>
      </trkpt>
      <trkpt lat="43.54213" lon="3.31623">
        <ele>207.3</ele>
        <time>2017-12-09T13:09:09Z</time>
      </trkpt>
      <trkpt lat="43.54211" lon="3.3162">
        <ele>207.7</ele>
        <time>2017-12-09T13:09:11Z</time>
      </trkpt>
      <trkpt lat="43.54208" lon="3.31616">
        <ele>208</ele>
        <time>2017-12-09T13:09:13Z</time>
      </trkpt>
      <trkpt lat="43.54205" lon="3.31611">
        <ele>208.1</ele>
        <time>2017-12-09T13:09:15Z</time>
      </trkpt>
      <trkpt lat="43.54201" lon="3.31607">
        <ele>208.2</ele>
        <time>2017-12-09T13:09:17Z</time>
      </trkpt>
      <trkpt lat="43.54197" lon="3.31602">
        <ele>208.2</ele>
        <time>2017-12-09T13:09:19Z</time>
      </trkpt>
      <trkpt lat="43.54195" lon="3.316">
        <ele>208.3</ele>
        <time>2017-12-09T13:09:20Z</time>
      </trkpt>
      <trkpt lat="43.54193" lon="3.31597">
        <ele>208.3</ele>
        <time>2017-12-09T13:09:21Z</time>
      </trkpt>
      <trkpt lat="43.54191" lon="3.31594">
        <ele>208.3</ele>
        <time>2017-12-09T13:09:22Z</time>
      </trkpt>
      <trkpt lat="43.54189" lon="3.31592">
        <ele>208.3</ele>
        <time>2017-12-09T13:09:23Z</time>
      </trkpt>
      <trkpt lat="43.54187" lon="3.31589">
        <ele>208.3</ele>
        <time>2017-12-09T13:09:24Z</time>
      </trkpt>
      <trkpt lat="43.54182" lon="3.31586">
        <ele>208.4</ele>
        <time>2017-12-09T13:09:26Z</time>
      </trkpt>
      <trkpt lat="43.54178" lon="3.31583">
        <ele>208.4</ele>
        <time>2017-12-09T13:09:28Z</time>
      </trkpt>
      <trkpt lat="43.54174" lon="3.31581">
        <ele>208.5</ele>
        <time>2017-12-09T13:09:30Z</time>
      </trkpt>
      <trkpt lat="43.5417" lon="3.31577">
        <ele>208.5</ele>
        <time>2017-12-09T13:09:32Z</time>
      </trkpt>
      <trkpt lat="43.54167" lon="3.31573">
        <ele>208.6</ele>
        <time>2017-12-09T13:09:34Z</time>
      </trkpt>
      <trkpt lat="43.54162" lon="3.31571">
        <ele>208.8</ele>
        <time>2017-12-09T13:09:36Z</time>
      </trkpt>
      <trkpt lat="43.54158" lon="3.31569">
        <ele>209.1</ele>
        <time>2017-12-09T13:09:38Z</time>
      </trkpt>
      <trkpt lat="43.54154" lon="3.31567">
        <ele>209.4</ele>
        <time>2017-12-09T13:09:40Z</time>
      </trkpt>
      <trkpt lat="43.5415" lon="3.31565">
        <ele>209.7</ele>
        <time>2017-12-09T13:09:42Z</time>
      </trkpt>
      <trkpt lat="43.54146" lon="3.31563">
        <ele>210</ele>
        <time>2017-12-09T13:09:44Z</time>
      </trkpt>
      <trkpt lat="43.54143" lon="3.31561">
        <ele>210.1</ele>
        <time>2017-12-09T13:09:46Z</time>
      </trkpt>
      <trkpt lat="43.54139" lon="3.31559">
        <ele>210.3</ele>
        <time>2017-12-09T13:09:48Z</time>
      </trkpt>
      <trkpt lat="43.54134" lon="3.31556">
        <ele>210.6</ele>
        <time>2017-12-09T13:09:50Z</time>
      </trkpt>
      <trkpt lat="43.54132" lon="3.31555">
        <ele>211</ele>
        <time>2017-12-09T13:09:51Z</time>
      </trkpt>
      <trkpt lat="43.54129" lon="3.31553">
        <ele>211.3</ele>
        <time>2017-12-09T13:09:52Z</time>
      </trkpt>
      <trkpt lat="43.54127" lon="3.31551">
        <ele>211.6</ele>
        <time>2017-12-09T13:09:53Z</time>
      </trkpt>
      <trkpt lat="43.54124" lon="3.31549">
        <ele>211.7</ele>
        <time>2017-12-09T13:09:54Z</time>
      </trkpt>
      <trkpt lat="43.54121" lon="3.31547">
        <ele>211.9</ele>
        <time>2017-12-09T13:09:55Z</time>
      </trkpt>
      <trkpt lat="43.54117" lon="3.31545">
        <ele>212.1</ele>
        <time>2017-12-09T13:09:56Z</time>
      </trkpt>
      <trkpt lat="43.54113" lon="3.31544">
        <ele>212.4</ele>
        <time>2017-12-09T13:09:57Z</time>
      </trkpt>
      <trkpt lat="43.54109" lon="3.31542">
        <ele>212.8</ele>
        <time>2017-12-09T13:09:58Z</time>
      </trkpt>
      <trkpt lat="43.54105" lon="3.3154">
        <ele>213.4</ele>
        <time>2017-12-09T13:09:59Z</time>
      </trkpt>
      <trkpt lat="43.541" lon="3.31538">
        <ele>213.8</ele>
        <time>2017-12-09T13:10:00Z</time>
      </trkpt>
      <trkpt lat="43.54095" lon="3.31536">
        <ele>214.1</ele>
        <time>2017-12-09T13:10:01Z</time>
      </trkpt>
      <trkpt lat="43.5409" lon="3.31535">
        <ele>214.6</ele>
        <time>2017-12-09T13:10:02Z</time>
      </trkpt>
      <trkpt lat="43.54084" lon="3.31533">
        <ele>215</ele>
        <time>2017-12-09T13:10:03Z</time>
      </trkpt>
      <trkpt lat="43.54078" lon="3.31531">
        <ele>215.1</ele>
        <time>2017-12-09T13:10:04Z</time>
      </trkpt>
      <trkpt lat="43.54073" lon="3.31529">
        <ele>215.2</ele>
        <time>2017-12-09T13:10:05Z</time>
      </trkpt>
      <trkpt lat="43.54067" lon="3.31527">
        <ele>215.2</ele>
        <time>2017-12-09T13:10:06Z</time>
      </trkpt>
      <trkpt lat="43.5406" lon="3.31525">
        <ele>215.2</ele>
        <time>2017-12-09T13:10:07Z</time>
      </trkpt>
      <trkpt lat="43.54054" lon="3.31524">
        <ele>215.1</ele>
        <time>2017-12-09T13:10:08Z</time>
      </trkpt>
      <trkpt lat="43.54047" lon="3.31523">
        <ele>214.9</ele>
        <time>2017-12-09T13:10:09Z</time>
      </trkpt>
      <trkpt lat="43.54039" lon="3.31523">
        <ele>214.7</ele>
        <time>2017-12-09T13:10:10Z</time>
      </trkpt>
      <trkpt lat="43.54032" lon="3.31525">
        <ele>214.1</ele>
        <time>2017-12-09T13:10:11Z</time>
      </trkpt>
      <trkpt lat="43.54023" lon="3.31525">
        <ele>213.4</ele>
        <time>2017-12-09T13:10:12Z</time>
      </trkpt>
      <trkpt lat="43.54015" lon="3.31526">
        <ele>212.5</ele>
        <time>2017-12-09T13:10:13Z</time>
      </trkpt>
      <trkpt lat="43.54007" lon="3.31527">
        <ele>211.7</ele>
        <time>2017-12-09T13:10:14Z</time>
      </trkpt>
      <trkpt lat="43.54" lon="3.31527">
        <ele>210.8</ele>
        <time>2017-12-09T13:10:15Z</time>
      </trkpt>
      <trkpt lat="43.53993" lon="3.31528">
        <ele>209.8</ele>
        <time>2017-12-09T13:10:16Z</time>
      </trkpt>
      <trkpt lat="43.53986" lon="3.31529">
        <ele>209</ele>
        <time>2017-12-09T13:10:17Z</time>
      </trkpt>
      <trkpt lat="43.53979" lon="3.31531">
        <ele>208.1</ele>
        <time>2017-12-09T13:10:18Z</time>
      </trkpt>
      <trkpt lat="43.53972" lon="3.31534">
        <ele>207.1</ele>
        <time>2017-12-09T13:10:19Z</time>
      </trkpt>
      <trkpt lat="43.53965" lon="3.31537">
        <ele>205.9</ele>
        <time>2017-12-09T13:10:20Z</time>
      </trkpt>
      <trkpt lat="43.53958" lon="3.3154">
        <ele>204.7</ele>
        <time>2017-12-09T13:10:21Z</time>
      </trkpt>
      <trkpt lat="43.53951" lon="3.31543">
        <ele>203.6</ele>
        <time>2017-12-09T13:10:22Z</time>
      </trkpt>
      <trkpt lat="43.53944" lon="3.31546">
        <ele>202.5</ele>
        <time>2017-12-09T13:10:23Z</time>
      </trkpt>
      <trkpt lat="43.53936" lon="3.31548">
        <ele>201.6</ele>
        <time>2017-12-09T13:10:24Z</time>
      </trkpt>
      <trkpt lat="43.53928" lon="3.31551">
        <ele>200.9</ele>
        <time>2017-12-09T13:10:25Z</time>
      </trkpt>
      <trkpt lat="43.53921" lon="3.31553">
        <ele>200.4</ele>
        <time>2017-12-09T13:10:26Z</time>
      </trkpt>
      <trkpt lat="43.53915" lon="3.31556">
        <ele>199.9</ele>
        <time>2017-12-09T13:10:27Z</time>
      </trkpt>
      <trkpt lat="43.53908" lon="3.31558">
        <ele>199.5</ele>
        <time>2017-12-09T13:10:28Z</time>
      </trkpt>
      <trkpt lat="43.53901" lon="3.31559">
        <ele>199.1</ele>
        <time>2017-12-09T13:10:29Z</time>
      </trkpt>
      <trkpt lat="43.53894" lon="3.31559">
        <ele>198.5</ele>
        <time>2017-12-09T13:10:30Z</time>
      </trkpt>
      <trkpt lat="43.53887" lon="3.3156">
        <ele>197.9</ele>
        <time>2017-12-09T13:10:31Z</time>
      </trkpt>
      <trkpt lat="43.5388" lon="3.31561">
        <ele>197.2</ele>
        <time>2017-12-09T13:10:32Z</time>
      </trkpt>
      <trkpt lat="43.53873" lon="3.31565">
        <ele>196.5</ele>
        <time>2017-12-09T13:10:33Z</time>
      </trkpt>
      <trkpt lat="43.53867" lon="3.31571">
        <ele>195.6</ele>
        <time>2017-12-09T13:10:34Z</time>
      </trkpt>
      <trkpt lat="43.53859" lon="3.31575">
        <ele>194.5</ele>
        <time>2017-12-09T13:10:35Z</time>
      </trkpt>
      <trkpt lat="43.53852" lon="3.3158">
        <ele>193.5</ele>
        <time>2017-12-09T13:10:36Z</time>
      </trkpt>
      <trkpt lat="43.53845" lon="3.31586">
        <ele>192.6</ele>
        <time>2017-12-09T13:10:37Z</time>
      </trkpt>
      <trkpt lat="43.53837" lon="3.31591">
        <ele>191.7</ele>
        <time>2017-12-09T13:10:38Z</time>
      </trkpt>
      <trkpt lat="43.53831" lon="3.31596">
        <ele>191</ele>
        <time>2017-12-09T13:10:39Z</time>
      </trkpt>
      <trkpt lat="43.53825" lon="3.31602">
        <ele>190.2</ele>
        <time>2017-12-09T13:10:40Z</time>
      </trkpt>
      <trkpt lat="43.5382" lon="3.31608">
        <ele>189.5</ele>
        <time>2017-12-09T13:10:41Z</time>
      </trkpt>
      <trkpt lat="43.53815" lon="3.31614">
        <ele>188.9</ele>
        <time>2017-12-09T13:10:42Z</time>
      </trkpt>
      <trkpt lat="43.5381" lon="3.3162">
        <ele>188.3</ele>
        <time>2017-12-09T13:10:43Z</time>
      </trkpt>
      <trkpt lat="43.53805" lon="3.31625">
        <ele>187.9</ele>
        <time>2017-12-09T13:10:44Z</time>
      </trkpt>
      <trkpt lat="43.538" lon="3.31629">
        <ele>187.8</ele>
        <time>2017-12-09T13:10:45Z</time>
      </trkpt>
      <trkpt lat="43.53796" lon="3.31633">
        <ele>187.6</ele>
        <time>2017-12-09T13:10:46Z</time>
      </trkpt>
      <trkpt lat="43.53792" lon="3.31637">
        <ele>187.5</ele>
        <time>2017-12-09T13:10:47Z</time>
      </trkpt>
      <trkpt lat="43.53788" lon="3.31641">
        <ele>187.4</ele>
        <time>2017-12-09T13:10:48Z</time>
      </trkpt>
      <trkpt lat="43.53784" lon="3.31645">
        <ele>187.3</ele>
        <time>2017-12-09T13:10:49Z</time>
      </trkpt>
      <trkpt lat="43.53781" lon="3.31648">
        <ele>187.3</ele>
        <time>2017-12-09T13:10:50Z</time>
      </trkpt>
      <trkpt lat="43.53777" lon="3.31652">
        <ele>187.2</ele>
        <time>2017-12-09T13:10:51Z</time>
      </trkpt>
      <trkpt lat="43.53774" lon="3.31657">
        <ele>187.2</ele>
        <time>2017-12-09T13:10:52Z</time>
      </trkpt>
      <trkpt lat="43.53771" lon="3.31661">
        <ele>187.2</ele>
        <time>2017-12-09T13:10:53Z</time>
      </trkpt>
      <trkpt lat="43.53768" lon="3.31665">
        <ele>187.1</ele>
        <time>2017-12-09T13:10:54Z</time>
      </trkpt>
      <trkpt lat="43.53765" lon="3.31669">
        <ele>187.1</ele>
        <time>2017-12-09T13:10:55Z</time>
      </trkpt>
      <trkpt lat="43.53763" lon="3.31672">
        <ele>187.1</ele>
        <time>2017-12-09T13:10:56Z</time>
      </trkpt>
      <trkpt lat="43.53759" lon="3.31676">
        <ele>187.1</ele>
        <time>2017-12-09T13:10:57Z</time>
      </trkpt>
      <trkpt lat="43.53755" lon="3.31678">
        <ele>187.1</ele>
        <time>2017-12-09T13:10:58Z</time>
      </trkpt>
      <trkpt lat="43.53749" lon="3.3168">
        <ele>187</ele>
        <time>2017-12-09T13:10:59Z</time>
      </trkpt>
      <trkpt lat="43.53743" lon="3.31682">
        <ele>187</ele>
        <time>2017-12-09T13:11:00Z</time>
      </trkpt>
      <trkpt lat="43.53737" lon="3.31685">
        <ele>187</ele>
        <time>2017-12-09T13:11:01Z</time>
      </trkpt>
      <trkpt lat="43.53732" lon="3.31687">
        <ele>187</ele>
        <time>2017-12-09T13:11:02Z</time>
      </trkpt>
      <trkpt lat="43.53727" lon="3.3169">
        <ele>187</ele>
        <time>2017-12-09T13:11:03Z</time>
      </trkpt>
      <trkpt lat="43.53723" lon="3.31691">
        <ele>187</ele>
        <time>2017-12-09T13:11:04Z</time>
      </trkpt>
      <trkpt lat="43.53719" lon="3.31694">
        <ele>187.3</ele>
        <time>2017-12-09T13:11:05Z</time>
      </trkpt>
      <trkpt lat="43.53716" lon="3.31696">
        <ele>187.7</ele>
        <time>2017-12-09T13:11:06Z</time>
      </trkpt>
      <trkpt lat="43.53713" lon="3.317">
        <ele>188.4</ele>
        <time>2017-12-09T13:11:08Z</time>
      </trkpt>
      <trkpt lat="43.5371" lon="3.31703">
        <ele>189.2</ele>
        <time>2017-12-09T13:11:10Z</time>
      </trkpt>
      <trkpt lat="43.53707" lon="3.31705">
        <ele>190</ele>
        <time>2017-12-09T13:11:12Z</time>
      </trkpt>
      <trkpt lat="43.53704" lon="3.31707">
        <ele>190.8</ele>
        <time>2017-12-09T13:11:14Z</time>
      </trkpt>
      <trkpt lat="43.53701" lon="3.31709">
        <ele>192</ele>
        <time>2017-12-09T13:11:16Z</time>
      </trkpt>
      <trkpt lat="43.53697" lon="3.31711">
        <ele>192.4</ele>
        <time>2017-12-09T13:11:18Z</time>
      </trkpt>
      <trkpt lat="43.53694" lon="3.31712">
        <ele>192.9</ele>
        <time>2017-12-09T13:11:20Z</time>
      </trkpt>
      <trkpt lat="43.53691" lon="3.31712">
        <ele>193.6</ele>
        <time>2017-12-09T13:11:22Z</time>
      </trkpt>
      <trkpt lat="43.53687" lon="3.31712">
        <ele>194.6</ele>
        <time>2017-12-09T13:11:24Z</time>
      </trkpt>
      <trkpt lat="43.53683" lon="3.31712">
        <ele>195.4</ele>
        <time>2017-12-09T13:11:26Z</time>
      </trkpt>
      <trkpt lat="43.5368" lon="3.31712">
        <ele>196.1</ele>
        <time>2017-12-09T13:11:28Z</time>
      </trkpt>
      <trkpt lat="43.53678" lon="3.31715">
        <ele>196.8</ele>
        <time>2017-12-09T13:11:30Z</time>
      </trkpt>
      <trkpt lat="43.53675" lon="3.31717">
        <ele>197.4</ele>
        <time>2017-12-09T13:11:32Z</time>
      </trkpt>
      <trkpt lat="43.53673" lon="3.3172">
        <ele>197.9</ele>
        <time>2017-12-09T13:11:34Z</time>
      </trkpt>
      <trkpt lat="43.53671" lon="3.31723">
        <ele>198.3</ele>
        <time>2017-12-09T13:11:36Z</time>
      </trkpt>
      <trkpt lat="43.5367" lon="3.31728">
        <ele>199.1</ele>
        <time>2017-12-09T13:11:38Z</time>
      </trkpt>
      <trkpt lat="43.53668" lon="3.31731">
        <ele>199.7</ele>
        <time>2017-12-09T13:11:40Z</time>
      </trkpt>
      <trkpt lat="43.53666" lon="3.31734">
        <ele>200</ele>
        <time>2017-12-09T13:11:42Z</time>
      </trkpt>
      <trkpt lat="43.53664" lon="3.31737">
        <ele>200.3</ele>
        <time>2017-12-09T13:11:44Z</time>
      </trkpt>
      <trkpt lat="43.53662" lon="3.31739">
        <ele>200.6</ele>
        <time>2017-12-09T13:11:46Z</time>
      </trkpt>
      <trkpt lat="43.53659" lon="3.31742">
        <ele>201</ele>
        <time>2017-12-09T13:11:48Z</time>
      </trkpt>
      <trkpt lat="43.53657" lon="3.31747">
        <ele>201.7</ele>
        <time>2017-12-09T13:11:51Z</time>
      </trkpt>
      <trkpt lat="43.53655" lon="3.3175">
        <ele>202.1</ele>
        <time>2017-12-09T13:11:53Z</time>
      </trkpt>
      <trkpt lat="43.53653" lon="3.31753">
        <ele>202.3</ele>
        <time>2017-12-09T13:11:55Z</time>
      </trkpt>
      <trkpt lat="43.5365" lon="3.31756">
        <ele>202.5</ele>
        <time>2017-12-09T13:11:57Z</time>
      </trkpt>
      <trkpt lat="43.53648" lon="3.31758">
        <ele>202.6</ele>
        <time>2017-12-09T13:11:59Z</time>
      </trkpt>
      <trkpt lat="43.53644" lon="3.31759">
        <ele>203.2</ele>
        <time>2017-12-09T13:12:01Z</time>
      </trkpt>
      <trkpt lat="43.53641" lon="3.31759">
        <ele>203.5</ele>
        <time>2017-12-09T13:12:03Z</time>
      </trkpt>
      <trkpt lat="43.53638" lon="3.31757">
        <ele>203.5</ele>
        <time>2017-12-09T13:12:05Z</time>
      </trkpt>
      <trkpt lat="43.53634" lon="3.31755">
        <ele>203.5</ele>
        <time>2017-12-09T13:12:07Z</time>
      </trkpt>
      <trkpt lat="43.53631" lon="3.31753">
        <ele>203.5</ele>
        <time>2017-12-09T13:12:09Z</time>
      </trkpt>
      <trkpt lat="43.53628" lon="3.3175">
        <ele>203.5</ele>
        <time>2017-12-09T13:12:11Z</time>
      </trkpt>
      <trkpt lat="43.53625" lon="3.31746">
        <ele>203.5</ele>
        <time>2017-12-09T13:12:13Z</time>
      </trkpt>
      <trkpt lat="43.53622" lon="3.31744">
        <ele>203.6</ele>
        <time>2017-12-09T13:12:15Z</time>
      </trkpt>
      <trkpt lat="43.5362" lon="3.31741">
        <ele>203.6</ele>
        <time>2017-12-09T13:12:17Z</time>
      </trkpt>
      <trkpt lat="43.53617" lon="3.31739">
        <ele>203.6</ele>
        <time>2017-12-09T13:12:19Z</time>
      </trkpt>
      <trkpt lat="43.53614" lon="3.31736">
        <ele>203.7</ele>
        <time>2017-12-09T13:12:21Z</time>
      </trkpt>
      <trkpt lat="43.53611" lon="3.31733">
        <ele>204</ele>
        <time>2017-12-09T13:12:23Z</time>
      </trkpt>
      <trkpt lat="43.53608" lon="3.3173">
        <ele>204.1</ele>
        <time>2017-12-09T13:12:25Z</time>
      </trkpt>
      <trkpt lat="43.53606" lon="3.31727">
        <ele>204.3</ele>
        <time>2017-12-09T13:12:27Z</time>
      </trkpt>
      <trkpt lat="43.53604" lon="3.31725">
        <ele>204.5</ele>
        <time>2017-12-09T13:12:29Z</time>
      </trkpt>
      <trkpt lat="43.53602" lon="3.31722">
        <ele>204.7</ele>
        <time>2017-12-09T13:12:31Z</time>
      </trkpt>
      <trkpt lat="43.53599" lon="3.31718">
        <ele>205.2</ele>
        <time>2017-12-09T13:12:34Z</time>
      </trkpt>
      <trkpt lat="43.53598" lon="3.31715">
        <ele>205.5</ele>
        <time>2017-12-09T13:12:36Z</time>
      </trkpt>
      <trkpt lat="43.53595" lon="3.31711">
        <ele>205.8</ele>
        <time>2017-12-09T13:12:38Z</time>
      </trkpt>
      <trkpt lat="43.53593" lon="3.31708">
        <ele>206.2</ele>
        <time>2017-12-09T13:12:40Z</time>
      </trkpt>
      <trkpt lat="43.53592" lon="3.31705">
        <ele>206.5</ele>
        <time>2017-12-09T13:12:42Z</time>
      </trkpt>
      <trkpt lat="43.5359" lon="3.317">
        <ele>206.8</ele>
        <time>2017-12-09T13:12:45Z</time>
      </trkpt>
      <trkpt lat="43.53588" lon="3.31697">
        <ele>207.1</ele>
        <time>2017-12-09T13:12:47Z</time>
      </trkpt>
      <trkpt lat="43.53586" lon="3.31694">
        <ele>207.4</ele>
        <time>2017-12-09T13:12:49Z</time>
      </trkpt>
      <trkpt lat="43.53584" lon="3.31691">
        <ele>207.6</ele>
        <time>2017-12-09T13:12:51Z</time>
      </trkpt>
      <trkpt lat="43.53582" lon="3.31688">
        <ele>207.7</ele>
        <time>2017-12-09T13:12:53Z</time>
      </trkpt>
      <trkpt lat="43.5358" lon="3.31683">
        <ele>207.9</ele>
        <time>2017-12-09T13:12:56Z</time>
      </trkpt>
      <trkpt lat="43.53578" lon="3.3168">
        <ele>208.2</ele>
        <time>2017-12-09T13:12:58Z</time>
      </trkpt>
      <trkpt lat="43.53575" lon="3.31677">
        <ele>208.5</ele>
        <time>2017-12-09T13:13:01Z</time>
      </trkpt>
      <trkpt lat="43.53572" lon="3.31673">
        <ele>208.7</ele>
        <time>2017-12-09T13:13:04Z</time>
      </trkpt>
      <trkpt lat="43.5357" lon="3.31669">
        <ele>208.9</ele>
        <time>2017-12-09T13:13:07Z</time>
      </trkpt>
      <trkpt lat="43.53568" lon="3.31664">
        <ele>209.1</ele>
        <time>2017-12-09T13:15:41Z</time>
      </trkpt>
      <trkpt lat="43.53566" lon="3.3166">
        <ele>209.2</ele>
        <time>2017-12-09T13:15:44Z</time>
      </trkpt>
      <trkpt lat="43.53563" lon="3.31656">
        <ele>209.2</ele>
        <time>2017-12-09T13:15:46Z</time>
      </trkpt>
      <trkpt lat="43.5356" lon="3.31653">
        <ele>209.2</ele>
        <time>2017-12-09T13:15:48Z</time>
      </trkpt>
      <trkpt lat="43.53556" lon="3.31648">
        <ele>209.1</ele>
        <time>2017-12-09T13:15:50Z</time>
      </trkpt>
      <trkpt lat="43.53552" lon="3.31642">
        <ele>209.1</ele>
        <time>2017-12-09T13:15:52Z</time>
      </trkpt>
      <trkpt lat="43.5355" lon="3.3164">
        <ele>209</ele>
        <time>2017-12-09T13:15:53Z</time>
      </trkpt>
      <trkpt lat="43.53547" lon="3.31635">
        <ele>208.9</ele>
        <time>2017-12-09T13:15:55Z</time>
      </trkpt>
      <trkpt lat="43.53545" lon="3.3163">
        <ele>208.8</ele>
        <time>2017-12-09T13:15:57Z</time>
      </trkpt>
      <trkpt lat="43.53543" lon="3.31624">
        <ele>207.2</ele>
        <time>2017-12-09T13:15:59Z</time>
      </trkpt>
      <trkpt lat="43.53541" lon="3.31617">
        <ele>207</ele>
        <time>2017-12-09T13:16:01Z</time>
      </trkpt>
      <trkpt lat="43.5354" lon="3.31613">
        <ele>206.9</ele>
        <time>2017-12-09T13:16:02Z</time>
      </trkpt>
      <trkpt lat="43.53537" lon="3.31608">
        <ele>206.8</ele>
        <time>2017-12-09T13:16:03Z</time>
      </trkpt>
      <trkpt lat="43.53533" lon="3.31603">
        <ele>206.6</ele>
        <time>2017-12-09T13:16:04Z</time>
      </trkpt>
      <trkpt lat="43.53529" lon="3.31598">
        <ele>206.3</ele>
        <time>2017-12-09T13:16:05Z</time>
      </trkpt>
      <trkpt lat="43.53524" lon="3.31592">
        <ele>206</ele>
        <time>2017-12-09T13:16:06Z</time>
      </trkpt>
      <trkpt lat="43.53519" lon="3.31586">
        <ele>205.7</ele>
        <time>2017-12-09T13:16:07Z</time>
      </trkpt>
      <trkpt lat="43.53514" lon="3.31579">
        <ele>205.2</ele>
        <time>2017-12-09T13:16:08Z</time>
      </trkpt>
      <trkpt lat="43.5351" lon="3.31571">
        <ele>204.7</ele>
        <time>2017-12-09T13:16:09Z</time>
      </trkpt>
      <trkpt lat="43.53504" lon="3.31564">
        <ele>204.1</ele>
        <time>2017-12-09T13:16:10Z</time>
      </trkpt>
      <trkpt lat="43.53499" lon="3.31556">
        <ele>203.4</ele>
        <time>2017-12-09T13:16:11Z</time>
      </trkpt>
      <trkpt lat="43.53494" lon="3.31548">
        <ele>202.7</ele>
        <time>2017-12-09T13:16:12Z</time>
      </trkpt>
      <trkpt lat="43.53489" lon="3.3154">
        <ele>202</ele>
        <time>2017-12-09T13:16:13Z</time>
      </trkpt>
      <trkpt lat="43.53484" lon="3.31533">
        <ele>201.3</ele>
        <time>2017-12-09T13:16:14Z</time>
      </trkpt>
      <trkpt lat="43.53479" lon="3.31525">
        <ele>200.6</ele>
        <time>2017-12-09T13:16:15Z</time>
      </trkpt>
      <trkpt lat="43.53474" lon="3.31518">
        <ele>199.9</ele>
        <time>2017-12-09T13:16:16Z</time>
      </trkpt>
      <trkpt lat="43.53469" lon="3.31511">
        <ele>199.2</ele>
        <time>2017-12-09T13:16:17Z</time>
      </trkpt>
      <trkpt lat="43.53464" lon="3.31503">
        <ele>198.5</ele>
        <time>2017-12-09T13:16:18Z</time>
      </trkpt>
      <trkpt lat="43.53459" lon="3.31496">
        <ele>197.8</ele>
        <time>2017-12-09T13:16:19Z</time>
      </trkpt>
      <trkpt lat="43.53455" lon="3.3149">
        <ele>197.2</ele>
        <time>2017-12-09T13:16:20Z</time>
      </trkpt>
      <trkpt lat="43.5345" lon="3.31483">
        <ele>196.6</ele>
        <time>2017-12-09T13:16:21Z</time>
      </trkpt>
      <trkpt lat="43.53446" lon="3.31476">
        <ele>196</ele>
        <time>2017-12-09T13:16:22Z</time>
      </trkpt>
      <trkpt lat="43.53441" lon="3.3147">
        <ele>195.5</ele>
        <time>2017-12-09T13:16:23Z</time>
      </trkpt>
      <trkpt lat="43.53437" lon="3.31464">
        <ele>195.3</ele>
        <time>2017-12-09T13:16:24Z</time>
      </trkpt>
      <trkpt lat="43.53433" lon="3.31458">
        <ele>195</ele>
        <time>2017-12-09T13:16:25Z</time>
      </trkpt>
      <trkpt lat="43.53429" lon="3.31453">
        <ele>194.7</ele>
        <time>2017-12-09T13:16:26Z</time>
      </trkpt>
      <trkpt lat="43.53424" lon="3.31449">
        <ele>194.4</ele>
        <time>2017-12-09T13:16:27Z</time>
      </trkpt>
      <trkpt lat="43.53419" lon="3.31445">
        <ele>194</ele>
        <time>2017-12-09T13:16:28Z</time>
      </trkpt>
      <trkpt lat="43.53415" lon="3.3144">
        <ele>193.5</ele>
        <time>2017-12-09T13:16:29Z</time>
      </trkpt>
      <trkpt lat="43.5341" lon="3.31436">
        <ele>193.1</ele>
        <time>2017-12-09T13:16:30Z</time>
      </trkpt>
      <trkpt lat="43.53406" lon="3.31431">
        <ele>192.6</ele>
        <time>2017-12-09T13:16:31Z</time>
      </trkpt>
      <trkpt lat="43.53401" lon="3.31424">
        <ele>192</ele>
        <time>2017-12-09T13:16:32Z</time>
      </trkpt>
      <trkpt lat="43.53396" lon="3.31419">
        <ele>191.4</ele>
        <time>2017-12-09T13:16:33Z</time>
      </trkpt>
      <trkpt lat="43.5339" lon="3.31415">
        <ele>190.6</ele>
        <time>2017-12-09T13:16:34Z</time>
      </trkpt>
      <trkpt lat="43.53383" lon="3.3141">
        <ele>189.7</ele>
        <time>2017-12-09T13:16:35Z</time>
      </trkpt>
      <trkpt lat="43.53375" lon="3.31404">
        <ele>188.4</ele>
        <time>2017-12-09T13:16:36Z</time>
      </trkpt>
      <trkpt lat="43.53367" lon="3.31398">
        <ele>186.5</ele>
        <time>2017-12-09T13:16:37Z</time>
      </trkpt>
      <trkpt lat="43.53359" lon="3.31391">
        <ele>183.3</ele>
        <time>2017-12-09T13:16:38Z</time>
      </trkpt>
      <trkpt lat="43.5335" lon="3.31382">
        <ele>180</ele>
        <time>2017-12-09T13:16:39Z</time>
      </trkpt>
      <trkpt lat="43.53341" lon="3.31374">
        <ele>177</ele>
        <time>2017-12-09T13:16:40Z</time>
      </trkpt>
      <trkpt lat="43.53332" lon="3.31365">
        <ele>174.1</ele>
        <time>2017-12-09T13:16:41Z</time>
      </trkpt>
      <trkpt lat="43.53323" lon="3.31357">
        <ele>171.7</ele>
        <time>2017-12-09T13:16:42Z</time>
      </trkpt>
      <trkpt lat="43.53314" lon="3.3135">
        <ele>169.9</ele>
        <time>2017-12-09T13:16:43Z</time>
      </trkpt>
      <trkpt lat="43.53307" lon="3.31345">
        <ele>168.8</ele>
        <time>2017-12-09T13:16:44Z</time>
      </trkpt>
      <trkpt lat="43.53302" lon="3.31339">
        <ele>168.4</ele>
        <time>2017-12-09T13:16:45Z</time>
      </trkpt>
      <trkpt lat="43.53299" lon="3.31331">
        <ele>168</ele>
        <time>2017-12-09T13:16:46Z</time>
      </trkpt>
      <trkpt lat="43.53297" lon="3.31323">
        <ele>167.7</ele>
        <time>2017-12-09T13:16:47Z</time>
      </trkpt>
      <trkpt lat="43.53295" lon="3.31315">
        <ele>167.4</ele>
        <time>2017-12-09T13:16:48Z</time>
      </trkpt>
      <trkpt lat="43.53292" lon="3.31308">
        <ele>167.2</ele>
        <time>2017-12-09T13:16:49Z</time>
      </trkpt>
      <trkpt lat="43.53289" lon="3.31301">
        <ele>167.1</ele>
        <time>2017-12-09T13:16:50Z</time>
      </trkpt>
      <trkpt lat="43.53286" lon="3.31295">
        <ele>167.2</ele>
        <time>2017-12-09T13:16:51Z</time>
      </trkpt>
      <trkpt lat="43.53283" lon="3.31289">
        <ele>167.3</ele>
        <time>2017-12-09T13:16:52Z</time>
      </trkpt>
      <trkpt lat="43.5328" lon="3.31282">
        <ele>167.5</ele>
        <time>2017-12-09T13:16:53Z</time>
      </trkpt>
      <trkpt lat="43.53277" lon="3.31276">
        <ele>167.6</ele>
        <time>2017-12-09T13:16:54Z</time>
      </trkpt>
      <trkpt lat="43.53275" lon="3.31269">
        <ele>167.8</ele>
        <time>2017-12-09T13:16:55Z</time>
      </trkpt>
      <trkpt lat="43.53272" lon="3.31263">
        <ele>168</ele>
        <time>2017-12-09T13:16:56Z</time>
      </trkpt>
      <trkpt lat="43.53269" lon="3.31256">
        <ele>168.2</ele>
        <time>2017-12-09T13:16:57Z</time>
      </trkpt>
      <trkpt lat="43.53266" lon="3.3125">
        <ele>168.4</ele>
        <time>2017-12-09T13:16:58Z</time>
      </trkpt>
      <trkpt lat="43.53264" lon="3.31244">
        <ele>168.6</ele>
        <time>2017-12-09T13:16:59Z</time>
      </trkpt>
      <trkpt lat="43.53261" lon="3.31238">
        <ele>168.8</ele>
        <time>2017-12-09T13:17:00Z</time>
      </trkpt>
      <trkpt lat="43.53259" lon="3.31232">
        <ele>169</ele>
        <time>2017-12-09T13:17:01Z</time>
      </trkpt>
      <trkpt lat="43.53256" lon="3.31226">
        <ele>169.3</ele>
        <time>2017-12-09T13:17:02Z</time>
      </trkpt>
      <trkpt lat="43.53253" lon="3.31219">
        <ele>169.4</ele>
        <time>2017-12-09T13:17:03Z</time>
      </trkpt>
      <trkpt lat="43.5325" lon="3.31212">
        <ele>169.5</ele>
        <time>2017-12-09T13:17:04Z</time>
      </trkpt>
      <trkpt lat="43.53247" lon="3.31204">
        <ele>169.6</ele>
        <time>2017-12-09T13:17:05Z</time>
      </trkpt>
      <trkpt lat="43.53244" lon="3.31196">
        <ele>169.8</ele>
        <time>2017-12-09T13:17:06Z</time>
      </trkpt>
      <trkpt lat="43.53241" lon="3.31189">
        <ele>170</ele>
        <time>2017-12-09T13:17:07Z</time>
      </trkpt>
      <trkpt lat="43.53238" lon="3.31181">
        <ele>170.2</ele>
        <time>2017-12-09T13:17:08Z</time>
      </trkpt>
      <trkpt lat="43.53234" lon="3.31174">
        <ele>170.3</ele>
        <time>2017-12-09T13:17:09Z</time>
      </trkpt>
      <trkpt lat="43.53229" lon="3.31167">
        <ele>170.5</ele>
        <time>2017-12-09T13:17:10Z</time>
      </trkpt>
      <trkpt lat="43.53225" lon="3.31161">
        <ele>170.6</ele>
        <time>2017-12-09T13:17:11Z</time>
      </trkpt>
      <trkpt lat="43.53221" lon="3.31154">
        <ele>170.8</ele>
        <time>2017-12-09T13:17:12Z</time>
      </trkpt>
      <trkpt lat="43.53216" lon="3.31148">
        <ele>171</ele>
        <time>2017-12-09T13:17:13Z</time>
      </trkpt>
      <trkpt lat="43.53211" lon="3.31141">
        <ele>170.8</ele>
        <time>2017-12-09T13:17:14Z</time>
      </trkpt>
      <trkpt lat="43.53206" lon="3.31135">
        <ele>170.7</ele>
        <time>2017-12-09T13:17:15Z</time>
      </trkpt>
      <trkpt lat="43.53201" lon="3.31129">
        <ele>170.5</ele>
        <time>2017-12-09T13:17:16Z</time>
      </trkpt>
      <trkpt lat="43.53197" lon="3.31122">
        <ele>170.4</ele>
        <time>2017-12-09T13:17:17Z</time>
      </trkpt>
      <trkpt lat="43.53193" lon="3.31115">
        <ele>170.1</ele>
        <time>2017-12-09T13:17:18Z</time>
      </trkpt>
      <trkpt lat="43.53191" lon="3.31108">
        <ele>169.9</ele>
        <time>2017-12-09T13:17:19Z</time>
      </trkpt>
      <trkpt lat="43.5319" lon="3.311">
        <ele>169.7</ele>
        <time>2017-12-09T13:17:20Z</time>
      </trkpt>
      <trkpt lat="43.5319" lon="3.31093">
        <ele>169.5</ele>
        <time>2017-12-09T13:17:21Z</time>
      </trkpt>
      <trkpt lat="43.5319" lon="3.31087">
        <ele>169.3</ele>
        <time>2017-12-09T13:17:22Z</time>
      </trkpt>
      <trkpt lat="43.53189" lon="3.3108">
        <ele>169.3</ele>
        <time>2017-12-09T13:17:23Z</time>
      </trkpt>
      <trkpt lat="43.53188" lon="3.31074">
        <ele>169.2</ele>
        <time>2017-12-09T13:17:24Z</time>
      </trkpt>
      <trkpt lat="43.53187" lon="3.31068">
        <ele>169.2</ele>
        <time>2017-12-09T13:17:25Z</time>
      </trkpt>
      <trkpt lat="43.53186" lon="3.31062">
        <ele>169.2</ele>
        <time>2017-12-09T13:17:26Z</time>
      </trkpt>
      <trkpt lat="43.53184" lon="3.31056">
        <ele>169.2</ele>
        <time>2017-12-09T13:17:27Z</time>
      </trkpt>
      <trkpt lat="43.53182" lon="3.3105">
        <ele>169.2</ele>
        <time>2017-12-09T13:17:28Z</time>
      </trkpt>
      <trkpt lat="43.5318" lon="3.31045">
        <ele>169.2</ele>
        <time>2017-12-09T13:17:29Z</time>
      </trkpt>
      <trkpt lat="43.53178" lon="3.3104">
        <ele>169.2</ele>
        <time>2017-12-09T13:17:30Z</time>
      </trkpt>
      <trkpt lat="43.53175" lon="3.31036">
        <ele>169.2</ele>
        <time>2017-12-09T13:17:31Z</time>
      </trkpt>
      <trkpt lat="43.53172" lon="3.31031">
        <ele>169.2</ele>
        <time>2017-12-09T13:17:32Z</time>
      </trkpt>
      <trkpt lat="43.53169" lon="3.31026">
        <ele>169.2</ele>
        <time>2017-12-09T13:17:33Z</time>
      </trkpt>
      <trkpt lat="43.53167" lon="3.31022">
        <ele>169.2</ele>
        <time>2017-12-09T13:17:34Z</time>
      </trkpt>
      <trkpt lat="43.53164" lon="3.31017">
        <ele>169.2</ele>
        <time>2017-12-09T13:17:35Z</time>
      </trkpt>
      <trkpt lat="43.53162" lon="3.31013">
        <ele>169.2</ele>
        <time>2017-12-09T13:17:36Z</time>
      </trkpt>
      <trkpt lat="43.5316" lon="3.31008">
        <ele>169.3</ele>
        <time>2017-12-09T13:17:37Z</time>
      </trkpt>
      <trkpt lat="43.53157" lon="3.31002">
        <ele>169.3</ele>
        <time>2017-12-09T13:17:38Z</time>
      </trkpt>
      <trkpt lat="43.53155" lon="3.30997">
        <ele>169.3</ele>
        <time>2017-12-09T13:17:39Z</time>
      </trkpt>
      <trkpt lat="43.53152" lon="3.30991">
        <ele>169.3</ele>
        <time>2017-12-09T13:17:40Z</time>
      </trkpt>
      <trkpt lat="43.5315" lon="3.30985">
        <ele>169.3</ele>
        <time>2017-12-09T13:17:41Z</time>
      </trkpt>
      <trkpt lat="43.53148" lon="3.30979">
        <ele>169.3</ele>
        <time>2017-12-09T13:17:42Z</time>
      </trkpt>
      <trkpt lat="43.53145" lon="3.30972">
        <ele>169.3</ele>
        <time>2017-12-09T13:17:43Z</time>
      </trkpt>
      <trkpt lat="43.53142" lon="3.30966">
        <ele>169.3</ele>
        <time>2017-12-09T13:17:44Z</time>
      </trkpt>
      <trkpt lat="43.5314" lon="3.30959">
        <ele>169.3</ele>
        <time>2017-12-09T13:17:45Z</time>
      </trkpt>
      <trkpt lat="43.53137" lon="3.30952">
        <ele>169.3</ele>
        <time>2017-12-09T13:17:46Z</time>
      </trkpt>
      <trkpt lat="43.53135" lon="3.30945">
        <ele>169.3</ele>
        <time>2017-12-09T13:17:47Z</time>
      </trkpt>
      <trkpt lat="43.53132" lon="3.30938">
        <ele>169.3</ele>
        <time>2017-12-09T13:17:48Z</time>
      </trkpt>
      <trkpt lat="43.53129" lon="3.30931">
        <ele>169.3</ele>
        <time>2017-12-09T13:17:49Z</time>
      </trkpt>
      <trkpt lat="43.53125" lon="3.30924">
        <ele>169.2</ele>
        <time>2017-12-09T13:17:50Z</time>
      </trkpt>
      <trkpt lat="43.53122" lon="3.30916">
        <ele>169.2</ele>
        <time>2017-12-09T13:17:51Z</time>
      </trkpt>
      <trkpt lat="43.53118" lon="3.30909">
        <ele>169.2</ele>
        <time>2017-12-09T13:17:52Z</time>
      </trkpt>
      <trkpt lat="43.53115" lon="3.30902">
        <ele>169.1</ele>
        <time>2017-12-09T13:17:53Z</time>
      </trkpt>
      <trkpt lat="43.53111" lon="3.30895">
        <ele>169</ele>
        <time>2017-12-09T13:17:54Z</time>
      </trkpt>
      <trkpt lat="43.53107" lon="3.30888">
        <ele>168.9</ele>
        <time>2017-12-09T13:17:55Z</time>
      </trkpt>
      <trkpt lat="43.53105" lon="3.30881">
        <ele>168.8</ele>
        <time>2017-12-09T13:17:56Z</time>
      </trkpt>
      <trkpt lat="43.53103" lon="3.30873">
        <ele>168.6</ele>
        <time>2017-12-09T13:17:57Z</time>
      </trkpt>
      <trkpt lat="43.53101" lon="3.30865">
        <ele>168.3</ele>
        <time>2017-12-09T13:17:58Z</time>
      </trkpt>
      <trkpt lat="43.53099" lon="3.30858">
        <ele>168</ele>
        <time>2017-12-09T13:17:59Z</time>
      </trkpt>
      <trkpt lat="43.53097" lon="3.3085">
        <ele>167.8</ele>
        <time>2017-12-09T13:18:00Z</time>
      </trkpt>
      <trkpt lat="43.53095" lon="3.30842">
        <ele>167.6</ele>
        <time>2017-12-09T13:18:01Z</time>
      </trkpt>
      <trkpt lat="43.53094" lon="3.30835">
        <ele>167.4</ele>
        <time>2017-12-09T13:18:02Z</time>
      </trkpt>
      <trkpt lat="43.53092" lon="3.30828">
        <ele>167.2</ele>
        <time>2017-12-09T13:18:03Z</time>
      </trkpt>
      <trkpt lat="43.5309" lon="3.30822">
        <ele>167.1</ele>
        <time>2017-12-09T13:18:04Z</time>
      </trkpt>
      <trkpt lat="43.53089" lon="3.30815">
        <ele>166.8</ele>
        <time>2017-12-09T13:18:05Z</time>
      </trkpt>
      <trkpt lat="43.53088" lon="3.3081">
        <ele>166.5</ele>
        <time>2017-12-09T13:18:06Z</time>
      </trkpt>
      <trkpt lat="43.53087" lon="3.30804">
        <ele>166.2</ele>
        <time>2017-12-09T13:18:07Z</time>
      </trkpt>
      <trkpt lat="43.53086" lon="3.30797">
        <ele>165.9</ele>
        <time>2017-12-09T13:18:08Z</time>
      </trkpt>
      <trkpt lat="43.53086" lon="3.30789">
        <ele>165.5</ele>
        <time>2017-12-09T13:18:09Z</time>
      </trkpt>
      <trkpt lat="43.53086" lon="3.30781">
        <ele>165</ele>
        <time>2017-12-09T13:18:10Z</time>
      </trkpt>
      <trkpt lat="43.53086" lon="3.30772">
        <ele>164.4</ele>
        <time>2017-12-09T13:18:11Z</time>
      </trkpt>
      <trkpt lat="43.53086" lon="3.30763">
        <ele>163.8</ele>
        <time>2017-12-09T13:18:12Z</time>
      </trkpt>
      <trkpt lat="43.53085" lon="3.30756">
        <ele>163.1</ele>
        <time>2017-12-09T13:18:13Z</time>
      </trkpt>
      <trkpt lat="43.53084" lon="3.3075">
        <ele>162.3</ele>
        <time>2017-12-09T13:18:14Z</time>
      </trkpt>
      <trkpt lat="43.53083" lon="3.30743">
        <ele>161.5</ele>
        <time>2017-12-09T13:18:15Z</time>
      </trkpt>
      <trkpt lat="43.53083" lon="3.30737">
        <ele>160.6</ele>
        <time>2017-12-09T13:18:16Z</time>
      </trkpt>
      <trkpt lat="43.53084" lon="3.30729">
        <ele>159.6</ele>
        <time>2017-12-09T13:18:17Z</time>
      </trkpt>
      <trkpt lat="43.53085" lon="3.3072">
        <ele>158.5</ele>
        <time>2017-12-09T13:18:18Z</time>
      </trkpt>
      <trkpt lat="43.53084" lon="3.30712">
        <ele>157.6</ele>
        <time>2017-12-09T13:18:19Z</time>
      </trkpt>
      <trkpt lat="43.53082" lon="3.30704">
        <ele>156.8</ele>
        <time>2017-12-09T13:18:20Z</time>
      </trkpt>
      <trkpt lat="43.53077" lon="3.30696">
        <ele>156</ele>
        <time>2017-12-09T13:18:21Z</time>
      </trkpt>
      <trkpt lat="43.53073" lon="3.30689">
        <ele>155.2</ele>
        <time>2017-12-09T13:18:22Z</time>
      </trkpt>
      <trkpt lat="43.53069" lon="3.30681">
        <ele>154.4</ele>
        <time>2017-12-09T13:18:23Z</time>
      </trkpt>
      <trkpt lat="43.53063" lon="3.30674">
        <ele>153.4</ele>
        <time>2017-12-09T13:18:24Z</time>
      </trkpt>
      <trkpt lat="43.53058" lon="3.30667">
        <ele>152.5</ele>
        <time>2017-12-09T13:18:25Z</time>
      </trkpt>
      <trkpt lat="43.53053" lon="3.30659">
        <ele>151.9</ele>
        <time>2017-12-09T13:18:26Z</time>
      </trkpt>
      <trkpt lat="43.53048" lon="3.30651">
        <ele>151.5</ele>
        <time>2017-12-09T13:18:27Z</time>
      </trkpt>
      <trkpt lat="43.53043" lon="3.30644">
        <ele>151.2</ele>
        <time>2017-12-09T13:18:28Z</time>
      </trkpt>
      <trkpt lat="43.53037" lon="3.30639">
        <ele>151</ele>
        <time>2017-12-09T13:18:29Z</time>
      </trkpt>
      <trkpt lat="43.53031" lon="3.30635">
        <ele>150.5</ele>
        <time>2017-12-09T13:18:30Z</time>
      </trkpt>
      <trkpt lat="43.53025" lon="3.30631">
        <ele>150.2</ele>
        <time>2017-12-09T13:18:31Z</time>
      </trkpt>
      <trkpt lat="43.53019" lon="3.3063">
        <ele>149.9</ele>
        <time>2017-12-09T13:18:32Z</time>
      </trkpt>
      <trkpt lat="43.53013" lon="3.30629">
        <ele>149.8</ele>
        <time>2017-12-09T13:18:33Z</time>
      </trkpt>
      <trkpt lat="43.53008" lon="3.30631">
        <ele>149.7</ele>
        <time>2017-12-09T13:18:34Z</time>
      </trkpt>
      <trkpt lat="43.53003" lon="3.30637">
        <ele>149.6</ele>
        <time>2017-12-09T13:18:35Z</time>
      </trkpt>
      <trkpt lat="43.52999" lon="3.30644">
        <ele>149.5</ele>
        <time>2017-12-09T13:18:36Z</time>
      </trkpt>
      <trkpt lat="43.52996" lon="3.30653">
        <ele>149.4</ele>
        <time>2017-12-09T13:18:37Z</time>
      </trkpt>
      <trkpt lat="43.52994" lon="3.30661">
        <ele>149.2</ele>
        <time>2017-12-09T13:18:38Z</time>
      </trkpt>
      <trkpt lat="43.52992" lon="3.3067">
        <ele>149</ele>
        <time>2017-12-09T13:18:39Z</time>
      </trkpt>
      <trkpt lat="43.52991" lon="3.30679">
        <ele>148.7</ele>
        <time>2017-12-09T13:18:40Z</time>
      </trkpt>
      <trkpt lat="43.52992" lon="3.30687">
        <ele>148.4</ele>
        <time>2017-12-09T13:18:41Z</time>
      </trkpt>
      <trkpt lat="43.52994" lon="3.30695">
        <ele>148.2</ele>
        <time>2017-12-09T13:18:42Z</time>
      </trkpt>
      <trkpt lat="43.52995" lon="3.30703">
        <ele>148</ele>
        <time>2017-12-09T13:18:43Z</time>
      </trkpt>
      <trkpt lat="43.52996" lon="3.3071">
        <ele>148</ele>
        <time>2017-12-09T13:18:44Z</time>
      </trkpt>
      <trkpt lat="43.52997" lon="3.30717">
        <ele>148</ele>
        <time>2017-12-09T13:18:45Z</time>
      </trkpt>
      <trkpt lat="43.52999" lon="3.30724">
        <ele>148</ele>
        <time>2017-12-09T13:18:46Z</time>
      </trkpt>
      <trkpt lat="43.53" lon="3.3073">
        <ele>148.1</ele>
        <time>2017-12-09T13:18:47Z</time>
      </trkpt>
      <trkpt lat="43.53002" lon="3.30736">
        <ele>148.2</ele>
        <time>2017-12-09T13:18:48Z</time>
      </trkpt>
      <trkpt lat="43.53004" lon="3.30741">
        <ele>148.2</ele>
        <time>2017-12-09T13:18:49Z</time>
      </trkpt>
      <trkpt lat="43.53006" lon="3.30745">
        <ele>148.3</ele>
        <time>2017-12-09T13:18:50Z</time>
      </trkpt>
      <trkpt lat="43.53008" lon="3.30749">
        <ele>148.3</ele>
        <time>2017-12-09T13:18:51Z</time>
      </trkpt>
      <trkpt lat="43.53009" lon="3.30752">
        <ele>148.4</ele>
        <time>2017-12-09T13:18:52Z</time>
      </trkpt>
      <trkpt lat="43.53011" lon="3.30756">
        <ele>148.5</ele>
        <time>2017-12-09T13:18:53Z</time>
      </trkpt>
      <trkpt lat="43.53011" lon="3.3076">
        <ele>148.6</ele>
        <time>2017-12-09T13:18:54Z</time>
      </trkpt>
      <trkpt lat="43.53012" lon="3.30763">
        <ele>148.7</ele>
        <time>2017-12-09T13:18:55Z</time>
      </trkpt>
      <trkpt lat="43.53013" lon="3.3077">
        <ele>149.3</ele>
        <time>2017-12-09T13:18:57Z</time>
      </trkpt>
      <trkpt lat="43.53013" lon="3.30774">
        <ele>149.7</ele>
        <time>2017-12-09T13:18:58Z</time>
      </trkpt>
      <trkpt lat="43.53012" lon="3.30778">
        <ele>150.3</ele>
        <time>2017-12-09T13:18:59Z</time>
      </trkpt>
      <trkpt lat="43.53011" lon="3.30784">
        <ele>150.7</ele>
        <time>2017-12-09T13:19:00Z</time>
      </trkpt>
      <trkpt lat="43.53009" lon="3.3079">
        <ele>151.3</ele>
        <time>2017-12-09T13:19:01Z</time>
      </trkpt>
      <trkpt lat="43.53006" lon="3.30797">
        <ele>151.9</ele>
        <time>2017-12-09T13:19:02Z</time>
      </trkpt>
      <trkpt lat="43.53002" lon="3.30803">
        <ele>152</ele>
        <time>2017-12-09T13:19:03Z</time>
      </trkpt>
      <trkpt lat="43.52998" lon="3.30812">
        <ele>152</ele>
        <time>2017-12-09T13:19:04Z</time>
      </trkpt>
      <trkpt lat="43.52996" lon="3.30821">
        <ele>151.7</ele>
        <time>2017-12-09T13:19:05Z</time>
      </trkpt>
      <trkpt lat="43.52994" lon="3.3083">
        <ele>151.2</ele>
        <time>2017-12-09T13:19:06Z</time>
      </trkpt>
      <trkpt lat="43.52989" lon="3.30833">
        <ele>150.8</ele>
        <time>2017-12-09T13:19:07Z</time>
      </trkpt>
      <trkpt lat="43.52985" lon="3.30832">
        <ele>150.6</ele>
        <time>2017-12-09T13:19:08Z</time>
      </trkpt>
      <trkpt lat="43.52981" lon="3.3083">
        <ele>150.2</ele>
        <time>2017-12-09T13:19:09Z</time>
      </trkpt>
      <trkpt lat="43.52977" lon="3.30829">
        <ele>149.5</ele>
        <time>2017-12-09T13:19:10Z</time>
      </trkpt>
      <trkpt lat="43.52972" lon="3.30832">
        <ele>148.2</ele>
        <time>2017-12-09T13:19:11Z</time>
      </trkpt>
      <trkpt lat="43.52967" lon="3.30837">
        <ele>147.2</ele>
        <time>2017-12-09T13:19:12Z</time>
      </trkpt>
      <trkpt lat="43.52964" lon="3.3084">
        <ele>146.7</ele>
        <time>2017-12-09T13:19:13Z</time>
      </trkpt>
      <trkpt lat="43.52961" lon="3.3084">
        <ele>146.3</ele>
        <time>2017-12-09T13:19:14Z</time>
      </trkpt>
      <trkpt lat="43.52958" lon="3.30837">
        <ele>145.8</ele>
        <time>2017-12-09T13:19:15Z</time>
      </trkpt>
      <trkpt lat="43.52956" lon="3.30831">
        <ele>145.2</ele>
        <time>2017-12-09T13:19:16Z</time>
      </trkpt>
      <trkpt lat="43.52953" lon="3.30824">
        <ele>144.6</ele>
        <time>2017-12-09T13:19:17Z</time>
      </trkpt>
      <trkpt lat="43.52949" lon="3.30817">
        <ele>143.4</ele>
        <time>2017-12-09T13:19:18Z</time>
      </trkpt>
      <trkpt lat="43.52944" lon="3.30811">
        <ele>142.2</ele>
        <time>2017-12-09T13:19:19Z</time>
      </trkpt>
      <trkpt lat="43.52938" lon="3.30805">
        <ele>142</ele>
        <time>2017-12-09T13:19:20Z</time>
      </trkpt>
      <trkpt lat="43.52934" lon="3.30797">
        <ele>141.6</ele>
        <time>2017-12-09T13:19:21Z</time>
      </trkpt>
      <trkpt lat="43.5293" lon="3.30787">
        <ele>140.9</ele>
        <time>2017-12-09T13:19:22Z</time>
      </trkpt>
      <trkpt lat="43.52927" lon="3.30776">
        <ele>140.3</ele>
        <time>2017-12-09T13:19:23Z</time>
      </trkpt>
      <trkpt lat="43.52925" lon="3.30765">
        <ele>139.3</ele>
        <time>2017-12-09T13:19:24Z</time>
      </trkpt>
      <trkpt lat="43.52924" lon="3.30754">
        <ele>139</ele>
        <time>2017-12-09T13:19:25Z</time>
      </trkpt>
      <trkpt lat="43.52922" lon="3.30743">
        <ele>138.9</ele>
        <time>2017-12-09T13:19:26Z</time>
      </trkpt>
      <trkpt lat="43.52919" lon="3.30734">
        <ele>138.7</ele>
        <time>2017-12-09T13:19:27Z</time>
      </trkpt>
      <trkpt lat="43.52915" lon="3.30725">
        <ele>138.3</ele>
        <time>2017-12-09T13:19:28Z</time>
      </trkpt>
      <trkpt lat="43.52912" lon="3.30716">
        <ele>137.8</ele>
        <time>2017-12-09T13:19:29Z</time>
      </trkpt>
      <trkpt lat="43.52908" lon="3.30708">
        <ele>137.7</ele>
        <time>2017-12-09T13:19:30Z</time>
      </trkpt>
      <trkpt lat="43.52904" lon="3.30701">
        <ele>137.7</ele>
        <time>2017-12-09T13:19:31Z</time>
      </trkpt>
      <trkpt lat="43.52901" lon="3.30694">
        <ele>137.7</ele>
        <time>2017-12-09T13:19:32Z</time>
      </trkpt>
      <trkpt lat="43.52897" lon="3.30688">
        <ele>137.7</ele>
        <time>2017-12-09T13:19:33Z</time>
      </trkpt>
      <trkpt lat="43.52893" lon="3.30681">
        <ele>137.7</ele>
        <time>2017-12-09T13:19:34Z</time>
      </trkpt>
      <trkpt lat="43.52888" lon="3.30675">
        <ele>137.7</ele>
        <time>2017-12-09T13:19:35Z</time>
      </trkpt>
      <trkpt lat="43.52884" lon="3.30669">
        <ele>137.7</ele>
        <time>2017-12-09T13:19:36Z</time>
      </trkpt>
      <trkpt lat="43.52879" lon="3.30664">
        <ele>137.6</ele>
        <time>2017-12-09T13:19:37Z</time>
      </trkpt>
      <trkpt lat="43.52874" lon="3.3066">
        <ele>137.6</ele>
        <time>2017-12-09T13:19:38Z</time>
      </trkpt>
      <trkpt lat="43.52869" lon="3.30657">
        <ele>137.4</ele>
        <time>2017-12-09T13:19:39Z</time>
      </trkpt>
      <trkpt lat="43.52863" lon="3.30654">
        <ele>137.1</ele>
        <time>2017-12-09T13:19:40Z</time>
      </trkpt>
      <trkpt lat="43.52857" lon="3.30654">
        <ele>136.8</ele>
        <time>2017-12-09T13:19:41Z</time>
      </trkpt>
      <trkpt lat="43.52852" lon="3.30653">
        <ele>136.6</ele>
        <time>2017-12-09T13:19:42Z</time>
      </trkpt>
      <trkpt lat="43.52847" lon="3.30654">
        <ele>136.4</ele>
        <time>2017-12-09T13:19:43Z</time>
      </trkpt>
      <trkpt lat="43.52842" lon="3.30655">
        <ele>136.4</ele>
        <time>2017-12-09T13:19:44Z</time>
      </trkpt>
      <trkpt lat="43.52837" lon="3.30657">
        <ele>136.3</ele>
        <time>2017-12-09T13:19:45Z</time>
      </trkpt>
      <trkpt lat="43.52832" lon="3.30659">
        <ele>136.3</ele>
        <time>2017-12-09T13:19:46Z</time>
      </trkpt>
      <trkpt lat="43.52828" lon="3.30661">
        <ele>136.3</ele>
        <time>2017-12-09T13:19:47Z</time>
      </trkpt>
      <trkpt lat="43.52824" lon="3.30662">
        <ele>136.3</ele>
        <time>2017-12-09T13:19:48Z</time>
      </trkpt>
      <trkpt lat="43.5282" lon="3.30664">
        <ele>136.3</ele>
        <time>2017-12-09T13:19:49Z</time>
      </trkpt>
      <trkpt lat="43.52817" lon="3.30665">
        <ele>136.4</ele>
        <time>2017-12-09T13:19:50Z</time>
      </trkpt>
      <trkpt lat="43.52814" lon="3.30667">
        <ele>136.4</ele>
        <time>2017-12-09T13:19:51Z</time>
      </trkpt>
      <trkpt lat="43.52811" lon="3.30668">
        <ele>136.4</ele>
        <time>2017-12-09T13:19:52Z</time>
      </trkpt>
      <trkpt lat="43.52806" lon="3.30669">
        <ele>136.4</ele>
        <time>2017-12-09T13:19:54Z</time>
      </trkpt>
      <trkpt lat="43.52801" lon="3.30671">
        <ele>136.5</ele>
        <time>2017-12-09T13:19:56Z</time>
      </trkpt>
      <trkpt lat="43.52797" lon="3.30671">
        <ele>136.5</ele>
        <time>2017-12-09T13:19:58Z</time>
      </trkpt>
      <trkpt lat="43.52793" lon="3.30672">
        <ele>136.5</ele>
        <time>2017-12-09T13:20:00Z</time>
      </trkpt>
      <trkpt lat="43.5279" lon="3.30675">
        <ele>136.6</ele>
        <time>2017-12-09T13:20:02Z</time>
      </trkpt>
      <trkpt lat="43.52787" lon="3.30678">
        <ele>137</ele>
        <time>2017-12-09T13:20:04Z</time>
      </trkpt>
      <trkpt lat="43.52785" lon="3.30682">
        <ele>137.6</ele>
        <time>2017-12-09T13:20:06Z</time>
      </trkpt>
      <trkpt lat="43.52782" lon="3.30686">
        <ele>139.3</ele>
        <time>2017-12-09T13:20:08Z</time>
      </trkpt>
      <trkpt lat="43.5278" lon="3.3069">
        <ele>140.4</ele>
        <time>2017-12-09T13:20:10Z</time>
      </trkpt>
      <trkpt lat="43.52778" lon="3.30693">
        <ele>141.3</ele>
        <time>2017-12-09T13:20:12Z</time>
      </trkpt>
      <trkpt lat="43.52777" lon="3.30697">
        <ele>142</ele>
        <time>2017-12-09T13:20:14Z</time>
      </trkpt>
      <trkpt lat="43.52774" lon="3.30702">
        <ele>142.5</ele>
        <time>2017-12-09T13:20:16Z</time>
      </trkpt>
      <trkpt lat="43.52773" lon="3.30707">
        <ele>143.1</ele>
        <time>2017-12-09T13:20:18Z</time>
      </trkpt>
      <trkpt lat="43.52771" lon="3.30713">
        <ele>144.2</ele>
        <time>2017-12-09T13:20:20Z</time>
      </trkpt>
      <trkpt lat="43.5277" lon="3.30717">
        <ele>144.6</ele>
        <time>2017-12-09T13:20:22Z</time>
      </trkpt>
      <trkpt lat="43.52768" lon="3.30721">
        <ele>144.8</ele>
        <time>2017-12-09T13:20:24Z</time>
      </trkpt>
      <trkpt lat="43.52767" lon="3.30725">
        <ele>144.9</ele>
        <time>2017-12-09T13:20:26Z</time>
      </trkpt>
      <trkpt lat="43.52765" lon="3.3073">
        <ele>145</ele>
        <time>2017-12-09T13:20:28Z</time>
      </trkpt>
      <trkpt lat="43.52763" lon="3.30734">
        <ele>145</ele>
        <time>2017-12-09T13:20:30Z</time>
      </trkpt>
      <trkpt lat="43.52761" lon="3.30739">
        <ele>145</ele>
        <time>2017-12-09T13:20:32Z</time>
      </trkpt>
      <trkpt lat="43.5276" lon="3.30744">
        <ele>145</ele>
        <time>2017-12-09T13:20:34Z</time>
      </trkpt>
      <trkpt lat="43.52756" lon="3.30748">
        <ele>145.5</ele>
        <time>2017-12-09T13:20:36Z</time>
      </trkpt>
      <trkpt lat="43.52752" lon="3.30748">
        <ele>146.2</ele>
        <time>2017-12-09T13:20:38Z</time>
      </trkpt>
      <trkpt lat="43.52749" lon="3.30748">
        <ele>146.8</ele>
        <time>2017-12-09T13:20:40Z</time>
      </trkpt>
      <trkpt lat="43.52745" lon="3.30747">
        <ele>147.3</ele>
        <time>2017-12-09T13:20:42Z</time>
      </trkpt>
      <trkpt lat="43.52742" lon="3.30745">
        <ele>147.6</ele>
        <time>2017-12-09T13:20:44Z</time>
      </trkpt>
      <trkpt lat="43.5274" lon="3.30745">
        <ele>147.8</ele>
        <time>2017-12-09T13:20:46Z</time>
      </trkpt>
      <trkpt lat="43.52737" lon="3.30742">
        <ele>148.2</ele>
        <time>2017-12-09T13:20:48Z</time>
      </trkpt>
      <trkpt lat="43.52736" lon="3.30739">
        <ele>148.6</ele>
        <time>2017-12-09T13:20:50Z</time>
      </trkpt>
      <trkpt lat="43.52734" lon="3.30734">
        <ele>149</ele>
        <time>2017-12-09T13:20:52Z</time>
      </trkpt>
      <trkpt lat="43.52732" lon="3.3073">
        <ele>149.3</ele>
        <time>2017-12-09T13:20:54Z</time>
      </trkpt>
      <trkpt lat="43.52729" lon="3.30726">
        <ele>149.6</ele>
        <time>2017-12-09T13:20:56Z</time>
      </trkpt>
      <trkpt lat="43.52726" lon="3.30721">
        <ele>149.8</ele>
        <time>2017-12-09T13:20:58Z</time>
      </trkpt>
      <trkpt lat="43.52722" lon="3.30717">
        <ele>150.2</ele>
        <time>2017-12-09T13:21:00Z</time>
      </trkpt>
      <trkpt lat="43.52718" lon="3.30714">
        <ele>150.6</ele>
        <time>2017-12-09T13:21:02Z</time>
      </trkpt>
      <trkpt lat="43.52715" lon="3.30711">
        <ele>151</ele>
        <time>2017-12-09T13:21:04Z</time>
      </trkpt>
      <trkpt lat="43.52713" lon="3.30707">
        <ele>151.3</ele>
        <time>2017-12-09T13:21:06Z</time>
      </trkpt>
      <trkpt lat="43.52711" lon="3.30702">
        <ele>151.5</ele>
        <time>2017-12-09T13:21:08Z</time>
      </trkpt>
      <trkpt lat="43.52708" lon="3.30698">
        <ele>151.7</ele>
        <time>2017-12-09T13:21:10Z</time>
      </trkpt>
      <trkpt lat="43.52706" lon="3.30693">
        <ele>151.8</ele>
        <time>2017-12-09T13:21:12Z</time>
      </trkpt>
      <trkpt lat="43.52703" lon="3.30689">
        <ele>151.9</ele>
        <time>2017-12-09T13:21:14Z</time>
      </trkpt>
      <trkpt lat="43.527" lon="3.30685">
        <ele>152.1</ele>
        <time>2017-12-09T13:21:16Z</time>
      </trkpt>
      <trkpt lat="43.52696" lon="3.3068">
        <ele>152.2</ele>
        <time>2017-12-09T13:21:18Z</time>
      </trkpt>
      <trkpt lat="43.52693" lon="3.30675">
        <ele>152.5</ele>
        <time>2017-12-09T13:21:20Z</time>
      </trkpt>
      <trkpt lat="43.5269" lon="3.30671">
        <ele>152.9</ele>
        <time>2017-12-09T13:21:22Z</time>
      </trkpt>
      <trkpt lat="43.52686" lon="3.30668">
        <ele>153.3</ele>
        <time>2017-12-09T13:21:24Z</time>
      </trkpt>
      <trkpt lat="43.52682" lon="3.30664">
        <ele>153.6</ele>
        <time>2017-12-09T13:21:26Z</time>
      </trkpt>
      <trkpt lat="43.52679" lon="3.30663">
        <ele>153.8</ele>
        <time>2017-12-09T13:21:27Z</time>
      </trkpt>
      <trkpt lat="43.52675" lon="3.30662">
        <ele>153.8</ele>
        <time>2017-12-09T13:21:28Z</time>
      </trkpt>
      <trkpt lat="43.52672" lon="3.3066">
        <ele>153.9</ele>
        <time>2017-12-09T13:21:29Z</time>
      </trkpt>
      <trkpt lat="43.52668" lon="3.30656">
        <ele>153.9</ele>
        <time>2017-12-09T13:21:30Z</time>
      </trkpt>
      <trkpt lat="43.52665" lon="3.30653">
        <ele>154</ele>
        <time>2017-12-09T13:21:31Z</time>
      </trkpt>
      <trkpt lat="43.52661" lon="3.30649">
        <ele>154</ele>
        <time>2017-12-09T13:21:32Z</time>
      </trkpt>
      <trkpt lat="43.52659" lon="3.30645">
        <ele>154.1</ele>
        <time>2017-12-09T13:21:33Z</time>
      </trkpt>
      <trkpt lat="43.52657" lon="3.30641">
        <ele>154.1</ele>
        <time>2017-12-09T13:21:34Z</time>
      </trkpt>
      <trkpt lat="43.52656" lon="3.30638">
        <ele>154.1</ele>
        <time>2017-12-09T13:21:35Z</time>
      </trkpt>
      <trkpt lat="43.52655" lon="3.30631">
        <ele>154.2</ele>
        <time>2017-12-09T13:21:37Z</time>
      </trkpt>
      <trkpt lat="43.52652" lon="3.30625">
        <ele>154.2</ele>
        <time>2017-12-09T13:21:39Z</time>
      </trkpt>
      <trkpt lat="43.52649" lon="3.30622">
        <ele>154.2</ele>
        <time>2017-12-09T13:21:40Z</time>
      </trkpt>
      <trkpt lat="43.52646" lon="3.3062">
        <ele>154.2</ele>
        <time>2017-12-09T13:21:41Z</time>
      </trkpt>
      <trkpt lat="43.52643" lon="3.30617">
        <ele>154.2</ele>
        <time>2017-12-09T13:21:42Z</time>
      </trkpt>
      <trkpt lat="43.52641" lon="3.30614">
        <ele>154.2</ele>
        <time>2017-12-09T13:21:43Z</time>
      </trkpt>
      <trkpt lat="43.52638" lon="3.3061">
        <ele>154.2</ele>
        <time>2017-12-09T13:21:44Z</time>
      </trkpt>
      <trkpt lat="43.52636" lon="3.30606">
        <ele>154.3</ele>
        <time>2017-12-09T13:21:45Z</time>
      </trkpt>
      <trkpt lat="43.52634" lon="3.30602">
        <ele>154.3</ele>
        <time>2017-12-09T13:21:46Z</time>
      </trkpt>
      <trkpt lat="43.52633" lon="3.30597">
        <ele>154.3</ele>
        <time>2017-12-09T13:21:47Z</time>
      </trkpt>
      <trkpt lat="43.52633" lon="3.30592">
        <ele>154.3</ele>
        <time>2017-12-09T13:21:48Z</time>
      </trkpt>
      <trkpt lat="43.52633" lon="3.30587">
        <ele>154.3</ele>
        <time>2017-12-09T13:21:49Z</time>
      </trkpt>
      <trkpt lat="43.52633" lon="3.30583">
        <ele>154.3</ele>
        <time>2017-12-09T13:21:50Z</time>
      </trkpt>
      <trkpt lat="43.52634" lon="3.30577">
        <ele>154.3</ele>
        <time>2017-12-09T13:21:51Z</time>
      </trkpt>
      <trkpt lat="43.52635" lon="3.30572">
        <ele>154.4</ele>
        <time>2017-12-09T13:21:52Z</time>
      </trkpt>
      <trkpt lat="43.52636" lon="3.30567">
        <ele>154.4</ele>
        <time>2017-12-09T13:21:53Z</time>
      </trkpt>
      <trkpt lat="43.52638" lon="3.30563">
        <ele>154.4</ele>
        <time>2017-12-09T13:21:54Z</time>
      </trkpt>
      <trkpt lat="43.52641" lon="3.30558">
        <ele>154.4</ele>
        <time>2017-12-09T13:21:55Z</time>
      </trkpt>
      <trkpt lat="43.52643" lon="3.30554">
        <ele>154.5</ele>
        <time>2017-12-09T13:21:56Z</time>
      </trkpt>
      <trkpt lat="43.52646" lon="3.3055">
        <ele>154.5</ele>
        <time>2017-12-09T13:21:57Z</time>
      </trkpt>
      <trkpt lat="43.52648" lon="3.30546">
        <ele>154.5</ele>
        <time>2017-12-09T13:21:58Z</time>
      </trkpt>
      <trkpt lat="43.52649" lon="3.30542">
        <ele>154.6</ele>
        <time>2017-12-09T13:21:59Z</time>
      </trkpt>
      <trkpt lat="43.52651" lon="3.30538">
        <ele>154.6</ele>
        <time>2017-12-09T13:22:00Z</time>
      </trkpt>
      <trkpt lat="43.52653" lon="3.30534">
        <ele>154.6</ele>
        <time>2017-12-09T13:22:01Z</time>
      </trkpt>
      <trkpt lat="43.52655" lon="3.30531">
        <ele>154.7</ele>
        <time>2017-12-09T13:22:02Z</time>
      </trkpt>
      <trkpt lat="43.52657" lon="3.30527">
        <ele>154.7</ele>
        <time>2017-12-09T13:22:03Z</time>
      </trkpt>
      <trkpt lat="43.52659" lon="3.30523">
        <ele>154.8</ele>
        <time>2017-12-09T13:22:04Z</time>
      </trkpt>
      <trkpt lat="43.52661" lon="3.3052">
        <ele>154.9</ele>
        <time>2017-12-09T13:22:05Z</time>
      </trkpt>
      <trkpt lat="43.52664" lon="3.30517">
        <ele>154.9</ele>
        <time>2017-12-09T13:22:06Z</time>
      </trkpt>
      <trkpt lat="43.52667" lon="3.30516">
        <ele>155</ele>
        <time>2017-12-09T13:22:07Z</time>
      </trkpt>
      <trkpt lat="43.5267" lon="3.30515">
        <ele>155.1</ele>
        <time>2017-12-09T13:22:08Z</time>
      </trkpt>
      <trkpt lat="43.52673" lon="3.30514">
        <ele>155.2</ele>
        <time>2017-12-09T13:22:09Z</time>
      </trkpt>
      <trkpt lat="43.52675" lon="3.30513">
        <ele>155.3</ele>
        <time>2017-12-09T13:22:10Z</time>
      </trkpt>
      <trkpt lat="43.5268" lon="3.30512">
        <ele>155.7</ele>
        <time>2017-12-09T13:22:12Z</time>
      </trkpt>
      <trkpt lat="43.52684" lon="3.3051">
        <ele>156</ele>
        <time>2017-12-09T13:22:14Z</time>
      </trkpt>
      <trkpt lat="43.52688" lon="3.3051">
        <ele>156.1</ele>
        <time>2017-12-09T13:22:16Z</time>
      </trkpt>
      <trkpt lat="43.52692" lon="3.30509">
        <ele>156.2</ele>
        <time>2017-12-09T13:22:18Z</time>
      </trkpt>
      <trkpt lat="43.52691" lon="3.30502">
        <ele>156.3</ele>
        <time>2017-12-09T13:22:20Z</time>
      </trkpt>
      <trkpt lat="43.52688" lon="3.30499">
        <ele>156.3</ele>
        <time>2017-12-09T13:22:21Z</time>
      </trkpt>
      <trkpt lat="43.52683" lon="3.30495">
        <ele>156.5</ele>
        <time>2017-12-09T13:22:22Z</time>
      </trkpt>
      <trkpt lat="43.52679" lon="3.30491">
        <ele>156.5</ele>
        <time>2017-12-09T13:22:23Z</time>
      </trkpt>
      <trkpt lat="43.52675" lon="3.30485">
        <ele>156.6</ele>
        <time>2017-12-09T13:22:24Z</time>
      </trkpt>
      <trkpt lat="43.52672" lon="3.3048">
        <ele>156.6</ele>
        <time>2017-12-09T13:22:25Z</time>
      </trkpt>
      <trkpt lat="43.52671" lon="3.30474">
        <ele>156.6</ele>
        <time>2017-12-09T13:22:26Z</time>
      </trkpt>
      <trkpt lat="43.5267" lon="3.30469">
        <ele>156.4</ele>
        <time>2017-12-09T13:22:27Z</time>
      </trkpt>
      <trkpt lat="43.52668" lon="3.30463">
        <ele>155.9</ele>
        <time>2017-12-09T13:22:28Z</time>
      </trkpt>
      <trkpt lat="43.52666" lon="3.30459">
        <ele>155</ele>
        <time>2017-12-09T13:22:29Z</time>
      </trkpt>
      <trkpt lat="43.52664" lon="3.30456">
        <ele>154.1</ele>
        <time>2017-12-09T13:22:30Z</time>
      </trkpt>
      <trkpt lat="43.52663" lon="3.3045">
        <ele>152.9</ele>
        <time>2017-12-09T13:22:32Z</time>
      </trkpt>
      <trkpt lat="43.52665" lon="3.30448">
        <ele>152.1</ele>
        <time>2017-12-09T13:22:33Z</time>
      </trkpt>
      <trkpt lat="43.52668" lon="3.30446">
        <ele>150.2</ele>
        <time>2017-12-09T13:22:34Z</time>
      </trkpt>
      <trkpt lat="43.52672" lon="3.30445">
        <ele>148.8</ele>
        <time>2017-12-09T13:22:35Z</time>
      </trkpt>
      <trkpt lat="43.52675" lon="3.30443">
        <ele>148.5</ele>
        <time>2017-12-09T13:22:36Z</time>
      </trkpt>
      <trkpt lat="43.52676" lon="3.30439">
        <ele>147.9</ele>
        <time>2017-12-09T13:22:38Z</time>
      </trkpt>
      <trkpt lat="43.52674" lon="3.30437">
        <ele>147.2</ele>
        <time>2017-12-09T13:22:39Z</time>
      </trkpt>
      <trkpt lat="43.5267" lon="3.30435">
        <ele>146.7</ele>
        <time>2017-12-09T13:22:40Z</time>
      </trkpt>
      <trkpt lat="43.52665" lon="3.30434">
        <ele>145.5</ele>
        <time>2017-12-09T13:22:41Z</time>
      </trkpt>
      <trkpt lat="43.5266" lon="3.30433">
        <ele>144.6</ele>
        <time>2017-12-09T13:22:42Z</time>
      </trkpt>
      <trkpt lat="43.52655" lon="3.30431">
        <ele>143.8</ele>
        <time>2017-12-09T13:22:43Z</time>
      </trkpt>
      <trkpt lat="43.52648" lon="3.3043">
        <ele>142.9</ele>
        <time>2017-12-09T13:22:44Z</time>
      </trkpt>
      <trkpt lat="43.52641" lon="3.30428">
        <ele>142</ele>
        <time>2017-12-09T13:22:45Z</time>
      </trkpt>
      <trkpt lat="43.52634" lon="3.30427">
        <ele>141</ele>
        <time>2017-12-09T13:22:46Z</time>
      </trkpt>
      <trkpt lat="43.52627" lon="3.30427">
        <ele>140.4</ele>
        <time>2017-12-09T13:22:47Z</time>
      </trkpt>
      <trkpt lat="43.52621" lon="3.30427">
        <ele>139.6</ele>
        <time>2017-12-09T13:22:48Z</time>
      </trkpt>
      <trkpt lat="43.52614" lon="3.30428">
        <ele>138.7</ele>
        <time>2017-12-09T13:22:49Z</time>
      </trkpt>
      <trkpt lat="43.52609" lon="3.3043">
        <ele>138</ele>
        <time>2017-12-09T13:22:50Z</time>
      </trkpt>
      <trkpt lat="43.52604" lon="3.30433">
        <ele>137.1</ele>
        <time>2017-12-09T13:22:51Z</time>
      </trkpt>
      <trkpt lat="43.52598" lon="3.30435">
        <ele>135.9</ele>
        <time>2017-12-09T13:22:52Z</time>
      </trkpt>
      <trkpt lat="43.52592" lon="3.30437">
        <ele>134.7</ele>
        <time>2017-12-09T13:22:53Z</time>
      </trkpt>
      <trkpt lat="43.52586" lon="3.30441">
        <ele>133.5</ele>
        <time>2017-12-09T13:22:54Z</time>
      </trkpt>
      <trkpt lat="43.5258" lon="3.30445">
        <ele>132.4</ele>
        <time>2017-12-09T13:22:55Z</time>
      </trkpt>
      <trkpt lat="43.52573" lon="3.3045">
        <ele>131.6</ele>
        <time>2017-12-09T13:22:56Z</time>
      </trkpt>
      <trkpt lat="43.52568" lon="3.30454">
        <ele>130.8</ele>
        <time>2017-12-09T13:22:57Z</time>
      </trkpt>
      <trkpt lat="43.52563" lon="3.30459">
        <ele>130.2</ele>
        <time>2017-12-09T13:22:58Z</time>
      </trkpt>
      <trkpt lat="43.5256" lon="3.30462">
        <ele>129.7</ele>
        <time>2017-12-09T13:22:59Z</time>
      </trkpt>
      <trkpt lat="43.52557" lon="3.30465">
        <ele>129.4</ele>
        <time>2017-12-09T13:23:00Z</time>
      </trkpt>
      <trkpt lat="43.52555" lon="3.30468">
        <ele>129.2</ele>
        <time>2017-12-09T13:23:01Z</time>
      </trkpt>
      <trkpt lat="43.52553" lon="3.30471">
        <ele>128.9</ele>
        <time>2017-12-09T13:23:02Z</time>
      </trkpt>
      <trkpt lat="43.52552" lon="3.30474">
        <ele>128.5</ele>
        <time>2017-12-09T13:23:03Z</time>
      </trkpt>
      <trkpt lat="43.52549" lon="3.30478">
        <ele>127.8</ele>
        <time>2017-12-09T13:23:04Z</time>
      </trkpt>
      <trkpt lat="43.52546" lon="3.30483">
        <ele>127.3</ele>
        <time>2017-12-09T13:23:05Z</time>
      </trkpt>
      <trkpt lat="43.52543" lon="3.30486">
        <ele>126.9</ele>
        <time>2017-12-09T13:23:06Z</time>
      </trkpt>
      <trkpt lat="43.52539" lon="3.30489">
        <ele>126.3</ele>
        <time>2017-12-09T13:23:07Z</time>
      </trkpt>
      <trkpt lat="43.52535" lon="3.30492">
        <ele>125.3</ele>
        <time>2017-12-09T13:23:08Z</time>
      </trkpt>
      <trkpt lat="43.52532" lon="3.30496">
        <ele>124.1</ele>
        <time>2017-12-09T13:23:09Z</time>
      </trkpt>
      <trkpt lat="43.5253" lon="3.305">
        <ele>123.1</ele>
        <time>2017-12-09T13:23:10Z</time>
      </trkpt>
      <trkpt lat="43.52529" lon="3.30506">
        <ele>122</ele>
        <time>2017-12-09T13:23:11Z</time>
      </trkpt>
      <trkpt lat="43.52528" lon="3.3051">
        <ele>121.3</ele>
        <time>2017-12-09T13:23:12Z</time>
      </trkpt>
      <trkpt lat="43.52525" lon="3.30513">
        <ele>120.8</ele>
        <time>2017-12-09T13:23:13Z</time>
      </trkpt>
      <trkpt lat="43.52522" lon="3.30512">
        <ele>120</ele>
        <time>2017-12-09T13:23:14Z</time>
      </trkpt>
      <trkpt lat="43.52518" lon="3.3051">
        <ele>119.2</ele>
        <time>2017-12-09T13:23:15Z</time>
      </trkpt>
      <trkpt lat="43.52515" lon="3.30506">
        <ele>118.6</ele>
        <time>2017-12-09T13:23:16Z</time>
      </trkpt>
      <trkpt lat="43.52514" lon="3.305">
        <ele>117.5</ele>
        <time>2017-12-09T13:23:17Z</time>
      </trkpt>
      <trkpt lat="43.52514" lon="3.30493">
        <ele>116.6</ele>
        <time>2017-12-09T13:23:18Z</time>
      </trkpt>
      <trkpt lat="43.52515" lon="3.30487">
        <ele>115.4</ele>
        <time>2017-12-09T13:23:19Z</time>
      </trkpt>
      <trkpt lat="43.52517" lon="3.30484">
        <ele>114.2</ele>
        <time>2017-12-09T13:23:20Z</time>
      </trkpt>
      <trkpt lat="43.52518" lon="3.3048">
        <ele>112.6</ele>
        <time>2017-12-09T13:23:21Z</time>
      </trkpt>
      <trkpt lat="43.52518" lon="3.30476">
        <ele>112.3</ele>
        <time>2017-12-09T13:23:22Z</time>
      </trkpt>
      <trkpt lat="43.52517" lon="3.30472">
        <ele>111.9</ele>
        <time>2017-12-09T13:23:23Z</time>
      </trkpt>
      <trkpt lat="43.52516" lon="3.30467">
        <ele>111.4</ele>
        <time>2017-12-09T13:23:24Z</time>
      </trkpt>
      <trkpt lat="43.52516" lon="3.30461">
        <ele>110.8</ele>
        <time>2017-12-09T13:23:25Z</time>
      </trkpt>
      <trkpt lat="43.52516" lon="3.30454">
        <ele>110</ele>
        <time>2017-12-09T13:23:26Z</time>
      </trkpt>
      <trkpt lat="43.52516" lon="3.30446">
        <ele>109.4</ele>
        <time>2017-12-09T13:23:27Z</time>
      </trkpt>
      <trkpt lat="43.52515" lon="3.30439">
        <ele>109.1</ele>
        <time>2017-12-09T13:23:28Z</time>
      </trkpt>
      <trkpt lat="43.52514" lon="3.30432">
        <ele>108.9</ele>
        <time>2017-12-09T13:23:29Z</time>
      </trkpt>
      <trkpt lat="43.52513" lon="3.30427">
        <ele>108.7</ele>
        <time>2017-12-09T13:23:30Z</time>
      </trkpt>
      <trkpt lat="43.52509" lon="3.30423">
        <ele>108.2</ele>
        <time>2017-12-09T13:23:31Z</time>
      </trkpt>
      <trkpt lat="43.52505" lon="3.3042">
        <ele>107.7</ele>
        <time>2017-12-09T13:23:32Z</time>
      </trkpt>
      <trkpt lat="43.52501" lon="3.30416">
        <ele>107.1</ele>
        <time>2017-12-09T13:23:33Z</time>
      </trkpt>
      <trkpt lat="43.52497" lon="3.30412">
        <ele>106.8</ele>
        <time>2017-12-09T13:23:34Z</time>
      </trkpt>
      <trkpt lat="43.52493" lon="3.30408">
        <ele>106.2</ele>
        <time>2017-12-09T13:23:35Z</time>
      </trkpt>
      <trkpt lat="43.52489" lon="3.30404">
        <ele>106</ele>
        <time>2017-12-09T13:23:36Z</time>
      </trkpt>
      <trkpt lat="43.52485" lon="3.304">
        <ele>105.9</ele>
        <time>2017-12-09T13:23:37Z</time>
      </trkpt>
      <trkpt lat="43.52481" lon="3.30395">
        <ele>105.4</ele>
        <time>2017-12-09T13:23:38Z</time>
      </trkpt>
      <trkpt lat="43.52477" lon="3.30391">
        <ele>105</ele>
        <time>2017-12-09T13:23:39Z</time>
      </trkpt>
      <trkpt lat="43.52472" lon="3.30387">
        <ele>104.5</ele>
        <time>2017-12-09T13:23:40Z</time>
      </trkpt>
      <trkpt lat="43.52467" lon="3.30382">
        <ele>103.5</ele>
        <time>2017-12-09T13:23:41Z</time>
      </trkpt>
      <trkpt lat="43.52462" lon="3.30377">
        <ele>102.6</ele>
        <time>2017-12-09T13:23:42Z</time>
      </trkpt>
      <trkpt lat="43.52457" lon="3.30373">
        <ele>101.8</ele>
        <time>2017-12-09T13:23:43Z</time>
      </trkpt>
      <trkpt lat="43.52452" lon="3.30368">
        <ele>101.2</ele>
        <time>2017-12-09T13:23:44Z</time>
      </trkpt>
      <trkpt lat="43.52447" lon="3.30363">
        <ele>101</ele>
        <time>2017-12-09T13:23:45Z</time>
      </trkpt>
      <trkpt lat="43.52444" lon="3.30358">
        <ele>100.6</ele>
        <time>2017-12-09T13:23:46Z</time>
      </trkpt>
      <trkpt lat="43.5244" lon="3.30353">
        <ele>100.2</ele>
        <time>2017-12-09T13:23:47Z</time>
      </trkpt>
      <trkpt lat="43.52436" lon="3.30351">
        <ele>99.7</ele>
        <time>2017-12-09T13:23:48Z</time>
      </trkpt>
      <trkpt lat="43.5243" lon="3.30348">
        <ele>99</ele>
        <time>2017-12-09T13:23:49Z</time>
      </trkpt>
      <trkpt lat="43.52424" lon="3.30345">
        <ele>97.1</ele>
        <time>2017-12-09T13:23:50Z</time>
      </trkpt>
      <trkpt lat="43.52419" lon="3.30342">
        <ele>96.8</ele>
        <time>2017-12-09T13:23:51Z</time>
      </trkpt>
      <trkpt lat="43.52414" lon="3.30342">
        <ele>96.9</ele>
        <time>2017-12-09T13:23:52Z</time>
      </trkpt>
      <trkpt lat="43.5241" lon="3.30342">
        <ele>96.7</ele>
        <time>2017-12-09T13:23:53Z</time>
      </trkpt>
      <trkpt lat="43.52406" lon="3.30342">
        <ele>95.5</ele>
        <time>2017-12-09T13:23:56Z</time>
      </trkpt>
      <trkpt lat="43.52395" lon="3.30338">
        <ele>97.7</ele>
        <time>2017-12-09T13:24:22Z</time>
      </trkpt>
      <trkpt lat="43.52391" lon="3.30339">
        <ele>97.8</ele>
        <time>2017-12-09T13:24:24Z</time>
      </trkpt>
      <trkpt lat="43.52387" lon="3.3034">
        <ele>97.8</ele>
        <time>2017-12-09T13:24:26Z</time>
      </trkpt>
      <trkpt lat="43.52382" lon="3.30343">
        <ele>97.9</ele>
        <time>2017-12-09T13:24:28Z</time>
      </trkpt>
      <trkpt lat="43.52377" lon="3.30345">
        <ele>97.9</ele>
        <time>2017-12-09T13:24:30Z</time>
      </trkpt>
      <trkpt lat="43.52373" lon="3.30348">
        <ele>97.9</ele>
        <time>2017-12-09T13:24:32Z</time>
      </trkpt>
      <trkpt lat="43.52369" lon="3.30351">
        <ele>97.9</ele>
        <time>2017-12-09T13:24:34Z</time>
      </trkpt>
      <trkpt lat="43.52366" lon="3.30353">
        <ele>97.9</ele>
        <time>2017-12-09T13:24:35Z</time>
      </trkpt>
      <trkpt lat="43.52364" lon="3.30356">
        <ele>97.9</ele>
        <time>2017-12-09T13:24:36Z</time>
      </trkpt>
      <trkpt lat="43.52361" lon="3.30358">
        <ele>97.9</ele>
        <time>2017-12-09T13:24:37Z</time>
      </trkpt>
      <trkpt lat="43.52358" lon="3.30361">
        <ele>97.9</ele>
        <time>2017-12-09T13:24:38Z</time>
      </trkpt>
      <trkpt lat="43.52355" lon="3.30365">
        <ele>97.9</ele>
        <time>2017-12-09T13:24:39Z</time>
      </trkpt>
      <trkpt lat="43.52352" lon="3.30368">
        <ele>97.9</ele>
        <time>2017-12-09T13:24:40Z</time>
      </trkpt>
      <trkpt lat="43.52349" lon="3.30372">
        <ele>97.9</ele>
        <time>2017-12-09T13:24:41Z</time>
      </trkpt>
      <trkpt lat="43.52347" lon="3.30375">
        <ele>97.9</ele>
        <time>2017-12-09T13:24:42Z</time>
      </trkpt>
      <trkpt lat="43.52344" lon="3.30379">
        <ele>97.9</ele>
        <time>2017-12-09T13:24:43Z</time>
      </trkpt>
      <trkpt lat="43.52341" lon="3.30384">
        <ele>98</ele>
        <time>2017-12-09T13:24:44Z</time>
      </trkpt>
      <trkpt lat="43.52337" lon="3.30388">
        <ele>98</ele>
        <time>2017-12-09T13:24:45Z</time>
      </trkpt>
      <trkpt lat="43.52333" lon="3.30393">
        <ele>98</ele>
        <time>2017-12-09T13:24:46Z</time>
      </trkpt>
      <trkpt lat="43.52329" lon="3.30396">
        <ele>98</ele>
        <time>2017-12-09T13:24:47Z</time>
      </trkpt>
      <trkpt lat="43.52325" lon="3.304">
        <ele>98</ele>
        <time>2017-12-09T13:24:48Z</time>
      </trkpt>
      <trkpt lat="43.52322" lon="3.30404">
        <ele>98</ele>
        <time>2017-12-09T13:24:49Z</time>
      </trkpt>
      <trkpt lat="43.52319" lon="3.30407">
        <ele>98</ele>
        <time>2017-12-09T13:24:50Z</time>
      </trkpt>
      <trkpt lat="43.52316" lon="3.3041">
        <ele>98</ele>
        <time>2017-12-09T13:24:51Z</time>
      </trkpt>
      <trkpt lat="43.52313" lon="3.3041">
        <ele>98</ele>
        <time>2017-12-09T13:24:53Z</time>
      </trkpt>
      <trkpt lat="43.52313" lon="3.30406">
        <ele>98.1</ele>
        <time>2017-12-09T13:24:57Z</time>
      </trkpt>
      <trkpt lat="43.52317" lon="3.30404">
        <ele>98.2</ele>
        <time>2017-12-09T13:24:59Z</time>
      </trkpt>
      <trkpt lat="43.52321" lon="3.304">
        <ele>98.4</ele>
        <time>2017-12-09T13:25:01Z</time>
      </trkpt>
      <trkpt lat="43.52323" lon="3.30398">
        <ele>98.5</ele>
        <time>2017-12-09T13:25:02Z</time>
      </trkpt>
      <trkpt lat="43.52325" lon="3.30395">
        <ele>98.6</ele>
        <time>2017-12-09T13:25:03Z</time>
      </trkpt>
      <trkpt lat="43.52328" lon="3.30392">
        <ele>98.7</ele>
        <time>2017-12-09T13:25:04Z</time>
      </trkpt>
      <trkpt lat="43.5233" lon="3.3039">
        <ele>98.7</ele>
        <time>2017-12-09T13:25:05Z</time>
      </trkpt>
      <trkpt lat="43.52333" lon="3.30386">
        <ele>98.8</ele>
        <time>2017-12-09T13:25:07Z</time>
      </trkpt>
      <trkpt lat="43.52337" lon="3.30382">
        <ele>98.9</ele>
        <time>2017-12-09T13:25:09Z</time>
      </trkpt>
      <trkpt lat="43.52342" lon="3.30377">
        <ele>99</ele>
        <time>2017-12-09T13:25:11Z</time>
      </trkpt>
      <trkpt lat="43.52344" lon="3.30374">
        <ele>99.1</ele>
        <time>2017-12-09T13:25:12Z</time>
      </trkpt>
      <trkpt lat="43.52346" lon="3.30371">
        <ele>99.2</ele>
        <time>2017-12-09T13:25:13Z</time>
      </trkpt>
      <trkpt lat="43.52348" lon="3.30368">
        <ele>99.2</ele>
        <time>2017-12-09T13:25:14Z</time>
      </trkpt>
      <trkpt lat="43.5235" lon="3.30366">
        <ele>99.3</ele>
        <time>2017-12-09T13:25:15Z</time>
      </trkpt>
      <trkpt lat="43.52352" lon="3.30363">
        <ele>99.3</ele>
        <time>2017-12-09T13:25:16Z</time>
      </trkpt>
      <trkpt lat="43.52355" lon="3.3036">
        <ele>99.3</ele>
        <time>2017-12-09T13:25:17Z</time>
      </trkpt>
      <trkpt lat="43.52357" lon="3.30358">
        <ele>99.4</ele>
        <time>2017-12-09T13:25:18Z</time>
      </trkpt>
      <trkpt lat="43.52359" lon="3.30355">
        <ele>99.4</ele>
        <time>2017-12-09T13:25:19Z</time>
      </trkpt>
      <trkpt lat="43.52362" lon="3.30353">
        <ele>99.5</ele>
        <time>2017-12-09T13:25:20Z</time>
      </trkpt>
      <trkpt lat="43.52365" lon="3.3035">
        <ele>99.5</ele>
        <time>2017-12-09T13:25:21Z</time>
      </trkpt>
      <trkpt lat="43.52368" lon="3.30348">
        <ele>99.5</ele>
        <time>2017-12-09T13:25:22Z</time>
      </trkpt>
      <trkpt lat="43.5237" lon="3.30345">
        <ele>99.6</ele>
        <time>2017-12-09T13:25:23Z</time>
      </trkpt>
      <trkpt lat="43.52373" lon="3.30343">
        <ele>99.6</ele>
        <time>2017-12-09T13:25:24Z</time>
      </trkpt>
      <trkpt lat="43.52376" lon="3.30341">
        <ele>99.7</ele>
        <time>2017-12-09T13:25:25Z</time>
      </trkpt>
      <trkpt lat="43.52379" lon="3.30339">
        <ele>99.7</ele>
        <time>2017-12-09T13:25:26Z</time>
      </trkpt>
      <trkpt lat="43.52382" lon="3.30336">
        <ele>99.8</ele>
        <time>2017-12-09T13:25:27Z</time>
      </trkpt>
      <trkpt lat="43.52386" lon="3.30334">
        <ele>99.8</ele>
        <time>2017-12-09T13:25:28Z</time>
      </trkpt>
      <trkpt lat="43.52389" lon="3.30332">
        <ele>99.9</ele>
        <time>2017-12-09T13:25:29Z</time>
      </trkpt>
      <trkpt lat="43.52393" lon="3.3033">
        <ele>99.9</ele>
        <time>2017-12-09T13:25:30Z</time>
      </trkpt>
      <trkpt lat="43.52396" lon="3.30327">
        <ele>100</ele>
        <time>2017-12-09T13:25:31Z</time>
      </trkpt>
      <trkpt lat="43.524" lon="3.30325">
        <ele>100.1</ele>
        <time>2017-12-09T13:25:32Z</time>
      </trkpt>
      <trkpt lat="43.52404" lon="3.30323">
        <ele>100.1</ele>
        <time>2017-12-09T13:25:33Z</time>
      </trkpt>
      <trkpt lat="43.52408" lon="3.3032">
        <ele>100.2</ele>
        <time>2017-12-09T13:25:34Z</time>
      </trkpt>
      <trkpt lat="43.52411" lon="3.30318">
        <ele>100.3</ele>
        <time>2017-12-09T13:25:35Z</time>
      </trkpt>
      <trkpt lat="43.52415" lon="3.30315">
        <ele>100.4</ele>
        <time>2017-12-09T13:25:36Z</time>
      </trkpt>
      <trkpt lat="43.52419" lon="3.30312">
        <ele>100.4</ele>
        <time>2017-12-09T13:25:37Z</time>
      </trkpt>
      <trkpt lat="43.52423" lon="3.3031">
        <ele>100.5</ele>
        <time>2017-12-09T13:25:38Z</time>
      </trkpt>
      <trkpt lat="43.52427" lon="3.30307">
        <ele>100.6</ele>
        <time>2017-12-09T13:25:39Z</time>
      </trkpt>
      <trkpt lat="43.52431" lon="3.30304">
        <ele>100.7</ele>
        <time>2017-12-09T13:25:40Z</time>
      </trkpt>
      <trkpt lat="43.52435" lon="3.30301">
        <ele>100.8</ele>
        <time>2017-12-09T13:25:41Z</time>
      </trkpt>
      <trkpt lat="43.5244" lon="3.30298">
        <ele>100.9</ele>
        <time>2017-12-09T13:25:42Z</time>
      </trkpt>
      <trkpt lat="43.52444" lon="3.30295">
        <ele>101.2</ele>
        <time>2017-12-09T13:25:43Z</time>
      </trkpt>
      <trkpt lat="43.52448" lon="3.30293">
        <ele>101.6</ele>
        <time>2017-12-09T13:25:44Z</time>
      </trkpt>
      <trkpt lat="43.52452" lon="3.3029">
        <ele>101.9</ele>
        <time>2017-12-09T13:25:45Z</time>
      </trkpt>
      <trkpt lat="43.52457" lon="3.30288">
        <ele>102.3</ele>
        <time>2017-12-09T13:25:46Z</time>
      </trkpt>
      <trkpt lat="43.52461" lon="3.30286">
        <ele>102.7</ele>
        <time>2017-12-09T13:25:47Z</time>
      </trkpt>
      <trkpt lat="43.52466" lon="3.30284">
        <ele>103</ele>
        <time>2017-12-09T13:25:48Z</time>
      </trkpt>
      <trkpt lat="43.5247" lon="3.30282">
        <ele>103.2</ele>
        <time>2017-12-09T13:25:49Z</time>
      </trkpt>
      <trkpt lat="43.52475" lon="3.30281">
        <ele>103.3</ele>
        <time>2017-12-09T13:25:50Z</time>
      </trkpt>
      <trkpt lat="43.52479" lon="3.30279">
        <ele>103.3</ele>
        <time>2017-12-09T13:25:51Z</time>
      </trkpt>
      <trkpt lat="43.52484" lon="3.30278">
        <ele>103.4</ele>
        <time>2017-12-09T13:25:52Z</time>
      </trkpt>
      <trkpt lat="43.52488" lon="3.30276">
        <ele>103.4</ele>
        <time>2017-12-09T13:25:53Z</time>
      </trkpt>
      <trkpt lat="43.52493" lon="3.30275">
        <ele>103.5</ele>
        <time>2017-12-09T13:25:54Z</time>
      </trkpt>
      <trkpt lat="43.52497" lon="3.30273">
        <ele>103.5</ele>
        <time>2017-12-09T13:25:55Z</time>
      </trkpt>
      <trkpt lat="43.52501" lon="3.30271">
        <ele>103.6</ele>
        <time>2017-12-09T13:25:56Z</time>
      </trkpt>
      <trkpt lat="43.52505" lon="3.30269">
        <ele>103.6</ele>
        <time>2017-12-09T13:25:57Z</time>
      </trkpt>
      <trkpt lat="43.52509" lon="3.30267">
        <ele>103.7</ele>
        <time>2017-12-09T13:25:58Z</time>
      </trkpt>
      <trkpt lat="43.52512" lon="3.30266">
        <ele>103.7</ele>
        <time>2017-12-09T13:25:59Z</time>
      </trkpt>
      <trkpt lat="43.52516" lon="3.30264">
        <ele>103.7</ele>
        <time>2017-12-09T13:26:00Z</time>
      </trkpt>
      <trkpt lat="43.5252" lon="3.30262">
        <ele>103.8</ele>
        <time>2017-12-09T13:26:01Z</time>
      </trkpt>
      <trkpt lat="43.52523" lon="3.3026">
        <ele>103.8</ele>
        <time>2017-12-09T13:26:02Z</time>
      </trkpt>
      <trkpt lat="43.52526" lon="3.30258">
        <ele>103.9</ele>
        <time>2017-12-09T13:26:03Z</time>
      </trkpt>
      <trkpt lat="43.52532" lon="3.30254">
        <ele>103.9</ele>
        <time>2017-12-09T13:26:05Z</time>
      </trkpt>
      <trkpt lat="43.52535" lon="3.30253">
        <ele>104</ele>
        <time>2017-12-09T13:26:06Z</time>
      </trkpt>
      <trkpt lat="43.52539" lon="3.30252">
        <ele>103.9</ele>
        <time>2017-12-09T13:26:07Z</time>
      </trkpt>
      <trkpt lat="43.52542" lon="3.3025">
        <ele>103.9</ele>
        <time>2017-12-09T13:26:08Z</time>
      </trkpt>
      <trkpt lat="43.52545" lon="3.30248">
        <ele>103.8</ele>
        <time>2017-12-09T13:26:09Z</time>
      </trkpt>
      <trkpt lat="43.52549" lon="3.30245">
        <ele>103.8</ele>
        <time>2017-12-09T13:26:11Z</time>
      </trkpt>
      <trkpt lat="43.52552" lon="3.30242">
        <ele>103.8</ele>
        <time>2017-12-09T13:26:12Z</time>
      </trkpt>
      <trkpt lat="43.52554" lon="3.30239">
        <ele>103.8</ele>
        <time>2017-12-09T13:26:13Z</time>
      </trkpt>
      <trkpt lat="43.52557" lon="3.30235">
        <ele>105</ele>
        <time>2017-12-09T13:26:15Z</time>
      </trkpt>
      <trkpt lat="43.52561" lon="3.3023">
        <ele>105.5</ele>
        <time>2017-12-09T13:26:17Z</time>
      </trkpt>
      <trkpt lat="43.52565" lon="3.30226">
        <ele>105.9</ele>
        <time>2017-12-09T13:26:19Z</time>
      </trkpt>
      <trkpt lat="43.52568" lon="3.30223">
        <ele>106.4</ele>
        <time>2017-12-09T13:26:21Z</time>
      </trkpt>
      <trkpt lat="43.52571" lon="3.30221">
        <ele>106.7</ele>
        <time>2017-12-09T13:26:23Z</time>
      </trkpt>
      <trkpt lat="43.52573" lon="3.30219">
        <ele>107</ele>
        <time>2017-12-09T13:26:25Z</time>
      </trkpt>
      <trkpt lat="43.52578" lon="3.30215">
        <ele>107.3</ele>
        <time>2017-12-09T13:26:27Z</time>
      </trkpt>
      <trkpt lat="43.52581" lon="3.30212">
        <ele>107.5</ele>
        <time>2017-12-09T13:26:29Z</time>
      </trkpt>
      <trkpt lat="43.52585" lon="3.3021">
        <ele>107.7</ele>
        <time>2017-12-09T13:26:31Z</time>
      </trkpt>
      <trkpt lat="43.52588" lon="3.30208">
        <ele>107.8</ele>
        <time>2017-12-09T13:26:33Z</time>
      </trkpt>
      <trkpt lat="43.52593" lon="3.30206">
        <ele>107.9</ele>
        <time>2017-12-09T13:26:35Z</time>
      </trkpt>
      <trkpt lat="43.52598" lon="3.30204">
        <ele>108</ele>
        <time>2017-12-09T13:26:37Z</time>
      </trkpt>
      <trkpt lat="43.526" lon="3.30202">
        <ele>108.1</ele>
        <time>2017-12-09T13:26:38Z</time>
      </trkpt>
      <trkpt lat="43.52603" lon="3.30201">
        <ele>108.3</ele>
        <time>2017-12-09T13:26:39Z</time>
      </trkpt>
      <trkpt lat="43.52607" lon="3.30198">
        <ele>108.6</ele>
        <time>2017-12-09T13:26:41Z</time>
      </trkpt>
      <trkpt lat="43.52612" lon="3.30195">
        <ele>108.9</ele>
        <time>2017-12-09T13:26:43Z</time>
      </trkpt>
      <trkpt lat="43.52616" lon="3.30193">
        <ele>109.1</ele>
        <time>2017-12-09T13:26:45Z</time>
      </trkpt>
      <trkpt lat="43.5262" lon="3.30191">
        <ele>109.3</ele>
        <time>2017-12-09T13:26:47Z</time>
      </trkpt>
      <trkpt lat="43.52625" lon="3.30188">
        <ele>109.5</ele>
        <time>2017-12-09T13:26:49Z</time>
      </trkpt>
      <trkpt lat="43.52629" lon="3.30186">
        <ele>109.8</ele>
        <time>2017-12-09T13:26:51Z</time>
      </trkpt>
      <trkpt lat="43.52634" lon="3.30183">
        <ele>110.1</ele>
        <time>2017-12-09T13:26:53Z</time>
      </trkpt>
      <trkpt lat="43.52638" lon="3.30181">
        <ele>110.4</ele>
        <time>2017-12-09T13:26:55Z</time>
      </trkpt>
      <trkpt lat="43.52642" lon="3.30179">
        <ele>110.6</ele>
        <time>2017-12-09T13:26:57Z</time>
      </trkpt>
      <trkpt lat="43.52646" lon="3.30177">
        <ele>110.7</ele>
        <time>2017-12-09T13:26:59Z</time>
      </trkpt>
      <trkpt lat="43.5265" lon="3.30176">
        <ele>110.8</ele>
        <time>2017-12-09T13:27:01Z</time>
      </trkpt>
      <trkpt lat="43.52654" lon="3.30173">
        <ele>110.8</ele>
        <time>2017-12-09T13:27:03Z</time>
      </trkpt>
      <trkpt lat="43.52658" lon="3.30171">
        <ele>110.9</ele>
        <time>2017-12-09T13:27:05Z</time>
      </trkpt>
      <trkpt lat="43.52663" lon="3.30169">
        <ele>110.9</ele>
        <time>2017-12-09T13:27:07Z</time>
      </trkpt>
      <trkpt lat="43.52667" lon="3.30167">
        <ele>111</ele>
        <time>2017-12-09T13:27:09Z</time>
      </trkpt>
      <trkpt lat="43.52672" lon="3.30165">
        <ele>111</ele>
        <time>2017-12-09T13:27:11Z</time>
      </trkpt>
      <trkpt lat="43.52676" lon="3.30164">
        <ele>111</ele>
        <time>2017-12-09T13:27:13Z</time>
      </trkpt>
      <trkpt lat="43.52681" lon="3.30161">
        <ele>111.1</ele>
        <time>2017-12-09T13:27:15Z</time>
      </trkpt>
      <trkpt lat="43.52684" lon="3.3016">
        <ele>111.1</ele>
        <time>2017-12-09T13:27:16Z</time>
      </trkpt>
      <trkpt lat="43.52687" lon="3.30159">
        <ele>111.2</ele>
        <time>2017-12-09T13:27:17Z</time>
      </trkpt>
      <trkpt lat="43.52692" lon="3.30157">
        <ele>111.5</ele>
        <time>2017-12-09T13:27:19Z</time>
      </trkpt>
      <trkpt lat="43.52694" lon="3.30157">
        <ele>111.6</ele>
        <time>2017-12-09T13:27:20Z</time>
      </trkpt>
      <trkpt lat="43.52697" lon="3.30155">
        <ele>111.8</ele>
        <time>2017-12-09T13:27:21Z</time>
      </trkpt>
      <trkpt lat="43.527" lon="3.30154">
        <ele>111.9</ele>
        <time>2017-12-09T13:27:22Z</time>
      </trkpt>
      <trkpt lat="43.52703" lon="3.30153">
        <ele>112</ele>
        <time>2017-12-09T13:27:23Z</time>
      </trkpt>
      <trkpt lat="43.52707" lon="3.3015">
        <ele>112.1</ele>
        <time>2017-12-09T13:27:25Z</time>
      </trkpt>
      <trkpt lat="43.52711" lon="3.30148">
        <ele>112.2</ele>
        <time>2017-12-09T13:27:27Z</time>
      </trkpt>
      <trkpt lat="43.52715" lon="3.30146">
        <ele>112.2</ele>
        <time>2017-12-09T13:27:29Z</time>
      </trkpt>
      <trkpt lat="43.52719" lon="3.30144">
        <ele>112.3</ele>
        <time>2017-12-09T13:27:31Z</time>
      </trkpt>
      <trkpt lat="43.52724" lon="3.30142">
        <ele>112.3</ele>
        <time>2017-12-09T13:27:33Z</time>
      </trkpt>
      <trkpt lat="43.52729" lon="3.3014">
        <ele>112.3</ele>
        <time>2017-12-09T13:27:35Z</time>
      </trkpt>
      <trkpt lat="43.52732" lon="3.30139">
        <ele>112.3</ele>
        <time>2017-12-09T13:27:36Z</time>
      </trkpt>
      <trkpt lat="43.52735" lon="3.30139">
        <ele>112.3</ele>
        <time>2017-12-09T13:27:37Z</time>
      </trkpt>
      <trkpt lat="43.5274" lon="3.30138">
        <ele>112.2</ele>
        <time>2017-12-09T13:27:39Z</time>
      </trkpt>
      <trkpt lat="43.52743" lon="3.30138">
        <ele>112.2</ele>
        <time>2017-12-09T13:27:40Z</time>
      </trkpt>
      <trkpt lat="43.52748" lon="3.30138">
        <ele>112.1</ele>
        <time>2017-12-09T13:27:42Z</time>
      </trkpt>
      <trkpt lat="43.52752" lon="3.30138">
        <ele>112.1</ele>
        <time>2017-12-09T13:27:44Z</time>
      </trkpt>
      <trkpt lat="43.52755" lon="3.30138">
        <ele>112.1</ele>
        <time>2017-12-09T13:27:45Z</time>
      </trkpt>
      <trkpt lat="43.52758" lon="3.30137">
        <ele>112</ele>
        <time>2017-12-09T13:27:46Z</time>
      </trkpt>
      <trkpt lat="43.52762" lon="3.30137">
        <ele>111.9</ele>
        <time>2017-12-09T13:27:47Z</time>
      </trkpt>
      <trkpt lat="43.52766" lon="3.30137">
        <ele>111.9</ele>
        <time>2017-12-09T13:27:48Z</time>
      </trkpt>
      <trkpt lat="43.5277" lon="3.30136">
        <ele>111.8</ele>
        <time>2017-12-09T13:27:49Z</time>
      </trkpt>
      <trkpt lat="43.52773" lon="3.30136">
        <ele>111.6</ele>
        <time>2017-12-09T13:27:50Z</time>
      </trkpt>
      <trkpt lat="43.52778" lon="3.30136">
        <ele>111.2</ele>
        <time>2017-12-09T13:27:51Z</time>
      </trkpt>
      <trkpt lat="43.52781" lon="3.30136">
        <ele>110.7</ele>
        <time>2017-12-09T13:27:52Z</time>
      </trkpt>
      <trkpt lat="43.52785" lon="3.30136">
        <ele>110.2</ele>
        <time>2017-12-09T13:27:53Z</time>
      </trkpt>
      <trkpt lat="43.52789" lon="3.30137">
        <ele>109.8</ele>
        <time>2017-12-09T13:27:54Z</time>
      </trkpt>
      <trkpt lat="43.52793" lon="3.30137">
        <ele>109.5</ele>
        <time>2017-12-09T13:27:55Z</time>
      </trkpt>
      <trkpt lat="43.52797" lon="3.30136">
        <ele>109.3</ele>
        <time>2017-12-09T13:27:56Z</time>
      </trkpt>
      <trkpt lat="43.52802" lon="3.30135">
        <ele>109</ele>
        <time>2017-12-09T13:27:57Z</time>
      </trkpt>
      <trkpt lat="43.52806" lon="3.30133">
        <ele>108.5</ele>
        <time>2017-12-09T13:27:58Z</time>
      </trkpt>
      <trkpt lat="43.52811" lon="3.30129">
        <ele>107.8</ele>
        <time>2017-12-09T13:27:59Z</time>
      </trkpt>
      <trkpt lat="43.52815" lon="3.30125">
        <ele>107.3</ele>
        <time>2017-12-09T13:28:00Z</time>
      </trkpt>
      <trkpt lat="43.5282" lon="3.30121">
        <ele>107.1</ele>
        <time>2017-12-09T13:28:01Z</time>
      </trkpt>
      <trkpt lat="43.52826" lon="3.30117">
        <ele>106.9</ele>
        <time>2017-12-09T13:28:02Z</time>
      </trkpt>
      <trkpt lat="43.52831" lon="3.30113">
        <ele>106.8</ele>
        <time>2017-12-09T13:28:03Z</time>
      </trkpt>
      <trkpt lat="43.52836" lon="3.30109">
        <ele>106.7</ele>
        <time>2017-12-09T13:28:04Z</time>
      </trkpt>
      <trkpt lat="43.52841" lon="3.30105">
        <ele>106.6</ele>
        <time>2017-12-09T13:28:05Z</time>
      </trkpt>
      <trkpt lat="43.52845" lon="3.301">
        <ele>106.6</ele>
        <time>2017-12-09T13:28:06Z</time>
      </trkpt>
      <trkpt lat="43.52848" lon="3.30095">
        <ele>106.5</ele>
        <time>2017-12-09T13:28:07Z</time>
      </trkpt>
      <trkpt lat="43.5285" lon="3.3009">
        <ele>106.5</ele>
        <time>2017-12-09T13:28:08Z</time>
      </trkpt>
      <trkpt lat="43.52852" lon="3.30085">
        <ele>106.5</ele>
        <time>2017-12-09T13:28:09Z</time>
      </trkpt>
      <trkpt lat="43.52854" lon="3.3008">
        <ele>106.4</ele>
        <time>2017-12-09T13:28:10Z</time>
      </trkpt>
      <trkpt lat="43.52856" lon="3.30075">
        <ele>106.4</ele>
        <time>2017-12-09T13:28:11Z</time>
      </trkpt>
      <trkpt lat="43.52857" lon="3.30071">
        <ele>106.4</ele>
        <time>2017-12-09T13:28:12Z</time>
      </trkpt>
      <trkpt lat="43.52859" lon="3.30067">
        <ele>106.4</ele>
        <time>2017-12-09T13:28:13Z</time>
      </trkpt>
      <trkpt lat="43.5286" lon="3.30062">
        <ele>106.4</ele>
        <time>2017-12-09T13:28:14Z</time>
      </trkpt>
      <trkpt lat="43.52863" lon="3.30056">
        <ele>106.3</ele>
        <time>2017-12-09T13:28:16Z</time>
      </trkpt>
      <trkpt lat="43.52865" lon="3.30049">
        <ele>106.3</ele>
        <time>2017-12-09T13:28:18Z</time>
      </trkpt>
      <trkpt lat="43.52867" lon="3.30046">
        <ele>106.2</ele>
        <time>2017-12-09T13:28:19Z</time>
      </trkpt>
      <trkpt lat="43.52867" lon="3.30042">
        <ele>106.2</ele>
        <time>2017-12-09T13:28:20Z</time>
      </trkpt>
      <trkpt lat="43.52868" lon="3.30038">
        <ele>106.2</ele>
        <time>2017-12-09T13:28:21Z</time>
      </trkpt>
      <trkpt lat="43.52869" lon="3.30034">
        <ele>106.2</ele>
        <time>2017-12-09T13:28:22Z</time>
      </trkpt>
      <trkpt lat="43.52871" lon="3.30027">
        <ele>106.2</ele>
        <time>2017-12-09T13:28:24Z</time>
      </trkpt>
      <trkpt lat="43.52872" lon="3.30023">
        <ele>106.2</ele>
        <time>2017-12-09T13:28:25Z</time>
      </trkpt>
      <trkpt lat="43.52872" lon="3.3002">
        <ele>106.2</ele>
        <time>2017-12-09T13:28:26Z</time>
      </trkpt>
      <trkpt lat="43.52873" lon="3.30016">
        <ele>106.2</ele>
        <time>2017-12-09T13:28:27Z</time>
      </trkpt>
      <trkpt lat="43.52873" lon="3.30012">
        <ele>106.2</ele>
        <time>2017-12-09T13:28:28Z</time>
      </trkpt>
      <trkpt lat="43.52873" lon="3.30008">
        <ele>106.2</ele>
        <time>2017-12-09T13:28:29Z</time>
      </trkpt>
      <trkpt lat="43.52873" lon="3.30004">
        <ele>106.2</ele>
        <time>2017-12-09T13:28:30Z</time>
      </trkpt>
      <trkpt lat="43.52874" lon="3.29997">
        <ele>106.2</ele>
        <time>2017-12-09T13:28:32Z</time>
      </trkpt>
      <trkpt lat="43.52877" lon="3.29992">
        <ele>106.3</ele>
        <time>2017-12-09T13:28:34Z</time>
      </trkpt>
      <trkpt lat="43.5288" lon="3.29987">
        <ele>106.4</ele>
        <time>2017-12-09T13:28:36Z</time>
      </trkpt>
      <trkpt lat="43.52883" lon="3.29983">
        <ele>106.6</ele>
        <time>2017-12-09T13:28:38Z</time>
      </trkpt>
      <trkpt lat="43.52887" lon="3.29978">
        <ele>106.9</ele>
        <time>2017-12-09T13:28:40Z</time>
      </trkpt>
      <trkpt lat="43.52888" lon="3.29974">
        <ele>107</ele>
        <time>2017-12-09T13:28:41Z</time>
      </trkpt>
      <trkpt lat="43.52891" lon="3.29968">
        <ele>107.2</ele>
        <time>2017-12-09T13:28:43Z</time>
      </trkpt>
      <trkpt lat="43.52893" lon="3.29962">
        <ele>107.4</ele>
        <time>2017-12-09T13:28:45Z</time>
      </trkpt>
      <trkpt lat="43.52894" lon="3.29955">
        <ele>107.5</ele>
        <time>2017-12-09T13:28:47Z</time>
      </trkpt>
      <trkpt lat="43.52895" lon="3.29948">
        <ele>107.7</ele>
        <time>2017-12-09T13:28:49Z</time>
      </trkpt>
      <trkpt lat="43.52895" lon="3.29941">
        <ele>108</ele>
        <time>2017-12-09T13:28:51Z</time>
      </trkpt>
      <trkpt lat="43.52896" lon="3.29934">
        <ele>108.2</ele>
        <time>2017-12-09T13:28:53Z</time>
      </trkpt>
      <trkpt lat="43.52897" lon="3.29927">
        <ele>108.4</ele>
        <time>2017-12-09T13:28:55Z</time>
      </trkpt>
      <trkpt lat="43.52899" lon="3.29922">
        <ele>108.5</ele>
        <time>2017-12-09T13:28:57Z</time>
      </trkpt>
      <trkpt lat="43.52901" lon="3.29917">
        <ele>108.6</ele>
        <time>2017-12-09T13:28:59Z</time>
      </trkpt>
      <trkpt lat="43.52903" lon="3.29911">
        <ele>108.6</ele>
        <time>2017-12-09T13:29:01Z</time>
      </trkpt>
      <trkpt lat="43.52906" lon="3.29905">
        <ele>108.7</ele>
        <time>2017-12-09T13:29:03Z</time>
      </trkpt>
      <trkpt lat="43.52908" lon="3.299">
        <ele>108.7</ele>
        <time>2017-12-09T13:29:05Z</time>
      </trkpt>
      <trkpt lat="43.52911" lon="3.29894">
        <ele>108.7</ele>
        <time>2017-12-09T13:29:07Z</time>
      </trkpt>
      <trkpt lat="43.52913" lon="3.29888">
        <ele>108.7</ele>
        <time>2017-12-09T13:29:09Z</time>
      </trkpt>
      <trkpt lat="43.52916" lon="3.29883">
        <ele>108.7</ele>
        <time>2017-12-09T13:29:11Z</time>
      </trkpt>
      <trkpt lat="43.52918" lon="3.29878">
        <ele>108.7</ele>
        <time>2017-12-09T13:29:13Z</time>
      </trkpt>
      <trkpt lat="43.52921" lon="3.29872">
        <ele>108.7</ele>
        <time>2017-12-09T13:29:15Z</time>
      </trkpt>
      <trkpt lat="43.52923" lon="3.29867">
        <ele>108.7</ele>
        <time>2017-12-09T13:29:17Z</time>
      </trkpt>
      <trkpt lat="43.52926" lon="3.29861">
        <ele>108.7</ele>
        <time>2017-12-09T13:29:19Z</time>
      </trkpt>
      <trkpt lat="43.52928" lon="3.29858">
        <ele>108.7</ele>
        <time>2017-12-09T13:29:20Z</time>
      </trkpt>
      <trkpt lat="43.5293" lon="3.29855">
        <ele>108.7</ele>
        <time>2017-12-09T13:29:21Z</time>
      </trkpt>
      <trkpt lat="43.52933" lon="3.2985">
        <ele>108.8</ele>
        <time>2017-12-09T13:29:23Z</time>
      </trkpt>
      <trkpt lat="43.52935" lon="3.29847">
        <ele>108.9</ele>
        <time>2017-12-09T13:29:24Z</time>
      </trkpt>
      <trkpt lat="43.52939" lon="3.29842">
        <ele>109</ele>
        <time>2017-12-09T13:29:26Z</time>
      </trkpt>
      <trkpt lat="43.52942" lon="3.29839">
        <ele>109.1</ele>
        <time>2017-12-09T13:29:27Z</time>
      </trkpt>
      <trkpt lat="43.52944" lon="3.29838">
        <ele>109.4</ele>
        <time>2017-12-09T13:29:28Z</time>
      </trkpt>
      <trkpt lat="43.52949" lon="3.29836">
        <ele>110.2</ele>
        <time>2017-12-09T13:29:30Z</time>
      </trkpt>
      <trkpt lat="43.52954" lon="3.29836">
        <ele>111.1</ele>
        <time>2017-12-09T13:29:32Z</time>
      </trkpt>
      <trkpt lat="43.52958" lon="3.29835">
        <ele>111.9</ele>
        <time>2017-12-09T13:29:34Z</time>
      </trkpt>
      <trkpt lat="43.52962" lon="3.29835">
        <ele>112.5</ele>
        <time>2017-12-09T13:29:36Z</time>
      </trkpt>
      <trkpt lat="43.52966" lon="3.29834">
        <ele>113.1</ele>
        <time>2017-12-09T13:29:38Z</time>
      </trkpt>
      <trkpt lat="43.5297" lon="3.29833">
        <ele>113.6</ele>
        <time>2017-12-09T13:29:40Z</time>
      </trkpt>
      <trkpt lat="43.52974" lon="3.29832">
        <ele>114</ele>
        <time>2017-12-09T13:29:42Z</time>
      </trkpt>
      <trkpt lat="43.52977" lon="3.29829">
        <ele>114.5</ele>
        <time>2017-12-09T13:29:44Z</time>
      </trkpt>
      <trkpt lat="43.52979" lon="3.29826">
        <ele>114.9</ele>
        <time>2017-12-09T13:29:46Z</time>
      </trkpt>
      <trkpt lat="43.52982" lon="3.29823">
        <ele>115.3</ele>
        <time>2017-12-09T13:29:48Z</time>
      </trkpt>
      <trkpt lat="43.52985" lon="3.2982">
        <ele>115.7</ele>
        <time>2017-12-09T13:29:50Z</time>
      </trkpt>
      <trkpt lat="43.52987" lon="3.29817">
        <ele>116.1</ele>
        <time>2017-12-09T13:29:52Z</time>
      </trkpt>
      <trkpt lat="43.52989" lon="3.29814">
        <ele>116.5</ele>
        <time>2017-12-09T13:29:54Z</time>
      </trkpt>
      <trkpt lat="43.52992" lon="3.29811">
        <ele>116.9</ele>
        <time>2017-12-09T13:29:56Z</time>
      </trkpt>
      <trkpt lat="43.52994" lon="3.29808">
        <ele>117.3</ele>
        <time>2017-12-09T13:29:58Z</time>
      </trkpt>
      <trkpt lat="43.52997" lon="3.29806">
        <ele>117.7</ele>
        <time>2017-12-09T13:30:00Z</time>
      </trkpt>
      <trkpt lat="43.52999" lon="3.29803">
        <ele>118.1</ele>
        <time>2017-12-09T13:30:02Z</time>
      </trkpt>
      <trkpt lat="43.53001" lon="3.298">
        <ele>118.4</ele>
        <time>2017-12-09T13:30:04Z</time>
      </trkpt>
      <trkpt lat="43.53003" lon="3.29797">
        <ele>118.8</ele>
        <time>2017-12-09T13:30:06Z</time>
      </trkpt>
      <trkpt lat="43.53005" lon="3.29794">
        <ele>119.2</ele>
        <time>2017-12-09T13:30:08Z</time>
      </trkpt>
      <trkpt lat="43.53007" lon="3.29791">
        <ele>119.5</ele>
        <time>2017-12-09T13:30:10Z</time>
      </trkpt>
      <trkpt lat="43.53008" lon="3.29788">
        <ele>119.9</ele>
        <time>2017-12-09T13:30:12Z</time>
      </trkpt>
      <trkpt lat="43.53011" lon="3.29783">
        <ele>120.3</ele>
        <time>2017-12-09T13:30:15Z</time>
      </trkpt>
      <trkpt lat="43.53013" lon="3.2978">
        <ele>120.8</ele>
        <time>2017-12-09T13:30:18Z</time>
      </trkpt>
      <trkpt lat="43.53015" lon="3.29776">
        <ele>121.1</ele>
        <time>2017-12-09T13:30:20Z</time>
      </trkpt>
      <trkpt lat="43.53017" lon="3.29773">
        <ele>121.4</ele>
        <time>2017-12-09T13:30:22Z</time>
      </trkpt>
      <trkpt lat="43.53019" lon="3.2977">
        <ele>121.7</ele>
        <time>2017-12-09T13:30:24Z</time>
      </trkpt>
      <trkpt lat="43.53021" lon="3.29765">
        <ele>122.1</ele>
        <time>2017-12-09T13:30:27Z</time>
      </trkpt>
      <trkpt lat="43.53022" lon="3.29762">
        <ele>122.3</ele>
        <time>2017-12-09T13:30:29Z</time>
      </trkpt>
      <trkpt lat="43.53025" lon="3.29758">
        <ele>122.7</ele>
        <time>2017-12-09T13:30:32Z</time>
      </trkpt>
      <trkpt lat="43.53027" lon="3.29753">
        <ele>123.1</ele>
        <time>2017-12-09T13:30:35Z</time>
      </trkpt>
      <trkpt lat="43.53028" lon="3.29749">
        <ele>123.4</ele>
        <time>2017-12-09T13:30:37Z</time>
      </trkpt>
      <trkpt lat="43.53029" lon="3.29745">
        <ele>123.6</ele>
        <time>2017-12-09T13:30:39Z</time>
      </trkpt>
      <trkpt lat="43.5303" lon="3.29741">
        <ele>124</ele>
        <time>2017-12-09T13:30:42Z</time>
      </trkpt>
      <trkpt lat="43.53031" lon="3.29737">
        <ele>124.2</ele>
        <time>2017-12-09T13:30:44Z</time>
      </trkpt>
      <trkpt lat="43.53032" lon="3.29733">
        <ele>124.5</ele>
        <time>2017-12-09T13:30:46Z</time>
      </trkpt>
      <trkpt lat="43.53033" lon="3.29729">
        <ele>124.7</ele>
        <time>2017-12-09T13:30:48Z</time>
      </trkpt>
      <trkpt lat="43.53034" lon="3.29725">
        <ele>125</ele>
        <time>2017-12-09T13:30:50Z</time>
      </trkpt>
      <trkpt lat="43.53034" lon="3.29721">
        <ele>125.2</ele>
        <time>2017-12-09T13:30:52Z</time>
      </trkpt>
      <trkpt lat="43.53034" lon="3.29717">
        <ele>125.3</ele>
        <time>2017-12-09T13:30:54Z</time>
      </trkpt>
      <trkpt lat="43.53035" lon="3.29713">
        <ele>125.5</ele>
        <time>2017-12-09T13:30:56Z</time>
      </trkpt>
      <trkpt lat="43.53035" lon="3.29709">
        <ele>125.6</ele>
        <time>2017-12-09T13:30:58Z</time>
      </trkpt>
      <trkpt lat="43.53035" lon="3.29705">
        <ele>125.7</ele>
        <time>2017-12-09T13:31:00Z</time>
      </trkpt>
      <trkpt lat="43.53035" lon="3.29701">
        <ele>125.8</ele>
        <time>2017-12-09T13:31:02Z</time>
      </trkpt>
      <trkpt lat="43.53035" lon="3.29697">
        <ele>125.9</ele>
        <time>2017-12-09T13:31:04Z</time>
      </trkpt>
      <trkpt lat="43.53035" lon="3.29693">
        <ele>126</ele>
        <time>2017-12-09T13:31:06Z</time>
      </trkpt>
      <trkpt lat="43.53034" lon="3.29689">
        <ele>125.9</ele>
        <time>2017-12-09T13:31:08Z</time>
      </trkpt>
      <trkpt lat="43.53034" lon="3.29685">
        <ele>125.7</ele>
        <time>2017-12-09T13:31:10Z</time>
      </trkpt>
      <trkpt lat="43.53034" lon="3.29682">
        <ele>125.5</ele>
        <time>2017-12-09T13:31:12Z</time>
      </trkpt>
      <trkpt lat="43.53034" lon="3.29677">
        <ele>125.3</ele>
        <time>2017-12-09T13:31:14Z</time>
      </trkpt>
      <trkpt lat="43.53034" lon="3.29672">
        <ele>125.1</ele>
        <time>2017-12-09T13:31:16Z</time>
      </trkpt>
      <trkpt lat="43.53035" lon="3.29668">
        <ele>124.8</ele>
        <time>2017-12-09T13:31:18Z</time>
      </trkpt>
      <trkpt lat="43.53036" lon="3.29664">
        <ele>124.6</ele>
        <time>2017-12-09T13:31:20Z</time>
      </trkpt>
      <trkpt lat="43.53037" lon="3.29659">
        <ele>124.5</ele>
        <time>2017-12-09T13:31:23Z</time>
      </trkpt>
      <trkpt lat="43.53037" lon="3.29655">
        <ele>124.4</ele>
        <time>2017-12-09T13:31:25Z</time>
      </trkpt>
      <trkpt lat="43.53039" lon="3.29651">
        <ele>124.4</ele>
        <time>2017-12-09T13:31:27Z</time>
      </trkpt>
      <trkpt lat="43.5304" lon="3.29646">
        <ele>124.3</ele>
        <time>2017-12-09T13:31:29Z</time>
      </trkpt>
      <trkpt lat="43.53041" lon="3.29642">
        <ele>124.3</ele>
        <time>2017-12-09T13:31:31Z</time>
      </trkpt>
      <trkpt lat="43.53042" lon="3.29638">
        <ele>124.3</ele>
        <time>2017-12-09T13:31:33Z</time>
      </trkpt>
      <trkpt lat="43.53043" lon="3.29632">
        <ele>124.2</ele>
        <time>2017-12-09T13:31:35Z</time>
      </trkpt>
      <trkpt lat="43.53043" lon="3.29628">
        <ele>124.2</ele>
        <time>2017-12-09T13:31:36Z</time>
      </trkpt>
      <trkpt lat="43.53042" lon="3.29621">
        <ele>124</ele>
        <time>2017-12-09T13:31:38Z</time>
      </trkpt>
      <trkpt lat="43.53042" lon="3.29615">
        <ele>124</ele>
        <time>2017-12-09T13:31:40Z</time>
      </trkpt>
      <trkpt lat="43.53041" lon="3.29609">
        <ele>124</ele>
        <time>2017-12-09T13:31:42Z</time>
      </trkpt>
      <trkpt lat="43.5304" lon="3.29605">
        <ele>124.1</ele>
        <time>2017-12-09T13:31:44Z</time>
      </trkpt>
      <trkpt lat="43.5304" lon="3.29599">
        <ele>124.1</ele>
        <time>2017-12-09T13:31:46Z</time>
      </trkpt>
      <trkpt lat="43.53042" lon="3.29594">
        <ele>124.3</ele>
        <time>2017-12-09T13:31:48Z</time>
      </trkpt>
      <trkpt lat="43.53043" lon="3.29588">
        <ele>124.4</ele>
        <time>2017-12-09T13:31:50Z</time>
      </trkpt>
      <trkpt lat="43.53045" lon="3.29584">
        <ele>124.5</ele>
        <time>2017-12-09T13:31:52Z</time>
      </trkpt>
      <trkpt lat="43.53046" lon="3.29579">
        <ele>124.6</ele>
        <time>2017-12-09T13:31:54Z</time>
      </trkpt>
      <trkpt lat="43.53048" lon="3.29575">
        <ele>124.8</ele>
        <time>2017-12-09T13:31:56Z</time>
      </trkpt>
      <trkpt lat="43.5305" lon="3.29571">
        <ele>125.2</ele>
        <time>2017-12-09T13:31:58Z</time>
      </trkpt>
      <trkpt lat="43.53052" lon="3.29566">
        <ele>125.9</ele>
        <time>2017-12-09T13:32:00Z</time>
      </trkpt>
      <trkpt lat="43.53053" lon="3.29562">
        <ele>126.1</ele>
        <time>2017-12-09T13:32:02Z</time>
      </trkpt>
      <trkpt lat="43.53056" lon="3.29557">
        <ele>126.2</ele>
        <time>2017-12-09T13:32:04Z</time>
      </trkpt>
      <trkpt lat="43.53057" lon="3.29552">
        <ele>126.3</ele>
        <time>2017-12-09T13:32:06Z</time>
      </trkpt>
      <trkpt lat="43.5306" lon="3.29547">
        <ele>126.3</ele>
        <time>2017-12-09T13:32:08Z</time>
      </trkpt>
      <trkpt lat="43.53062" lon="3.29542">
        <ele>126.3</ele>
        <time>2017-12-09T13:32:10Z</time>
      </trkpt>
      <trkpt lat="43.53064" lon="3.29537">
        <ele>126.4</ele>
        <time>2017-12-09T13:32:12Z</time>
      </trkpt>
      <trkpt lat="43.53067" lon="3.29531">
        <ele>126.4</ele>
        <time>2017-12-09T13:32:14Z</time>
      </trkpt>
      <trkpt lat="43.5307" lon="3.29527">
        <ele>126.4</ele>
        <time>2017-12-09T13:32:16Z</time>
      </trkpt>
      <trkpt lat="43.53073" lon="3.29524">
        <ele>126.5</ele>
        <time>2017-12-09T13:32:18Z</time>
      </trkpt>
      <trkpt lat="43.53076" lon="3.29521">
        <ele>126.5</ele>
        <time>2017-12-09T13:32:20Z</time>
      </trkpt>
      <trkpt lat="43.5308" lon="3.29518">
        <ele>126.5</ele>
        <time>2017-12-09T13:32:22Z</time>
      </trkpt>
      <trkpt lat="43.53083" lon="3.29514">
        <ele>126.6</ele>
        <time>2017-12-09T13:32:24Z</time>
      </trkpt>
      <trkpt lat="43.53087" lon="3.2951">
        <ele>126.6</ele>
        <time>2017-12-09T13:32:26Z</time>
      </trkpt>
      <trkpt lat="43.5309" lon="3.29506">
        <ele>126.7</ele>
        <time>2017-12-09T13:32:28Z</time>
      </trkpt>
      <trkpt lat="43.53093" lon="3.29501">
        <ele>126.8</ele>
        <time>2017-12-09T13:32:30Z</time>
      </trkpt>
      <trkpt lat="43.53096" lon="3.29497">
        <ele>126.9</ele>
        <time>2017-12-09T13:32:32Z</time>
      </trkpt>
      <trkpt lat="43.53099" lon="3.29494">
        <ele>127</ele>
        <time>2017-12-09T13:32:34Z</time>
      </trkpt>
      <trkpt lat="43.53102" lon="3.2949">
        <ele>127.1</ele>
        <time>2017-12-09T13:32:36Z</time>
      </trkpt>
      <trkpt lat="43.53106" lon="3.29487">
        <ele>127.2</ele>
        <time>2017-12-09T13:32:38Z</time>
      </trkpt>
      <trkpt lat="43.5311" lon="3.29484">
        <ele>127.7</ele>
        <time>2017-12-09T13:32:40Z</time>
      </trkpt>
      <trkpt lat="43.53113" lon="3.29481">
        <ele>128.2</ele>
        <time>2017-12-09T13:32:42Z</time>
      </trkpt>
      <trkpt lat="43.53116" lon="3.29479">
        <ele>128.6</ele>
        <time>2017-12-09T13:32:44Z</time>
      </trkpt>
      <trkpt lat="43.53119" lon="3.29477">
        <ele>128.8</ele>
        <time>2017-12-09T13:32:46Z</time>
      </trkpt>
      <trkpt lat="43.53123" lon="3.29475">
        <ele>129</ele>
        <time>2017-12-09T13:32:48Z</time>
      </trkpt>
      <trkpt lat="43.53126" lon="3.29473">
        <ele>129.3</ele>
        <time>2017-12-09T13:32:50Z</time>
      </trkpt>
      <trkpt lat="43.5313" lon="3.2947">
        <ele>129.6</ele>
        <time>2017-12-09T13:32:52Z</time>
      </trkpt>
      <trkpt lat="43.53133" lon="3.29469">
        <ele>130.1</ele>
        <time>2017-12-09T13:32:54Z</time>
      </trkpt>
      <trkpt lat="43.53137" lon="3.29467">
        <ele>130.5</ele>
        <time>2017-12-09T13:32:56Z</time>
      </trkpt>
      <trkpt lat="43.5314" lon="3.29465">
        <ele>130.7</ele>
        <time>2017-12-09T13:32:58Z</time>
      </trkpt>
      <trkpt lat="43.53144" lon="3.29463">
        <ele>130.9</ele>
        <time>2017-12-09T13:33:00Z</time>
      </trkpt>
      <trkpt lat="43.53148" lon="3.29461">
        <ele>131.3</ele>
        <time>2017-12-09T13:33:02Z</time>
      </trkpt>
      <trkpt lat="43.53151" lon="3.29458">
        <ele>132</ele>
        <time>2017-12-09T13:33:04Z</time>
      </trkpt>
      <trkpt lat="43.53155" lon="3.29455">
        <ele>132.9</ele>
        <time>2017-12-09T13:33:06Z</time>
      </trkpt>
      <trkpt lat="43.53157" lon="3.2945">
        <ele>133.7</ele>
        <time>2017-12-09T13:33:08Z</time>
      </trkpt>
      <trkpt lat="43.5316" lon="3.29445">
        <ele>134.3</ele>
        <time>2017-12-09T13:33:10Z</time>
      </trkpt>
      <trkpt lat="43.53161" lon="3.2944">
        <ele>135.3</ele>
        <time>2017-12-09T13:33:12Z</time>
      </trkpt>
      <trkpt lat="43.53163" lon="3.29436">
        <ele>135.6</ele>
        <time>2017-12-09T13:33:14Z</time>
      </trkpt>
      <trkpt lat="43.53165" lon="3.29432">
        <ele>135.9</ele>
        <time>2017-12-09T13:33:16Z</time>
      </trkpt>
      <trkpt lat="43.53168" lon="3.29427">
        <ele>136.3</ele>
        <time>2017-12-09T13:33:18Z</time>
      </trkpt>
      <trkpt lat="43.5317" lon="3.29423">
        <ele>137.4</ele>
        <time>2017-12-09T13:33:20Z</time>
      </trkpt>
      <trkpt lat="43.53173" lon="3.29419">
        <ele>137.7</ele>
        <time>2017-12-09T13:33:22Z</time>
      </trkpt>
      <trkpt lat="43.53175" lon="3.29415">
        <ele>137.9</ele>
        <time>2017-12-09T13:33:24Z</time>
      </trkpt>
      <trkpt lat="43.53178" lon="3.29411">
        <ele>138</ele>
        <time>2017-12-09T13:33:26Z</time>
      </trkpt>
      <trkpt lat="43.53181" lon="3.29407">
        <ele>138.2</ele>
        <time>2017-12-09T13:33:28Z</time>
      </trkpt>
      <trkpt lat="43.53184" lon="3.29403">
        <ele>138.3</ele>
        <time>2017-12-09T13:33:30Z</time>
      </trkpt>
      <trkpt lat="43.53187" lon="3.294">
        <ele>138.7</ele>
        <time>2017-12-09T13:33:32Z</time>
      </trkpt>
      <trkpt lat="43.5319" lon="3.29396">
        <ele>139.3</ele>
        <time>2017-12-09T13:33:34Z</time>
      </trkpt>
      <trkpt lat="43.53193" lon="3.29393">
        <ele>139.9</ele>
        <time>2017-12-09T13:33:36Z</time>
      </trkpt>
      <trkpt lat="43.53196" lon="3.2939">
        <ele>140.2</ele>
        <time>2017-12-09T13:33:38Z</time>
      </trkpt>
      <trkpt lat="43.53198" lon="3.29386">
        <ele>140.5</ele>
        <time>2017-12-09T13:33:40Z</time>
      </trkpt>
      <trkpt lat="43.532" lon="3.29382">
        <ele>140.8</ele>
        <time>2017-12-09T13:33:42Z</time>
      </trkpt>
      <trkpt lat="43.53203" lon="3.2938">
        <ele>141.1</ele>
        <time>2017-12-09T13:33:44Z</time>
      </trkpt>
      <trkpt lat="43.53207" lon="3.29379">
        <ele>141.7</ele>
        <time>2017-12-09T13:33:46Z</time>
      </trkpt>
      <trkpt lat="43.53211" lon="3.29377">
        <ele>142.2</ele>
        <time>2017-12-09T13:33:48Z</time>
      </trkpt>
      <trkpt lat="43.53214" lon="3.29375">
        <ele>142.5</ele>
        <time>2017-12-09T13:33:50Z</time>
      </trkpt>
      <trkpt lat="43.53217" lon="3.29373">
        <ele>142.9</ele>
        <time>2017-12-09T13:33:52Z</time>
      </trkpt>
      <trkpt lat="43.5322" lon="3.29372">
        <ele>143.6</ele>
        <time>2017-12-09T13:33:54Z</time>
      </trkpt>
      <trkpt lat="43.53224" lon="3.29372">
        <ele>144.4</ele>
        <time>2017-12-09T13:33:56Z</time>
      </trkpt>
      <trkpt lat="43.53228" lon="3.29371">
        <ele>144.9</ele>
        <time>2017-12-09T13:33:58Z</time>
      </trkpt>
      <trkpt lat="43.53232" lon="3.29368">
        <ele>145.3</ele>
        <time>2017-12-09T13:34:00Z</time>
      </trkpt>
      <trkpt lat="43.53235" lon="3.29363">
        <ele>146.4</ele>
        <time>2017-12-09T13:34:02Z</time>
      </trkpt>
      <trkpt lat="43.53238" lon="3.29358">
        <ele>146.8</ele>
        <time>2017-12-09T13:34:04Z</time>
      </trkpt>
      <trkpt lat="43.5324" lon="3.29353">
        <ele>147.3</ele>
        <time>2017-12-09T13:34:06Z</time>
      </trkpt>
      <trkpt lat="43.53241" lon="3.29348">
        <ele>147.4</ele>
        <time>2017-12-09T13:34:08Z</time>
      </trkpt>
      <trkpt lat="43.53242" lon="3.29342">
        <ele>147.6</ele>
        <time>2017-12-09T13:34:10Z</time>
      </trkpt>
      <trkpt lat="43.53244" lon="3.29338">
        <ele>147.8</ele>
        <time>2017-12-09T13:34:12Z</time>
      </trkpt>
      <trkpt lat="43.53245" lon="3.29333">
        <ele>148.1</ele>
        <time>2017-12-09T13:34:14Z</time>
      </trkpt>
      <trkpt lat="43.53247" lon="3.29328">
        <ele>148.5</ele>
        <time>2017-12-09T13:34:16Z</time>
      </trkpt>
      <trkpt lat="43.53248" lon="3.29323">
        <ele>149</ele>
        <time>2017-12-09T13:34:18Z</time>
      </trkpt>
      <trkpt lat="43.53249" lon="3.29317">
        <ele>149.2</ele>
        <time>2017-12-09T13:34:20Z</time>
      </trkpt>
      <trkpt lat="43.5325" lon="3.29311">
        <ele>149.4</ele>
        <time>2017-12-09T13:34:22Z</time>
      </trkpt>
      <trkpt lat="43.53251" lon="3.29305">
        <ele>149.5</ele>
        <time>2017-12-09T13:34:24Z</time>
      </trkpt>
      <trkpt lat="43.53251" lon="3.29299">
        <ele>149.6</ele>
        <time>2017-12-09T13:34:26Z</time>
      </trkpt>
      <trkpt lat="43.53251" lon="3.29292">
        <ele>149.7</ele>
        <time>2017-12-09T13:34:28Z</time>
      </trkpt>
      <trkpt lat="43.53251" lon="3.29286">
        <ele>149.8</ele>
        <time>2017-12-09T13:34:30Z</time>
      </trkpt>
      <trkpt lat="43.53251" lon="3.2928">
        <ele>149.9</ele>
        <time>2017-12-09T13:34:32Z</time>
      </trkpt>
      <trkpt lat="43.5325" lon="3.29274">
        <ele>150</ele>
        <time>2017-12-09T13:34:34Z</time>
      </trkpt>
      <trkpt lat="43.53249" lon="3.29268">
        <ele>150.1</ele>
        <time>2017-12-09T13:34:36Z</time>
      </trkpt>
      <trkpt lat="43.53247" lon="3.29262">
        <ele>150.2</ele>
        <time>2017-12-09T13:34:38Z</time>
      </trkpt>
      <trkpt lat="43.53245" lon="3.29257">
        <ele>150.4</ele>
        <time>2017-12-09T13:34:40Z</time>
      </trkpt>
      <trkpt lat="43.53243" lon="3.29253">
        <ele>150.7</ele>
        <time>2017-12-09T13:34:42Z</time>
      </trkpt>
      <trkpt lat="43.53241" lon="3.29248">
        <ele>151.1</ele>
        <time>2017-12-09T13:34:44Z</time>
      </trkpt>
      <trkpt lat="43.53239" lon="3.29243">
        <ele>151.5</ele>
        <time>2017-12-09T13:34:46Z</time>
      </trkpt>
      <trkpt lat="43.53237" lon="3.29238">
        <ele>151.7</ele>
        <time>2017-12-09T13:34:48Z</time>
      </trkpt>
      <trkpt lat="43.53235" lon="3.29232">
        <ele>151.8</ele>
        <time>2017-12-09T13:34:50Z</time>
      </trkpt>
      <trkpt lat="43.53234" lon="3.29226">
        <ele>152</ele>
        <time>2017-12-09T13:34:52Z</time>
      </trkpt>
      <trkpt lat="43.53232" lon="3.29221">
        <ele>152.2</ele>
        <time>2017-12-09T13:34:54Z</time>
      </trkpt>
      <trkpt lat="43.5323" lon="3.29214">
        <ele>152.4</ele>
        <time>2017-12-09T13:34:56Z</time>
      </trkpt>
      <trkpt lat="43.53229" lon="3.29208">
        <ele>152.6</ele>
        <time>2017-12-09T13:34:58Z</time>
      </trkpt>
      <trkpt lat="43.53228" lon="3.29203">
        <ele>152.9</ele>
        <time>2017-12-09T13:35:00Z</time>
      </trkpt>
      <trkpt lat="43.53226" lon="3.29197">
        <ele>153.1</ele>
        <time>2017-12-09T13:35:02Z</time>
      </trkpt>
      <trkpt lat="43.53225" lon="3.29191">
        <ele>153.6</ele>
        <time>2017-12-09T13:35:04Z</time>
      </trkpt>
      <trkpt lat="43.53223" lon="3.29185">
        <ele>153.9</ele>
        <time>2017-12-09T13:35:06Z</time>
      </trkpt>
      <trkpt lat="43.53221" lon="3.29179">
        <ele>154.1</ele>
        <time>2017-12-09T13:35:08Z</time>
      </trkpt>
      <trkpt lat="43.53219" lon="3.29172">
        <ele>154.3</ele>
        <time>2017-12-09T13:35:10Z</time>
      </trkpt>
      <trkpt lat="43.53216" lon="3.29166">
        <ele>154.5</ele>
        <time>2017-12-09T13:35:12Z</time>
      </trkpt>
      <trkpt lat="43.53215" lon="3.29162">
        <ele>154.6</ele>
        <time>2017-12-09T13:35:13Z</time>
      </trkpt>
      <trkpt lat="43.53213" lon="3.29159">
        <ele>154.7</ele>
        <time>2017-12-09T13:35:14Z</time>
      </trkpt>
      <trkpt lat="43.53211" lon="3.29156">
        <ele>154.8</ele>
        <time>2017-12-09T13:35:15Z</time>
      </trkpt>
      <trkpt lat="43.53209" lon="3.29153">
        <ele>154.9</ele>
        <time>2017-12-09T13:35:16Z</time>
      </trkpt>
      <trkpt lat="43.53207" lon="3.29151">
        <ele>155</ele>
        <time>2017-12-09T13:35:17Z</time>
      </trkpt>
      <trkpt lat="43.53203" lon="3.29147">
        <ele>155.2</ele>
        <time>2017-12-09T13:35:19Z</time>
      </trkpt>
      <trkpt lat="43.53199" lon="3.29144">
        <ele>155.7</ele>
        <time>2017-12-09T13:35:21Z</time>
      </trkpt>
      <trkpt lat="43.53195" lon="3.29141">
        <ele>156.2</ele>
        <time>2017-12-09T13:35:23Z</time>
      </trkpt>
      <trkpt lat="43.53191" lon="3.29139">
        <ele>156.5</ele>
        <time>2017-12-09T13:35:25Z</time>
      </trkpt>
      <trkpt lat="43.53188" lon="3.29137">
        <ele>156.8</ele>
        <time>2017-12-09T13:35:27Z</time>
      </trkpt>
      <trkpt lat="43.53184" lon="3.29135">
        <ele>157.3</ele>
        <time>2017-12-09T13:35:29Z</time>
      </trkpt>
      <trkpt lat="43.53182" lon="3.29132">
        <ele>157.8</ele>
        <time>2017-12-09T13:35:31Z</time>
      </trkpt>
      <trkpt lat="43.5318" lon="3.29129">
        <ele>158.4</ele>
        <time>2017-12-09T13:35:33Z</time>
      </trkpt>
      <trkpt lat="43.53179" lon="3.29125">
        <ele>158.9</ele>
        <time>2017-12-09T13:35:35Z</time>
      </trkpt>
      <trkpt lat="43.53178" lon="3.2912">
        <ele>159.3</ele>
        <time>2017-12-09T13:35:38Z</time>
      </trkpt>
      <trkpt lat="43.53177" lon="3.29116">
        <ele>159.7</ele>
        <time>2017-12-09T13:35:40Z</time>
      </trkpt>
      <trkpt lat="43.53175" lon="3.29114">
        <ele>160.2</ele>
        <time>2017-12-09T13:35:42Z</time>
      </trkpt>
      <trkpt lat="43.53171" lon="3.29116">
        <ele>161</ele>
        <time>2017-12-09T13:35:45Z</time>
      </trkpt>
      <trkpt lat="43.53172" lon="3.2912">
        <ele>161</ele>
        <time>2017-12-09T13:35:48Z</time>
      </trkpt>
      <trkpt lat="43.53175" lon="3.29119">
        <ele>161.1</ele>
        <time>2017-12-09T13:35:51Z</time>
      </trkpt>
      <trkpt lat="43.53176" lon="3.29115">
        <ele>161.1</ele>
        <time>2017-12-09T13:35:54Z</time>
      </trkpt>
      <trkpt lat="43.53178" lon="3.29112">
        <ele>161.1</ele>
        <time>2017-12-09T13:35:57Z</time>
      </trkpt>
      <trkpt lat="43.5318" lon="3.29108">
        <ele>161.2</ele>
        <time>2017-12-09T13:35:59Z</time>
      </trkpt>
      <trkpt lat="43.53182" lon="3.29103">
        <ele>161.2</ele>
        <time>2017-12-09T13:36:02Z</time>
      </trkpt>
      <trkpt lat="43.53184" lon="3.291">
        <ele>161.3</ele>
        <time>2017-12-09T13:36:04Z</time>
      </trkpt>
      <trkpt lat="43.53185" lon="3.29095">
        <ele>161.3</ele>
        <time>2017-12-09T13:36:06Z</time>
      </trkpt>
      <trkpt lat="43.53187" lon="3.2909">
        <ele>161.4</ele>
        <time>2017-12-09T13:36:08Z</time>
      </trkpt>
      <trkpt lat="43.53189" lon="3.29085">
        <ele>161.5</ele>
        <time>2017-12-09T13:36:10Z</time>
      </trkpt>
      <trkpt lat="43.5319" lon="3.2908">
        <ele>161.6</ele>
        <time>2017-12-09T13:36:12Z</time>
      </trkpt>
      <trkpt lat="43.53192" lon="3.29074">
        <ele>161.6</ele>
        <time>2017-12-09T13:36:14Z</time>
      </trkpt>
      <trkpt lat="43.53193" lon="3.29069">
        <ele>161.8</ele>
        <time>2017-12-09T13:36:16Z</time>
      </trkpt>
      <trkpt lat="43.53195" lon="3.29064">
        <ele>162.1</ele>
        <time>2017-12-09T13:36:18Z</time>
      </trkpt>
      <trkpt lat="43.53197" lon="3.29059">
        <ele>162.5</ele>
        <time>2017-12-09T13:36:20Z</time>
      </trkpt>
      <trkpt lat="43.53198" lon="3.29054">
        <ele>162.9</ele>
        <time>2017-12-09T13:36:22Z</time>
      </trkpt>
      <trkpt lat="43.532" lon="3.29049">
        <ele>163.2</ele>
        <time>2017-12-09T13:36:24Z</time>
      </trkpt>
      <trkpt lat="43.53203" lon="3.29042">
        <ele>163.3</ele>
        <time>2017-12-09T13:36:26Z</time>
      </trkpt>
      <trkpt lat="43.53205" lon="3.29036">
        <ele>163.4</ele>
        <time>2017-12-09T13:36:28Z</time>
      </trkpt>
      <trkpt lat="43.53206" lon="3.29029">
        <ele>163.5</ele>
        <time>2017-12-09T13:36:30Z</time>
      </trkpt>
      <trkpt lat="43.53206" lon="3.29023">
        <ele>163.6</ele>
        <time>2017-12-09T13:36:32Z</time>
      </trkpt>
      <trkpt lat="43.53207" lon="3.29017">
        <ele>163.7</ele>
        <time>2017-12-09T13:36:34Z</time>
      </trkpt>
      <trkpt lat="43.53208" lon="3.29011">
        <ele>163.8</ele>
        <time>2017-12-09T13:36:36Z</time>
      </trkpt>
      <trkpt lat="43.53209" lon="3.29005">
        <ele>163.9</ele>
        <time>2017-12-09T13:36:38Z</time>
      </trkpt>
      <trkpt lat="43.5321" lon="3.29">
        <ele>164</ele>
        <time>2017-12-09T13:36:40Z</time>
      </trkpt>
      <trkpt lat="43.53211" lon="3.28995">
        <ele>164.3</ele>
        <time>2017-12-09T13:36:42Z</time>
      </trkpt>
      <trkpt lat="43.53212" lon="3.28989">
        <ele>164.8</ele>
        <time>2017-12-09T13:36:44Z</time>
      </trkpt>
      <trkpt lat="43.53213" lon="3.28984">
        <ele>165.3</ele>
        <time>2017-12-09T13:36:46Z</time>
      </trkpt>
      <trkpt lat="43.53215" lon="3.2898">
        <ele>165.9</ele>
        <time>2017-12-09T13:36:48Z</time>
      </trkpt>
      <trkpt lat="43.53216" lon="3.28975">
        <ele>166.3</ele>
        <time>2017-12-09T13:36:50Z</time>
      </trkpt>
      <trkpt lat="43.53218" lon="3.2897">
        <ele>166.8</ele>
        <time>2017-12-09T13:36:52Z</time>
      </trkpt>
      <trkpt lat="43.53219" lon="3.28965">
        <ele>167.4</ele>
        <time>2017-12-09T13:36:54Z</time>
      </trkpt>
      <trkpt lat="43.53221" lon="3.2896">
        <ele>168</ele>
        <time>2017-12-09T13:36:56Z</time>
      </trkpt>
      <trkpt lat="43.53223" lon="3.28956">
        <ele>168.3</ele>
        <time>2017-12-09T13:36:58Z</time>
      </trkpt>
      <trkpt lat="43.53224" lon="3.28951">
        <ele>168.6</ele>
        <time>2017-12-09T13:37:00Z</time>
      </trkpt>
      <trkpt lat="43.53225" lon="3.28946">
        <ele>169</ele>
        <time>2017-12-09T13:37:02Z</time>
      </trkpt>
      <trkpt lat="43.53224" lon="3.28941">
        <ele>169.1</ele>
        <time>2017-12-09T13:37:04Z</time>
      </trkpt>
      <trkpt lat="43.53223" lon="3.28937">
        <ele>169.6</ele>
        <time>2017-12-09T13:37:05Z</time>
      </trkpt>
      <trkpt lat="43.53221" lon="3.28933">
        <ele>169.9</ele>
        <time>2017-12-09T13:37:06Z</time>
      </trkpt>
      <trkpt lat="43.53217" lon="3.28928">
        <ele>170.1</ele>
        <time>2017-12-09T13:37:07Z</time>
      </trkpt>
      <trkpt lat="43.53213" lon="3.28923">
        <ele>170.6</ele>
        <time>2017-12-09T13:37:08Z</time>
      </trkpt>
      <trkpt lat="43.53209" lon="3.28919">
        <ele>171</ele>
        <time>2017-12-09T13:37:09Z</time>
      </trkpt>
      <trkpt lat="43.53205" lon="3.28914">
        <ele>171.3</ele>
        <time>2017-12-09T13:37:10Z</time>
      </trkpt>
      <trkpt lat="43.532" lon="3.2891">
        <ele>171.3</ele>
        <time>2017-12-09T13:37:11Z</time>
      </trkpt>
      <trkpt lat="43.53196" lon="3.28906">
        <ele>171.6</ele>
        <time>2017-12-09T13:37:12Z</time>
      </trkpt>
      <trkpt lat="43.53191" lon="3.28902">
        <ele>171.8</ele>
        <time>2017-12-09T13:37:13Z</time>
      </trkpt>
      <trkpt lat="43.53186" lon="3.28898">
        <ele>171.8</ele>
        <time>2017-12-09T13:37:14Z</time>
      </trkpt>
      <trkpt lat="43.53181" lon="3.28894">
        <ele>171.9</ele>
        <time>2017-12-09T13:37:15Z</time>
      </trkpt>
      <trkpt lat="43.53176" lon="3.2889">
        <ele>172.1</ele>
        <time>2017-12-09T13:37:16Z</time>
      </trkpt>
      <trkpt lat="43.53171" lon="3.28885">
        <ele>172.5</ele>
        <time>2017-12-09T13:37:17Z</time>
      </trkpt>
      <trkpt lat="43.53166" lon="3.28881">
        <ele>172.2</ele>
        <time>2017-12-09T13:37:18Z</time>
      </trkpt>
      <trkpt lat="43.53161" lon="3.28879">
        <ele>171.8</ele>
        <time>2017-12-09T13:37:19Z</time>
      </trkpt>
      <trkpt lat="43.53156" lon="3.28879">
        <ele>171.3</ele>
        <time>2017-12-09T13:37:20Z</time>
      </trkpt>
      <trkpt lat="43.53152" lon="3.28881">
        <ele>170.9</ele>
        <time>2017-12-09T13:37:21Z</time>
      </trkpt>
      <trkpt lat="43.53147" lon="3.28882">
        <ele>170.6</ele>
        <time>2017-12-09T13:37:22Z</time>
      </trkpt>
      <trkpt lat="43.53143" lon="3.28883">
        <ele>170.2</ele>
        <time>2017-12-09T13:37:23Z</time>
      </trkpt>
      <trkpt lat="43.5314" lon="3.28883">
        <ele>170</ele>
        <time>2017-12-09T13:37:24Z</time>
      </trkpt>
      <trkpt lat="43.53136" lon="3.28882">
        <ele>169.8</ele>
        <time>2017-12-09T13:37:25Z</time>
      </trkpt>
      <trkpt lat="43.53133" lon="3.28883">
        <ele>169.6</ele>
        <time>2017-12-09T13:37:26Z</time>
      </trkpt>
      <trkpt lat="43.5313" lon="3.28883">
        <ele>169.5</ele>
        <time>2017-12-09T13:37:27Z</time>
      </trkpt>
      <trkpt lat="43.53127" lon="3.28883">
        <ele>169.5</ele>
        <time>2017-12-09T13:37:28Z</time>
      </trkpt>
      <trkpt lat="43.53124" lon="3.28884">
        <ele>169.3</ele>
        <time>2017-12-09T13:37:29Z</time>
      </trkpt>
      <trkpt lat="43.5312" lon="3.28884">
        <ele>169.2</ele>
        <time>2017-12-09T13:37:30Z</time>
      </trkpt>
      <trkpt lat="43.53117" lon="3.28885">
        <ele>169.4</ele>
        <time>2017-12-09T13:37:31Z</time>
      </trkpt>
      <trkpt lat="43.53114" lon="3.28886">
        <ele>169.4</ele>
        <time>2017-12-09T13:37:32Z</time>
      </trkpt>
      <trkpt lat="43.5311" lon="3.28887">
        <ele>169.4</ele>
        <time>2017-12-09T13:37:33Z</time>
      </trkpt>
      <trkpt lat="43.53107" lon="3.2889">
        <ele>169.5</ele>
        <time>2017-12-09T13:37:34Z</time>
      </trkpt>
      <trkpt lat="43.53104" lon="3.28892">
        <ele>169.6</ele>
        <time>2017-12-09T13:37:35Z</time>
      </trkpt>
      <trkpt lat="43.53101" lon="3.28895">
        <ele>169.7</ele>
        <time>2017-12-09T13:37:36Z</time>
      </trkpt>
      <trkpt lat="43.53098" lon="3.28898">
        <ele>169.8</ele>
        <time>2017-12-09T13:37:37Z</time>
      </trkpt>
      <trkpt lat="43.53095" lon="3.289">
        <ele>169.8</ele>
        <time>2017-12-09T13:37:38Z</time>
      </trkpt>
      <trkpt lat="43.53093" lon="3.28902">
        <ele>169.8</ele>
        <time>2017-12-09T13:37:39Z</time>
      </trkpt>
      <trkpt lat="43.5309" lon="3.28904">
        <ele>169.8</ele>
        <time>2017-12-09T13:37:40Z</time>
      </trkpt>
      <trkpt lat="43.53087" lon="3.28906">
        <ele>169.7</ele>
        <time>2017-12-09T13:37:41Z</time>
      </trkpt>
      <trkpt lat="43.53083" lon="3.28908">
        <ele>169.5</ele>
        <time>2017-12-09T13:37:43Z</time>
      </trkpt>
      <trkpt lat="43.5308" lon="3.2891">
        <ele>169.3</ele>
        <time>2017-12-09T13:37:45Z</time>
      </trkpt>
      <trkpt lat="43.53076" lon="3.28912">
        <ele>169.1</ele>
        <time>2017-12-09T13:37:48Z</time>
      </trkpt>
      <trkpt lat="43.53073" lon="3.28913">
        <ele>168.8</ele>
        <time>2017-12-09T13:37:51Z</time>
      </trkpt>
      <trkpt lat="43.5307" lon="3.28914">
        <ele>168.4</ele>
        <time>2017-12-09T13:37:52Z</time>
      </trkpt>
      <trkpt lat="43.53066" lon="3.28917">
        <ele>167.8</ele>
        <time>2017-12-09T13:37:53Z</time>
      </trkpt>
      <trkpt lat="43.53062" lon="3.2892">
        <ele>167.5</ele>
        <time>2017-12-09T13:37:54Z</time>
      </trkpt>
      <trkpt lat="43.53058" lon="3.28923">
        <ele>167.2</ele>
        <time>2017-12-09T13:37:55Z</time>
      </trkpt>
      <trkpt lat="43.53055" lon="3.28927">
        <ele>166.9</ele>
        <time>2017-12-09T13:37:56Z</time>
      </trkpt>
      <trkpt lat="43.53052" lon="3.28931">
        <ele>166.6</ele>
        <time>2017-12-09T13:37:57Z</time>
      </trkpt>
      <trkpt lat="43.53049" lon="3.28934">
        <ele>166.4</ele>
        <time>2017-12-09T13:37:58Z</time>
      </trkpt>
      <trkpt lat="43.53045" lon="3.28936">
        <ele>166</ele>
        <time>2017-12-09T13:37:59Z</time>
      </trkpt>
      <trkpt lat="43.5304" lon="3.28935">
        <ele>166.3</ele>
        <time>2017-12-09T13:38:00Z</time>
      </trkpt>
      <trkpt lat="43.53036" lon="3.28932">
        <ele>166.7</ele>
        <time>2017-12-09T13:38:01Z</time>
      </trkpt>
      <trkpt lat="43.53033" lon="3.28929">
        <ele>167.2</ele>
        <time>2017-12-09T13:38:02Z</time>
      </trkpt>
      <trkpt lat="43.5303" lon="3.28927">
        <ele>167.1</ele>
        <time>2017-12-09T13:38:03Z</time>
      </trkpt>
      <trkpt lat="43.53027" lon="3.28926">
        <ele>166.9</ele>
        <time>2017-12-09T13:38:04Z</time>
      </trkpt>
      <trkpt lat="43.53023" lon="3.28926">
        <ele>166.7</ele>
        <time>2017-12-09T13:38:05Z</time>
      </trkpt>
      <trkpt lat="43.53019" lon="3.28925">
        <ele>166.5</ele>
        <time>2017-12-09T13:38:06Z</time>
      </trkpt>
      <trkpt lat="43.53015" lon="3.28925">
        <ele>166.3</ele>
        <time>2017-12-09T13:38:07Z</time>
      </trkpt>
      <trkpt lat="43.53012" lon="3.28925">
        <ele>166.2</ele>
        <time>2017-12-09T13:38:08Z</time>
      </trkpt>
      <trkpt lat="43.53008" lon="3.28925">
        <ele>166.1</ele>
        <time>2017-12-09T13:38:09Z</time>
      </trkpt>
      <trkpt lat="43.53005" lon="3.28925">
        <ele>166</ele>
        <time>2017-12-09T13:38:10Z</time>
      </trkpt>
      <trkpt lat="43.53002" lon="3.28925">
        <ele>165.2</ele>
        <time>2017-12-09T13:38:11Z</time>
      </trkpt>
      <trkpt lat="43.52998" lon="3.28924">
        <ele>163.6</ele>
        <time>2017-12-09T13:38:12Z</time>
      </trkpt>
      <trkpt lat="43.52995" lon="3.28924">
        <ele>163</ele>
        <time>2017-12-09T13:38:13Z</time>
      </trkpt>
      <trkpt lat="43.52992" lon="3.28923">
        <ele>163</ele>
        <time>2017-12-09T13:38:14Z</time>
      </trkpt>
      <trkpt lat="43.52989" lon="3.28923">
        <ele>163</ele>
        <time>2017-12-09T13:38:15Z</time>
      </trkpt>
      <trkpt lat="43.52986" lon="3.28922">
        <ele>163</ele>
        <time>2017-12-09T13:38:16Z</time>
      </trkpt>
      <trkpt lat="43.52984" lon="3.28922">
        <ele>163</ele>
        <time>2017-12-09T13:38:17Z</time>
      </trkpt>
      <trkpt lat="43.52981" lon="3.28921">
        <ele>163</ele>
        <time>2017-12-09T13:38:18Z</time>
      </trkpt>
      <trkpt lat="43.52978" lon="3.2892">
        <ele>163</ele>
        <time>2017-12-09T13:38:19Z</time>
      </trkpt>
      <trkpt lat="43.52975" lon="3.2892">
        <ele>163</ele>
        <time>2017-12-09T13:38:20Z</time>
      </trkpt>
      <trkpt lat="43.52972" lon="3.2892">
        <ele>163</ele>
        <time>2017-12-09T13:38:21Z</time>
      </trkpt>
      <trkpt lat="43.52969" lon="3.2892">
        <ele>163</ele>
        <time>2017-12-09T13:38:22Z</time>
      </trkpt>
      <trkpt lat="43.52965" lon="3.28922">
        <ele>163</ele>
        <time>2017-12-09T13:38:24Z</time>
      </trkpt>
      <trkpt lat="43.52961" lon="3.28923">
        <ele>163</ele>
        <time>2017-12-09T13:38:26Z</time>
      </trkpt>
      <trkpt lat="43.52958" lon="3.28922">
        <ele>163</ele>
        <time>2017-12-09T13:38:27Z</time>
      </trkpt>
      <trkpt lat="43.52953" lon="3.28919">
        <ele>163</ele>
        <time>2017-12-09T13:38:29Z</time>
      </trkpt>
      <trkpt lat="43.5295" lon="3.28918">
        <ele>163.2</ele>
        <time>2017-12-09T13:38:30Z</time>
      </trkpt>
      <trkpt lat="43.52947" lon="3.28918">
        <ele>163.4</ele>
        <time>2017-12-09T13:38:31Z</time>
      </trkpt>
      <trkpt lat="43.52944" lon="3.28917">
        <ele>163.5</ele>
        <time>2017-12-09T13:38:32Z</time>
      </trkpt>
      <trkpt lat="43.52939" lon="3.28914">
        <ele>163.8</ele>
        <time>2017-12-09T13:38:34Z</time>
      </trkpt>
      <trkpt lat="43.52936" lon="3.28912">
        <ele>164</ele>
        <time>2017-12-09T13:38:35Z</time>
      </trkpt>
      <trkpt lat="43.52933" lon="3.28909">
        <ele>164.1</ele>
        <time>2017-12-09T13:38:36Z</time>
      </trkpt>
      <trkpt lat="43.52931" lon="3.28906">
        <ele>164.2</ele>
        <time>2017-12-09T13:38:37Z</time>
      </trkpt>
      <trkpt lat="43.52928" lon="3.28904">
        <ele>164.3</ele>
        <time>2017-12-09T13:38:38Z</time>
      </trkpt>
      <trkpt lat="43.52925" lon="3.289">
        <ele>164.5</ele>
        <time>2017-12-09T13:38:39Z</time>
      </trkpt>
      <trkpt lat="43.52923" lon="3.28898">
        <ele>164.5</ele>
        <time>2017-12-09T13:38:40Z</time>
      </trkpt>
      <trkpt lat="43.52921" lon="3.28895">
        <ele>164.5</ele>
        <time>2017-12-09T13:38:41Z</time>
      </trkpt>
      <trkpt lat="43.52918" lon="3.28893">
        <ele>164.5</ele>
        <time>2017-12-09T13:38:42Z</time>
      </trkpt>
      <trkpt lat="43.52916" lon="3.2889">
        <ele>164.6</ele>
        <time>2017-12-09T13:38:43Z</time>
      </trkpt>
      <trkpt lat="43.52914" lon="3.28888">
        <ele>164.6</ele>
        <time>2017-12-09T13:38:44Z</time>
      </trkpt>
      <trkpt lat="43.5291" lon="3.28886">
        <ele>164.6</ele>
        <time>2017-12-09T13:38:45Z</time>
      </trkpt>
      <trkpt lat="43.52906" lon="3.28885">
        <ele>164.4</ele>
        <time>2017-12-09T13:38:46Z</time>
      </trkpt>
      <trkpt lat="43.52901" lon="3.28883">
        <ele>164.4</ele>
        <time>2017-12-09T13:38:47Z</time>
      </trkpt>
      <trkpt lat="43.52895" lon="3.28881">
        <ele>164.2</ele>
        <time>2017-12-09T13:38:48Z</time>
      </trkpt>
      <trkpt lat="43.52888" lon="3.2888">
        <ele>163.9</ele>
        <time>2017-12-09T13:38:49Z</time>
      </trkpt>
      <trkpt lat="43.52881" lon="3.28879">
        <ele>163.4</ele>
        <time>2017-12-09T13:38:50Z</time>
      </trkpt>
      <trkpt lat="43.52874" lon="3.28879">
        <ele>163</ele>
        <time>2017-12-09T13:38:51Z</time>
      </trkpt>
      <trkpt lat="43.52867" lon="3.28878">
        <ele>162.9</ele>
        <time>2017-12-09T13:38:52Z</time>
      </trkpt>
      <trkpt lat="43.52862" lon="3.28876">
        <ele>162.8</ele>
        <time>2017-12-09T13:38:53Z</time>
      </trkpt>
      <trkpt lat="43.52857" lon="3.28873">
        <ele>163</ele>
        <time>2017-12-09T13:38:54Z</time>
      </trkpt>
      <trkpt lat="43.52854" lon="3.28871">
        <ele>163</ele>
        <time>2017-12-09T13:38:55Z</time>
      </trkpt>
      <trkpt lat="43.5285" lon="3.28869">
        <ele>162.9</ele>
        <time>2017-12-09T13:38:57Z</time>
      </trkpt>
      <trkpt lat="43.52846" lon="3.28866">
        <ele>162.9</ele>
        <time>2017-12-09T13:38:59Z</time>
      </trkpt>
      <trkpt lat="43.52843" lon="3.28862">
        <ele>163.1</ele>
        <time>2017-12-09T13:39:01Z</time>
      </trkpt>
      <trkpt lat="43.52841" lon="3.28857">
        <ele>163.3</ele>
        <time>2017-12-09T13:39:03Z</time>
      </trkpt>
      <trkpt lat="43.52838" lon="3.28852">
        <ele>163.5</ele>
        <time>2017-12-09T13:39:05Z</time>
      </trkpt>
      <trkpt lat="43.52837" lon="3.28846">
        <ele>163.5</ele>
        <time>2017-12-09T13:39:07Z</time>
      </trkpt>
      <trkpt lat="43.52836" lon="3.28841">
        <ele>163.8</ele>
        <time>2017-12-09T13:39:09Z</time>
      </trkpt>
      <trkpt lat="43.52835" lon="3.28835">
        <ele>165</ele>
        <time>2017-12-09T13:39:11Z</time>
      </trkpt>
      <trkpt lat="43.52835" lon="3.28832">
        <ele>166.2</ele>
        <time>2017-12-09T13:39:12Z</time>
      </trkpt>
      <trkpt lat="43.52833" lon="3.28827">
        <ele>167.6</ele>
        <time>2017-12-09T13:39:13Z</time>
      </trkpt>
      <trkpt lat="43.52831" lon="3.28823">
        <ele>169.3</ele>
        <time>2017-12-09T13:39:14Z</time>
      </trkpt>
      <trkpt lat="43.52828" lon="3.28819">
        <ele>171.1</ele>
        <time>2017-12-09T13:39:15Z</time>
      </trkpt>
      <trkpt lat="43.52825" lon="3.28816">
        <ele>173</ele>
        <time>2017-12-09T13:39:16Z</time>
      </trkpt>
      <trkpt lat="43.52822" lon="3.28811">
        <ele>174.9</ele>
        <time>2017-12-09T13:39:17Z</time>
      </trkpt>
      <trkpt lat="43.5282" lon="3.28807">
        <ele>176.6</ele>
        <time>2017-12-09T13:39:18Z</time>
      </trkpt>
      <trkpt lat="43.52818" lon="3.28803">
        <ele>178.1</ele>
        <time>2017-12-09T13:39:19Z</time>
      </trkpt>
      <trkpt lat="43.52818" lon="3.28799">
        <ele>179</ele>
        <time>2017-12-09T13:39:20Z</time>
      </trkpt>
      <trkpt lat="43.52819" lon="3.28793">
        <ele>179</ele>
        <time>2017-12-09T13:39:22Z</time>
      </trkpt>
      <trkpt lat="43.52822" lon="3.28788">
        <ele>179</ele>
        <time>2017-12-09T13:39:24Z</time>
      </trkpt>
      <trkpt lat="43.52825" lon="3.28783">
        <ele>179</ele>
        <time>2017-12-09T13:39:26Z</time>
      </trkpt>
      <trkpt lat="43.52827" lon="3.2878">
        <ele>179</ele>
        <time>2017-12-09T13:39:28Z</time>
      </trkpt>
      <trkpt lat="43.52828" lon="3.28776">
        <ele>179</ele>
        <time>2017-12-09T13:39:31Z</time>
      </trkpt>
      <trkpt lat="43.52827" lon="3.28772">
        <ele>179</ele>
        <time>2017-12-09T13:39:46Z</time>
      </trkpt>
      <trkpt lat="43.52827" lon="3.28766">
        <ele>178.8</ele>
        <time>2017-12-09T13:39:48Z</time>
      </trkpt>
      <trkpt lat="43.52826" lon="3.28759">
        <ele>177.7</ele>
        <time>2017-12-09T13:39:50Z</time>
      </trkpt>
      <trkpt lat="43.52826" lon="3.28755">
        <ele>177.1</ele>
        <time>2017-12-09T13:39:51Z</time>
      </trkpt>
      <trkpt lat="43.52825" lon="3.28748">
        <ele>176.3</ele>
        <time>2017-12-09T13:39:53Z</time>
      </trkpt>
      <trkpt lat="43.52824" lon="3.28741">
        <ele>175.4</ele>
        <time>2017-12-09T13:39:55Z</time>
      </trkpt>
      <trkpt lat="43.52823" lon="3.28736">
        <ele>174.7</ele>
        <time>2017-12-09T13:39:57Z</time>
      </trkpt>
      <trkpt lat="43.52822" lon="3.28732">
        <ele>173.9</ele>
        <time>2017-12-09T13:39:59Z</time>
      </trkpt>
      <trkpt lat="43.5282" lon="3.28728">
        <ele>173.3</ele>
        <time>2017-12-09T13:40:01Z</time>
      </trkpt>
      <trkpt lat="43.52819" lon="3.28723">
        <ele>172.6</ele>
        <time>2017-12-09T13:40:03Z</time>
      </trkpt>
      <trkpt lat="43.52817" lon="3.28719">
        <ele>172.1</ele>
        <time>2017-12-09T13:40:05Z</time>
      </trkpt>
      <trkpt lat="43.52816" lon="3.28715">
        <ele>171.7</ele>
        <time>2017-12-09T13:40:07Z</time>
      </trkpt>
      <trkpt lat="43.52813" lon="3.28711">
        <ele>171.3</ele>
        <time>2017-12-09T13:40:13Z</time>
      </trkpt>
      <trkpt lat="43.52811" lon="3.28708">
        <ele>170.7</ele>
        <time>2017-12-09T13:40:16Z</time>
      </trkpt>
      <trkpt lat="43.52808" lon="3.28702">
        <ele>169.8</ele>
        <time>2017-12-09T13:40:24Z</time>
      </trkpt>
      <trkpt lat="43.52806" lon="3.28699">
        <ele>169.3</ele>
        <time>2017-12-09T13:40:26Z</time>
      </trkpt>
      <trkpt lat="43.52802" lon="3.28699">
        <ele>168.4</ele>
        <time>2017-12-09T13:40:28Z</time>
      </trkpt>
      <trkpt lat="43.52797" lon="3.28701">
        <ele>167.5</ele>
        <time>2017-12-09T13:40:30Z</time>
      </trkpt>
      <trkpt lat="43.52794" lon="3.28702">
        <ele>167</ele>
        <time>2017-12-09T13:40:32Z</time>
      </trkpt>
      <trkpt lat="43.5279" lon="3.28704">
        <ele>166.9</ele>
        <time>2017-12-09T13:40:34Z</time>
      </trkpt>
      <trkpt lat="43.52786" lon="3.28704">
        <ele>167</ele>
        <time>2017-12-09T13:40:36Z</time>
      </trkpt>
      <trkpt lat="43.52782" lon="3.28704">
        <ele>167.2</ele>
        <time>2017-12-09T13:40:38Z</time>
      </trkpt>
      <trkpt lat="43.52778" lon="3.28703">
        <ele>167.3</ele>
        <time>2017-12-09T13:40:40Z</time>
      </trkpt>
      <trkpt lat="43.52775" lon="3.28701">
        <ele>167.3</ele>
        <time>2017-12-09T13:40:42Z</time>
      </trkpt>
      <trkpt lat="43.52771" lon="3.28699">
        <ele>167.3</ele>
        <time>2017-12-09T13:40:44Z</time>
      </trkpt>
      <trkpt lat="43.52767" lon="3.28698">
        <ele>167.4</ele>
        <time>2017-12-09T13:40:46Z</time>
      </trkpt>
      <trkpt lat="43.52764" lon="3.28697">
        <ele>167.5</ele>
        <time>2017-12-09T13:40:48Z</time>
      </trkpt>
      <trkpt lat="43.5276" lon="3.28697">
        <ele>167.5</ele>
        <time>2017-12-09T13:40:50Z</time>
      </trkpt>
      <trkpt lat="43.52756" lon="3.28697">
        <ele>167.5</ele>
        <time>2017-12-09T13:40:52Z</time>
      </trkpt>
      <trkpt lat="43.52752" lon="3.28698">
        <ele>167.4</ele>
        <time>2017-12-09T13:40:54Z</time>
      </trkpt>
      <trkpt lat="43.52748" lon="3.28699">
        <ele>167.3</ele>
        <time>2017-12-09T13:40:56Z</time>
      </trkpt>
      <trkpt lat="43.52743" lon="3.28701">
        <ele>167.1</ele>
        <time>2017-12-09T13:40:58Z</time>
      </trkpt>
      <trkpt lat="43.52739" lon="3.28704">
        <ele>166.9</ele>
        <time>2017-12-09T13:41:00Z</time>
      </trkpt>
      <trkpt lat="43.52736" lon="3.28707">
        <ele>166.7</ele>
        <time>2017-12-09T13:41:02Z</time>
      </trkpt>
      <trkpt lat="43.52734" lon="3.28711">
        <ele>166.4</ele>
        <time>2017-12-09T13:41:04Z</time>
      </trkpt>
      <trkpt lat="43.52731" lon="3.28716">
        <ele>166.1</ele>
        <time>2017-12-09T13:41:06Z</time>
      </trkpt>
      <trkpt lat="43.5273" lon="3.2872">
        <ele>166</ele>
        <time>2017-12-09T13:41:08Z</time>
      </trkpt>
      <trkpt lat="43.52728" lon="3.28726">
        <ele>165.9</ele>
        <time>2017-12-09T13:41:10Z</time>
      </trkpt>
      <trkpt lat="43.52727" lon="3.28731">
        <ele>165.9</ele>
        <time>2017-12-09T13:41:12Z</time>
      </trkpt>
      <trkpt lat="43.52726" lon="3.28737">
        <ele>166</ele>
        <time>2017-12-09T13:41:14Z</time>
      </trkpt>
      <trkpt lat="43.52726" lon="3.28742">
        <ele>166</ele>
        <time>2017-12-09T13:41:16Z</time>
      </trkpt>
      <trkpt lat="43.52725" lon="3.28747">
        <ele>166</ele>
        <time>2017-12-09T13:41:18Z</time>
      </trkpt>
      <trkpt lat="43.52723" lon="3.28751">
        <ele>166.3</ele>
        <time>2017-12-09T13:41:20Z</time>
      </trkpt>
      <trkpt lat="43.52721" lon="3.28756">
        <ele>166.9</ele>
        <time>2017-12-09T13:41:22Z</time>
      </trkpt>
      <trkpt lat="43.52722" lon="3.28762">
        <ele>167.6</ele>
        <time>2017-12-09T13:41:24Z</time>
      </trkpt>
      <trkpt lat="43.52721" lon="3.28767">
        <ele>168.3</ele>
        <time>2017-12-09T13:41:26Z</time>
      </trkpt>
      <trkpt lat="43.52722" lon="3.28773">
        <ele>168.9</ele>
        <time>2017-12-09T13:41:28Z</time>
      </trkpt>
      <trkpt lat="43.52722" lon="3.28778">
        <ele>169.1</ele>
        <time>2017-12-09T13:41:30Z</time>
      </trkpt>
      <trkpt lat="43.52722" lon="3.28783">
        <ele>169.1</ele>
        <time>2017-12-09T13:41:32Z</time>
      </trkpt>
      <trkpt lat="43.52723" lon="3.28788">
        <ele>169.1</ele>
        <time>2017-12-09T13:41:34Z</time>
      </trkpt>
      <trkpt lat="43.52725" lon="3.28795">
        <ele>168.8</ele>
        <time>2017-12-09T13:41:36Z</time>
      </trkpt>
      <trkpt lat="43.52726" lon="3.288">
        <ele>168.5</ele>
        <time>2017-12-09T13:41:37Z</time>
      </trkpt>
      <trkpt lat="43.52727" lon="3.28805">
        <ele>168.1</ele>
        <time>2017-12-09T13:41:38Z</time>
      </trkpt>
      <trkpt lat="43.52729" lon="3.28811">
        <ele>167.4</ele>
        <time>2017-12-09T13:41:39Z</time>
      </trkpt>
      <trkpt lat="43.5273" lon="3.28818">
        <ele>166.6</ele>
        <time>2017-12-09T13:41:40Z</time>
      </trkpt>
      <trkpt lat="43.52731" lon="3.28826">
        <ele>165.5</ele>
        <time>2017-12-09T13:41:41Z</time>
      </trkpt>
      <trkpt lat="43.52731" lon="3.28834">
        <ele>164.1</ele>
        <time>2017-12-09T13:41:42Z</time>
      </trkpt>
      <trkpt lat="43.52733" lon="3.28843">
        <ele>162.7</ele>
        <time>2017-12-09T13:41:43Z</time>
      </trkpt>
      <trkpt lat="43.52733" lon="3.28853">
        <ele>162.1</ele>
        <time>2017-12-09T13:41:44Z</time>
      </trkpt>
      <trkpt lat="43.52731" lon="3.28862">
        <ele>161.6</ele>
        <time>2017-12-09T13:41:45Z</time>
      </trkpt>
      <trkpt lat="43.52731" lon="3.28871">
        <ele>161.5</ele>
        <time>2017-12-09T13:41:46Z</time>
      </trkpt>
      <trkpt lat="43.52731" lon="3.28877">
        <ele>161.5</ele>
        <time>2017-12-09T13:41:47Z</time>
      </trkpt>
      <trkpt lat="43.5273" lon="3.28881">
        <ele>161.7</ele>
        <time>2017-12-09T13:41:48Z</time>
      </trkpt>
      <trkpt lat="43.52727" lon="3.28884">
        <ele>161.9</ele>
        <time>2017-12-09T13:41:49Z</time>
      </trkpt>
      <trkpt lat="43.52724" lon="3.28889">
        <ele>162.2</ele>
        <time>2017-12-09T13:41:50Z</time>
      </trkpt>
      <trkpt lat="43.5272" lon="3.28894">
        <ele>162.5</ele>
        <time>2017-12-09T13:41:51Z</time>
      </trkpt>
      <trkpt lat="43.52716" lon="3.28899">
        <ele>162.6</ele>
        <time>2017-12-09T13:41:52Z</time>
      </trkpt>
      <trkpt lat="43.52711" lon="3.28904">
        <ele>163</ele>
        <time>2017-12-09T13:41:53Z</time>
      </trkpt>
      <trkpt lat="43.52707" lon="3.28907">
        <ele>163.3</ele>
        <time>2017-12-09T13:41:54Z</time>
      </trkpt>
      <trkpt lat="43.52702" lon="3.28911">
        <ele>163.6</ele>
        <time>2017-12-09T13:41:55Z</time>
      </trkpt>
      <trkpt lat="43.52699" lon="3.28916">
        <ele>163.6</ele>
        <time>2017-12-09T13:41:56Z</time>
      </trkpt>
      <trkpt lat="43.52695" lon="3.28921">
        <ele>163.5</ele>
        <time>2017-12-09T13:41:57Z</time>
      </trkpt>
      <trkpt lat="43.52691" lon="3.28925">
        <ele>163.3</ele>
        <time>2017-12-09T13:41:58Z</time>
      </trkpt>
      <trkpt lat="43.52688" lon="3.28928">
        <ele>163.3</ele>
        <time>2017-12-09T13:41:59Z</time>
      </trkpt>
      <trkpt lat="43.52686" lon="3.28931">
        <ele>163.2</ele>
        <time>2017-12-09T13:42:00Z</time>
      </trkpt>
      <trkpt lat="43.52685" lon="3.28937">
        <ele>163</ele>
        <time>2017-12-09T13:42:02Z</time>
      </trkpt>
      <trkpt lat="43.52687" lon="3.28941">
        <ele>163</ele>
        <time>2017-12-09T13:42:04Z</time>
      </trkpt>
      <trkpt lat="43.52691" lon="3.28945">
        <ele>163</ele>
        <time>2017-12-09T13:42:06Z</time>
      </trkpt>
      <trkpt lat="43.52694" lon="3.28949">
        <ele>163</ele>
        <time>2017-12-09T13:42:08Z</time>
      </trkpt>
      <trkpt lat="43.52698" lon="3.28952">
        <ele>163</ele>
        <time>2017-12-09T13:42:10Z</time>
      </trkpt>
      <trkpt lat="43.52702" lon="3.28953">
        <ele>163</ele>
        <time>2017-12-09T13:42:12Z</time>
      </trkpt>
      <trkpt lat="43.52705" lon="3.28956">
        <ele>163</ele>
        <time>2017-12-09T13:42:14Z</time>
      </trkpt>
      <trkpt lat="43.52709" lon="3.2896">
        <ele>163</ele>
        <time>2017-12-09T13:42:16Z</time>
      </trkpt>
      <trkpt lat="43.5271" lon="3.28965">
        <ele>163</ele>
        <time>2017-12-09T13:42:18Z</time>
      </trkpt>
      <trkpt lat="43.52708" lon="3.28971">
        <ele>163.2</ele>
        <time>2017-12-09T13:42:20Z</time>
      </trkpt>
      <trkpt lat="43.52707" lon="3.28976">
        <ele>163.5</ele>
        <time>2017-12-09T13:42:22Z</time>
      </trkpt>
      <trkpt lat="43.52705" lon="3.28981">
        <ele>163.7</ele>
        <time>2017-12-09T13:42:24Z</time>
      </trkpt>
      <trkpt lat="43.52704" lon="3.28986">
        <ele>164.2</ele>
        <time>2017-12-09T13:42:26Z</time>
      </trkpt>
      <trkpt lat="43.52703" lon="3.28992">
        <ele>164.8</ele>
        <time>2017-12-09T13:42:28Z</time>
      </trkpt>
      <trkpt lat="43.52702" lon="3.28997">
        <ele>165.4</ele>
        <time>2017-12-09T13:42:30Z</time>
      </trkpt>
      <trkpt lat="43.52701" lon="3.29002">
        <ele>166</ele>
        <time>2017-12-09T13:42:32Z</time>
      </trkpt>
      <trkpt lat="43.52701" lon="3.29007">
        <ele>166.5</ele>
        <time>2017-12-09T13:42:34Z</time>
      </trkpt>
      <trkpt lat="43.527" lon="3.29013">
        <ele>167</ele>
        <time>2017-12-09T13:42:36Z</time>
      </trkpt>
      <trkpt lat="43.527" lon="3.29018">
        <ele>167.3</ele>
        <time>2017-12-09T13:42:38Z</time>
      </trkpt>
      <trkpt lat="43.527" lon="3.29023">
        <ele>167.6</ele>
        <time>2017-12-09T13:42:40Z</time>
      </trkpt>
      <trkpt lat="43.52701" lon="3.29028">
        <ele>167.9</ele>
        <time>2017-12-09T13:42:42Z</time>
      </trkpt>
      <trkpt lat="43.527" lon="3.29032">
        <ele>168.2</ele>
        <time>2017-12-09T13:42:44Z</time>
      </trkpt>
      <trkpt lat="43.527" lon="3.29036">
        <ele>168.4</ele>
        <time>2017-12-09T13:42:46Z</time>
      </trkpt>
      <trkpt lat="43.527" lon="3.2904">
        <ele>168.7</ele>
        <time>2017-12-09T13:42:48Z</time>
      </trkpt>
      <trkpt lat="43.52699" lon="3.29044">
        <ele>168.8</ele>
        <time>2017-12-09T13:42:50Z</time>
      </trkpt>
      <trkpt lat="43.52698" lon="3.29048">
        <ele>168.9</ele>
        <time>2017-12-09T13:42:52Z</time>
      </trkpt>
      <trkpt lat="43.52697" lon="3.29053">
        <ele>169</ele>
        <time>2017-12-09T13:42:54Z</time>
      </trkpt>
      <trkpt lat="43.52697" lon="3.29057">
        <ele>169.2</ele>
        <time>2017-12-09T13:42:56Z</time>
      </trkpt>
      <trkpt lat="43.52697" lon="3.29062">
        <ele>169.4</ele>
        <time>2017-12-09T13:42:58Z</time>
      </trkpt>
      <trkpt lat="43.52696" lon="3.29066">
        <ele>169.6</ele>
        <time>2017-12-09T13:43:00Z</time>
      </trkpt>
      <trkpt lat="43.52696" lon="3.29071">
        <ele>169.9</ele>
        <time>2017-12-09T13:43:02Z</time>
      </trkpt>
      <trkpt lat="43.52695" lon="3.29076">
        <ele>170.3</ele>
        <time>2017-12-09T13:43:05Z</time>
      </trkpt>
      <trkpt lat="43.52694" lon="3.2908">
        <ele>170.6</ele>
        <time>2017-12-09T13:43:07Z</time>
      </trkpt>
      <trkpt lat="43.52693" lon="3.29084">
        <ele>171</ele>
        <time>2017-12-09T13:43:10Z</time>
      </trkpt>
      <trkpt lat="43.52692" lon="3.29089">
        <ele>171.4</ele>
        <time>2017-12-09T13:43:13Z</time>
      </trkpt>
      <trkpt lat="43.5269" lon="3.29096">
        <ele>171.7</ele>
        <time>2017-12-09T13:43:30Z</time>
      </trkpt>
      <trkpt lat="43.5269" lon="3.29099">
        <ele>171.9</ele>
        <time>2017-12-09T13:43:33Z</time>
      </trkpt>
      <trkpt lat="43.5269" lon="3.29108">
        <ele>172.6</ele>
        <time>2017-12-09T13:43:43Z</time>
      </trkpt>
      <trkpt lat="43.52692" lon="3.29113">
        <ele>172.4</ele>
        <time>2017-12-09T13:43:47Z</time>
      </trkpt>
      <trkpt lat="43.52693" lon="3.29118">
        <ele>172.2</ele>
        <time>2017-12-09T13:43:51Z</time>
      </trkpt>
      <trkpt lat="43.52694" lon="3.29121">
        <ele>172.2</ele>
        <time>2017-12-09T13:43:54Z</time>
      </trkpt>
      <trkpt lat="43.52695" lon="3.29125">
        <ele>172.3</ele>
        <time>2017-12-09T13:43:57Z</time>
      </trkpt>
      <trkpt lat="43.527" lon="3.29138">
        <ele>172</ele>
        <time>2017-12-09T13:46:42Z</time>
      </trkpt>
      <trkpt lat="43.527" lon="3.29142">
        <ele>172</ele>
        <time>2017-12-09T13:46:45Z</time>
      </trkpt>
      <trkpt lat="43.527" lon="3.29147">
        <ele>171.9</ele>
        <time>2017-12-09T13:46:47Z</time>
      </trkpt>
      <trkpt lat="43.52701" lon="3.29151">
        <ele>171.4</ele>
        <time>2017-12-09T13:46:52Z</time>
      </trkpt>
      <trkpt lat="43.52703" lon="3.29154">
        <ele>170.8</ele>
        <time>2017-12-09T13:46:57Z</time>
      </trkpt>
      <trkpt lat="43.52705" lon="3.29157">
        <ele>170.3</ele>
        <time>2017-12-09T13:47:00Z</time>
      </trkpt>
      <trkpt lat="43.52707" lon="3.2916">
        <ele>169.7</ele>
        <time>2017-12-09T13:47:02Z</time>
      </trkpt>
      <trkpt lat="43.5271" lon="3.29164">
        <ele>168.9</ele>
        <time>2017-12-09T13:47:04Z</time>
      </trkpt>
      <trkpt lat="43.52714" lon="3.29168">
        <ele>168.1</ele>
        <time>2017-12-09T13:47:06Z</time>
      </trkpt>
      <trkpt lat="43.52715" lon="3.29171">
        <ele>167.7</ele>
        <time>2017-12-09T13:47:07Z</time>
      </trkpt>
      <trkpt lat="43.52718" lon="3.29174">
        <ele>167.2</ele>
        <time>2017-12-09T13:47:08Z</time>
      </trkpt>
      <trkpt lat="43.52721" lon="3.29175">
        <ele>166.6</ele>
        <time>2017-12-09T13:47:09Z</time>
      </trkpt>
      <trkpt lat="43.52724" lon="3.29176">
        <ele>165.9</ele>
        <time>2017-12-09T13:47:10Z</time>
      </trkpt>
      <trkpt lat="43.52727" lon="3.29177">
        <ele>165.3</ele>
        <time>2017-12-09T13:47:11Z</time>
      </trkpt>
      <trkpt lat="43.52731" lon="3.29179">
        <ele>164.7</ele>
        <time>2017-12-09T13:47:12Z</time>
      </trkpt>
      <trkpt lat="43.52735" lon="3.29182">
        <ele>163.8</ele>
        <time>2017-12-09T13:47:13Z</time>
      </trkpt>
      <trkpt lat="43.52739" lon="3.29185">
        <ele>162.7</ele>
        <time>2017-12-09T13:47:14Z</time>
      </trkpt>
      <trkpt lat="43.52743" lon="3.29188">
        <ele>161.9</ele>
        <time>2017-12-09T13:47:15Z</time>
      </trkpt>
      <trkpt lat="43.52745" lon="3.29191">
        <ele>161.4</ele>
        <time>2017-12-09T13:47:16Z</time>
      </trkpt>
      <trkpt lat="43.5275" lon="3.2919">
        <ele>160.5</ele>
        <time>2017-12-09T13:47:18Z</time>
      </trkpt>
      <trkpt lat="43.52752" lon="3.29188">
        <ele>159.9</ele>
        <time>2017-12-09T13:47:19Z</time>
      </trkpt>
      <trkpt lat="43.52757" lon="3.29188">
        <ele>158.4</ele>
        <time>2017-12-09T13:47:21Z</time>
      </trkpt>
      <trkpt lat="43.5276" lon="3.2919">
        <ele>157.7</ele>
        <time>2017-12-09T13:47:23Z</time>
      </trkpt>
      <trkpt lat="43.52763" lon="3.29191">
        <ele>157.2</ele>
        <time>2017-12-09T13:47:25Z</time>
      </trkpt>
      <trkpt lat="43.52766" lon="3.29191">
        <ele>156.6</ele>
        <time>2017-12-09T13:47:27Z</time>
      </trkpt>
      <trkpt lat="43.52771" lon="3.29189">
        <ele>155.6</ele>
        <time>2017-12-09T13:47:29Z</time>
      </trkpt>
      <trkpt lat="43.52774" lon="3.29185">
        <ele>154.7</ele>
        <time>2017-12-09T13:47:31Z</time>
      </trkpt>
      <trkpt lat="43.52779" lon="3.29183">
        <ele>153.6</ele>
        <time>2017-12-09T13:47:33Z</time>
      </trkpt>
      <trkpt lat="43.52784" lon="3.29183">
        <ele>152.1</ele>
        <time>2017-12-09T13:47:35Z</time>
      </trkpt>
      <trkpt lat="43.52789" lon="3.29183">
        <ele>151.2</ele>
        <time>2017-12-09T13:47:37Z</time>
      </trkpt>
      <trkpt lat="43.52794" lon="3.29185">
        <ele>150.3</ele>
        <time>2017-12-09T13:47:39Z</time>
      </trkpt>
      <trkpt lat="43.52797" lon="3.29187">
        <ele>149.7</ele>
        <time>2017-12-09T13:47:40Z</time>
      </trkpt>
      <trkpt lat="43.528" lon="3.2919">
        <ele>149</ele>
        <time>2017-12-09T13:47:41Z</time>
      </trkpt>
      <trkpt lat="43.52802" lon="3.29194">
        <ele>148.4</ele>
        <time>2017-12-09T13:47:42Z</time>
      </trkpt>
      <trkpt lat="43.52805" lon="3.29197">
        <ele>147.5</ele>
        <time>2017-12-09T13:47:44Z</time>
      </trkpt>
      <trkpt lat="43.52808" lon="3.29195">
        <ele>147</ele>
        <time>2017-12-09T13:47:45Z</time>
      </trkpt>
      <trkpt lat="43.52811" lon="3.29192">
        <ele>146.5</ele>
        <time>2017-12-09T13:47:46Z</time>
      </trkpt>
      <trkpt lat="43.52813" lon="3.29188">
        <ele>146</ele>
        <time>2017-12-09T13:47:47Z</time>
      </trkpt>
      <trkpt lat="43.52814" lon="3.29183">
        <ele>145.5</ele>
        <time>2017-12-09T13:47:48Z</time>
      </trkpt>
      <trkpt lat="43.52814" lon="3.29178">
        <ele>145.3</ele>
        <time>2017-12-09T13:47:49Z</time>
      </trkpt>
      <trkpt lat="43.52815" lon="3.29174">
        <ele>145.2</ele>
        <time>2017-12-09T13:47:50Z</time>
      </trkpt>
      <trkpt lat="43.52819" lon="3.29171">
        <ele>144.3</ele>
        <time>2017-12-09T13:47:52Z</time>
      </trkpt>
      <trkpt lat="43.52823" lon="3.29167">
        <ele>143.7</ele>
        <time>2017-12-09T13:47:54Z</time>
      </trkpt>
      <trkpt lat="43.52825" lon="3.29163">
        <ele>143.4</ele>
        <time>2017-12-09T13:47:55Z</time>
      </trkpt>
      <trkpt lat="43.52826" lon="3.29159">
        <ele>143.1</ele>
        <time>2017-12-09T13:47:56Z</time>
      </trkpt>
      <trkpt lat="43.52827" lon="3.29155">
        <ele>142.8</ele>
        <time>2017-12-09T13:47:57Z</time>
      </trkpt>
      <trkpt lat="43.52828" lon="3.29151">
        <ele>142.6</ele>
        <time>2017-12-09T13:47:58Z</time>
      </trkpt>
      <trkpt lat="43.52832" lon="3.29146">
        <ele>141.8</ele>
        <time>2017-12-09T13:48:00Z</time>
      </trkpt>
      <trkpt lat="43.52837" lon="3.29144">
        <ele>140.9</ele>
        <time>2017-12-09T13:48:01Z</time>
      </trkpt>
      <trkpt lat="43.5284" lon="3.29144">
        <ele>140.4</ele>
        <time>2017-12-09T13:48:02Z</time>
      </trkpt>
      <trkpt lat="43.52843" lon="3.29145">
        <ele>140</ele>
        <time>2017-12-09T13:48:03Z</time>
      </trkpt>
      <trkpt lat="43.52846" lon="3.29148">
        <ele>139.4</ele>
        <time>2017-12-09T13:48:04Z</time>
      </trkpt>
      <trkpt lat="43.52849" lon="3.29152">
        <ele>139.3</ele>
        <time>2017-12-09T13:48:05Z</time>
      </trkpt>
      <trkpt lat="43.52849" lon="3.29157">
        <ele>139.3</ele>
        <time>2017-12-09T13:48:06Z</time>
      </trkpt>
      <trkpt lat="43.5285" lon="3.2916">
        <ele>139.2</ele>
        <time>2017-12-09T13:48:07Z</time>
      </trkpt>
      <trkpt lat="43.52852" lon="3.29166">
        <ele>138.7</ele>
        <time>2017-12-09T13:48:09Z</time>
      </trkpt>
      <trkpt lat="43.52854" lon="3.29169">
        <ele>138.3</ele>
        <time>2017-12-09T13:48:10Z</time>
      </trkpt>
      <trkpt lat="43.52858" lon="3.29173">
        <ele>137.8</ele>
        <time>2017-12-09T13:48:12Z</time>
      </trkpt>
      <trkpt lat="43.5286" lon="3.29176">
        <ele>137.5</ele>
        <time>2017-12-09T13:48:13Z</time>
      </trkpt>
      <trkpt lat="43.52863" lon="3.2918">
        <ele>137</ele>
        <time>2017-12-09T13:48:14Z</time>
      </trkpt>
      <trkpt lat="43.52865" lon="3.29183">
        <ele>136.7</ele>
        <time>2017-12-09T13:48:15Z</time>
      </trkpt>
      <trkpt lat="43.52867" lon="3.29186">
        <ele>136.3</ele>
        <time>2017-12-09T13:48:16Z</time>
      </trkpt>
      <trkpt lat="43.5287" lon="3.29187">
        <ele>136.1</ele>
        <time>2017-12-09T13:48:18Z</time>
      </trkpt>
      <trkpt lat="43.52872" lon="3.2919">
        <ele>136</ele>
        <time>2017-12-09T13:48:20Z</time>
      </trkpt>
      <trkpt lat="43.52872" lon="3.29194">
        <ele>135.8</ele>
        <time>2017-12-09T13:48:22Z</time>
      </trkpt>
      <trkpt lat="43.52874" lon="3.29197">
        <ele>135.5</ele>
        <time>2017-12-09T13:48:24Z</time>
      </trkpt>
      <trkpt lat="43.52877" lon="3.29199">
        <ele>135.3</ele>
        <time>2017-12-09T13:48:27Z</time>
      </trkpt>
      <trkpt lat="43.52879" lon="3.29202">
        <ele>135</ele>
        <time>2017-12-09T13:48:29Z</time>
      </trkpt>
      <trkpt lat="43.52882" lon="3.29203">
        <ele>134.7</ele>
        <time>2017-12-09T13:48:31Z</time>
      </trkpt>
      <trkpt lat="43.52885" lon="3.29204">
        <ele>134.3</ele>
        <time>2017-12-09T13:48:33Z</time>
      </trkpt>
      <trkpt lat="43.52888" lon="3.29206">
        <ele>134</ele>
        <time>2017-12-09T13:48:35Z</time>
      </trkpt>
      <trkpt lat="43.52891" lon="3.29208">
        <ele>133.8</ele>
        <time>2017-12-09T13:48:37Z</time>
      </trkpt>
      <trkpt lat="43.52894" lon="3.2921">
        <ele>133.5</ele>
        <time>2017-12-09T13:48:39Z</time>
      </trkpt>
      <trkpt lat="43.52897" lon="3.2921">
        <ele>133.2</ele>
        <time>2017-12-09T13:48:40Z</time>
      </trkpt>
      <trkpt lat="43.529" lon="3.29212">
        <ele>133</ele>
        <time>2017-12-09T13:48:41Z</time>
      </trkpt>
      <trkpt lat="43.52902" lon="3.29216">
        <ele>132.7</ele>
        <time>2017-12-09T13:48:43Z</time>
      </trkpt>
      <trkpt lat="43.52902" lon="3.29221">
        <ele>132.5</ele>
        <time>2017-12-09T13:48:45Z</time>
      </trkpt>
      <trkpt lat="43.52905" lon="3.29226">
        <ele>132.2</ele>
        <time>2017-12-09T13:48:47Z</time>
      </trkpt>
      <trkpt lat="43.52908" lon="3.29227">
        <ele>131.9</ele>
        <time>2017-12-09T13:48:49Z</time>
      </trkpt>
      <trkpt lat="43.52912" lon="3.29223">
        <ele>132</ele>
        <time>2017-12-09T13:48:51Z</time>
      </trkpt>
      <trkpt lat="43.52915" lon="3.29222">
        <ele>131.9</ele>
        <time>2017-12-09T13:48:53Z</time>
      </trkpt>
      <trkpt lat="43.52918" lon="3.29225">
        <ele>131.9</ele>
        <time>2017-12-09T13:48:55Z</time>
      </trkpt>
      <trkpt lat="43.52917" lon="3.2923">
        <ele>131.8</ele>
        <time>2017-12-09T13:48:57Z</time>
      </trkpt>
      <trkpt lat="43.52919" lon="3.29234">
        <ele>131.8</ele>
        <time>2017-12-09T13:49:00Z</time>
      </trkpt>
      <trkpt lat="43.52923" lon="3.29235">
        <ele>131.9</ele>
        <time>2017-12-09T13:49:03Z</time>
      </trkpt>
      <trkpt lat="43.52925" lon="3.29237">
        <ele>132</ele>
        <time>2017-12-09T13:49:07Z</time>
      </trkpt>
      <trkpt lat="43.52924" lon="3.29241">
        <ele>132</ele>
        <time>2017-12-09T13:49:09Z</time>
      </trkpt>
      <trkpt lat="43.52923" lon="3.29245">
        <ele>131.3</ele>
        <time>2017-12-09T13:49:11Z</time>
      </trkpt>
      <trkpt lat="43.52922" lon="3.2925">
        <ele>130.6</ele>
        <time>2017-12-09T13:49:14Z</time>
      </trkpt>
      <trkpt lat="43.5292" lon="3.29255">
        <ele>129.8</ele>
        <time>2017-12-09T13:49:17Z</time>
      </trkpt>
      <trkpt lat="43.52919" lon="3.2926">
        <ele>129.2</ele>
        <time>2017-12-09T13:49:18Z</time>
      </trkpt>
      <trkpt lat="43.52918" lon="3.29265">
        <ele>128.6</ele>
        <time>2017-12-09T13:49:19Z</time>
      </trkpt>
      <trkpt lat="43.52918" lon="3.29271">
        <ele>128.1</ele>
        <time>2017-12-09T13:49:20Z</time>
      </trkpt>
      <trkpt lat="43.52918" lon="3.29276">
        <ele>127.7</ele>
        <time>2017-12-09T13:49:21Z</time>
      </trkpt>
      <trkpt lat="43.52919" lon="3.2928">
        <ele>127.4</ele>
        <time>2017-12-09T13:49:22Z</time>
      </trkpt>
      <trkpt lat="43.52921" lon="3.29284">
        <ele>127.1</ele>
        <time>2017-12-09T13:49:23Z</time>
      </trkpt>
      <trkpt lat="43.52923" lon="3.29286">
        <ele>127</ele>
        <time>2017-12-09T13:49:24Z</time>
      </trkpt>
      <trkpt lat="43.52928" lon="3.29288">
        <ele>127.1</ele>
        <time>2017-12-09T13:49:26Z</time>
      </trkpt>
      <trkpt lat="43.52931" lon="3.29291">
        <ele>127.1</ele>
        <time>2017-12-09T13:49:28Z</time>
      </trkpt>
      <trkpt lat="43.52933" lon="3.29294">
        <ele>127</ele>
        <time>2017-12-09T13:49:31Z</time>
      </trkpt>
      <trkpt lat="43.52935" lon="3.29298">
        <ele>126.9</ele>
        <time>2017-12-09T13:49:33Z</time>
      </trkpt>
      <trkpt lat="43.52937" lon="3.29301">
        <ele>126.9</ele>
        <time>2017-12-09T13:49:35Z</time>
      </trkpt>
      <trkpt lat="43.52938" lon="3.29305">
        <ele>126.9</ele>
        <time>2017-12-09T13:49:37Z</time>
      </trkpt>
      <trkpt lat="43.52941" lon="3.2931">
        <ele>127</ele>
        <time>2017-12-09T13:49:39Z</time>
      </trkpt>
      <trkpt lat="43.52944" lon="3.29313">
        <ele>127</ele>
        <time>2017-12-09T13:49:41Z</time>
      </trkpt>
      <trkpt lat="43.52944" lon="3.29318">
        <ele>127</ele>
        <time>2017-12-09T13:50:28Z</time>
      </trkpt>
      <trkpt lat="43.52941" lon="3.29323">
        <ele>127</ele>
        <time>2017-12-09T13:50:30Z</time>
      </trkpt>
      <trkpt lat="43.52938" lon="3.29327">
        <ele>127</ele>
        <time>2017-12-09T13:50:31Z</time>
      </trkpt>
      <trkpt lat="43.52936" lon="3.29331">
        <ele>127</ele>
        <time>2017-12-09T13:50:32Z</time>
      </trkpt>
      <trkpt lat="43.52933" lon="3.29336">
        <ele>127</ele>
        <time>2017-12-09T13:50:33Z</time>
      </trkpt>
      <trkpt lat="43.52934" lon="3.29342">
        <ele>126.4</ele>
        <time>2017-12-09T13:50:34Z</time>
      </trkpt>
      <trkpt lat="43.52937" lon="3.29351">
        <ele>126</ele>
        <time>2017-12-09T13:50:35Z</time>
      </trkpt>
      <trkpt lat="43.52941" lon="3.29358">
        <ele>125.9</ele>
        <time>2017-12-09T13:50:36Z</time>
      </trkpt>
      <trkpt lat="43.52945" lon="3.29364">
        <ele>125.5</ele>
        <time>2017-12-09T13:50:37Z</time>
      </trkpt>
      <trkpt lat="43.52948" lon="3.29372">
        <ele>125.1</ele>
        <time>2017-12-09T13:50:38Z</time>
      </trkpt>
      <trkpt lat="43.52951" lon="3.29379">
        <ele>125</ele>
        <time>2017-12-09T13:50:39Z</time>
      </trkpt>
      <trkpt lat="43.52953" lon="3.29387">
        <ele>124.5</ele>
        <time>2017-12-09T13:50:40Z</time>
      </trkpt>
      <trkpt lat="43.52955" lon="3.29394">
        <ele>123.7</ele>
        <time>2017-12-09T13:50:41Z</time>
      </trkpt>
      <trkpt lat="43.52957" lon="3.29402">
        <ele>123.5</ele>
        <time>2017-12-09T13:50:42Z</time>
      </trkpt>
      <trkpt lat="43.52959" lon="3.29409">
        <ele>123.3</ele>
        <time>2017-12-09T13:50:43Z</time>
      </trkpt>
      <trkpt lat="43.52961" lon="3.29417">
        <ele>123.2</ele>
        <time>2017-12-09T13:50:44Z</time>
      </trkpt>
      <trkpt lat="43.52963" lon="3.29424">
        <ele>123.1</ele>
        <time>2017-12-09T13:50:45Z</time>
      </trkpt>
      <trkpt lat="43.52966" lon="3.2943">
        <ele>123.1</ele>
        <time>2017-12-09T13:50:46Z</time>
      </trkpt>
      <trkpt lat="43.52969" lon="3.29434">
        <ele>123.1</ele>
        <time>2017-12-09T13:50:47Z</time>
      </trkpt>
      <trkpt lat="43.52971" lon="3.29438">
        <ele>123.1</ele>
        <time>2017-12-09T13:50:48Z</time>
      </trkpt>
      <trkpt lat="43.52973" lon="3.29442">
        <ele>123.2</ele>
        <time>2017-12-09T13:50:49Z</time>
      </trkpt>
      <trkpt lat="43.52974" lon="3.29447">
        <ele>123.2</ele>
        <time>2017-12-09T13:50:50Z</time>
      </trkpt>
      <trkpt lat="43.52976" lon="3.29452">
        <ele>123.3</ele>
        <time>2017-12-09T13:50:51Z</time>
      </trkpt>
      <trkpt lat="43.52977" lon="3.29457">
        <ele>123.3</ele>
        <time>2017-12-09T13:50:52Z</time>
      </trkpt>
      <trkpt lat="43.52979" lon="3.29462">
        <ele>123.2</ele>
        <time>2017-12-09T13:50:53Z</time>
      </trkpt>
      <trkpt lat="43.5298" lon="3.29466">
        <ele>123</ele>
        <time>2017-12-09T13:50:54Z</time>
      </trkpt>
      <trkpt lat="43.52981" lon="3.2947">
        <ele>122.8</ele>
        <time>2017-12-09T13:50:55Z</time>
      </trkpt>
      <trkpt lat="43.52981" lon="3.29477">
        <ele>122.8</ele>
        <time>2017-12-09T13:50:57Z</time>
      </trkpt>
      <trkpt lat="43.52982" lon="3.29481">
        <ele>122.8</ele>
        <time>2017-12-09T13:50:58Z</time>
      </trkpt>
      <trkpt lat="43.52982" lon="3.29486">
        <ele>122.8</ele>
        <time>2017-12-09T13:50:59Z</time>
      </trkpt>
      <trkpt lat="43.52983" lon="3.29492">
        <ele>122.7</ele>
        <time>2017-12-09T13:51:00Z</time>
      </trkpt>
      <trkpt lat="43.52984" lon="3.29498">
        <ele>122.5</ele>
        <time>2017-12-09T13:51:01Z</time>
      </trkpt>
      <trkpt lat="43.52985" lon="3.29503">
        <ele>122.2</ele>
        <time>2017-12-09T13:51:02Z</time>
      </trkpt>
      <trkpt lat="43.52985" lon="3.29508">
        <ele>121.9</ele>
        <time>2017-12-09T13:51:03Z</time>
      </trkpt>
      <trkpt lat="43.52985" lon="3.29514">
        <ele>121.7</ele>
        <time>2017-12-09T13:51:04Z</time>
      </trkpt>
      <trkpt lat="43.52984" lon="3.29519">
        <ele>121.6</ele>
        <time>2017-12-09T13:51:05Z</time>
      </trkpt>
      <trkpt lat="43.52985" lon="3.29524">
        <ele>121.4</ele>
        <time>2017-12-09T13:51:06Z</time>
      </trkpt>
      <trkpt lat="43.52987" lon="3.29529">
        <ele>121.5</ele>
        <time>2017-12-09T13:51:07Z</time>
      </trkpt>
      <trkpt lat="43.52988" lon="3.29532">
        <ele>121.6</ele>
        <time>2017-12-09T13:51:08Z</time>
      </trkpt>
      <trkpt lat="43.5299" lon="3.29535">
        <ele>121.8</ele>
        <time>2017-12-09T13:51:09Z</time>
      </trkpt>
      <trkpt lat="43.52994" lon="3.29539">
        <ele>122.2</ele>
        <time>2017-12-09T13:51:11Z</time>
      </trkpt>
      <trkpt lat="43.52998" lon="3.29542">
        <ele>122.3</ele>
        <time>2017-12-09T13:51:13Z</time>
      </trkpt>
      <trkpt lat="43.53002" lon="3.29544">
        <ele>122.4</ele>
        <time>2017-12-09T13:51:15Z</time>
      </trkpt>
      <trkpt lat="43.53005" lon="3.29547">
        <ele>122.6</ele>
        <time>2017-12-09T13:51:17Z</time>
      </trkpt>
      <trkpt lat="43.53008" lon="3.2955">
        <ele>122.7</ele>
        <time>2017-12-09T13:51:19Z</time>
      </trkpt>
      <trkpt lat="43.53011" lon="3.29552">
        <ele>122.7</ele>
        <time>2017-12-09T13:51:21Z</time>
      </trkpt>
      <trkpt lat="43.53013" lon="3.29555">
        <ele>122.7</ele>
        <time>2017-12-09T13:51:23Z</time>
      </trkpt>
      <trkpt lat="43.53015" lon="3.2956">
        <ele>122.9</ele>
        <time>2017-12-09T13:51:26Z</time>
      </trkpt>
      <trkpt lat="43.53017" lon="3.29563">
        <ele>123</ele>
        <time>2017-12-09T13:51:28Z</time>
      </trkpt>
      <trkpt lat="43.53019" lon="3.29566">
        <ele>123.2</ele>
        <time>2017-12-09T13:51:30Z</time>
      </trkpt>
      <trkpt lat="43.53022" lon="3.29569">
        <ele>123.4</ele>
        <time>2017-12-09T13:51:32Z</time>
      </trkpt>
      <trkpt lat="43.53024" lon="3.29571">
        <ele>123.5</ele>
        <time>2017-12-09T13:51:34Z</time>
      </trkpt>
      <trkpt lat="43.53026" lon="3.29574">
        <ele>123.6</ele>
        <time>2017-12-09T13:51:36Z</time>
      </trkpt>
      <trkpt lat="43.53028" lon="3.29577">
        <ele>123.7</ele>
        <time>2017-12-09T13:51:38Z</time>
      </trkpt>
      <trkpt lat="43.53029" lon="3.29581">
        <ele>123.9</ele>
        <time>2017-12-09T13:51:40Z</time>
      </trkpt>
      <trkpt lat="43.53031" lon="3.29586">
        <ele>124</ele>
        <time>2017-12-09T13:51:43Z</time>
      </trkpt>
      <trkpt lat="43.53031" lon="3.29591">
        <ele>124.1</ele>
        <time>2017-12-09T13:51:45Z</time>
      </trkpt>
      <trkpt lat="43.53031" lon="3.29595">
        <ele>124.1</ele>
        <time>2017-12-09T13:51:47Z</time>
      </trkpt>
      <trkpt lat="43.53031" lon="3.296">
        <ele>124</ele>
        <time>2017-12-09T13:51:50Z</time>
      </trkpt>
      <trkpt lat="43.53031" lon="3.29605">
        <ele>124</ele>
        <time>2017-12-09T13:51:53Z</time>
      </trkpt>
      <trkpt lat="43.53034" lon="3.29609">
        <ele>124</ele>
        <time>2017-12-09T13:51:55Z</time>
      </trkpt>
      <trkpt lat="43.53037" lon="3.29611">
        <ele>124</ele>
        <time>2017-12-09T13:51:58Z</time>
      </trkpt>
      <trkpt lat="43.5304" lon="3.29613">
        <ele>124</ele>
        <time>2017-12-09T13:52:01Z</time>
      </trkpt>
      <trkpt lat="43.53042" lon="3.29618">
        <ele>124</ele>
        <time>2017-12-09T13:52:04Z</time>
      </trkpt>
      <trkpt lat="43.53043" lon="3.29622">
        <ele>124</ele>
        <time>2017-12-09T13:52:06Z</time>
      </trkpt>
      <trkpt lat="43.53043" lon="3.29627">
        <ele>124.1</ele>
        <time>2017-12-09T13:52:08Z</time>
      </trkpt>
      <trkpt lat="43.53042" lon="3.29632">
        <ele>124.2</ele>
        <time>2017-12-09T13:52:10Z</time>
      </trkpt>
      <trkpt lat="43.53041" lon="3.29636">
        <ele>124.3</ele>
        <time>2017-12-09T13:52:12Z</time>
      </trkpt>
      <trkpt lat="43.5304" lon="3.29641">
        <ele>124.3</ele>
        <time>2017-12-09T13:52:14Z</time>
      </trkpt>
      <trkpt lat="43.53039" lon="3.29645">
        <ele>124.3</ele>
        <time>2017-12-09T13:52:16Z</time>
      </trkpt>
      <trkpt lat="43.53038" lon="3.29649">
        <ele>124.3</ele>
        <time>2017-12-09T13:52:18Z</time>
      </trkpt>
      <trkpt lat="43.53036" lon="3.29655">
        <ele>124.4</ele>
        <time>2017-12-09T13:52:20Z</time>
      </trkpt>
      <trkpt lat="43.53035" lon="3.29663">
        <ele>124.6</ele>
        <time>2017-12-09T13:52:22Z</time>
      </trkpt>
      <trkpt lat="43.53034" lon="3.29668">
        <ele>124.8</ele>
        <time>2017-12-09T13:52:23Z</time>
      </trkpt>
      <trkpt lat="43.53034" lon="3.29673">
        <ele>125.1</ele>
        <time>2017-12-09T13:52:24Z</time>
      </trkpt>
      <trkpt lat="43.53034" lon="3.29678">
        <ele>125.3</ele>
        <time>2017-12-09T13:52:25Z</time>
      </trkpt>
      <trkpt lat="43.53036" lon="3.29683">
        <ele>125.6</ele>
        <time>2017-12-09T13:52:26Z</time>
      </trkpt>
      <trkpt lat="43.53039" lon="3.29686">
        <ele>125.9</ele>
        <time>2017-12-09T13:52:27Z</time>
      </trkpt>
      <trkpt lat="43.53042" lon="3.29688">
        <ele>125.8</ele>
        <time>2017-12-09T13:52:28Z</time>
      </trkpt>
      <trkpt lat="43.53045" lon="3.29687">
        <ele>125.8</ele>
        <time>2017-12-09T13:52:29Z</time>
      </trkpt>
      <trkpt lat="43.53048" lon="3.29686">
        <ele>125.7</ele>
        <time>2017-12-09T13:52:30Z</time>
      </trkpt>
      <trkpt lat="43.53053" lon="3.29684">
        <ele>125.6</ele>
        <time>2017-12-09T13:52:32Z</time>
      </trkpt>
      <trkpt lat="43.53059" lon="3.29683">
        <ele>125.6</ele>
        <time>2017-12-09T13:52:34Z</time>
      </trkpt>
      <trkpt lat="43.53061" lon="3.29683">
        <ele>125.6</ele>
        <time>2017-12-09T13:52:35Z</time>
      </trkpt>
      <trkpt lat="43.53064" lon="3.29683">
        <ele>125.5</ele>
        <time>2017-12-09T13:52:36Z</time>
      </trkpt>
      <trkpt lat="43.53069" lon="3.29681">
        <ele>125.5</ele>
        <time>2017-12-09T13:52:38Z</time>
      </trkpt>
      <trkpt lat="43.53074" lon="3.29679">
        <ele>125.4</ele>
        <time>2017-12-09T13:52:40Z</time>
      </trkpt>
      <trkpt lat="43.53079" lon="3.29677">
        <ele>125.3</ele>
        <time>2017-12-09T13:52:42Z</time>
      </trkpt>
      <trkpt lat="43.53082" lon="3.29676">
        <ele>125.3</ele>
        <time>2017-12-09T13:52:43Z</time>
      </trkpt>
      <trkpt lat="43.53087" lon="3.29675">
        <ele>125.2</ele>
        <time>2017-12-09T13:52:45Z</time>
      </trkpt>
      <trkpt lat="43.53091" lon="3.29673">
        <ele>125.2</ele>
        <time>2017-12-09T13:52:47Z</time>
      </trkpt>
      <trkpt lat="43.53095" lon="3.29672">
        <ele>125.1</ele>
        <time>2017-12-09T13:52:49Z</time>
      </trkpt>
      <trkpt lat="43.531" lon="3.29671">
        <ele>125</ele>
        <time>2017-12-09T13:52:51Z</time>
      </trkpt>
      <trkpt lat="43.53105" lon="3.29669">
        <ele>124.8</ele>
        <time>2017-12-09T13:52:53Z</time>
      </trkpt>
      <trkpt lat="43.53108" lon="3.29668">
        <ele>124.7</ele>
        <time>2017-12-09T13:52:54Z</time>
      </trkpt>
      <trkpt lat="43.53111" lon="3.29666">
        <ele>124.5</ele>
        <time>2017-12-09T13:52:55Z</time>
      </trkpt>
      <trkpt lat="43.53116" lon="3.29666">
        <ele>124.1</ele>
        <time>2017-12-09T13:52:56Z</time>
      </trkpt>
      <trkpt lat="43.5312" lon="3.29665">
        <ele>123.6</ele>
        <time>2017-12-09T13:52:57Z</time>
      </trkpt>
      <trkpt lat="43.53124" lon="3.29663">
        <ele>123.2</ele>
        <time>2017-12-09T13:52:58Z</time>
      </trkpt>
      <trkpt lat="43.53129" lon="3.29662">
        <ele>123</ele>
        <time>2017-12-09T13:52:59Z</time>
      </trkpt>
      <trkpt lat="43.53133" lon="3.29662">
        <ele>122.9</ele>
        <time>2017-12-09T13:53:00Z</time>
      </trkpt>
      <trkpt lat="43.53136" lon="3.29661">
        <ele>122.8</ele>
        <time>2017-12-09T13:53:01Z</time>
      </trkpt>
      <trkpt lat="43.53141" lon="3.2966">
        <ele>122.7</ele>
        <time>2017-12-09T13:53:02Z</time>
      </trkpt>
      <trkpt lat="43.53145" lon="3.29659">
        <ele>122.6</ele>
        <time>2017-12-09T13:53:03Z</time>
      </trkpt>
      <trkpt lat="43.53148" lon="3.29657">
        <ele>122.6</ele>
        <time>2017-12-09T13:53:04Z</time>
      </trkpt>
      <trkpt lat="43.53152" lon="3.29656">
        <ele>122.5</ele>
        <time>2017-12-09T13:53:05Z</time>
      </trkpt>
      <trkpt lat="43.53156" lon="3.29654">
        <ele>122.5</ele>
        <time>2017-12-09T13:53:06Z</time>
      </trkpt>
      <trkpt lat="43.53159" lon="3.29653">
        <ele>122.4</ele>
        <time>2017-12-09T13:53:07Z</time>
      </trkpt>
      <trkpt lat="43.53162" lon="3.29651">
        <ele>122.4</ele>
        <time>2017-12-09T13:53:08Z</time>
      </trkpt>
      <trkpt lat="43.53165" lon="3.2965">
        <ele>122.4</ele>
        <time>2017-12-09T13:53:09Z</time>
      </trkpt>
      <trkpt lat="43.53168" lon="3.2965">
        <ele>122.4</ele>
        <time>2017-12-09T13:53:10Z</time>
      </trkpt>
      <trkpt lat="43.53171" lon="3.2965">
        <ele>122.5</ele>
        <time>2017-12-09T13:53:11Z</time>
      </trkpt>
      <trkpt lat="43.53175" lon="3.29652">
        <ele>122.7</ele>
        <time>2017-12-09T13:53:12Z</time>
      </trkpt>
      <trkpt lat="43.53177" lon="3.29655">
        <ele>122.8</ele>
        <time>2017-12-09T13:53:13Z</time>
      </trkpt>
      <trkpt lat="43.53178" lon="3.29659">
        <ele>123.1</ele>
        <time>2017-12-09T13:53:14Z</time>
      </trkpt>
      <trkpt lat="43.53177" lon="3.29665">
        <ele>123.7</ele>
        <time>2017-12-09T13:53:16Z</time>
      </trkpt>
      <trkpt lat="43.53175" lon="3.2967">
        <ele>124.4</ele>
        <time>2017-12-09T13:53:18Z</time>
      </trkpt>
      <trkpt lat="43.53172" lon="3.29675">
        <ele>125.1</ele>
        <time>2017-12-09T13:53:20Z</time>
      </trkpt>
      <trkpt lat="43.5317" lon="3.29678">
        <ele>125.6</ele>
        <time>2017-12-09T13:53:22Z</time>
      </trkpt>
      <trkpt lat="43.53168" lon="3.29682">
        <ele>126</ele>
        <time>2017-12-09T13:53:24Z</time>
      </trkpt>
      <trkpt lat="43.53167" lon="3.29686">
        <ele>126.5</ele>
        <time>2017-12-09T13:53:26Z</time>
      </trkpt>
      <trkpt lat="43.53165" lon="3.29691">
        <ele>126.9</ele>
        <time>2017-12-09T13:53:28Z</time>
      </trkpt>
      <trkpt lat="43.53164" lon="3.29697">
        <ele>127.4</ele>
        <time>2017-12-09T13:53:30Z</time>
      </trkpt>
      <trkpt lat="43.53162" lon="3.29702">
        <ele>127.8</ele>
        <time>2017-12-09T13:53:32Z</time>
      </trkpt>
      <trkpt lat="43.5316" lon="3.29706">
        <ele>128.1</ele>
        <time>2017-12-09T13:53:34Z</time>
      </trkpt>
      <trkpt lat="43.53158" lon="3.2971">
        <ele>128.4</ele>
        <time>2017-12-09T13:53:36Z</time>
      </trkpt>
      <trkpt lat="43.53156" lon="3.29714">
        <ele>128.7</ele>
        <time>2017-12-09T13:53:38Z</time>
      </trkpt>
      <trkpt lat="43.53155" lon="3.29719">
        <ele>128.9</ele>
        <time>2017-12-09T13:53:40Z</time>
      </trkpt>
      <trkpt lat="43.53153" lon="3.29722">
        <ele>129.1</ele>
        <time>2017-12-09T13:53:42Z</time>
      </trkpt>
      <trkpt lat="43.53151" lon="3.29726">
        <ele>129.3</ele>
        <time>2017-12-09T13:53:45Z</time>
      </trkpt>
      <trkpt lat="43.53149" lon="3.29729">
        <ele>129.4</ele>
        <time>2017-12-09T13:53:47Z</time>
      </trkpt>
      <trkpt lat="43.53148" lon="3.29733">
        <ele>129.6</ele>
        <time>2017-12-09T13:53:50Z</time>
      </trkpt>
      <trkpt lat="43.53146" lon="3.29738">
        <ele>129.7</ele>
        <time>2017-12-09T13:53:53Z</time>
      </trkpt>
      <trkpt lat="43.53144" lon="3.29742">
        <ele>129.8</ele>
        <time>2017-12-09T13:53:55Z</time>
      </trkpt>
      <trkpt lat="43.53144" lon="3.29746">
        <ele>129.8</ele>
        <time>2017-12-09T13:53:57Z</time>
      </trkpt>
      <trkpt lat="43.53144" lon="3.2975">
        <ele>129.8</ele>
        <time>2017-12-09T13:53:59Z</time>
      </trkpt>
      <trkpt lat="43.53145" lon="3.29754">
        <ele>129.8</ele>
        <time>2017-12-09T13:54:01Z</time>
      </trkpt>
      <trkpt lat="43.53146" lon="3.29758">
        <ele>129.8</ele>
        <time>2017-12-09T13:54:03Z</time>
      </trkpt>
      <trkpt lat="43.53147" lon="3.29761">
        <ele>129.8</ele>
        <time>2017-12-09T13:54:05Z</time>
      </trkpt>
      <trkpt lat="43.53149" lon="3.29765">
        <ele>129.8</ele>
        <time>2017-12-09T13:54:07Z</time>
      </trkpt>
      <trkpt lat="43.5315" lon="3.2977">
        <ele>129.8</ele>
        <time>2017-12-09T13:54:09Z</time>
      </trkpt>
      <trkpt lat="43.53152" lon="3.29775">
        <ele>129.7</ele>
        <time>2017-12-09T13:54:11Z</time>
      </trkpt>
      <trkpt lat="43.53153" lon="3.2978">
        <ele>129.7</ele>
        <time>2017-12-09T13:54:13Z</time>
      </trkpt>
      <trkpt lat="43.53154" lon="3.29786">
        <ele>129.7</ele>
        <time>2017-12-09T13:54:15Z</time>
      </trkpt>
      <trkpt lat="43.53156" lon="3.29792">
        <ele>129.6</ele>
        <time>2017-12-09T13:54:17Z</time>
      </trkpt>
      <trkpt lat="43.53157" lon="3.29796">
        <ele>129.6</ele>
        <time>2017-12-09T13:54:18Z</time>
      </trkpt>
      <trkpt lat="43.53159" lon="3.29801">
        <ele>129.6</ele>
        <time>2017-12-09T13:54:19Z</time>
      </trkpt>
      <trkpt lat="43.53161" lon="3.29805">
        <ele>129.5</ele>
        <time>2017-12-09T13:54:20Z</time>
      </trkpt>
      <trkpt lat="43.53164" lon="3.29811">
        <ele>129.5</ele>
        <time>2017-12-09T13:54:21Z</time>
      </trkpt>
      <trkpt lat="43.53168" lon="3.29815">
        <ele>129.5</ele>
        <time>2017-12-09T13:54:22Z</time>
      </trkpt>
      <trkpt lat="43.53173" lon="3.29818">
        <ele>129.6</ele>
        <time>2017-12-09T13:54:23Z</time>
      </trkpt>
      <trkpt lat="43.53178" lon="3.29821">
        <ele>129.8</ele>
        <time>2017-12-09T13:54:24Z</time>
      </trkpt>
      <trkpt lat="43.53183" lon="3.29823">
        <ele>130.1</ele>
        <time>2017-12-09T13:54:25Z</time>
      </trkpt>
      <trkpt lat="43.53186" lon="3.29826">
        <ele>130.3</ele>
        <time>2017-12-09T13:54:26Z</time>
      </trkpt>
      <trkpt lat="43.53189" lon="3.2983">
        <ele>130.5</ele>
        <time>2017-12-09T13:54:27Z</time>
      </trkpt>
      <trkpt lat="43.53192" lon="3.29833">
        <ele>130.7</ele>
        <time>2017-12-09T13:54:28Z</time>
      </trkpt>
      <trkpt lat="43.53194" lon="3.29836">
        <ele>130.8</ele>
        <time>2017-12-09T13:54:29Z</time>
      </trkpt>
      <trkpt lat="43.53196" lon="3.29839">
        <ele>131</ele>
        <time>2017-12-09T13:54:30Z</time>
      </trkpt>
      <trkpt lat="43.53199" lon="3.29845">
        <ele>131.1</ele>
        <time>2017-12-09T13:54:32Z</time>
      </trkpt>
      <trkpt lat="43.532" lon="3.2985">
        <ele>131.3</ele>
        <time>2017-12-09T13:54:34Z</time>
      </trkpt>
      <trkpt lat="43.53201" lon="3.29857">
        <ele>131.5</ele>
        <time>2017-12-09T13:54:36Z</time>
      </trkpt>
      <trkpt lat="43.532" lon="3.29863">
        <ele>131.7</ele>
        <time>2017-12-09T13:54:38Z</time>
      </trkpt>
      <trkpt lat="43.53199" lon="3.29867">
        <ele>131.9</ele>
        <time>2017-12-09T13:54:39Z</time>
      </trkpt>
      <trkpt lat="43.53197" lon="3.29872">
        <ele>132.1</ele>
        <time>2017-12-09T13:54:40Z</time>
      </trkpt>
      <trkpt lat="43.53196" lon="3.29877">
        <ele>132.2</ele>
        <time>2017-12-09T13:54:41Z</time>
      </trkpt>
      <trkpt lat="43.53194" lon="3.29882">
        <ele>132.3</ele>
        <time>2017-12-09T13:54:42Z</time>
      </trkpt>
      <trkpt lat="43.53194" lon="3.29887">
        <ele>132.4</ele>
        <time>2017-12-09T13:54:43Z</time>
      </trkpt>
      <trkpt lat="43.53193" lon="3.29892">
        <ele>132.4</ele>
        <time>2017-12-09T13:54:44Z</time>
      </trkpt>
      <trkpt lat="43.53192" lon="3.29898">
        <ele>132.5</ele>
        <time>2017-12-09T13:54:45Z</time>
      </trkpt>
      <trkpt lat="43.5319" lon="3.29903">
        <ele>132.5</ele>
        <time>2017-12-09T13:54:46Z</time>
      </trkpt>
      <trkpt lat="43.53189" lon="3.29908">
        <ele>132.5</ele>
        <time>2017-12-09T13:54:47Z</time>
      </trkpt>
      <trkpt lat="43.53187" lon="3.29913">
        <ele>132.5</ele>
        <time>2017-12-09T13:54:48Z</time>
      </trkpt>
      <trkpt lat="43.53187" lon="3.29917">
        <ele>132.5</ele>
        <time>2017-12-09T13:54:49Z</time>
      </trkpt>
      <trkpt lat="43.53186" lon="3.29922">
        <ele>132.6</ele>
        <time>2017-12-09T13:54:50Z</time>
      </trkpt>
      <trkpt lat="43.53186" lon="3.29927">
        <ele>132.6</ele>
        <time>2017-12-09T13:54:51Z</time>
      </trkpt>
      <trkpt lat="43.53187" lon="3.29931">
        <ele>132.7</ele>
        <time>2017-12-09T13:54:52Z</time>
      </trkpt>
      <trkpt lat="43.53187" lon="3.29936">
        <ele>132.8</ele>
        <time>2017-12-09T13:54:53Z</time>
      </trkpt>
      <trkpt lat="43.53187" lon="3.2994">
        <ele>132.9</ele>
        <time>2017-12-09T13:54:54Z</time>
      </trkpt>
      <trkpt lat="43.53187" lon="3.29945">
        <ele>133</ele>
        <time>2017-12-09T13:54:55Z</time>
      </trkpt>
      <trkpt lat="43.53186" lon="3.2995">
        <ele>133.2</ele>
        <time>2017-12-09T13:54:56Z</time>
      </trkpt>
      <trkpt lat="43.53185" lon="3.29954">
        <ele>133.3</ele>
        <time>2017-12-09T13:54:57Z</time>
      </trkpt>
      <trkpt lat="43.53184" lon="3.29957">
        <ele>133.5</ele>
        <time>2017-12-09T13:54:58Z</time>
      </trkpt>
      <trkpt lat="43.53183" lon="3.29961">
        <ele>133.6</ele>
        <time>2017-12-09T13:54:59Z</time>
      </trkpt>
      <trkpt lat="43.53182" lon="3.29965">
        <ele>133.7</ele>
        <time>2017-12-09T13:55:00Z</time>
      </trkpt>
      <trkpt lat="43.53181" lon="3.29969">
        <ele>133.8</ele>
        <time>2017-12-09T13:55:01Z</time>
      </trkpt>
      <trkpt lat="43.53181" lon="3.29973">
        <ele>133.8</ele>
        <time>2017-12-09T13:55:02Z</time>
      </trkpt>
      <trkpt lat="43.5318" lon="3.29979">
        <ele>133.9</ele>
        <time>2017-12-09T13:55:04Z</time>
      </trkpt>
      <trkpt lat="43.53179" lon="3.29983">
        <ele>134</ele>
        <time>2017-12-09T13:55:06Z</time>
      </trkpt>
      <trkpt lat="43.5318" lon="3.29987">
        <ele>134</ele>
        <time>2017-12-09T13:55:37Z</time>
      </trkpt>
      <trkpt lat="43.53182" lon="3.2999">
        <ele>134</ele>
        <time>2017-12-09T13:55:39Z</time>
      </trkpt>
      <trkpt lat="43.53187" lon="3.29993">
        <ele>133.9</ele>
        <time>2017-12-09T13:55:41Z</time>
      </trkpt>
      <trkpt lat="43.53191" lon="3.29997">
        <ele>133.6</ele>
        <time>2017-12-09T13:55:43Z</time>
      </trkpt>
      <trkpt lat="43.53194" lon="3.3">
        <ele>133.5</ele>
        <time>2017-12-09T13:55:44Z</time>
      </trkpt>
      <trkpt lat="43.53198" lon="3.30001">
        <ele>133.6</ele>
        <time>2017-12-09T13:55:45Z</time>
      </trkpt>
      <trkpt lat="43.53202" lon="3.30001">
        <ele>133.6</ele>
        <time>2017-12-09T13:55:46Z</time>
      </trkpt>
      <trkpt lat="43.53207" lon="3.30001">
        <ele>133.7</ele>
        <time>2017-12-09T13:55:47Z</time>
      </trkpt>
      <trkpt lat="43.53211" lon="3.30002">
        <ele>133.8</ele>
        <time>2017-12-09T13:55:48Z</time>
      </trkpt>
      <trkpt lat="43.53213" lon="3.30005">
        <ele>133.5</ele>
        <time>2017-12-09T13:55:49Z</time>
      </trkpt>
      <trkpt lat="43.53215" lon="3.30008">
        <ele>133.2</ele>
        <time>2017-12-09T13:55:50Z</time>
      </trkpt>
      <trkpt lat="43.53217" lon="3.3001">
        <ele>132.9</ele>
        <time>2017-12-09T13:55:51Z</time>
      </trkpt>
      <trkpt lat="43.5322" lon="3.30014">
        <ele>132.4</ele>
        <time>2017-12-09T13:55:53Z</time>
      </trkpt>
      <trkpt lat="43.53222" lon="3.30018">
        <ele>131.9</ele>
        <time>2017-12-09T13:55:56Z</time>
      </trkpt>
      <trkpt lat="43.53222" lon="3.30025">
        <ele>131.5</ele>
        <time>2017-12-09T13:55:58Z</time>
      </trkpt>
      <trkpt lat="43.53223" lon="3.30031">
        <ele>130.6</ele>
        <time>2017-12-09T13:56:00Z</time>
      </trkpt>
      <trkpt lat="43.53227" lon="3.30037">
        <ele>129.9</ele>
        <time>2017-12-09T13:56:02Z</time>
      </trkpt>
      <trkpt lat="43.53228" lon="3.30041">
        <ele>129.5</ele>
        <time>2017-12-09T13:56:03Z</time>
      </trkpt>
      <trkpt lat="43.53231" lon="3.30045">
        <ele>129.2</ele>
        <time>2017-12-09T13:56:04Z</time>
      </trkpt>
      <trkpt lat="43.53234" lon="3.30049">
        <ele>128.8</ele>
        <time>2017-12-09T13:56:05Z</time>
      </trkpt>
      <trkpt lat="43.53236" lon="3.30051">
        <ele>128.4</ele>
        <time>2017-12-09T13:56:06Z</time>
      </trkpt>
      <trkpt lat="43.53238" lon="3.30059">
        <ele>127.2</ele>
        <time>2017-12-09T13:56:08Z</time>
      </trkpt>
      <trkpt lat="43.53239" lon="3.30065">
        <ele>126.4</ele>
        <time>2017-12-09T13:56:09Z</time>
      </trkpt>
      <trkpt lat="43.5324" lon="3.30072">
        <ele>125.6</ele>
        <time>2017-12-09T13:56:10Z</time>
      </trkpt>
      <trkpt lat="43.5324" lon="3.30077">
        <ele>125</ele>
        <time>2017-12-09T13:56:11Z</time>
      </trkpt>
      <trkpt lat="43.53239" lon="3.30083">
        <ele>124.4</ele>
        <time>2017-12-09T13:56:12Z</time>
      </trkpt>
      <trkpt lat="43.53238" lon="3.30089">
        <ele>123.8</ele>
        <time>2017-12-09T13:56:13Z</time>
      </trkpt>
      <trkpt lat="43.53238" lon="3.30094">
        <ele>122.8</ele>
        <time>2017-12-09T13:56:14Z</time>
      </trkpt>
      <trkpt lat="43.53238" lon="3.30099">
        <ele>122.1</ele>
        <time>2017-12-09T13:56:15Z</time>
      </trkpt>
      <trkpt lat="43.53237" lon="3.30103">
        <ele>121.7</ele>
        <time>2017-12-09T13:56:16Z</time>
      </trkpt>
      <trkpt lat="43.53237" lon="3.30107">
        <ele>121.4</ele>
        <time>2017-12-09T13:56:17Z</time>
      </trkpt>
      <trkpt lat="43.53238" lon="3.30112">
        <ele>121</ele>
        <time>2017-12-09T13:56:18Z</time>
      </trkpt>
      <trkpt lat="43.53239" lon="3.30115">
        <ele>120.4</ele>
        <time>2017-12-09T13:56:19Z</time>
      </trkpt>
      <trkpt lat="43.5324" lon="3.30121">
        <ele>119.7</ele>
        <time>2017-12-09T13:56:21Z</time>
      </trkpt>
      <trkpt lat="43.53241" lon="3.30126">
        <ele>119.2</ele>
        <time>2017-12-09T13:56:23Z</time>
      </trkpt>
      <trkpt lat="43.53243" lon="3.30127">
        <ele>118.8</ele>
        <time>2017-12-09T13:56:33Z</time>
      </trkpt>
      <trkpt lat="43.53247" lon="3.30127">
        <ele>118.5</ele>
        <time>2017-12-09T13:56:38Z</time>
      </trkpt>
      <trkpt lat="43.5325" lon="3.30127">
        <ele>118.2</ele>
        <time>2017-12-09T13:56:42Z</time>
      </trkpt>
      <trkpt lat="43.53251" lon="3.3013">
        <ele>117.9</ele>
        <time>2017-12-09T13:56:46Z</time>
      </trkpt>
      <trkpt lat="43.5325" lon="3.30134">
        <ele>117.6</ele>
        <time>2017-12-09T13:56:53Z</time>
      </trkpt>
      <trkpt lat="43.53249" lon="3.3014">
        <ele>117.1</ele>
        <time>2017-12-09T13:56:55Z</time>
      </trkpt>
      <trkpt lat="43.53248" lon="3.30148">
        <ele>115.9</ele>
        <time>2017-12-09T13:56:57Z</time>
      </trkpt>
      <trkpt lat="43.5325" lon="3.30154">
        <ele>115.4</ele>
        <time>2017-12-09T13:56:58Z</time>
      </trkpt>
      <trkpt lat="43.53251" lon="3.30159">
        <ele>114.6</ele>
        <time>2017-12-09T13:56:59Z</time>
      </trkpt>
      <trkpt lat="43.53253" lon="3.30163">
        <ele>113.9</ele>
        <time>2017-12-09T13:57:00Z</time>
      </trkpt>
      <trkpt lat="43.53256" lon="3.30166">
        <ele>113.7</ele>
        <time>2017-12-09T13:57:01Z</time>
      </trkpt>
      <trkpt lat="43.53256" lon="3.30172">
        <ele>113.4</ele>
        <time>2017-12-09T13:57:03Z</time>
      </trkpt>
      <trkpt lat="43.53254" lon="3.30178">
        <ele>112.9</ele>
        <time>2017-12-09T13:57:05Z</time>
      </trkpt>
      <trkpt lat="43.53253" lon="3.30182">
        <ele>112.7</ele>
        <time>2017-12-09T13:57:06Z</time>
      </trkpt>
      <trkpt lat="43.53251" lon="3.30189">
        <ele>112.3</ele>
        <time>2017-12-09T13:57:07Z</time>
      </trkpt>
      <trkpt lat="43.53252" lon="3.30195">
        <ele>111.8</ele>
        <time>2017-12-09T13:57:08Z</time>
      </trkpt>
      <trkpt lat="43.53254" lon="3.30201">
        <ele>111.5</ele>
        <time>2017-12-09T13:57:09Z</time>
      </trkpt>
      <trkpt lat="43.53257" lon="3.30208">
        <ele>111.1</ele>
        <time>2017-12-09T13:57:10Z</time>
      </trkpt>
      <trkpt lat="43.5326" lon="3.30213">
        <ele>111</ele>
        <time>2017-12-09T13:57:11Z</time>
      </trkpt>
      <trkpt lat="43.53264" lon="3.30217">
        <ele>111</ele>
        <time>2017-12-09T13:57:12Z</time>
      </trkpt>
      <trkpt lat="43.53268" lon="3.3022">
        <ele>111</ele>
        <time>2017-12-09T13:57:13Z</time>
      </trkpt>
      <trkpt lat="43.53273" lon="3.30222">
        <ele>111</ele>
        <time>2017-12-09T13:57:14Z</time>
      </trkpt>
      <trkpt lat="43.53277" lon="3.30224">
        <ele>111</ele>
        <time>2017-12-09T13:57:15Z</time>
      </trkpt>
      <trkpt lat="43.5328" lon="3.30225">
        <ele>111</ele>
        <time>2017-12-09T13:57:16Z</time>
      </trkpt>
      <trkpt lat="43.53284" lon="3.30225">
        <ele>111</ele>
        <time>2017-12-09T13:57:17Z</time>
      </trkpt>
      <trkpt lat="43.53288" lon="3.30225">
        <ele>111</ele>
        <time>2017-12-09T13:57:18Z</time>
      </trkpt>
      <trkpt lat="43.53291" lon="3.30225">
        <ele>111</ele>
        <time>2017-12-09T13:57:19Z</time>
      </trkpt>
      <trkpt lat="43.53295" lon="3.30225">
        <ele>110.9</ele>
        <time>2017-12-09T13:57:21Z</time>
      </trkpt>
      <trkpt lat="43.53299" lon="3.30226">
        <ele>111</ele>
        <time>2017-12-09T13:57:23Z</time>
      </trkpt>
      <trkpt lat="43.53303" lon="3.30227">
        <ele>111.1</ele>
        <time>2017-12-09T13:57:25Z</time>
      </trkpt>
      <trkpt lat="43.53306" lon="3.30224">
        <ele>111.2</ele>
        <time>2017-12-09T13:57:27Z</time>
      </trkpt>
      <trkpt lat="43.53305" lon="3.3022">
        <ele>111.4</ele>
        <time>2017-12-09T13:57:29Z</time>
      </trkpt>
      <trkpt lat="43.53302" lon="3.3022">
        <ele>111.5</ele>
        <time>2017-12-09T13:57:31Z</time>
      </trkpt>
      <trkpt lat="43.53299" lon="3.30223">
        <ele>111.7</ele>
        <time>2017-12-09T13:57:34Z</time>
      </trkpt>
      <trkpt lat="43.533" lon="3.30227">
        <ele>111.9</ele>
        <time>2017-12-09T13:57:36Z</time>
      </trkpt>
      <trkpt lat="43.53303" lon="3.30229">
        <ele>112.1</ele>
        <time>2017-12-09T13:57:38Z</time>
      </trkpt>
      <trkpt lat="43.53306" lon="3.30225">
        <ele>112.3</ele>
        <time>2017-12-09T13:57:40Z</time>
      </trkpt>
      <trkpt lat="43.53306" lon="3.3022">
        <ele>112.5</ele>
        <time>2017-12-09T13:57:43Z</time>
      </trkpt>
      <trkpt lat="43.53309" lon="3.30219">
        <ele>112.7</ele>
        <time>2017-12-09T13:57:46Z</time>
      </trkpt>
      <trkpt lat="43.53311" lon="3.30216">
        <ele>112.9</ele>
        <time>2017-12-09T13:57:49Z</time>
      </trkpt>
      <trkpt lat="43.53314" lon="3.30212">
        <ele>113.1</ele>
        <time>2017-12-09T13:57:52Z</time>
      </trkpt>
      <trkpt lat="43.53316" lon="3.30209">
        <ele>113.3</ele>
        <time>2017-12-09T13:57:54Z</time>
      </trkpt>
      <trkpt lat="43.53317" lon="3.30205">
        <ele>113.6</ele>
        <time>2017-12-09T13:57:56Z</time>
      </trkpt>
      <trkpt lat="43.53319" lon="3.30201">
        <ele>113.7</ele>
        <time>2017-12-09T13:57:58Z</time>
      </trkpt>
      <trkpt lat="43.53321" lon="3.30198">
        <ele>113.9</ele>
        <time>2017-12-09T13:58:00Z</time>
      </trkpt>
      <trkpt lat="43.53323" lon="3.30194">
        <ele>114.1</ele>
        <time>2017-12-09T13:58:02Z</time>
      </trkpt>
      <trkpt lat="43.53325" lon="3.3019">
        <ele>114.2</ele>
        <time>2017-12-09T13:58:04Z</time>
      </trkpt>
      <trkpt lat="43.53327" lon="3.30186">
        <ele>114.5</ele>
        <time>2017-12-09T13:58:06Z</time>
      </trkpt>
      <trkpt lat="43.53329" lon="3.30181">
        <ele>114.8</ele>
        <time>2017-12-09T13:58:08Z</time>
      </trkpt>
      <trkpt lat="43.53329" lon="3.30176">
        <ele>115</ele>
        <time>2017-12-09T13:58:10Z</time>
      </trkpt>
      <trkpt lat="43.53331" lon="3.30172">
        <ele>115.1</ele>
        <time>2017-12-09T13:58:12Z</time>
      </trkpt>
      <trkpt lat="43.53332" lon="3.30169">
        <ele>115.3</ele>
        <time>2017-12-09T13:58:13Z</time>
      </trkpt>
      <trkpt lat="43.53335" lon="3.30166">
        <ele>115.4</ele>
        <time>2017-12-09T13:58:14Z</time>
      </trkpt>
      <trkpt lat="43.5334" lon="3.30161">
        <ele>116</ele>
        <time>2017-12-09T13:58:16Z</time>
      </trkpt>
      <trkpt lat="43.53344" lon="3.30157">
        <ele>116.6</ele>
        <time>2017-12-09T13:58:17Z</time>
      </trkpt>
      <trkpt lat="43.53346" lon="3.30154">
        <ele>116.9</ele>
        <time>2017-12-09T13:58:18Z</time>
      </trkpt>
      <trkpt lat="43.53348" lon="3.3015">
        <ele>117.2</ele>
        <time>2017-12-09T13:58:19Z</time>
      </trkpt>
      <trkpt lat="43.5335" lon="3.30148">
        <ele>117.5</ele>
        <time>2017-12-09T13:58:21Z</time>
      </trkpt>
      <trkpt lat="43.53353" lon="3.30144">
        <ele>117.9</ele>
        <time>2017-12-09T13:58:23Z</time>
      </trkpt>
      <trkpt lat="43.53355" lon="3.30139">
        <ele>118.4</ele>
        <time>2017-12-09T13:58:25Z</time>
      </trkpt>
      <trkpt lat="43.53356" lon="3.30136">
        <ele>118.5</ele>
        <time>2017-12-09T13:58:26Z</time>
      </trkpt>
      <trkpt lat="43.53359" lon="3.3013">
        <ele>118.8</ele>
        <time>2017-12-09T13:58:28Z</time>
      </trkpt>
      <trkpt lat="43.53362" lon="3.30125">
        <ele>119.1</ele>
        <time>2017-12-09T13:58:30Z</time>
      </trkpt>
      <trkpt lat="43.53364" lon="3.30122">
        <ele>119.2</ele>
        <time>2017-12-09T13:58:32Z</time>
      </trkpt>
      <trkpt lat="43.53367" lon="3.30118">
        <ele>119.4</ele>
        <time>2017-12-09T13:58:34Z</time>
      </trkpt>
      <trkpt lat="43.5337" lon="3.30113">
        <ele>119.5</ele>
        <time>2017-12-09T13:58:36Z</time>
      </trkpt>
      <trkpt lat="43.53374" lon="3.30109">
        <ele>119.6</ele>
        <time>2017-12-09T13:58:38Z</time>
      </trkpt>
      <trkpt lat="43.53376" lon="3.30105">
        <ele>119.7</ele>
        <time>2017-12-09T13:58:40Z</time>
      </trkpt>
      <trkpt lat="43.53379" lon="3.30101">
        <ele>119.8</ele>
        <time>2017-12-09T13:58:42Z</time>
      </trkpt>
      <trkpt lat="43.53382" lon="3.30096">
        <ele>119.8</ele>
        <time>2017-12-09T13:58:44Z</time>
      </trkpt>
      <trkpt lat="43.53384" lon="3.30093">
        <ele>119.9</ele>
        <time>2017-12-09T13:58:45Z</time>
      </trkpt>
      <trkpt lat="43.53387" lon="3.30089">
        <ele>120</ele>
        <time>2017-12-09T13:58:47Z</time>
      </trkpt>
      <trkpt lat="43.5339" lon="3.30085">
        <ele>120.1</ele>
        <time>2017-12-09T13:58:49Z</time>
      </trkpt>
      <trkpt lat="43.53395" lon="3.30081">
        <ele>120.1</ele>
        <time>2017-12-09T13:58:51Z</time>
      </trkpt>
      <trkpt lat="43.53399" lon="3.30077">
        <ele>120.1</ele>
        <time>2017-12-09T13:58:53Z</time>
      </trkpt>
      <trkpt lat="43.53402" lon="3.30073">
        <ele>120</ele>
        <time>2017-12-09T13:58:55Z</time>
      </trkpt>
      <trkpt lat="43.53405" lon="3.3007">
        <ele>120</ele>
        <time>2017-12-09T13:58:57Z</time>
      </trkpt>
      <trkpt lat="43.53407" lon="3.30065">
        <ele>119.9</ele>
        <time>2017-12-09T13:58:59Z</time>
      </trkpt>
      <trkpt lat="43.53411" lon="3.30061">
        <ele>119.7</ele>
        <time>2017-12-09T13:59:01Z</time>
      </trkpt>
      <trkpt lat="43.53415" lon="3.30058">
        <ele>119.4</ele>
        <time>2017-12-09T13:59:03Z</time>
      </trkpt>
      <trkpt lat="43.53418" lon="3.30056">
        <ele>119.2</ele>
        <time>2017-12-09T13:59:05Z</time>
      </trkpt>
      <trkpt lat="43.53421" lon="3.30057">
        <ele>119</ele>
        <time>2017-12-09T13:59:06Z</time>
      </trkpt>
      <trkpt lat="43.53425" lon="3.30059">
        <ele>118.8</ele>
        <time>2017-12-09T13:59:07Z</time>
      </trkpt>
      <trkpt lat="43.53428" lon="3.30061">
        <ele>118.7</ele>
        <time>2017-12-09T13:59:08Z</time>
      </trkpt>
      <trkpt lat="43.53431" lon="3.30061">
        <ele>118.6</ele>
        <time>2017-12-09T13:59:09Z</time>
      </trkpt>
      <trkpt lat="43.53433" lon="3.30059">
        <ele>118.5</ele>
        <time>2017-12-09T13:59:10Z</time>
      </trkpt>
      <trkpt lat="43.53435" lon="3.30056">
        <ele>118.4</ele>
        <time>2017-12-09T13:59:11Z</time>
      </trkpt>
      <trkpt lat="43.53438" lon="3.30051">
        <ele>118.2</ele>
        <time>2017-12-09T13:59:13Z</time>
      </trkpt>
      <trkpt lat="43.53442" lon="3.30048">
        <ele>118</ele>
        <time>2017-12-09T13:59:15Z</time>
      </trkpt>
      <trkpt lat="43.53446" lon="3.30045">
        <ele>117.7</ele>
        <time>2017-12-09T13:59:17Z</time>
      </trkpt>
      <trkpt lat="43.53449" lon="3.30043">
        <ele>117.5</ele>
        <time>2017-12-09T13:59:19Z</time>
      </trkpt>
      <trkpt lat="43.53453" lon="3.30041">
        <ele>117.3</ele>
        <time>2017-12-09T13:59:21Z</time>
      </trkpt>
      <trkpt lat="43.53456" lon="3.30039">
        <ele>117.2</ele>
        <time>2017-12-09T13:59:23Z</time>
      </trkpt>
      <trkpt lat="43.53459" lon="3.30036">
        <ele>117</ele>
        <time>2017-12-09T13:59:25Z</time>
      </trkpt>
      <trkpt lat="43.53462" lon="3.30034">
        <ele>116.8</ele>
        <time>2017-12-09T13:59:27Z</time>
      </trkpt>
      <trkpt lat="43.53464" lon="3.30031">
        <ele>116.6</ele>
        <time>2017-12-09T13:59:33Z</time>
      </trkpt>
      <trkpt lat="43.53467" lon="3.30028">
        <ele>116.4</ele>
        <time>2017-12-09T13:59:38Z</time>
      </trkpt>
      <trkpt lat="43.53469" lon="3.30025">
        <ele>116.1</ele>
        <time>2017-12-09T13:59:40Z</time>
      </trkpt>
      <trkpt lat="43.53472" lon="3.30022">
        <ele>116</ele>
        <time>2017-12-09T13:59:42Z</time>
      </trkpt>
      <trkpt lat="43.53475" lon="3.30018">
        <ele>116</ele>
        <time>2017-12-09T13:59:44Z</time>
      </trkpt>
      <trkpt lat="43.53478" lon="3.30015">
        <ele>116</ele>
        <time>2017-12-09T13:59:45Z</time>
      </trkpt>
      <trkpt lat="43.5348" lon="3.30012">
        <ele>115.9</ele>
        <time>2017-12-09T13:59:46Z</time>
      </trkpt>
      <trkpt lat="43.53483" lon="3.3001">
        <ele>115.8</ele>
        <time>2017-12-09T13:59:47Z</time>
      </trkpt>
      <trkpt lat="43.53485" lon="3.30008">
        <ele>115.7</ele>
        <time>2017-12-09T13:59:48Z</time>
      </trkpt>
      <trkpt lat="43.53489" lon="3.30006">
        <ele>115.5</ele>
        <time>2017-12-09T13:59:50Z</time>
      </trkpt>
      <trkpt lat="43.53492" lon="3.30004">
        <ele>115.5</ele>
        <time>2017-12-09T13:59:51Z</time>
      </trkpt>
      <trkpt lat="43.53495" lon="3.30003">
        <ele>115.4</ele>
        <time>2017-12-09T13:59:52Z</time>
      </trkpt>
      <trkpt lat="43.53499" lon="3.30002">
        <ele>115.4</ele>
        <time>2017-12-09T13:59:53Z</time>
      </trkpt>
      <trkpt lat="43.53502" lon="3.3">
        <ele>115.5</ele>
        <time>2017-12-09T13:59:54Z</time>
      </trkpt>
      <trkpt lat="43.53506" lon="3.29996">
        <ele>115.5</ele>
        <time>2017-12-09T13:59:55Z</time>
      </trkpt>
      <trkpt lat="43.53509" lon="3.29992">
        <ele>115.5</ele>
        <time>2017-12-09T13:59:56Z</time>
      </trkpt>
      <trkpt lat="43.53511" lon="3.29988">
        <ele>115.6</ele>
        <time>2017-12-09T13:59:57Z</time>
      </trkpt>
      <trkpt lat="43.53513" lon="3.29985">
        <ele>115.6</ele>
        <time>2017-12-09T13:59:58Z</time>
      </trkpt>
      <trkpt lat="43.53516" lon="3.29981">
        <ele>115.6</ele>
        <time>2017-12-09T13:59:59Z</time>
      </trkpt>
      <trkpt lat="43.53519" lon="3.29977">
        <ele>115.7</ele>
        <time>2017-12-09T14:00:00Z</time>
      </trkpt>
      <trkpt lat="43.53521" lon="3.29973">
        <ele>115.8</ele>
        <time>2017-12-09T14:00:01Z</time>
      </trkpt>
      <trkpt lat="43.53524" lon="3.29968">
        <ele>115.8</ele>
        <time>2017-12-09T14:00:02Z</time>
      </trkpt>
      <trkpt lat="43.53526" lon="3.29964">
        <ele>115.9</ele>
        <time>2017-12-09T14:00:03Z</time>
      </trkpt>
      <trkpt lat="43.53528" lon="3.2996">
        <ele>115.9</ele>
        <time>2017-12-09T14:00:04Z</time>
      </trkpt>
      <trkpt lat="43.53529" lon="3.29955">
        <ele>115.9</ele>
        <time>2017-12-09T14:00:05Z</time>
      </trkpt>
      <trkpt lat="43.53531" lon="3.29951">
        <ele>115.9</ele>
        <time>2017-12-09T14:00:06Z</time>
      </trkpt>
      <trkpt lat="43.53533" lon="3.29948">
        <ele>115.9</ele>
        <time>2017-12-09T14:00:07Z</time>
      </trkpt>
      <trkpt lat="43.53536" lon="3.29941">
        <ele>115.9</ele>
        <time>2017-12-09T14:00:09Z</time>
      </trkpt>
      <trkpt lat="43.53537" lon="3.29938">
        <ele>116</ele>
        <time>2017-12-09T14:00:10Z</time>
      </trkpt>
      <trkpt lat="43.53538" lon="3.29934">
        <ele>116</ele>
        <time>2017-12-09T14:00:11Z</time>
      </trkpt>
      <trkpt lat="43.53539" lon="3.29929">
        <ele>116</ele>
        <time>2017-12-09T14:00:12Z</time>
      </trkpt>
      <trkpt lat="43.53541" lon="3.29925">
        <ele>116</ele>
        <time>2017-12-09T14:00:13Z</time>
      </trkpt>
      <trkpt lat="43.53542" lon="3.29922">
        <ele>116</ele>
        <time>2017-12-09T14:00:14Z</time>
      </trkpt>
      <trkpt lat="43.53544" lon="3.29919">
        <ele>116</ele>
        <time>2017-12-09T14:00:15Z</time>
      </trkpt>
      <trkpt lat="43.53546" lon="3.29916">
        <ele>116</ele>
        <time>2017-12-09T14:00:16Z</time>
      </trkpt>
      <trkpt lat="43.53548" lon="3.29913">
        <ele>116</ele>
        <time>2017-12-09T14:00:17Z</time>
      </trkpt>
      <trkpt lat="43.53553" lon="3.29909">
        <ele>116.1</ele>
        <time>2017-12-09T14:00:19Z</time>
      </trkpt>
      <trkpt lat="43.53555" lon="3.29906">
        <ele>116.2</ele>
        <time>2017-12-09T14:00:21Z</time>
      </trkpt>
      <trkpt lat="43.53559" lon="3.29901">
        <ele>116.3</ele>
        <time>2017-12-09T14:00:23Z</time>
      </trkpt>
      <trkpt lat="43.53562" lon="3.29898">
        <ele>116.4</ele>
        <time>2017-12-09T14:00:24Z</time>
      </trkpt>
      <trkpt lat="43.53564" lon="3.29894">
        <ele>116.5</ele>
        <time>2017-12-09T14:00:25Z</time>
      </trkpt>
      <trkpt lat="43.53565" lon="3.29891">
        <ele>116.5</ele>
        <time>2017-12-09T14:00:26Z</time>
      </trkpt>
      <trkpt lat="43.53566" lon="3.29887">
        <ele>116.6</ele>
        <time>2017-12-09T14:00:27Z</time>
      </trkpt>
      <trkpt lat="43.53568" lon="3.29883">
        <ele>116.7</ele>
        <time>2017-12-09T14:00:28Z</time>
      </trkpt>
      <trkpt lat="43.53569" lon="3.2988">
        <ele>116.7</ele>
        <time>2017-12-09T14:00:29Z</time>
      </trkpt>
      <trkpt lat="43.5357" lon="3.29876">
        <ele>116.7</ele>
        <time>2017-12-09T14:00:30Z</time>
      </trkpt>
      <trkpt lat="43.53572" lon="3.29873">
        <ele>116.8</ele>
        <time>2017-12-09T14:00:31Z</time>
      </trkpt>
      <trkpt lat="43.53573" lon="3.2987">
        <ele>116.8</ele>
        <time>2017-12-09T14:00:32Z</time>
      </trkpt>
      <trkpt lat="43.53577" lon="3.29865">
        <ele>116.8</ele>
        <time>2017-12-09T14:00:34Z</time>
      </trkpt>
      <trkpt lat="43.5358" lon="3.2986">
        <ele>116.8</ele>
        <time>2017-12-09T14:00:36Z</time>
      </trkpt>
      <trkpt lat="43.53582" lon="3.29858">
        <ele>116.8</ele>
        <time>2017-12-09T14:00:37Z</time>
      </trkpt>
      <trkpt lat="43.53587" lon="3.29853">
        <ele>116.8</ele>
        <time>2017-12-09T14:00:39Z</time>
      </trkpt>
      <trkpt lat="43.53589" lon="3.29851">
        <ele>116.9</ele>
        <time>2017-12-09T14:00:40Z</time>
      </trkpt>
      <trkpt lat="43.53591" lon="3.29849">
        <ele>116.9</ele>
        <time>2017-12-09T14:00:41Z</time>
      </trkpt>
      <trkpt lat="43.53596" lon="3.29843">
        <ele>117</ele>
        <time>2017-12-09T14:00:43Z</time>
      </trkpt>
      <trkpt lat="43.53599" lon="3.29838">
        <ele>117.2</ele>
        <time>2017-12-09T14:00:45Z</time>
      </trkpt>
      <trkpt lat="43.53601" lon="3.29832">
        <ele>117.3</ele>
        <time>2017-12-09T14:00:47Z</time>
      </trkpt>
      <trkpt lat="43.53603" lon="3.29826">
        <ele>117.5</ele>
        <time>2017-12-09T14:00:49Z</time>
      </trkpt>
      <trkpt lat="43.53605" lon="3.29822">
        <ele>117.6</ele>
        <time>2017-12-09T14:00:50Z</time>
      </trkpt>
      <trkpt lat="43.53608" lon="3.29817">
        <ele>117.8</ele>
        <time>2017-12-09T14:00:52Z</time>
      </trkpt>
      <trkpt lat="43.53611" lon="3.29812">
        <ele>118</ele>
        <time>2017-12-09T14:00:54Z</time>
      </trkpt>
      <trkpt lat="43.53615" lon="3.29807">
        <ele>118.2</ele>
        <time>2017-12-09T14:00:56Z</time>
      </trkpt>
      <trkpt lat="43.53617" lon="3.29805">
        <ele>118.3</ele>
        <time>2017-12-09T14:00:57Z</time>
      </trkpt>
      <trkpt lat="43.53619" lon="3.29803">
        <ele>118.4</ele>
        <time>2017-12-09T14:00:58Z</time>
      </trkpt>
      <trkpt lat="43.53624" lon="3.29799">
        <ele>118.7</ele>
        <time>2017-12-09T14:01:00Z</time>
      </trkpt>
      <trkpt lat="43.53626" lon="3.29796">
        <ele>118.8</ele>
        <time>2017-12-09T14:01:01Z</time>
      </trkpt>
      <trkpt lat="43.53628" lon="3.29793">
        <ele>119</ele>
        <time>2017-12-09T14:01:02Z</time>
      </trkpt>
      <trkpt lat="43.53632" lon="3.29787">
        <ele>119.3</ele>
        <time>2017-12-09T14:01:04Z</time>
      </trkpt>
      <trkpt lat="43.53633" lon="3.29783">
        <ele>119.4</ele>
        <time>2017-12-09T14:01:05Z</time>
      </trkpt>
      <trkpt lat="43.53635" lon="3.2978">
        <ele>119.6</ele>
        <time>2017-12-09T14:01:06Z</time>
      </trkpt>
      <trkpt lat="43.53636" lon="3.29776">
        <ele>119.8</ele>
        <time>2017-12-09T14:01:07Z</time>
      </trkpt>
      <trkpt lat="43.53638" lon="3.29773">
        <ele>119.8</ele>
        <time>2017-12-09T14:01:08Z</time>
      </trkpt>
      <trkpt lat="43.53639" lon="3.29769">
        <ele>119.9</ele>
        <time>2017-12-09T14:01:09Z</time>
      </trkpt>
      <trkpt lat="43.5364" lon="3.29765">
        <ele>120</ele>
        <time>2017-12-09T14:01:10Z</time>
      </trkpt>
      <trkpt lat="43.53641" lon="3.29761">
        <ele>120.2</ele>
        <time>2017-12-09T14:01:11Z</time>
      </trkpt>
      <trkpt lat="43.53642" lon="3.29757">
        <ele>120.3</ele>
        <time>2017-12-09T14:01:12Z</time>
      </trkpt>
      <trkpt lat="43.53643" lon="3.29753">
        <ele>120.4</ele>
        <time>2017-12-09T14:01:13Z</time>
      </trkpt>
      <trkpt lat="43.53644" lon="3.29749">
        <ele>120.5</ele>
        <time>2017-12-09T14:01:14Z</time>
      </trkpt>
      <trkpt lat="43.53645" lon="3.29746">
        <ele>120.6</ele>
        <time>2017-12-09T14:01:15Z</time>
      </trkpt>
      <trkpt lat="43.53646" lon="3.29742">
        <ele>120.7</ele>
        <time>2017-12-09T14:01:16Z</time>
      </trkpt>
      <trkpt lat="43.53648" lon="3.29735">
        <ele>121.1</ele>
        <time>2017-12-09T14:01:18Z</time>
      </trkpt>
      <trkpt lat="43.53651" lon="3.29728">
        <ele>121.3</ele>
        <time>2017-12-09T14:01:20Z</time>
      </trkpt>
      <trkpt lat="43.53652" lon="3.29724">
        <ele>121.3</ele>
        <time>2017-12-09T14:01:21Z</time>
      </trkpt>
      <trkpt lat="43.53653" lon="3.29721">
        <ele>121.4</ele>
        <time>2017-12-09T14:01:22Z</time>
      </trkpt>
      <trkpt lat="43.53654" lon="3.29717">
        <ele>121.4</ele>
        <time>2017-12-09T14:01:23Z</time>
      </trkpt>
      <trkpt lat="43.53656" lon="3.29711">
        <ele>121.5</ele>
        <time>2017-12-09T14:01:25Z</time>
      </trkpt>
      <trkpt lat="43.53658" lon="3.29704">
        <ele>121.6</ele>
        <time>2017-12-09T14:01:27Z</time>
      </trkpt>
      <trkpt lat="43.5366" lon="3.29697">
        <ele>121.8</ele>
        <time>2017-12-09T14:01:29Z</time>
      </trkpt>
      <trkpt lat="43.53662" lon="3.29691">
        <ele>122.1</ele>
        <time>2017-12-09T14:01:31Z</time>
      </trkpt>
      <trkpt lat="43.53663" lon="3.29687">
        <ele>122.2</ele>
        <time>2017-12-09T14:01:32Z</time>
      </trkpt>
      <trkpt lat="43.53665" lon="3.2968">
        <ele>122.6</ele>
        <time>2017-12-09T14:01:34Z</time>
      </trkpt>
      <trkpt lat="43.53667" lon="3.29674">
        <ele>123</ele>
        <time>2017-12-09T14:01:36Z</time>
      </trkpt>
      <trkpt lat="43.53669" lon="3.2967">
        <ele>123.2</ele>
        <time>2017-12-09T14:01:37Z</time>
      </trkpt>
      <trkpt lat="43.5367" lon="3.29667">
        <ele>123.4</ele>
        <time>2017-12-09T14:01:38Z</time>
      </trkpt>
      <trkpt lat="43.53671" lon="3.29664">
        <ele>123.5</ele>
        <time>2017-12-09T14:01:39Z</time>
      </trkpt>
      <trkpt lat="43.53674" lon="3.29657">
        <ele>123.8</ele>
        <time>2017-12-09T14:01:41Z</time>
      </trkpt>
      <trkpt lat="43.53677" lon="3.29652">
        <ele>124.2</ele>
        <time>2017-12-09T14:01:43Z</time>
      </trkpt>
      <trkpt lat="43.53679" lon="3.29649">
        <ele>124.4</ele>
        <time>2017-12-09T14:01:44Z</time>
      </trkpt>
      <trkpt lat="43.53681" lon="3.29646">
        <ele>124.5</ele>
        <time>2017-12-09T14:01:45Z</time>
      </trkpt>
      <trkpt lat="43.53684" lon="3.29641">
        <ele>124.7</ele>
        <time>2017-12-09T14:01:47Z</time>
      </trkpt>
      <trkpt lat="43.53689" lon="3.29636">
        <ele>124.9</ele>
        <time>2017-12-09T14:01:49Z</time>
      </trkpt>
      <trkpt lat="43.53691" lon="3.29633">
        <ele>124.9</ele>
        <time>2017-12-09T14:01:50Z</time>
      </trkpt>
      <trkpt lat="43.53694" lon="3.29631">
        <ele>125</ele>
        <time>2017-12-09T14:01:51Z</time>
      </trkpt>
      <trkpt lat="43.53696" lon="3.29629">
        <ele>125</ele>
        <time>2017-12-09T14:01:52Z</time>
      </trkpt>
      <trkpt lat="43.53699" lon="3.29627">
        <ele>125.1</ele>
        <time>2017-12-09T14:01:53Z</time>
      </trkpt>
      <trkpt lat="43.53702" lon="3.29626">
        <ele>125</ele>
        <time>2017-12-09T14:01:54Z</time>
      </trkpt>
      <trkpt lat="43.53706" lon="3.29623">
        <ele>125</ele>
        <time>2017-12-09T14:01:56Z</time>
      </trkpt>
      <trkpt lat="43.53711" lon="3.2962">
        <ele>125</ele>
        <time>2017-12-09T14:01:58Z</time>
      </trkpt>
      <trkpt lat="43.53716" lon="3.29617">
        <ele>124.9</ele>
        <time>2017-12-09T14:02:00Z</time>
      </trkpt>
      <trkpt lat="43.53721" lon="3.29615">
        <ele>124.7</ele>
        <time>2017-12-09T14:02:02Z</time>
      </trkpt>
      <trkpt lat="43.53726" lon="3.29613">
        <ele>124.5</ele>
        <time>2017-12-09T14:02:04Z</time>
      </trkpt>
      <trkpt lat="43.53729" lon="3.29611">
        <ele>124.4</ele>
        <time>2017-12-09T14:02:05Z</time>
      </trkpt>
      <trkpt lat="43.53731" lon="3.2961">
        <ele>124.2</ele>
        <time>2017-12-09T14:02:06Z</time>
      </trkpt>
      <trkpt lat="43.53734" lon="3.29609">
        <ele>124.1</ele>
        <time>2017-12-09T14:02:07Z</time>
      </trkpt>
      <trkpt lat="43.53739" lon="3.29607">
        <ele>123.8</ele>
        <time>2017-12-09T14:02:09Z</time>
      </trkpt>
      <trkpt lat="43.53741" lon="3.29606">
        <ele>123.7</ele>
        <time>2017-12-09T14:02:10Z</time>
      </trkpt>
      <trkpt lat="43.53746" lon="3.29604">
        <ele>123.5</ele>
        <time>2017-12-09T14:02:12Z</time>
      </trkpt>
      <trkpt lat="43.53751" lon="3.29603">
        <ele>123.3</ele>
        <time>2017-12-09T14:02:14Z</time>
      </trkpt>
      <trkpt lat="43.53756" lon="3.296">
        <ele>123.1</ele>
        <time>2017-12-09T14:02:16Z</time>
      </trkpt>
      <trkpt lat="43.53759" lon="3.29599">
        <ele>123</ele>
        <time>2017-12-09T14:02:17Z</time>
      </trkpt>
      <trkpt lat="43.53762" lon="3.29598">
        <ele>122.8</ele>
        <time>2017-12-09T14:02:18Z</time>
      </trkpt>
      <trkpt lat="43.53764" lon="3.29597">
        <ele>122.8</ele>
        <time>2017-12-09T14:02:19Z</time>
      </trkpt>
      <trkpt lat="43.53767" lon="3.29596">
        <ele>122.7</ele>
        <time>2017-12-09T14:02:20Z</time>
      </trkpt>
      <trkpt lat="43.5377" lon="3.29595">
        <ele>122.6</ele>
        <time>2017-12-09T14:02:21Z</time>
      </trkpt>
      <trkpt lat="43.53775" lon="3.29593">
        <ele>122.4</ele>
        <time>2017-12-09T14:02:23Z</time>
      </trkpt>
      <trkpt lat="43.5378" lon="3.29593">
        <ele>122.3</ele>
        <time>2017-12-09T14:02:25Z</time>
      </trkpt>
      <trkpt lat="43.53785" lon="3.29593">
        <ele>122.1</ele>
        <time>2017-12-09T14:02:27Z</time>
      </trkpt>
      <trkpt lat="43.53788" lon="3.29593">
        <ele>122.1</ele>
        <time>2017-12-09T14:02:28Z</time>
      </trkpt>
      <trkpt lat="43.53792" lon="3.29594">
        <ele>122.1</ele>
        <time>2017-12-09T14:02:30Z</time>
      </trkpt>
      <trkpt lat="43.53797" lon="3.29595">
        <ele>122</ele>
        <time>2017-12-09T14:02:32Z</time>
      </trkpt>
      <trkpt lat="43.538" lon="3.29596">
        <ele>121.9</ele>
        <time>2017-12-09T14:02:33Z</time>
      </trkpt>
      <trkpt lat="43.53805" lon="3.29597">
        <ele>122</ele>
        <time>2017-12-09T14:02:35Z</time>
      </trkpt>
      <trkpt lat="43.53808" lon="3.29598">
        <ele>122.1</ele>
        <time>2017-12-09T14:02:36Z</time>
      </trkpt>
      <trkpt lat="43.5381" lon="3.29599">
        <ele>122.1</ele>
        <time>2017-12-09T14:02:37Z</time>
      </trkpt>
      <trkpt lat="43.53813" lon="3.29599">
        <ele>122.2</ele>
        <time>2017-12-09T14:02:38Z</time>
      </trkpt>
      <trkpt lat="43.53816" lon="3.29599">
        <ele>122.2</ele>
        <time>2017-12-09T14:02:39Z</time>
      </trkpt>
      <trkpt lat="43.53821" lon="3.29601">
        <ele>122.5</ele>
        <time>2017-12-09T14:02:41Z</time>
      </trkpt>
      <trkpt lat="43.53826" lon="3.29603">
        <ele>122.8</ele>
        <time>2017-12-09T14:02:43Z</time>
      </trkpt>
      <trkpt lat="43.53828" lon="3.29604">
        <ele>123</ele>
        <time>2017-12-09T14:02:44Z</time>
      </trkpt>
      <trkpt lat="43.53831" lon="3.29605">
        <ele>123.1</ele>
        <time>2017-12-09T14:02:45Z</time>
      </trkpt>
      <trkpt lat="43.53836" lon="3.29607">
        <ele>123.5</ele>
        <time>2017-12-09T14:02:47Z</time>
      </trkpt>
      <trkpt lat="43.53841" lon="3.2961">
        <ele>123.9</ele>
        <time>2017-12-09T14:02:49Z</time>
      </trkpt>
      <trkpt lat="43.53845" lon="3.29613">
        <ele>124.2</ele>
        <time>2017-12-09T14:02:51Z</time>
      </trkpt>
      <trkpt lat="43.53848" lon="3.29615">
        <ele>124.4</ele>
        <time>2017-12-09T14:02:52Z</time>
      </trkpt>
      <trkpt lat="43.5385" lon="3.29618">
        <ele>124.5</ele>
        <time>2017-12-09T14:02:53Z</time>
      </trkpt>
      <trkpt lat="43.53852" lon="3.2962">
        <ele>124.6</ele>
        <time>2017-12-09T14:02:54Z</time>
      </trkpt>
      <trkpt lat="43.53854" lon="3.29623">
        <ele>124.7</ele>
        <time>2017-12-09T14:02:55Z</time>
      </trkpt>
      <trkpt lat="43.53858" lon="3.29627">
        <ele>124.9</ele>
        <time>2017-12-09T14:02:57Z</time>
      </trkpt>
      <trkpt lat="43.53861" lon="3.29629">
        <ele>125.1</ele>
        <time>2017-12-09T14:02:58Z</time>
      </trkpt>
      <trkpt lat="43.53863" lon="3.29632">
        <ele>125.2</ele>
        <time>2017-12-09T14:02:59Z</time>
      </trkpt>
      <trkpt lat="43.53867" lon="3.29635">
        <ele>125.5</ele>
        <time>2017-12-09T14:03:01Z</time>
      </trkpt>
      <trkpt lat="43.53872" lon="3.29639">
        <ele>125.7</ele>
        <time>2017-12-09T14:03:03Z</time>
      </trkpt>
      <trkpt lat="43.53876" lon="3.29643">
        <ele>125.9</ele>
        <time>2017-12-09T14:03:05Z</time>
      </trkpt>
      <trkpt lat="43.53881" lon="3.29647">
        <ele>126.2</ele>
        <time>2017-12-09T14:03:07Z</time>
      </trkpt>
      <trkpt lat="43.53886" lon="3.2965">
        <ele>126.6</ele>
        <time>2017-12-09T14:03:09Z</time>
      </trkpt>
      <trkpt lat="43.53891" lon="3.29653">
        <ele>126.8</ele>
        <time>2017-12-09T14:03:11Z</time>
      </trkpt>
      <trkpt lat="43.53896" lon="3.29654">
        <ele>127</ele>
        <time>2017-12-09T14:03:13Z</time>
      </trkpt>
      <trkpt lat="43.53899" lon="3.29654">
        <ele>127.1</ele>
        <time>2017-12-09T14:03:14Z</time>
      </trkpt>
      <trkpt lat="43.53904" lon="3.2965">
        <ele>127.2</ele>
        <time>2017-12-09T14:03:16Z</time>
      </trkpt>
      <trkpt lat="43.53906" lon="3.29648">
        <ele>127.3</ele>
        <time>2017-12-09T14:03:17Z</time>
      </trkpt>
      <trkpt lat="43.53908" lon="3.29645">
        <ele>127.3</ele>
        <time>2017-12-09T14:03:18Z</time>
      </trkpt>
      <trkpt lat="43.5391" lon="3.29642">
        <ele>127.3</ele>
        <time>2017-12-09T14:03:19Z</time>
      </trkpt>
      <trkpt lat="43.53912" lon="3.29636">
        <ele>127.4</ele>
        <time>2017-12-09T14:03:21Z</time>
      </trkpt>
      <trkpt lat="43.53914" lon="3.29632">
        <ele>127.3</ele>
        <time>2017-12-09T14:03:22Z</time>
      </trkpt>
      <trkpt lat="43.53915" lon="3.29628">
        <ele>127.3</ele>
        <time>2017-12-09T14:03:23Z</time>
      </trkpt>
      <trkpt lat="43.53918" lon="3.29622">
        <ele>127.2</ele>
        <time>2017-12-09T14:03:25Z</time>
      </trkpt>
      <trkpt lat="43.53919" lon="3.29619">
        <ele>127.1</ele>
        <time>2017-12-09T14:03:26Z</time>
      </trkpt>
      <trkpt lat="43.53922" lon="3.29613">
        <ele>127.2</ele>
        <time>2017-12-09T14:03:28Z</time>
      </trkpt>
      <trkpt lat="43.53925" lon="3.29609">
        <ele>127.2</ele>
        <time>2017-12-09T14:03:30Z</time>
      </trkpt>
      <trkpt lat="43.53929" lon="3.29604">
        <ele>127.2</ele>
        <time>2017-12-09T14:03:32Z</time>
      </trkpt>
      <trkpt lat="43.53932" lon="3.29603">
        <ele>127.3</ele>
        <time>2017-12-09T14:03:33Z</time>
      </trkpt>
      <trkpt lat="43.53934" lon="3.29602">
        <ele>127.4</ele>
        <time>2017-12-09T14:03:34Z</time>
      </trkpt>
      <trkpt lat="43.53937" lon="3.29602">
        <ele>127.3</ele>
        <time>2017-12-09T14:03:35Z</time>
      </trkpt>
      <trkpt lat="43.5394" lon="3.29601">
        <ele>127.3</ele>
        <time>2017-12-09T14:03:36Z</time>
      </trkpt>
      <trkpt lat="43.53943" lon="3.296">
        <ele>127.3</ele>
        <time>2017-12-09T14:03:37Z</time>
      </trkpt>
      <trkpt lat="43.53946" lon="3.296">
        <ele>127.4</ele>
        <time>2017-12-09T14:03:38Z</time>
      </trkpt>
      <trkpt lat="43.53949" lon="3.296">
        <ele>127.5</ele>
        <time>2017-12-09T14:03:39Z</time>
      </trkpt>
      <trkpt lat="43.53951" lon="3.29599">
        <ele>127.6</ele>
        <time>2017-12-09T14:03:40Z</time>
      </trkpt>
      <trkpt lat="43.53956" lon="3.296">
        <ele>127.7</ele>
        <time>2017-12-09T14:03:42Z</time>
      </trkpt>
      <trkpt lat="43.53961" lon="3.29599">
        <ele>127.7</ele>
        <time>2017-12-09T14:03:44Z</time>
      </trkpt>
      <trkpt lat="43.53966" lon="3.29599">
        <ele>127.6</ele>
        <time>2017-12-09T14:03:46Z</time>
      </trkpt>
      <trkpt lat="43.53969" lon="3.29598">
        <ele>127.6</ele>
        <time>2017-12-09T14:03:47Z</time>
      </trkpt>
      <trkpt lat="43.53974" lon="3.29598">
        <ele>127.7</ele>
        <time>2017-12-09T14:03:49Z</time>
      </trkpt>
      <trkpt lat="43.53977" lon="3.29598">
        <ele>127.8</ele>
        <time>2017-12-09T14:03:50Z</time>
      </trkpt>
      <trkpt lat="43.5398" lon="3.29598">
        <ele>127.9</ele>
        <time>2017-12-09T14:03:51Z</time>
      </trkpt>
      <trkpt lat="43.53983" lon="3.29599">
        <ele>128</ele>
        <time>2017-12-09T14:03:52Z</time>
      </trkpt>
      <trkpt lat="43.53988" lon="3.29601">
        <ele>128</ele>
        <time>2017-12-09T14:03:54Z</time>
      </trkpt>
      <trkpt lat="43.53992" lon="3.29602">
        <ele>128.2</ele>
        <time>2017-12-09T14:03:56Z</time>
      </trkpt>
      <trkpt lat="43.53996" lon="3.29605">
        <ele>128.5</ele>
        <time>2017-12-09T14:03:58Z</time>
      </trkpt>
      <trkpt lat="43.53998" lon="3.29607">
        <ele>128.7</ele>
        <time>2017-12-09T14:03:59Z</time>
      </trkpt>
      <trkpt lat="43.54001" lon="3.29609">
        <ele>128.9</ele>
        <time>2017-12-09T14:04:00Z</time>
      </trkpt>
      <trkpt lat="43.54004" lon="3.29611">
        <ele>129.2</ele>
        <time>2017-12-09T14:04:01Z</time>
      </trkpt>
      <trkpt lat="43.54006" lon="3.29612">
        <ele>129.4</ele>
        <time>2017-12-09T14:04:02Z</time>
      </trkpt>
      <trkpt lat="43.54009" lon="3.29614">
        <ele>129.5</ele>
        <time>2017-12-09T14:04:03Z</time>
      </trkpt>
      <trkpt lat="43.54012" lon="3.29615">
        <ele>129.6</ele>
        <time>2017-12-09T14:04:04Z</time>
      </trkpt>
      <trkpt lat="43.54015" lon="3.29615">
        <ele>129.8</ele>
        <time>2017-12-09T14:04:05Z</time>
      </trkpt>
      <trkpt lat="43.54018" lon="3.29615">
        <ele>130</ele>
        <time>2017-12-09T14:04:06Z</time>
      </trkpt>
      <trkpt lat="43.54021" lon="3.29614">
        <ele>130.1</ele>
        <time>2017-12-09T14:04:07Z</time>
      </trkpt>
      <trkpt lat="43.54025" lon="3.29613">
        <ele>130.2</ele>
        <time>2017-12-09T14:04:08Z</time>
      </trkpt>
      <trkpt lat="43.54028" lon="3.2961">
        <ele>130.1</ele>
        <time>2017-12-09T14:04:09Z</time>
      </trkpt>
      <trkpt lat="43.5403" lon="3.29608">
        <ele>130</ele>
        <time>2017-12-09T14:04:10Z</time>
      </trkpt>
      <trkpt lat="43.54032" lon="3.29605">
        <ele>129.9</ele>
        <time>2017-12-09T14:04:11Z</time>
      </trkpt>
      <trkpt lat="43.54036" lon="3.29599">
        <ele>129.7</ele>
        <time>2017-12-09T14:04:13Z</time>
      </trkpt>
      <trkpt lat="43.54038" lon="3.29596">
        <ele>129.5</ele>
        <time>2017-12-09T14:04:14Z</time>
      </trkpt>
      <trkpt lat="43.54039" lon="3.29593">
        <ele>129.3</ele>
        <time>2017-12-09T14:04:15Z</time>
      </trkpt>
      <trkpt lat="43.54042" lon="3.29587">
        <ele>129.2</ele>
        <time>2017-12-09T14:04:17Z</time>
      </trkpt>
      <trkpt lat="43.54045" lon="3.29582">
        <ele>129</ele>
        <time>2017-12-09T14:04:19Z</time>
      </trkpt>
      <trkpt lat="43.54047" lon="3.29577">
        <ele>128.8</ele>
        <time>2017-12-09T14:04:21Z</time>
      </trkpt>
      <trkpt lat="43.5405" lon="3.29571">
        <ele>128.6</ele>
        <time>2017-12-09T14:04:23Z</time>
      </trkpt>
      <trkpt lat="43.54052" lon="3.29569">
        <ele>128.5</ele>
        <time>2017-12-09T14:04:24Z</time>
      </trkpt>
      <trkpt lat="43.54054" lon="3.29565">
        <ele>128.4</ele>
        <time>2017-12-09T14:04:25Z</time>
      </trkpt>
      <trkpt lat="43.54056" lon="3.29562">
        <ele>128.4</ele>
        <time>2017-12-09T14:04:26Z</time>
      </trkpt>
      <trkpt lat="43.54058" lon="3.29559">
        <ele>128.3</ele>
        <time>2017-12-09T14:04:27Z</time>
      </trkpt>
      <trkpt lat="43.5406" lon="3.29556">
        <ele>128.2</ele>
        <time>2017-12-09T14:04:28Z</time>
      </trkpt>
      <trkpt lat="43.54062" lon="3.29552">
        <ele>128.2</ele>
        <time>2017-12-09T14:04:29Z</time>
      </trkpt>
      <trkpt lat="43.54065" lon="3.29548">
        <ele>128.1</ele>
        <time>2017-12-09T14:04:30Z</time>
      </trkpt>
      <trkpt lat="43.54068" lon="3.29544">
        <ele>128.1</ele>
        <time>2017-12-09T14:04:31Z</time>
      </trkpt>
      <trkpt lat="43.54071" lon="3.2954">
        <ele>128</ele>
        <time>2017-12-09T14:04:32Z</time>
      </trkpt>
      <trkpt lat="43.54074" lon="3.29535">
        <ele>128</ele>
        <time>2017-12-09T14:04:33Z</time>
      </trkpt>
      <trkpt lat="43.54077" lon="3.2953">
        <ele>128.1</ele>
        <time>2017-12-09T14:04:34Z</time>
      </trkpt>
      <trkpt lat="43.5408" lon="3.29526">
        <ele>128.2</ele>
        <time>2017-12-09T14:04:35Z</time>
      </trkpt>
      <trkpt lat="43.54084" lon="3.29521">
        <ele>128.4</ele>
        <time>2017-12-09T14:04:36Z</time>
      </trkpt>
      <trkpt lat="43.54088" lon="3.29516">
        <ele>128.6</ele>
        <time>2017-12-09T14:04:37Z</time>
      </trkpt>
      <trkpt lat="43.54091" lon="3.29512">
        <ele>128.8</ele>
        <time>2017-12-09T14:04:38Z</time>
      </trkpt>
      <trkpt lat="43.54094" lon="3.29508">
        <ele>129</ele>
        <time>2017-12-09T14:04:39Z</time>
      </trkpt>
      <trkpt lat="43.54097" lon="3.29504">
        <ele>129.2</ele>
        <time>2017-12-09T14:04:40Z</time>
      </trkpt>
      <trkpt lat="43.541" lon="3.29501">
        <ele>129.4</ele>
        <time>2017-12-09T14:04:41Z</time>
      </trkpt>
      <trkpt lat="43.54103" lon="3.29497">
        <ele>129.7</ele>
        <time>2017-12-09T14:04:42Z</time>
      </trkpt>
      <trkpt lat="43.54105" lon="3.29494">
        <ele>129.9</ele>
        <time>2017-12-09T14:04:43Z</time>
      </trkpt>
      <trkpt lat="43.54107" lon="3.29491">
        <ele>130.1</ele>
        <time>2017-12-09T14:04:44Z</time>
      </trkpt>
      <trkpt lat="43.5411" lon="3.29488">
        <ele>130.2</ele>
        <time>2017-12-09T14:04:45Z</time>
      </trkpt>
      <trkpt lat="43.54112" lon="3.29485">
        <ele>130.4</ele>
        <time>2017-12-09T14:04:46Z</time>
      </trkpt>
      <trkpt lat="43.54114" lon="3.29482">
        <ele>130.6</ele>
        <time>2017-12-09T14:04:47Z</time>
      </trkpt>
      <trkpt lat="43.54118" lon="3.29478">
        <ele>130.7</ele>
        <time>2017-12-09T14:04:49Z</time>
      </trkpt>
      <trkpt lat="43.5412" lon="3.29475">
        <ele>130.8</ele>
        <time>2017-12-09T14:04:50Z</time>
      </trkpt>
      <trkpt lat="43.54123" lon="3.2947">
        <ele>131</ele>
        <time>2017-12-09T14:04:52Z</time>
      </trkpt>
      <trkpt lat="43.54126" lon="3.29465">
        <ele>131.1</ele>
        <time>2017-12-09T14:04:54Z</time>
      </trkpt>
      <trkpt lat="43.5413" lon="3.29461">
        <ele>131.4</ele>
        <time>2017-12-09T14:04:56Z</time>
      </trkpt>
      <trkpt lat="43.54133" lon="3.29457">
        <ele>131.7</ele>
        <time>2017-12-09T14:04:58Z</time>
      </trkpt>
      <trkpt lat="43.54136" lon="3.29452">
        <ele>132.1</ele>
        <time>2017-12-09T14:05:00Z</time>
      </trkpt>
      <trkpt lat="43.54139" lon="3.29448">
        <ele>132.4</ele>
        <time>2017-12-09T14:05:02Z</time>
      </trkpt>
      <trkpt lat="43.54142" lon="3.29445">
        <ele>132.8</ele>
        <time>2017-12-09T14:05:04Z</time>
      </trkpt>
      <trkpt lat="43.54144" lon="3.29443">
        <ele>133</ele>
        <time>2017-12-09T14:05:05Z</time>
      </trkpt>
      <trkpt lat="43.54148" lon="3.29439">
        <ele>133.5</ele>
        <time>2017-12-09T14:05:07Z</time>
      </trkpt>
      <trkpt lat="43.54152" lon="3.29434">
        <ele>134</ele>
        <time>2017-12-09T14:05:09Z</time>
      </trkpt>
      <trkpt lat="43.54154" lon="3.29431">
        <ele>134.2</ele>
        <time>2017-12-09T14:05:10Z</time>
      </trkpt>
      <trkpt lat="43.54158" lon="3.29426">
        <ele>134.3</ele>
        <time>2017-12-09T14:05:12Z</time>
      </trkpt>
      <trkpt lat="43.5416" lon="3.29423">
        <ele>134.4</ele>
        <time>2017-12-09T14:05:13Z</time>
      </trkpt>
      <trkpt lat="43.54162" lon="3.29421">
        <ele>134.5</ele>
        <time>2017-12-09T14:05:14Z</time>
      </trkpt>
      <trkpt lat="43.54164" lon="3.29418">
        <ele>134.7</ele>
        <time>2017-12-09T14:05:15Z</time>
      </trkpt>
      <trkpt lat="43.54166" lon="3.29416">
        <ele>134.8</ele>
        <time>2017-12-09T14:05:16Z</time>
      </trkpt>
      <trkpt lat="43.5417" lon="3.29411">
        <ele>135.1</ele>
        <time>2017-12-09T14:05:18Z</time>
      </trkpt>
      <trkpt lat="43.54172" lon="3.29408">
        <ele>135.3</ele>
        <time>2017-12-09T14:05:19Z</time>
      </trkpt>
      <trkpt lat="43.54176" lon="3.29403">
        <ele>135.6</ele>
        <time>2017-12-09T14:05:21Z</time>
      </trkpt>
      <trkpt lat="43.54179" lon="3.29398">
        <ele>135.9</ele>
        <time>2017-12-09T14:05:23Z</time>
      </trkpt>
      <trkpt lat="43.54181" lon="3.29395">
        <ele>136.1</ele>
        <time>2017-12-09T14:05:24Z</time>
      </trkpt>
      <trkpt lat="43.54183" lon="3.29393">
        <ele>136.3</ele>
        <time>2017-12-09T14:05:25Z</time>
      </trkpt>
      <trkpt lat="43.54187" lon="3.29388">
        <ele>136.5</ele>
        <time>2017-12-09T14:05:27Z</time>
      </trkpt>
      <trkpt lat="43.54189" lon="3.29385">
        <ele>136.6</ele>
        <time>2017-12-09T14:05:28Z</time>
      </trkpt>
      <trkpt lat="43.54191" lon="3.29382">
        <ele>136.7</ele>
        <time>2017-12-09T14:05:29Z</time>
      </trkpt>
      <trkpt lat="43.54195" lon="3.29377">
        <ele>136.9</ele>
        <time>2017-12-09T14:05:31Z</time>
      </trkpt>
      <trkpt lat="43.54198" lon="3.29373">
        <ele>137.1</ele>
        <time>2017-12-09T14:05:33Z</time>
      </trkpt>
      <trkpt lat="43.54202" lon="3.29368">
        <ele>136.9</ele>
        <time>2017-12-09T14:05:35Z</time>
      </trkpt>
      <trkpt lat="43.54206" lon="3.29366">
        <ele>136.9</ele>
        <time>2017-12-09T14:05:36Z</time>
      </trkpt>
      <trkpt lat="43.54208" lon="3.29363">
        <ele>136.9</ele>
        <time>2017-12-09T14:05:37Z</time>
      </trkpt>
      <trkpt lat="43.54212" lon="3.29361">
        <ele>136.9</ele>
        <time>2017-12-09T14:05:39Z</time>
      </trkpt>
      <trkpt lat="43.54215" lon="3.29359">
        <ele>136.9</ele>
        <time>2017-12-09T14:05:40Z</time>
      </trkpt>
      <trkpt lat="43.5422" lon="3.29356">
        <ele>137</ele>
        <time>2017-12-09T14:05:42Z</time>
      </trkpt>
      <trkpt lat="43.54223" lon="3.29354">
        <ele>137.1</ele>
        <time>2017-12-09T14:05:43Z</time>
      </trkpt>
      <trkpt lat="43.54225" lon="3.29353">
        <ele>137.3</ele>
        <time>2017-12-09T14:05:44Z</time>
      </trkpt>
      <trkpt lat="43.54231" lon="3.29351">
        <ele>137.6</ele>
        <time>2017-12-09T14:05:46Z</time>
      </trkpt>
      <trkpt lat="43.54233" lon="3.2935">
        <ele>137.7</ele>
        <time>2017-12-09T14:05:47Z</time>
      </trkpt>
      <trkpt lat="43.54236" lon="3.29349">
        <ele>137.7</ele>
        <time>2017-12-09T14:05:48Z</time>
      </trkpt>
      <trkpt lat="43.5424" lon="3.29348">
        <ele>137.8</ele>
        <time>2017-12-09T14:05:49Z</time>
      </trkpt>
      <trkpt lat="43.54243" lon="3.29348">
        <ele>137.9</ele>
        <time>2017-12-09T14:05:50Z</time>
      </trkpt>
      <trkpt lat="43.54246" lon="3.29347">
        <ele>138.1</ele>
        <time>2017-12-09T14:05:51Z</time>
      </trkpt>
      <trkpt lat="43.54249" lon="3.29346">
        <ele>138.1</ele>
        <time>2017-12-09T14:05:52Z</time>
      </trkpt>
      <trkpt lat="43.54255" lon="3.29344">
        <ele>137.9</ele>
        <time>2017-12-09T14:05:54Z</time>
      </trkpt>
      <trkpt lat="43.54258" lon="3.29343">
        <ele>137.9</ele>
        <time>2017-12-09T14:05:55Z</time>
      </trkpt>
      <trkpt lat="43.54261" lon="3.29341">
        <ele>137.8</ele>
        <time>2017-12-09T14:05:56Z</time>
      </trkpt>
      <trkpt lat="43.54264" lon="3.29339">
        <ele>137.9</ele>
        <time>2017-12-09T14:05:57Z</time>
      </trkpt>
      <trkpt lat="43.54267" lon="3.29338">
        <ele>138.1</ele>
        <time>2017-12-09T14:05:58Z</time>
      </trkpt>
      <trkpt lat="43.5427" lon="3.29337">
        <ele>137.9</ele>
        <time>2017-12-09T14:05:59Z</time>
      </trkpt>
      <trkpt lat="43.54273" lon="3.29336">
        <ele>137.9</ele>
        <time>2017-12-09T14:06:00Z</time>
      </trkpt>
      <trkpt lat="43.54276" lon="3.29336">
        <ele>138</ele>
        <time>2017-12-09T14:06:01Z</time>
      </trkpt>
      <trkpt lat="43.54279" lon="3.29336">
        <ele>138.1</ele>
        <time>2017-12-09T14:06:02Z</time>
      </trkpt>
      <trkpt lat="43.54283" lon="3.29337">
        <ele>138.3</ele>
        <time>2017-12-09T14:06:03Z</time>
      </trkpt>
      <trkpt lat="43.54286" lon="3.29339">
        <ele>138.4</ele>
        <time>2017-12-09T14:06:04Z</time>
      </trkpt>
      <trkpt lat="43.5429" lon="3.29341">
        <ele>138.6</ele>
        <time>2017-12-09T14:06:05Z</time>
      </trkpt>
      <trkpt lat="43.54293" lon="3.29343">
        <ele>138.8</ele>
        <time>2017-12-09T14:06:06Z</time>
      </trkpt>
      <trkpt lat="43.54296" lon="3.29345">
        <ele>139</ele>
        <time>2017-12-09T14:06:07Z</time>
      </trkpt>
      <trkpt lat="43.54299" lon="3.29347">
        <ele>139.2</ele>
        <time>2017-12-09T14:06:08Z</time>
      </trkpt>
      <trkpt lat="43.54302" lon="3.29348">
        <ele>139.4</ele>
        <time>2017-12-09T14:06:09Z</time>
      </trkpt>
      <trkpt lat="43.54305" lon="3.2935">
        <ele>139.5</ele>
        <time>2017-12-09T14:06:10Z</time>
      </trkpt>
      <trkpt lat="43.54308" lon="3.29352">
        <ele>139.6</ele>
        <time>2017-12-09T14:06:11Z</time>
      </trkpt>
      <trkpt lat="43.54311" lon="3.29354">
        <ele>139.8</ele>
        <time>2017-12-09T14:06:12Z</time>
      </trkpt>
      <trkpt lat="43.54314" lon="3.29356">
        <ele>140</ele>
        <time>2017-12-09T14:06:13Z</time>
      </trkpt>
      <trkpt lat="43.54316" lon="3.29358">
        <ele>140.1</ele>
        <time>2017-12-09T14:06:14Z</time>
      </trkpt>
      <trkpt lat="43.54319" lon="3.2936">
        <ele>140.2</ele>
        <time>2017-12-09T14:06:15Z</time>
      </trkpt>
      <trkpt lat="43.54322" lon="3.29361">
        <ele>140.4</ele>
        <time>2017-12-09T14:06:16Z</time>
      </trkpt>
      <trkpt lat="43.54325" lon="3.29362">
        <ele>140.4</ele>
        <time>2017-12-09T14:06:17Z</time>
      </trkpt>
      <trkpt lat="43.54328" lon="3.29362">
        <ele>140.3</ele>
        <time>2017-12-09T14:06:18Z</time>
      </trkpt>
      <trkpt lat="43.54331" lon="3.29363">
        <ele>140.3</ele>
        <time>2017-12-09T14:06:19Z</time>
      </trkpt>
      <trkpt lat="43.54335" lon="3.29363">
        <ele>140.2</ele>
        <time>2017-12-09T14:06:20Z</time>
      </trkpt>
      <trkpt lat="43.5434" lon="3.29363">
        <ele>140.2</ele>
        <time>2017-12-09T14:06:22Z</time>
      </trkpt>
      <trkpt lat="43.54343" lon="3.29363">
        <ele>140.1</ele>
        <time>2017-12-09T14:06:23Z</time>
      </trkpt>
      <trkpt lat="43.54346" lon="3.29363">
        <ele>140</ele>
        <time>2017-12-09T14:06:24Z</time>
      </trkpt>
      <trkpt lat="43.54349" lon="3.29363">
        <ele>139.9</ele>
        <time>2017-12-09T14:06:25Z</time>
      </trkpt>
      <trkpt lat="43.54352" lon="3.29363">
        <ele>139.9</ele>
        <time>2017-12-09T14:06:26Z</time>
      </trkpt>
      <trkpt lat="43.54355" lon="3.29363">
        <ele>139.8</ele>
        <time>2017-12-09T14:06:27Z</time>
      </trkpt>
      <trkpt lat="43.54358" lon="3.29363">
        <ele>139.7</ele>
        <time>2017-12-09T14:06:28Z</time>
      </trkpt>
      <trkpt lat="43.54362" lon="3.29363">
        <ele>139.6</ele>
        <time>2017-12-09T14:06:29Z</time>
      </trkpt>
      <trkpt lat="43.54366" lon="3.29363">
        <ele>139.5</ele>
        <time>2017-12-09T14:06:30Z</time>
      </trkpt>
      <trkpt lat="43.5437" lon="3.29363">
        <ele>139.3</ele>
        <time>2017-12-09T14:06:31Z</time>
      </trkpt>
      <trkpt lat="43.54374" lon="3.29363">
        <ele>139.2</ele>
        <time>2017-12-09T14:06:32Z</time>
      </trkpt>
      <trkpt lat="43.54378" lon="3.29363">
        <ele>139</ele>
        <time>2017-12-09T14:06:33Z</time>
      </trkpt>
      <trkpt lat="43.54382" lon="3.29364">
        <ele>138.9</ele>
        <time>2017-12-09T14:06:34Z</time>
      </trkpt>
      <trkpt lat="43.54386" lon="3.29365">
        <ele>138.8</ele>
        <time>2017-12-09T14:06:35Z</time>
      </trkpt>
      <trkpt lat="43.54391" lon="3.29365">
        <ele>138.9</ele>
        <time>2017-12-09T14:06:36Z</time>
      </trkpt>
      <trkpt lat="43.54394" lon="3.29366">
        <ele>138.9</ele>
        <time>2017-12-09T14:06:37Z</time>
      </trkpt>
      <trkpt lat="43.54398" lon="3.29366">
        <ele>139</ele>
        <time>2017-12-09T14:06:38Z</time>
      </trkpt>
      <trkpt lat="43.54401" lon="3.29367">
        <ele>139</ele>
        <time>2017-12-09T14:06:39Z</time>
      </trkpt>
      <trkpt lat="43.54405" lon="3.29368">
        <ele>139.1</ele>
        <time>2017-12-09T14:06:40Z</time>
      </trkpt>
      <trkpt lat="43.54408" lon="3.29369">
        <ele>139.2</ele>
        <time>2017-12-09T14:06:41Z</time>
      </trkpt>
      <trkpt lat="43.54412" lon="3.29371">
        <ele>139.4</ele>
        <time>2017-12-09T14:06:42Z</time>
      </trkpt>
      <trkpt lat="43.54415" lon="3.29372">
        <ele>139.6</ele>
        <time>2017-12-09T14:06:43Z</time>
      </trkpt>
      <trkpt lat="43.54418" lon="3.29374">
        <ele>139.7</ele>
        <time>2017-12-09T14:06:44Z</time>
      </trkpt>
      <trkpt lat="43.54421" lon="3.29376">
        <ele>139.9</ele>
        <time>2017-12-09T14:06:45Z</time>
      </trkpt>
      <trkpt lat="43.54423" lon="3.29378">
        <ele>140</ele>
        <time>2017-12-09T14:06:46Z</time>
      </trkpt>
      <trkpt lat="43.54426" lon="3.2938">
        <ele>140.2</ele>
        <time>2017-12-09T14:06:47Z</time>
      </trkpt>
      <trkpt lat="43.54429" lon="3.29383">
        <ele>140.4</ele>
        <time>2017-12-09T14:06:48Z</time>
      </trkpt>
      <trkpt lat="43.54431" lon="3.29386">
        <ele>140.6</ele>
        <time>2017-12-09T14:06:49Z</time>
      </trkpt>
      <trkpt lat="43.54434" lon="3.29389">
        <ele>140.8</ele>
        <time>2017-12-09T14:06:50Z</time>
      </trkpt>
      <trkpt lat="43.54436" lon="3.29391">
        <ele>141</ele>
        <time>2017-12-09T14:06:51Z</time>
      </trkpt>
      <trkpt lat="43.54439" lon="3.29393">
        <ele>141.1</ele>
        <time>2017-12-09T14:06:52Z</time>
      </trkpt>
      <trkpt lat="43.54442" lon="3.29395">
        <ele>141.3</ele>
        <time>2017-12-09T14:06:53Z</time>
      </trkpt>
      <trkpt lat="43.54445" lon="3.29397">
        <ele>141.5</ele>
        <time>2017-12-09T14:06:54Z</time>
      </trkpt>
      <trkpt lat="43.54448" lon="3.29398">
        <ele>141.6</ele>
        <time>2017-12-09T14:06:55Z</time>
      </trkpt>
      <trkpt lat="43.54451" lon="3.29399">
        <ele>141.7</ele>
        <time>2017-12-09T14:06:56Z</time>
      </trkpt>
      <trkpt lat="43.54454" lon="3.294">
        <ele>141.9</ele>
        <time>2017-12-09T14:06:57Z</time>
      </trkpt>
      <trkpt lat="43.54457" lon="3.29401">
        <ele>142</ele>
        <time>2017-12-09T14:06:58Z</time>
      </trkpt>
      <trkpt lat="43.5446" lon="3.29402">
        <ele>142.2</ele>
        <time>2017-12-09T14:06:59Z</time>
      </trkpt>
      <trkpt lat="43.54463" lon="3.29403">
        <ele>142.4</ele>
        <time>2017-12-09T14:07:00Z</time>
      </trkpt>
      <trkpt lat="43.54466" lon="3.29403">
        <ele>142.6</ele>
        <time>2017-12-09T14:07:01Z</time>
      </trkpt>
      <trkpt lat="43.54469" lon="3.29404">
        <ele>142.8</ele>
        <time>2017-12-09T14:07:02Z</time>
      </trkpt>
      <trkpt lat="43.54472" lon="3.29405">
        <ele>143.1</ele>
        <time>2017-12-09T14:07:03Z</time>
      </trkpt>
      <trkpt lat="43.54475" lon="3.29406">
        <ele>143.4</ele>
        <time>2017-12-09T14:07:04Z</time>
      </trkpt>
      <trkpt lat="43.54478" lon="3.29407">
        <ele>143.6</ele>
        <time>2017-12-09T14:07:05Z</time>
      </trkpt>
      <trkpt lat="43.54481" lon="3.29408">
        <ele>143.9</ele>
        <time>2017-12-09T14:07:06Z</time>
      </trkpt>
      <trkpt lat="43.54484" lon="3.29409">
        <ele>144.2</ele>
        <time>2017-12-09T14:07:07Z</time>
      </trkpt>
      <trkpt lat="43.54486" lon="3.29411">
        <ele>144.5</ele>
        <time>2017-12-09T14:07:08Z</time>
      </trkpt>
      <trkpt lat="43.54489" lon="3.29412">
        <ele>144.8</ele>
        <time>2017-12-09T14:07:09Z</time>
      </trkpt>
      <trkpt lat="43.54492" lon="3.29414">
        <ele>145.1</ele>
        <time>2017-12-09T14:07:10Z</time>
      </trkpt>
      <trkpt lat="43.54495" lon="3.29415">
        <ele>145.4</ele>
        <time>2017-12-09T14:07:11Z</time>
      </trkpt>
      <trkpt lat="43.54497" lon="3.29417">
        <ele>145.7</ele>
        <time>2017-12-09T14:07:12Z</time>
      </trkpt>
      <trkpt lat="43.545" lon="3.29419">
        <ele>146.1</ele>
        <time>2017-12-09T14:07:13Z</time>
      </trkpt>
      <trkpt lat="43.54503" lon="3.2942">
        <ele>146.4</ele>
        <time>2017-12-09T14:07:14Z</time>
      </trkpt>
      <trkpt lat="43.54505" lon="3.29422">
        <ele>146.7</ele>
        <time>2017-12-09T14:07:15Z</time>
      </trkpt>
      <trkpt lat="43.5451" lon="3.29426">
        <ele>147.2</ele>
        <time>2017-12-09T14:07:17Z</time>
      </trkpt>
      <trkpt lat="43.54513" lon="3.29427">
        <ele>147.5</ele>
        <time>2017-12-09T14:07:18Z</time>
      </trkpt>
      <trkpt lat="43.54516" lon="3.29428">
        <ele>147.8</ele>
        <time>2017-12-09T14:07:19Z</time>
      </trkpt>
      <trkpt lat="43.54519" lon="3.29428">
        <ele>148</ele>
        <time>2017-12-09T14:07:20Z</time>
      </trkpt>
      <trkpt lat="43.54522" lon="3.29428">
        <ele>148.2</ele>
        <time>2017-12-09T14:07:21Z</time>
      </trkpt>
      <trkpt lat="43.54524" lon="3.29425">
        <ele>148.4</ele>
        <time>2017-12-09T14:07:22Z</time>
      </trkpt>
      <trkpt lat="43.54525" lon="3.29421">
        <ele>148.6</ele>
        <time>2017-12-09T14:07:23Z</time>
      </trkpt>
      <trkpt lat="43.54525" lon="3.29418">
        <ele>148.9</ele>
        <time>2017-12-09T14:07:24Z</time>
      </trkpt>
      <trkpt lat="43.54525" lon="3.29414">
        <ele>149.1</ele>
        <time>2017-12-09T14:07:25Z</time>
      </trkpt>
      <trkpt lat="43.54525" lon="3.29406">
        <ele>149.5</ele>
        <time>2017-12-09T14:07:27Z</time>
      </trkpt>
      <trkpt lat="43.54525" lon="3.29399">
        <ele>149.9</ele>
        <time>2017-12-09T14:07:29Z</time>
      </trkpt>
      <trkpt lat="43.54526" lon="3.29395">
        <ele>150</ele>
        <time>2017-12-09T14:07:30Z</time>
      </trkpt>
      <trkpt lat="43.54526" lon="3.29392">
        <ele>150.2</ele>
        <time>2017-12-09T14:07:31Z</time>
      </trkpt>
      <trkpt lat="43.54527" lon="3.29384">
        <ele>150.5</ele>
        <time>2017-12-09T14:07:33Z</time>
      </trkpt>
      <trkpt lat="43.54527" lon="3.29377">
        <ele>150.8</ele>
        <time>2017-12-09T14:07:35Z</time>
      </trkpt>
      <trkpt lat="43.54528" lon="3.2937">
        <ele>151</ele>
        <time>2017-12-09T14:07:37Z</time>
      </trkpt>
      <trkpt lat="43.54528" lon="3.29366">
        <ele>151.1</ele>
        <time>2017-12-09T14:07:38Z</time>
      </trkpt>
      <trkpt lat="43.54529" lon="3.29359">
        <ele>151.3</ele>
        <time>2017-12-09T14:07:40Z</time>
      </trkpt>
      <trkpt lat="43.5453" lon="3.29352">
        <ele>151.4</ele>
        <time>2017-12-09T14:07:42Z</time>
      </trkpt>
      <trkpt lat="43.5453" lon="3.29345">
        <ele>151.4</ele>
        <time>2017-12-09T14:07:44Z</time>
      </trkpt>
      <trkpt lat="43.54531" lon="3.29341">
        <ele>151.5</ele>
        <time>2017-12-09T14:07:45Z</time>
      </trkpt>
      <trkpt lat="43.54532" lon="3.29337">
        <ele>151.5</ele>
        <time>2017-12-09T14:07:46Z</time>
      </trkpt>
      <trkpt lat="43.54532" lon="3.29333">
        <ele>151.6</ele>
        <time>2017-12-09T14:07:47Z</time>
      </trkpt>
      <trkpt lat="43.54533" lon="3.29329">
        <ele>151.6</ele>
        <time>2017-12-09T14:07:48Z</time>
      </trkpt>
      <trkpt lat="43.54534" lon="3.29324">
        <ele>151.6</ele>
        <time>2017-12-09T14:07:49Z</time>
      </trkpt>
      <trkpt lat="43.54534" lon="3.2932">
        <ele>151.7</ele>
        <time>2017-12-09T14:07:50Z</time>
      </trkpt>
      <trkpt lat="43.54535" lon="3.29315">
        <ele>151.7</ele>
        <time>2017-12-09T14:07:51Z</time>
      </trkpt>
      <trkpt lat="43.54536" lon="3.29311">
        <ele>151.7</ele>
        <time>2017-12-09T14:07:52Z</time>
      </trkpt>
      <trkpt lat="43.54537" lon="3.29306">
        <ele>151.7</ele>
        <time>2017-12-09T14:07:53Z</time>
      </trkpt>
      <trkpt lat="43.54538" lon="3.29302">
        <ele>151.8</ele>
        <time>2017-12-09T14:07:54Z</time>
      </trkpt>
      <trkpt lat="43.5454" lon="3.29298">
        <ele>151.8</ele>
        <time>2017-12-09T14:07:55Z</time>
      </trkpt>
      <trkpt lat="43.54541" lon="3.29294">
        <ele>151.8</ele>
        <time>2017-12-09T14:07:56Z</time>
      </trkpt>
      <trkpt lat="43.54543" lon="3.2929">
        <ele>151.8</ele>
        <time>2017-12-09T14:07:57Z</time>
      </trkpt>
      <trkpt lat="43.54545" lon="3.29285">
        <ele>151.8</ele>
        <time>2017-12-09T14:07:58Z</time>
      </trkpt>
      <trkpt lat="43.54547" lon="3.29281">
        <ele>151.9</ele>
        <time>2017-12-09T14:07:59Z</time>
      </trkpt>
      <trkpt lat="43.54549" lon="3.29277">
        <ele>151.9</ele>
        <time>2017-12-09T14:08:00Z</time>
      </trkpt>
      <trkpt lat="43.5455" lon="3.29273">
        <ele>151.9</ele>
        <time>2017-12-09T14:08:01Z</time>
      </trkpt>
      <trkpt lat="43.54552" lon="3.29269">
        <ele>152</ele>
        <time>2017-12-09T14:08:02Z</time>
      </trkpt>
      <trkpt lat="43.54554" lon="3.29266">
        <ele>152</ele>
        <time>2017-12-09T14:08:03Z</time>
      </trkpt>
      <trkpt lat="43.54556" lon="3.29263">
        <ele>152.1</ele>
        <time>2017-12-09T14:08:04Z</time>
      </trkpt>
      <trkpt lat="43.54558" lon="3.29259">
        <ele>152.1</ele>
        <time>2017-12-09T14:08:05Z</time>
      </trkpt>
      <trkpt lat="43.5456" lon="3.29256">
        <ele>152.1</ele>
        <time>2017-12-09T14:08:06Z</time>
      </trkpt>
      <trkpt lat="43.54562" lon="3.29253">
        <ele>152.2</ele>
        <time>2017-12-09T14:08:07Z</time>
      </trkpt>
      <trkpt lat="43.54564" lon="3.29248">
        <ele>152.2</ele>
        <time>2017-12-09T14:08:08Z</time>
      </trkpt>
      <trkpt lat="43.54566" lon="3.29245">
        <ele>152.3</ele>
        <time>2017-12-09T14:08:09Z</time>
      </trkpt>
      <trkpt lat="43.54568" lon="3.29241">
        <ele>152.3</ele>
        <time>2017-12-09T14:08:10Z</time>
      </trkpt>
      <trkpt lat="43.5457" lon="3.29238">
        <ele>152.3</ele>
        <time>2017-12-09T14:08:11Z</time>
      </trkpt>
      <trkpt lat="43.54572" lon="3.29235">
        <ele>152.4</ele>
        <time>2017-12-09T14:08:12Z</time>
      </trkpt>
      <trkpt lat="43.54574" lon="3.29232">
        <ele>152.4</ele>
        <time>2017-12-09T14:08:13Z</time>
      </trkpt>
      <trkpt lat="43.54576" lon="3.29228">
        <ele>152.4</ele>
        <time>2017-12-09T14:08:14Z</time>
      </trkpt>
      <trkpt lat="43.54578" lon="3.29225">
        <ele>152.5</ele>
        <time>2017-12-09T14:08:15Z</time>
      </trkpt>
      <trkpt lat="43.54581" lon="3.29222">
        <ele>152.5</ele>
        <time>2017-12-09T14:08:16Z</time>
      </trkpt>
      <trkpt lat="43.54583" lon="3.29219">
        <ele>152.6</ele>
        <time>2017-12-09T14:08:17Z</time>
      </trkpt>
      <trkpt lat="43.54585" lon="3.29216">
        <ele>152.6</ele>
        <time>2017-12-09T14:08:18Z</time>
      </trkpt>
      <trkpt lat="43.54587" lon="3.29212">
        <ele>152.7</ele>
        <time>2017-12-09T14:08:19Z</time>
      </trkpt>
      <trkpt lat="43.54589" lon="3.29209">
        <ele>152.8</ele>
        <time>2017-12-09T14:08:20Z</time>
      </trkpt>
      <trkpt lat="43.54591" lon="3.29205">
        <ele>152.9</ele>
        <time>2017-12-09T14:08:21Z</time>
      </trkpt>
      <trkpt lat="43.54593" lon="3.29202">
        <ele>153.1</ele>
        <time>2017-12-09T14:08:22Z</time>
      </trkpt>
      <trkpt lat="43.54595" lon="3.29198">
        <ele>153.2</ele>
        <time>2017-12-09T14:08:23Z</time>
      </trkpt>
      <trkpt lat="43.54597" lon="3.29195">
        <ele>153.3</ele>
        <time>2017-12-09T14:08:24Z</time>
      </trkpt>
      <trkpt lat="43.54599" lon="3.29192">
        <ele>153.5</ele>
        <time>2017-12-09T14:08:25Z</time>
      </trkpt>
      <trkpt lat="43.54601" lon="3.29189">
        <ele>153.7</ele>
        <time>2017-12-09T14:08:26Z</time>
      </trkpt>
      <trkpt lat="43.54604" lon="3.29187">
        <ele>153.8</ele>
        <time>2017-12-09T14:08:27Z</time>
      </trkpt>
      <trkpt lat="43.54606" lon="3.29184">
        <ele>154</ele>
        <time>2017-12-09T14:08:28Z</time>
      </trkpt>
      <trkpt lat="43.54608" lon="3.2918">
        <ele>154.2</ele>
        <time>2017-12-09T14:08:29Z</time>
      </trkpt>
      <trkpt lat="43.5461" lon="3.29177">
        <ele>154.4</ele>
        <time>2017-12-09T14:08:30Z</time>
      </trkpt>
      <trkpt lat="43.54612" lon="3.29173">
        <ele>154.6</ele>
        <time>2017-12-09T14:08:31Z</time>
      </trkpt>
      <trkpt lat="43.54615" lon="3.2917">
        <ele>154.8</ele>
        <time>2017-12-09T14:08:32Z</time>
      </trkpt>
      <trkpt lat="43.54617" lon="3.29166">
        <ele>155</ele>
        <time>2017-12-09T14:08:33Z</time>
      </trkpt>
      <trkpt lat="43.5462" lon="3.29162">
        <ele>155.2</ele>
        <time>2017-12-09T14:08:34Z</time>
      </trkpt>
      <trkpt lat="43.54623" lon="3.29159">
        <ele>155.4</ele>
        <time>2017-12-09T14:08:35Z</time>
      </trkpt>
      <trkpt lat="43.54626" lon="3.29155">
        <ele>155.6</ele>
        <time>2017-12-09T14:08:36Z</time>
      </trkpt>
      <trkpt lat="43.54629" lon="3.29152">
        <ele>155.8</ele>
        <time>2017-12-09T14:08:37Z</time>
      </trkpt>
      <trkpt lat="43.54632" lon="3.29149">
        <ele>156</ele>
        <time>2017-12-09T14:08:38Z</time>
      </trkpt>
      <trkpt lat="43.54636" lon="3.29147">
        <ele>156.1</ele>
        <time>2017-12-09T14:08:39Z</time>
      </trkpt>
      <trkpt lat="43.5464" lon="3.29144">
        <ele>156.3</ele>
        <time>2017-12-09T14:08:40Z</time>
      </trkpt>
      <trkpt lat="43.54644" lon="3.29141">
        <ele>156.4</ele>
        <time>2017-12-09T14:08:41Z</time>
      </trkpt>
      <trkpt lat="43.54648" lon="3.29138">
        <ele>156.5</ele>
        <time>2017-12-09T14:08:42Z</time>
      </trkpt>
      <trkpt lat="43.54653" lon="3.29133">
        <ele>156.6</ele>
        <time>2017-12-09T14:08:43Z</time>
      </trkpt>
      <trkpt lat="43.54656" lon="3.29129">
        <ele>156.6</ele>
        <time>2017-12-09T14:08:44Z</time>
      </trkpt>
      <trkpt lat="43.54659" lon="3.29124">
        <ele>156.7</ele>
        <time>2017-12-09T14:08:45Z</time>
      </trkpt>
      <trkpt lat="43.54662" lon="3.29118">
        <ele>156.7</ele>
        <time>2017-12-09T14:08:46Z</time>
      </trkpt>
      <trkpt lat="43.54664" lon="3.29113">
        <ele>156.7</ele>
        <time>2017-12-09T14:08:47Z</time>
      </trkpt>
      <trkpt lat="43.54666" lon="3.29109">
        <ele>156.8</ele>
        <time>2017-12-09T14:08:48Z</time>
      </trkpt>
      <trkpt lat="43.54667" lon="3.29104">
        <ele>156.8</ele>
        <time>2017-12-09T14:08:49Z</time>
      </trkpt>
      <trkpt lat="43.54668" lon="3.291">
        <ele>156.8</ele>
        <time>2017-12-09T14:08:50Z</time>
      </trkpt>
      <trkpt lat="43.5467" lon="3.29096">
        <ele>156.8</ele>
        <time>2017-12-09T14:08:51Z</time>
      </trkpt>
      <trkpt lat="43.54671" lon="3.29089">
        <ele>156.9</ele>
        <time>2017-12-09T14:08:53Z</time>
      </trkpt>
      <trkpt lat="43.54673" lon="3.29083">
        <ele>156.9</ele>
        <time>2017-12-09T14:08:55Z</time>
      </trkpt>
      <trkpt lat="43.54676" lon="3.29077">
        <ele>157</ele>
        <time>2017-12-09T14:08:57Z</time>
      </trkpt>
      <trkpt lat="43.54678" lon="3.29071">
        <ele>157.1</ele>
        <time>2017-12-09T14:08:59Z</time>
      </trkpt>
      <trkpt lat="43.54681" lon="3.29065">
        <ele>157.1</ele>
        <time>2017-12-09T14:09:01Z</time>
      </trkpt>
      <trkpt lat="43.54683" lon="3.29059">
        <ele>157.2</ele>
        <time>2017-12-09T14:09:03Z</time>
      </trkpt>
      <trkpt lat="43.54686" lon="3.29053">
        <ele>157.4</ele>
        <time>2017-12-09T14:09:05Z</time>
      </trkpt>
      <trkpt lat="43.54689" lon="3.29047">
        <ele>157.5</ele>
        <time>2017-12-09T14:09:07Z</time>
      </trkpt>
      <trkpt lat="43.54692" lon="3.29041">
        <ele>157.7</ele>
        <time>2017-12-09T14:09:09Z</time>
      </trkpt>
      <trkpt lat="43.54694" lon="3.29035">
        <ele>158</ele>
        <time>2017-12-09T14:09:11Z</time>
      </trkpt>
      <trkpt lat="43.54696" lon="3.29029">
        <ele>158.4</ele>
        <time>2017-12-09T14:09:13Z</time>
      </trkpt>
      <trkpt lat="43.54698" lon="3.29024">
        <ele>158.7</ele>
        <time>2017-12-09T14:09:15Z</time>
      </trkpt>
      <trkpt lat="43.54703" lon="3.29024">
        <ele>159.7</ele>
        <time>2017-12-09T14:09:17Z</time>
      </trkpt>
      <trkpt lat="43.54706" lon="3.2903">
        <ele>160.4</ele>
        <time>2017-12-09T14:09:19Z</time>
      </trkpt>
      <trkpt lat="43.54707" lon="3.29036">
        <ele>160.7</ele>
        <time>2017-12-09T14:09:21Z</time>
      </trkpt>
      <trkpt lat="43.54709" lon="3.29042">
        <ele>160.9</ele>
        <time>2017-12-09T14:09:23Z</time>
      </trkpt>
      <trkpt lat="43.54711" lon="3.29048">
        <ele>161.2</ele>
        <time>2017-12-09T14:09:25Z</time>
      </trkpt>
      <trkpt lat="43.54713" lon="3.29053">
        <ele>161.5</ele>
        <time>2017-12-09T14:09:27Z</time>
      </trkpt>
      <trkpt lat="43.54715" lon="3.29059">
        <ele>162</ele>
        <time>2017-12-09T14:09:29Z</time>
      </trkpt>
      <trkpt lat="43.54718" lon="3.29063">
        <ele>162.4</ele>
        <time>2017-12-09T14:09:31Z</time>
      </trkpt>
      <trkpt lat="43.5472" lon="3.29068">
        <ele>162.7</ele>
        <time>2017-12-09T14:09:33Z</time>
      </trkpt>
      <trkpt lat="43.54723" lon="3.29073">
        <ele>162.9</ele>
        <time>2017-12-09T14:09:35Z</time>
      </trkpt>
      <trkpt lat="43.54726" lon="3.29078">
        <ele>163.1</ele>
        <time>2017-12-09T14:09:37Z</time>
      </trkpt>
      <trkpt lat="43.54729" lon="3.29083">
        <ele>163.4</ele>
        <time>2017-12-09T14:09:39Z</time>
      </trkpt>
      <trkpt lat="43.54732" lon="3.29088">
        <ele>163.9</ele>
        <time>2017-12-09T14:09:41Z</time>
      </trkpt>
      <trkpt lat="43.54735" lon="3.29093">
        <ele>164.4</ele>
        <time>2017-12-09T14:09:43Z</time>
      </trkpt>
      <trkpt lat="43.54738" lon="3.29098">
        <ele>164.8</ele>
        <time>2017-12-09T14:09:45Z</time>
      </trkpt>
      <trkpt lat="43.54741" lon="3.29103">
        <ele>165.1</ele>
        <time>2017-12-09T14:09:47Z</time>
      </trkpt>
      <trkpt lat="43.54745" lon="3.29108">
        <ele>165.3</ele>
        <time>2017-12-09T14:09:49Z</time>
      </trkpt>
      <trkpt lat="43.54747" lon="3.29113">
        <ele>165.5</ele>
        <time>2017-12-09T14:09:51Z</time>
      </trkpt>
      <trkpt lat="43.5475" lon="3.29119">
        <ele>166</ele>
        <time>2017-12-09T14:09:53Z</time>
      </trkpt>
      <trkpt lat="43.54753" lon="3.29123">
        <ele>166.5</ele>
        <time>2017-12-09T14:09:55Z</time>
      </trkpt>
      <trkpt lat="43.54756" lon="3.29128">
        <ele>166.8</ele>
        <time>2017-12-09T14:09:57Z</time>
      </trkpt>
      <trkpt lat="43.54759" lon="3.29133">
        <ele>167.1</ele>
        <time>2017-12-09T14:09:59Z</time>
      </trkpt>
      <trkpt lat="43.54762" lon="3.29138">
        <ele>167.3</ele>
        <time>2017-12-09T14:10:01Z</time>
      </trkpt>
      <trkpt lat="43.54764" lon="3.29143">
        <ele>167.8</ele>
        <time>2017-12-09T14:10:03Z</time>
      </trkpt>
      <trkpt lat="43.54767" lon="3.29148">
        <ele>168.2</ele>
        <time>2017-12-09T14:10:05Z</time>
      </trkpt>
      <trkpt lat="43.54769" lon="3.29153">
        <ele>168.6</ele>
        <time>2017-12-09T14:10:07Z</time>
      </trkpt>
      <trkpt lat="43.54771" lon="3.29159">
        <ele>168.8</ele>
        <time>2017-12-09T14:10:09Z</time>
      </trkpt>
      <trkpt lat="43.54772" lon="3.29165">
        <ele>169</ele>
        <time>2017-12-09T14:10:11Z</time>
      </trkpt>
      <trkpt lat="43.54773" lon="3.29171">
        <ele>169.2</ele>
        <time>2017-12-09T14:10:13Z</time>
      </trkpt>
      <trkpt lat="43.54775" lon="3.29177">
        <ele>169.5</ele>
        <time>2017-12-09T14:10:15Z</time>
      </trkpt>
      <trkpt lat="43.54777" lon="3.29182">
        <ele>169.9</ele>
        <time>2017-12-09T14:10:17Z</time>
      </trkpt>
      <trkpt lat="43.54781" lon="3.29187">
        <ele>170.3</ele>
        <time>2017-12-09T14:10:19Z</time>
      </trkpt>
      <trkpt lat="43.54784" lon="3.29191">
        <ele>170.7</ele>
        <time>2017-12-09T14:10:21Z</time>
      </trkpt>
      <trkpt lat="43.54787" lon="3.29194">
        <ele>171</ele>
        <time>2017-12-09T14:10:23Z</time>
      </trkpt>
      <trkpt lat="43.5479" lon="3.29198">
        <ele>171.2</ele>
        <time>2017-12-09T14:10:25Z</time>
      </trkpt>
      <trkpt lat="43.54795" lon="3.292">
        <ele>171.4</ele>
        <time>2017-12-09T14:10:27Z</time>
      </trkpt>
      <trkpt lat="43.54798" lon="3.29202">
        <ele>171.7</ele>
        <time>2017-12-09T14:10:29Z</time>
      </trkpt>
      <trkpt lat="43.54802" lon="3.29203">
        <ele>172</ele>
        <time>2017-12-09T14:10:31Z</time>
      </trkpt>
      <trkpt lat="43.54805" lon="3.29205">
        <ele>172.4</ele>
        <time>2017-12-09T14:10:33Z</time>
      </trkpt>
      <trkpt lat="43.54809" lon="3.29208">
        <ele>172.7</ele>
        <time>2017-12-09T14:10:35Z</time>
      </trkpt>
      <trkpt lat="43.54814" lon="3.29211">
        <ele>172.9</ele>
        <time>2017-12-09T14:10:37Z</time>
      </trkpt>
      <trkpt lat="43.54819" lon="3.29213">
        <ele>173.1</ele>
        <time>2017-12-09T14:10:39Z</time>
      </trkpt>
      <trkpt lat="43.54823" lon="3.29216">
        <ele>173.6</ele>
        <time>2017-12-09T14:10:41Z</time>
      </trkpt>
      <trkpt lat="43.54827" lon="3.2922">
        <ele>173.9</ele>
        <time>2017-12-09T14:10:43Z</time>
      </trkpt>
      <trkpt lat="43.54832" lon="3.29223">
        <ele>173.7</ele>
        <time>2017-12-09T14:10:45Z</time>
      </trkpt>
      <trkpt lat="43.54834" lon="3.29225">
        <ele>174.3</ele>
        <time>2017-12-09T14:10:46Z</time>
      </trkpt>
      <trkpt lat="43.54837" lon="3.29227">
        <ele>174.1</ele>
        <time>2017-12-09T14:10:47Z</time>
      </trkpt>
      <trkpt lat="43.54841" lon="3.2923">
        <ele>173.8</ele>
        <time>2017-12-09T14:10:49Z</time>
      </trkpt>
      <trkpt lat="43.54846" lon="3.29233">
        <ele>175</ele>
        <time>2017-12-09T14:10:51Z</time>
      </trkpt>
      <trkpt lat="43.5485" lon="3.29236">
        <ele>174.7</ele>
        <time>2017-12-09T14:10:53Z</time>
      </trkpt>
      <trkpt lat="43.54855" lon="3.29239">
        <ele>175.4</ele>
        <time>2017-12-09T14:10:55Z</time>
      </trkpt>
      <trkpt lat="43.5486" lon="3.29242">
        <ele>175.2</ele>
        <time>2017-12-09T14:10:57Z</time>
      </trkpt>
      <trkpt lat="43.54863" lon="3.29244">
        <ele>175.9</ele>
        <time>2017-12-09T14:10:58Z</time>
      </trkpt>
      <trkpt lat="43.54865" lon="3.29245">
        <ele>176.7</ele>
        <time>2017-12-09T14:10:59Z</time>
      </trkpt>
      <trkpt lat="43.54868" lon="3.29246">
        <ele>177.4</ele>
        <time>2017-12-09T14:11:00Z</time>
      </trkpt>
      <trkpt lat="43.5487" lon="3.29248">
        <ele>177.2</ele>
        <time>2017-12-09T14:11:01Z</time>
      </trkpt>
      <trkpt lat="43.54873" lon="3.29249">
        <ele>177.3</ele>
        <time>2017-12-09T14:11:02Z</time>
      </trkpt>
      <trkpt lat="43.54879" lon="3.29251">
        <ele>177.7</ele>
        <time>2017-12-09T14:11:04Z</time>
      </trkpt>
      <trkpt lat="43.54882" lon="3.29253">
        <ele>178.3</ele>
        <time>2017-12-09T14:11:05Z</time>
      </trkpt>
      <trkpt lat="43.54884" lon="3.29255">
        <ele>179</ele>
        <time>2017-12-09T14:11:06Z</time>
      </trkpt>
      <trkpt lat="43.54887" lon="3.29256">
        <ele>178.8</ele>
        <time>2017-12-09T14:11:07Z</time>
      </trkpt>
      <trkpt lat="43.5489" lon="3.29258">
        <ele>179.5</ele>
        <time>2017-12-09T14:11:08Z</time>
      </trkpt>
      <trkpt lat="43.54893" lon="3.2926">
        <ele>179.3</ele>
        <time>2017-12-09T14:11:09Z</time>
      </trkpt>
      <trkpt lat="43.54898" lon="3.29263">
        <ele>180</ele>
        <time>2017-12-09T14:11:11Z</time>
      </trkpt>
      <trkpt lat="43.549" lon="3.29264">
        <ele>179.7</ele>
        <time>2017-12-09T14:11:12Z</time>
      </trkpt>
      <trkpt lat="43.54904" lon="3.29267">
        <ele>180.3</ele>
        <time>2017-12-09T14:11:14Z</time>
      </trkpt>
      <trkpt lat="43.54909" lon="3.2927">
        <ele>180.4</ele>
        <time>2017-12-09T14:11:16Z</time>
      </trkpt>
      <trkpt lat="43.54913" lon="3.29273">
        <ele>180.1</ele>
        <time>2017-12-09T14:11:18Z</time>
      </trkpt>
      <trkpt lat="43.54918" lon="3.29276">
        <ele>181.4</ele>
        <time>2017-12-09T14:11:20Z</time>
      </trkpt>
      <trkpt lat="43.54921" lon="3.29277">
        <ele>181</ele>
        <time>2017-12-09T14:11:21Z</time>
      </trkpt>
      <trkpt lat="43.54926" lon="3.29281">
        <ele>181.6</ele>
        <time>2017-12-09T14:11:23Z</time>
      </trkpt>
      <trkpt lat="43.54928" lon="3.29282">
        <ele>181.1</ele>
        <time>2017-12-09T14:11:24Z</time>
      </trkpt>
      <trkpt lat="43.54931" lon="3.29284">
        <ele>181.7</ele>
        <time>2017-12-09T14:11:25Z</time>
      </trkpt>
      <trkpt lat="43.54934" lon="3.29286">
        <ele>181.2</ele>
        <time>2017-12-09T14:11:26Z</time>
      </trkpt>
      <trkpt lat="43.54937" lon="3.29289">
        <ele>181.8</ele>
        <time>2017-12-09T14:11:27Z</time>
      </trkpt>
      <trkpt lat="43.54939" lon="3.29291">
        <ele>181.4</ele>
        <time>2017-12-09T14:11:28Z</time>
      </trkpt>
      <trkpt lat="43.54944" lon="3.29294">
        <ele>182</ele>
        <time>2017-12-09T14:11:30Z</time>
      </trkpt>
      <trkpt lat="43.54947" lon="3.29295">
        <ele>181.6</ele>
        <time>2017-12-09T14:11:31Z</time>
      </trkpt>
      <trkpt lat="43.5495" lon="3.29296">
        <ele>182.1</ele>
        <time>2017-12-09T14:11:32Z</time>
      </trkpt>
      <trkpt lat="43.54953" lon="3.29297">
        <ele>182.5</ele>
        <time>2017-12-09T14:11:33Z</time>
      </trkpt>
      <trkpt lat="43.54956" lon="3.29297">
        <ele>182.9</ele>
        <time>2017-12-09T14:11:34Z</time>
      </trkpt>
      <trkpt lat="43.54958" lon="3.29297">
        <ele>183.3</ele>
        <time>2017-12-09T14:11:35Z</time>
      </trkpt>
      <trkpt lat="43.54961" lon="3.29297">
        <ele>183.6</ele>
        <time>2017-12-09T14:11:36Z</time>
      </trkpt>
      <trkpt lat="43.54966" lon="3.29296">
        <ele>183.9</ele>
        <time>2017-12-09T14:11:38Z</time>
      </trkpt>
      <trkpt lat="43.54971" lon="3.29296">
        <ele>184.5</ele>
        <time>2017-12-09T14:11:40Z</time>
      </trkpt>
      <trkpt lat="43.54974" lon="3.29295">
        <ele>184.7</ele>
        <time>2017-12-09T14:11:41Z</time>
      </trkpt>
      <trkpt lat="43.54978" lon="3.29295">
        <ele>185</ele>
        <time>2017-12-09T14:11:42Z</time>
      </trkpt>
      <trkpt lat="43.54981" lon="3.29295">
        <ele>185.2</ele>
        <time>2017-12-09T14:11:43Z</time>
      </trkpt>
      <trkpt lat="43.54986" lon="3.29296">
        <ele>185.6</ele>
        <time>2017-12-09T14:11:45Z</time>
      </trkpt>
      <trkpt lat="43.54989" lon="3.29297">
        <ele>185.9</ele>
        <time>2017-12-09T14:11:46Z</time>
      </trkpt>
      <trkpt lat="43.54991" lon="3.29298">
        <ele>185.9</ele>
        <time>2017-12-09T14:11:47Z</time>
      </trkpt>
      <trkpt lat="43.54997" lon="3.29299">
        <ele>185.3</ele>
        <time>2017-12-09T14:11:49Z</time>
      </trkpt>
      <trkpt lat="43.55" lon="3.293">
        <ele>185.6</ele>
        <time>2017-12-09T14:11:50Z</time>
      </trkpt>
      <trkpt lat="43.55005" lon="3.29301">
        <ele>186.1</ele>
        <time>2017-12-09T14:11:52Z</time>
      </trkpt>
      <trkpt lat="43.55009" lon="3.29303">
        <ele>185.3</ele>
        <time>2017-12-09T14:11:54Z</time>
      </trkpt>
      <trkpt lat="43.55014" lon="3.29306">
        <ele>185.7</ele>
        <time>2017-12-09T14:11:56Z</time>
      </trkpt>
      <trkpt lat="43.55017" lon="3.29306">
        <ele>185.9</ele>
        <time>2017-12-09T14:11:57Z</time>
      </trkpt>
      <trkpt lat="43.55021" lon="3.29306">
        <ele>186.1</ele>
        <time>2017-12-09T14:11:58Z</time>
      </trkpt>
      <trkpt lat="43.55023" lon="3.29306">
        <ele>186.3</ele>
        <time>2017-12-09T14:11:59Z</time>
      </trkpt>
      <trkpt lat="43.55026" lon="3.29306">
        <ele>186.6</ele>
        <time>2017-12-09T14:12:00Z</time>
      </trkpt>
      <trkpt lat="43.5503" lon="3.29306">
        <ele>186.8</ele>
        <time>2017-12-09T14:12:01Z</time>
      </trkpt>
      <trkpt lat="43.55033" lon="3.29306">
        <ele>187.1</ele>
        <time>2017-12-09T14:12:02Z</time>
      </trkpt>
      <trkpt lat="43.55036" lon="3.29305">
        <ele>187.3</ele>
        <time>2017-12-09T14:12:03Z</time>
      </trkpt>
      <trkpt lat="43.55041" lon="3.29306">
        <ele>187.5</ele>
        <time>2017-12-09T14:12:04Z</time>
      </trkpt>
      <trkpt lat="43.55045" lon="3.29307">
        <ele>186.8</ele>
        <time>2017-12-09T14:12:05Z</time>
      </trkpt>
      <trkpt lat="43.55048" lon="3.29308">
        <ele>187.3</ele>
        <time>2017-12-09T14:12:06Z</time>
      </trkpt>
      <trkpt lat="43.55051" lon="3.29308">
        <ele>187.6</ele>
        <time>2017-12-09T14:12:07Z</time>
      </trkpt>
      <trkpt lat="43.55054" lon="3.29308">
        <ele>188</ele>
        <time>2017-12-09T14:12:08Z</time>
      </trkpt>
      <trkpt lat="43.55057" lon="3.29307">
        <ele>189.3</ele>
        <time>2017-12-09T14:12:09Z</time>
      </trkpt>
      <trkpt lat="43.55061" lon="3.29306">
        <ele>189.7</ele>
        <time>2017-12-09T14:12:10Z</time>
      </trkpt>
      <trkpt lat="43.55063" lon="3.29305">
        <ele>190</ele>
        <time>2017-12-09T14:12:11Z</time>
      </trkpt>
      <trkpt lat="43.55069" lon="3.29305">
        <ele>190.4</ele>
        <time>2017-12-09T14:12:13Z</time>
      </trkpt>
      <trkpt lat="43.55072" lon="3.29306">
        <ele>190.7</ele>
        <time>2017-12-09T14:12:14Z</time>
      </trkpt>
      <trkpt lat="43.55075" lon="3.29306">
        <ele>191.1</ele>
        <time>2017-12-09T14:12:15Z</time>
      </trkpt>
      <trkpt lat="43.55079" lon="3.29307">
        <ele>191.1</ele>
        <time>2017-12-09T14:12:17Z</time>
      </trkpt>
      <trkpt lat="43.55084" lon="3.2931">
        <ele>191.5</ele>
        <time>2017-12-09T14:12:19Z</time>
      </trkpt>
      <trkpt lat="43.55089" lon="3.29314">
        <ele>191.6</ele>
        <time>2017-12-09T14:12:21Z</time>
      </trkpt>
      <trkpt lat="43.55093" lon="3.29317">
        <ele>191.4</ele>
        <time>2017-12-09T14:12:23Z</time>
      </trkpt>
      <trkpt lat="43.55096" lon="3.29318">
        <ele>191.8</ele>
        <time>2017-12-09T14:12:24Z</time>
      </trkpt>
      <trkpt lat="43.55101" lon="3.2932">
        <ele>191.9</ele>
        <time>2017-12-09T14:12:26Z</time>
      </trkpt>
      <trkpt lat="43.55106" lon="3.29319">
        <ele>193</ele>
        <time>2017-12-09T14:12:28Z</time>
      </trkpt>
      <trkpt lat="43.55111" lon="3.29319">
        <ele>193.8</ele>
        <time>2017-12-09T14:12:30Z</time>
      </trkpt>
      <trkpt lat="43.55115" lon="3.29318">
        <ele>194.2</ele>
        <time>2017-12-09T14:12:32Z</time>
      </trkpt>
      <trkpt lat="43.5512" lon="3.29317">
        <ele>195</ele>
        <time>2017-12-09T14:12:34Z</time>
      </trkpt>
      <trkpt lat="43.55126" lon="3.29315">
        <ele>196.5</ele>
        <time>2017-12-09T14:12:36Z</time>
      </trkpt>
      <trkpt lat="43.55129" lon="3.29314">
        <ele>196.9</ele>
        <time>2017-12-09T14:12:37Z</time>
      </trkpt>
      <trkpt lat="43.55134" lon="3.29312">
        <ele>197.3</ele>
        <time>2017-12-09T14:12:39Z</time>
      </trkpt>
      <trkpt lat="43.55139" lon="3.29311">
        <ele>198.1</ele>
        <time>2017-12-09T14:12:41Z</time>
      </trkpt>
      <trkpt lat="43.55142" lon="3.29312">
        <ele>198.5</ele>
        <time>2017-12-09T14:12:43Z</time>
      </trkpt>
      <trkpt lat="43.55147" lon="3.29313">
        <ele>198.9</ele>
        <time>2017-12-09T14:12:45Z</time>
      </trkpt>
      <trkpt lat="43.55151" lon="3.29315">
        <ele>198.9</ele>
        <time>2017-12-09T14:12:47Z</time>
      </trkpt>
      <trkpt lat="43.55155" lon="3.29318">
        <ele>199.2</ele>
        <time>2017-12-09T14:12:49Z</time>
      </trkpt>
      <trkpt lat="43.55159" lon="3.29321">
        <ele>198.8</ele>
        <time>2017-12-09T14:12:51Z</time>
      </trkpt>
      <trkpt lat="43.55163" lon="3.29324">
        <ele>198.4</ele>
        <time>2017-12-09T14:12:53Z</time>
      </trkpt>
      <trkpt lat="43.55167" lon="3.29327">
        <ele>198.9</ele>
        <time>2017-12-09T14:12:55Z</time>
      </trkpt>
      <trkpt lat="43.55171" lon="3.29329">
        <ele>198.5</ele>
        <time>2017-12-09T14:12:57Z</time>
      </trkpt>
      <trkpt lat="43.55176" lon="3.29332">
        <ele>198.9</ele>
        <time>2017-12-09T14:12:59Z</time>
      </trkpt>
      <trkpt lat="43.55179" lon="3.29335">
        <ele>198.5</ele>
        <time>2017-12-09T14:13:01Z</time>
      </trkpt>
      <trkpt lat="43.55182" lon="3.29338">
        <ele>198</ele>
        <time>2017-12-09T14:13:03Z</time>
      </trkpt>
      <trkpt lat="43.55185" lon="3.29341">
        <ele>198.1</ele>
        <time>2017-12-09T14:13:05Z</time>
      </trkpt>
      <trkpt lat="43.55189" lon="3.29344">
        <ele>197.6</ele>
        <time>2017-12-09T14:13:07Z</time>
      </trkpt>
      <trkpt lat="43.55193" lon="3.29348">
        <ele>197.1</ele>
        <time>2017-12-09T14:13:09Z</time>
      </trkpt>
      <trkpt lat="43.55197" lon="3.29352">
        <ele>196.6</ele>
        <time>2017-12-09T14:13:11Z</time>
      </trkpt>
      <trkpt lat="43.55202" lon="3.29354">
        <ele>195.9</ele>
        <time>2017-12-09T14:13:13Z</time>
      </trkpt>
      <trkpt lat="43.55206" lon="3.29356">
        <ele>195.8</ele>
        <time>2017-12-09T14:13:15Z</time>
      </trkpt>
      <trkpt lat="43.5521" lon="3.29357">
        <ele>195.6</ele>
        <time>2017-12-09T14:13:17Z</time>
      </trkpt>
      <trkpt lat="43.55214" lon="3.29358">
        <ele>195</ele>
        <time>2017-12-09T14:13:19Z</time>
      </trkpt>
      <trkpt lat="43.55217" lon="3.29361">
        <ele>194.9</ele>
        <time>2017-12-09T14:13:22Z</time>
      </trkpt>
      <trkpt lat="43.55221" lon="3.29365">
        <ele>194.2</ele>
        <time>2017-12-09T14:13:24Z</time>
      </trkpt>
      <trkpt lat="43.55225" lon="3.29369">
        <ele>193.4</ele>
        <time>2017-12-09T14:13:26Z</time>
      </trkpt>
      <trkpt lat="43.55228" lon="3.29372">
        <ele>192.7</ele>
        <time>2017-12-09T14:13:27Z</time>
      </trkpt>
      <trkpt lat="43.55231" lon="3.29375">
        <ele>192.8</ele>
        <time>2017-12-09T14:13:28Z</time>
      </trkpt>
      <trkpt lat="43.55234" lon="3.29377">
        <ele>192.1</ele>
        <time>2017-12-09T14:13:29Z</time>
      </trkpt>
      <trkpt lat="43.55236" lon="3.2938">
        <ele>191.5</ele>
        <time>2017-12-09T14:13:30Z</time>
      </trkpt>
      <trkpt lat="43.55238" lon="3.29384">
        <ele>191.3</ele>
        <time>2017-12-09T14:13:32Z</time>
      </trkpt>
      <trkpt lat="43.55242" lon="3.29385">
        <ele>190.6</ele>
        <time>2017-12-09T14:14:36Z</time>
      </trkpt>
      <trkpt lat="43.55244" lon="3.2939">
        <ele>189.9</ele>
        <time>2017-12-09T14:14:38Z</time>
      </trkpt>
      <trkpt lat="43.55247" lon="3.29392">
        <ele>189.6</ele>
        <time>2017-12-09T14:14:39Z</time>
      </trkpt>
      <trkpt lat="43.55252" lon="3.29396">
        <ele>188.9</ele>
        <time>2017-12-09T14:14:40Z</time>
      </trkpt>
      <trkpt lat="43.55257" lon="3.29399">
        <ele>188</ele>
        <time>2017-12-09T14:14:41Z</time>
      </trkpt>
      <trkpt lat="43.55262" lon="3.29403">
        <ele>187.4</ele>
        <time>2017-12-09T14:14:42Z</time>
      </trkpt>
      <trkpt lat="43.55267" lon="3.29407">
        <ele>186.5</ele>
        <time>2017-12-09T14:14:43Z</time>
      </trkpt>
      <trkpt lat="43.55272" lon="3.29412">
        <ele>185.5</ele>
        <time>2017-12-09T14:14:44Z</time>
      </trkpt>
      <trkpt lat="43.55276" lon="3.29418">
        <ele>184.7</ele>
        <time>2017-12-09T14:14:45Z</time>
      </trkpt>
      <trkpt lat="43.5528" lon="3.29423">
        <ele>183.5</ele>
        <time>2017-12-09T14:14:46Z</time>
      </trkpt>
      <trkpt lat="43.55284" lon="3.29428">
        <ele>182.6</ele>
        <time>2017-12-09T14:14:47Z</time>
      </trkpt>
      <trkpt lat="43.55288" lon="3.29431">
        <ele>181.5</ele>
        <time>2017-12-09T14:14:48Z</time>
      </trkpt>
      <trkpt lat="43.55291" lon="3.29436">
        <ele>180.3</ele>
        <time>2017-12-09T14:14:49Z</time>
      </trkpt>
      <trkpt lat="43.55293" lon="3.29442">
        <ele>180</ele>
        <time>2017-12-09T14:14:50Z</time>
      </trkpt>
      <trkpt lat="43.55294" lon="3.29446">
        <ele>179.2</ele>
        <time>2017-12-09T14:14:51Z</time>
      </trkpt>
      <trkpt lat="43.55295" lon="3.2945">
        <ele>178.9</ele>
        <time>2017-12-09T14:14:52Z</time>
      </trkpt>
      <trkpt lat="43.55298" lon="3.29456">
        <ele>178.1</ele>
        <time>2017-12-09T14:14:54Z</time>
      </trkpt>
      <trkpt lat="43.55301" lon="3.29461">
        <ele>177.2</ele>
        <time>2017-12-09T14:14:55Z</time>
      </trkpt>
      <trkpt lat="43.55304" lon="3.29467">
        <ele>176</ele>
        <time>2017-12-09T14:14:57Z</time>
      </trkpt>
      <trkpt lat="43.55305" lon="3.29472">
        <ele>175.8</ele>
        <time>2017-12-09T14:14:58Z</time>
      </trkpt>
      <trkpt lat="43.55306" lon="3.29476">
        <ele>175.5</ele>
        <time>2017-12-09T14:14:59Z</time>
      </trkpt>
      <trkpt lat="43.55306" lon="3.29479">
        <ele>174.7</ele>
        <time>2017-12-09T14:15:00Z</time>
      </trkpt>
      <trkpt lat="43.55307" lon="3.29484">
        <ele>174.4</ele>
        <time>2017-12-09T14:15:01Z</time>
      </trkpt>
      <trkpt lat="43.55307" lon="3.29489">
        <ele>174.2</ele>
        <time>2017-12-09T14:15:02Z</time>
      </trkpt>
      <trkpt lat="43.55308" lon="3.29494">
        <ele>174</ele>
        <time>2017-12-09T14:15:03Z</time>
      </trkpt>
      <trkpt lat="43.55308" lon="3.295">
        <ele>173.3</ele>
        <time>2017-12-09T14:15:04Z</time>
      </trkpt>
      <trkpt lat="43.55309" lon="3.29505">
        <ele>173</ele>
        <time>2017-12-09T14:15:05Z</time>
      </trkpt>
      <trkpt lat="43.55308" lon="3.29509">
        <ele>172.6</ele>
        <time>2017-12-09T14:15:06Z</time>
      </trkpt>
      <trkpt lat="43.55308" lon="3.29517">
        <ele>171.8</ele>
        <time>2017-12-09T14:15:07Z</time>
      </trkpt>
      <trkpt lat="43.55308" lon="3.29522">
        <ele>171.4</ele>
        <time>2017-12-09T14:15:08Z</time>
      </trkpt>
      <trkpt lat="43.5531" lon="3.29528">
        <ele>170.4</ele>
        <time>2017-12-09T14:15:09Z</time>
      </trkpt>
      <trkpt lat="43.55312" lon="3.29533">
        <ele>170</ele>
        <time>2017-12-09T14:15:10Z</time>
      </trkpt>
      <trkpt lat="43.55311" lon="3.29539">
        <ele>169.2</ele>
        <time>2017-12-09T14:15:11Z</time>
      </trkpt>
      <trkpt lat="43.55309" lon="3.29546">
        <ele>168.8</ele>
        <time>2017-12-09T14:15:12Z</time>
      </trkpt>
      <trkpt lat="43.55307" lon="3.29554">
        <ele>168.5</ele>
        <time>2017-12-09T14:15:13Z</time>
      </trkpt>
      <trkpt lat="43.55305" lon="3.29562">
        <ele>168.2</ele>
        <time>2017-12-09T14:15:14Z</time>
      </trkpt>
      <trkpt lat="43.55305" lon="3.29572">
        <ele>167.1</ele>
        <time>2017-12-09T14:15:15Z</time>
      </trkpt>
      <trkpt lat="43.55304" lon="3.29579">
        <ele>166.1</ele>
        <time>2017-12-09T14:15:16Z</time>
      </trkpt>
      <trkpt lat="43.55301" lon="3.29587">
        <ele>165.6</ele>
        <time>2017-12-09T14:15:17Z</time>
      </trkpt>
      <trkpt lat="43.55301" lon="3.29593">
        <ele>164.5</ele>
        <time>2017-12-09T14:15:18Z</time>
      </trkpt>
      <trkpt lat="43.55302" lon="3.296">
        <ele>163.1</ele>
        <time>2017-12-09T14:15:19Z</time>
      </trkpt>
      <trkpt lat="43.553" lon="3.29606">
        <ele>162.4</ele>
        <time>2017-12-09T14:15:20Z</time>
      </trkpt>
      <trkpt lat="43.55296" lon="3.29611">
        <ele>163</ele>
        <time>2017-12-09T14:15:21Z</time>
      </trkpt>
      <trkpt lat="43.55292" lon="3.29615">
        <ele>163</ele>
        <time>2017-12-09T14:15:22Z</time>
      </trkpt>
      <trkpt lat="43.55288" lon="3.29618">
        <ele>163</ele>
        <time>2017-12-09T14:15:23Z</time>
      </trkpt>
      <trkpt lat="43.55283" lon="3.29623">
        <ele>163.7</ele>
        <time>2017-12-09T14:15:24Z</time>
      </trkpt>
      <trkpt lat="43.55281" lon="3.29627">
        <ele>163.7</ele>
        <time>2017-12-09T14:15:25Z</time>
      </trkpt>
      <trkpt lat="43.55277" lon="3.29632">
        <ele>163.6</ele>
        <time>2017-12-09T14:15:26Z</time>
      </trkpt>
      <trkpt lat="43.55272" lon="3.29639">
        <ele>162.5</ele>
        <time>2017-12-09T14:15:27Z</time>
      </trkpt>
      <trkpt lat="43.55268" lon="3.29647">
        <ele>161.5</ele>
        <time>2017-12-09T14:15:28Z</time>
      </trkpt>
      <trkpt lat="43.55264" lon="3.29654">
        <ele>159.9</ele>
        <time>2017-12-09T14:15:29Z</time>
      </trkpt>
      <trkpt lat="43.55261" lon="3.29664">
        <ele>158.3</ele>
        <time>2017-12-09T14:15:30Z</time>
      </trkpt>
      <trkpt lat="43.55259" lon="3.29672">
        <ele>156.7</ele>
        <time>2017-12-09T14:15:31Z</time>
      </trkpt>
      <trkpt lat="43.55255" lon="3.29677">
        <ele>156.2</ele>
        <time>2017-12-09T14:15:32Z</time>
      </trkpt>
      <trkpt lat="43.55251" lon="3.29681">
        <ele>155.6</ele>
        <time>2017-12-09T14:15:33Z</time>
      </trkpt>
      <trkpt lat="43.55247" lon="3.29685">
        <ele>155.1</ele>
        <time>2017-12-09T14:15:34Z</time>
      </trkpt>
      <trkpt lat="43.55243" lon="3.29687">
        <ele>155.1</ele>
        <time>2017-12-09T14:15:35Z</time>
      </trkpt>
      <trkpt lat="43.55238" lon="3.2969">
        <ele>154.4</ele>
        <time>2017-12-09T14:15:36Z</time>
      </trkpt>
      <trkpt lat="43.55235" lon="3.29693">
        <ele>153.7</ele>
        <time>2017-12-09T14:15:37Z</time>
      </trkpt>
      <trkpt lat="43.55231" lon="3.29697">
        <ele>153.5</ele>
        <time>2017-12-09T14:15:38Z</time>
      </trkpt>
      <trkpt lat="43.55225" lon="3.297">
        <ele>152.7</ele>
        <time>2017-12-09T14:15:39Z</time>
      </trkpt>
      <trkpt lat="43.55221" lon="3.29703">
        <ele>151.7</ele>
        <time>2017-12-09T14:15:40Z</time>
      </trkpt>
      <trkpt lat="43.55216" lon="3.29708">
        <ele>151</ele>
        <time>2017-12-09T14:15:41Z</time>
      </trkpt>
      <trkpt lat="43.55209" lon="3.29713">
        <ele>149.6</ele>
        <time>2017-12-09T14:15:42Z</time>
      </trkpt>
      <trkpt lat="43.55202" lon="3.29717">
        <ele>148.6</ele>
        <time>2017-12-09T14:15:43Z</time>
      </trkpt>
      <trkpt lat="43.55196" lon="3.29721">
        <ele>147.7</ele>
        <time>2017-12-09T14:15:44Z</time>
      </trkpt>
      <trkpt lat="43.5519" lon="3.29725">
        <ele>146.9</ele>
        <time>2017-12-09T14:15:45Z</time>
      </trkpt>
      <trkpt lat="43.55185" lon="3.29728">
        <ele>146.5</ele>
        <time>2017-12-09T14:15:46Z</time>
      </trkpt>
      <trkpt lat="43.5518" lon="3.29732">
        <ele>145.9</ele>
        <time>2017-12-09T14:15:47Z</time>
      </trkpt>
      <trkpt lat="43.55176" lon="3.29738">
        <ele>145.6</ele>
        <time>2017-12-09T14:15:48Z</time>
      </trkpt>
      <trkpt lat="43.55173" lon="3.2974">
        <ele>145.4</ele>
        <time>2017-12-09T14:15:49Z</time>
      </trkpt>
      <trkpt lat="43.55169" lon="3.29743">
        <ele>145.4</ele>
        <time>2017-12-09T14:15:50Z</time>
      </trkpt>
      <trkpt lat="43.55165" lon="3.29744">
        <ele>145.4</ele>
        <time>2017-12-09T14:15:51Z</time>
      </trkpt>
      <trkpt lat="43.55162" lon="3.29747">
        <ele>145.2</ele>
        <time>2017-12-09T14:15:52Z</time>
      </trkpt>
      <trkpt lat="43.5516" lon="3.29751">
        <ele>145.1</ele>
        <time>2017-12-09T14:15:53Z</time>
      </trkpt>
      <trkpt lat="43.55154" lon="3.29755">
        <ele>145</ele>
        <time>2017-12-09T14:15:54Z</time>
      </trkpt>
      <trkpt lat="43.5515" lon="3.2976">
        <ele>144.9</ele>
        <time>2017-12-09T14:15:55Z</time>
      </trkpt>
      <trkpt lat="43.55145" lon="3.29765">
        <ele>144.8</ele>
        <time>2017-12-09T14:15:56Z</time>
      </trkpt>
      <trkpt lat="43.5514" lon="3.29771">
        <ele>144.4</ele>
        <time>2017-12-09T14:15:57Z</time>
      </trkpt>
      <trkpt lat="43.55135" lon="3.29779">
        <ele>144.1</ele>
        <time>2017-12-09T14:15:58Z</time>
      </trkpt>
      <trkpt lat="43.55131" lon="3.29786">
        <ele>143.6</ele>
        <time>2017-12-09T14:15:59Z</time>
      </trkpt>
      <trkpt lat="43.55126" lon="3.29792">
        <ele>143.3</ele>
        <time>2017-12-09T14:16:00Z</time>
      </trkpt>
      <trkpt lat="43.55121" lon="3.29801">
        <ele>142.9</ele>
        <time>2017-12-09T14:16:01Z</time>
      </trkpt>
      <trkpt lat="43.55117" lon="3.29807">
        <ele>142.7</ele>
        <time>2017-12-09T14:16:02Z</time>
      </trkpt>
      <trkpt lat="43.55113" lon="3.29809">
        <ele>142.2</ele>
        <time>2017-12-09T14:16:03Z</time>
      </trkpt>
      <trkpt lat="43.5511" lon="3.29812">
        <ele>142.3</ele>
        <time>2017-12-09T14:16:04Z</time>
      </trkpt>
      <trkpt lat="43.55113" lon="3.2981">
        <ele>142.3</ele>
        <time>2017-12-09T14:16:15Z</time>
      </trkpt>
      <trkpt lat="43.55112" lon="3.29814">
        <ele>141.9</ele>
        <time>2017-12-09T14:16:38Z</time>
      </trkpt>
      <trkpt lat="43.5511" lon="3.29817">
        <ele>142</ele>
        <time>2017-12-09T14:16:55Z</time>
      </trkpt>
      <trkpt lat="43.55109" lon="3.29821">
        <ele>141.3</ele>
        <time>2017-12-09T14:17:00Z</time>
      </trkpt>
      <trkpt lat="43.5511" lon="3.29826">
        <ele>140.7</ele>
        <time>2017-12-09T14:17:11Z</time>
      </trkpt>
      <trkpt lat="43.55111" lon="3.29829">
        <ele>140.1</ele>
        <time>2017-12-09T14:17:15Z</time>
      </trkpt>
      <trkpt lat="43.55112" lon="3.29834">
        <ele>139.3</ele>
        <time>2017-12-09T14:17:26Z</time>
      </trkpt>
      <trkpt lat="43.55114" lon="3.29836">
        <ele>139.3</ele>
        <time>2017-12-09T14:17:31Z</time>
      </trkpt>
      <trkpt lat="43.55117" lon="3.2984">
        <ele>139.2</ele>
        <time>2017-12-09T14:18:26Z</time>
      </trkpt>
      <trkpt lat="43.55121" lon="3.29838">
        <ele>139.2</ele>
        <time>2017-12-09T14:18:30Z</time>
      </trkpt>
      <trkpt lat="43.55124" lon="3.29834">
        <ele>139.1</ele>
        <time>2017-12-09T14:18:32Z</time>
      </trkpt>
      <trkpt lat="43.55128" lon="3.29831">
        <ele>139.1</ele>
        <time>2017-12-09T14:18:34Z</time>
      </trkpt>
      <trkpt lat="43.55133" lon="3.29828">
        <ele>139</ele>
        <time>2017-12-09T14:18:36Z</time>
      </trkpt>
      <trkpt lat="43.55135" lon="3.29826">
        <ele>139</ele>
        <time>2017-12-09T14:18:37Z</time>
      </trkpt>
      <trkpt lat="43.55139" lon="3.29823">
        <ele>138.9</ele>
        <time>2017-12-09T14:18:39Z</time>
      </trkpt>
      <trkpt lat="43.55142" lon="3.29819">
        <ele>138.9</ele>
        <time>2017-12-09T14:18:41Z</time>
      </trkpt>
      <trkpt lat="43.55146" lon="3.29816">
        <ele>138.9</ele>
        <time>2017-12-09T14:18:43Z</time>
      </trkpt>
      <trkpt lat="43.55151" lon="3.29813">
        <ele>138.8</ele>
        <time>2017-12-09T14:18:45Z</time>
      </trkpt>
      <trkpt lat="43.55155" lon="3.29809">
        <ele>138.8</ele>
        <time>2017-12-09T14:18:47Z</time>
      </trkpt>
      <trkpt lat="43.55159" lon="3.29806">
        <ele>138.7</ele>
        <time>2017-12-09T14:18:49Z</time>
      </trkpt>
      <trkpt lat="43.55161" lon="3.29804">
        <ele>138.7</ele>
        <time>2017-12-09T14:18:50Z</time>
      </trkpt>
      <trkpt lat="43.55166" lon="3.29801">
        <ele>138.7</ele>
        <time>2017-12-09T14:18:52Z</time>
      </trkpt>
      <trkpt lat="43.5517" lon="3.29798">
        <ele>138.6</ele>
        <time>2017-12-09T14:18:54Z</time>
      </trkpt>
      <trkpt lat="43.55175" lon="3.29795">
        <ele>138.6</ele>
        <time>2017-12-09T14:18:56Z</time>
      </trkpt>
      <trkpt lat="43.5518" lon="3.29792">
        <ele>138.6</ele>
        <time>2017-12-09T14:18:58Z</time>
      </trkpt>
      <trkpt lat="43.55182" lon="3.29791">
        <ele>138.5</ele>
        <time>2017-12-09T14:18:59Z</time>
      </trkpt>
      <trkpt lat="43.55185" lon="3.29789">
        <ele>138.5</ele>
        <time>2017-12-09T14:19:00Z</time>
      </trkpt>
      <trkpt lat="43.55188" lon="3.29788">
        <ele>138.5</ele>
        <time>2017-12-09T14:19:01Z</time>
      </trkpt>
      <trkpt lat="43.55192" lon="3.29786">
        <ele>138.4</ele>
        <time>2017-12-09T14:19:03Z</time>
      </trkpt>
      <trkpt lat="43.55198" lon="3.29783">
        <ele>138.4</ele>
        <time>2017-12-09T14:19:05Z</time>
      </trkpt>
      <trkpt lat="43.55201" lon="3.29782">
        <ele>138.4</ele>
        <time>2017-12-09T14:19:06Z</time>
      </trkpt>
      <trkpt lat="43.55204" lon="3.2978">
        <ele>138.4</ele>
        <time>2017-12-09T14:19:07Z</time>
      </trkpt>
      <trkpt lat="43.55207" lon="3.29779">
        <ele>138.3</ele>
        <time>2017-12-09T14:19:08Z</time>
      </trkpt>
      <trkpt lat="43.5521" lon="3.29777">
        <ele>138.3</ele>
        <time>2017-12-09T14:19:09Z</time>
      </trkpt>
      <trkpt lat="43.55213" lon="3.29775">
        <ele>138.3</ele>
        <time>2017-12-09T14:19:10Z</time>
      </trkpt>
      <trkpt lat="43.55216" lon="3.29774">
        <ele>138.2</ele>
        <time>2017-12-09T14:19:11Z</time>
      </trkpt>
      <trkpt lat="43.5522" lon="3.29772">
        <ele>138.2</ele>
        <time>2017-12-09T14:19:13Z</time>
      </trkpt>
      <trkpt lat="43.55225" lon="3.2977">
        <ele>138.1</ele>
        <time>2017-12-09T14:19:15Z</time>
      </trkpt>
      <trkpt lat="43.55228" lon="3.29769">
        <ele>138.1</ele>
        <time>2017-12-09T14:19:16Z</time>
      </trkpt>
      <trkpt lat="43.5523" lon="3.29768">
        <ele>138.1</ele>
        <time>2017-12-09T14:19:17Z</time>
      </trkpt>
      <trkpt lat="43.55235" lon="3.29765">
        <ele>138</ele>
        <time>2017-12-09T14:19:19Z</time>
      </trkpt>
      <trkpt lat="43.5524" lon="3.29763">
        <ele>138</ele>
        <time>2017-12-09T14:19:21Z</time>
      </trkpt>
      <trkpt lat="43.55245" lon="3.29761">
        <ele>138</ele>
        <time>2017-12-09T14:19:23Z</time>
      </trkpt>
      <trkpt lat="43.55251" lon="3.29758">
        <ele>137.9</ele>
        <time>2017-12-09T14:19:25Z</time>
      </trkpt>
      <trkpt lat="43.55254" lon="3.29757">
        <ele>137.9</ele>
        <time>2017-12-09T14:19:26Z</time>
      </trkpt>
      <trkpt lat="43.55257" lon="3.29756">
        <ele>137.9</ele>
        <time>2017-12-09T14:19:27Z</time>
      </trkpt>
      <trkpt lat="43.5526" lon="3.29755">
        <ele>137.8</ele>
        <time>2017-12-09T14:19:28Z</time>
      </trkpt>
      <trkpt lat="43.55263" lon="3.29755">
        <ele>137.8</ele>
        <time>2017-12-09T14:19:29Z</time>
      </trkpt>
      <trkpt lat="43.55266" lon="3.29754">
        <ele>137.8</ele>
        <time>2017-12-09T14:19:30Z</time>
      </trkpt>
      <trkpt lat="43.55268" lon="3.29754">
        <ele>137.8</ele>
        <time>2017-12-09T14:19:31Z</time>
      </trkpt>
      <trkpt lat="43.55271" lon="3.29753">
        <ele>137.7</ele>
        <time>2017-12-09T14:19:32Z</time>
      </trkpt>
      <trkpt lat="43.55276" lon="3.29753">
        <ele>137.7</ele>
        <time>2017-12-09T14:19:34Z</time>
      </trkpt>
      <trkpt lat="43.55279" lon="3.29752">
        <ele>137.7</ele>
        <time>2017-12-09T14:19:35Z</time>
      </trkpt>
      <trkpt lat="43.55283" lon="3.29752">
        <ele>137.6</ele>
        <time>2017-12-09T14:19:36Z</time>
      </trkpt>
      <trkpt lat="43.55286" lon="3.29752">
        <ele>137.6</ele>
        <time>2017-12-09T14:19:37Z</time>
      </trkpt>
      <trkpt lat="43.55289" lon="3.29751">
        <ele>137.6</ele>
        <time>2017-12-09T14:19:38Z</time>
      </trkpt>
      <trkpt lat="43.55292" lon="3.29751">
        <ele>137.6</ele>
        <time>2017-12-09T14:19:39Z</time>
      </trkpt>
      <trkpt lat="43.55295" lon="3.29751">
        <ele>137.5</ele>
        <time>2017-12-09T14:19:40Z</time>
      </trkpt>
      <trkpt lat="43.55297" lon="3.2975">
        <ele>137.5</ele>
        <time>2017-12-09T14:19:41Z</time>
      </trkpt>
      <trkpt lat="43.55303" lon="3.2975">
        <ele>137.5</ele>
        <time>2017-12-09T14:19:43Z</time>
      </trkpt>
      <trkpt lat="43.55306" lon="3.2975">
        <ele>137.4</ele>
        <time>2017-12-09T14:19:44Z</time>
      </trkpt>
      <trkpt lat="43.55311" lon="3.2975">
        <ele>137.4</ele>
        <time>2017-12-09T14:19:46Z</time>
      </trkpt>
      <trkpt lat="43.55316" lon="3.29751">
        <ele>137.3</ele>
        <time>2017-12-09T14:19:48Z</time>
      </trkpt>
      <trkpt lat="43.55319" lon="3.29751">
        <ele>137.3</ele>
        <time>2017-12-09T14:19:49Z</time>
      </trkpt>
      <trkpt lat="43.55321" lon="3.29751">
        <ele>137.3</ele>
        <time>2017-12-09T14:19:50Z</time>
      </trkpt>
      <trkpt lat="43.55327" lon="3.29751">
        <ele>137.2</ele>
        <time>2017-12-09T14:19:52Z</time>
      </trkpt>
      <trkpt lat="43.5533" lon="3.2975">
        <ele>137.2</ele>
        <time>2017-12-09T14:19:53Z</time>
      </trkpt>
      <trkpt lat="43.55333" lon="3.2975">
        <ele>137.2</ele>
        <time>2017-12-09T14:19:54Z</time>
      </trkpt>
      <trkpt lat="43.55336" lon="3.2975">
        <ele>137.1</ele>
        <time>2017-12-09T14:19:55Z</time>
      </trkpt>
      <trkpt lat="43.55339" lon="3.2975">
        <ele>137.1</ele>
        <time>2017-12-09T14:19:56Z</time>
      </trkpt>
      <trkpt lat="43.55344" lon="3.29749">
        <ele>137.1</ele>
        <time>2017-12-09T14:19:58Z</time>
      </trkpt>
      <trkpt lat="43.55349" lon="3.29749">
        <ele>137</ele>
        <time>2017-12-09T14:20:00Z</time>
      </trkpt>
      <trkpt lat="43.55352" lon="3.29749">
        <ele>137</ele>
        <time>2017-12-09T14:20:01Z</time>
      </trkpt>
      <trkpt lat="43.55356" lon="3.29749">
        <ele>137</ele>
        <time>2017-12-09T14:20:02Z</time>
      </trkpt>
      <trkpt lat="43.55358" lon="3.2975">
        <ele>137</ele>
        <time>2017-12-09T14:20:03Z</time>
      </trkpt>
      <trkpt lat="43.55361" lon="3.2975">
        <ele>137</ele>
        <time>2017-12-09T14:20:04Z</time>
      </trkpt>
      <trkpt lat="43.55365" lon="3.2975">
        <ele>137</ele>
        <time>2017-12-09T14:20:05Z</time>
      </trkpt>
      <trkpt lat="43.55368" lon="3.29751">
        <ele>137</ele>
        <time>2017-12-09T14:20:06Z</time>
      </trkpt>
      <trkpt lat="43.55371" lon="3.29752">
        <ele>137</ele>
        <time>2017-12-09T14:20:07Z</time>
      </trkpt>
      <trkpt lat="43.55376" lon="3.29753">
        <ele>137</ele>
        <time>2017-12-09T14:20:09Z</time>
      </trkpt>
      <trkpt lat="43.55381" lon="3.29755">
        <ele>137.1</ele>
        <time>2017-12-09T14:20:11Z</time>
      </trkpt>
      <trkpt lat="43.55386" lon="3.29758">
        <ele>137.1</ele>
        <time>2017-12-09T14:20:13Z</time>
      </trkpt>
      <trkpt lat="43.55392" lon="3.29759">
        <ele>137.1</ele>
        <time>2017-12-09T14:20:15Z</time>
      </trkpt>
      <trkpt lat="43.55394" lon="3.2976">
        <ele>137.1</ele>
        <time>2017-12-09T14:20:16Z</time>
      </trkpt>
      <trkpt lat="43.55399" lon="3.29762">
        <ele>137.1</ele>
        <time>2017-12-09T14:20:18Z</time>
      </trkpt>
      <trkpt lat="43.55404" lon="3.29764">
        <ele>137.2</ele>
        <time>2017-12-09T14:20:20Z</time>
      </trkpt>
      <trkpt lat="43.55408" lon="3.29765">
        <ele>137.2</ele>
        <time>2017-12-09T14:20:22Z</time>
      </trkpt>
      <trkpt lat="43.5541" lon="3.29766">
        <ele>137.2</ele>
        <time>2017-12-09T14:20:24Z</time>
      </trkpt>
      <trkpt lat="43.55414" lon="3.29768">
        <ele>137.2</ele>
        <time>2017-12-09T14:20:27Z</time>
      </trkpt>
      <trkpt lat="43.55417" lon="3.2977">
        <ele>137.2</ele>
        <time>2017-12-09T14:20:30Z</time>
      </trkpt>
      <trkpt lat="43.55418" lon="3.29774">
        <ele>137.3</ele>
        <time>2017-12-09T14:20:32Z</time>
      </trkpt>
      <trkpt lat="43.55418" lon="3.29779">
        <ele>137.3</ele>
        <time>2017-12-09T14:20:35Z</time>
      </trkpt>
      <trkpt lat="43.55419" lon="3.29784">
        <ele>137.3</ele>
        <time>2017-12-09T14:20:38Z</time>
      </trkpt>
      <trkpt lat="43.55418" lon="3.29789">
        <ele>137.4</ele>
        <time>2017-12-09T14:20:41Z</time>
      </trkpt>
      <trkpt lat="43.55419" lon="3.29792">
        <ele>137.4</ele>
        <time>2017-12-09T14:20:43Z</time>
      </trkpt>
      <trkpt lat="43.55418" lon="3.29798">
        <ele>137.8</ele>
        <time>2017-12-09T14:20:46Z</time>
      </trkpt>
      <trkpt lat="43.55416" lon="3.29802">
        <ele>138.3</ele>
        <time>2017-12-09T14:20:48Z</time>
      </trkpt>
      <trkpt lat="43.55414" lon="3.29806">
        <ele>138.7</ele>
        <time>2017-12-09T14:20:58Z</time>
      </trkpt>
      <trkpt lat="43.5541" lon="3.29809">
        <ele>139.1</ele>
        <time>2017-12-09T14:21:00Z</time>
      </trkpt>
      <trkpt lat="43.55408" lon="3.29813">
        <ele>139.5</ele>
        <time>2017-12-09T14:21:02Z</time>
      </trkpt>
      <trkpt lat="43.55406" lon="3.29817">
        <ele>139.6</ele>
        <time>2017-12-09T14:21:04Z</time>
      </trkpt>
      <trkpt lat="43.55404" lon="3.2982">
        <ele>140</ele>
        <time>2017-12-09T14:21:06Z</time>
      </trkpt>
      <trkpt lat="43.55403" lon="3.29823">
        <ele>140.6</ele>
        <time>2017-12-09T14:21:08Z</time>
      </trkpt>
      <trkpt lat="43.55402" lon="3.29828">
        <ele>141</ele>
        <time>2017-12-09T14:21:28Z</time>
      </trkpt>
      <trkpt lat="43.554" lon="3.2983">
        <ele>141.5</ele>
        <time>2017-12-09T14:21:31Z</time>
      </trkpt>
      <trkpt lat="43.55399" lon="3.29835">
        <ele>141.9</ele>
        <time>2017-12-09T14:21:34Z</time>
      </trkpt>
      <trkpt lat="43.55397" lon="3.29839">
        <ele>142.4</ele>
        <time>2017-12-09T14:21:37Z</time>
      </trkpt>
      <trkpt lat="43.55396" lon="3.29842">
        <ele>142.3</ele>
        <time>2017-12-09T14:21:41Z</time>
      </trkpt>
      <trkpt lat="43.55393" lon="3.29846">
        <ele>142.8</ele>
        <time>2017-12-09T14:21:47Z</time>
      </trkpt>
      <trkpt lat="43.55393" lon="3.29851">
        <ele>143.1</ele>
        <time>2017-12-09T14:21:51Z</time>
      </trkpt>
      <trkpt lat="43.55393" lon="3.29855">
        <ele>143.7</ele>
        <time>2017-12-09T14:21:55Z</time>
      </trkpt>
      <trkpt lat="43.55393" lon="3.29859">
        <ele>144.3</ele>
        <time>2017-12-09T14:22:00Z</time>
      </trkpt>
      <trkpt lat="43.55392" lon="3.29863">
        <ele>144.9</ele>
        <time>2017-12-09T14:22:03Z</time>
      </trkpt>
      <trkpt lat="43.55391" lon="3.29867">
        <ele>145.5</ele>
        <time>2017-12-09T14:22:06Z</time>
      </trkpt>
      <trkpt lat="43.55392" lon="3.29872">
        <ele>146.1</ele>
        <time>2017-12-09T14:22:11Z</time>
      </trkpt>
      <trkpt lat="43.55393" lon="3.29876">
        <ele>147</ele>
        <time>2017-12-09T14:22:14Z</time>
      </trkpt>
      <trkpt lat="43.55394" lon="3.2988">
        <ele>147.7</ele>
        <time>2017-12-09T14:22:18Z</time>
      </trkpt>
      <trkpt lat="43.55394" lon="3.29884">
        <ele>148.3</ele>
        <time>2017-12-09T14:22:23Z</time>
      </trkpt>
      <trkpt lat="43.55393" lon="3.29889">
        <ele>148.5</ele>
        <time>2017-12-09T14:22:26Z</time>
      </trkpt>
      <trkpt lat="43.55392" lon="3.29892">
        <ele>149.1</ele>
        <time>2017-12-09T14:22:29Z</time>
      </trkpt>
      <trkpt lat="43.55393" lon="3.29896">
        <ele>149.7</ele>
        <time>2017-12-09T14:22:35Z</time>
      </trkpt>
      <trkpt lat="43.55394" lon="3.299">
        <ele>150.6</ele>
        <time>2017-12-09T14:22:41Z</time>
      </trkpt>
      <trkpt lat="43.55395" lon="3.29904">
        <ele>151.2</ele>
        <time>2017-12-09T14:22:48Z</time>
      </trkpt>
      <trkpt lat="43.55397" lon="3.29908">
        <ele>152.2</ele>
        <time>2017-12-09T14:22:56Z</time>
      </trkpt>
      <trkpt lat="43.55399" lon="3.29911">
        <ele>152.3</ele>
        <time>2017-12-09T14:22:58Z</time>
      </trkpt>
      <trkpt lat="43.55401" lon="3.29913">
        <ele>153.2</ele>
        <time>2017-12-09T14:23:00Z</time>
      </trkpt>
      <trkpt lat="43.55405" lon="3.29915">
        <ele>153.5</ele>
        <time>2017-12-09T14:23:02Z</time>
      </trkpt>
      <trkpt lat="43.55408" lon="3.29917">
        <ele>154.4</ele>
        <time>2017-12-09T14:23:04Z</time>
      </trkpt>
      <trkpt lat="43.55411" lon="3.2992">
        <ele>154.7</ele>
        <time>2017-12-09T14:23:06Z</time>
      </trkpt>
      <trkpt lat="43.55414" lon="3.29922">
        <ele>155.6</ele>
        <time>2017-12-09T14:23:09Z</time>
      </trkpt>
      <trkpt lat="43.55419" lon="3.29924">
        <ele>156.2</ele>
        <time>2017-12-09T14:23:11Z</time>
      </trkpt>
      <trkpt lat="43.55422" lon="3.29927">
        <ele>157.1</ele>
        <time>2017-12-09T14:23:14Z</time>
      </trkpt>
      <trkpt lat="43.55424" lon="3.2993">
        <ele>157.6</ele>
        <time>2017-12-09T14:23:17Z</time>
      </trkpt>
      <trkpt lat="43.55427" lon="3.29934">
        <ele>158.3</ele>
        <time>2017-12-09T14:23:21Z</time>
      </trkpt>
      <trkpt lat="43.55429" lon="3.29936">
        <ele>158.4</ele>
        <time>2017-12-09T14:23:25Z</time>
      </trkpt>
      <trkpt lat="43.55431" lon="3.2994">
        <ele>158.5</ele>
        <time>2017-12-09T14:23:28Z</time>
      </trkpt>
      <trkpt lat="43.55432" lon="3.29944">
        <ele>158.6</ele>
        <time>2017-12-09T14:23:33Z</time>
      </trkpt>
      <trkpt lat="43.55434" lon="3.29946">
        <ele>158.7</ele>
        <time>2017-12-09T14:23:36Z</time>
      </trkpt>
      <trkpt lat="43.55436" lon="3.29952">
        <ele>158.8</ele>
        <time>2017-12-09T14:23:42Z</time>
      </trkpt>
      <trkpt lat="43.55437" lon="3.29957">
        <ele>158.9</ele>
        <time>2017-12-09T14:23:44Z</time>
      </trkpt>
      <trkpt lat="43.55437" lon="3.29961">
        <ele>159</ele>
        <time>2017-12-09T14:23:47Z</time>
      </trkpt>
      <trkpt lat="43.55436" lon="3.29965">
        <ele>159.2</ele>
        <time>2017-12-09T14:23:50Z</time>
      </trkpt>
      <trkpt lat="43.55435" lon="3.29971">
        <ele>159.4</ele>
        <time>2017-12-09T14:23:52Z</time>
      </trkpt>
      <trkpt lat="43.55435" lon="3.29975">
        <ele>159.5</ele>
        <time>2017-12-09T14:23:53Z</time>
      </trkpt>
      <trkpt lat="43.55434" lon="3.2998">
        <ele>159.7</ele>
        <time>2017-12-09T14:23:55Z</time>
      </trkpt>
      <trkpt lat="43.55433" lon="3.29984">
        <ele>159.9</ele>
        <time>2017-12-09T14:23:57Z</time>
      </trkpt>
      <trkpt lat="43.55432" lon="3.29988">
        <ele>160</ele>
        <time>2017-12-09T14:23:59Z</time>
      </trkpt>
      <trkpt lat="43.5543" lon="3.29993">
        <ele>160.2</ele>
        <time>2017-12-09T14:24:01Z</time>
      </trkpt>
      <trkpt lat="43.55428" lon="3.29999">
        <ele>160.4</ele>
        <time>2017-12-09T14:24:03Z</time>
      </trkpt>
      <trkpt lat="43.55426" lon="3.30004">
        <ele>160.6</ele>
        <time>2017-12-09T14:24:05Z</time>
      </trkpt>
      <trkpt lat="43.55424" lon="3.30009">
        <ele>160.7</ele>
        <time>2017-12-09T14:24:07Z</time>
      </trkpt>
      <trkpt lat="43.55423" lon="3.30012">
        <ele>160.8</ele>
        <time>2017-12-09T14:24:09Z</time>
      </trkpt>
      <trkpt lat="43.55422" lon="3.30018">
        <ele>160.8</ele>
        <time>2017-12-09T14:24:11Z</time>
      </trkpt>
      <trkpt lat="43.55423" lon="3.30023">
        <ele>160.9</ele>
        <time>2017-12-09T14:24:13Z</time>
      </trkpt>
      <trkpt lat="43.55427" lon="3.30025">
        <ele>160.9</ele>
        <time>2017-12-09T14:24:15Z</time>
      </trkpt>
      <trkpt lat="43.55431" lon="3.30025">
        <ele>161.4</ele>
        <time>2017-12-09T14:24:17Z</time>
      </trkpt>
      <trkpt lat="43.55436" lon="3.30025">
        <ele>161.7</ele>
        <time>2017-12-09T14:24:19Z</time>
      </trkpt>
      <trkpt lat="43.55439" lon="3.30025">
        <ele>161.8</ele>
        <time>2017-12-09T14:24:20Z</time>
      </trkpt>
      <trkpt lat="43.55444" lon="3.30024">
        <ele>162.1</ele>
        <time>2017-12-09T14:24:22Z</time>
      </trkpt>
      <trkpt lat="43.55448" lon="3.30022">
        <ele>162.4</ele>
        <time>2017-12-09T14:24:24Z</time>
      </trkpt>
      <trkpt lat="43.55452" lon="3.30019">
        <ele>162.6</ele>
        <time>2017-12-09T14:24:26Z</time>
      </trkpt>
      <trkpt lat="43.55455" lon="3.30017">
        <ele>162.7</ele>
        <time>2017-12-09T14:24:28Z</time>
      </trkpt>
      <trkpt lat="43.55459" lon="3.30015">
        <ele>162.9</ele>
        <time>2017-12-09T14:24:30Z</time>
      </trkpt>
      <trkpt lat="43.55462" lon="3.30011">
        <ele>162.9</ele>
        <time>2017-12-09T14:24:32Z</time>
      </trkpt>
      <trkpt lat="43.55465" lon="3.30007">
        <ele>163</ele>
        <time>2017-12-09T14:24:34Z</time>
      </trkpt>
      <trkpt lat="43.55468" lon="3.30004">
        <ele>163</ele>
        <time>2017-12-09T14:24:36Z</time>
      </trkpt>
      <trkpt lat="43.55471" lon="3.3">
        <ele>163.1</ele>
        <time>2017-12-09T14:24:38Z</time>
      </trkpt>
      <trkpt lat="43.55474" lon="3.29997">
        <ele>163.1</ele>
        <time>2017-12-09T14:24:40Z</time>
      </trkpt>
      <trkpt lat="43.55477" lon="3.29992">
        <ele>163.2</ele>
        <time>2017-12-09T14:24:42Z</time>
      </trkpt>
      <trkpt lat="43.55479" lon="3.29989">
        <ele>163.2</ele>
        <time>2017-12-09T14:24:43Z</time>
      </trkpt>
      <trkpt lat="43.55482" lon="3.29983">
        <ele>163.3</ele>
        <time>2017-12-09T14:24:45Z</time>
      </trkpt>
      <trkpt lat="43.55484" lon="3.2998">
        <ele>163.4</ele>
        <time>2017-12-09T14:24:46Z</time>
      </trkpt>
      <trkpt lat="43.55486" lon="3.29974">
        <ele>163.5</ele>
        <time>2017-12-09T14:24:48Z</time>
      </trkpt>
      <trkpt lat="43.55488" lon="3.29968">
        <ele>163.7</ele>
        <time>2017-12-09T14:24:50Z</time>
      </trkpt>
      <trkpt lat="43.5549" lon="3.29962">
        <ele>163.9</ele>
        <time>2017-12-09T14:24:52Z</time>
      </trkpt>
      <trkpt lat="43.55492" lon="3.29957">
        <ele>164</ele>
        <time>2017-12-09T14:24:54Z</time>
      </trkpt>
      <trkpt lat="43.55493" lon="3.29953">
        <ele>164.2</ele>
        <time>2017-12-09T14:24:56Z</time>
      </trkpt>
      <trkpt lat="43.55495" lon="3.29948">
        <ele>164.4</ele>
        <time>2017-12-09T14:24:58Z</time>
      </trkpt>
      <trkpt lat="43.55497" lon="3.29942">
        <ele>164.6</ele>
        <time>2017-12-09T14:25:00Z</time>
      </trkpt>
      <trkpt lat="43.55499" lon="3.29938">
        <ele>164.7</ele>
        <time>2017-12-09T14:25:02Z</time>
      </trkpt>
      <trkpt lat="43.55501" lon="3.29934">
        <ele>164.7</ele>
        <time>2017-12-09T14:25:04Z</time>
      </trkpt>
      <trkpt lat="43.55504" lon="3.2993">
        <ele>164.8</ele>
        <time>2017-12-09T14:25:06Z</time>
      </trkpt>
      <trkpt lat="43.55506" lon="3.29927">
        <ele>164.8</ele>
        <time>2017-12-09T14:25:08Z</time>
      </trkpt>
      <trkpt lat="43.55509" lon="3.29923">
        <ele>164.9</ele>
        <time>2017-12-09T14:25:10Z</time>
      </trkpt>
      <trkpt lat="43.55511" lon="3.2992">
        <ele>165</ele>
        <time>2017-12-09T14:25:12Z</time>
      </trkpt>
      <trkpt lat="43.55515" lon="3.29917">
        <ele>164.8</ele>
        <time>2017-12-09T14:25:14Z</time>
      </trkpt>
      <trkpt lat="43.55517" lon="3.29914">
        <ele>162.5</ele>
        <time>2017-12-09T14:25:16Z</time>
      </trkpt>
      <trkpt lat="43.55521" lon="3.29912">
        <ele>159.3</ele>
        <time>2017-12-09T14:25:19Z</time>
      </trkpt>
      <trkpt lat="43.55524" lon="3.29909">
        <ele>156.7</ele>
        <time>2017-12-09T14:25:21Z</time>
      </trkpt>
      <trkpt lat="43.55527" lon="3.29907">
        <ele>154.2</ele>
        <time>2017-12-09T14:25:23Z</time>
      </trkpt>
      <trkpt lat="43.5553" lon="3.29907">
        <ele>151.4</ele>
        <time>2017-12-09T14:25:25Z</time>
      </trkpt>
      <trkpt lat="43.55534" lon="3.29911">
        <ele>152.5</ele>
        <time>2017-12-09T14:25:27Z</time>
      </trkpt>
      <trkpt lat="43.55536" lon="3.29914">
        <ele>153.4</ele>
        <time>2017-12-09T14:25:29Z</time>
      </trkpt>
      <trkpt lat="43.55538" lon="3.29918">
        <ele>154.2</ele>
        <time>2017-12-09T14:25:31Z</time>
      </trkpt>
      <trkpt lat="43.55539" lon="3.29921">
        <ele>154.9</ele>
        <time>2017-12-09T14:25:33Z</time>
      </trkpt>
      <trkpt lat="43.55541" lon="3.29925">
        <ele>155.6</ele>
        <time>2017-12-09T14:25:35Z</time>
      </trkpt>
      <trkpt lat="43.55544" lon="3.29929">
        <ele>156.7</ele>
        <time>2017-12-09T14:25:38Z</time>
      </trkpt>
      <trkpt lat="43.55547" lon="3.29932">
        <ele>157.6</ele>
        <time>2017-12-09T14:25:41Z</time>
      </trkpt>
      <trkpt lat="43.5555" lon="3.29935">
        <ele>158.4</ele>
        <time>2017-12-09T14:25:44Z</time>
      </trkpt>
      <trkpt lat="43.55553" lon="3.29936">
        <ele>159.4</ele>
        <time>2017-12-09T14:25:46Z</time>
      </trkpt>
      <trkpt lat="43.55556" lon="3.29936">
        <ele>160.5</ele>
        <time>2017-12-09T14:25:49Z</time>
      </trkpt>
      <trkpt lat="43.55559" lon="3.29937">
        <ele>161.3</ele>
        <time>2017-12-09T14:25:52Z</time>
      </trkpt>
      <trkpt lat="43.55562" lon="3.29939">
        <ele>162</ele>
        <time>2017-12-09T14:25:55Z</time>
      </trkpt>
      <trkpt lat="43.55565" lon="3.2994">
        <ele>162.7</ele>
        <time>2017-12-09T14:25:59Z</time>
      </trkpt>
      <trkpt lat="43.55569" lon="3.29941">
        <ele>163.5</ele>
        <time>2017-12-09T14:26:02Z</time>
      </trkpt>
      <trkpt lat="43.55572" lon="3.29942">
        <ele>164</ele>
        <time>2017-12-09T14:26:04Z</time>
      </trkpt>
      <trkpt lat="43.55575" lon="3.29943">
        <ele>164.5</ele>
        <time>2017-12-09T14:26:07Z</time>
      </trkpt>
      <trkpt lat="43.55578" lon="3.29943">
        <ele>165.3</ele>
        <time>2017-12-09T14:26:10Z</time>
      </trkpt>
      <trkpt lat="43.55582" lon="3.29942">
        <ele>166</ele>
        <time>2017-12-09T14:26:13Z</time>
      </trkpt>
      <trkpt lat="43.55585" lon="3.29942">
        <ele>166.7</ele>
        <time>2017-12-09T14:26:16Z</time>
      </trkpt>
      <trkpt lat="43.55588" lon="3.29942">
        <ele>167.3</ele>
        <time>2017-12-09T14:26:18Z</time>
      </trkpt>
      <trkpt lat="43.55591" lon="3.29942">
        <ele>167.8</ele>
        <time>2017-12-09T14:26:20Z</time>
      </trkpt>
      <trkpt lat="43.55595" lon="3.29943">
        <ele>168.7</ele>
        <time>2017-12-09T14:26:23Z</time>
      </trkpt>
      <trkpt lat="43.55598" lon="3.29942">
        <ele>169.5</ele>
        <time>2017-12-09T14:26:25Z</time>
      </trkpt>
      <trkpt lat="43.55602" lon="3.29942">
        <ele>170.6</ele>
        <time>2017-12-09T14:26:28Z</time>
      </trkpt>
      <trkpt lat="43.55605" lon="3.29942">
        <ele>171.4</ele>
        <time>2017-12-09T14:26:31Z</time>
      </trkpt>
      <trkpt lat="43.55608" lon="3.29942">
        <ele>172.2</ele>
        <time>2017-12-09T14:26:33Z</time>
      </trkpt>
      <trkpt lat="43.55611" lon="3.29943">
        <ele>173</ele>
        <time>2017-12-09T14:26:36Z</time>
      </trkpt>
      <trkpt lat="43.55614" lon="3.29943">
        <ele>173.9</ele>
        <time>2017-12-09T14:26:38Z</time>
      </trkpt>
      <trkpt lat="43.55618" lon="3.29945">
        <ele>174.3</ele>
        <time>2017-12-09T14:26:41Z</time>
      </trkpt>
      <trkpt lat="43.55622" lon="3.29947">
        <ele>174.7</ele>
        <time>2017-12-09T14:26:44Z</time>
      </trkpt>
      <trkpt lat="43.55625" lon="3.29949">
        <ele>175.1</ele>
        <time>2017-12-09T14:26:47Z</time>
      </trkpt>
      <trkpt lat="43.55628" lon="3.29951">
        <ele>175.4</ele>
        <time>2017-12-09T14:26:50Z</time>
      </trkpt>
      <trkpt lat="43.55631" lon="3.29951">
        <ele>175.7</ele>
        <time>2017-12-09T14:26:52Z</time>
      </trkpt>
      <trkpt lat="43.55634" lon="3.29951">
        <ele>175.8</ele>
        <time>2017-12-09T14:26:54Z</time>
      </trkpt>
      <trkpt lat="43.55637" lon="3.29952">
        <ele>176.1</ele>
        <time>2017-12-09T14:26:56Z</time>
      </trkpt>
      <trkpt lat="43.5564" lon="3.29953">
        <ele>176.4</ele>
        <time>2017-12-09T14:26:59Z</time>
      </trkpt>
      <trkpt lat="43.55644" lon="3.29955">
        <ele>176.8</ele>
        <time>2017-12-09T14:27:02Z</time>
      </trkpt>
      <trkpt lat="43.55647" lon="3.29955">
        <ele>177.1</ele>
        <time>2017-12-09T14:27:05Z</time>
      </trkpt>
      <trkpt lat="43.5565" lon="3.29956">
        <ele>177.3</ele>
        <time>2017-12-09T14:27:08Z</time>
      </trkpt>
      <trkpt lat="43.55654" lon="3.29957">
        <ele>177.6</ele>
        <time>2017-12-09T14:27:11Z</time>
      </trkpt>
      <trkpt lat="43.55657" lon="3.29958">
        <ele>178</ele>
        <time>2017-12-09T14:27:14Z</time>
      </trkpt>
      <trkpt lat="43.5566" lon="3.29958">
        <ele>178.3</ele>
        <time>2017-12-09T14:27:16Z</time>
      </trkpt>
      <trkpt lat="43.55664" lon="3.2996">
        <ele>178.7</ele>
        <time>2017-12-09T14:27:19Z</time>
      </trkpt>
      <trkpt lat="43.55667" lon="3.29961">
        <ele>179</ele>
        <time>2017-12-09T14:27:22Z</time>
      </trkpt>
      <trkpt lat="43.5567" lon="3.2996">
        <ele>179.3</ele>
        <time>2017-12-09T14:27:25Z</time>
      </trkpt>
      <trkpt lat="43.55673" lon="3.2996">
        <ele>179.7</ele>
        <time>2017-12-09T14:27:28Z</time>
      </trkpt>
      <trkpt lat="43.55676" lon="3.2996">
        <ele>179.9</ele>
        <time>2017-12-09T14:27:31Z</time>
      </trkpt>
      <trkpt lat="43.5568" lon="3.29961">
        <ele>180</ele>
        <time>2017-12-09T14:27:34Z</time>
      </trkpt>
      <trkpt lat="43.55683" lon="3.29963">
        <ele>180.1</ele>
        <time>2017-12-09T14:27:37Z</time>
      </trkpt>
      <trkpt lat="43.55686" lon="3.29965">
        <ele>180.3</ele>
        <time>2017-12-09T14:27:40Z</time>
      </trkpt>
      <trkpt lat="43.55689" lon="3.29967">
        <ele>180.4</ele>
        <time>2017-12-09T14:27:43Z</time>
      </trkpt>
      <trkpt lat="43.55693" lon="3.2997">
        <ele>180.6</ele>
        <time>2017-12-09T14:27:46Z</time>
      </trkpt>
      <trkpt lat="43.55696" lon="3.29972">
        <ele>180.9</ele>
        <time>2017-12-09T14:27:49Z</time>
      </trkpt>
      <trkpt lat="43.55699" lon="3.29974">
        <ele>181</ele>
        <time>2017-12-09T14:27:52Z</time>
      </trkpt>
      <trkpt lat="43.55702" lon="3.29976">
        <ele>181</ele>
        <time>2017-12-09T14:27:55Z</time>
      </trkpt>
      <trkpt lat="43.55705" lon="3.29976">
        <ele>181</ele>
        <time>2017-12-09T14:27:57Z</time>
      </trkpt>
      <trkpt lat="43.55707" lon="3.29976">
        <ele>181.1</ele>
        <time>2017-12-09T14:27:59Z</time>
      </trkpt>
      <trkpt lat="43.55711" lon="3.29977">
        <ele>182.5</ele>
        <time>2017-12-09T14:28:02Z</time>
      </trkpt>
      <trkpt lat="43.55714" lon="3.29978">
        <ele>183.5</ele>
        <time>2017-12-09T14:28:04Z</time>
      </trkpt>
      <trkpt lat="43.55716" lon="3.2998">
        <ele>184.4</ele>
        <time>2017-12-09T14:28:06Z</time>
      </trkpt>
      <trkpt lat="43.55719" lon="3.29981">
        <ele>185.3</ele>
        <time>2017-12-09T14:28:08Z</time>
      </trkpt>
      <trkpt lat="43.55722" lon="3.29982">
        <ele>186.3</ele>
        <time>2017-12-09T14:28:10Z</time>
      </trkpt>
      <trkpt lat="43.55725" lon="3.29984">
        <ele>187.3</ele>
        <time>2017-12-09T14:28:12Z</time>
      </trkpt>
      <trkpt lat="43.55728" lon="3.29985">
        <ele>188.2</ele>
        <time>2017-12-09T14:28:14Z</time>
      </trkpt>
      <trkpt lat="43.55732" lon="3.29986">
        <ele>189.2</ele>
        <time>2017-12-09T14:28:16Z</time>
      </trkpt>
      <trkpt lat="43.55735" lon="3.29987">
        <ele>190.2</ele>
        <time>2017-12-09T14:28:18Z</time>
      </trkpt>
      <trkpt lat="43.55738" lon="3.29988">
        <ele>191.3</ele>
        <time>2017-12-09T14:28:20Z</time>
      </trkpt>
      <trkpt lat="43.55742" lon="3.2999">
        <ele>192.5</ele>
        <time>2017-12-09T14:28:22Z</time>
      </trkpt>
      <trkpt lat="43.55745" lon="3.29992">
        <ele>193.9</ele>
        <time>2017-12-09T14:28:24Z</time>
      </trkpt>
      <trkpt lat="43.5575" lon="3.29994">
        <ele>195.5</ele>
        <time>2017-12-09T14:28:26Z</time>
      </trkpt>
      <trkpt lat="43.55755" lon="3.29997">
        <ele>197.2</ele>
        <time>2017-12-09T14:28:28Z</time>
      </trkpt>
      <trkpt lat="43.55757" lon="3.29999">
        <ele>198.2</ele>
        <time>2017-12-09T14:28:29Z</time>
      </trkpt>
      <trkpt lat="43.5576" lon="3.30001">
        <ele>199.2</ele>
        <time>2017-12-09T14:28:30Z</time>
      </trkpt>
      <trkpt lat="43.55763" lon="3.30003">
        <ele>200.3</ele>
        <time>2017-12-09T14:28:31Z</time>
      </trkpt>
      <trkpt lat="43.55766" lon="3.30006">
        <ele>201.5</ele>
        <time>2017-12-09T14:28:32Z</time>
      </trkpt>
      <trkpt lat="43.55768" lon="3.3001">
        <ele>202.7</ele>
        <time>2017-12-09T14:28:33Z</time>
      </trkpt>
      <trkpt lat="43.55771" lon="3.30012">
        <ele>203.8</ele>
        <time>2017-12-09T14:28:34Z</time>
      </trkpt>
      <trkpt lat="43.55774" lon="3.30015">
        <ele>204.9</ele>
        <time>2017-12-09T14:28:35Z</time>
      </trkpt>
      <trkpt lat="43.55776" lon="3.30018">
        <ele>205.1</ele>
        <time>2017-12-09T14:28:36Z</time>
      </trkpt>
      <trkpt lat="43.55779" lon="3.3002">
        <ele>205.1</ele>
        <time>2017-12-09T14:28:37Z</time>
      </trkpt>
      <trkpt lat="43.55783" lon="3.30023">
        <ele>205.2</ele>
        <time>2017-12-09T14:28:38Z</time>
      </trkpt>
      <trkpt lat="43.55786" lon="3.30027">
        <ele>205.3</ele>
        <time>2017-12-09T14:28:39Z</time>
      </trkpt>
      <trkpt lat="43.5579" lon="3.3003">
        <ele>205.3</ele>
        <time>2017-12-09T14:28:40Z</time>
      </trkpt>
      <trkpt lat="43.55793" lon="3.30033">
        <ele>205.4</ele>
        <time>2017-12-09T14:28:41Z</time>
      </trkpt>
      <trkpt lat="43.55796" lon="3.30037">
        <ele>205.5</ele>
        <time>2017-12-09T14:28:42Z</time>
      </trkpt>
      <trkpt lat="43.55799" lon="3.30041">
        <ele>205.6</ele>
        <time>2017-12-09T14:28:43Z</time>
      </trkpt>
      <trkpt lat="43.55801" lon="3.30045">
        <ele>205.7</ele>
        <time>2017-12-09T14:28:44Z</time>
      </trkpt>
      <trkpt lat="43.55804" lon="3.30048">
        <ele>205.8</ele>
        <time>2017-12-09T14:28:45Z</time>
      </trkpt>
      <trkpt lat="43.55806" lon="3.30052">
        <ele>205.9</ele>
        <time>2017-12-09T14:28:46Z</time>
      </trkpt>
      <trkpt lat="43.55808" lon="3.30055">
        <ele>206.1</ele>
        <time>2017-12-09T14:28:47Z</time>
      </trkpt>
      <trkpt lat="43.5581" lon="3.3006">
        <ele>206.6</ele>
        <time>2017-12-09T14:28:49Z</time>
      </trkpt>
      <trkpt lat="43.55812" lon="3.30065">
        <ele>207</ele>
        <time>2017-12-09T14:28:51Z</time>
      </trkpt>
      <trkpt lat="43.55814" lon="3.30069">
        <ele>207.5</ele>
        <time>2017-12-09T14:28:53Z</time>
      </trkpt>
      <trkpt lat="43.55816" lon="3.30073">
        <ele>208</ele>
        <time>2017-12-09T14:28:55Z</time>
      </trkpt>
      <trkpt lat="43.55817" lon="3.30078">
        <ele>208.3</ele>
        <time>2017-12-09T14:28:57Z</time>
      </trkpt>
      <trkpt lat="43.5582" lon="3.30082">
        <ele>208.5</ele>
        <time>2017-12-09T14:28:59Z</time>
      </trkpt>
      <trkpt lat="43.55822" lon="3.30086">
        <ele>208.6</ele>
        <time>2017-12-09T14:29:01Z</time>
      </trkpt>
      <trkpt lat="43.55824" lon="3.30089">
        <ele>208.7</ele>
        <time>2017-12-09T14:29:03Z</time>
      </trkpt>
      <trkpt lat="43.55826" lon="3.30093">
        <ele>208.8</ele>
        <time>2017-12-09T14:29:05Z</time>
      </trkpt>
      <trkpt lat="43.55829" lon="3.30098">
        <ele>209</ele>
        <time>2017-12-09T14:29:07Z</time>
      </trkpt>
      <trkpt lat="43.55831" lon="3.30103">
        <ele>209</ele>
        <time>2017-12-09T14:29:08Z</time>
      </trkpt>
      <trkpt lat="43.55833" lon="3.30107">
        <ele>209.1</ele>
        <time>2017-12-09T14:29:09Z</time>
      </trkpt>
      <trkpt lat="43.55834" lon="3.3011">
        <ele>209.2</ele>
        <time>2017-12-09T14:29:10Z</time>
      </trkpt>
      <trkpt lat="43.55837" lon="3.30117">
        <ele>209.3</ele>
        <time>2017-12-09T14:29:12Z</time>
      </trkpt>
      <trkpt lat="43.5584" lon="3.30123">
        <ele>209.6</ele>
        <time>2017-12-09T14:29:14Z</time>
      </trkpt>
      <trkpt lat="43.55842" lon="3.30127">
        <ele>209.8</ele>
        <time>2017-12-09T14:29:15Z</time>
      </trkpt>
      <trkpt lat="43.55844" lon="3.30131">
        <ele>210.2</ele>
        <time>2017-12-09T14:29:16Z</time>
      </trkpt>
      <trkpt lat="43.55845" lon="3.30135">
        <ele>210.7</ele>
        <time>2017-12-09T14:29:17Z</time>
      </trkpt>
      <trkpt lat="43.55847" lon="3.30139">
        <ele>211.3</ele>
        <time>2017-12-09T14:29:18Z</time>
      </trkpt>
      <trkpt lat="43.55849" lon="3.30145">
        <ele>212.1</ele>
        <time>2017-12-09T14:29:20Z</time>
      </trkpt>
      <trkpt lat="43.55851" lon="3.30151">
        <ele>213.1</ele>
        <time>2017-12-09T14:29:22Z</time>
      </trkpt>
      <trkpt lat="43.55852" lon="3.30157">
        <ele>214</ele>
        <time>2017-12-09T14:29:24Z</time>
      </trkpt>
      <trkpt lat="43.55854" lon="3.30162">
        <ele>214.7</ele>
        <time>2017-12-09T14:29:26Z</time>
      </trkpt>
      <trkpt lat="43.55856" lon="3.30167">
        <ele>215.2</ele>
        <time>2017-12-09T14:29:28Z</time>
      </trkpt>
      <trkpt lat="43.55858" lon="3.3017">
        <ele>215.7</ele>
        <time>2017-12-09T14:29:30Z</time>
      </trkpt>
      <trkpt lat="43.5586" lon="3.30173">
        <ele>216.1</ele>
        <time>2017-12-09T14:29:32Z</time>
      </trkpt>
      <trkpt lat="43.55863" lon="3.30178">
        <ele>216.5</ele>
        <time>2017-12-09T14:29:34Z</time>
      </trkpt>
      <trkpt lat="43.55866" lon="3.30182">
        <ele>216.8</ele>
        <time>2017-12-09T14:29:36Z</time>
      </trkpt>
      <trkpt lat="43.55869" lon="3.30188">
        <ele>217</ele>
        <time>2017-12-09T14:29:38Z</time>
      </trkpt>
      <trkpt lat="43.5587" lon="3.30191">
        <ele>217.1</ele>
        <time>2017-12-09T14:29:39Z</time>
      </trkpt>
      <trkpt lat="43.55873" lon="3.30195">
        <ele>217.2</ele>
        <time>2017-12-09T14:29:40Z</time>
      </trkpt>
      <trkpt lat="43.55875" lon="3.30198">
        <ele>217.3</ele>
        <time>2017-12-09T14:29:41Z</time>
      </trkpt>
      <trkpt lat="43.55877" lon="3.30202">
        <ele>217.3</ele>
        <time>2017-12-09T14:29:42Z</time>
      </trkpt>
      <trkpt lat="43.5588" lon="3.30206">
        <ele>217.4</ele>
        <time>2017-12-09T14:29:43Z</time>
      </trkpt>
      <trkpt lat="43.55882" lon="3.3021">
        <ele>217.5</ele>
        <time>2017-12-09T14:29:44Z</time>
      </trkpt>
      <trkpt lat="43.55885" lon="3.30216">
        <ele>217.6</ele>
        <time>2017-12-09T14:29:45Z</time>
      </trkpt>
      <trkpt lat="43.55888" lon="3.30221">
        <ele>217.7</ele>
        <time>2017-12-09T14:29:46Z</time>
      </trkpt>
      <trkpt lat="43.55891" lon="3.30226">
        <ele>218</ele>
        <time>2017-12-09T14:29:47Z</time>
      </trkpt>
      <trkpt lat="43.55893" lon="3.30232">
        <ele>218.3</ele>
        <time>2017-12-09T14:29:48Z</time>
      </trkpt>
      <trkpt lat="43.55895" lon="3.30237">
        <ele>218.7</ele>
        <time>2017-12-09T14:29:49Z</time>
      </trkpt>
      <trkpt lat="43.55896" lon="3.30241">
        <ele>219.1</ele>
        <time>2017-12-09T14:29:50Z</time>
      </trkpt>
      <trkpt lat="43.55898" lon="3.30245">
        <ele>219.4</ele>
        <time>2017-12-09T14:29:51Z</time>
      </trkpt>
      <trkpt lat="43.55899" lon="3.30249">
        <ele>219.7</ele>
        <time>2017-12-09T14:29:52Z</time>
      </trkpt>
      <trkpt lat="43.559" lon="3.30253">
        <ele>220</ele>
        <time>2017-12-09T14:29:53Z</time>
      </trkpt>
      <trkpt lat="43.55902" lon="3.30257">
        <ele>220.2</ele>
        <time>2017-12-09T14:29:54Z</time>
      </trkpt>
      <trkpt lat="43.55903" lon="3.30263">
        <ele>220.4</ele>
        <time>2017-12-09T14:29:55Z</time>
      </trkpt>
      <trkpt lat="43.55904" lon="3.30269">
        <ele>220.5</ele>
        <time>2017-12-09T14:29:56Z</time>
      </trkpt>
      <trkpt lat="43.55906" lon="3.30277">
        <ele>220.6</ele>
        <time>2017-12-09T14:29:57Z</time>
      </trkpt>
      <trkpt lat="43.55907" lon="3.30285">
        <ele>220.7</ele>
        <time>2017-12-09T14:29:58Z</time>
      </trkpt>
      <trkpt lat="43.55907" lon="3.30294">
        <ele>220.7</ele>
        <time>2017-12-09T14:29:59Z</time>
      </trkpt>
      <trkpt lat="43.55907" lon="3.30304">
        <ele>220.8</ele>
        <time>2017-12-09T14:30:00Z</time>
      </trkpt>
      <trkpt lat="43.55906" lon="3.30314">
        <ele>220.9</ele>
        <time>2017-12-09T14:30:01Z</time>
      </trkpt>
      <trkpt lat="43.55908" lon="3.30324">
        <ele>220.9</ele>
        <time>2017-12-09T14:30:02Z</time>
      </trkpt>
      <trkpt lat="43.55911" lon="3.30334">
        <ele>221</ele>
        <time>2017-12-09T14:30:03Z</time>
      </trkpt>
      <trkpt lat="43.55914" lon="3.30342">
        <ele>221</ele>
        <time>2017-12-09T14:30:04Z</time>
      </trkpt>
      <trkpt lat="43.55916" lon="3.30351">
        <ele>221.1</ele>
        <time>2017-12-09T14:30:05Z</time>
      </trkpt>
      <trkpt lat="43.55917" lon="3.30359">
        <ele>221.1</ele>
        <time>2017-12-09T14:30:06Z</time>
      </trkpt>
      <trkpt lat="43.55918" lon="3.30366">
        <ele>221</ele>
        <time>2017-12-09T14:30:07Z</time>
      </trkpt>
      <trkpt lat="43.55918" lon="3.30371">
        <ele>220.9</ele>
        <time>2017-12-09T14:30:08Z</time>
      </trkpt>
      <trkpt lat="43.55919" lon="3.30376">
        <ele>220.8</ele>
        <time>2017-12-09T14:30:09Z</time>
      </trkpt>
      <trkpt lat="43.55919" lon="3.30381">
        <ele>220.6</ele>
        <time>2017-12-09T14:30:10Z</time>
      </trkpt>
      <trkpt lat="43.5592" lon="3.30385">
        <ele>220.4</ele>
        <time>2017-12-09T14:30:11Z</time>
      </trkpt>
      <trkpt lat="43.5592" lon="3.30389">
        <ele>220.2</ele>
        <time>2017-12-09T14:30:12Z</time>
      </trkpt>
      <trkpt lat="43.55921" lon="3.30394">
        <ele>220</ele>
        <time>2017-12-09T14:30:13Z</time>
      </trkpt>
      <trkpt lat="43.55921" lon="3.30398">
        <ele>219.9</ele>
        <time>2017-12-09T14:30:14Z</time>
      </trkpt>
      <trkpt lat="43.55921" lon="3.30402">
        <ele>219.8</ele>
        <time>2017-12-09T14:30:15Z</time>
      </trkpt>
      <trkpt lat="43.55921" lon="3.30407">
        <ele>219.7</ele>
        <time>2017-12-09T14:30:16Z</time>
      </trkpt>
      <trkpt lat="43.55922" lon="3.30411">
        <ele>219.7</ele>
        <time>2017-12-09T14:30:17Z</time>
      </trkpt>
      <trkpt lat="43.55921" lon="3.30416">
        <ele>219.7</ele>
        <time>2017-12-09T14:30:18Z</time>
      </trkpt>
      <trkpt lat="43.55922" lon="3.3042">
        <ele>219.8</ele>
        <time>2017-12-09T14:30:19Z</time>
      </trkpt>
      <trkpt lat="43.55922" lon="3.30427">
        <ele>220.1</ele>
        <time>2017-12-09T14:30:21Z</time>
      </trkpt>
      <trkpt lat="43.55922" lon="3.30434">
        <ele>220.6</ele>
        <time>2017-12-09T14:30:23Z</time>
      </trkpt>
      <trkpt lat="43.55923" lon="3.3044">
        <ele>221.1</ele>
        <time>2017-12-09T14:30:25Z</time>
      </trkpt>
      <trkpt lat="43.55924" lon="3.30446">
        <ele>221.6</ele>
        <time>2017-12-09T14:30:27Z</time>
      </trkpt>
      <trkpt lat="43.55924" lon="3.30453">
        <ele>222</ele>
        <time>2017-12-09T14:30:29Z</time>
      </trkpt>
      <trkpt lat="43.55925" lon="3.3046">
        <ele>222.4</ele>
        <time>2017-12-09T14:30:31Z</time>
      </trkpt>
      <trkpt lat="43.55926" lon="3.30467">
        <ele>222.8</ele>
        <time>2017-12-09T14:30:33Z</time>
      </trkpt>
      <trkpt lat="43.55927" lon="3.3047">
        <ele>223.1</ele>
        <time>2017-12-09T14:30:34Z</time>
      </trkpt>
      <trkpt lat="43.55928" lon="3.30474">
        <ele>223.4</ele>
        <time>2017-12-09T14:30:35Z</time>
      </trkpt>
      <trkpt lat="43.55929" lon="3.3048">
        <ele>224</ele>
        <time>2017-12-09T14:30:37Z</time>
      </trkpt>
      <trkpt lat="43.55929" lon="3.30486">
        <ele>224.3</ele>
        <time>2017-12-09T14:30:39Z</time>
      </trkpt>
      <trkpt lat="43.5593" lon="3.30492">
        <ele>224.6</ele>
        <time>2017-12-09T14:30:41Z</time>
      </trkpt>
      <trkpt lat="43.5593" lon="3.30498">
        <ele>224.9</ele>
        <time>2017-12-09T14:30:43Z</time>
      </trkpt>
      <trkpt lat="43.5593" lon="3.30503">
        <ele>225.2</ele>
        <time>2017-12-09T14:30:45Z</time>
      </trkpt>
      <trkpt lat="43.55929" lon="3.30509">
        <ele>225.6</ele>
        <time>2017-12-09T14:30:47Z</time>
      </trkpt>
      <trkpt lat="43.55929" lon="3.30514">
        <ele>226</ele>
        <time>2017-12-09T14:30:49Z</time>
      </trkpt>
      <trkpt lat="43.55929" lon="3.30518">
        <ele>226.5</ele>
        <time>2017-12-09T14:30:51Z</time>
      </trkpt>
      <trkpt lat="43.55928" lon="3.30523">
        <ele>226.9</ele>
        <time>2017-12-09T14:30:53Z</time>
      </trkpt>
      <trkpt lat="43.55927" lon="3.30527">
        <ele>227.3</ele>
        <time>2017-12-09T14:30:55Z</time>
      </trkpt>
      <trkpt lat="43.55926" lon="3.30532">
        <ele>227.9</ele>
        <time>2017-12-09T14:30:58Z</time>
      </trkpt>
      <trkpt lat="43.55926" lon="3.30537">
        <ele>228.4</ele>
        <time>2017-12-09T14:31:00Z</time>
      </trkpt>
      <trkpt lat="43.55925" lon="3.30541">
        <ele>229</ele>
        <time>2017-12-09T14:31:02Z</time>
      </trkpt>
      <trkpt lat="43.55924" lon="3.30545">
        <ele>229.6</ele>
        <time>2017-12-09T14:31:04Z</time>
      </trkpt>
      <trkpt lat="43.55923" lon="3.3055">
        <ele>230.3</ele>
        <time>2017-12-09T14:31:06Z</time>
      </trkpt>
      <trkpt lat="43.55923" lon="3.30554">
        <ele>231</ele>
        <time>2017-12-09T14:31:08Z</time>
      </trkpt>
      <trkpt lat="43.55923" lon="3.30559">
        <ele>231.6</ele>
        <time>2017-12-09T14:31:10Z</time>
      </trkpt>
      <trkpt lat="43.55923" lon="3.30564">
        <ele>232.2</ele>
        <time>2017-12-09T14:31:12Z</time>
      </trkpt>
      <trkpt lat="43.55923" lon="3.30568">
        <ele>232.7</ele>
        <time>2017-12-09T14:31:14Z</time>
      </trkpt>
      <trkpt lat="43.55923" lon="3.30573">
        <ele>233.2</ele>
        <time>2017-12-09T14:31:16Z</time>
      </trkpt>
      <trkpt lat="43.55923" lon="3.30579">
        <ele>233.7</ele>
        <time>2017-12-09T14:31:18Z</time>
      </trkpt>
      <trkpt lat="43.55923" lon="3.30584">
        <ele>234.2</ele>
        <time>2017-12-09T14:31:20Z</time>
      </trkpt>
      <trkpt lat="43.55924" lon="3.30589">
        <ele>234.7</ele>
        <time>2017-12-09T14:31:22Z</time>
      </trkpt>
      <trkpt lat="43.55924" lon="3.30594">
        <ele>235</ele>
        <time>2017-12-09T14:31:24Z</time>
      </trkpt>
      <trkpt lat="43.55925" lon="3.306">
        <ele>235.3</ele>
        <time>2017-12-09T14:31:26Z</time>
      </trkpt>
      <trkpt lat="43.55926" lon="3.30605">
        <ele>235.5</ele>
        <time>2017-12-09T14:31:28Z</time>
      </trkpt>
      <trkpt lat="43.55928" lon="3.3061">
        <ele>235.7</ele>
        <time>2017-12-09T14:31:30Z</time>
      </trkpt>
      <trkpt lat="43.55929" lon="3.30616">
        <ele>235.8</ele>
        <time>2017-12-09T14:31:32Z</time>
      </trkpt>
      <trkpt lat="43.5593" lon="3.30621">
        <ele>235.9</ele>
        <time>2017-12-09T14:31:34Z</time>
      </trkpt>
      <trkpt lat="43.5593" lon="3.30626">
        <ele>236.1</ele>
        <time>2017-12-09T14:31:36Z</time>
      </trkpt>
      <trkpt lat="43.5593" lon="3.30631">
        <ele>236.3</ele>
        <time>2017-12-09T14:31:38Z</time>
      </trkpt>
      <trkpt lat="43.55929" lon="3.30636">
        <ele>236.7</ele>
        <time>2017-12-09T14:31:40Z</time>
      </trkpt>
      <trkpt lat="43.55929" lon="3.30641">
        <ele>237.1</ele>
        <time>2017-12-09T14:31:42Z</time>
      </trkpt>
      <trkpt lat="43.55929" lon="3.30647">
        <ele>237.7</ele>
        <time>2017-12-09T14:31:45Z</time>
      </trkpt>
      <trkpt lat="43.55929" lon="3.30651">
        <ele>238.4</ele>
        <time>2017-12-09T14:31:47Z</time>
      </trkpt>
      <trkpt lat="43.55929" lon="3.30656">
        <ele>239</ele>
        <time>2017-12-09T14:31:50Z</time>
      </trkpt>
      <trkpt lat="43.55927" lon="3.3066">
        <ele>239.5</ele>
        <time>2017-12-09T14:31:52Z</time>
      </trkpt>
      <trkpt lat="43.55926" lon="3.30664">
        <ele>239.9</ele>
        <time>2017-12-09T14:31:54Z</time>
      </trkpt>
      <trkpt lat="43.55926" lon="3.30669">
        <ele>240.5</ele>
        <time>2017-12-09T14:31:57Z</time>
      </trkpt>
      <trkpt lat="43.55924" lon="3.30674">
        <ele>241</ele>
        <time>2017-12-09T14:32:00Z</time>
      </trkpt>
      <trkpt lat="43.55922" lon="3.30677">
        <ele>241.4</ele>
        <time>2017-12-09T14:32:02Z</time>
      </trkpt>
      <trkpt lat="43.55921" lon="3.30681">
        <ele>241.8</ele>
        <time>2017-12-09T14:32:04Z</time>
      </trkpt>
      <trkpt lat="43.55921" lon="3.30685">
        <ele>242.3</ele>
        <time>2017-12-09T14:32:06Z</time>
      </trkpt>
      <trkpt lat="43.5592" lon="3.30688">
        <ele>242.7</ele>
        <time>2017-12-09T14:32:08Z</time>
      </trkpt>
      <trkpt lat="43.55919" lon="3.30694">
        <ele>243.3</ele>
        <time>2017-12-09T14:32:11Z</time>
      </trkpt>
      <trkpt lat="43.55919" lon="3.30697">
        <ele>243.8</ele>
        <time>2017-12-09T14:32:13Z</time>
      </trkpt>
      <trkpt lat="43.55918" lon="3.30703">
        <ele>244.4</ele>
        <time>2017-12-09T14:32:16Z</time>
      </trkpt>
      <trkpt lat="43.55917" lon="3.30707">
        <ele>244.9</ele>
        <time>2017-12-09T14:32:19Z</time>
      </trkpt>
      <trkpt lat="43.55916" lon="3.30713">
        <ele>245.5</ele>
        <time>2017-12-09T14:32:22Z</time>
      </trkpt>
      <trkpt lat="43.55916" lon="3.30717">
        <ele>246</ele>
        <time>2017-12-09T14:32:25Z</time>
      </trkpt>
      <trkpt lat="43.55915" lon="3.30723">
        <ele>246.6</ele>
        <time>2017-12-09T14:32:28Z</time>
      </trkpt>
      <trkpt lat="43.55915" lon="3.30728">
        <ele>247.2</ele>
        <time>2017-12-09T14:32:31Z</time>
      </trkpt>
      <trkpt lat="43.55915" lon="3.30731">
        <ele>247.7</ele>
        <time>2017-12-09T14:32:33Z</time>
      </trkpt>
      <trkpt lat="43.55916" lon="3.30737">
        <ele>248.5</ele>
        <time>2017-12-09T14:32:36Z</time>
      </trkpt>
      <trkpt lat="43.55917" lon="3.30742">
        <ele>249</ele>
        <time>2017-12-09T14:32:38Z</time>
      </trkpt>
      <trkpt lat="43.55917" lon="3.30746">
        <ele>249.5</ele>
        <time>2017-12-09T14:32:40Z</time>
      </trkpt>
      <trkpt lat="43.55917" lon="3.3075">
        <ele>250</ele>
        <time>2017-12-09T14:32:42Z</time>
      </trkpt>
      <trkpt lat="43.55917" lon="3.30755">
        <ele>250.4</ele>
        <time>2017-12-09T14:32:44Z</time>
      </trkpt>
      <trkpt lat="43.55917" lon="3.30759">
        <ele>250.9</ele>
        <time>2017-12-09T14:32:46Z</time>
      </trkpt>
      <trkpt lat="43.55918" lon="3.30764">
        <ele>251.3</ele>
        <time>2017-12-09T14:32:48Z</time>
      </trkpt>
      <trkpt lat="43.55918" lon="3.30769">
        <ele>251.6</ele>
        <time>2017-12-09T14:32:50Z</time>
      </trkpt>
      <trkpt lat="43.55919" lon="3.30774">
        <ele>251.8</ele>
        <time>2017-12-09T14:32:52Z</time>
      </trkpt>
      <trkpt lat="43.55919" lon="3.30778">
        <ele>251.9</ele>
        <time>2017-12-09T14:32:54Z</time>
      </trkpt>
      <trkpt lat="43.55919" lon="3.30783">
        <ele>252</ele>
        <time>2017-12-09T14:32:56Z</time>
      </trkpt>
      <trkpt lat="43.55919" lon="3.30787">
        <ele>252.2</ele>
        <time>2017-12-09T14:32:58Z</time>
      </trkpt>
      <trkpt lat="43.55919" lon="3.3079">
        <ele>252.3</ele>
        <time>2017-12-09T14:33:00Z</time>
      </trkpt>
      <trkpt lat="43.55919" lon="3.30795">
        <ele>252.4</ele>
        <time>2017-12-09T14:33:02Z</time>
      </trkpt>
      <trkpt lat="43.55919" lon="3.30799">
        <ele>252.5</ele>
        <time>2017-12-09T14:33:04Z</time>
      </trkpt>
      <trkpt lat="43.55919" lon="3.30804">
        <ele>252.6</ele>
        <time>2017-12-09T14:33:06Z</time>
      </trkpt>
      <trkpt lat="43.55919" lon="3.30808">
        <ele>252.8</ele>
        <time>2017-12-09T14:33:08Z</time>
      </trkpt>
      <trkpt lat="43.5592" lon="3.30813">
        <ele>252.9</ele>
        <time>2017-12-09T14:33:10Z</time>
      </trkpt>
      <trkpt lat="43.5592" lon="3.30817">
        <ele>253.1</ele>
        <time>2017-12-09T14:33:12Z</time>
      </trkpt>
      <trkpt lat="43.55921" lon="3.30821">
        <ele>253.2</ele>
        <time>2017-12-09T14:33:14Z</time>
      </trkpt>
      <trkpt lat="43.55922" lon="3.30825">
        <ele>253.4</ele>
        <time>2017-12-09T14:33:16Z</time>
      </trkpt>
      <trkpt lat="43.55923" lon="3.30831">
        <ele>253.8</ele>
        <time>2017-12-09T14:33:19Z</time>
      </trkpt>
      <trkpt lat="43.55923" lon="3.30836">
        <ele>254.2</ele>
        <time>2017-12-09T14:33:22Z</time>
      </trkpt>
      <trkpt lat="43.55924" lon="3.30839">
        <ele>254.7</ele>
        <time>2017-12-09T14:33:24Z</time>
      </trkpt>
      <trkpt lat="43.55925" lon="3.30843">
        <ele>255.1</ele>
        <time>2017-12-09T14:33:26Z</time>
      </trkpt>
      <trkpt lat="43.55927" lon="3.30848">
        <ele>255.6</ele>
        <time>2017-12-09T14:33:28Z</time>
      </trkpt>
      <trkpt lat="43.55929" lon="3.30852">
        <ele>256</ele>
        <time>2017-12-09T14:33:30Z</time>
      </trkpt>
      <trkpt lat="43.55931" lon="3.30856">
        <ele>256.3</ele>
        <time>2017-12-09T14:33:32Z</time>
      </trkpt>
      <trkpt lat="43.55932" lon="3.3086">
        <ele>256.5</ele>
        <time>2017-12-09T14:33:34Z</time>
      </trkpt>
      <trkpt lat="43.55934" lon="3.30864">
        <ele>256.7</ele>
        <time>2017-12-09T14:33:36Z</time>
      </trkpt>
      <trkpt lat="43.55937" lon="3.30869">
        <ele>257</ele>
        <time>2017-12-09T14:33:38Z</time>
      </trkpt>
      <trkpt lat="43.55939" lon="3.30874">
        <ele>257</ele>
        <time>2017-12-09T14:33:40Z</time>
      </trkpt>
      <trkpt lat="43.55941" lon="3.30877">
        <ele>257</ele>
        <time>2017-12-09T14:33:42Z</time>
      </trkpt>
      <trkpt lat="43.55943" lon="3.30881">
        <ele>257</ele>
        <time>2017-12-09T14:33:44Z</time>
      </trkpt>
      <trkpt lat="43.55946" lon="3.30885">
        <ele>257</ele>
        <time>2017-12-09T14:33:46Z</time>
      </trkpt>
      <trkpt lat="43.55949" lon="3.30889">
        <ele>257</ele>
        <time>2017-12-09T14:33:48Z</time>
      </trkpt>
      <trkpt lat="43.55952" lon="3.30892">
        <ele>257</ele>
        <time>2017-12-09T14:33:50Z</time>
      </trkpt>
      <trkpt lat="43.55954" lon="3.30896">
        <ele>257</ele>
        <time>2017-12-09T14:33:52Z</time>
      </trkpt>
      <trkpt lat="43.55955" lon="3.309">
        <ele>257</ele>
        <time>2017-12-09T14:33:54Z</time>
      </trkpt>
      <trkpt lat="43.55956" lon="3.30904">
        <ele>257</ele>
        <time>2017-12-09T14:33:57Z</time>
      </trkpt>
      <trkpt lat="43.55954" lon="3.30907">
        <ele>257.2</ele>
        <time>2017-12-09T14:33:59Z</time>
      </trkpt>
      <trkpt lat="43.55952" lon="3.3091">
        <ele>257.7</ele>
        <time>2017-12-09T14:34:01Z</time>
      </trkpt>
      <trkpt lat="43.55951" lon="3.30915">
        <ele>258.3</ele>
        <time>2017-12-09T14:34:04Z</time>
      </trkpt>
      <trkpt lat="43.5595" lon="3.30919">
        <ele>258.8</ele>
        <time>2017-12-09T14:34:07Z</time>
      </trkpt>
      <trkpt lat="43.55948" lon="3.30921">
        <ele>259.3</ele>
        <time>2017-12-09T14:34:09Z</time>
      </trkpt>
      <trkpt lat="43.55946" lon="3.30924">
        <ele>259.7</ele>
        <time>2017-12-09T14:34:11Z</time>
      </trkpt>
      <trkpt lat="43.55943" lon="3.30927">
        <ele>260.3</ele>
        <time>2017-12-09T14:34:14Z</time>
      </trkpt>
      <trkpt lat="43.55941" lon="3.3093">
        <ele>260.8</ele>
        <time>2017-12-09T14:34:16Z</time>
      </trkpt>
      <trkpt lat="43.5594" lon="3.30933">
        <ele>261.2</ele>
        <time>2017-12-09T14:34:18Z</time>
      </trkpt>
      <trkpt lat="43.55938" lon="3.30946">
        <ele>262.7</ele>
        <time>2017-12-09T14:34:42Z</time>
      </trkpt>
      <trkpt lat="43.5594" lon="3.3095">
        <ele>263</ele>
        <time>2017-12-09T14:34:44Z</time>
      </trkpt>
      <trkpt lat="43.55941" lon="3.30953">
        <ele>263</ele>
        <time>2017-12-09T14:34:47Z</time>
      </trkpt>
      <trkpt lat="43.55941" lon="3.30957">
        <ele>263</ele>
        <time>2017-12-09T14:34:50Z</time>
      </trkpt>
      <trkpt lat="43.55944" lon="3.30959">
        <ele>263.1</ele>
        <time>2017-12-09T14:34:53Z</time>
      </trkpt>
      <trkpt lat="43.55947" lon="3.3096">
        <ele>263.1</ele>
        <time>2017-12-09T14:34:56Z</time>
      </trkpt>
      <trkpt lat="43.55951" lon="3.30962">
        <ele>263.1</ele>
        <time>2017-12-09T14:34:59Z</time>
      </trkpt>
      <trkpt lat="43.55954" lon="3.30965">
        <ele>263.2</ele>
        <time>2017-12-09T14:35:01Z</time>
      </trkpt>
      <trkpt lat="43.55956" lon="3.30968">
        <ele>263.5</ele>
        <time>2017-12-09T14:35:03Z</time>
      </trkpt>
      <trkpt lat="43.55959" lon="3.30972">
        <ele>263.9</ele>
        <time>2017-12-09T14:35:05Z</time>
      </trkpt>
      <trkpt lat="43.5596" lon="3.30975">
        <ele>264.3</ele>
        <time>2017-12-09T14:35:06Z</time>
      </trkpt>
      <trkpt lat="43.55961" lon="3.3098">
        <ele>265.1</ele>
        <time>2017-12-09T14:35:08Z</time>
      </trkpt>
      <trkpt lat="43.55961" lon="3.30984">
        <ele>265.9</ele>
        <time>2017-12-09T14:35:14Z</time>
      </trkpt>
      <trkpt lat="43.55962" lon="3.3099">
        <ele>267.4</ele>
        <time>2017-12-09T14:35:20Z</time>
      </trkpt>
      <trkpt lat="43.55963" lon="3.30994">
        <ele>269</ele>
        <time>2017-12-09T14:35:22Z</time>
      </trkpt>
      <trkpt lat="43.55965" lon="3.30998">
        <ele>270.3</ele>
        <time>2017-12-09T14:35:24Z</time>
      </trkpt>
      <trkpt lat="43.55966" lon="3.31002">
        <ele>272</ele>
        <time>2017-12-09T14:35:27Z</time>
      </trkpt>
      <trkpt lat="43.55968" lon="3.31006">
        <ele>273.3</ele>
        <time>2017-12-09T14:35:30Z</time>
      </trkpt>
      <trkpt lat="43.55971" lon="3.31008">
        <ele>274.6</ele>
        <time>2017-12-09T14:35:33Z</time>
      </trkpt>
      <trkpt lat="43.55974" lon="3.31011">
        <ele>275.8</ele>
        <time>2017-12-09T14:35:36Z</time>
      </trkpt>
      <trkpt lat="43.55977" lon="3.31013">
        <ele>276.2</ele>
        <time>2017-12-09T14:35:38Z</time>
      </trkpt>
      <trkpt lat="43.55981" lon="3.31015">
        <ele>276.7</ele>
        <time>2017-12-09T14:35:40Z</time>
      </trkpt>
      <trkpt lat="43.55983" lon="3.31018">
        <ele>277.2</ele>
        <time>2017-12-09T14:35:42Z</time>
      </trkpt>
      <trkpt lat="43.55984" lon="3.31021">
        <ele>277.4</ele>
        <time>2017-12-09T14:35:44Z</time>
      </trkpt>
      <trkpt lat="43.55987" lon="3.31025">
        <ele>277.7</ele>
        <time>2017-12-09T14:35:47Z</time>
      </trkpt>
      <trkpt lat="43.55988" lon="3.31028">
        <ele>277.9</ele>
        <time>2017-12-09T14:35:50Z</time>
      </trkpt>
      <trkpt lat="43.5599" lon="3.31031">
        <ele>278</ele>
        <time>2017-12-09T14:35:55Z</time>
      </trkpt>
      <trkpt lat="43.55992" lon="3.31036">
        <ele>278</ele>
        <time>2017-12-09T14:36:18Z</time>
      </trkpt>
      <trkpt lat="43.55997" lon="3.31037">
        <ele>277.9</ele>
        <time>2017-12-09T14:36:21Z</time>
      </trkpt>
      <trkpt lat="43.56002" lon="3.31037">
        <ele>277.8</ele>
        <time>2017-12-09T14:36:23Z</time>
      </trkpt>
      <trkpt lat="43.56005" lon="3.31038">
        <ele>277.7</ele>
        <time>2017-12-09T14:36:25Z</time>
      </trkpt>
      <trkpt lat="43.56009" lon="3.31041">
        <ele>277.7</ele>
        <time>2017-12-09T14:36:28Z</time>
      </trkpt>
      <trkpt lat="43.56013" lon="3.31043">
        <ele>277.6</ele>
        <time>2017-12-09T14:36:30Z</time>
      </trkpt>
      <trkpt lat="43.56016" lon="3.31044">
        <ele>277.5</ele>
        <time>2017-12-09T14:36:32Z</time>
      </trkpt>
      <trkpt lat="43.56019" lon="3.31042">
        <ele>277.5</ele>
        <time>2017-12-09T14:36:44Z</time>
      </trkpt>
      <trkpt lat="43.56022" lon="3.31042">
        <ele>277.4</ele>
        <time>2017-12-09T14:37:02Z</time>
      </trkpt>
      <trkpt lat="43.56018" lon="3.31041">
        <ele>277.5</ele>
        <time>2017-12-09T14:38:32Z</time>
      </trkpt>
      <trkpt lat="43.56013" lon="3.31041">
        <ele>277.6</ele>
        <time>2017-12-09T14:38:35Z</time>
      </trkpt>
      <trkpt lat="43.5601" lon="3.31041">
        <ele>277.6</ele>
        <time>2017-12-09T14:38:37Z</time>
      </trkpt>
      <trkpt lat="43.56007" lon="3.31041">
        <ele>277.7</ele>
        <time>2017-12-09T14:38:39Z</time>
      </trkpt>
      <trkpt lat="43.56004" lon="3.31041">
        <ele>277.7</ele>
        <time>2017-12-09T14:38:53Z</time>
      </trkpt>
      <trkpt lat="43.56002" lon="3.3104">
        <ele>277.8</ele>
        <time>2017-12-09T14:39:24Z</time>
      </trkpt>
      <trkpt lat="43.55998" lon="3.31041">
        <ele>277.8</ele>
        <time>2017-12-09T14:39:43Z</time>
      </trkpt>
      <trkpt lat="43.55995" lon="3.31043">
        <ele>277.9</ele>
        <time>2017-12-09T14:39:48Z</time>
      </trkpt>
      <trkpt lat="43.55995" lon="3.31047">
        <ele>277.9</ele>
        <time>2017-12-09T14:39:50Z</time>
      </trkpt>
      <trkpt lat="43.55995" lon="3.31054">
        <ele>277.3</ele>
        <time>2017-12-09T14:39:52Z</time>
      </trkpt>
      <trkpt lat="43.55996" lon="3.31058">
        <ele>276.7</ele>
        <time>2017-12-09T14:39:53Z</time>
      </trkpt>
      <trkpt lat="43.55997" lon="3.31065">
        <ele>275.7</ele>
        <time>2017-12-09T14:39:54Z</time>
      </trkpt>
      <trkpt lat="43.55998" lon="3.31072">
        <ele>274.5</ele>
        <time>2017-12-09T14:39:55Z</time>
      </trkpt>
      <trkpt lat="43.56" lon="3.31078">
        <ele>273.3</ele>
        <time>2017-12-09T14:39:56Z</time>
      </trkpt>
      <trkpt lat="43.56002" lon="3.31085">
        <ele>271.7</ele>
        <time>2017-12-09T14:39:57Z</time>
      </trkpt>
      <trkpt lat="43.56002" lon="3.3109">
        <ele>270.8</ele>
        <time>2017-12-09T14:39:58Z</time>
      </trkpt>
      <trkpt lat="43.56004" lon="3.31098">
        <ele>270</ele>
        <time>2017-12-09T14:39:59Z</time>
      </trkpt>
      <trkpt lat="43.56008" lon="3.31107">
        <ele>269.5</ele>
        <time>2017-12-09T14:40:00Z</time>
      </trkpt>
      <trkpt lat="43.56011" lon="3.31118">
        <ele>268.5</ele>
        <time>2017-12-09T14:40:01Z</time>
      </trkpt>
      <trkpt lat="43.56013" lon="3.3113">
        <ele>268</ele>
        <time>2017-12-09T14:40:02Z</time>
      </trkpt>
      <trkpt lat="43.56015" lon="3.31139">
        <ele>267.9</ele>
        <time>2017-12-09T14:40:03Z</time>
      </trkpt>
      <trkpt lat="43.56016" lon="3.31144">
        <ele>267.7</ele>
        <time>2017-12-09T14:40:04Z</time>
      </trkpt>
      <trkpt lat="43.56018" lon="3.31149">
        <ele>267.4</ele>
        <time>2017-12-09T14:40:05Z</time>
      </trkpt>
      <trkpt lat="43.56018" lon="3.31153">
        <ele>267.1</ele>
        <time>2017-12-09T14:40:06Z</time>
      </trkpt>
      <trkpt lat="43.56018" lon="3.31157">
        <ele>266.9</ele>
        <time>2017-12-09T14:40:07Z</time>
      </trkpt>
      <trkpt lat="43.56018" lon="3.31164">
        <ele>266.5</ele>
        <time>2017-12-09T14:40:08Z</time>
      </trkpt>
      <trkpt lat="43.56017" lon="3.31169">
        <ele>266.2</ele>
        <time>2017-12-09T14:40:09Z</time>
      </trkpt>
      <trkpt lat="43.56015" lon="3.31174">
        <ele>266.1</ele>
        <time>2017-12-09T14:40:10Z</time>
      </trkpt>
      <trkpt lat="43.56014" lon="3.3118">
        <ele>266.1</ele>
        <time>2017-12-09T14:40:11Z</time>
      </trkpt>
      <trkpt lat="43.56015" lon="3.31186">
        <ele>266.1</ele>
        <time>2017-12-09T14:40:12Z</time>
      </trkpt>
      <trkpt lat="43.56018" lon="3.31192">
        <ele>266</ele>
        <time>2017-12-09T14:40:13Z</time>
      </trkpt>
      <trkpt lat="43.56023" lon="3.31198">
        <ele>265.7</ele>
        <time>2017-12-09T14:40:14Z</time>
      </trkpt>
      <trkpt lat="43.56026" lon="3.31205">
        <ele>265.2</ele>
        <time>2017-12-09T14:40:15Z</time>
      </trkpt>
      <trkpt lat="43.5603" lon="3.31214">
        <ele>264.2</ele>
        <time>2017-12-09T14:40:16Z</time>
      </trkpt>
      <trkpt lat="43.56034" lon="3.31224">
        <ele>263</ele>
        <time>2017-12-09T14:40:17Z</time>
      </trkpt>
      <trkpt lat="43.56038" lon="3.31233">
        <ele>262.2</ele>
        <time>2017-12-09T14:40:18Z</time>
      </trkpt>
      <trkpt lat="43.56042" lon="3.31242">
        <ele>262</ele>
        <time>2017-12-09T14:40:19Z</time>
      </trkpt>
      <trkpt lat="43.56046" lon="3.31249">
        <ele>261.8</ele>
        <time>2017-12-09T14:40:20Z</time>
      </trkpt>
      <trkpt lat="43.56049" lon="3.31257">
        <ele>261.2</ele>
        <time>2017-12-09T14:40:21Z</time>
      </trkpt>
      <trkpt lat="43.56053" lon="3.31265">
        <ele>260.6</ele>
        <time>2017-12-09T14:40:22Z</time>
      </trkpt>
      <trkpt lat="43.56054" lon="3.31273">
        <ele>260.2</ele>
        <time>2017-12-09T14:40:23Z</time>
      </trkpt>
      <trkpt lat="43.56055" lon="3.3128">
        <ele>260.1</ele>
        <time>2017-12-09T14:40:24Z</time>
      </trkpt>
      <trkpt lat="43.56056" lon="3.31288">
        <ele>260.1</ele>
        <time>2017-12-09T14:40:25Z</time>
      </trkpt>
      <trkpt lat="43.56056" lon="3.31292">
        <ele>260.1</ele>
        <time>2017-12-09T14:40:26Z</time>
      </trkpt>
      <trkpt lat="43.56054" lon="3.31297">
        <ele>260.1</ele>
        <time>2017-12-09T14:40:28Z</time>
      </trkpt>
      <trkpt lat="43.56055" lon="3.31305">
        <ele>260.1</ele>
        <time>2017-12-09T14:40:30Z</time>
      </trkpt>
      <trkpt lat="43.56054" lon="3.31312">
        <ele>260.2</ele>
        <time>2017-12-09T14:40:31Z</time>
      </trkpt>
      <trkpt lat="43.56054" lon="3.31318">
        <ele>260.2</ele>
        <time>2017-12-09T14:40:32Z</time>
      </trkpt>
      <trkpt lat="43.56053" lon="3.31326">
        <ele>260.2</ele>
        <time>2017-12-09T14:40:33Z</time>
      </trkpt>
      <trkpt lat="43.56052" lon="3.31333">
        <ele>260.2</ele>
        <time>2017-12-09T14:40:34Z</time>
      </trkpt>
      <trkpt lat="43.56052" lon="3.3134">
        <ele>260.2</ele>
        <time>2017-12-09T14:40:35Z</time>
      </trkpt>
      <trkpt lat="43.56052" lon="3.31347">
        <ele>260</ele>
        <time>2017-12-09T14:40:36Z</time>
      </trkpt>
      <trkpt lat="43.56051" lon="3.31357">
        <ele>259.7</ele>
        <time>2017-12-09T14:40:37Z</time>
      </trkpt>
      <trkpt lat="43.5605" lon="3.31364">
        <ele>259.2</ele>
        <time>2017-12-09T14:40:38Z</time>
      </trkpt>
      <trkpt lat="43.56049" lon="3.31373">
        <ele>258.8</ele>
        <time>2017-12-09T14:40:39Z</time>
      </trkpt>
      <trkpt lat="43.56049" lon="3.31383">
        <ele>258.5</ele>
        <time>2017-12-09T14:40:40Z</time>
      </trkpt>
      <trkpt lat="43.56048" lon="3.31392">
        <ele>258.4</ele>
        <time>2017-12-09T14:40:41Z</time>
      </trkpt>
      <trkpt lat="43.56048" lon="3.31405">
        <ele>258.1</ele>
        <time>2017-12-09T14:40:42Z</time>
      </trkpt>
      <trkpt lat="43.56047" lon="3.31416">
        <ele>257.4</ele>
        <time>2017-12-09T14:40:43Z</time>
      </trkpt>
      <trkpt lat="43.56047" lon="3.31424">
        <ele>256.8</ele>
        <time>2017-12-09T14:40:44Z</time>
      </trkpt>
      <trkpt lat="43.56048" lon="3.31431">
        <ele>256.6</ele>
        <time>2017-12-09T14:40:45Z</time>
      </trkpt>
      <trkpt lat="43.56049" lon="3.31439">
        <ele>256.5</ele>
        <time>2017-12-09T14:40:46Z</time>
      </trkpt>
      <trkpt lat="43.56047" lon="3.31447">
        <ele>256.5</ele>
        <time>2017-12-09T14:40:47Z</time>
      </trkpt>
      <trkpt lat="43.56046" lon="3.31456">
        <ele>256.5</ele>
        <time>2017-12-09T14:40:48Z</time>
      </trkpt>
      <trkpt lat="43.56045" lon="3.31465">
        <ele>256.6</ele>
        <time>2017-12-09T14:40:49Z</time>
      </trkpt>
      <trkpt lat="43.56044" lon="3.31473">
        <ele>256.5</ele>
        <time>2017-12-09T14:40:50Z</time>
      </trkpt>
      <trkpt lat="43.56042" lon="3.3148">
        <ele>256.4</ele>
        <time>2017-12-09T14:40:51Z</time>
      </trkpt>
      <trkpt lat="43.5604" lon="3.31488">
        <ele>256.2</ele>
        <time>2017-12-09T14:40:52Z</time>
      </trkpt>
      <trkpt lat="43.56036" lon="3.31496">
        <ele>255.7</ele>
        <time>2017-12-09T14:40:53Z</time>
      </trkpt>
      <trkpt lat="43.56034" lon="3.31503">
        <ele>255.3</ele>
        <time>2017-12-09T14:40:54Z</time>
      </trkpt>
      <trkpt lat="43.5603" lon="3.31511">
        <ele>254.9</ele>
        <time>2017-12-09T14:40:55Z</time>
      </trkpt>
      <trkpt lat="43.56027" lon="3.31517">
        <ele>254.8</ele>
        <time>2017-12-09T14:40:56Z</time>
      </trkpt>
      <trkpt lat="43.56026" lon="3.31523">
        <ele>254.8</ele>
        <time>2017-12-09T14:40:57Z</time>
      </trkpt>
      <trkpt lat="43.56023" lon="3.3153">
        <ele>254.8</ele>
        <time>2017-12-09T14:40:58Z</time>
      </trkpt>
      <trkpt lat="43.5602" lon="3.31535">
        <ele>254.8</ele>
        <time>2017-12-09T14:40:59Z</time>
      </trkpt>
      <trkpt lat="43.56019" lon="3.31544">
        <ele>254.7</ele>
        <time>2017-12-09T14:41:00Z</time>
      </trkpt>
      <trkpt lat="43.56018" lon="3.31553">
        <ele>254</ele>
        <time>2017-12-09T14:41:01Z</time>
      </trkpt>
      <trkpt lat="43.56019" lon="3.31561">
        <ele>253.2</ele>
        <time>2017-12-09T14:41:02Z</time>
      </trkpt>
      <trkpt lat="43.56019" lon="3.31569">
        <ele>253</ele>
        <time>2017-12-09T14:41:03Z</time>
      </trkpt>
      <trkpt lat="43.56016" lon="3.31582">
        <ele>252.9</ele>
        <time>2017-12-09T14:41:04Z</time>
      </trkpt>
      <trkpt lat="43.56014" lon="3.31592">
        <ele>252.8</ele>
        <time>2017-12-09T14:41:05Z</time>
      </trkpt>
      <trkpt lat="43.56012" lon="3.316">
        <ele>252.6</ele>
        <time>2017-12-09T14:41:06Z</time>
      </trkpt>
      <trkpt lat="43.56009" lon="3.31606">
        <ele>252.4</ele>
        <time>2017-12-09T14:41:07Z</time>
      </trkpt>
      <trkpt lat="43.56005" lon="3.3161">
        <ele>252</ele>
        <time>2017-12-09T14:41:09Z</time>
      </trkpt>
      <trkpt lat="43.56006" lon="3.31618">
        <ele>251.5</ele>
        <time>2017-12-09T14:41:11Z</time>
      </trkpt>
      <trkpt lat="43.56008" lon="3.31621">
        <ele>251.4</ele>
        <time>2017-12-09T14:41:12Z</time>
      </trkpt>
      <trkpt lat="43.5601" lon="3.31626">
        <ele>251.2</ele>
        <time>2017-12-09T14:41:13Z</time>
      </trkpt>
      <trkpt lat="43.5601" lon="3.31631">
        <ele>251.2</ele>
        <time>2017-12-09T14:41:14Z</time>
      </trkpt>
      <trkpt lat="43.5601" lon="3.31636">
        <ele>251.1</ele>
        <time>2017-12-09T14:41:15Z</time>
      </trkpt>
      <trkpt lat="43.56009" lon="3.31642">
        <ele>250.8</ele>
        <time>2017-12-09T14:41:16Z</time>
      </trkpt>
      <trkpt lat="43.56009" lon="3.31647">
        <ele>250.3</ele>
        <time>2017-12-09T14:41:17Z</time>
      </trkpt>
      <trkpt lat="43.56007" lon="3.31654">
        <ele>249.7</ele>
        <time>2017-12-09T14:41:18Z</time>
      </trkpt>
      <trkpt lat="43.56004" lon="3.3166">
        <ele>249.3</ele>
        <time>2017-12-09T14:41:19Z</time>
      </trkpt>
      <trkpt lat="43.56004" lon="3.31666">
        <ele>249.2</ele>
        <time>2017-12-09T14:41:20Z</time>
      </trkpt>
      <trkpt lat="43.56005" lon="3.31673">
        <ele>249.2</ele>
        <time>2017-12-09T14:41:21Z</time>
      </trkpt>
      <trkpt lat="43.56007" lon="3.31679">
        <ele>249.3</ele>
        <time>2017-12-09T14:41:22Z</time>
      </trkpt>
      <trkpt lat="43.56009" lon="3.31685">
        <ele>249.3</ele>
        <time>2017-12-09T14:41:23Z</time>
      </trkpt>
      <trkpt lat="43.5601" lon="3.31692">
        <ele>249.3</ele>
        <time>2017-12-09T14:41:24Z</time>
      </trkpt>
      <trkpt lat="43.56013" lon="3.317">
        <ele>249.4</ele>
        <time>2017-12-09T14:41:25Z</time>
      </trkpt>
      <trkpt lat="43.56016" lon="3.31712">
        <ele>249.4</ele>
        <time>2017-12-09T14:41:26Z</time>
      </trkpt>
      <trkpt lat="43.56019" lon="3.31718">
        <ele>249.1</ele>
        <time>2017-12-09T14:41:27Z</time>
      </trkpt>
      <trkpt lat="43.56023" lon="3.31722">
        <ele>248.3</ele>
        <time>2017-12-09T14:41:28Z</time>
      </trkpt>
      <trkpt lat="43.56027" lon="3.31725">
        <ele>245.8</ele>
        <time>2017-12-09T14:41:29Z</time>
      </trkpt>
      <trkpt lat="43.56031" lon="3.31732">
        <ele>245</ele>
        <time>2017-12-09T14:41:30Z</time>
      </trkpt>
      <trkpt lat="43.56032" lon="3.31737">
        <ele>244.7</ele>
        <time>2017-12-09T14:41:31Z</time>
      </trkpt>
      <trkpt lat="43.56035" lon="3.31737">
        <ele>244.5</ele>
        <time>2017-12-09T14:41:33Z</time>
      </trkpt>
      <trkpt lat="43.56041" lon="3.31737">
        <ele>243.9</ele>
        <time>2017-12-09T14:41:35Z</time>
      </trkpt>
      <trkpt lat="43.56045" lon="3.3174">
        <ele>243.4</ele>
        <time>2017-12-09T14:41:36Z</time>
      </trkpt>
      <trkpt lat="43.56048" lon="3.31741">
        <ele>243.2</ele>
        <time>2017-12-09T14:41:37Z</time>
      </trkpt>
      <trkpt lat="43.56053" lon="3.31744">
        <ele>243.1</ele>
        <time>2017-12-09T14:41:38Z</time>
      </trkpt>
      <trkpt lat="43.56057" lon="3.31747">
        <ele>242.9</ele>
        <time>2017-12-09T14:41:39Z</time>
      </trkpt>
      <trkpt lat="43.5606" lon="3.31752">
        <ele>242.4</ele>
        <time>2017-12-09T14:41:40Z</time>
      </trkpt>
      <trkpt lat="43.56065" lon="3.31755">
        <ele>241.5</ele>
        <time>2017-12-09T14:41:41Z</time>
      </trkpt>
      <trkpt lat="43.56072" lon="3.31758">
        <ele>240.3</ele>
        <time>2017-12-09T14:41:42Z</time>
      </trkpt>
      <trkpt lat="43.56077" lon="3.31762">
        <ele>239.4</ele>
        <time>2017-12-09T14:41:43Z</time>
      </trkpt>
      <trkpt lat="43.56083" lon="3.31774">
        <ele>238.2</ele>
        <time>2017-12-09T14:41:44Z</time>
      </trkpt>
      <trkpt lat="43.56086" lon="3.31783">
        <ele>237.5</ele>
        <time>2017-12-09T14:41:45Z</time>
      </trkpt>
      <trkpt lat="43.56088" lon="3.31792">
        <ele>237.2</ele>
        <time>2017-12-09T14:41:46Z</time>
      </trkpt>
      <trkpt lat="43.5609" lon="3.318">
        <ele>237.2</ele>
        <time>2017-12-09T14:41:47Z</time>
      </trkpt>
      <trkpt lat="43.5609" lon="3.31808">
        <ele>237.2</ele>
        <time>2017-12-09T14:41:48Z</time>
      </trkpt>
      <trkpt lat="43.56092" lon="3.31815">
        <ele>237.1</ele>
        <time>2017-12-09T14:41:49Z</time>
      </trkpt>
      <trkpt lat="43.56099" lon="3.3182">
        <ele>236.2</ele>
        <time>2017-12-09T14:41:50Z</time>
      </trkpt>
      <trkpt lat="43.56105" lon="3.31825">
        <ele>235.3</ele>
        <time>2017-12-09T14:41:51Z</time>
      </trkpt>
      <trkpt lat="43.56111" lon="3.31834">
        <ele>234.6</ele>
        <time>2017-12-09T14:41:52Z</time>
      </trkpt>
      <trkpt lat="43.56117" lon="3.31842">
        <ele>233.5</ele>
        <time>2017-12-09T14:41:53Z</time>
      </trkpt>
      <trkpt lat="43.56123" lon="3.31847">
        <ele>233.3</ele>
        <time>2017-12-09T14:41:54Z</time>
      </trkpt>
      <trkpt lat="43.5613" lon="3.31855">
        <ele>233.2</ele>
        <time>2017-12-09T14:41:55Z</time>
      </trkpt>
      <trkpt lat="43.56133" lon="3.31863">
        <ele>232.9</ele>
        <time>2017-12-09T14:41:56Z</time>
      </trkpt>
      <trkpt lat="43.56137" lon="3.31872">
        <ele>231.8</ele>
        <time>2017-12-09T14:41:57Z</time>
      </trkpt>
      <trkpt lat="43.56141" lon="3.31877">
        <ele>230.8</ele>
        <time>2017-12-09T14:41:58Z</time>
      </trkpt>
      <trkpt lat="43.56144" lon="3.31881">
        <ele>230.1</ele>
        <time>2017-12-09T14:41:59Z</time>
      </trkpt>
      <trkpt lat="43.56148" lon="3.31885">
        <ele>229.5</ele>
        <time>2017-12-09T14:42:00Z</time>
      </trkpt>
      <trkpt lat="43.56151" lon="3.31892">
        <ele>229.1</ele>
        <time>2017-12-09T14:42:01Z</time>
      </trkpt>
      <trkpt lat="43.56154" lon="3.319">
        <ele>228.3</ele>
        <time>2017-12-09T14:42:02Z</time>
      </trkpt>
      <trkpt lat="43.56157" lon="3.31907">
        <ele>227.5</ele>
        <time>2017-12-09T14:42:03Z</time>
      </trkpt>
      <trkpt lat="43.56159" lon="3.31913">
        <ele>226</ele>
        <time>2017-12-09T14:42:04Z</time>
      </trkpt>
      <trkpt lat="43.56162" lon="3.31919">
        <ele>225.6</ele>
        <time>2017-12-09T14:42:05Z</time>
      </trkpt>
      <trkpt lat="43.56163" lon="3.31923">
        <ele>225.5</ele>
        <time>2017-12-09T14:42:06Z</time>
      </trkpt>
      <trkpt lat="43.56164" lon="3.31928">
        <ele>224.5</ele>
        <time>2017-12-09T14:42:07Z</time>
      </trkpt>
      <trkpt lat="43.56164" lon="3.31932">
        <ele>223.5</ele>
        <time>2017-12-09T14:42:08Z</time>
      </trkpt>
      <trkpt lat="43.56166" lon="3.31934">
        <ele>222.7</ele>
        <time>2017-12-09T14:42:10Z</time>
      </trkpt>
      <trkpt lat="43.56169" lon="3.31933">
        <ele>222</ele>
        <time>2017-12-09T14:42:11Z</time>
      </trkpt>
      <trkpt lat="43.56173" lon="3.31935">
        <ele>221</ele>
        <time>2017-12-09T14:42:13Z</time>
      </trkpt>
      <trkpt lat="43.56173" lon="3.31942">
        <ele>220</ele>
        <time>2017-12-09T14:42:15Z</time>
      </trkpt>
      <trkpt lat="43.56172" lon="3.3195">
        <ele>218.9</ele>
        <time>2017-12-09T14:42:16Z</time>
      </trkpt>
      <trkpt lat="43.56173" lon="3.31955">
        <ele>218.4</ele>
        <time>2017-12-09T14:42:17Z</time>
      </trkpt>
      <trkpt lat="43.56177" lon="3.3196">
        <ele>217.8</ele>
        <time>2017-12-09T14:42:18Z</time>
      </trkpt>
      <trkpt lat="43.56181" lon="3.31966">
        <ele>217.6</ele>
        <time>2017-12-09T14:42:19Z</time>
      </trkpt>
      <trkpt lat="43.56185" lon="3.31971">
        <ele>217.4</ele>
        <time>2017-12-09T14:42:20Z</time>
      </trkpt>
      <trkpt lat="43.56189" lon="3.31976">
        <ele>216.9</ele>
        <time>2017-12-09T14:42:21Z</time>
      </trkpt>
      <trkpt lat="43.56191" lon="3.31981">
        <ele>216.4</ele>
        <time>2017-12-09T14:42:22Z</time>
      </trkpt>
      <trkpt lat="43.56194" lon="3.31987">
        <ele>215.8</ele>
        <time>2017-12-09T14:42:23Z</time>
      </trkpt>
      <trkpt lat="43.56197" lon="3.3199">
        <ele>215.5</ele>
        <time>2017-12-09T14:42:24Z</time>
      </trkpt>
      <trkpt lat="43.56201" lon="3.31996">
        <ele>215</ele>
        <time>2017-12-09T14:42:25Z</time>
      </trkpt>
      <trkpt lat="43.56203" lon="3.32002">
        <ele>214.5</ele>
        <time>2017-12-09T14:42:26Z</time>
      </trkpt>
      <trkpt lat="43.56205" lon="3.32006">
        <ele>214.1</ele>
        <time>2017-12-09T14:42:27Z</time>
      </trkpt>
      <trkpt lat="43.56208" lon="3.32011">
        <ele>213.9</ele>
        <time>2017-12-09T14:42:29Z</time>
      </trkpt>
      <trkpt lat="43.56211" lon="3.32014">
        <ele>213.8</ele>
        <time>2017-12-09T14:42:31Z</time>
      </trkpt>
      <trkpt lat="43.56211" lon="3.32017">
        <ele>213.8</ele>
        <time>2017-12-09T14:42:33Z</time>
      </trkpt>
      <trkpt lat="43.56211" lon="3.32024">
        <ele>213.7</ele>
        <time>2017-12-09T14:42:35Z</time>
      </trkpt>
      <trkpt lat="43.56209" lon="3.32028">
        <ele>213.4</ele>
        <time>2017-12-09T14:42:36Z</time>
      </trkpt>
      <trkpt lat="43.56208" lon="3.32035">
        <ele>212.7</ele>
        <time>2017-12-09T14:42:37Z</time>
      </trkpt>
      <trkpt lat="43.5621" lon="3.32039">
        <ele>212.2</ele>
        <time>2017-12-09T14:42:38Z</time>
      </trkpt>
      <trkpt lat="43.56213" lon="3.32044">
        <ele>212</ele>
        <time>2017-12-09T14:42:39Z</time>
      </trkpt>
      <trkpt lat="43.56216" lon="3.32045">
        <ele>211.8</ele>
        <time>2017-12-09T14:42:40Z</time>
      </trkpt>
      <trkpt lat="43.5622" lon="3.32048">
        <ele>211.6</ele>
        <time>2017-12-09T14:42:41Z</time>
      </trkpt>
      <trkpt lat="43.56223" lon="3.32053">
        <ele>210.8</ele>
        <time>2017-12-09T14:42:42Z</time>
      </trkpt>
      <trkpt lat="43.56226" lon="3.32059">
        <ele>209.6</ele>
        <time>2017-12-09T14:42:43Z</time>
      </trkpt>
      <trkpt lat="43.56231" lon="3.32064">
        <ele>208.3</ele>
        <time>2017-12-09T14:42:44Z</time>
      </trkpt>
      <trkpt lat="43.56234" lon="3.32067">
        <ele>207.6</ele>
        <time>2017-12-09T14:42:45Z</time>
      </trkpt>
      <trkpt lat="43.56236" lon="3.32071">
        <ele>206.9</ele>
        <time>2017-12-09T14:42:46Z</time>
      </trkpt>
      <trkpt lat="43.56238" lon="3.32075">
        <ele>206.1</ele>
        <time>2017-12-09T14:42:47Z</time>
      </trkpt>
      <trkpt lat="43.56241" lon="3.32078">
        <ele>205.1</ele>
        <time>2017-12-09T14:42:48Z</time>
      </trkpt>
      <trkpt lat="43.56245" lon="3.32079">
        <ele>204.4</ele>
        <time>2017-12-09T14:42:49Z</time>
      </trkpt>
      <trkpt lat="43.56249" lon="3.3208">
        <ele>203.9</ele>
        <time>2017-12-09T14:42:50Z</time>
      </trkpt>
      <trkpt lat="43.56253" lon="3.3208">
        <ele>203.7</ele>
        <time>2017-12-09T14:42:51Z</time>
      </trkpt>
      <trkpt lat="43.56256" lon="3.32083">
        <ele>203.6</ele>
        <time>2017-12-09T14:42:52Z</time>
      </trkpt>
      <trkpt lat="43.56261" lon="3.32089">
        <ele>203.6</ele>
        <time>2017-12-09T14:42:53Z</time>
      </trkpt>
      <trkpt lat="43.56265" lon="3.32095">
        <ele>203.6</ele>
        <time>2017-12-09T14:42:54Z</time>
      </trkpt>
      <trkpt lat="43.5627" lon="3.321">
        <ele>203.4</ele>
        <time>2017-12-09T14:42:55Z</time>
      </trkpt>
      <trkpt lat="43.56275" lon="3.32108">
        <ele>202.5</ele>
        <time>2017-12-09T14:42:56Z</time>
      </trkpt>
      <trkpt lat="43.56279" lon="3.32116">
        <ele>201.8</ele>
        <time>2017-12-09T14:42:57Z</time>
      </trkpt>
      <trkpt lat="43.56281" lon="3.32125">
        <ele>201.2</ele>
        <time>2017-12-09T14:42:58Z</time>
      </trkpt>
      <trkpt lat="43.5628" lon="3.32133">
        <ele>200.6</ele>
        <time>2017-12-09T14:42:59Z</time>
      </trkpt>
      <trkpt lat="43.5628" lon="3.32143">
        <ele>200</ele>
        <time>2017-12-09T14:43:00Z</time>
      </trkpt>
      <trkpt lat="43.5628" lon="3.3215">
        <ele>199.9</ele>
        <time>2017-12-09T14:43:01Z</time>
      </trkpt>
      <trkpt lat="43.56281" lon="3.32158">
        <ele>199.9</ele>
        <time>2017-12-09T14:43:02Z</time>
      </trkpt>
      <trkpt lat="43.56281" lon="3.32167">
        <ele>199.9</ele>
        <time>2017-12-09T14:43:03Z</time>
      </trkpt>
      <trkpt lat="43.56281" lon="3.32178">
        <ele>200</ele>
        <time>2017-12-09T14:43:04Z</time>
      </trkpt>
      <trkpt lat="43.56283" lon="3.32186">
        <ele>200</ele>
        <time>2017-12-09T14:43:05Z</time>
      </trkpt>
      <trkpt lat="43.56288" lon="3.32193">
        <ele>199.9</ele>
        <time>2017-12-09T14:43:06Z</time>
      </trkpt>
      <trkpt lat="43.56293" lon="3.322">
        <ele>199.4</ele>
        <time>2017-12-09T14:43:07Z</time>
      </trkpt>
      <trkpt lat="43.56297" lon="3.32208">
        <ele>198.5</ele>
        <time>2017-12-09T14:43:08Z</time>
      </trkpt>
      <trkpt lat="43.56301" lon="3.32213">
        <ele>197.7</ele>
        <time>2017-12-09T14:43:09Z</time>
      </trkpt>
      <trkpt lat="43.56307" lon="3.3222">
        <ele>196.7</ele>
        <time>2017-12-09T14:43:10Z</time>
      </trkpt>
      <trkpt lat="43.56313" lon="3.32226">
        <ele>196</ele>
        <time>2017-12-09T14:43:11Z</time>
      </trkpt>
      <trkpt lat="43.56317" lon="3.32232">
        <ele>195.8</ele>
        <time>2017-12-09T14:43:12Z</time>
      </trkpt>
      <trkpt lat="43.5632" lon="3.32237">
        <ele>195.4</ele>
        <time>2017-12-09T14:43:13Z</time>
      </trkpt>
      <trkpt lat="43.5632" lon="3.32244">
        <ele>195</ele>
        <time>2017-12-09T14:43:14Z</time>
      </trkpt>
      <trkpt lat="43.56319" lon="3.32249">
        <ele>194.7</ele>
        <time>2017-12-09T14:43:15Z</time>
      </trkpt>
      <trkpt lat="43.56316" lon="3.32256">
        <ele>194.4</ele>
        <time>2017-12-09T14:43:17Z</time>
      </trkpt>
      <trkpt lat="43.56314" lon="3.32261">
        <ele>194.1</ele>
        <time>2017-12-09T14:43:18Z</time>
      </trkpt>
      <trkpt lat="43.56312" lon="3.32265">
        <ele>193.9</ele>
        <time>2017-12-09T14:43:19Z</time>
      </trkpt>
      <trkpt lat="43.5631" lon="3.32269">
        <ele>193.8</ele>
        <time>2017-12-09T14:43:20Z</time>
      </trkpt>
      <trkpt lat="43.56308" lon="3.32273">
        <ele>193.6</ele>
        <time>2017-12-09T14:43:22Z</time>
      </trkpt>
      <trkpt lat="43.56305" lon="3.32279">
        <ele>193.5</ele>
        <time>2017-12-09T14:43:24Z</time>
      </trkpt>
      <trkpt lat="43.56303" lon="3.32284">
        <ele>193.3</ele>
        <time>2017-12-09T14:43:26Z</time>
      </trkpt>
      <trkpt lat="43.56301" lon="3.3229">
        <ele>193.2</ele>
        <time>2017-12-09T14:43:28Z</time>
      </trkpt>
      <trkpt lat="43.563" lon="3.32294">
        <ele>193.1</ele>
        <time>2017-12-09T14:43:29Z</time>
      </trkpt>
      <trkpt lat="43.56298" lon="3.32299">
        <ele>192.9</ele>
        <time>2017-12-09T14:43:31Z</time>
      </trkpt>
      <trkpt lat="43.56297" lon="3.32304">
        <ele>192.8</ele>
        <time>2017-12-09T14:43:33Z</time>
      </trkpt>
      <trkpt lat="43.56295" lon="3.32309">
        <ele>192.6</ele>
        <time>2017-12-09T14:43:35Z</time>
      </trkpt>
      <trkpt lat="43.56293" lon="3.32314">
        <ele>192.4</ele>
        <time>2017-12-09T14:43:37Z</time>
      </trkpt>
      <trkpt lat="43.5629" lon="3.32319">
        <ele>192.2</ele>
        <time>2017-12-09T14:43:39Z</time>
      </trkpt>
      <trkpt lat="43.56288" lon="3.32322">
        <ele>192</ele>
        <time>2017-12-09T14:43:41Z</time>
      </trkpt>
      <trkpt lat="43.56285" lon="3.32326">
        <ele>191.9</ele>
        <time>2017-12-09T14:43:43Z</time>
      </trkpt>
      <trkpt lat="43.56284" lon="3.32329">
        <ele>191.7</ele>
        <time>2017-12-09T14:43:45Z</time>
      </trkpt>
      <trkpt lat="43.56283" lon="3.32333">
        <ele>191.6</ele>
        <time>2017-12-09T14:43:47Z</time>
      </trkpt>
      <trkpt lat="43.56282" lon="3.32337">
        <ele>191.4</ele>
        <time>2017-12-09T14:43:49Z</time>
      </trkpt>
      <trkpt lat="43.56281" lon="3.32344">
        <ele>191.3</ele>
        <time>2017-12-09T14:43:52Z</time>
      </trkpt>
      <trkpt lat="43.5628" lon="3.3235">
        <ele>191.2</ele>
        <time>2017-12-09T14:43:54Z</time>
      </trkpt>
      <trkpt lat="43.56277" lon="3.32353">
        <ele>191.1</ele>
        <time>2017-12-09T14:43:57Z</time>
      </trkpt>
      <trkpt lat="43.56274" lon="3.32357">
        <ele>191</ele>
        <time>2017-12-09T14:44:00Z</time>
      </trkpt>
      <trkpt lat="43.56272" lon="3.3236">
        <ele>191</ele>
        <time>2017-12-09T14:44:02Z</time>
      </trkpt>
      <trkpt lat="43.5627" lon="3.32363">
        <ele>191</ele>
        <time>2017-12-09T14:44:04Z</time>
      </trkpt>
      <trkpt lat="43.56268" lon="3.32366">
        <ele>191.1</ele>
        <time>2017-12-09T14:44:06Z</time>
      </trkpt>
      <trkpt lat="43.56267" lon="3.3237">
        <ele>191.1</ele>
        <time>2017-12-09T14:44:08Z</time>
      </trkpt>
      <trkpt lat="43.56266" lon="3.32374">
        <ele>191.1</ele>
        <time>2017-12-09T14:44:10Z</time>
      </trkpt>
      <trkpt lat="43.56264" lon="3.32378">
        <ele>191.2</ele>
        <time>2017-12-09T14:44:12Z</time>
      </trkpt>
      <trkpt lat="43.56262" lon="3.32382">
        <ele>191.3</ele>
        <time>2017-12-09T14:44:14Z</time>
      </trkpt>
      <trkpt lat="43.56262" lon="3.32387">
        <ele>191.4</ele>
        <time>2017-12-09T14:44:16Z</time>
      </trkpt>
      <trkpt lat="43.56261" lon="3.32391">
        <ele>191.5</ele>
        <time>2017-12-09T14:44:18Z</time>
      </trkpt>
      <trkpt lat="43.56258" lon="3.32396">
        <ele>191.7</ele>
        <time>2017-12-09T14:44:20Z</time>
      </trkpt>
      <trkpt lat="43.56256" lon="3.32401">
        <ele>192</ele>
        <time>2017-12-09T14:44:22Z</time>
      </trkpt>
      <trkpt lat="43.56254" lon="3.32405">
        <ele>192.2</ele>
        <time>2017-12-09T14:44:24Z</time>
      </trkpt>
      <trkpt lat="43.56253" lon="3.32411">
        <ele>192.5</ele>
        <time>2017-12-09T14:44:26Z</time>
      </trkpt>
      <trkpt lat="43.56251" lon="3.32417">
        <ele>192.9</ele>
        <time>2017-12-09T14:44:28Z</time>
      </trkpt>
      <trkpt lat="43.56249" lon="3.32423">
        <ele>193.3</ele>
        <time>2017-12-09T14:44:30Z</time>
      </trkpt>
      <trkpt lat="43.56248" lon="3.3243">
        <ele>193.8</ele>
        <time>2017-12-09T14:44:32Z</time>
      </trkpt>
      <trkpt lat="43.56247" lon="3.32436">
        <ele>194.2</ele>
        <time>2017-12-09T14:44:34Z</time>
      </trkpt>
      <trkpt lat="43.56247" lon="3.32443">
        <ele>194.6</ele>
        <time>2017-12-09T14:44:36Z</time>
      </trkpt>
      <trkpt lat="43.56247" lon="3.32448">
        <ele>194.9</ele>
        <time>2017-12-09T14:44:38Z</time>
      </trkpt>
      <trkpt lat="43.56247" lon="3.32452">
        <ele>195.2</ele>
        <time>2017-12-09T14:44:40Z</time>
      </trkpt>
      <trkpt lat="43.56246" lon="3.32457">
        <ele>195.5</ele>
        <time>2017-12-09T14:44:42Z</time>
      </trkpt>
      <trkpt lat="43.56245" lon="3.32461">
        <ele>195.7</ele>
        <time>2017-12-09T14:44:44Z</time>
      </trkpt>
      <trkpt lat="43.56244" lon="3.32466">
        <ele>195.9</ele>
        <time>2017-12-09T14:44:46Z</time>
      </trkpt>
      <trkpt lat="43.56242" lon="3.32471">
        <ele>196.1</ele>
        <time>2017-12-09T14:44:48Z</time>
      </trkpt>
      <trkpt lat="43.56241" lon="3.32476">
        <ele>196.4</ele>
        <time>2017-12-09T14:44:50Z</time>
      </trkpt>
      <trkpt lat="43.56238" lon="3.32482">
        <ele>196.7</ele>
        <time>2017-12-09T14:44:52Z</time>
      </trkpt>
      <trkpt lat="43.56236" lon="3.32486">
        <ele>196.9</ele>
        <time>2017-12-09T14:44:54Z</time>
      </trkpt>
      <trkpt lat="43.56234" lon="3.3249">
        <ele>197.1</ele>
        <time>2017-12-09T14:44:56Z</time>
      </trkpt>
      <trkpt lat="43.56232" lon="3.32494">
        <ele>197.4</ele>
        <time>2017-12-09T14:44:58Z</time>
      </trkpt>
      <trkpt lat="43.56231" lon="3.32499">
        <ele>197.6</ele>
        <time>2017-12-09T14:45:00Z</time>
      </trkpt>
      <trkpt lat="43.5623" lon="3.32503">
        <ele>197.9</ele>
        <time>2017-12-09T14:45:02Z</time>
      </trkpt>
      <trkpt lat="43.56227" lon="3.32508">
        <ele>198.3</ele>
        <time>2017-12-09T14:45:04Z</time>
      </trkpt>
      <trkpt lat="43.56224" lon="3.32514">
        <ele>198.7</ele>
        <time>2017-12-09T14:45:06Z</time>
      </trkpt>
      <trkpt lat="43.56222" lon="3.32519">
        <ele>199.1</ele>
        <time>2017-12-09T14:45:08Z</time>
      </trkpt>
      <trkpt lat="43.56219" lon="3.32521">
        <ele>199.5</ele>
        <time>2017-12-09T14:45:10Z</time>
      </trkpt>
      <trkpt lat="43.56216" lon="3.32526">
        <ele>200.1</ele>
        <time>2017-12-09T14:45:12Z</time>
      </trkpt>
      <trkpt lat="43.56213" lon="3.32529">
        <ele>200.6</ele>
        <time>2017-12-09T14:45:14Z</time>
      </trkpt>
      <trkpt lat="43.5621" lon="3.3253">
        <ele>201</ele>
        <time>2017-12-09T14:45:16Z</time>
      </trkpt>
      <trkpt lat="43.56207" lon="3.32528">
        <ele>201.5</ele>
        <time>2017-12-09T14:45:19Z</time>
      </trkpt>
      <trkpt lat="43.56206" lon="3.32523">
        <ele>201.8</ele>
        <time>2017-12-09T14:45:21Z</time>
      </trkpt>
      <trkpt lat="43.56207" lon="3.32518">
        <ele>202.1</ele>
        <time>2017-12-09T14:45:23Z</time>
      </trkpt>
      <trkpt lat="43.56208" lon="3.32513">
        <ele>202.5</ele>
        <time>2017-12-09T14:45:25Z</time>
      </trkpt>
      <trkpt lat="43.5621" lon="3.3251">
        <ele>202.7</ele>
        <time>2017-12-09T14:45:27Z</time>
      </trkpt>
      <trkpt lat="43.56213" lon="3.32506">
        <ele>203</ele>
        <time>2017-12-09T14:45:29Z</time>
      </trkpt>
      <trkpt lat="43.56214" lon="3.32502">
        <ele>203.2</ele>
        <time>2017-12-09T14:45:31Z</time>
      </trkpt>
      <trkpt lat="43.56216" lon="3.32498">
        <ele>203.5</ele>
        <time>2017-12-09T14:45:34Z</time>
      </trkpt>
      <trkpt lat="43.56217" lon="3.32493">
        <ele>203.7</ele>
        <time>2017-12-09T14:45:36Z</time>
      </trkpt>
      <trkpt lat="43.56219" lon="3.32489">
        <ele>203.9</ele>
        <time>2017-12-09T14:45:38Z</time>
      </trkpt>
      <trkpt lat="43.56221" lon="3.32486">
        <ele>204.2</ele>
        <time>2017-12-09T14:45:40Z</time>
      </trkpt>
      <trkpt lat="43.56221" lon="3.32481">
        <ele>204.4</ele>
        <time>2017-12-09T14:45:42Z</time>
      </trkpt>
      <trkpt lat="43.56222" lon="3.32476">
        <ele>204.6</ele>
        <time>2017-12-09T14:45:44Z</time>
      </trkpt>
      <trkpt lat="43.56222" lon="3.32472">
        <ele>204.8</ele>
        <time>2017-12-09T14:45:46Z</time>
      </trkpt>
      <trkpt lat="43.56222" lon="3.32467">
        <ele>205</ele>
        <time>2017-12-09T14:45:48Z</time>
      </trkpt>
      <trkpt lat="43.56223" lon="3.32462">
        <ele>205.2</ele>
        <time>2017-12-09T14:45:50Z</time>
      </trkpt>
      <trkpt lat="43.56224" lon="3.32458">
        <ele>205.4</ele>
        <time>2017-12-09T14:45:52Z</time>
      </trkpt>
      <trkpt lat="43.56224" lon="3.32452">
        <ele>205.6</ele>
        <time>2017-12-09T14:45:54Z</time>
      </trkpt>
      <trkpt lat="43.56224" lon="3.32447">
        <ele>205.7</ele>
        <time>2017-12-09T14:45:56Z</time>
      </trkpt>
      <trkpt lat="43.56224" lon="3.32442">
        <ele>205.9</ele>
        <time>2017-12-09T14:45:58Z</time>
      </trkpt>
      <trkpt lat="43.56223" lon="3.32436">
        <ele>206</ele>
        <time>2017-12-09T14:46:00Z</time>
      </trkpt>
      <trkpt lat="43.56223" lon="3.3243">
        <ele>206.2</ele>
        <time>2017-12-09T14:46:02Z</time>
      </trkpt>
      <trkpt lat="43.56223" lon="3.32425">
        <ele>206.3</ele>
        <time>2017-12-09T14:46:04Z</time>
      </trkpt>
      <trkpt lat="43.56224" lon="3.32421">
        <ele>206.4</ele>
        <time>2017-12-09T14:46:06Z</time>
      </trkpt>
      <trkpt lat="43.56224" lon="3.32416">
        <ele>206.6</ele>
        <time>2017-12-09T14:46:08Z</time>
      </trkpt>
      <trkpt lat="43.56223" lon="3.32411">
        <ele>206.8</ele>
        <time>2017-12-09T14:46:10Z</time>
      </trkpt>
      <trkpt lat="43.56223" lon="3.32405">
        <ele>207</ele>
        <time>2017-12-09T14:46:12Z</time>
      </trkpt>
      <trkpt lat="43.56223" lon="3.324">
        <ele>207.2</ele>
        <time>2017-12-09T14:46:14Z</time>
      </trkpt>
      <trkpt lat="43.56223" lon="3.32395">
        <ele>207.5</ele>
        <time>2017-12-09T14:46:16Z</time>
      </trkpt>
      <trkpt lat="43.56223" lon="3.3239">
        <ele>207.9</ele>
        <time>2017-12-09T14:46:18Z</time>
      </trkpt>
      <trkpt lat="43.56223" lon="3.32385">
        <ele>208.2</ele>
        <time>2017-12-09T14:46:20Z</time>
      </trkpt>
      <trkpt lat="43.56223" lon="3.32381">
        <ele>208.6</ele>
        <time>2017-12-09T14:46:22Z</time>
      </trkpt>
      <trkpt lat="43.56222" lon="3.32376">
        <ele>209</ele>
        <time>2017-12-09T14:46:24Z</time>
      </trkpt>
      <trkpt lat="43.56219" lon="3.32372">
        <ele>209.5</ele>
        <time>2017-12-09T14:46:26Z</time>
      </trkpt>
      <trkpt lat="43.56215" lon="3.32372">
        <ele>210</ele>
        <time>2017-12-09T14:46:28Z</time>
      </trkpt>
      <trkpt lat="43.56212" lon="3.32376">
        <ele>210.6</ele>
        <time>2017-12-09T14:46:30Z</time>
      </trkpt>
      <trkpt lat="43.5621" lon="3.32379">
        <ele>211.1</ele>
        <time>2017-12-09T14:46:32Z</time>
      </trkpt>
      <trkpt lat="43.5621" lon="3.32384">
        <ele>211.6</ele>
        <time>2017-12-09T14:46:34Z</time>
      </trkpt>
      <trkpt lat="43.56209" lon="3.32388">
        <ele>212</ele>
        <time>2017-12-09T14:46:36Z</time>
      </trkpt>
      <trkpt lat="43.56208" lon="3.32393">
        <ele>212.4</ele>
        <time>2017-12-09T14:46:38Z</time>
      </trkpt>
      <trkpt lat="43.56207" lon="3.32397">
        <ele>212.7</ele>
        <time>2017-12-09T14:46:40Z</time>
      </trkpt>
      <trkpt lat="43.56206" lon="3.324">
        <ele>213</ele>
        <time>2017-12-09T14:46:42Z</time>
      </trkpt>
      <trkpt lat="43.56205" lon="3.32404">
        <ele>213.2</ele>
        <time>2017-12-09T14:46:44Z</time>
      </trkpt>
      <trkpt lat="43.56203" lon="3.32408">
        <ele>213.5</ele>
        <time>2017-12-09T14:46:46Z</time>
      </trkpt>
      <trkpt lat="43.56202" lon="3.32413">
        <ele>213.8</ele>
        <time>2017-12-09T14:46:48Z</time>
      </trkpt>
      <trkpt lat="43.562" lon="3.32416">
        <ele>214</ele>
        <time>2017-12-09T14:46:50Z</time>
      </trkpt>
      <trkpt lat="43.56199" lon="3.32421">
        <ele>214.3</ele>
        <time>2017-12-09T14:46:52Z</time>
      </trkpt>
      <trkpt lat="43.56198" lon="3.32425">
        <ele>214.5</ele>
        <time>2017-12-09T14:46:54Z</time>
      </trkpt>
      <trkpt lat="43.56197" lon="3.3243">
        <ele>214.8</ele>
        <time>2017-12-09T14:46:56Z</time>
      </trkpt>
      <trkpt lat="43.56196" lon="3.32434">
        <ele>215</ele>
        <time>2017-12-09T14:46:58Z</time>
      </trkpt>
      <trkpt lat="43.56195" lon="3.32438">
        <ele>215.2</ele>
        <time>2017-12-09T14:47:00Z</time>
      </trkpt>
      <trkpt lat="43.56193" lon="3.32442">
        <ele>215.4</ele>
        <time>2017-12-09T14:47:02Z</time>
      </trkpt>
      <trkpt lat="43.56192" lon="3.32446">
        <ele>215.6</ele>
        <time>2017-12-09T14:47:04Z</time>
      </trkpt>
      <trkpt lat="43.5619" lon="3.3245">
        <ele>215.9</ele>
        <time>2017-12-09T14:47:06Z</time>
      </trkpt>
      <trkpt lat="43.56188" lon="3.32455">
        <ele>216.1</ele>
        <time>2017-12-09T14:47:08Z</time>
      </trkpt>
      <trkpt lat="43.56186" lon="3.32459">
        <ele>216.3</ele>
        <time>2017-12-09T14:47:10Z</time>
      </trkpt>
      <trkpt lat="43.56184" lon="3.32462">
        <ele>216.5</ele>
        <time>2017-12-09T14:47:12Z</time>
      </trkpt>
      <trkpt lat="43.56183" lon="3.32466">
        <ele>216.7</ele>
        <time>2017-12-09T14:47:14Z</time>
      </trkpt>
      <trkpt lat="43.5618" lon="3.32471">
        <ele>217</ele>
        <time>2017-12-09T14:47:17Z</time>
      </trkpt>
      <trkpt lat="43.56179" lon="3.32475">
        <ele>217.2</ele>
        <time>2017-12-09T14:47:19Z</time>
      </trkpt>
      <trkpt lat="43.56177" lon="3.32478">
        <ele>217.3</ele>
        <time>2017-12-09T14:47:21Z</time>
      </trkpt>
      <trkpt lat="43.56174" lon="3.32483">
        <ele>217.4</ele>
        <time>2017-12-09T14:47:24Z</time>
      </trkpt>
      <trkpt lat="43.56172" lon="3.32486">
        <ele>217.5</ele>
        <time>2017-12-09T14:47:26Z</time>
      </trkpt>
      <trkpt lat="43.5617" lon="3.3249">
        <ele>217.6</ele>
        <time>2017-12-09T14:47:28Z</time>
      </trkpt>
      <trkpt lat="43.56167" lon="3.32495">
        <ele>217.7</ele>
        <time>2017-12-09T14:47:31Z</time>
      </trkpt>
      <trkpt lat="43.56164" lon="3.32499">
        <ele>217.8</ele>
        <time>2017-12-09T14:47:33Z</time>
      </trkpt>
      <trkpt lat="43.56162" lon="3.32503">
        <ele>217.8</ele>
        <time>2017-12-09T14:47:35Z</time>
      </trkpt>
      <trkpt lat="43.5616" lon="3.32507">
        <ele>217.9</ele>
        <time>2017-12-09T14:47:37Z</time>
      </trkpt>
      <trkpt lat="43.56158" lon="3.32511">
        <ele>217.9</ele>
        <time>2017-12-09T14:47:39Z</time>
      </trkpt>
      <trkpt lat="43.56156" lon="3.32516">
        <ele>218</ele>
        <time>2017-12-09T14:47:41Z</time>
      </trkpt>
      <trkpt lat="43.56154" lon="3.32519">
        <ele>218.1</ele>
        <time>2017-12-09T14:47:43Z</time>
      </trkpt>
      <trkpt lat="43.56152" lon="3.32523">
        <ele>218.2</ele>
        <time>2017-12-09T14:47:44Z</time>
      </trkpt>
      <trkpt lat="43.5615" lon="3.32527">
        <ele>218.4</ele>
        <time>2017-12-09T14:47:45Z</time>
      </trkpt>
      <trkpt lat="43.56149" lon="3.32532">
        <ele>218.8</ele>
        <time>2017-12-09T14:47:47Z</time>
      </trkpt>
      <trkpt lat="43.56148" lon="3.32535">
        <ele>219.3</ele>
        <time>2017-12-09T14:47:49Z</time>
      </trkpt>
      <trkpt lat="43.56146" lon="3.32539">
        <ele>220.3</ele>
        <time>2017-12-09T14:47:51Z</time>
      </trkpt>
      <trkpt lat="43.56144" lon="3.32543">
        <ele>221.6</ele>
        <time>2017-12-09T14:47:52Z</time>
      </trkpt>
      <trkpt lat="43.56142" lon="3.32547">
        <ele>225.1</ele>
        <time>2017-12-09T14:47:54Z</time>
      </trkpt>
      <trkpt lat="43.56139" lon="3.32551">
        <ele>225.9</ele>
        <time>2017-12-09T14:47:56Z</time>
      </trkpt>
      <trkpt lat="43.56137" lon="3.32554">
        <ele>226.4</ele>
        <time>2017-12-09T14:47:58Z</time>
      </trkpt>
      <trkpt lat="43.56135" lon="3.32558">
        <ele>226.7</ele>
        <time>2017-12-09T14:48:00Z</time>
      </trkpt>
      <trkpt lat="43.56133" lon="3.32561">
        <ele>227</ele>
        <time>2017-12-09T14:48:01Z</time>
      </trkpt>
      <trkpt lat="43.5613" lon="3.32566">
        <ele>227.4</ele>
        <time>2017-12-09T14:48:03Z</time>
      </trkpt>
      <trkpt lat="43.56128" lon="3.3257">
        <ele>227.7</ele>
        <time>2017-12-09T14:48:05Z</time>
      </trkpt>
      <trkpt lat="43.56126" lon="3.32574">
        <ele>227.8</ele>
        <time>2017-12-09T14:48:07Z</time>
      </trkpt>
      <trkpt lat="43.56123" lon="3.32577">
        <ele>228</ele>
        <time>2017-12-09T14:48:09Z</time>
      </trkpt>
      <trkpt lat="43.5612" lon="3.3258">
        <ele>228.2</ele>
        <time>2017-12-09T14:48:11Z</time>
      </trkpt>
      <trkpt lat="43.56117" lon="3.32585">
        <ele>228.4</ele>
        <time>2017-12-09T14:48:13Z</time>
      </trkpt>
      <trkpt lat="43.56113" lon="3.32589">
        <ele>228.5</ele>
        <time>2017-12-09T14:48:15Z</time>
      </trkpt>
      <trkpt lat="43.56111" lon="3.32592">
        <ele>228.6</ele>
        <time>2017-12-09T14:48:17Z</time>
      </trkpt>
      <trkpt lat="43.56109" lon="3.32595">
        <ele>228.7</ele>
        <time>2017-12-09T14:48:19Z</time>
      </trkpt>
      <trkpt lat="43.56104" lon="3.32597">
        <ele>228.8</ele>
        <time>2017-12-09T14:48:21Z</time>
      </trkpt>
      <trkpt lat="43.56101" lon="3.32598">
        <ele>228.8</ele>
        <time>2017-12-09T14:48:23Z</time>
      </trkpt>
      <trkpt lat="43.56098" lon="3.32601">
        <ele>228.9</ele>
        <time>2017-12-09T14:48:26Z</time>
      </trkpt>
      <trkpt lat="43.56094" lon="3.32603">
        <ele>229</ele>
        <time>2017-12-09T14:48:28Z</time>
      </trkpt>
      <trkpt lat="43.56091" lon="3.32605">
        <ele>229.1</ele>
        <time>2017-12-09T14:48:30Z</time>
      </trkpt>
      <trkpt lat="43.56087" lon="3.32607">
        <ele>229.2</ele>
        <time>2017-12-09T14:48:32Z</time>
      </trkpt>
      <trkpt lat="43.56084" lon="3.32609">
        <ele>229.3</ele>
        <time>2017-12-09T14:48:34Z</time>
      </trkpt>
      <trkpt lat="43.5608" lon="3.32611">
        <ele>229.5</ele>
        <time>2017-12-09T14:48:36Z</time>
      </trkpt>
      <trkpt lat="43.56077" lon="3.32613">
        <ele>229.6</ele>
        <time>2017-12-09T14:48:38Z</time>
      </trkpt>
      <trkpt lat="43.56073" lon="3.32614">
        <ele>229.7</ele>
        <time>2017-12-09T14:48:40Z</time>
      </trkpt>
      <trkpt lat="43.56069" lon="3.32616">
        <ele>229.9</ele>
        <time>2017-12-09T14:48:42Z</time>
      </trkpt>
      <trkpt lat="43.56066" lon="3.32618">
        <ele>230.1</ele>
        <time>2017-12-09T14:48:44Z</time>
      </trkpt>
      <trkpt lat="43.56062" lon="3.3262">
        <ele>230.3</ele>
        <time>2017-12-09T14:48:46Z</time>
      </trkpt>
      <trkpt lat="43.56058" lon="3.32622">
        <ele>230.5</ele>
        <time>2017-12-09T14:48:48Z</time>
      </trkpt>
      <trkpt lat="43.56054" lon="3.32624">
        <ele>230.7</ele>
        <time>2017-12-09T14:48:50Z</time>
      </trkpt>
      <trkpt lat="43.56051" lon="3.32626">
        <ele>231</ele>
        <time>2017-12-09T14:48:52Z</time>
      </trkpt>
      <trkpt lat="43.56047" lon="3.32629">
        <ele>231.2</ele>
        <time>2017-12-09T14:48:54Z</time>
      </trkpt>
      <trkpt lat="43.56044" lon="3.32632">
        <ele>231.4</ele>
        <time>2017-12-09T14:48:56Z</time>
      </trkpt>
      <trkpt lat="43.56041" lon="3.32636">
        <ele>231.6</ele>
        <time>2017-12-09T14:48:59Z</time>
      </trkpt>
      <trkpt lat="43.56039" lon="3.32639">
        <ele>231.7</ele>
        <time>2017-12-09T14:49:01Z</time>
      </trkpt>
      <trkpt lat="43.56036" lon="3.32645">
        <ele>231.9</ele>
        <time>2017-12-09T14:49:03Z</time>
      </trkpt>
      <trkpt lat="43.56036" lon="3.32648">
        <ele>232</ele>
        <time>2017-12-09T14:49:04Z</time>
      </trkpt>
      <trkpt lat="43.56034" lon="3.32653">
        <ele>232.1</ele>
        <time>2017-12-09T14:49:06Z</time>
      </trkpt>
      <trkpt lat="43.56032" lon="3.32658">
        <ele>232.3</ele>
        <time>2017-12-09T14:49:08Z</time>
      </trkpt>
      <trkpt lat="43.56031" lon="3.32664">
        <ele>232.5</ele>
        <time>2017-12-09T14:49:10Z</time>
      </trkpt>
      <trkpt lat="43.5603" lon="3.32669">
        <ele>232.6</ele>
        <time>2017-12-09T14:49:12Z</time>
      </trkpt>
      <trkpt lat="43.56028" lon="3.32674">
        <ele>232.8</ele>
        <time>2017-12-09T14:49:14Z</time>
      </trkpt>
      <trkpt lat="43.56027" lon="3.32679">
        <ele>233</ele>
        <time>2017-12-09T14:49:16Z</time>
      </trkpt>
      <trkpt lat="43.56026" lon="3.32684">
        <ele>233.2</ele>
        <time>2017-12-09T14:49:18Z</time>
      </trkpt>
      <trkpt lat="43.56024" lon="3.3269">
        <ele>233.4</ele>
        <time>2017-12-09T14:49:20Z</time>
      </trkpt>
      <trkpt lat="43.56023" lon="3.32695">
        <ele>233.6</ele>
        <time>2017-12-09T14:49:22Z</time>
      </trkpt>
      <trkpt lat="43.56023" lon="3.327">
        <ele>233.8</ele>
        <time>2017-12-09T14:49:24Z</time>
      </trkpt>
      <trkpt lat="43.56022" lon="3.32706">
        <ele>234</ele>
        <time>2017-12-09T14:49:26Z</time>
      </trkpt>
      <trkpt lat="43.56022" lon="3.32712">
        <ele>234.2</ele>
        <time>2017-12-09T14:49:28Z</time>
      </trkpt>
      <trkpt lat="43.56022" lon="3.32717">
        <ele>234.4</ele>
        <time>2017-12-09T14:49:30Z</time>
      </trkpt>
      <trkpt lat="43.56025" lon="3.32723">
        <ele>234.6</ele>
        <time>2017-12-09T14:49:32Z</time>
      </trkpt>
      <trkpt lat="43.56027" lon="3.32728">
        <ele>234.9</ele>
        <time>2017-12-09T14:49:34Z</time>
      </trkpt>
      <trkpt lat="43.5603" lon="3.32733">
        <ele>235.1</ele>
        <time>2017-12-09T14:49:36Z</time>
      </trkpt>
      <trkpt lat="43.56033" lon="3.32738">
        <ele>235.5</ele>
        <time>2017-12-09T14:49:38Z</time>
      </trkpt>
      <trkpt lat="43.56035" lon="3.32744">
        <ele>236</ele>
        <time>2017-12-09T14:49:40Z</time>
      </trkpt>
      <trkpt lat="43.56037" lon="3.3275">
        <ele>236.5</ele>
        <time>2017-12-09T14:49:42Z</time>
      </trkpt>
      <trkpt lat="43.56038" lon="3.32756">
        <ele>237</ele>
        <time>2017-12-09T14:49:44Z</time>
      </trkpt>
      <trkpt lat="43.56039" lon="3.32762">
        <ele>237.5</ele>
        <time>2017-12-09T14:49:46Z</time>
      </trkpt>
      <trkpt lat="43.56039" lon="3.32768">
        <ele>237.9</ele>
        <time>2017-12-09T14:49:48Z</time>
      </trkpt>
      <trkpt lat="43.5604" lon="3.32773">
        <ele>238.4</ele>
        <time>2017-12-09T14:49:50Z</time>
      </trkpt>
      <trkpt lat="43.5604" lon="3.32779">
        <ele>238.9</ele>
        <time>2017-12-09T14:49:52Z</time>
      </trkpt>
      <trkpt lat="43.56041" lon="3.32784">
        <ele>239.3</ele>
        <time>2017-12-09T14:49:54Z</time>
      </trkpt>
      <trkpt lat="43.56041" lon="3.3279">
        <ele>239.8</ele>
        <time>2017-12-09T14:49:56Z</time>
      </trkpt>
      <trkpt lat="43.56041" lon="3.32795">
        <ele>240.3</ele>
        <time>2017-12-09T14:49:58Z</time>
      </trkpt>
      <trkpt lat="43.5604" lon="3.32801">
        <ele>240.7</ele>
        <time>2017-12-09T14:50:00Z</time>
      </trkpt>
      <trkpt lat="43.5604" lon="3.32805">
        <ele>241.1</ele>
        <time>2017-12-09T14:50:02Z</time>
      </trkpt>
      <trkpt lat="43.56039" lon="3.32811">
        <ele>241.6</ele>
        <time>2017-12-09T14:50:04Z</time>
      </trkpt>
      <trkpt lat="43.56038" lon="3.32816">
        <ele>242</ele>
        <time>2017-12-09T14:50:06Z</time>
      </trkpt>
      <trkpt lat="43.56036" lon="3.32821">
        <ele>242.3</ele>
        <time>2017-12-09T14:50:08Z</time>
      </trkpt>
      <trkpt lat="43.56036" lon="3.32827">
        <ele>242.7</ele>
        <time>2017-12-09T14:50:10Z</time>
      </trkpt>
      <trkpt lat="43.56035" lon="3.32833">
        <ele>243</ele>
        <time>2017-12-09T14:50:13Z</time>
      </trkpt>
      <trkpt lat="43.56033" lon="3.32838">
        <ele>243.3</ele>
        <time>2017-12-09T14:50:15Z</time>
      </trkpt>
      <trkpt lat="43.56032" lon="3.32842">
        <ele>243.5</ele>
        <time>2017-12-09T14:50:17Z</time>
      </trkpt>
      <trkpt lat="43.5603" lon="3.32846">
        <ele>243.7</ele>
        <time>2017-12-09T14:50:19Z</time>
      </trkpt>
      <trkpt lat="43.56028" lon="3.32851">
        <ele>243.9</ele>
        <time>2017-12-09T14:50:21Z</time>
      </trkpt>
      <trkpt lat="43.56026" lon="3.32856">
        <ele>244.1</ele>
        <time>2017-12-09T14:50:23Z</time>
      </trkpt>
      <trkpt lat="43.56023" lon="3.32861">
        <ele>244.2</ele>
        <time>2017-12-09T14:50:25Z</time>
      </trkpt>
      <trkpt lat="43.56021" lon="3.32865">
        <ele>244.3</ele>
        <time>2017-12-09T14:50:27Z</time>
      </trkpt>
      <trkpt lat="43.5602" lon="3.32869">
        <ele>244.3</ele>
        <time>2017-12-09T14:50:29Z</time>
      </trkpt>
      <trkpt lat="43.56018" lon="3.32874">
        <ele>244.4</ele>
        <time>2017-12-09T14:50:31Z</time>
      </trkpt>
      <trkpt lat="43.56017" lon="3.32877">
        <ele>244.4</ele>
        <time>2017-12-09T14:50:33Z</time>
      </trkpt>
      <trkpt lat="43.56015" lon="3.3288">
        <ele>244.5</ele>
        <time>2017-12-09T14:50:35Z</time>
      </trkpt>
      <trkpt lat="43.56013" lon="3.32883">
        <ele>244.5</ele>
        <time>2017-12-09T14:50:38Z</time>
      </trkpt>
      <trkpt lat="43.56011" lon="3.32887">
        <ele>244.6</ele>
        <time>2017-12-09T14:50:40Z</time>
      </trkpt>
      <trkpt lat="43.56008" lon="3.3289">
        <ele>244.6</ele>
        <time>2017-12-09T14:50:42Z</time>
      </trkpt>
      <trkpt lat="43.56006" lon="3.32893">
        <ele>244.6</ele>
        <time>2017-12-09T14:50:44Z</time>
      </trkpt>
      <trkpt lat="43.56004" lon="3.32896">
        <ele>244.7</ele>
        <time>2017-12-09T14:50:46Z</time>
      </trkpt>
      <trkpt lat="43.56003" lon="3.329">
        <ele>244.7</ele>
        <time>2017-12-09T14:50:49Z</time>
      </trkpt>
      <trkpt lat="43.56004" lon="3.32903">
        <ele>244.7</ele>
        <time>2017-12-09T14:50:53Z</time>
      </trkpt>
      <trkpt lat="43.56007" lon="3.32902">
        <ele>244.8</ele>
        <time>2017-12-09T14:50:57Z</time>
      </trkpt>
      <trkpt lat="43.56008" lon="3.32898">
        <ele>244.8</ele>
        <time>2017-12-09T14:51:00Z</time>
      </trkpt>
      <trkpt lat="43.56005" lon="3.329">
        <ele>244.9</ele>
        <time>2017-12-09T14:51:04Z</time>
      </trkpt>
      <trkpt lat="43.56003" lon="3.32902">
        <ele>244.9</ele>
        <time>2017-12-09T14:51:08Z</time>
      </trkpt>
      <trkpt lat="43.56007" lon="3.32902">
        <ele>245</ele>
        <time>2017-12-09T14:52:03Z</time>
      </trkpt>
      <trkpt lat="43.56011" lon="3.32899">
        <ele>245</ele>
        <time>2017-12-09T14:52:05Z</time>
      </trkpt>
      <trkpt lat="43.56014" lon="3.32896">
        <ele>245</ele>
        <time>2017-12-09T14:52:07Z</time>
      </trkpt>
      <trkpt lat="43.56018" lon="3.32895">
        <ele>244.3</ele>
        <time>2017-12-09T14:52:10Z</time>
      </trkpt>
      <trkpt lat="43.56022" lon="3.32895">
        <ele>243</ele>
        <time>2017-12-09T14:52:12Z</time>
      </trkpt>
      <trkpt lat="43.56025" lon="3.32898">
        <ele>242.2</ele>
        <time>2017-12-09T14:52:15Z</time>
      </trkpt>
      <trkpt lat="43.56027" lon="3.32901">
        <ele>241.5</ele>
        <time>2017-12-09T14:52:17Z</time>
      </trkpt>
      <trkpt lat="43.56029" lon="3.32904">
        <ele>240.5</ele>
        <time>2017-12-09T14:52:21Z</time>
      </trkpt>
      <trkpt lat="43.56032" lon="3.32907">
        <ele>239.7</ele>
        <time>2017-12-09T14:52:22Z</time>
      </trkpt>
      <trkpt lat="43.56034" lon="3.3291">
        <ele>239.2</ele>
        <time>2017-12-09T14:52:23Z</time>
      </trkpt>
      <trkpt lat="43.56036" lon="3.32915">
        <ele>239</ele>
        <time>2017-12-09T14:52:24Z</time>
      </trkpt>
      <trkpt lat="43.56037" lon="3.32919">
        <ele>238.7</ele>
        <time>2017-12-09T14:52:25Z</time>
      </trkpt>
      <trkpt lat="43.56038" lon="3.32922">
        <ele>238.3</ele>
        <time>2017-12-09T14:52:26Z</time>
      </trkpt>
      <trkpt lat="43.5604" lon="3.32926">
        <ele>237.8</ele>
        <time>2017-12-09T14:52:27Z</time>
      </trkpt>
      <trkpt lat="43.56043" lon="3.3293">
        <ele>237.2</ele>
        <time>2017-12-09T14:52:29Z</time>
      </trkpt>
      <trkpt lat="43.56046" lon="3.32936">
        <ele>236.7</ele>
        <time>2017-12-09T14:52:31Z</time>
      </trkpt>
      <trkpt lat="43.56046" lon="3.32939">
        <ele>236.4</ele>
        <time>2017-12-09T14:52:33Z</time>
      </trkpt>
      <trkpt lat="43.56045" lon="3.32945">
        <ele>235.7</ele>
        <time>2017-12-09T14:52:35Z</time>
      </trkpt>
      <trkpt lat="43.56043" lon="3.32949">
        <ele>235.1</ele>
        <time>2017-12-09T14:52:36Z</time>
      </trkpt>
      <trkpt lat="43.56042" lon="3.32955">
        <ele>235.1</ele>
        <time>2017-12-09T14:52:37Z</time>
      </trkpt>
      <trkpt lat="43.56041" lon="3.32959">
        <ele>235.3</ele>
        <time>2017-12-09T14:52:38Z</time>
      </trkpt>
      <trkpt lat="43.56038" lon="3.32964">
        <ele>235.6</ele>
        <time>2017-12-09T14:52:40Z</time>
      </trkpt>
      <trkpt lat="43.56036" lon="3.32967">
        <ele>235.8</ele>
        <time>2017-12-09T14:52:41Z</time>
      </trkpt>
      <trkpt lat="43.56034" lon="3.32972">
        <ele>236</ele>
        <time>2017-12-09T14:52:42Z</time>
      </trkpt>
      <trkpt lat="43.56033" lon="3.32979">
        <ele>236.3</ele>
        <time>2017-12-09T14:52:43Z</time>
      </trkpt>
      <trkpt lat="43.5603" lon="3.32986">
        <ele>236.1</ele>
        <time>2017-12-09T14:52:45Z</time>
      </trkpt>
      <trkpt lat="43.56026" lon="3.3299">
        <ele>235.7</ele>
        <time>2017-12-09T14:52:47Z</time>
      </trkpt>
      <trkpt lat="43.56024" lon="3.32996">
        <ele>235.9</ele>
        <time>2017-12-09T14:52:49Z</time>
      </trkpt>
      <trkpt lat="43.56026" lon="3.33001">
        <ele>236</ele>
        <time>2017-12-09T14:52:52Z</time>
      </trkpt>
      <trkpt lat="43.56029" lon="3.33002">
        <ele>234.5</ele>
        <time>2017-12-09T14:52:54Z</time>
      </trkpt>
      <trkpt lat="43.56034" lon="3.33004">
        <ele>232.9</ele>
        <time>2017-12-09T14:52:56Z</time>
      </trkpt>
      <trkpt lat="43.56036" lon="3.33006">
        <ele>231.9</ele>
        <time>2017-12-09T14:52:58Z</time>
      </trkpt>
      <trkpt lat="43.5604" lon="3.33009">
        <ele>230.6</ele>
        <time>2017-12-09T14:53:00Z</time>
      </trkpt>
      <trkpt lat="43.56044" lon="3.33008">
        <ele>229.4</ele>
        <time>2017-12-09T14:53:02Z</time>
      </trkpt>
      <trkpt lat="43.56048" lon="3.33006">
        <ele>228.3</ele>
        <time>2017-12-09T14:53:04Z</time>
      </trkpt>
      <trkpt lat="43.56052" lon="3.33003">
        <ele>226.8</ele>
        <time>2017-12-09T14:53:06Z</time>
      </trkpt>
      <trkpt lat="43.56056" lon="3.33002">
        <ele>225.9</ele>
        <time>2017-12-09T14:53:07Z</time>
      </trkpt>
      <trkpt lat="43.56059" lon="3.33005">
        <ele>224.8</ele>
        <time>2017-12-09T14:53:08Z</time>
      </trkpt>
      <trkpt lat="43.56062" lon="3.33006">
        <ele>223.9</ele>
        <time>2017-12-09T14:53:09Z</time>
      </trkpt>
      <trkpt lat="43.56068" lon="3.33006">
        <ele>222.2</ele>
        <time>2017-12-09T14:53:10Z</time>
      </trkpt>
      <trkpt lat="43.56073" lon="3.33007">
        <ele>220.6</ele>
        <time>2017-12-09T14:53:11Z</time>
      </trkpt>
      <trkpt lat="43.56075" lon="3.3301">
        <ele>219.9</ele>
        <time>2017-12-09T14:53:12Z</time>
      </trkpt>
      <trkpt lat="43.56076" lon="3.33017">
        <ele>219.2</ele>
        <time>2017-12-09T14:53:13Z</time>
      </trkpt>
      <trkpt lat="43.56077" lon="3.33024">
        <ele>217.8</ele>
        <time>2017-12-09T14:53:14Z</time>
      </trkpt>
      <trkpt lat="43.56078" lon="3.33029">
        <ele>216.6</ele>
        <time>2017-12-09T14:53:15Z</time>
      </trkpt>
      <trkpt lat="43.56081" lon="3.33032">
        <ele>215.7</ele>
        <time>2017-12-09T14:53:16Z</time>
      </trkpt>
      <trkpt lat="43.56084" lon="3.33032">
        <ele>215.1</ele>
        <time>2017-12-09T14:53:17Z</time>
      </trkpt>
      <trkpt lat="43.56087" lon="3.33028">
        <ele>214</ele>
        <time>2017-12-09T14:53:18Z</time>
      </trkpt>
      <trkpt lat="43.5609" lon="3.33024">
        <ele>213.1</ele>
        <time>2017-12-09T14:53:19Z</time>
      </trkpt>
      <trkpt lat="43.56095" lon="3.3302">
        <ele>211.8</ele>
        <time>2017-12-09T14:53:20Z</time>
      </trkpt>
      <trkpt lat="43.56101" lon="3.33016">
        <ele>210.6</ele>
        <time>2017-12-09T14:53:21Z</time>
      </trkpt>
      <trkpt lat="43.56106" lon="3.33014">
        <ele>209.5</ele>
        <time>2017-12-09T14:53:22Z</time>
      </trkpt>
      <trkpt lat="43.5611" lon="3.33018">
        <ele>208.3</ele>
        <time>2017-12-09T14:53:23Z</time>
      </trkpt>
      <trkpt lat="43.56113" lon="3.33023">
        <ele>207</ele>
        <time>2017-12-09T14:53:24Z</time>
      </trkpt>
      <trkpt lat="43.56118" lon="3.33026">
        <ele>205.8</ele>
        <time>2017-12-09T14:53:25Z</time>
      </trkpt>
      <trkpt lat="43.56123" lon="3.33028">
        <ele>204.8</ele>
        <time>2017-12-09T14:53:26Z</time>
      </trkpt>
      <trkpt lat="43.56127" lon="3.33027">
        <ele>204</ele>
        <time>2017-12-09T14:53:27Z</time>
      </trkpt>
      <trkpt lat="43.56131" lon="3.33025">
        <ele>202.9</ele>
        <time>2017-12-09T14:53:28Z</time>
      </trkpt>
      <trkpt lat="43.56135" lon="3.33025">
        <ele>201.8</ele>
        <time>2017-12-09T14:53:29Z</time>
      </trkpt>
      <trkpt lat="43.56138" lon="3.33024">
        <ele>200.9</ele>
        <time>2017-12-09T14:53:30Z</time>
      </trkpt>
      <trkpt lat="43.56142" lon="3.33023">
        <ele>199.7</ele>
        <time>2017-12-09T14:53:31Z</time>
      </trkpt>
      <trkpt lat="43.56148" lon="3.33024">
        <ele>198.4</ele>
        <time>2017-12-09T14:53:32Z</time>
      </trkpt>
      <trkpt lat="43.56153" lon="3.33024">
        <ele>197.1</ele>
        <time>2017-12-09T14:53:33Z</time>
      </trkpt>
      <trkpt lat="43.56158" lon="3.33025">
        <ele>196</ele>
        <time>2017-12-09T14:53:34Z</time>
      </trkpt>
      <trkpt lat="43.56162" lon="3.33026">
        <ele>195.2</ele>
        <time>2017-12-09T14:53:35Z</time>
      </trkpt>
      <trkpt lat="43.56166" lon="3.33028">
        <ele>194.2</ele>
        <time>2017-12-09T14:53:37Z</time>
      </trkpt>
      <trkpt lat="43.56168" lon="3.33026">
        <ele>193.6</ele>
        <time>2017-12-09T14:53:38Z</time>
      </trkpt>
      <trkpt lat="43.56174" lon="3.33027">
        <ele>192.4</ele>
        <time>2017-12-09T14:53:39Z</time>
      </trkpt>
      <trkpt lat="43.56179" lon="3.33028">
        <ele>190.8</ele>
        <time>2017-12-09T14:53:40Z</time>
      </trkpt>
      <trkpt lat="43.56184" lon="3.33027">
        <ele>189.5</ele>
        <time>2017-12-09T14:53:41Z</time>
      </trkpt>
      <trkpt lat="43.5619" lon="3.33026">
        <ele>188.3</ele>
        <time>2017-12-09T14:53:42Z</time>
      </trkpt>
      <trkpt lat="43.56193" lon="3.33027">
        <ele>187.5</ele>
        <time>2017-12-09T14:53:43Z</time>
      </trkpt>
      <trkpt lat="43.56197" lon="3.33025">
        <ele>186.1</ele>
        <time>2017-12-09T14:53:44Z</time>
      </trkpt>
      <trkpt lat="43.56201" lon="3.33026">
        <ele>185.3</ele>
        <time>2017-12-09T14:53:45Z</time>
      </trkpt>
      <trkpt lat="43.56205" lon="3.33026">
        <ele>184.3</ele>
        <time>2017-12-09T14:53:46Z</time>
      </trkpt>
      <trkpt lat="43.5621" lon="3.33027">
        <ele>182.9</ele>
        <time>2017-12-09T14:53:47Z</time>
      </trkpt>
      <trkpt lat="43.56217" lon="3.33026">
        <ele>180.7</ele>
        <time>2017-12-09T14:53:48Z</time>
      </trkpt>
      <trkpt lat="43.56221" lon="3.33024">
        <ele>179.8</ele>
        <time>2017-12-09T14:53:49Z</time>
      </trkpt>
      <trkpt lat="43.56226" lon="3.33019">
        <ele>178.7</ele>
        <time>2017-12-09T14:53:50Z</time>
      </trkpt>
      <trkpt lat="43.56231" lon="3.33013">
        <ele>177.7</ele>
        <time>2017-12-09T14:53:51Z</time>
      </trkpt>
      <trkpt lat="43.56235" lon="3.3301">
        <ele>176.9</ele>
        <time>2017-12-09T14:53:52Z</time>
      </trkpt>
      <trkpt lat="43.5624" lon="3.33006">
        <ele>176.2</ele>
        <time>2017-12-09T14:53:53Z</time>
      </trkpt>
      <trkpt lat="43.56244" lon="3.32999">
        <ele>175.2</ele>
        <time>2017-12-09T14:53:54Z</time>
      </trkpt>
      <trkpt lat="43.56247" lon="3.32991">
        <ele>174.3</ele>
        <time>2017-12-09T14:53:55Z</time>
      </trkpt>
      <trkpt lat="43.56248" lon="3.32986">
        <ele>173.7</ele>
        <time>2017-12-09T14:53:56Z</time>
      </trkpt>
      <trkpt lat="43.56249" lon="3.32982">
        <ele>173.2</ele>
        <time>2017-12-09T14:53:57Z</time>
      </trkpt>
      <trkpt lat="43.56252" lon="3.32979">
        <ele>172.7</ele>
        <time>2017-12-09T14:54:02Z</time>
      </trkpt>
      <trkpt lat="43.56254" lon="3.32977">
        <ele>172.3</ele>
        <time>2017-12-09T14:54:11Z</time>
      </trkpt>
      <trkpt lat="43.56256" lon="3.32973">
        <ele>171.6</ele>
        <time>2017-12-09T14:54:14Z</time>
      </trkpt>
      <trkpt lat="43.5626" lon="3.32971">
        <ele>171</ele>
        <time>2017-12-09T14:54:16Z</time>
      </trkpt>
      <trkpt lat="43.56263" lon="3.32971">
        <ele>170.6</ele>
        <time>2017-12-09T14:54:19Z</time>
      </trkpt>
      <trkpt lat="43.56265" lon="3.32968">
        <ele>170.3</ele>
        <time>2017-12-09T14:54:59Z</time>
      </trkpt>
      <trkpt lat="43.56268" lon="3.32968">
        <ele>170</ele>
        <time>2017-12-09T14:55:01Z</time>
      </trkpt>
      <trkpt lat="43.56273" lon="3.32968">
        <ele>169.5</ele>
        <time>2017-12-09T14:55:03Z</time>
      </trkpt>
      <trkpt lat="43.56278" lon="3.32968">
        <ele>169.2</ele>
        <time>2017-12-09T14:55:05Z</time>
      </trkpt>
      <trkpt lat="43.56283" lon="3.32969">
        <ele>168.7</ele>
        <time>2017-12-09T14:55:07Z</time>
      </trkpt>
      <trkpt lat="43.56287" lon="3.32971">
        <ele>168.4</ele>
        <time>2017-12-09T14:55:08Z</time>
      </trkpt>
      <trkpt lat="43.5629" lon="3.32975">
        <ele>168</ele>
        <time>2017-12-09T14:55:09Z</time>
      </trkpt>
      <trkpt lat="43.56292" lon="3.32977">
        <ele>167.8</ele>
        <time>2017-12-09T14:55:10Z</time>
      </trkpt>
      <trkpt lat="43.56297" lon="3.32982">
        <ele>167.5</ele>
        <time>2017-12-09T14:55:12Z</time>
      </trkpt>
      <trkpt lat="43.563" lon="3.32986">
        <ele>167.3</ele>
        <time>2017-12-09T14:55:13Z</time>
      </trkpt>
      <trkpt lat="43.56302" lon="3.32991">
        <ele>167.2</ele>
        <time>2017-12-09T14:55:14Z</time>
      </trkpt>
      <trkpt lat="43.56304" lon="3.32994">
        <ele>167.1</ele>
        <time>2017-12-09T14:55:15Z</time>
      </trkpt>
      <trkpt lat="43.56305" lon="3.32998">
        <ele>167.1</ele>
        <time>2017-12-09T14:55:16Z</time>
      </trkpt>
      <trkpt lat="43.56306" lon="3.33005">
        <ele>167</ele>
        <time>2017-12-09T14:55:18Z</time>
      </trkpt>
      <trkpt lat="43.56306" lon="3.3301">
        <ele>166.9</ele>
        <time>2017-12-09T14:55:19Z</time>
      </trkpt>
      <trkpt lat="43.56306" lon="3.33014">
        <ele>166.9</ele>
        <time>2017-12-09T14:55:20Z</time>
      </trkpt>
      <trkpt lat="43.56306" lon="3.33019">
        <ele>166.9</ele>
        <time>2017-12-09T14:55:21Z</time>
      </trkpt>
      <trkpt lat="43.56305" lon="3.33023">
        <ele>166.8</ele>
        <time>2017-12-09T14:55:22Z</time>
      </trkpt>
      <trkpt lat="43.56305" lon="3.33028">
        <ele>166.8</ele>
        <time>2017-12-09T14:55:23Z</time>
      </trkpt>
      <trkpt lat="43.56304" lon="3.33034">
        <ele>166.8</ele>
        <time>2017-12-09T14:55:24Z</time>
      </trkpt>
      <trkpt lat="43.56303" lon="3.33038">
        <ele>166.7</ele>
        <time>2017-12-09T14:55:25Z</time>
      </trkpt>
      <trkpt lat="43.56302" lon="3.33044">
        <ele>166.7</ele>
        <time>2017-12-09T14:55:26Z</time>
      </trkpt>
      <trkpt lat="43.563" lon="3.33049">
        <ele>166.7</ele>
        <time>2017-12-09T14:55:27Z</time>
      </trkpt>
      <trkpt lat="43.563" lon="3.33055">
        <ele>166.5</ele>
        <time>2017-12-09T14:55:28Z</time>
      </trkpt>
      <trkpt lat="43.56299" lon="3.33061">
        <ele>166.3</ele>
        <time>2017-12-09T14:55:29Z</time>
      </trkpt>
      <trkpt lat="43.56298" lon="3.33067">
        <ele>166.1</ele>
        <time>2017-12-09T14:55:30Z</time>
      </trkpt>
      <trkpt lat="43.56298" lon="3.33073">
        <ele>165.8</ele>
        <time>2017-12-09T14:55:31Z</time>
      </trkpt>
      <trkpt lat="43.56297" lon="3.3308">
        <ele>165.5</ele>
        <time>2017-12-09T14:55:32Z</time>
      </trkpt>
      <trkpt lat="43.56298" lon="3.33087">
        <ele>165.2</ele>
        <time>2017-12-09T14:55:33Z</time>
      </trkpt>
      <trkpt lat="43.56298" lon="3.33095">
        <ele>165.1</ele>
        <time>2017-12-09T14:55:34Z</time>
      </trkpt>
      <trkpt lat="43.56299" lon="3.33102">
        <ele>165</ele>
        <time>2017-12-09T14:55:35Z</time>
      </trkpt>
      <trkpt lat="43.56301" lon="3.33111">
        <ele>164.8</ele>
        <time>2017-12-09T14:55:36Z</time>
      </trkpt>
      <trkpt lat="43.56303" lon="3.33118">
        <ele>164.7</ele>
        <time>2017-12-09T14:55:37Z</time>
      </trkpt>
      <trkpt lat="43.56304" lon="3.33126">
        <ele>164.6</ele>
        <time>2017-12-09T14:55:38Z</time>
      </trkpt>
      <trkpt lat="43.56305" lon="3.33134">
        <ele>164.5</ele>
        <time>2017-12-09T14:55:39Z</time>
      </trkpt>
      <trkpt lat="43.56305" lon="3.33139">
        <ele>164.4</ele>
        <time>2017-12-09T14:55:40Z</time>
      </trkpt>
      <trkpt lat="43.56308" lon="3.33146">
        <ele>164.3</ele>
        <time>2017-12-09T14:55:41Z</time>
      </trkpt>
      <trkpt lat="43.56309" lon="3.33155">
        <ele>164.1</ele>
        <time>2017-12-09T14:55:42Z</time>
      </trkpt>
      <trkpt lat="43.5631" lon="3.33164">
        <ele>164</ele>
        <time>2017-12-09T14:55:43Z</time>
      </trkpt>
      <trkpt lat="43.56311" lon="3.33172">
        <ele>163.8</ele>
        <time>2017-12-09T14:55:44Z</time>
      </trkpt>
      <trkpt lat="43.56312" lon="3.33178">
        <ele>163.5</ele>
        <time>2017-12-09T14:55:45Z</time>
      </trkpt>
      <trkpt lat="43.56315" lon="3.33188">
        <ele>163.1</ele>
        <time>2017-12-09T14:55:46Z</time>
      </trkpt>
      <trkpt lat="43.56315" lon="3.33196">
        <ele>162.9</ele>
        <time>2017-12-09T14:55:47Z</time>
      </trkpt>
      <trkpt lat="43.56315" lon="3.33204">
        <ele>162.7</ele>
        <time>2017-12-09T14:55:48Z</time>
      </trkpt>
      <trkpt lat="43.56317" lon="3.33212">
        <ele>162.6</ele>
        <time>2017-12-09T14:55:49Z</time>
      </trkpt>
      <trkpt lat="43.56319" lon="3.3322">
        <ele>162.6</ele>
        <time>2017-12-09T14:55:50Z</time>
      </trkpt>
      <trkpt lat="43.56322" lon="3.33229">
        <ele>162.5</ele>
        <time>2017-12-09T14:55:51Z</time>
      </trkpt>
      <trkpt lat="43.56325" lon="3.33238">
        <ele>162.5</ele>
        <time>2017-12-09T14:55:52Z</time>
      </trkpt>
      <trkpt lat="43.56328" lon="3.33246">
        <ele>162.5</ele>
        <time>2017-12-09T14:55:53Z</time>
      </trkpt>
      <trkpt lat="43.56329" lon="3.33254">
        <ele>162.4</ele>
        <time>2017-12-09T14:55:54Z</time>
      </trkpt>
      <trkpt lat="43.5633" lon="3.33261">
        <ele>162.4</ele>
        <time>2017-12-09T14:55:55Z</time>
      </trkpt>
      <trkpt lat="43.56331" lon="3.33268">
        <ele>162.4</ele>
        <time>2017-12-09T14:55:56Z</time>
      </trkpt>
      <trkpt lat="43.56333" lon="3.33275">
        <ele>162.4</ele>
        <time>2017-12-09T14:55:57Z</time>
      </trkpt>
      <trkpt lat="43.56335" lon="3.33283">
        <ele>162.4</ele>
        <time>2017-12-09T14:55:58Z</time>
      </trkpt>
      <trkpt lat="43.56338" lon="3.33288">
        <ele>162.4</ele>
        <time>2017-12-09T14:55:59Z</time>
      </trkpt>
      <trkpt lat="43.5634" lon="3.33295">
        <ele>162.4</ele>
        <time>2017-12-09T14:56:00Z</time>
      </trkpt>
      <trkpt lat="43.56341" lon="3.33302">
        <ele>162.3</ele>
        <time>2017-12-09T14:56:01Z</time>
      </trkpt>
      <trkpt lat="43.56344" lon="3.33308">
        <ele>162.3</ele>
        <time>2017-12-09T14:56:02Z</time>
      </trkpt>
      <trkpt lat="43.56346" lon="3.33314">
        <ele>162.3</ele>
        <time>2017-12-09T14:56:03Z</time>
      </trkpt>
      <trkpt lat="43.56348" lon="3.33322">
        <ele>162.2</ele>
        <time>2017-12-09T14:56:04Z</time>
      </trkpt>
      <trkpt lat="43.5635" lon="3.33328">
        <ele>162.1</ele>
        <time>2017-12-09T14:56:05Z</time>
      </trkpt>
      <trkpt lat="43.56352" lon="3.33335">
        <ele>162</ele>
        <time>2017-12-09T14:56:06Z</time>
      </trkpt>
      <trkpt lat="43.56355" lon="3.33342">
        <ele>161.9</ele>
        <time>2017-12-09T14:56:07Z</time>
      </trkpt>
      <trkpt lat="43.56357" lon="3.33348">
        <ele>161.8</ele>
        <time>2017-12-09T14:56:08Z</time>
      </trkpt>
      <trkpt lat="43.56358" lon="3.33354">
        <ele>161.7</ele>
        <time>2017-12-09T14:56:09Z</time>
      </trkpt>
      <trkpt lat="43.5636" lon="3.33359">
        <ele>161.6</ele>
        <time>2017-12-09T14:56:10Z</time>
      </trkpt>
      <trkpt lat="43.56362" lon="3.33365">
        <ele>161.6</ele>
        <time>2017-12-09T14:56:11Z</time>
      </trkpt>
      <trkpt lat="43.56364" lon="3.33371">
        <ele>161.4</ele>
        <time>2017-12-09T14:56:12Z</time>
      </trkpt>
      <trkpt lat="43.56367" lon="3.33377">
        <ele>161.1</ele>
        <time>2017-12-09T14:56:13Z</time>
      </trkpt>
      <trkpt lat="43.5637" lon="3.33384">
        <ele>160.8</ele>
        <time>2017-12-09T14:56:14Z</time>
      </trkpt>
      <trkpt lat="43.56373" lon="3.3339">
        <ele>160.6</ele>
        <time>2017-12-09T14:56:15Z</time>
      </trkpt>
      <trkpt lat="43.56376" lon="3.33396">
        <ele>160.4</ele>
        <time>2017-12-09T14:56:16Z</time>
      </trkpt>
      <trkpt lat="43.56379" lon="3.33401">
        <ele>160.3</ele>
        <time>2017-12-09T14:56:17Z</time>
      </trkpt>
      <trkpt lat="43.56382" lon="3.33406">
        <ele>160.2</ele>
        <time>2017-12-09T14:56:18Z</time>
      </trkpt>
      <trkpt lat="43.56384" lon="3.33411">
        <ele>160.2</ele>
        <time>2017-12-09T14:56:19Z</time>
      </trkpt>
      <trkpt lat="43.56387" lon="3.33416">
        <ele>160.2</ele>
        <time>2017-12-09T14:56:20Z</time>
      </trkpt>
      <trkpt lat="43.5639" lon="3.3342">
        <ele>160.1</ele>
        <time>2017-12-09T14:56:21Z</time>
      </trkpt>
      <trkpt lat="43.56392" lon="3.33423">
        <ele>160.1</ele>
        <time>2017-12-09T14:56:22Z</time>
      </trkpt>
      <trkpt lat="43.56395" lon="3.33427">
        <ele>160.1</ele>
        <time>2017-12-09T14:56:23Z</time>
      </trkpt>
      <trkpt lat="43.56398" lon="3.33431">
        <ele>160.1</ele>
        <time>2017-12-09T14:56:24Z</time>
      </trkpt>
      <trkpt lat="43.564" lon="3.33434">
        <ele>160.1</ele>
        <time>2017-12-09T14:56:25Z</time>
      </trkpt>
      <trkpt lat="43.56402" lon="3.33438">
        <ele>160</ele>
        <time>2017-12-09T14:56:26Z</time>
      </trkpt>
      <trkpt lat="43.56405" lon="3.33442">
        <ele>160</ele>
        <time>2017-12-09T14:56:27Z</time>
      </trkpt>
      <trkpt lat="43.56407" lon="3.33446">
        <ele>160</ele>
        <time>2017-12-09T14:56:28Z</time>
      </trkpt>
      <trkpt lat="43.56409" lon="3.3345">
        <ele>160</ele>
        <time>2017-12-09T14:56:29Z</time>
      </trkpt>
      <trkpt lat="43.56412" lon="3.33453">
        <ele>160</ele>
        <time>2017-12-09T14:56:30Z</time>
      </trkpt>
      <trkpt lat="43.56414" lon="3.33457">
        <ele>160</ele>
        <time>2017-12-09T14:56:31Z</time>
      </trkpt>
      <trkpt lat="43.56416" lon="3.3346">
        <ele>160</ele>
        <time>2017-12-09T14:56:32Z</time>
      </trkpt>
      <trkpt lat="43.56418" lon="3.33463">
        <ele>160</ele>
        <time>2017-12-09T14:56:33Z</time>
      </trkpt>
      <trkpt lat="43.56421" lon="3.33468">
        <ele>160</ele>
        <time>2017-12-09T14:56:35Z</time>
      </trkpt>
      <trkpt lat="43.56423" lon="3.33474">
        <ele>160</ele>
        <time>2017-12-09T14:56:37Z</time>
      </trkpt>
      <trkpt lat="43.56425" lon="3.33478">
        <ele>160</ele>
        <time>2017-12-09T14:56:40Z</time>
      </trkpt>
      <trkpt lat="43.56428" lon="3.3348">
        <ele>160</ele>
        <time>2017-12-09T14:56:42Z</time>
      </trkpt>
      <trkpt lat="43.5643" lon="3.33483">
        <ele>160</ele>
        <time>2017-12-09T14:56:44Z</time>
      </trkpt>
      <trkpt lat="43.56434" lon="3.33488">
        <ele>160</ele>
        <time>2017-12-09T14:56:46Z</time>
      </trkpt>
      <trkpt lat="43.56436" lon="3.3349">
        <ele>159.9</ele>
        <time>2017-12-09T14:56:47Z</time>
      </trkpt>
      <trkpt lat="43.56439" lon="3.33494">
        <ele>159.8</ele>
        <time>2017-12-09T14:56:48Z</time>
      </trkpt>
      <trkpt lat="43.56442" lon="3.33498">
        <ele>159.7</ele>
        <time>2017-12-09T14:56:49Z</time>
      </trkpt>
      <trkpt lat="43.56445" lon="3.33502">
        <ele>159.6</ele>
        <time>2017-12-09T14:56:50Z</time>
      </trkpt>
      <trkpt lat="43.56449" lon="3.33507">
        <ele>159.5</ele>
        <time>2017-12-09T14:56:51Z</time>
      </trkpt>
      <trkpt lat="43.56452" lon="3.33512">
        <ele>159.4</ele>
        <time>2017-12-09T14:56:52Z</time>
      </trkpt>
      <trkpt lat="43.56456" lon="3.33518">
        <ele>159.3</ele>
        <time>2017-12-09T14:56:53Z</time>
      </trkpt>
      <trkpt lat="43.5646" lon="3.33525">
        <ele>159.2</ele>
        <time>2017-12-09T14:56:54Z</time>
      </trkpt>
      <trkpt lat="43.56463" lon="3.33533">
        <ele>159</ele>
        <time>2017-12-09T14:56:55Z</time>
      </trkpt>
      <trkpt lat="43.56466" lon="3.33541">
        <ele>158.6</ele>
        <time>2017-12-09T14:56:56Z</time>
      </trkpt>
      <trkpt lat="43.56469" lon="3.33549">
        <ele>158.3</ele>
        <time>2017-12-09T14:56:57Z</time>
      </trkpt>
      <trkpt lat="43.56473" lon="3.33558">
        <ele>157.9</ele>
        <time>2017-12-09T14:56:58Z</time>
      </trkpt>
      <trkpt lat="43.56476" lon="3.33567">
        <ele>157.8</ele>
        <time>2017-12-09T14:56:59Z</time>
      </trkpt>
      <trkpt lat="43.56479" lon="3.33575">
        <ele>157.7</ele>
        <time>2017-12-09T14:57:00Z</time>
      </trkpt>
      <trkpt lat="43.56483" lon="3.33583">
        <ele>157.5</ele>
        <time>2017-12-09T14:57:01Z</time>
      </trkpt>
      <trkpt lat="43.56488" lon="3.33591">
        <ele>157.4</ele>
        <time>2017-12-09T14:57:02Z</time>
      </trkpt>
      <trkpt lat="43.56493" lon="3.33598">
        <ele>157.3</ele>
        <time>2017-12-09T14:57:03Z</time>
      </trkpt>
      <trkpt lat="43.56498" lon="3.33606">
        <ele>157.1</ele>
        <time>2017-12-09T14:57:04Z</time>
      </trkpt>
      <trkpt lat="43.56502" lon="3.33615">
        <ele>157</ele>
        <time>2017-12-09T14:57:05Z</time>
      </trkpt>
      <trkpt lat="43.56506" lon="3.33623">
        <ele>156.7</ele>
        <time>2017-12-09T14:57:06Z</time>
      </trkpt>
      <trkpt lat="43.5651" lon="3.33631">
        <ele>156.3</ele>
        <time>2017-12-09T14:57:07Z</time>
      </trkpt>
      <trkpt lat="43.56516" lon="3.33635">
        <ele>156</ele>
        <time>2017-12-09T14:57:08Z</time>
      </trkpt>
      <trkpt lat="43.56522" lon="3.33639">
        <ele>155.9</ele>
        <time>2017-12-09T14:57:09Z</time>
      </trkpt>
      <trkpt lat="43.56525" lon="3.33645">
        <ele>155.8</ele>
        <time>2017-12-09T14:57:10Z</time>
      </trkpt>
      <trkpt lat="43.56528" lon="3.33654">
        <ele>155.7</ele>
        <time>2017-12-09T14:57:11Z</time>
      </trkpt>
      <trkpt lat="43.56529" lon="3.33663">
        <ele>155.5</ele>
        <time>2017-12-09T14:57:12Z</time>
      </trkpt>
      <trkpt lat="43.56531" lon="3.33673">
        <ele>154.9</ele>
        <time>2017-12-09T14:57:13Z</time>
      </trkpt>
      <trkpt lat="43.56535" lon="3.33682">
        <ele>154.2</ele>
        <time>2017-12-09T14:57:14Z</time>
      </trkpt>
      <trkpt lat="43.56538" lon="3.33692">
        <ele>153.5</ele>
        <time>2017-12-09T14:57:15Z</time>
      </trkpt>
      <trkpt lat="43.56541" lon="3.33702">
        <ele>152.7</ele>
        <time>2017-12-09T14:57:16Z</time>
      </trkpt>
      <trkpt lat="43.56542" lon="3.33713">
        <ele>151.9</ele>
        <time>2017-12-09T14:57:17Z</time>
      </trkpt>
      <trkpt lat="43.56544" lon="3.33723">
        <ele>151.5</ele>
        <time>2017-12-09T14:57:18Z</time>
      </trkpt>
      <trkpt lat="43.56546" lon="3.33731">
        <ele>151.4</ele>
        <time>2017-12-09T14:57:19Z</time>
      </trkpt>
      <trkpt lat="43.56548" lon="3.33737">
        <ele>151.4</ele>
        <time>2017-12-09T14:57:20Z</time>
      </trkpt>
      <trkpt lat="43.56551" lon="3.33743">
        <ele>151.4</ele>
        <time>2017-12-09T14:57:21Z</time>
      </trkpt>
      <trkpt lat="43.56555" lon="3.33745">
        <ele>151.5</ele>
        <time>2017-12-09T14:57:22Z</time>
      </trkpt>
      <trkpt lat="43.56558" lon="3.33746">
        <ele>151.5</ele>
        <time>2017-12-09T14:57:23Z</time>
      </trkpt>
      <trkpt lat="43.56563" lon="3.33748">
        <ele>151.7</ele>
        <time>2017-12-09T14:57:25Z</time>
      </trkpt>
      <trkpt lat="43.56567" lon="3.33748">
        <ele>152</ele>
        <time>2017-12-09T14:57:27Z</time>
      </trkpt>
      <trkpt lat="43.56572" lon="3.3375">
        <ele>152.7</ele>
        <time>2017-12-09T14:57:29Z</time>
      </trkpt>
      <trkpt lat="43.56574" lon="3.33753">
        <ele>152.9</ele>
        <time>2017-12-09T14:57:30Z</time>
      </trkpt>
      <trkpt lat="43.56576" lon="3.33756">
        <ele>153.1</ele>
        <time>2017-12-09T14:57:31Z</time>
      </trkpt>
      <trkpt lat="43.56577" lon="3.33759">
        <ele>153.3</ele>
        <time>2017-12-09T14:57:32Z</time>
      </trkpt>
      <trkpt lat="43.5658" lon="3.33766">
        <ele>153.7</ele>
        <time>2017-12-09T14:57:34Z</time>
      </trkpt>
      <trkpt lat="43.56582" lon="3.33772">
        <ele>154.5</ele>
        <time>2017-12-09T14:57:36Z</time>
      </trkpt>
      <trkpt lat="43.56584" lon="3.33777">
        <ele>155.1</ele>
        <time>2017-12-09T14:57:38Z</time>
      </trkpt>
      <trkpt lat="43.56586" lon="3.33782">
        <ele>155.5</ele>
        <time>2017-12-09T14:57:40Z</time>
      </trkpt>
      <trkpt lat="43.56587" lon="3.33787">
        <ele>155.9</ele>
        <time>2017-12-09T14:57:42Z</time>
      </trkpt>
      <trkpt lat="43.56588" lon="3.33794">
        <ele>156.6</ele>
        <time>2017-12-09T14:57:44Z</time>
      </trkpt>
      <trkpt lat="43.56588" lon="3.338">
        <ele>157</ele>
        <time>2017-12-09T14:57:46Z</time>
      </trkpt>
      <trkpt lat="43.56589" lon="3.33805">
        <ele>157.3</ele>
        <time>2017-12-09T14:57:48Z</time>
      </trkpt>
      <trkpt lat="43.5659" lon="3.3381">
        <ele>157.6</ele>
        <time>2017-12-09T14:57:50Z</time>
      </trkpt>
      <trkpt lat="43.56591" lon="3.33815">
        <ele>157.9</ele>
        <time>2017-12-09T14:57:52Z</time>
      </trkpt>
      <trkpt lat="43.56591" lon="3.3382">
        <ele>158.3</ele>
        <time>2017-12-09T14:57:54Z</time>
      </trkpt>
      <trkpt lat="43.56591" lon="3.33826">
        <ele>158.7</ele>
        <time>2017-12-09T14:57:56Z</time>
      </trkpt>
      <trkpt lat="43.56591" lon="3.33832">
        <ele>159</ele>
        <time>2017-12-09T14:57:58Z</time>
      </trkpt>
      <trkpt lat="43.56591" lon="3.33838">
        <ele>159.1</ele>
        <time>2017-12-09T14:58:00Z</time>
      </trkpt>
      <trkpt lat="43.56592" lon="3.33844">
        <ele>159.3</ele>
        <time>2017-12-09T14:58:02Z</time>
      </trkpt>
      <trkpt lat="43.56592" lon="3.33851">
        <ele>159.5</ele>
        <time>2017-12-09T14:58:04Z</time>
      </trkpt>
      <trkpt lat="43.56592" lon="3.33856">
        <ele>159.6</ele>
        <time>2017-12-09T14:58:06Z</time>
      </trkpt>
      <trkpt lat="43.56593" lon="3.33861">
        <ele>159.9</ele>
        <time>2017-12-09T14:58:08Z</time>
      </trkpt>
      <trkpt lat="43.56592" lon="3.33867">
        <ele>160.3</ele>
        <time>2017-12-09T14:58:10Z</time>
      </trkpt>
      <trkpt lat="43.56592" lon="3.33873">
        <ele>160.7</ele>
        <time>2017-12-09T14:58:12Z</time>
      </trkpt>
      <trkpt lat="43.56592" lon="3.3388">
        <ele>161.2</ele>
        <time>2017-12-09T14:58:14Z</time>
      </trkpt>
      <trkpt lat="43.56591" lon="3.33886">
        <ele>161.5</ele>
        <time>2017-12-09T14:58:16Z</time>
      </trkpt>
      <trkpt lat="43.5659" lon="3.33892">
        <ele>161.7</ele>
        <time>2017-12-09T14:58:18Z</time>
      </trkpt>
      <trkpt lat="43.56589" lon="3.33898">
        <ele>162</ele>
        <time>2017-12-09T14:58:20Z</time>
      </trkpt>
      <trkpt lat="43.56589" lon="3.33904">
        <ele>162.4</ele>
        <time>2017-12-09T14:58:22Z</time>
      </trkpt>
      <trkpt lat="43.56588" lon="3.3391">
        <ele>163</ele>
        <time>2017-12-09T14:58:24Z</time>
      </trkpt>
      <trkpt lat="43.56587" lon="3.33917">
        <ele>163.3</ele>
        <time>2017-12-09T14:58:26Z</time>
      </trkpt>
      <trkpt lat="43.56587" lon="3.33923">
        <ele>163.3</ele>
        <time>2017-12-09T14:58:28Z</time>
      </trkpt>
      <trkpt lat="43.56587" lon="3.3393">
        <ele>163.3</ele>
        <time>2017-12-09T14:58:30Z</time>
      </trkpt>
      <trkpt lat="43.56587" lon="3.33936">
        <ele>163.3</ele>
        <time>2017-12-09T14:58:32Z</time>
      </trkpt>
      <trkpt lat="43.56588" lon="3.33942">
        <ele>163.3</ele>
        <time>2017-12-09T14:58:34Z</time>
      </trkpt>
      <trkpt lat="43.56588" lon="3.33948">
        <ele>163.3</ele>
        <time>2017-12-09T14:58:36Z</time>
      </trkpt>
      <trkpt lat="43.5659" lon="3.33954">
        <ele>163.3</ele>
        <time>2017-12-09T14:58:38Z</time>
      </trkpt>
      <trkpt lat="43.56592" lon="3.33958">
        <ele>163.3</ele>
        <time>2017-12-09T14:58:40Z</time>
      </trkpt>
      <trkpt lat="43.56595" lon="3.33963">
        <ele>163.3</ele>
        <time>2017-12-09T14:58:42Z</time>
      </trkpt>
      <trkpt lat="43.56598" lon="3.33967">
        <ele>163.3</ele>
        <time>2017-12-09T14:58:44Z</time>
      </trkpt>
      <trkpt lat="43.56602" lon="3.33969">
        <ele>163.3</ele>
        <time>2017-12-09T14:58:46Z</time>
      </trkpt>
      <trkpt lat="43.56607" lon="3.33971">
        <ele>163.3</ele>
        <time>2017-12-09T14:58:48Z</time>
      </trkpt>
      <trkpt lat="43.56612" lon="3.3397">
        <ele>163.2</ele>
        <time>2017-12-09T14:58:50Z</time>
      </trkpt>
      <trkpt lat="43.56617" lon="3.33969">
        <ele>163.2</ele>
        <time>2017-12-09T14:58:52Z</time>
      </trkpt>
      <trkpt lat="43.56622" lon="3.33969">
        <ele>163.2</ele>
        <time>2017-12-09T14:58:54Z</time>
      </trkpt>
      <trkpt lat="43.56626" lon="3.3397">
        <ele>163.2</ele>
        <time>2017-12-09T14:58:56Z</time>
      </trkpt>
      <trkpt lat="43.56631" lon="3.3397">
        <ele>163.3</ele>
        <time>2017-12-09T14:58:58Z</time>
      </trkpt>
      <trkpt lat="43.56635" lon="3.3397">
        <ele>163.4</ele>
        <time>2017-12-09T14:59:00Z</time>
      </trkpt>
      <trkpt lat="43.56639" lon="3.3397">
        <ele>163.6</ele>
        <time>2017-12-09T14:59:02Z</time>
      </trkpt>
      <trkpt lat="43.56643" lon="3.3397">
        <ele>163.7</ele>
        <time>2017-12-09T14:59:04Z</time>
      </trkpt>
      <trkpt lat="43.56647" lon="3.33971">
        <ele>164.2</ele>
        <time>2017-12-09T14:59:06Z</time>
      </trkpt>
      <trkpt lat="43.56651" lon="3.33973">
        <ele>164.6</ele>
        <time>2017-12-09T14:59:08Z</time>
      </trkpt>
      <trkpt lat="43.56655" lon="3.33975">
        <ele>164.8</ele>
        <time>2017-12-09T14:59:10Z</time>
      </trkpt>
      <trkpt lat="43.56658" lon="3.33979">
        <ele>164.9</ele>
        <time>2017-12-09T14:59:12Z</time>
      </trkpt>
      <trkpt lat="43.56662" lon="3.33982">
        <ele>165</ele>
        <time>2017-12-09T14:59:14Z</time>
      </trkpt>
      <trkpt lat="43.56665" lon="3.33986">
        <ele>165.1</ele>
        <time>2017-12-09T14:59:16Z</time>
      </trkpt>
      <trkpt lat="43.56668" lon="3.33989">
        <ele>165.3</ele>
        <time>2017-12-09T14:59:18Z</time>
      </trkpt>
      <trkpt lat="43.56671" lon="3.33992">
        <ele>165.5</ele>
        <time>2017-12-09T14:59:20Z</time>
      </trkpt>
      <trkpt lat="43.56674" lon="3.33995">
        <ele>165.9</ele>
        <time>2017-12-09T14:59:22Z</time>
      </trkpt>
      <trkpt lat="43.56678" lon="3.33998">
        <ele>166.6</ele>
        <time>2017-12-09T14:59:24Z</time>
      </trkpt>
      <trkpt lat="43.56682" lon="3.34">
        <ele>167</ele>
        <time>2017-12-09T14:59:26Z</time>
      </trkpt>
      <trkpt lat="43.56685" lon="3.34003">
        <ele>167.3</ele>
        <time>2017-12-09T14:59:28Z</time>
      </trkpt>
      <trkpt lat="43.56689" lon="3.34005">
        <ele>167.4</ele>
        <time>2017-12-09T14:59:30Z</time>
      </trkpt>
      <trkpt lat="43.56694" lon="3.34007">
        <ele>167.5</ele>
        <time>2017-12-09T14:59:32Z</time>
      </trkpt>
      <trkpt lat="43.56697" lon="3.34009">
        <ele>167.7</ele>
        <time>2017-12-09T14:59:34Z</time>
      </trkpt>
      <trkpt lat="43.56701" lon="3.34011">
        <ele>167.8</ele>
        <time>2017-12-09T14:59:36Z</time>
      </trkpt>
      <trkpt lat="43.56704" lon="3.34014">
        <ele>168</ele>
        <time>2017-12-09T14:59:38Z</time>
      </trkpt>
      <trkpt lat="43.56708" lon="3.34016">
        <ele>168.3</ele>
        <time>2017-12-09T14:59:40Z</time>
      </trkpt>
      <trkpt lat="43.56711" lon="3.34018">
        <ele>168.8</ele>
        <time>2017-12-09T14:59:42Z</time>
      </trkpt>
      <trkpt lat="43.56715" lon="3.34021">
        <ele>169</ele>
        <time>2017-12-09T14:59:44Z</time>
      </trkpt>
      <trkpt lat="43.56718" lon="3.34024">
        <ele>169.3</ele>
        <time>2017-12-09T14:59:46Z</time>
      </trkpt>
      <trkpt lat="43.56721" lon="3.34026">
        <ele>169.6</ele>
        <time>2017-12-09T14:59:48Z</time>
      </trkpt>
      <trkpt lat="43.56725" lon="3.34029">
        <ele>169.8</ele>
        <time>2017-12-09T14:59:50Z</time>
      </trkpt>
      <trkpt lat="43.56728" lon="3.34031">
        <ele>170.3</ele>
        <time>2017-12-09T14:59:52Z</time>
      </trkpt>
      <trkpt lat="43.56731" lon="3.34033">
        <ele>170.9</ele>
        <time>2017-12-09T14:59:54Z</time>
      </trkpt>
      <trkpt lat="43.56735" lon="3.34035">
        <ele>171.1</ele>
        <time>2017-12-09T14:59:56Z</time>
      </trkpt>
      <trkpt lat="43.56739" lon="3.34036">
        <ele>171.5</ele>
        <time>2017-12-09T14:59:58Z</time>
      </trkpt>
      <trkpt lat="43.56742" lon="3.34036">
        <ele>171.7</ele>
        <time>2017-12-09T15:00:00Z</time>
      </trkpt>
      <trkpt lat="43.56746" lon="3.34038">
        <ele>172</ele>
        <time>2017-12-09T15:00:02Z</time>
      </trkpt>
      <trkpt lat="43.56749" lon="3.3404">
        <ele>172.7</ele>
        <time>2017-12-09T15:00:04Z</time>
      </trkpt>
      <trkpt lat="43.56752" lon="3.34042">
        <ele>173.1</ele>
        <time>2017-12-09T15:00:06Z</time>
      </trkpt>
      <trkpt lat="43.56756" lon="3.34045">
        <ele>173.4</ele>
        <time>2017-12-09T15:00:08Z</time>
      </trkpt>
      <trkpt lat="43.56758" lon="3.34048">
        <ele>174.2</ele>
        <time>2017-12-09T15:00:10Z</time>
      </trkpt>
      <trkpt lat="43.56761" lon="3.34052">
        <ele>174.9</ele>
        <time>2017-12-09T15:00:12Z</time>
      </trkpt>
      <trkpt lat="43.56764" lon="3.34057">
        <ele>175.2</ele>
        <time>2017-12-09T15:00:14Z</time>
      </trkpt>
      <trkpt lat="43.56766" lon="3.34061">
        <ele>175.7</ele>
        <time>2017-12-09T15:00:16Z</time>
      </trkpt>
      <trkpt lat="43.56768" lon="3.34065">
        <ele>176.5</ele>
        <time>2017-12-09T15:00:18Z</time>
      </trkpt>
      <trkpt lat="43.5677" lon="3.3407">
        <ele>176.8</ele>
        <time>2017-12-09T15:00:20Z</time>
      </trkpt>
      <trkpt lat="43.56771" lon="3.34074">
        <ele>176.8</ele>
        <time>2017-12-09T15:00:22Z</time>
      </trkpt>
      <trkpt lat="43.56773" lon="3.34078">
        <ele>176.9</ele>
        <time>2017-12-09T15:00:24Z</time>
      </trkpt>
      <trkpt lat="43.56775" lon="3.34082">
        <ele>176.9</ele>
        <time>2017-12-09T15:00:26Z</time>
      </trkpt>
      <trkpt lat="43.56777" lon="3.34087">
        <ele>176.9</ele>
        <time>2017-12-09T15:00:28Z</time>
      </trkpt>
      <trkpt lat="43.56778" lon="3.34092">
        <ele>177</ele>
        <time>2017-12-09T15:00:30Z</time>
      </trkpt>
      <trkpt lat="43.56779" lon="3.34097">
        <ele>177</ele>
        <time>2017-12-09T15:00:32Z</time>
      </trkpt>
      <trkpt lat="43.5678" lon="3.34102">
        <ele>177.1</ele>
        <time>2017-12-09T15:00:34Z</time>
      </trkpt>
      <trkpt lat="43.56781" lon="3.34106">
        <ele>177.2</ele>
        <time>2017-12-09T15:00:36Z</time>
      </trkpt>
      <trkpt lat="43.56782" lon="3.34111">
        <ele>177.3</ele>
        <time>2017-12-09T15:00:38Z</time>
      </trkpt>
      <trkpt lat="43.56783" lon="3.34114">
        <ele>177.4</ele>
        <time>2017-12-09T15:00:40Z</time>
      </trkpt>
      <trkpt lat="43.56784" lon="3.34118">
        <ele>177.5</ele>
        <time>2017-12-09T15:00:42Z</time>
      </trkpt>
      <trkpt lat="43.56785" lon="3.34123">
        <ele>177.9</ele>
        <time>2017-12-09T15:00:44Z</time>
      </trkpt>
      <trkpt lat="43.56785" lon="3.34128">
        <ele>178.4</ele>
        <time>2017-12-09T15:00:46Z</time>
      </trkpt>
      <trkpt lat="43.56786" lon="3.34132">
        <ele>178.5</ele>
        <time>2017-12-09T15:00:48Z</time>
      </trkpt>
      <trkpt lat="43.56788" lon="3.34137">
        <ele>178.8</ele>
        <time>2017-12-09T15:00:50Z</time>
      </trkpt>
      <trkpt lat="43.56789" lon="3.34142">
        <ele>179.2</ele>
        <time>2017-12-09T15:00:52Z</time>
      </trkpt>
      <trkpt lat="43.56789" lon="3.34147">
        <ele>179.6</ele>
        <time>2017-12-09T15:00:54Z</time>
      </trkpt>
      <trkpt lat="43.56789" lon="3.34152">
        <ele>180.2</ele>
        <time>2017-12-09T15:00:56Z</time>
      </trkpt>
      <trkpt lat="43.56789" lon="3.34157">
        <ele>180.6</ele>
        <time>2017-12-09T15:00:58Z</time>
      </trkpt>
      <trkpt lat="43.56789" lon="3.34162">
        <ele>180.9</ele>
        <time>2017-12-09T15:01:00Z</time>
      </trkpt>
      <trkpt lat="43.56789" lon="3.34167">
        <ele>181.2</ele>
        <time>2017-12-09T15:01:02Z</time>
      </trkpt>
      <trkpt lat="43.5679" lon="3.34172">
        <ele>181.5</ele>
        <time>2017-12-09T15:01:04Z</time>
      </trkpt>
      <trkpt lat="43.5679" lon="3.34177">
        <ele>182.2</ele>
        <time>2017-12-09T15:01:06Z</time>
      </trkpt>
      <trkpt lat="43.56791" lon="3.34182">
        <ele>182.6</ele>
        <time>2017-12-09T15:01:08Z</time>
      </trkpt>
      <trkpt lat="43.56792" lon="3.34187">
        <ele>182.9</ele>
        <time>2017-12-09T15:01:10Z</time>
      </trkpt>
      <trkpt lat="43.56794" lon="3.34192">
        <ele>183.2</ele>
        <time>2017-12-09T15:01:12Z</time>
      </trkpt>
      <trkpt lat="43.56796" lon="3.34197">
        <ele>183.8</ele>
        <time>2017-12-09T15:01:14Z</time>
      </trkpt>
      <trkpt lat="43.56797" lon="3.34202">
        <ele>184.3</ele>
        <time>2017-12-09T15:01:16Z</time>
      </trkpt>
      <trkpt lat="43.56798" lon="3.34206">
        <ele>184.6</ele>
        <time>2017-12-09T15:01:18Z</time>
      </trkpt>
      <trkpt lat="43.56799" lon="3.34211">
        <ele>184.8</ele>
        <time>2017-12-09T15:01:20Z</time>
      </trkpt>
      <trkpt lat="43.568" lon="3.34216">
        <ele>185.2</ele>
        <time>2017-12-09T15:01:22Z</time>
      </trkpt>
      <trkpt lat="43.56801" lon="3.34221">
        <ele>185.7</ele>
        <time>2017-12-09T15:01:24Z</time>
      </trkpt>
      <trkpt lat="43.56801" lon="3.34227">
        <ele>186.2</ele>
        <time>2017-12-09T15:01:26Z</time>
      </trkpt>
      <trkpt lat="43.56802" lon="3.34231">
        <ele>186.5</ele>
        <time>2017-12-09T15:01:28Z</time>
      </trkpt>
      <trkpt lat="43.56802" lon="3.34236">
        <ele>186.7</ele>
        <time>2017-12-09T15:01:30Z</time>
      </trkpt>
      <trkpt lat="43.56802" lon="3.34241">
        <ele>187</ele>
        <time>2017-12-09T15:01:32Z</time>
      </trkpt>
      <trkpt lat="43.56801" lon="3.34246">
        <ele>187.5</ele>
        <time>2017-12-09T15:01:34Z</time>
      </trkpt>
      <trkpt lat="43.56801" lon="3.34251">
        <ele>188</ele>
        <time>2017-12-09T15:01:36Z</time>
      </trkpt>
      <trkpt lat="43.56801" lon="3.34257">
        <ele>188.3</ele>
        <time>2017-12-09T15:01:38Z</time>
      </trkpt>
      <trkpt lat="43.568" lon="3.34262">
        <ele>188.6</ele>
        <time>2017-12-09T15:01:40Z</time>
      </trkpt>
      <trkpt lat="43.56801" lon="3.34267">
        <ele>188.8</ele>
        <time>2017-12-09T15:01:42Z</time>
      </trkpt>
      <trkpt lat="43.56802" lon="3.34273">
        <ele>189</ele>
        <time>2017-12-09T15:01:44Z</time>
      </trkpt>
      <trkpt lat="43.56803" lon="3.34278">
        <ele>189.3</ele>
        <time>2017-12-09T15:01:46Z</time>
      </trkpt>
      <trkpt lat="43.56805" lon="3.34285">
        <ele>190</ele>
        <time>2017-12-09T15:01:48Z</time>
      </trkpt>
      <trkpt lat="43.56807" lon="3.34289">
        <ele>190.1</ele>
        <time>2017-12-09T15:01:49Z</time>
      </trkpt>
      <trkpt lat="43.56809" lon="3.34293">
        <ele>190.1</ele>
        <time>2017-12-09T15:01:50Z</time>
      </trkpt>
      <trkpt lat="43.56812" lon="3.34297">
        <ele>190.2</ele>
        <time>2017-12-09T15:01:51Z</time>
      </trkpt>
      <trkpt lat="43.56814" lon="3.34301">
        <ele>190.2</ele>
        <time>2017-12-09T15:01:52Z</time>
      </trkpt>
      <trkpt lat="43.56816" lon="3.34304">
        <ele>190.1</ele>
        <time>2017-12-09T15:01:53Z</time>
      </trkpt>
      <trkpt lat="43.56818" lon="3.34308">
        <ele>190.1</ele>
        <time>2017-12-09T15:01:54Z</time>
      </trkpt>
      <trkpt lat="43.56822" lon="3.34312">
        <ele>190.1</ele>
        <time>2017-12-09T15:01:55Z</time>
      </trkpt>
      <trkpt lat="43.56825" lon="3.34315">
        <ele>190.1</ele>
        <time>2017-12-09T15:01:56Z</time>
      </trkpt>
      <trkpt lat="43.56828" lon="3.34318">
        <ele>190.1</ele>
        <time>2017-12-09T15:01:57Z</time>
      </trkpt>
      <trkpt lat="43.5683" lon="3.34321">
        <ele>190.1</ele>
        <time>2017-12-09T15:01:58Z</time>
      </trkpt>
      <trkpt lat="43.56832" lon="3.34323">
        <ele>190.1</ele>
        <time>2017-12-09T15:01:59Z</time>
      </trkpt>
      <trkpt lat="43.56837" lon="3.34325">
        <ele>190.1</ele>
        <time>2017-12-09T15:02:01Z</time>
      </trkpt>
      <trkpt lat="43.56842" lon="3.34326">
        <ele>190.1</ele>
        <time>2017-12-09T15:02:03Z</time>
      </trkpt>
      <trkpt lat="43.56846" lon="3.34328">
        <ele>190.1</ele>
        <time>2017-12-09T15:02:05Z</time>
      </trkpt>
      <trkpt lat="43.56851" lon="3.34329">
        <ele>190.1</ele>
        <time>2017-12-09T15:02:07Z</time>
      </trkpt>
      <trkpt lat="43.56855" lon="3.34333">
        <ele>190.1</ele>
        <time>2017-12-09T15:02:09Z</time>
      </trkpt>
      <trkpt lat="43.56857" lon="3.34338">
        <ele>190.1</ele>
        <time>2017-12-09T15:02:11Z</time>
      </trkpt>
      <trkpt lat="43.56858" lon="3.34343">
        <ele>190</ele>
        <time>2017-12-09T15:02:13Z</time>
      </trkpt>
      <trkpt lat="43.56859" lon="3.34347">
        <ele>190</ele>
        <time>2017-12-09T15:02:15Z</time>
      </trkpt>
      <trkpt lat="43.56861" lon="3.34351">
        <ele>190</ele>
        <time>2017-12-09T15:02:17Z</time>
      </trkpt>
      <trkpt lat="43.56864" lon="3.34355">
        <ele>190</ele>
        <time>2017-12-09T15:02:19Z</time>
      </trkpt>
      <trkpt lat="43.56867" lon="3.34356">
        <ele>190</ele>
        <time>2017-12-09T15:02:21Z</time>
      </trkpt>
      <trkpt lat="43.5687" lon="3.34357">
        <ele>190</ele>
        <time>2017-12-09T15:02:23Z</time>
      </trkpt>
      <trkpt lat="43.56874" lon="3.34357">
        <ele>190</ele>
        <time>2017-12-09T15:02:25Z</time>
      </trkpt>
      <trkpt lat="43.56878" lon="3.34356">
        <ele>190.1</ele>
        <time>2017-12-09T15:02:27Z</time>
      </trkpt>
      <trkpt lat="43.56881" lon="3.34355">
        <ele>190.2</ele>
        <time>2017-12-09T15:02:29Z</time>
      </trkpt>
      <trkpt lat="43.56885" lon="3.34353">
        <ele>190.6</ele>
        <time>2017-12-09T15:02:32Z</time>
      </trkpt>
      <trkpt lat="43.56888" lon="3.34351">
        <ele>191</ele>
        <time>2017-12-09T15:02:35Z</time>
      </trkpt>
      <trkpt lat="43.56891" lon="3.3435">
        <ele>191.3</ele>
        <time>2017-12-09T15:02:37Z</time>
      </trkpt>
      <trkpt lat="43.56895" lon="3.34349">
        <ele>191.5</ele>
        <time>2017-12-09T15:02:40Z</time>
      </trkpt>
      <trkpt lat="43.56898" lon="3.34348">
        <ele>191.7</ele>
        <time>2017-12-09T15:02:42Z</time>
      </trkpt>
      <trkpt lat="43.569" lon="3.34347">
        <ele>191.9</ele>
        <time>2017-12-09T15:02:44Z</time>
      </trkpt>
      <trkpt lat="43.56904" lon="3.34347">
        <ele>192.1</ele>
        <time>2017-12-09T15:02:46Z</time>
      </trkpt>
      <trkpt lat="43.56908" lon="3.34347">
        <ele>192.5</ele>
        <time>2017-12-09T15:02:49Z</time>
      </trkpt>
      <trkpt lat="43.56911" lon="3.34347">
        <ele>192.8</ele>
        <time>2017-12-09T15:02:52Z</time>
      </trkpt>
      <trkpt lat="43.56914" lon="3.34348">
        <ele>193.1</ele>
        <time>2017-12-09T15:02:54Z</time>
      </trkpt>
      <trkpt lat="43.56917" lon="3.34349">
        <ele>193.4</ele>
        <time>2017-12-09T15:02:56Z</time>
      </trkpt>
      <trkpt lat="43.5692" lon="3.3435">
        <ele>193.8</ele>
        <time>2017-12-09T15:02:58Z</time>
      </trkpt>
      <trkpt lat="43.56924" lon="3.34352">
        <ele>194.5</ele>
        <time>2017-12-09T15:03:01Z</time>
      </trkpt>
      <trkpt lat="43.56927" lon="3.34353">
        <ele>195</ele>
        <time>2017-12-09T15:03:03Z</time>
      </trkpt>
      <trkpt lat="43.5693" lon="3.34355">
        <ele>195.3</ele>
        <time>2017-12-09T15:03:05Z</time>
      </trkpt>
      <trkpt lat="43.56933" lon="3.34357">
        <ele>195.4</ele>
        <time>2017-12-09T15:03:07Z</time>
      </trkpt>
      <trkpt lat="43.56937" lon="3.34358">
        <ele>195.6</ele>
        <time>2017-12-09T15:03:09Z</time>
      </trkpt>
      <trkpt lat="43.5694" lon="3.3436">
        <ele>196</ele>
        <time>2017-12-09T15:03:11Z</time>
      </trkpt>
      <trkpt lat="43.56943" lon="3.34361">
        <ele>196.5</ele>
        <time>2017-12-09T15:03:13Z</time>
      </trkpt>
      <trkpt lat="43.56946" lon="3.34362">
        <ele>197.2</ele>
        <time>2017-12-09T15:03:15Z</time>
      </trkpt>
      <trkpt lat="43.56949" lon="3.34364">
        <ele>197.8</ele>
        <time>2017-12-09T15:03:17Z</time>
      </trkpt>
      <trkpt lat="43.56952" lon="3.34365">
        <ele>198.3</ele>
        <time>2017-12-09T15:03:19Z</time>
      </trkpt>
      <trkpt lat="43.56955" lon="3.34367">
        <ele>198.6</ele>
        <time>2017-12-09T15:03:21Z</time>
      </trkpt>
      <trkpt lat="43.56958" lon="3.34368">
        <ele>199</ele>
        <time>2017-12-09T15:03:24Z</time>
      </trkpt>
      <trkpt lat="43.56961" lon="3.34369">
        <ele>199.2</ele>
        <time>2017-12-09T15:03:26Z</time>
      </trkpt>
      <trkpt lat="43.56965" lon="3.34369">
        <ele>199.8</ele>
        <time>2017-12-09T15:03:28Z</time>
      </trkpt>
      <trkpt lat="43.56969" lon="3.34368">
        <ele>200.6</ele>
        <time>2017-12-09T15:03:30Z</time>
      </trkpt>
      <trkpt lat="43.56972" lon="3.34365">
        <ele>200.9</ele>
        <time>2017-12-09T15:03:32Z</time>
      </trkpt>
      <trkpt lat="43.56975" lon="3.34363">
        <ele>200.7</ele>
        <time>2017-12-09T15:03:34Z</time>
      </trkpt>
      <trkpt lat="43.56978" lon="3.34358">
        <ele>200.5</ele>
        <time>2017-12-09T15:03:37Z</time>
      </trkpt>
      <trkpt lat="43.56978" lon="3.34353">
        <ele>199.5</ele>
        <time>2017-12-09T15:03:39Z</time>
      </trkpt>
      <trkpt lat="43.56979" lon="3.34349">
        <ele>198.7</ele>
        <time>2017-12-09T15:03:40Z</time>
      </trkpt>
      <trkpt lat="43.5698" lon="3.34344">
        <ele>197.9</ele>
        <time>2017-12-09T15:03:42Z</time>
      </trkpt>
      <trkpt lat="43.5698" lon="3.34339">
        <ele>196.8</ele>
        <time>2017-12-09T15:03:44Z</time>
      </trkpt>
      <trkpt lat="43.56979" lon="3.34334">
        <ele>195.8</ele>
        <time>2017-12-09T15:03:46Z</time>
      </trkpt>
      <trkpt lat="43.56978" lon="3.34329">
        <ele>195</ele>
        <time>2017-12-09T15:03:48Z</time>
      </trkpt>
      <trkpt lat="43.5698" lon="3.34325">
        <ele>194.3</ele>
        <time>2017-12-09T15:03:50Z</time>
      </trkpt>
      <trkpt lat="43.56983" lon="3.34325">
        <ele>194.6</ele>
        <time>2017-12-09T15:03:52Z</time>
      </trkpt>
      <trkpt lat="43.56985" lon="3.34327">
        <ele>194.8</ele>
        <time>2017-12-09T15:03:54Z</time>
      </trkpt>
      <trkpt lat="43.56987" lon="3.34331">
        <ele>195</ele>
        <time>2017-12-09T15:03:56Z</time>
      </trkpt>
      <trkpt lat="43.56989" lon="3.34334">
        <ele>195.7</ele>
        <time>2017-12-09T15:03:59Z</time>
      </trkpt>
      <trkpt lat="43.56991" lon="3.34339">
        <ele>196.6</ele>
        <time>2017-12-09T15:04:02Z</time>
      </trkpt>
      <trkpt lat="43.56992" lon="3.34343">
        <ele>197.1</ele>
        <time>2017-12-09T15:04:04Z</time>
      </trkpt>
      <trkpt lat="43.56991" lon="3.34348">
        <ele>197.7</ele>
        <time>2017-12-09T15:04:06Z</time>
      </trkpt>
      <trkpt lat="43.56991" lon="3.34353">
        <ele>198.2</ele>
        <time>2017-12-09T15:04:09Z</time>
      </trkpt>
      <trkpt lat="43.56991" lon="3.34357">
        <ele>198.6</ele>
        <time>2017-12-09T15:04:11Z</time>
      </trkpt>
      <trkpt lat="43.5699" lon="3.34361">
        <ele>199.4</ele>
        <time>2017-12-09T15:04:13Z</time>
      </trkpt>
      <trkpt lat="43.56989" lon="3.34365">
        <ele>200</ele>
        <time>2017-12-09T15:04:15Z</time>
      </trkpt>
      <trkpt lat="43.56988" lon="3.34369">
        <ele>200.4</ele>
        <time>2017-12-09T15:04:17Z</time>
      </trkpt>
      <trkpt lat="43.56988" lon="3.34374">
        <ele>200.7</ele>
        <time>2017-12-09T15:04:19Z</time>
      </trkpt>
      <trkpt lat="43.56988" lon="3.34378">
        <ele>201</ele>
        <time>2017-12-09T15:04:21Z</time>
      </trkpt>
      <trkpt lat="43.56987" lon="3.34383">
        <ele>201.4</ele>
        <time>2017-12-09T15:04:23Z</time>
      </trkpt>
      <trkpt lat="43.56986" lon="3.34387">
        <ele>201.8</ele>
        <time>2017-12-09T15:04:24Z</time>
      </trkpt>
      <trkpt lat="43.56985" lon="3.34391">
        <ele>202.4</ele>
        <time>2017-12-09T15:04:26Z</time>
      </trkpt>
      <trkpt lat="43.56983" lon="3.34395">
        <ele>203</ele>
        <time>2017-12-09T15:04:28Z</time>
      </trkpt>
      <trkpt lat="43.56981" lon="3.344">
        <ele>203.7</ele>
        <time>2017-12-09T15:04:30Z</time>
      </trkpt>
      <trkpt lat="43.56979" lon="3.34404">
        <ele>204</ele>
        <time>2017-12-09T15:04:32Z</time>
      </trkpt>
      <trkpt lat="43.56978" lon="3.34407">
        <ele>204.3</ele>
        <time>2017-12-09T15:04:34Z</time>
      </trkpt>
      <trkpt lat="43.56976" lon="3.3441">
        <ele>204.7</ele>
        <time>2017-12-09T15:04:36Z</time>
      </trkpt>
      <trkpt lat="43.56974" lon="3.34413">
        <ele>205.4</ele>
        <time>2017-12-09T15:04:38Z</time>
      </trkpt>
      <trkpt lat="43.56971" lon="3.34416">
        <ele>206.2</ele>
        <time>2017-12-09T15:04:40Z</time>
      </trkpt>
      <trkpt lat="43.56968" lon="3.34418">
        <ele>207.1</ele>
        <time>2017-12-09T15:04:42Z</time>
      </trkpt>
      <trkpt lat="43.56965" lon="3.3442">
        <ele>207.7</ele>
        <time>2017-12-09T15:04:47Z</time>
      </trkpt>
      <trkpt lat="43.56962" lon="3.3442">
        <ele>208.5</ele>
        <time>2017-12-09T15:04:49Z</time>
      </trkpt>
      <trkpt lat="43.56958" lon="3.3442">
        <ele>209.1</ele>
        <time>2017-12-09T15:04:51Z</time>
      </trkpt>
      <trkpt lat="43.56955" lon="3.34422">
        <ele>209.5</ele>
        <time>2017-12-09T15:04:52Z</time>
      </trkpt>
      <trkpt lat="43.56952" lon="3.34423">
        <ele>210</ele>
        <time>2017-12-09T15:04:54Z</time>
      </trkpt>
      <trkpt lat="43.56949" lon="3.34424">
        <ele>210.3</ele>
        <time>2017-12-09T15:04:55Z</time>
      </trkpt>
      <trkpt lat="43.56944" lon="3.34427">
        <ele>210.7</ele>
        <time>2017-12-09T15:04:57Z</time>
      </trkpt>
      <trkpt lat="43.56942" lon="3.34431">
        <ele>211</ele>
        <time>2017-12-09T15:04:59Z</time>
      </trkpt>
      <trkpt lat="43.5694" lon="3.34437">
        <ele>211.4</ele>
        <time>2017-12-09T15:05:01Z</time>
      </trkpt>
      <trkpt lat="43.56939" lon="3.34441">
        <ele>211.6</ele>
        <time>2017-12-09T15:05:03Z</time>
      </trkpt>
      <trkpt lat="43.56939" lon="3.34445">
        <ele>212</ele>
        <time>2017-12-09T15:05:05Z</time>
      </trkpt>
      <trkpt lat="43.56939" lon="3.3445">
        <ele>212.5</ele>
        <time>2017-12-09T15:05:07Z</time>
      </trkpt>
      <trkpt lat="43.56939" lon="3.34454">
        <ele>212.9</ele>
        <time>2017-12-09T15:05:09Z</time>
      </trkpt>
      <trkpt lat="43.56939" lon="3.34459">
        <ele>213.3</ele>
        <time>2017-12-09T15:05:11Z</time>
      </trkpt>
      <trkpt lat="43.56939" lon="3.34464">
        <ele>213.4</ele>
        <time>2017-12-09T15:05:13Z</time>
      </trkpt>
      <trkpt lat="43.56939" lon="3.34469">
        <ele>213.6</ele>
        <time>2017-12-09T15:05:15Z</time>
      </trkpt>
      <trkpt lat="43.56938" lon="3.34474">
        <ele>213.8</ele>
        <time>2017-12-09T15:05:17Z</time>
      </trkpt>
      <trkpt lat="43.56936" lon="3.34479">
        <ele>213.9</ele>
        <time>2017-12-09T15:05:19Z</time>
      </trkpt>
      <trkpt lat="43.56935" lon="3.34483">
        <ele>214</ele>
        <time>2017-12-09T15:05:21Z</time>
      </trkpt>
      <trkpt lat="43.56933" lon="3.34488">
        <ele>214.1</ele>
        <time>2017-12-09T15:05:23Z</time>
      </trkpt>
      <trkpt lat="43.56931" lon="3.34492">
        <ele>214.2</ele>
        <time>2017-12-09T15:05:25Z</time>
      </trkpt>
      <trkpt lat="43.5693" lon="3.34497">
        <ele>214.3</ele>
        <time>2017-12-09T15:05:27Z</time>
      </trkpt>
      <trkpt lat="43.56929" lon="3.34502">
        <ele>214.5</ele>
        <time>2017-12-09T15:05:29Z</time>
      </trkpt>
      <trkpt lat="43.56928" lon="3.34509">
        <ele>214.6</ele>
        <time>2017-12-09T15:05:31Z</time>
      </trkpt>
      <trkpt lat="43.56927" lon="3.34513">
        <ele>214.8</ele>
        <time>2017-12-09T15:05:33Z</time>
      </trkpt>
      <trkpt lat="43.56926" lon="3.34517">
        <ele>214.9</ele>
        <time>2017-12-09T15:05:35Z</time>
      </trkpt>
      <trkpt lat="43.56925" lon="3.34522">
        <ele>215</ele>
        <time>2017-12-09T15:05:37Z</time>
      </trkpt>
      <trkpt lat="43.56924" lon="3.34526">
        <ele>215.3</ele>
        <time>2017-12-09T15:05:39Z</time>
      </trkpt>
      <trkpt lat="43.56923" lon="3.3453">
        <ele>215.5</ele>
        <time>2017-12-09T15:05:41Z</time>
      </trkpt>
      <trkpt lat="43.56922" lon="3.34534">
        <ele>215.9</ele>
        <time>2017-12-09T15:05:43Z</time>
      </trkpt>
      <trkpt lat="43.56921" lon="3.34538">
        <ele>216.4</ele>
        <time>2017-12-09T15:05:45Z</time>
      </trkpt>
      <trkpt lat="43.56919" lon="3.34545">
        <ele>217.1</ele>
        <time>2017-12-09T15:05:47Z</time>
      </trkpt>
      <trkpt lat="43.56919" lon="3.34551">
        <ele>217.4</ele>
        <time>2017-12-09T15:05:49Z</time>
      </trkpt>
      <trkpt lat="43.56918" lon="3.34556">
        <ele>217.6</ele>
        <time>2017-12-09T15:05:51Z</time>
      </trkpt>
      <trkpt lat="43.56918" lon="3.34561">
        <ele>217.8</ele>
        <time>2017-12-09T15:05:53Z</time>
      </trkpt>
      <trkpt lat="43.56915" lon="3.34565">
        <ele>212.2</ele>
        <time>2017-12-09T15:05:55Z</time>
      </trkpt>
      <trkpt lat="43.56912" lon="3.34568">
        <ele>207.5</ele>
        <time>2017-12-09T15:05:57Z</time>
      </trkpt>
      <trkpt lat="43.5691" lon="3.34572">
        <ele>203.1</ele>
        <time>2017-12-09T15:06:00Z</time>
      </trkpt>
      <trkpt lat="43.5691" lon="3.34575">
        <ele>203.1</ele>
        <time>2017-12-09T15:06:02Z</time>
      </trkpt>
      <trkpt lat="43.5691" lon="3.3458">
        <ele>203.2</ele>
        <time>2017-12-09T15:06:04Z</time>
      </trkpt>
      <trkpt lat="43.56911" lon="3.34584">
        <ele>203.4</ele>
        <time>2017-12-09T15:06:06Z</time>
      </trkpt>
      <trkpt lat="43.56913" lon="3.34588">
        <ele>203.5</ele>
        <time>2017-12-09T15:06:08Z</time>
      </trkpt>
      <trkpt lat="43.56914" lon="3.34593">
        <ele>203.7</ele>
        <time>2017-12-09T15:06:10Z</time>
      </trkpt>
      <trkpt lat="43.56916" lon="3.34598">
        <ele>203.8</ele>
        <time>2017-12-09T15:06:12Z</time>
      </trkpt>
      <trkpt lat="43.56917" lon="3.34603">
        <ele>204</ele>
        <time>2017-12-09T15:06:14Z</time>
      </trkpt>
      <trkpt lat="43.56917" lon="3.34609">
        <ele>204.2</ele>
        <time>2017-12-09T15:06:16Z</time>
      </trkpt>
      <trkpt lat="43.56916" lon="3.34615">
        <ele>204.7</ele>
        <time>2017-12-09T15:06:18Z</time>
      </trkpt>
      <trkpt lat="43.56915" lon="3.34619">
        <ele>205.3</ele>
        <time>2017-12-09T15:06:20Z</time>
      </trkpt>
      <trkpt lat="43.56914" lon="3.34624">
        <ele>206.1</ele>
        <time>2017-12-09T15:06:22Z</time>
      </trkpt>
      <trkpt lat="43.56915" lon="3.3463">
        <ele>206.9</ele>
        <time>2017-12-09T15:06:24Z</time>
      </trkpt>
      <trkpt lat="43.56916" lon="3.34635">
        <ele>207.7</ele>
        <time>2017-12-09T15:06:26Z</time>
      </trkpt>
      <trkpt lat="43.56917" lon="3.34639">
        <ele>208.4</ele>
        <time>2017-12-09T15:06:28Z</time>
      </trkpt>
      <trkpt lat="43.56917" lon="3.34643">
        <ele>209</ele>
        <time>2017-12-09T15:06:30Z</time>
      </trkpt>
      <trkpt lat="43.56918" lon="3.34647">
        <ele>209.7</ele>
        <time>2017-12-09T15:06:32Z</time>
      </trkpt>
      <trkpt lat="43.56919" lon="3.34652">
        <ele>210.4</ele>
        <time>2017-12-09T15:06:34Z</time>
      </trkpt>
      <trkpt lat="43.5692" lon="3.34656">
        <ele>211.2</ele>
        <time>2017-12-09T15:06:36Z</time>
      </trkpt>
      <trkpt lat="43.56922" lon="3.34662">
        <ele>212.1</ele>
        <time>2017-12-09T15:06:39Z</time>
      </trkpt>
      <trkpt lat="43.56923" lon="3.34666">
        <ele>212.5</ele>
        <time>2017-12-09T15:06:41Z</time>
      </trkpt>
      <trkpt lat="43.56924" lon="3.34669">
        <ele>212.8</ele>
        <time>2017-12-09T15:06:43Z</time>
      </trkpt>
      <trkpt lat="43.56926" lon="3.34673">
        <ele>213.2</ele>
        <time>2017-12-09T15:06:45Z</time>
      </trkpt>
      <trkpt lat="43.56928" lon="3.34677">
        <ele>213.9</ele>
        <time>2017-12-09T15:06:47Z</time>
      </trkpt>
      <trkpt lat="43.56929" lon="3.3468">
        <ele>214.5</ele>
        <time>2017-12-09T15:06:49Z</time>
      </trkpt>
      <trkpt lat="43.5693" lon="3.34685">
        <ele>215.2</ele>
        <time>2017-12-09T15:06:52Z</time>
      </trkpt>
      <trkpt lat="43.56931" lon="3.3469">
        <ele>215.7</ele>
        <time>2017-12-09T15:06:55Z</time>
      </trkpt>
      <trkpt lat="43.56931" lon="3.34695">
        <ele>216.1</ele>
        <time>2017-12-09T15:06:58Z</time>
      </trkpt>
      <trkpt lat="43.5693" lon="3.34699">
        <ele>216.7</ele>
        <time>2017-12-09T15:07:02Z</time>
      </trkpt>
      <trkpt lat="43.5693" lon="3.34704">
        <ele>217.3</ele>
        <time>2017-12-09T15:09:49Z</time>
      </trkpt>
      <trkpt lat="43.56931" lon="3.3471">
        <ele>217.8</ele>
        <time>2017-12-09T15:09:52Z</time>
      </trkpt>
      <trkpt lat="43.56931" lon="3.34715">
        <ele>218.1</ele>
        <time>2017-12-09T15:09:54Z</time>
      </trkpt>
      <trkpt lat="43.5693" lon="3.34719">
        <ele>218.2</ele>
        <time>2017-12-09T15:09:57Z</time>
      </trkpt>
      <trkpt lat="43.56932" lon="3.34724">
        <ele>218.3</ele>
        <time>2017-12-09T15:10:04Z</time>
      </trkpt>
      <trkpt lat="43.56933" lon="3.34729">
        <ele>218.4</ele>
        <time>2017-12-09T15:10:26Z</time>
      </trkpt>
      <trkpt lat="43.56933" lon="3.34734">
        <ele>218.4</ele>
        <time>2017-12-09T15:10:29Z</time>
      </trkpt>
      <trkpt lat="43.56932" lon="3.34739">
        <ele>218.5</ele>
        <time>2017-12-09T15:10:32Z</time>
      </trkpt>
      <trkpt lat="43.56932" lon="3.34747">
        <ele>218.5</ele>
        <time>2017-12-09T15:10:34Z</time>
      </trkpt>
      <trkpt lat="43.56932" lon="3.34753">
        <ele>218.5</ele>
        <time>2017-12-09T15:10:36Z</time>
      </trkpt>
      <trkpt lat="43.56932" lon="3.34761">
        <ele>219.1</ele>
        <time>2017-12-09T15:10:38Z</time>
      </trkpt>
      <trkpt lat="43.56931" lon="3.34765">
        <ele>219.6</ele>
        <time>2017-12-09T15:10:39Z</time>
      </trkpt>
      <trkpt lat="43.56931" lon="3.34769">
        <ele>220.2</ele>
        <time>2017-12-09T15:10:40Z</time>
      </trkpt>
      <trkpt lat="43.5693" lon="3.34773">
        <ele>220.7</ele>
        <time>2017-12-09T15:10:41Z</time>
      </trkpt>
      <trkpt lat="43.56929" lon="3.3478">
        <ele>222.1</ele>
        <time>2017-12-09T15:10:43Z</time>
      </trkpt>
      <trkpt lat="43.56929" lon="3.34784">
        <ele>222.5</ele>
        <time>2017-12-09T15:10:44Z</time>
      </trkpt>
      <trkpt lat="43.56928" lon="3.34788">
        <ele>222.8</ele>
        <time>2017-12-09T15:10:45Z</time>
      </trkpt>
      <trkpt lat="43.56927" lon="3.34793">
        <ele>223.2</ele>
        <time>2017-12-09T15:10:46Z</time>
      </trkpt>
      <trkpt lat="43.56928" lon="3.34797">
        <ele>223.5</ele>
        <time>2017-12-09T15:10:47Z</time>
      </trkpt>
      <trkpt lat="43.5693" lon="3.348">
        <ele>222.9</ele>
        <time>2017-12-09T15:10:50Z</time>
      </trkpt>
      <trkpt lat="43.56929" lon="3.34806">
        <ele>223.2</ele>
        <time>2017-12-09T15:11:12Z</time>
      </trkpt>
      <trkpt lat="43.5693" lon="3.34814">
        <ele>223.4</ele>
        <time>2017-12-09T15:11:14Z</time>
      </trkpt>
      <trkpt lat="43.56931" lon="3.34821">
        <ele>223.7</ele>
        <time>2017-12-09T15:11:15Z</time>
      </trkpt>
      <trkpt lat="43.56933" lon="3.34829">
        <ele>223</ele>
        <time>2017-12-09T15:11:16Z</time>
      </trkpt>
      <trkpt lat="43.56934" lon="3.34834">
        <ele>223.1</ele>
        <time>2017-12-09T15:11:17Z</time>
      </trkpt>
      <trkpt lat="43.56936" lon="3.34843">
        <ele>222.3</ele>
        <time>2017-12-09T15:11:19Z</time>
      </trkpt>
      <trkpt lat="43.56938" lon="3.34854">
        <ele>222.3</ele>
        <time>2017-12-09T15:11:21Z</time>
      </trkpt>
      <trkpt lat="43.56939" lon="3.34861">
        <ele>221.2</ele>
        <time>2017-12-09T15:11:22Z</time>
      </trkpt>
      <trkpt lat="43.5694" lon="3.34867">
        <ele>221.3</ele>
        <time>2017-12-09T15:11:23Z</time>
      </trkpt>
      <trkpt lat="43.56942" lon="3.34872">
        <ele>220.3</ele>
        <time>2017-12-09T15:11:24Z</time>
      </trkpt>
      <trkpt lat="43.56944" lon="3.34877">
        <ele>220.3</ele>
        <time>2017-12-09T15:11:25Z</time>
      </trkpt>
      <trkpt lat="43.56947" lon="3.34881">
        <ele>219.4</ele>
        <time>2017-12-09T15:11:26Z</time>
      </trkpt>
      <trkpt lat="43.56951" lon="3.34884">
        <ele>217.1</ele>
        <time>2017-12-09T15:11:27Z</time>
      </trkpt>
      <trkpt lat="43.56956" lon="3.34888">
        <ele>216.1</ele>
        <time>2017-12-09T15:11:28Z</time>
      </trkpt>
      <trkpt lat="43.5696" lon="3.34894">
        <ele>215.1</ele>
        <time>2017-12-09T15:11:29Z</time>
      </trkpt>
      <trkpt lat="43.56963" lon="3.34901">
        <ele>214</ele>
        <time>2017-12-09T15:11:30Z</time>
      </trkpt>
      <trkpt lat="43.56964" lon="3.34908">
        <ele>212.7</ele>
        <time>2017-12-09T15:11:31Z</time>
      </trkpt>
      <trkpt lat="43.56965" lon="3.34917">
        <ele>212.8</ele>
        <time>2017-12-09T15:11:32Z</time>
      </trkpt>
      <trkpt lat="43.56965" lon="3.34925">
        <ele>212.9</ele>
        <time>2017-12-09T15:11:33Z</time>
      </trkpt>
      <trkpt lat="43.56966" lon="3.34933">
        <ele>213</ele>
        <time>2017-12-09T15:11:34Z</time>
      </trkpt>
      <trkpt lat="43.56966" lon="3.34942">
        <ele>213.1</ele>
        <time>2017-12-09T15:11:35Z</time>
      </trkpt>
      <trkpt lat="43.56967" lon="3.3495">
        <ele>211.9</ele>
        <time>2017-12-09T15:11:36Z</time>
      </trkpt>
      <trkpt lat="43.56969" lon="3.3496">
        <ele>211.9</ele>
        <time>2017-12-09T15:11:37Z</time>
      </trkpt>
      <trkpt lat="43.56971" lon="3.34968">
        <ele>210.5</ele>
        <time>2017-12-09T15:11:38Z</time>
      </trkpt>
      <trkpt lat="43.56972" lon="3.3498">
        <ele>210.5</ele>
        <time>2017-12-09T15:11:39Z</time>
      </trkpt>
      <trkpt lat="43.56971" lon="3.34989">
        <ele>210</ele>
        <time>2017-12-09T15:11:40Z</time>
      </trkpt>
      <trkpt lat="43.56972" lon="3.34999">
        <ele>209.4</ele>
        <time>2017-12-09T15:11:41Z</time>
      </trkpt>
      <trkpt lat="43.56971" lon="3.35007">
        <ele>208.9</ele>
        <time>2017-12-09T15:11:42Z</time>
      </trkpt>
      <trkpt lat="43.5697" lon="3.35014">
        <ele>208.5</ele>
        <time>2017-12-09T15:11:43Z</time>
      </trkpt>
      <trkpt lat="43.56969" lon="3.3502">
        <ele>208.1</ele>
        <time>2017-12-09T15:11:44Z</time>
      </trkpt>
      <trkpt lat="43.56967" lon="3.35029">
        <ele>207.4</ele>
        <time>2017-12-09T15:11:45Z</time>
      </trkpt>
      <trkpt lat="43.56964" lon="3.35038">
        <ele>206.7</ele>
        <time>2017-12-09T15:11:46Z</time>
      </trkpt>
      <trkpt lat="43.5696" lon="3.35047">
        <ele>205.8</ele>
        <time>2017-12-09T15:11:47Z</time>
      </trkpt>
      <trkpt lat="43.56957" lon="3.35056">
        <ele>204.8</ele>
        <time>2017-12-09T15:11:48Z</time>
      </trkpt>
      <trkpt lat="43.56956" lon="3.35065">
        <ele>203.8</ele>
        <time>2017-12-09T15:11:49Z</time>
      </trkpt>
      <trkpt lat="43.56954" lon="3.35071">
        <ele>203</ele>
        <time>2017-12-09T15:11:50Z</time>
      </trkpt>
      <trkpt lat="43.56953" lon="3.35076">
        <ele>202.1</ele>
        <time>2017-12-09T15:11:51Z</time>
      </trkpt>
      <trkpt lat="43.56953" lon="3.35081">
        <ele>201.4</ele>
        <time>2017-12-09T15:11:52Z</time>
      </trkpt>
      <trkpt lat="43.56951" lon="3.35086">
        <ele>200.7</ele>
        <time>2017-12-09T15:11:53Z</time>
      </trkpt>
      <trkpt lat="43.5695" lon="3.35091">
        <ele>200.2</ele>
        <time>2017-12-09T15:11:54Z</time>
      </trkpt>
      <trkpt lat="43.56952" lon="3.35094">
        <ele>199.8</ele>
        <time>2017-12-09T15:11:55Z</time>
      </trkpt>
      <trkpt lat="43.56954" lon="3.35098">
        <ele>199.4</ele>
        <time>2017-12-09T15:11:56Z</time>
      </trkpt>
      <trkpt lat="43.56957" lon="3.35103">
        <ele>198.9</ele>
        <time>2017-12-09T15:11:57Z</time>
      </trkpt>
      <trkpt lat="43.56961" lon="3.35108">
        <ele>198.4</ele>
        <time>2017-12-09T15:11:58Z</time>
      </trkpt>
      <trkpt lat="43.56966" lon="3.3511">
        <ele>198.1</ele>
        <time>2017-12-09T15:11:59Z</time>
      </trkpt>
      <trkpt lat="43.56971" lon="3.35111">
        <ele>197.7</ele>
        <time>2017-12-09T15:12:00Z</time>
      </trkpt>
      <trkpt lat="43.56976" lon="3.35111">
        <ele>197.2</ele>
        <time>2017-12-09T15:12:01Z</time>
      </trkpt>
      <trkpt lat="43.5698" lon="3.35112">
        <ele>196.8</ele>
        <time>2017-12-09T15:12:02Z</time>
      </trkpt>
      <trkpt lat="43.56985" lon="3.35111">
        <ele>196.3</ele>
        <time>2017-12-09T15:12:03Z</time>
      </trkpt>
      <trkpt lat="43.56989" lon="3.35111">
        <ele>196</ele>
        <time>2017-12-09T15:12:04Z</time>
      </trkpt>
      <trkpt lat="43.56992" lon="3.35114">
        <ele>195.7</ele>
        <time>2017-12-09T15:12:05Z</time>
      </trkpt>
      <trkpt lat="43.56994" lon="3.35117">
        <ele>195.4</ele>
        <time>2017-12-09T15:12:06Z</time>
      </trkpt>
      <trkpt lat="43.56997" lon="3.35122">
        <ele>195.1</ele>
        <time>2017-12-09T15:12:07Z</time>
      </trkpt>
      <trkpt lat="43.56999" lon="3.35127">
        <ele>194.8</ele>
        <time>2017-12-09T15:12:08Z</time>
      </trkpt>
      <trkpt lat="43.57002" lon="3.35132">
        <ele>194.6</ele>
        <time>2017-12-09T15:12:09Z</time>
      </trkpt>
      <trkpt lat="43.57005" lon="3.35138">
        <ele>194.4</ele>
        <time>2017-12-09T15:12:10Z</time>
      </trkpt>
      <trkpt lat="43.57009" lon="3.35144">
        <ele>194.2</ele>
        <time>2017-12-09T15:12:11Z</time>
      </trkpt>
      <trkpt lat="43.57016" lon="3.35152">
        <ele>193.7</ele>
        <time>2017-12-09T15:12:12Z</time>
      </trkpt>
      <trkpt lat="43.57024" lon="3.35158">
        <ele>193.3</ele>
        <time>2017-12-09T15:12:13Z</time>
      </trkpt>
      <trkpt lat="43.5703" lon="3.35164">
        <ele>192.9</ele>
        <time>2017-12-09T15:12:14Z</time>
      </trkpt>
      <trkpt lat="43.57036" lon="3.35171">
        <ele>192.4</ele>
        <time>2017-12-09T15:12:15Z</time>
      </trkpt>
      <trkpt lat="43.57043" lon="3.35177">
        <ele>191.9</ele>
        <time>2017-12-09T15:12:16Z</time>
      </trkpt>
      <trkpt lat="43.5705" lon="3.35182">
        <ele>191.2</ele>
        <time>2017-12-09T15:12:17Z</time>
      </trkpt>
      <trkpt lat="43.57056" lon="3.35188">
        <ele>190.5</ele>
        <time>2017-12-09T15:12:18Z</time>
      </trkpt>
      <trkpt lat="43.57063" lon="3.35191">
        <ele>189.6</ele>
        <time>2017-12-09T15:12:19Z</time>
      </trkpt>
      <trkpt lat="43.57071" lon="3.35194">
        <ele>188.5</ele>
        <time>2017-12-09T15:12:20Z</time>
      </trkpt>
      <trkpt lat="43.57078" lon="3.35199">
        <ele>187.3</ele>
        <time>2017-12-09T15:12:21Z</time>
      </trkpt>
      <trkpt lat="43.57084" lon="3.35204">
        <ele>186.2</ele>
        <time>2017-12-09T15:12:22Z</time>
      </trkpt>
      <trkpt lat="43.57091" lon="3.35209">
        <ele>185</ele>
        <time>2017-12-09T15:12:23Z</time>
      </trkpt>
      <trkpt lat="43.57098" lon="3.35215">
        <ele>183.7</ele>
        <time>2017-12-09T15:12:24Z</time>
      </trkpt>
      <trkpt lat="43.57105" lon="3.35221">
        <ele>182.6</ele>
        <time>2017-12-09T15:12:25Z</time>
      </trkpt>
      <trkpt lat="43.57111" lon="3.35229">
        <ele>181.6</ele>
        <time>2017-12-09T15:12:26Z</time>
      </trkpt>
      <trkpt lat="43.57118" lon="3.35236">
        <ele>180.6</ele>
        <time>2017-12-09T15:12:27Z</time>
      </trkpt>
      <trkpt lat="43.57124" lon="3.35242">
        <ele>179.9</ele>
        <time>2017-12-09T15:12:28Z</time>
      </trkpt>
      <trkpt lat="43.5713" lon="3.35246">
        <ele>179.3</ele>
        <time>2017-12-09T15:12:29Z</time>
      </trkpt>
      <trkpt lat="43.57135" lon="3.3525">
        <ele>178.8</ele>
        <time>2017-12-09T15:12:30Z</time>
      </trkpt>
      <trkpt lat="43.5714" lon="3.35254">
        <ele>178.4</ele>
        <time>2017-12-09T15:12:31Z</time>
      </trkpt>
      <trkpt lat="43.57143" lon="3.3526">
        <ele>177.9</ele>
        <time>2017-12-09T15:12:32Z</time>
      </trkpt>
      <trkpt lat="43.57148" lon="3.35266">
        <ele>177.3</ele>
        <time>2017-12-09T15:12:33Z</time>
      </trkpt>
      <trkpt lat="43.57152" lon="3.35271">
        <ele>176.7</ele>
        <time>2017-12-09T15:12:34Z</time>
      </trkpt>
      <trkpt lat="43.57157" lon="3.35277">
        <ele>175.9</ele>
        <time>2017-12-09T15:12:35Z</time>
      </trkpt>
      <trkpt lat="43.57161" lon="3.35282">
        <ele>175.1</ele>
        <time>2017-12-09T15:12:36Z</time>
      </trkpt>
      <trkpt lat="43.57165" lon="3.35289">
        <ele>174.4</ele>
        <time>2017-12-09T15:12:37Z</time>
      </trkpt>
      <trkpt lat="43.57168" lon="3.35296">
        <ele>173.6</ele>
        <time>2017-12-09T15:12:38Z</time>
      </trkpt>
      <trkpt lat="43.5717" lon="3.353">
        <ele>172.9</ele>
        <time>2017-12-09T15:12:39Z</time>
      </trkpt>
      <trkpt lat="43.57173" lon="3.35305">
        <ele>172.2</ele>
        <time>2017-12-09T15:12:40Z</time>
      </trkpt>
      <trkpt lat="43.57174" lon="3.35309">
        <ele>171.8</ele>
        <time>2017-12-09T15:12:41Z</time>
      </trkpt>
      <trkpt lat="43.57175" lon="3.35313">
        <ele>171.5</ele>
        <time>2017-12-09T15:12:42Z</time>
      </trkpt>
      <trkpt lat="43.57178" lon="3.35318">
        <ele>171</ele>
        <time>2017-12-09T15:12:45Z</time>
      </trkpt>
      <trkpt lat="43.57181" lon="3.35324">
        <ele>170.4</ele>
        <time>2017-12-09T15:12:47Z</time>
      </trkpt>
      <trkpt lat="43.57183" lon="3.35328">
        <ele>170</ele>
        <time>2017-12-09T15:12:48Z</time>
      </trkpt>
      <trkpt lat="43.57185" lon="3.35331">
        <ele>169.6</ele>
        <time>2017-12-09T15:12:49Z</time>
      </trkpt>
      <trkpt lat="43.57187" lon="3.35335">
        <ele>169.3</ele>
        <time>2017-12-09T15:12:50Z</time>
      </trkpt>
      <trkpt lat="43.57189" lon="3.3534">
        <ele>168.8</ele>
        <time>2017-12-09T15:12:51Z</time>
      </trkpt>
      <trkpt lat="43.57193" lon="3.35346">
        <ele>168.2</ele>
        <time>2017-12-09T15:12:52Z</time>
      </trkpt>
      <trkpt lat="43.57195" lon="3.35352">
        <ele>167.7</ele>
        <time>2017-12-09T15:12:53Z</time>
      </trkpt>
      <trkpt lat="43.57199" lon="3.35358">
        <ele>167</ele>
        <time>2017-12-09T15:12:54Z</time>
      </trkpt>
      <trkpt lat="43.57203" lon="3.35366">
        <ele>166.4</ele>
        <time>2017-12-09T15:12:55Z</time>
      </trkpt>
      <trkpt lat="43.57206" lon="3.35374">
        <ele>165.9</ele>
        <time>2017-12-09T15:12:56Z</time>
      </trkpt>
      <trkpt lat="43.5721" lon="3.35382">
        <ele>165.2</ele>
        <time>2017-12-09T15:12:57Z</time>
      </trkpt>
      <trkpt lat="43.57215" lon="3.35391">
        <ele>164.5</ele>
        <time>2017-12-09T15:12:58Z</time>
      </trkpt>
      <trkpt lat="43.57219" lon="3.354">
        <ele>164</ele>
        <time>2017-12-09T15:12:59Z</time>
      </trkpt>
      <trkpt lat="43.57219" lon="3.35407">
        <ele>163.5</ele>
        <time>2017-12-09T15:13:00Z</time>
      </trkpt>
      <trkpt lat="43.57218" lon="3.35412">
        <ele>163.2</ele>
        <time>2017-12-09T15:13:01Z</time>
      </trkpt>
      <trkpt lat="43.57219" lon="3.35417">
        <ele>163</ele>
        <time>2017-12-09T15:13:02Z</time>
      </trkpt>
      <trkpt lat="43.57221" lon="3.3542">
        <ele>162.8</ele>
        <time>2017-12-09T15:13:03Z</time>
      </trkpt>
      <trkpt lat="43.57224" lon="3.35423">
        <ele>162.6</ele>
        <time>2017-12-09T15:13:04Z</time>
      </trkpt>
      <trkpt lat="43.57228" lon="3.35427">
        <ele>162.3</ele>
        <time>2017-12-09T15:13:05Z</time>
      </trkpt>
      <trkpt lat="43.57233" lon="3.3543">
        <ele>162.1</ele>
        <time>2017-12-09T15:13:06Z</time>
      </trkpt>
      <trkpt lat="43.5724" lon="3.35436">
        <ele>161.8</ele>
        <time>2017-12-09T15:13:07Z</time>
      </trkpt>
      <trkpt lat="43.57247" lon="3.35441">
        <ele>161.4</ele>
        <time>2017-12-09T15:13:08Z</time>
      </trkpt>
      <trkpt lat="43.57254" lon="3.35446">
        <ele>161.1</ele>
        <time>2017-12-09T15:13:09Z</time>
      </trkpt>
      <trkpt lat="43.5726" lon="3.35451">
        <ele>160.7</ele>
        <time>2017-12-09T15:13:10Z</time>
      </trkpt>
      <trkpt lat="43.57267" lon="3.35456">
        <ele>160.3</ele>
        <time>2017-12-09T15:13:11Z</time>
      </trkpt>
      <trkpt lat="43.57275" lon="3.35459">
        <ele>159.8</ele>
        <time>2017-12-09T15:13:12Z</time>
      </trkpt>
      <trkpt lat="43.57282" lon="3.35461">
        <ele>159.2</ele>
        <time>2017-12-09T15:13:13Z</time>
      </trkpt>
      <trkpt lat="43.57289" lon="3.35463">
        <ele>158.7</ele>
        <time>2017-12-09T15:13:14Z</time>
      </trkpt>
      <trkpt lat="43.57296" lon="3.35463">
        <ele>158.3</ele>
        <time>2017-12-09T15:13:15Z</time>
      </trkpt>
      <trkpt lat="43.57303" lon="3.35463">
        <ele>157.9</ele>
        <time>2017-12-09T15:13:16Z</time>
      </trkpt>
      <trkpt lat="43.5731" lon="3.35466">
        <ele>157.7</ele>
        <time>2017-12-09T15:13:17Z</time>
      </trkpt>
      <trkpt lat="43.57317" lon="3.35469">
        <ele>157.4</ele>
        <time>2017-12-09T15:13:18Z</time>
      </trkpt>
      <trkpt lat="43.57324" lon="3.35469">
        <ele>157.1</ele>
        <time>2017-12-09T15:13:19Z</time>
      </trkpt>
      <trkpt lat="43.57332" lon="3.3547">
        <ele>156.8</ele>
        <time>2017-12-09T15:13:20Z</time>
      </trkpt>
      <trkpt lat="43.57339" lon="3.3547">
        <ele>156.5</ele>
        <time>2017-12-09T15:13:21Z</time>
      </trkpt>
      <trkpt lat="43.57346" lon="3.35469">
        <ele>156.2</ele>
        <time>2017-12-09T15:13:22Z</time>
      </trkpt>
      <trkpt lat="43.57353" lon="3.35469">
        <ele>156</ele>
        <time>2017-12-09T15:13:23Z</time>
      </trkpt>
      <trkpt lat="43.57359" lon="3.35471">
        <ele>155.7</ele>
        <time>2017-12-09T15:13:24Z</time>
      </trkpt>
      <trkpt lat="43.57364" lon="3.35473">
        <ele>155.4</ele>
        <time>2017-12-09T15:13:25Z</time>
      </trkpt>
      <trkpt lat="43.57371" lon="3.35474">
        <ele>155.1</ele>
        <time>2017-12-09T15:13:26Z</time>
      </trkpt>
      <trkpt lat="43.57377" lon="3.35474">
        <ele>154.8</ele>
        <time>2017-12-09T15:13:27Z</time>
      </trkpt>
      <trkpt lat="43.57383" lon="3.35476">
        <ele>154.4</ele>
        <time>2017-12-09T15:13:28Z</time>
      </trkpt>
      <trkpt lat="43.57389" lon="3.35478">
        <ele>154</ele>
        <time>2017-12-09T15:13:29Z</time>
      </trkpt>
      <trkpt lat="43.57396" lon="3.3548">
        <ele>153.4</ele>
        <time>2017-12-09T15:13:30Z</time>
      </trkpt>
      <trkpt lat="43.57403" lon="3.35485">
        <ele>152.8</ele>
        <time>2017-12-09T15:13:31Z</time>
      </trkpt>
      <trkpt lat="43.57409" lon="3.35489">
        <ele>152.2</ele>
        <time>2017-12-09T15:13:32Z</time>
      </trkpt>
      <trkpt lat="43.57415" lon="3.35492">
        <ele>151.7</ele>
        <time>2017-12-09T15:13:33Z</time>
      </trkpt>
      <trkpt lat="43.5742" lon="3.35496">
        <ele>151.1</ele>
        <time>2017-12-09T15:13:34Z</time>
      </trkpt>
      <trkpt lat="43.57426" lon="3.355">
        <ele>150.5</ele>
        <time>2017-12-09T15:13:35Z</time>
      </trkpt>
      <trkpt lat="43.57431" lon="3.35502">
        <ele>149.8</ele>
        <time>2017-12-09T15:13:36Z</time>
      </trkpt>
      <trkpt lat="43.57436" lon="3.35505">
        <ele>149.3</ele>
        <time>2017-12-09T15:13:37Z</time>
      </trkpt>
      <trkpt lat="43.57439" lon="3.3551">
        <ele>148.7</ele>
        <time>2017-12-09T15:13:38Z</time>
      </trkpt>
      <trkpt lat="43.57442" lon="3.35515">
        <ele>148</ele>
        <time>2017-12-09T15:13:39Z</time>
      </trkpt>
      <trkpt lat="43.57445" lon="3.35518">
        <ele>147.4</ele>
        <time>2017-12-09T15:13:40Z</time>
      </trkpt>
      <trkpt lat="43.57449" lon="3.35522">
        <ele>146.7</ele>
        <time>2017-12-09T15:13:41Z</time>
      </trkpt>
      <trkpt lat="43.57453" lon="3.35527">
        <ele>145.9</ele>
        <time>2017-12-09T15:13:42Z</time>
      </trkpt>
      <trkpt lat="43.57456" lon="3.35533">
        <ele>145.1</ele>
        <time>2017-12-09T15:13:43Z</time>
      </trkpt>
      <trkpt lat="43.5746" lon="3.35538">
        <ele>144.4</ele>
        <time>2017-12-09T15:13:44Z</time>
      </trkpt>
      <trkpt lat="43.57464" lon="3.35543">
        <ele>143.6</ele>
        <time>2017-12-09T15:13:45Z</time>
      </trkpt>
      <trkpt lat="43.57468" lon="3.35547">
        <ele>142.8</ele>
        <time>2017-12-09T15:13:46Z</time>
      </trkpt>
      <trkpt lat="43.57473" lon="3.35552">
        <ele>141.9</ele>
        <time>2017-12-09T15:13:47Z</time>
      </trkpt>
      <trkpt lat="43.57476" lon="3.35557">
        <ele>141</ele>
        <time>2017-12-09T15:13:48Z</time>
      </trkpt>
      <trkpt lat="43.57479" lon="3.35561">
        <ele>141</ele>
        <time>2017-12-09T15:13:49Z</time>
      </trkpt>
      <trkpt lat="43.57482" lon="3.35564">
        <ele>141</ele>
        <time>2017-12-09T15:13:51Z</time>
      </trkpt>
      <trkpt lat="43.57485" lon="3.35563">
        <ele>140.7</ele>
        <time>2017-12-09T15:13:53Z</time>
      </trkpt>
      <trkpt lat="43.57489" lon="3.35562">
        <ele>140.2</ele>
        <time>2017-12-09T15:13:55Z</time>
      </trkpt>
      <trkpt lat="43.57492" lon="3.35559">
        <ele>139.8</ele>
        <time>2017-12-09T15:14:17Z</time>
      </trkpt>
      <trkpt lat="43.57495" lon="3.35565">
        <ele>139.1</ele>
        <time>2017-12-09T15:14:19Z</time>
      </trkpt>
      <trkpt lat="43.57497" lon="3.3557">
        <ele>138.5</ele>
        <time>2017-12-09T15:14:20Z</time>
      </trkpt>
      <trkpt lat="43.575" lon="3.35577">
        <ele>137.7</ele>
        <time>2017-12-09T15:14:21Z</time>
      </trkpt>
      <trkpt lat="43.57503" lon="3.35587">
        <ele>136.7</ele>
        <time>2017-12-09T15:14:22Z</time>
      </trkpt>
      <trkpt lat="43.57504" lon="3.35597">
        <ele>135.5</ele>
        <time>2017-12-09T15:14:23Z</time>
      </trkpt>
      <trkpt lat="43.57504" lon="3.35609">
        <ele>134.2</ele>
        <time>2017-12-09T15:14:24Z</time>
      </trkpt>
      <trkpt lat="43.57505" lon="3.3562">
        <ele>132.9</ele>
        <time>2017-12-09T15:14:25Z</time>
      </trkpt>
      <trkpt lat="43.57508" lon="3.35632">
        <ele>131.7</ele>
        <time>2017-12-09T15:14:26Z</time>
      </trkpt>
      <trkpt lat="43.57511" lon="3.35638">
        <ele>131</ele>
        <time>2017-12-09T15:14:27Z</time>
      </trkpt>
      <trkpt lat="43.57515" lon="3.35645">
        <ele>130.6</ele>
        <time>2017-12-09T15:14:28Z</time>
      </trkpt>
      <trkpt lat="43.57519" lon="3.3565">
        <ele>130.3</ele>
        <time>2017-12-09T15:14:29Z</time>
      </trkpt>
      <trkpt lat="43.57523" lon="3.35655">
        <ele>129.9</ele>
        <time>2017-12-09T15:14:30Z</time>
      </trkpt>
      <trkpt lat="43.57527" lon="3.35659">
        <ele>129.8</ele>
        <time>2017-12-09T15:14:31Z</time>
      </trkpt>
      <trkpt lat="43.57531" lon="3.35662">
        <ele>129.6</ele>
        <time>2017-12-09T15:14:32Z</time>
      </trkpt>
      <trkpt lat="43.57535" lon="3.35665">
        <ele>129.4</ele>
        <time>2017-12-09T15:14:33Z</time>
      </trkpt>
      <trkpt lat="43.57539" lon="3.35668">
        <ele>129.1</ele>
        <time>2017-12-09T15:14:34Z</time>
      </trkpt>
      <trkpt lat="43.57543" lon="3.3567">
        <ele>129</ele>
        <time>2017-12-09T15:14:35Z</time>
      </trkpt>
      <trkpt lat="43.57549" lon="3.35675">
        <ele>128.7</ele>
        <time>2017-12-09T15:14:36Z</time>
      </trkpt>
      <trkpt lat="43.57552" lon="3.35681">
        <ele>128.5</ele>
        <time>2017-12-09T15:14:37Z</time>
      </trkpt>
      <trkpt lat="43.57553" lon="3.35686">
        <ele>128.3</ele>
        <time>2017-12-09T15:14:38Z</time>
      </trkpt>
      <trkpt lat="43.57554" lon="3.35691">
        <ele>128.1</ele>
        <time>2017-12-09T15:14:39Z</time>
      </trkpt>
      <trkpt lat="43.57555" lon="3.35697">
        <ele>128</ele>
        <time>2017-12-09T15:14:40Z</time>
      </trkpt>
      <trkpt lat="43.57557" lon="3.35701">
        <ele>127.9</ele>
        <time>2017-12-09T15:14:41Z</time>
      </trkpt>
      <trkpt lat="43.57558" lon="3.35706">
        <ele>127.8</ele>
        <time>2017-12-09T15:14:42Z</time>
      </trkpt>
      <trkpt lat="43.5756" lon="3.35711">
        <ele>127.7</ele>
        <time>2017-12-09T15:14:43Z</time>
      </trkpt>
      <trkpt lat="43.57562" lon="3.35716">
        <ele>127.6</ele>
        <time>2017-12-09T15:14:44Z</time>
      </trkpt>
      <trkpt lat="43.57565" lon="3.35721">
        <ele>127.5</ele>
        <time>2017-12-09T15:14:45Z</time>
      </trkpt>
      <trkpt lat="43.57567" lon="3.35726">
        <ele>127.4</ele>
        <time>2017-12-09T15:14:46Z</time>
      </trkpt>
      <trkpt lat="43.5757" lon="3.3573">
        <ele>127.3</ele>
        <time>2017-12-09T15:14:47Z</time>
      </trkpt>
      <trkpt lat="43.57573" lon="3.35735">
        <ele>127.2</ele>
        <time>2017-12-09T15:14:48Z</time>
      </trkpt>
      <trkpt lat="43.57576" lon="3.3574">
        <ele>127.1</ele>
        <time>2017-12-09T15:14:49Z</time>
      </trkpt>
      <trkpt lat="43.57578" lon="3.35745">
        <ele>127.1</ele>
        <time>2017-12-09T15:14:50Z</time>
      </trkpt>
      <trkpt lat="43.5758" lon="3.35749">
        <ele>127</ele>
        <time>2017-12-09T15:14:51Z</time>
      </trkpt>
      <trkpt lat="43.57582" lon="3.35754">
        <ele>126.9</ele>
        <time>2017-12-09T15:14:52Z</time>
      </trkpt>
      <trkpt lat="43.57584" lon="3.35758">
        <ele>126.9</ele>
        <time>2017-12-09T15:14:53Z</time>
      </trkpt>
      <trkpt lat="43.57585" lon="3.35762">
        <ele>126.9</ele>
        <time>2017-12-09T15:14:54Z</time>
      </trkpt>
      <trkpt lat="43.57588" lon="3.35768">
        <ele>126.9</ele>
        <time>2017-12-09T15:14:56Z</time>
      </trkpt>
      <trkpt lat="43.57589" lon="3.35772">
        <ele>127</ele>
        <time>2017-12-09T15:14:57Z</time>
      </trkpt>
      <trkpt lat="43.57591" lon="3.35776">
        <ele>126.6</ele>
        <time>2017-12-09T15:14:58Z</time>
      </trkpt>
      <trkpt lat="43.57592" lon="3.3578">
        <ele>126</ele>
        <time>2017-12-09T15:14:59Z</time>
      </trkpt>
      <trkpt lat="43.57594" lon="3.35785">
        <ele>125.3</ele>
        <time>2017-12-09T15:15:00Z</time>
      </trkpt>
      <trkpt lat="43.57594" lon="3.35791">
        <ele>124.8</ele>
        <time>2017-12-09T15:15:01Z</time>
      </trkpt>
      <trkpt lat="43.57594" lon="3.35796">
        <ele>124.2</ele>
        <time>2017-12-09T15:15:02Z</time>
      </trkpt>
      <trkpt lat="43.57595" lon="3.35801">
        <ele>123.7</ele>
        <time>2017-12-09T15:15:03Z</time>
      </trkpt>
      <trkpt lat="43.57595" lon="3.35807">
        <ele>123.1</ele>
        <time>2017-12-09T15:15:04Z</time>
      </trkpt>
      <trkpt lat="43.57595" lon="3.35813">
        <ele>122.6</ele>
        <time>2017-12-09T15:15:05Z</time>
      </trkpt>
      <trkpt lat="43.57595" lon="3.35819">
        <ele>122.3</ele>
        <time>2017-12-09T15:15:06Z</time>
      </trkpt>
      <trkpt lat="43.57596" lon="3.35825">
        <ele>122</ele>
        <time>2017-12-09T15:15:07Z</time>
      </trkpt>
      <trkpt lat="43.57596" lon="3.35831">
        <ele>121.7</ele>
        <time>2017-12-09T15:15:08Z</time>
      </trkpt>
      <trkpt lat="43.57596" lon="3.35837">
        <ele>121.4</ele>
        <time>2017-12-09T15:15:09Z</time>
      </trkpt>
      <trkpt lat="43.57596" lon="3.35843">
        <ele>121.1</ele>
        <time>2017-12-09T15:15:10Z</time>
      </trkpt>
      <trkpt lat="43.57596" lon="3.35849">
        <ele>120.8</ele>
        <time>2017-12-09T15:15:11Z</time>
      </trkpt>
      <trkpt lat="43.57596" lon="3.35856">
        <ele>120.5</ele>
        <time>2017-12-09T15:15:12Z</time>
      </trkpt>
      <trkpt lat="43.57597" lon="3.35862">
        <ele>120.3</ele>
        <time>2017-12-09T15:15:13Z</time>
      </trkpt>
      <trkpt lat="43.57598" lon="3.35869">
        <ele>120.1</ele>
        <time>2017-12-09T15:15:14Z</time>
      </trkpt>
      <trkpt lat="43.57599" lon="3.35875">
        <ele>119.8</ele>
        <time>2017-12-09T15:15:15Z</time>
      </trkpt>
      <trkpt lat="43.576" lon="3.35882">
        <ele>119.6</ele>
        <time>2017-12-09T15:15:16Z</time>
      </trkpt>
      <trkpt lat="43.57601" lon="3.35888">
        <ele>119.4</ele>
        <time>2017-12-09T15:15:17Z</time>
      </trkpt>
      <trkpt lat="43.57602" lon="3.35894">
        <ele>119.2</ele>
        <time>2017-12-09T15:15:18Z</time>
      </trkpt>
      <trkpt lat="43.57603" lon="3.359">
        <ele>118.9</ele>
        <time>2017-12-09T15:15:19Z</time>
      </trkpt>
      <trkpt lat="43.57604" lon="3.35906">
        <ele>118.7</ele>
        <time>2017-12-09T15:15:20Z</time>
      </trkpt>
      <trkpt lat="43.57606" lon="3.35913">
        <ele>118.5</ele>
        <time>2017-12-09T15:15:21Z</time>
      </trkpt>
      <trkpt lat="43.57607" lon="3.35919">
        <ele>118.2</ele>
        <time>2017-12-09T15:15:22Z</time>
      </trkpt>
      <trkpt lat="43.57607" lon="3.35926">
        <ele>118</ele>
        <time>2017-12-09T15:15:23Z</time>
      </trkpt>
      <trkpt lat="43.57608" lon="3.35932">
        <ele>118</ele>
        <time>2017-12-09T15:15:24Z</time>
      </trkpt>
      <trkpt lat="43.57608" lon="3.35937">
        <ele>118</ele>
        <time>2017-12-09T15:15:25Z</time>
      </trkpt>
      <trkpt lat="43.57608" lon="3.35942">
        <ele>117.8</ele>
        <time>2017-12-09T15:15:26Z</time>
      </trkpt>
      <trkpt lat="43.57609" lon="3.35947">
        <ele>117.7</ele>
        <time>2017-12-09T15:15:27Z</time>
      </trkpt>
      <trkpt lat="43.57609" lon="3.35951">
        <ele>117.7</ele>
        <time>2017-12-09T15:15:28Z</time>
      </trkpt>
      <trkpt lat="43.5761" lon="3.35955">
        <ele>117.6</ele>
        <time>2017-12-09T15:15:29Z</time>
      </trkpt>
      <trkpt lat="43.57612" lon="3.35962">
        <ele>117.6</ele>
        <time>2017-12-09T15:15:31Z</time>
      </trkpt>
      <trkpt lat="43.57614" lon="3.35968">
        <ele>117.5</ele>
        <time>2017-12-09T15:15:33Z</time>
      </trkpt>
      <trkpt lat="43.57617" lon="3.35974">
        <ele>117.5</ele>
        <time>2017-12-09T15:15:35Z</time>
      </trkpt>
      <trkpt lat="43.57619" lon="3.35978">
        <ele>117.5</ele>
        <time>2017-12-09T15:15:36Z</time>
      </trkpt>
      <trkpt lat="43.5762" lon="3.35983">
        <ele>117.4</ele>
        <time>2017-12-09T15:15:37Z</time>
      </trkpt>
      <trkpt lat="43.57622" lon="3.35987">
        <ele>117.4</ele>
        <time>2017-12-09T15:15:38Z</time>
      </trkpt>
      <trkpt lat="43.57624" lon="3.35994">
        <ele>117.4</ele>
        <time>2017-12-09T15:15:40Z</time>
      </trkpt>
      <trkpt lat="43.57626" lon="3.35998">
        <ele>117.3</ele>
        <time>2017-12-09T15:15:41Z</time>
      </trkpt>
      <trkpt lat="43.57629" lon="3.36002">
        <ele>117.3</ele>
        <time>2017-12-09T15:15:42Z</time>
      </trkpt>
      <trkpt lat="43.57631" lon="3.36006">
        <ele>117.3</ele>
        <time>2017-12-09T15:15:43Z</time>
      </trkpt>
      <trkpt lat="43.57633" lon="3.3601">
        <ele>117.3</ele>
        <time>2017-12-09T15:15:44Z</time>
      </trkpt>
      <trkpt lat="43.57635" lon="3.36014">
        <ele>117.3</ele>
        <time>2017-12-09T15:15:45Z</time>
      </trkpt>
      <trkpt lat="43.57637" lon="3.36017">
        <ele>117.2</ele>
        <time>2017-12-09T15:15:46Z</time>
      </trkpt>
      <trkpt lat="43.57638" lon="3.3602">
        <ele>117.2</ele>
        <time>2017-12-09T15:15:47Z</time>
      </trkpt>
      <trkpt lat="43.5764" lon="3.36024">
        <ele>117.2</ele>
        <time>2017-12-09T15:15:48Z</time>
      </trkpt>
      <trkpt lat="43.57641" lon="3.36027">
        <ele>117.2</ele>
        <time>2017-12-09T15:15:49Z</time>
      </trkpt>
      <trkpt lat="43.57644" lon="3.36034">
        <ele>117.2</ele>
        <time>2017-12-09T15:15:51Z</time>
      </trkpt>
      <trkpt lat="43.57646" lon="3.36037">
        <ele>117.2</ele>
        <time>2017-12-09T15:15:52Z</time>
      </trkpt>
      <trkpt lat="43.57648" lon="3.36041">
        <ele>117.1</ele>
        <time>2017-12-09T15:15:53Z</time>
      </trkpt>
      <trkpt lat="43.57649" lon="3.36045">
        <ele>117.1</ele>
        <time>2017-12-09T15:15:54Z</time>
      </trkpt>
      <trkpt lat="43.57652" lon="3.36051">
        <ele>117.1</ele>
        <time>2017-12-09T15:15:56Z</time>
      </trkpt>
      <trkpt lat="43.57652" lon="3.36054">
        <ele>117.1</ele>
        <time>2017-12-09T15:15:57Z</time>
      </trkpt>
      <trkpt lat="43.57654" lon="3.36062">
        <ele>117.1</ele>
        <time>2017-12-09T15:15:59Z</time>
      </trkpt>
      <trkpt lat="43.57654" lon="3.36066">
        <ele>117.1</ele>
        <time>2017-12-09T15:16:00Z</time>
      </trkpt>
      <trkpt lat="43.57655" lon="3.3607">
        <ele>117</ele>
        <time>2017-12-09T15:16:01Z</time>
      </trkpt>
      <trkpt lat="43.57655" lon="3.36074">
        <ele>117</ele>
        <time>2017-12-09T15:16:02Z</time>
      </trkpt>
      <trkpt lat="43.57656" lon="3.36078">
        <ele>117</ele>
        <time>2017-12-09T15:16:03Z</time>
      </trkpt>
      <trkpt lat="43.57657" lon="3.36082">
        <ele>117</ele>
        <time>2017-12-09T15:16:04Z</time>
      </trkpt>
      <trkpt lat="43.57658" lon="3.36086">
        <ele>117.3</ele>
        <time>2017-12-09T15:16:05Z</time>
      </trkpt>
      <trkpt lat="43.57659" lon="3.36091">
        <ele>117.9</ele>
        <time>2017-12-09T15:16:06Z</time>
      </trkpt>
      <trkpt lat="43.5766" lon="3.36096">
        <ele>118.5</ele>
        <time>2017-12-09T15:16:07Z</time>
      </trkpt>
      <trkpt lat="43.57661" lon="3.36101">
        <ele>119.2</ele>
        <time>2017-12-09T15:16:08Z</time>
      </trkpt>
      <trkpt lat="43.57662" lon="3.36106">
        <ele>119.9</ele>
        <time>2017-12-09T15:16:09Z</time>
      </trkpt>
      <trkpt lat="43.57662" lon="3.36112">
        <ele>120.5</ele>
        <time>2017-12-09T15:16:10Z</time>
      </trkpt>
      <trkpt lat="43.57664" lon="3.36116">
        <ele>121.1</ele>
        <time>2017-12-09T15:16:11Z</time>
      </trkpt>
      <trkpt lat="43.57665" lon="3.36121">
        <ele>121.7</ele>
        <time>2017-12-09T15:16:12Z</time>
      </trkpt>
      <trkpt lat="43.57666" lon="3.36125">
        <ele>122.2</ele>
        <time>2017-12-09T15:16:13Z</time>
      </trkpt>
      <trkpt lat="43.57667" lon="3.36132">
        <ele>123.1</ele>
        <time>2017-12-09T15:16:15Z</time>
      </trkpt>
      <trkpt lat="43.57668" lon="3.36139">
        <ele>124</ele>
        <time>2017-12-09T15:16:17Z</time>
      </trkpt>
      <trkpt lat="43.57667" lon="3.36149">
        <ele>124</ele>
        <time>2017-12-09T15:16:20Z</time>
      </trkpt>
      <trkpt lat="43.57668" lon="3.36156">
        <ele>124</ele>
        <time>2017-12-09T15:16:22Z</time>
      </trkpt>
      <trkpt lat="43.57669" lon="3.3616">
        <ele>124</ele>
        <time>2017-12-09T15:16:23Z</time>
      </trkpt>
      <trkpt lat="43.57669" lon="3.36164">
        <ele>124</ele>
        <time>2017-12-09T15:16:24Z</time>
      </trkpt>
      <trkpt lat="43.5767" lon="3.36171">
        <ele>124</ele>
        <time>2017-12-09T15:16:26Z</time>
      </trkpt>
      <trkpt lat="43.57672" lon="3.36177">
        <ele>124</ele>
        <time>2017-12-09T15:16:28Z</time>
      </trkpt>
      <trkpt lat="43.57672" lon="3.36186">
        <ele>124</ele>
        <time>2017-12-09T15:16:30Z</time>
      </trkpt>
      <trkpt lat="43.57673" lon="3.36192">
        <ele>124</ele>
        <time>2017-12-09T15:16:32Z</time>
      </trkpt>
      <trkpt lat="43.57673" lon="3.36197">
        <ele>124</ele>
        <time>2017-12-09T15:16:34Z</time>
      </trkpt>
      <trkpt lat="43.57673" lon="3.36202">
        <ele>124</ele>
        <time>2017-12-09T15:16:36Z</time>
      </trkpt>
      <trkpt lat="43.57675" lon="3.36206">
        <ele>124</ele>
        <time>2017-12-09T15:16:38Z</time>
      </trkpt>
      <trkpt lat="43.57676" lon="3.36211">
        <ele>124</ele>
        <time>2017-12-09T15:16:39Z</time>
      </trkpt>
      <trkpt lat="43.57678" lon="3.36216">
        <ele>124</ele>
        <time>2017-12-09T15:16:40Z</time>
      </trkpt>
      <trkpt lat="43.5768" lon="3.3622">
        <ele>123.9</ele>
        <time>2017-12-09T15:16:41Z</time>
      </trkpt>
      <trkpt lat="43.57681" lon="3.36224">
        <ele>123.8</ele>
        <time>2017-12-09T15:16:42Z</time>
      </trkpt>
      <trkpt lat="43.57683" lon="3.36227">
        <ele>123.7</ele>
        <time>2017-12-09T15:16:43Z</time>
      </trkpt>
      <trkpt lat="43.57687" lon="3.36233">
        <ele>123.6</ele>
        <time>2017-12-09T15:16:45Z</time>
      </trkpt>
      <trkpt lat="43.57689" lon="3.36236">
        <ele>123.5</ele>
        <time>2017-12-09T15:16:46Z</time>
      </trkpt>
      <trkpt lat="43.5769" lon="3.3624">
        <ele>123.3</ele>
        <time>2017-12-09T15:16:47Z</time>
      </trkpt>
      <trkpt lat="43.57692" lon="3.36244">
        <ele>123.2</ele>
        <time>2017-12-09T15:16:48Z</time>
      </trkpt>
      <trkpt lat="43.57693" lon="3.36249">
        <ele>123</ele>
        <time>2017-12-09T15:16:49Z</time>
      </trkpt>
      <trkpt lat="43.57694" lon="3.36253">
        <ele>122.9</ele>
        <time>2017-12-09T15:16:50Z</time>
      </trkpt>
      <trkpt lat="43.57696" lon="3.36257">
        <ele>122.7</ele>
        <time>2017-12-09T15:16:51Z</time>
      </trkpt>
      <trkpt lat="43.57699" lon="3.36261">
        <ele>122.5</ele>
        <time>2017-12-09T15:16:52Z</time>
      </trkpt>
      <trkpt lat="43.57701" lon="3.36266">
        <ele>122.3</ele>
        <time>2017-12-09T15:16:53Z</time>
      </trkpt>
      <trkpt lat="43.57703" lon="3.36271">
        <ele>122</ele>
        <time>2017-12-09T15:16:54Z</time>
      </trkpt>
      <trkpt lat="43.57705" lon="3.36276">
        <ele>121.5</ele>
        <time>2017-12-09T15:16:55Z</time>
      </trkpt>
      <trkpt lat="43.5771" lon="3.36281">
        <ele>121</ele>
        <time>2017-12-09T15:16:56Z</time>
      </trkpt>
      <trkpt lat="43.57715" lon="3.36285">
        <ele>121</ele>
        <time>2017-12-09T15:16:57Z</time>
      </trkpt>
      <trkpt lat="43.57719" lon="3.36289">
        <ele>121</ele>
        <time>2017-12-09T15:16:58Z</time>
      </trkpt>
      <trkpt lat="43.57724" lon="3.36294">
        <ele>121</ele>
        <time>2017-12-09T15:16:59Z</time>
      </trkpt>
      <trkpt lat="43.57728" lon="3.36297">
        <ele>121</ele>
        <time>2017-12-09T15:17:00Z</time>
      </trkpt>
      <trkpt lat="43.57732" lon="3.36299">
        <ele>121</ele>
        <time>2017-12-09T15:17:01Z</time>
      </trkpt>
      <trkpt lat="43.57736" lon="3.363">
        <ele>121</ele>
        <time>2017-12-09T15:17:02Z</time>
      </trkpt>
      <trkpt lat="43.57741" lon="3.36302">
        <ele>121</ele>
        <time>2017-12-09T15:17:04Z</time>
      </trkpt>
      <trkpt lat="43.57745" lon="3.36301">
        <ele>121.1</ele>
        <time>2017-12-09T15:17:06Z</time>
      </trkpt>
      <trkpt lat="43.57745" lon="3.36296">
        <ele>121.2</ele>
        <time>2017-12-09T15:17:08Z</time>
      </trkpt>
      <trkpt lat="43.57743" lon="3.36291">
        <ele>121.2</ele>
        <time>2017-12-09T15:17:10Z</time>
      </trkpt>
      <trkpt lat="43.5774" lon="3.36285">
        <ele>121.3</ele>
        <time>2017-12-09T15:17:12Z</time>
      </trkpt>
      <trkpt lat="43.57737" lon="3.36281">
        <ele>121.3</ele>
        <time>2017-12-09T15:17:14Z</time>
      </trkpt>
      <trkpt lat="43.57734" lon="3.36276">
        <ele>121.4</ele>
        <time>2017-12-09T15:17:16Z</time>
      </trkpt>
      <trkpt lat="43.57733" lon="3.3627">
        <ele>121.5</ele>
        <time>2017-12-09T15:17:18Z</time>
      </trkpt>
      <trkpt lat="43.57734" lon="3.36264">
        <ele>121.5</ele>
        <time>2017-12-09T15:17:20Z</time>
      </trkpt>
      <trkpt lat="43.57735" lon="3.3626">
        <ele>121.6</ele>
        <time>2017-12-09T15:17:22Z</time>
      </trkpt>
      <trkpt lat="43.57735" lon="3.36264">
        <ele>121.6</ele>
        <time>2017-12-09T15:21:05Z</time>
      </trkpt>
    </trkseg>
  </trk>
</gpx>